<?xml version='1.0' encoding='UTF-8'?><gpx version="1.1" creator="JPX - https://github.com/jenetics/jpx" xmlns="http://www.topografix.com/GPX/1/1"><trk><trkseg><trkpt lat="36.974417633017865" lon="15.221868295780586"><ele>27.0</ele><time>2026-04-19T13:04:38Z</time></trkpt><trkpt lat="36.97435962212489" lon="15.221828486273402"><ele>27.0</ele><time>2026-04-19T13:04:39Z</time></trkpt><trkpt lat="36.97431160510813" lon="15.221742815707668"><ele>27.0</ele><time>2026-04-19T13:04:44Z</time></trkpt><trkpt lat="36.97424460223552" lon="15.221744273683692"><ele>27.0</ele><time>2026-04-19T13:06:10Z</time></trkpt><trkpt lat="36.97417873485798" lon="15.221748025265695"><ele>27.0</ele><time>2026-04-19T13:06:11Z</time></trkpt><trkpt lat="36.97408148535583" lon="15.221748470831006"><ele>27.0</ele><time>2026-04-19T13:06:12Z</time></trkpt><trkpt lat="36.973982721972924" lon="15.221720942822317"><ele>27.0</ele><time>2026-04-19T13:06:13Z</time></trkpt><trkpt lat="36.97390050201412" lon="15.221717541789504"><ele>27.000000000000004</ele><time>2026-04-19T13:06:14Z</time></trkpt><trkpt lat="36.97380831204528" lon="15.221713728347162"><ele>27.000000000000004</ele><time>2026-04-19T13:06:15Z</time></trkpt><trkpt lat="36.973710552391346" lon="15.221709892779888"><ele>27.0</ele><time>2026-04-19T13:06:16Z</time></trkpt><trkpt lat="36.973618112266145" lon="15.221706423051671"><ele>27.0</ele><time>2026-04-19T13:06:17Z</time></trkpt><trkpt lat="36.9735256693895" lon="15.221702953220708"><ele>27.0</ele><time>2026-04-19T13:06:18Z</time></trkpt><trkpt lat="36.973436898007314" lon="15.221699621198164"><ele>27.0</ele><time>2026-04-19T13:06:19Z</time></trkpt><trkpt lat="36.97334747946215" lon="15.221696829037866"><ele>27.0</ele><time>2026-04-19T13:06:20Z</time></trkpt><trkpt lat="36.97326398090824" lon="15.221695746748964"><ele>27.0</ele><time>2026-04-19T13:06:21Z</time></trkpt><trkpt lat="36.97318033282084" lon="15.221694662522996"><ele>27.0</ele><time>2026-04-19T13:06:22Z</time></trkpt><trkpt lat="36.97308984013708" lon="15.221693489577376"><ele>27.0</ele><time>2026-04-19T13:06:23Z</time></trkpt><trkpt lat="36.97300530646313" lon="15.221690785699009"><ele>27.200000000000003</ele><time>2026-04-19T13:06:24Z</time></trkpt><trkpt lat="36.97291920464711" lon="15.221687221397401"><ele>27.400000000000002</ele><time>2026-04-19T13:06:25Z</time></trkpt><trkpt lat="36.97283045129823" lon="15.221683547332654"><ele>27.599999999999998</ele><time>2026-04-19T13:06:26Z</time></trkpt><trkpt lat="36.97273530671977" lon="15.221679652863417"><ele>27.799999999999997</ele><time>2026-04-19T13:06:27Z</time></trkpt><trkpt lat="36.972631527342" lon="15.221676912420085"><ele>28.0</ele><time>2026-04-19T13:06:28Z</time></trkpt><trkpt lat="36.97252532505481" lon="15.22167410799659"><ele>28.4</ele><time>2026-04-19T13:06:29Z</time></trkpt><trkpt lat="36.972425173973654" lon="15.221671463364396"><ele>28.799999999999997</ele><time>2026-04-19T13:06:30Z</time></trkpt><trkpt lat="36.972329744309626" lon="15.221668943408439"><ele>29.2</ele><time>2026-04-19T13:06:31Z</time></trkpt><trkpt lat="36.9722389766699" lon="15.221666546559726"><ele>29.6</ele><time>2026-04-19T13:06:32Z</time></trkpt><trkpt lat="36.97215218097781" lon="15.221664254596158"><ele>30.0</ele><time>2026-04-19T13:06:33Z</time></trkpt><trkpt lat="36.972068886120056" lon="15.221661832136565"><ele>30.0</ele><time>2026-04-19T13:06:34Z</time></trkpt><trkpt lat="36.971987265988574" lon="15.22165937149243"><ele>30.0</ele><time>2026-04-19T13:06:35Z</time></trkpt><trkpt lat="36.971907846423385" lon="15.221656977189053"><ele>30.0</ele><time>2026-04-19T13:06:36Z</time></trkpt><trkpt lat="36.97183006134232" lon="15.221654632160615"><ele>30.0</ele><time>2026-04-19T13:06:37Z</time></trkpt><trkpt lat="36.971752026768335" lon="15.22165302750234"><ele>30.0</ele><time>2026-04-19T13:06:38Z</time></trkpt><trkpt lat="36.97167580630484" lon="15.221651612081095"><ele>30.0</ele><time>2026-04-19T13:06:39Z</time></trkpt><trkpt lat="36.97160258366172" lon="15.221650252330317"><ele>30.0</ele><time>2026-04-19T13:06:40Z</time></trkpt><trkpt lat="36.971532494047686" lon="15.221647269490589"><ele>30.0</ele><time>2026-04-19T13:06:41Z</time></trkpt><trkpt lat="36.97146289936987" lon="15.221644276856715"><ele>30.0</ele><time>2026-04-19T13:06:42Z</time></trkpt><trkpt lat="36.97139500687464" lon="15.22164135741809"><ele>30.0</ele><time>2026-04-19T13:06:43Z</time></trkpt><trkpt lat="36.97132868754063" lon="15.221638505622943"><ele>30.0</ele><time>2026-04-19T13:06:44Z</time></trkpt><trkpt lat="36.971259477071094" lon="15.22163560946917"><ele>30.0</ele><time>2026-04-19T13:06:45Z</time></trkpt><trkpt lat="36.971193803353856" lon="15.221632827994346"><ele>30.0</ele><time>2026-04-19T13:06:46Z</time></trkpt><trkpt lat="36.971126738414185" lon="15.221630005685597"><ele>30.0</ele><time>2026-04-19T13:06:47Z</time></trkpt><trkpt lat="36.97106053006165" lon="15.22162838977634"><ele>30.0</ele><time>2026-04-19T13:06:48Z</time></trkpt><trkpt lat="36.97099436639262" lon="15.221626774956553"><ele>30.0</ele><time>2026-04-19T13:06:49Z</time></trkpt><trkpt lat="36.9709261374195" lon="15.221625109730418"><ele>30.0</ele><time>2026-04-19T13:06:50Z</time></trkpt><trkpt lat="36.97086132156829" lon="15.221623527806404"><ele>30.0</ele><time>2026-04-19T13:06:51Z</time></trkpt><trkpt lat="36.970792976405825" lon="15.221621859743522"><ele>30.0</ele><time>2026-04-19T13:06:52Z</time></trkpt><trkpt lat="36.97072599167407" lon="15.221620224884841"><ele>30.0</ele><time>2026-04-19T13:06:53Z</time></trkpt><trkpt lat="36.970655347304834" lon="15.221618500707667"><ele>30.0</ele><time>2026-04-19T13:06:54Z</time></trkpt><trkpt lat="36.97058654765243" lon="15.221616821552777"><ele>30.0</ele><time>2026-04-19T13:06:55Z</time></trkpt><trkpt lat="36.97051634239826" lon="15.221614994793736"><ele>30.0</ele><time>2026-04-19T13:06:56Z</time></trkpt><trkpt lat="36.97044183900751" lon="15.22161224550618"><ele>30.0</ele><time>2026-04-19T13:06:57Z</time></trkpt><trkpt lat="36.97036794958358" lon="15.221609518876296"><ele>30.0</ele><time>2026-04-19T13:06:58Z</time></trkpt><trkpt lat="36.97029226731616" lon="15.221606726087236"><ele>30.0</ele><time>2026-04-19T13:06:59Z</time></trkpt><trkpt lat="36.970217090750644" lon="15.221603951959343"><ele>30.0</ele><time>2026-04-19T13:07:00Z</time></trkpt><trkpt lat="36.97013866154967" lon="15.2216029408029"><ele>30.0</ele><time>2026-04-19T13:07:01Z</time></trkpt><trkpt lat="36.97006148938431" lon="15.221602567852127"><ele>30.0</ele><time>2026-04-19T13:07:02Z</time></trkpt><trkpt lat="36.9699838600192" lon="15.221602192691273"><ele>30.0</ele><time>2026-04-19T13:07:03Z</time></trkpt><trkpt lat="36.96990681884957" lon="15.221601820371307"><ele>30.0</ele><time>2026-04-19T13:07:04Z</time></trkpt><trkpt lat="36.96983285143646" lon="15.2215999361277"><ele>30.0</ele><time>2026-04-19T13:07:05Z</time></trkpt><trkpt lat="36.9697541739027" lon="15.221597004706764"><ele>30.0</ele><time>2026-04-19T13:07:06Z</time></trkpt><trkpt lat="36.96967755639867" lon="15.22159319826504"><ele>30.166666666666668</ele><time>2026-04-19T13:07:07Z</time></trkpt><trkpt lat="36.9695992347296" lon="15.2215893071584"><ele>30.333333333333336</ele><time>2026-04-19T13:07:08Z</time></trkpt><trkpt lat="36.9695228837849" lon="15.22158551395934"><ele>30.5</ele><time>2026-04-19T13:07:09Z</time></trkpt><trkpt lat="36.9694447728602" lon="15.221584423375766"><ele>30.666666666666668</ele><time>2026-04-19T13:07:10Z</time></trkpt><trkpt lat="36.969375009420304" lon="15.221584423375289"><ele>30.833333333333336</ele><time>2026-04-19T13:07:11Z</time></trkpt><trkpt lat="36.96929914396729" lon="15.221584424705476"><ele>31.0</ele><time>2026-04-19T13:07:12Z</time></trkpt><trkpt lat="36.969204300136624" lon="15.221702960279726"><ele>31.0</ele><time>2026-04-19T13:07:13Z</time></trkpt><trkpt lat="36.969144190405245" lon="15.221789871167958"><ele>31.0</ele><time>2026-04-19T13:07:14Z</time></trkpt><trkpt lat="36.9690760742152" lon="15.221906795002027"><ele>31.0</ele><time>2026-04-19T13:07:15Z</time></trkpt><trkpt lat="36.96900530219898" lon="15.222027731514192"><ele>31.0</ele><time>2026-04-19T13:07:16Z</time></trkpt><trkpt lat="36.968935440926685" lon="15.22214393203094"><ele>31.0</ele><time>2026-04-19T13:07:17Z</time></trkpt><trkpt lat="36.968874730057976" lon="15.222244912670195"><ele>30.8</ele><time>2026-04-19T13:07:18Z</time></trkpt><trkpt lat="36.9688256106099" lon="15.222326613225125"><ele>30.6</ele><time>2026-04-19T13:07:19Z</time></trkpt><trkpt lat="36.96878113005015" lon="15.222400597908617"><ele>30.4</ele><time>2026-04-19T13:07:20Z</time></trkpt><trkpt lat="36.96874000441408" lon="15.22246977626892"><ele>30.2</ele><time>2026-04-19T13:07:21Z</time></trkpt><trkpt lat="36.968684609086665" lon="15.222574465490542"><ele>30.0</ele><time>2026-04-19T13:07:23Z</time></trkpt><trkpt lat="36.96851618775893" lon="15.22244696093368"><ele>30.0</ele><time>2026-04-19T13:07:29Z</time></trkpt><trkpt lat="36.968452052405304" lon="15.222350899238602"><ele>30.0</ele><time>2026-04-19T13:07:30Z</time></trkpt><trkpt lat="36.968376376223965" lon="15.22226506300834"><ele>30.0</ele><time>2026-04-19T13:07:31Z</time></trkpt><trkpt lat="36.968291908698305" lon="15.222160070357214"><ele>30.0</ele><time>2026-04-19T13:07:32Z</time></trkpt><trkpt lat="36.9681940751289" lon="15.222022222549791"><ele>29.666666666666664</ele><time>2026-04-19T13:07:33Z</time></trkpt><trkpt lat="36.96809013696522" lon="15.221880304162225"><ele>29.333333333333332</ele><time>2026-04-19T13:07:34Z</time></trkpt><trkpt lat="36.9679692055557" lon="15.221719160181074"><ele>29.0</ele><time>2026-04-19T13:07:35Z</time></trkpt><trkpt lat="36.96783631928587" lon="15.221545637557087"><ele>29.666666666666664</ele><time>2026-04-19T13:07:36Z</time></trkpt><trkpt lat="36.96771972410593" lon="15.221397698175407"><ele>30.333333333333336</ele><time>2026-04-19T13:07:37Z</time></trkpt><trkpt lat="36.96760466613595" lon="15.221247664880984"><ele>31.0</ele><time>2026-04-19T13:07:38Z</time></trkpt><trkpt lat="36.96748245787292" lon="15.221088307684278"><ele>31.333333333333336</ele><time>2026-04-19T13:07:39Z</time></trkpt><trkpt lat="36.96733016328541" lon="15.220913155059678"><ele>31.666666666666664</ele><time>2026-04-19T13:07:40Z</time></trkpt><trkpt lat="36.96718962548254" lon="15.22070005978166"><ele>32.0</ele><time>2026-04-19T13:07:41Z</time></trkpt><trkpt lat="36.967058671460315" lon="15.220526705264966"><ele>32.0</ele><time>2026-04-19T13:07:42Z</time></trkpt><trkpt lat="36.966940024370025" lon="15.220368365523187"><ele>32.0</ele><time>2026-04-19T13:07:43Z</time></trkpt><trkpt lat="36.96682496716096" lon="15.220233992461727"><ele>32.0</ele><time>2026-04-19T13:07:44Z</time></trkpt><trkpt lat="36.96675354676179" lon="15.220070578863055"><ele>31.0</ele><time>2026-04-19T13:07:45Z</time></trkpt><trkpt lat="36.96665513573738" lon="15.219892219141007"><ele>30.0</ele><time>2026-04-19T13:07:46Z</time></trkpt><trkpt lat="36.96658039961717" lon="15.219657929914248"><ele>29.0</ele><time>2026-04-19T13:07:47Z</time></trkpt><trkpt lat="36.966508241142165" lon="15.219410965371736"><ele>29.0</ele><time>2026-04-19T13:07:48Z</time></trkpt><trkpt lat="36.966427165664285" lon="15.219151387021906"><ele>29.0</ele><time>2026-04-19T13:07:49Z</time></trkpt><trkpt lat="36.966342012470314" lon="15.218898068962169"><ele>29.0</ele><time>2026-04-19T13:07:50Z</time></trkpt><trkpt lat="36.96627680923033" lon="15.218649268677108"><ele>30.0</ele><time>2026-04-19T13:07:51Z</time></trkpt><trkpt lat="36.96617304745752" lon="15.218420572116669"><ele>31.0</ele><time>2026-04-19T13:07:52Z</time></trkpt><trkpt lat="36.9660913459096" lon="15.218198113999176"><ele>32.0</ele><time>2026-04-19T13:07:53Z</time></trkpt><trkpt lat="36.966013805360376" lon="15.218002436819411"><ele>32.0</ele><time>2026-04-19T13:07:54Z</time></trkpt><trkpt lat="36.96592328121686" lon="15.217795133836752"><ele>32.0</ele><time>2026-04-19T13:07:55Z</time></trkpt><trkpt lat="36.96582652186717" lon="15.217595028129727"><ele>32.0</ele><time>2026-04-19T13:07:56Z</time></trkpt><trkpt lat="36.965732312495916" lon="15.217401018400366"><ele>31.333333333333332</ele><time>2026-04-19T13:07:57Z</time></trkpt><trkpt lat="36.96563973979608" lon="15.217224089391266"><ele>30.666666666666664</ele><time>2026-04-19T13:07:58Z</time></trkpt><trkpt lat="36.96555831492203" lon="15.217049007715532"><ele>30.0</ele><time>2026-04-19T13:07:59Z</time></trkpt><trkpt lat="36.96549346773972" lon="15.216889158038132"><ele>30.0</ele><time>2026-04-19T13:08:00Z</time></trkpt><trkpt lat="36.96541576316997" lon="15.216726341503403"><ele>30.0</ele><time>2026-04-19T13:08:01Z</time></trkpt><trkpt lat="36.965347261276726" lon="15.216555907990697"><ele>30.0</ele><time>2026-04-19T13:08:02Z</time></trkpt><trkpt lat="36.96528375754286" lon="15.2163842702695"><ele>29.5</ele><time>2026-04-19T13:08:03Z</time></trkpt><trkpt lat="36.965225536110545" lon="15.216211379458299"><ele>29.0</ele><time>2026-04-19T13:08:04Z</time></trkpt><trkpt lat="36.965169347645045" lon="15.216041444248553"><ele>28.5</ele><time>2026-04-19T13:08:05Z</time></trkpt><trkpt lat="36.965136374342826" lon="15.215867518047363"><ele>28.0</ele><time>2026-04-19T13:08:06Z</time></trkpt><trkpt lat="36.965077185929374" lon="15.21571128638813"><ele>26.75</ele><time>2026-04-19T13:08:07.001Z</time></trkpt><trkpt lat="36.96504561440696" lon="15.215554586321693"><ele>25.5</ele><time>2026-04-19T13:08:08.001Z</time></trkpt><trkpt lat="36.96500458084863" lon="15.215411781866777"><ele>24.25</ele><time>2026-04-19T13:08:09.001Z</time></trkpt><trkpt lat="36.96496294764458" lon="15.215248453376446"><ele>23.0</ele><time>2026-04-19T13:08:10.001Z</time></trkpt><trkpt lat="36.96492827650661" lon="15.21509920483763"><ele>21.5</ele><time>2026-04-19T13:08:11.001Z</time></trkpt><trkpt lat="36.964946669531585" lon="15.214942631221547"><ele>20.0</ele><time>2026-04-19T13:08:12.001Z</time></trkpt><trkpt lat="36.96500868037346" lon="15.214792774549096"><ele>18.5</ele><time>2026-04-19T13:08:13.001Z</time></trkpt><trkpt lat="36.965061447449884" lon="15.214593739622611"><ele>17.0</ele><time>2026-04-19T13:08:14.001Z</time></trkpt><trkpt lat="36.965125610108" lon="15.214412911722638"><ele>17.0</ele><time>2026-04-19T13:08:15.001Z</time></trkpt><trkpt lat="36.96515881858908" lon="15.214249530360979"><ele>17.0</ele><time>2026-04-19T13:08:16.001Z</time></trkpt><trkpt lat="36.96518729434214" lon="15.214111830930948"><ele>17.0</ele><time>2026-04-19T13:08:17.001Z</time></trkpt><trkpt lat="36.96521276002736" lon="15.21399850991529"><ele>17.0</ele><time>2026-04-19T13:08:18.001Z</time></trkpt><trkpt lat="36.96522849260305" lon="15.213884477180807"><ele>17.0</ele><time>2026-04-19T13:08:19.001Z</time></trkpt><trkpt lat="36.96526971375324" lon="15.213742537074916"><ele>17.25</ele><time>2026-04-19T13:08:20.001Z</time></trkpt><trkpt lat="36.96530273262962" lon="15.213565492896086"><ele>17.5</ele><time>2026-04-19T13:08:21.001Z</time></trkpt><trkpt lat="36.96531994051043" lon="15.213399156942353"><ele>17.75</ele><time>2026-04-19T13:08:22.001Z</time></trkpt><trkpt lat="36.96532622961471" lon="15.21326304122663"><ele>18.0</ele><time>2026-04-19T13:08:23.001Z</time></trkpt><trkpt lat="36.96530480876216" lon="15.213146633329098"><ele>18.0</ele><time>2026-04-19T13:08:24Z</time></trkpt><trkpt lat="36.965275593520516" lon="15.213044591623941"><ele>18.0</ele><time>2026-04-19T13:08:25Z</time></trkpt><trkpt lat="36.965227302530195" lon="15.212926549187083"><ele>18.0</ele><time>2026-04-19T13:08:26Z</time></trkpt><trkpt lat="36.96518415046938" lon="15.212793302862423"><ele>18.0</ele><time>2026-04-19T13:08:27Z</time></trkpt><trkpt lat="36.96514947660639" lon="15.212652246481166"><ele>18.0</ele><time>2026-04-19T13:08:28Z</time></trkpt><trkpt lat="36.96511387938912" lon="15.21251240977288"><ele>18.0</ele><time>2026-04-19T13:08:29Z</time></trkpt><trkpt lat="36.96507809834257" lon="15.212374430661542"><ele>18.0</ele><time>2026-04-19T13:08:30Z</time></trkpt><trkpt lat="36.965055823724086" lon="15.212240042030045"><ele>18.0</ele><time>2026-04-19T13:08:31Z</time></trkpt><trkpt lat="36.965049296952465" lon="15.212107809054281"><ele>18.0</ele><time>2026-04-19T13:08:32Z</time></trkpt><trkpt lat="36.96505551925349" lon="15.211985663026244"><ele>18.0</ele><time>2026-04-19T13:08:33Z</time></trkpt><trkpt lat="36.96507962537451" lon="15.211867644410217"><ele>18.0</ele><time>2026-04-19T13:08:34Z</time></trkpt><trkpt lat="36.96515891335131" lon="15.211764000930506"><ele>18.0</ele><time>2026-04-19T13:08:35Z</time></trkpt><trkpt lat="36.96523767101413" lon="15.211612458492413"><ele>18.0</ele><time>2026-04-19T13:08:36Z</time></trkpt><trkpt lat="36.965342339075384" lon="15.211455196319372"><ele>18.0</ele><time>2026-04-19T13:08:37Z</time></trkpt><trkpt lat="36.96543014780911" lon="15.211306071833528"><ele>18.0</ele><time>2026-04-19T13:08:38Z</time></trkpt><trkpt lat="36.96552464842245" lon="15.211181355640834"><ele>18.0</ele><time>2026-04-19T13:08:39Z</time></trkpt><trkpt lat="36.96561654128981" lon="15.211040949472292"><ele>18.0</ele><time>2026-04-19T13:08:40Z</time></trkpt><trkpt lat="36.965710189221866" lon="15.210895546401424"><ele>18.0</ele><time>2026-04-19T13:08:41Z</time></trkpt><trkpt lat="36.96580353820574" lon="15.210747037486627"><ele>18.0</ele><time>2026-04-19T13:08:42Z</time></trkpt><trkpt lat="36.96589465784048" lon="15.21059543553523"><ele>18.0</ele><time>2026-04-19T13:08:43Z</time></trkpt><trkpt lat="36.965972620409595" lon="15.210440740141427"><ele>18.0</ele><time>2026-04-19T13:08:44Z</time></trkpt><trkpt lat="36.96605497520784" lon="15.21030835785894"><ele>18.0</ele><time>2026-04-19T13:08:45Z</time></trkpt><trkpt lat="36.96612252820811" lon="15.210169606048412"><ele>18.0</ele><time>2026-04-19T13:08:46Z</time></trkpt><trkpt lat="36.96616637536997" lon="15.21001989004399"><ele>18.0</ele><time>2026-04-19T13:08:47Z</time></trkpt><trkpt lat="36.96618751258882" lon="15.209862453842138"><ele>18.0</ele><time>2026-04-19T13:08:48Z</time></trkpt><trkpt lat="36.96619071071279" lon="15.209704716192592"><ele>18.0</ele><time>2026-04-19T13:08:49Z</time></trkpt><trkpt lat="36.96618191112514" lon="15.209555950585019"><ele>18.2</ele><time>2026-04-19T13:08:50Z</time></trkpt><trkpt lat="36.966174494909815" lon="15.209421554117654"><ele>18.4</ele><time>2026-04-19T13:08:51Z</time></trkpt><trkpt lat="36.96617611652202" lon="15.209302208204601"><ele>18.599999999999998</ele><time>2026-04-19T13:08:52Z</time></trkpt><trkpt lat="36.966176073689645" lon="15.20919280894864"><ele>18.8</ele><time>2026-04-19T13:08:53Z</time></trkpt><trkpt lat="36.96613646646025" lon="15.209098185362851"><ele>19.0</ele><time>2026-04-19T13:08:54Z</time></trkpt><trkpt lat="36.96607324934519" lon="15.209005858666105"><ele>18.5</ele><time>2026-04-19T13:08:55Z</time></trkpt><trkpt lat="36.96599911170904" lon="15.20890143764969"><ele>18.0</ele><time>2026-04-19T13:08:56Z</time></trkpt><trkpt lat="36.965905870965145" lon="15.208812664039527"><ele>17.5</ele><time>2026-04-19T13:08:57Z</time></trkpt><trkpt lat="36.965811721718474" lon="15.208719688556194"><ele>17.0</ele><time>2026-04-19T13:08:58Z</time></trkpt><trkpt lat="36.965710916228076" lon="15.20861563597347"><ele>17.0</ele><time>2026-04-19T13:08:59Z</time></trkpt><trkpt lat="36.96559868630727" lon="15.208498745877536"><ele>17.0</ele><time>2026-04-19T13:09:00Z</time></trkpt><trkpt lat="36.965490887835465" lon="15.208386868829672"><ele>17.0</ele><time>2026-04-19T13:09:01Z</time></trkpt><trkpt lat="36.96537645765325" lon="15.20826816125385"><ele>17.0</ele><time>2026-04-19T13:09:02Z</time></trkpt><trkpt lat="36.965244900806525" lon="15.208153235939626"><ele>17.0</ele><time>2026-04-19T13:09:03Z</time></trkpt><trkpt lat="36.96512704030609" lon="15.20803224541741"><ele>17.0</ele><time>2026-04-19T13:09:04Z</time></trkpt><trkpt lat="36.96502128219074" lon="15.20792219756844"><ele>17.0</ele><time>2026-04-19T13:09:05Z</time></trkpt><trkpt lat="36.96492300196589" lon="15.20781836421238"><ele>17.0</ele><time>2026-04-19T13:09:06Z</time></trkpt><trkpt lat="36.96482945488255" lon="15.207722795953517"><ele>15.75</ele><time>2026-04-19T13:09:07Z</time></trkpt><trkpt lat="36.96473489754282" lon="15.207634893415772"><ele>14.5</ele><time>2026-04-19T13:09:08Z</time></trkpt><trkpt lat="36.96465119301068" lon="15.20752810116425"><ele>13.25</ele><time>2026-04-19T13:09:09Z</time></trkpt><trkpt lat="36.96455809990009" lon="15.207433624683482"><ele>12.0</ele><time>2026-04-19T13:09:10Z</time></trkpt><trkpt lat="36.96446390708056" lon="15.207336779476726"><ele>12.75</ele><time>2026-04-19T13:09:11Z</time></trkpt><trkpt lat="36.96436415941191" lon="15.207235095024023"><ele>13.5</ele><time>2026-04-19T13:09:12Z</time></trkpt><trkpt lat="36.964271213549324" lon="15.207140344304378"><ele>14.25</ele><time>2026-04-19T13:09:13Z</time></trkpt><trkpt lat="36.96417224306933" lon="15.207039452057979"><ele>15.0</ele><time>2026-04-19T13:09:14Z</time></trkpt><trkpt lat="36.96406112296445" lon="15.206924831801024"><ele>15.0</ele><time>2026-04-19T13:09:15Z</time></trkpt><trkpt lat="36.96394369856401" lon="15.206802447803554"><ele>15.0</ele><time>2026-04-19T13:09:16Z</time></trkpt><trkpt lat="36.963816743648685" lon="15.206692246080676"><ele>15.0</ele><time>2026-04-19T13:09:17Z</time></trkpt><trkpt lat="36.96370123077371" lon="15.206567048605882"><ele>14.333333333333332</ele><time>2026-04-19T13:09:18Z</time></trkpt><trkpt lat="36.96358529460609" lon="15.20641408279884"><ele>13.666666666666666</ele><time>2026-04-19T13:09:19Z</time></trkpt><trkpt lat="36.96345731499386" lon="15.206274902883617"><ele>13.0</ele><time>2026-04-19T13:09:20Z</time></trkpt><trkpt lat="36.96333641573274" lon="15.206142432278442"><ele>13.0</ele><time>2026-04-19T13:09:21Z</time></trkpt><trkpt lat="36.9632235156441" lon="15.20601772633695"><ele>13.0</ele><time>2026-04-19T13:09:22Z</time></trkpt><trkpt lat="36.963121813332" lon="15.205905389128555"><ele>13.0</ele><time>2026-04-19T13:09:23Z</time></trkpt><trkpt lat="36.963019779797996" lon="15.205798229278853"><ele>13.0</ele><time>2026-04-19T13:09:24Z</time></trkpt><trkpt lat="36.9629203345749" lon="15.205705529895852"><ele>13.0</ele><time>2026-04-19T13:09:25Z</time></trkpt><trkpt lat="36.962817226726294" lon="15.205618915152721"><ele>13.0</ele><time>2026-04-19T13:09:26Z</time></trkpt><trkpt lat="36.96270767142262" lon="15.205528104131083"><ele>13.0</ele><time>2026-04-19T13:09:27Z</time></trkpt><trkpt lat="36.962585922606166" lon="15.205428047178472"><ele>13.0</ele><time>2026-04-19T13:09:28Z</time></trkpt><trkpt lat="36.96243971093663" lon="15.205356213086926"><ele>13.0</ele><time>2026-04-19T13:09:29Z</time></trkpt><trkpt lat="36.962300067409885" lon="15.205255090038099"><ele>13.0</ele><time>2026-04-19T13:09:30Z</time></trkpt><trkpt lat="36.96216385611018" lon="15.205152159050375"><ele>13.0</ele><time>2026-04-19T13:09:31Z</time></trkpt><trkpt lat="36.962033617306" lon="15.205055637327565"><ele>13.0</ele><time>2026-04-19T13:09:32Z</time></trkpt><trkpt lat="36.961895502942824" lon="15.204964317121364"><ele>13.0</ele><time>2026-04-19T13:09:33Z</time></trkpt><trkpt lat="36.96174253788353" lon="15.204871020600208"><ele>13.0</ele><time>2026-04-19T13:09:34Z</time></trkpt><trkpt lat="36.96149665677778" lon="15.204633439596089"><ele>13.333333333333332</ele><time>2026-04-19T13:09:36Z</time></trkpt><trkpt lat="36.961359543992806" lon="15.20455882731833"><ele>13.666666666666668</ele><time>2026-04-19T13:09:37Z</time></trkpt><trkpt lat="36.96125822767073" lon="15.204428028987722"><ele>14.0</ele><time>2026-04-19T13:09:38Z</time></trkpt><trkpt lat="36.961157847115224" lon="15.204272686200959"><ele>14.0</ele><time>2026-04-19T13:09:39Z</time></trkpt><trkpt lat="36.96106895575035" lon="15.204095656009274"><ele>14.0</ele><time>2026-04-19T13:09:40Z</time></trkpt><trkpt lat="36.96102384639184" lon="15.203886809407416"><ele>14.0</ele><time>2026-04-19T13:09:41Z</time></trkpt><trkpt lat="36.9609656568564" lon="15.203684589860694"><ele>15.0</ele><time>2026-04-19T13:09:42Z</time></trkpt><trkpt lat="36.960913791412935" lon="15.203496416194419"><ele>16.0</ele><time>2026-04-19T13:09:43Z</time></trkpt><trkpt lat="36.96084881271415" lon="15.203312490384372"><ele>17.0</ele><time>2026-04-19T13:09:44Z</time></trkpt><trkpt lat="36.960794521385836" lon="15.203129313898758"><ele>14.0</ele><time>2026-04-19T13:09:45Z</time></trkpt><trkpt lat="36.96074721887616" lon="15.202952682488453"><ele>11.0</ele><time>2026-04-19T13:09:46Z</time></trkpt><trkpt lat="36.96065164280002" lon="15.202809470059096"><ele>8.0</ele><time>2026-04-19T13:09:47Z</time></trkpt><trkpt lat="36.96055869370326" lon="15.202642832802539"><ele>8.0</ele><time>2026-04-19T13:09:48Z</time></trkpt><trkpt lat="36.96042121155622" lon="15.202482571451423"><ele>8.0</ele><time>2026-04-19T13:09:49Z</time></trkpt><trkpt lat="36.96026645015005" lon="15.202300787539613"><ele>8.0</ele><time>2026-04-19T13:09:50Z</time></trkpt><trkpt lat="36.960100252988745" lon="15.20210884442764"><ele>8.0</ele><time>2026-04-19T13:09:51Z</time></trkpt><trkpt lat="36.959923863217334" lon="15.201934328256554"><ele>8.0</ele><time>2026-04-19T13:09:52Z</time></trkpt><trkpt lat="36.95976858045245" lon="15.201759165366997"><ele>8.0</ele><time>2026-04-19T13:09:53Z</time></trkpt><trkpt lat="36.959613602088304" lon="15.20160322676447"><ele>7.666666666666666</ele><time>2026-04-19T13:09:54Z</time></trkpt><trkpt lat="36.95946837944795" lon="15.20143424098479"><ele>7.333333333333334</ele><time>2026-04-19T13:09:55Z</time></trkpt><trkpt lat="36.95930639523159" lon="15.201300357881571"><ele>7.0</ele><time>2026-04-19T13:09:56Z</time></trkpt><trkpt lat="36.95915401349018" lon="15.201145432211053"><ele>7.0</ele><time>2026-04-19T13:09:57Z</time></trkpt><trkpt lat="36.95899937583461" lon="15.200996167336685"><ele>7.0</ele><time>2026-04-19T13:09:58Z</time></trkpt><trkpt lat="36.95885244984497" lon="15.200822878064965"><ele>7.0</ele><time>2026-04-19T13:09:59Z</time></trkpt><trkpt lat="36.95868963485256" lon="15.200661179222454"><ele>7.333333333333334</ele><time>2026-04-19T13:10:00Z</time></trkpt><trkpt lat="36.95852389615337" lon="15.200488151211761"><ele>7.666666666666666</ele><time>2026-04-19T13:10:01Z</time></trkpt><trkpt lat="36.95835209420214" lon="15.200316758646624"><ele>8.0</ele><time>2026-04-19T13:10:02Z</time></trkpt><trkpt lat="36.958177399684395" lon="15.200146573263256"><ele>8.0</ele><time>2026-04-19T13:10:03Z</time></trkpt><trkpt lat="36.95800092729832" lon="15.199979345360608"><ele>8.0</ele><time>2026-04-19T13:10:04Z</time></trkpt><trkpt lat="36.957814755027094" lon="15.199832016604619"><ele>8.0</ele><time>2026-04-19T13:10:05Z</time></trkpt><trkpt lat="36.957637870358674" lon="15.199690762384"><ele>10.0</ele><time>2026-04-19T13:10:06Z</time></trkpt><trkpt lat="36.95745854119219" lon="15.199581970923798"><ele>12.0</ele><time>2026-04-19T13:10:07Z</time></trkpt><trkpt lat="36.95728110996998" lon="15.199469773926413"><ele>14.0</ele><time>2026-04-19T13:10:08Z</time></trkpt><trkpt lat="36.95709944240518" lon="15.19937216538994"><ele>14.0</ele><time>2026-04-19T13:10:09Z</time></trkpt><trkpt lat="36.956936339098206" lon="15.199288227575023"><ele>14.0</ele><time>2026-04-19T13:10:10Z</time></trkpt><trkpt lat="36.95679650402126" lon="15.199212445751344"><ele>14.0</ele><time>2026-04-19T13:10:11Z</time></trkpt><trkpt lat="36.956679842758994" lon="15.199129531854622"><ele>14.666666666666668</ele><time>2026-04-19T13:10:12Z</time></trkpt><trkpt lat="36.956563834933455" lon="15.19902619774486"><ele>15.333333333333332</ele><time>2026-04-19T13:10:13.001Z</time></trkpt><trkpt lat="36.956435752259644" lon="15.198895243299866"><ele>16.0</ele><time>2026-04-19T13:10:14.001Z</time></trkpt><trkpt lat="36.95630364678142" lon="15.198757466331525"><ele>16.0</ele><time>2026-04-19T13:10:15.001Z</time></trkpt><trkpt lat="36.95616943619045" lon="15.198601238725574"><ele>16.0</ele><time>2026-04-19T13:10:16.001Z</time></trkpt><trkpt lat="36.95603523126451" lon="15.198432507496127"><ele>16.0</ele><time>2026-04-19T13:10:17.001Z</time></trkpt><trkpt lat="36.95589901317496" lon="15.198257613430304"><ele>16.0</ele><time>2026-04-19T13:10:18.001Z</time></trkpt><trkpt lat="36.95576042731531" lon="15.198079679177866"><ele>16.0</ele><time>2026-04-19T13:10:19.001Z</time></trkpt><trkpt lat="36.95561857316816" lon="15.197902649171777"><ele>16.0</ele><time>2026-04-19T13:10:20.001Z</time></trkpt><trkpt lat="36.95548040802191" lon="15.197737924228923"><ele>16.0</ele><time>2026-04-19T13:10:21.001Z</time></trkpt><trkpt lat="36.95534201784884" lon="15.19758367374363"><ele>16.0</ele><time>2026-04-19T13:10:22.001Z</time></trkpt><trkpt lat="36.955209460063905" lon="15.197430622663626"><ele>16.0</ele><time>2026-04-19T13:10:23.001Z</time></trkpt><trkpt lat="36.955082609221485" lon="15.19727365838305"><ele>16.333333333333332</ele><time>2026-04-19T13:10:24Z</time></trkpt><trkpt lat="36.95496239859309" lon="15.197104285118716"><ele>16.666666666666668</ele><time>2026-04-19T13:10:25Z</time></trkpt><trkpt lat="36.954844170343286" lon="15.19692750793792"><ele>17.0</ele><time>2026-04-19T13:10:26Z</time></trkpt><trkpt lat="36.95471716656571" lon="15.196754329610522"><ele>17.0</ele><time>2026-04-19T13:10:27Z</time></trkpt><trkpt lat="36.95460188325122" lon="15.196561470839095"><ele>17.0</ele><time>2026-04-19T13:10:28Z</time></trkpt><trkpt lat="36.95450853030436" lon="15.196340051998185"><ele>17.0</ele><time>2026-04-19T13:10:29Z</time></trkpt><trkpt lat="36.95440423477969" lon="15.19613887964521"><ele>17.333333333333336</ele><time>2026-04-19T13:10:30Z</time></trkpt><trkpt lat="36.95429992626158" lon="15.195950960813247"><ele>17.666666666666668</ele><time>2026-04-19T13:10:31Z</time></trkpt><trkpt lat="36.95419831271607" lon="15.195779756325894"><ele>18.0</ele><time>2026-04-19T13:10:32Z</time></trkpt><trkpt lat="36.954093028346925" lon="15.195634088496199"><ele>18.666666666666668</ele><time>2026-04-19T13:10:33Z</time></trkpt><trkpt lat="36.95400436014451" lon="15.195464364049442"><ele>19.333333333333336</ele><time>2026-04-19T13:10:34Z</time></trkpt><trkpt lat="36.953915411266685" lon="15.195278937913459"><ele>20.0</ele><time>2026-04-19T13:10:35Z</time></trkpt><trkpt lat="36.95382611369688" lon="15.195075557399502"><ele>20.0</ele><time>2026-04-19T13:10:36Z</time></trkpt><trkpt lat="36.95373627674862" lon="15.194857270282675"><ele>20.0</ele><time>2026-04-19T13:10:37Z</time></trkpt><trkpt lat="36.95367213097266" lon="15.194621774041849"><ele>20.0</ele><time>2026-04-19T13:10:38Z</time></trkpt><trkpt lat="36.95360572882219" lon="15.194384128876981"><ele>19.666666666666668</ele><time>2026-04-19T13:10:39Z</time></trkpt><trkpt lat="36.95354496601053" lon="15.194136647602502"><ele>19.333333333333332</ele><time>2026-04-19T13:10:40Z</time></trkpt><trkpt lat="36.95346134987608" lon="15.19389740162811"><ele>19.0</ele><time>2026-04-19T13:10:41Z</time></trkpt><trkpt lat="36.95339236516605" lon="15.193653411472233"><ele>18.333333333333332</ele><time>2026-04-19T13:10:42Z</time></trkpt><trkpt lat="36.95333564865375" lon="15.193408450469741"><ele>17.666666666666668</ele><time>2026-04-19T13:10:43Z</time></trkpt><trkpt lat="36.95326209853726" lon="15.193167592666553"><ele>17.0</ele><time>2026-04-19T13:10:44Z</time></trkpt><trkpt lat="36.95317223431561" lon="15.19292559589125"><ele>17.0</ele><time>2026-04-19T13:10:45Z</time></trkpt><trkpt lat="36.95306053339899" lon="15.1926864457967"><ele>17.0</ele><time>2026-04-19T13:10:46Z</time></trkpt><trkpt lat="36.952964110671815" lon="15.192443311060783"><ele>17.0</ele><time>2026-04-19T13:10:47Z</time></trkpt><trkpt lat="36.95288811847424" lon="15.192204673446522"><ele>17.333333333333336</ele><time>2026-04-19T13:10:48Z</time></trkpt><trkpt lat="36.952801313209854" lon="15.191984936197242"><ele>17.666666666666668</ele><time>2026-04-19T13:10:49Z</time></trkpt><trkpt lat="36.95272150962403" lon="15.191778747023047"><ele>18.0</ele><time>2026-04-19T13:10:50Z</time></trkpt><trkpt lat="36.95264607147263" lon="15.191583810453984"><ele>18.25</ele><time>2026-04-19T13:10:51Z</time></trkpt><trkpt lat="36.952562056747325" lon="15.191412695820269"><ele>18.5</ele><time>2026-04-19T13:10:52Z</time></trkpt><trkpt lat="36.952505336398595" lon="15.191249788627628"><ele>18.75</ele><time>2026-04-19T13:10:53Z</time></trkpt><trkpt lat="36.95245489053744" lon="15.191104290284398"><ele>19.0</ele><time>2026-04-19T13:10:54Z</time></trkpt><trkpt lat="36.952409111318566" lon="15.190969064045197"><ele>19.0</ele><time>2026-04-19T13:10:55Z</time></trkpt><trkpt lat="36.95236868682009" lon="15.190839187781776"><ele>19.0</ele><time>2026-04-19T13:10:56Z</time></trkpt><trkpt lat="36.95234370618663" lon="15.190717694835843"><ele>19.0</ele><time>2026-04-19T13:10:57Z</time></trkpt><trkpt lat="36.952337782797585" lon="15.190612565821912"><ele>19.0</ele><time>2026-04-19T13:10:58Z</time></trkpt><trkpt lat="36.95235500648428" lon="15.19053515307036"><ele>19.0</ele><time>2026-04-19T13:10:59Z</time></trkpt><trkpt lat="36.95244980449657" lon="15.19044277716011"><ele>19.2</ele><time>2026-04-19T13:11:01Z</time></trkpt><trkpt lat="36.952522132431724" lon="15.190415808675956"><ele>19.4</ele><time>2026-04-19T13:11:02Z</time></trkpt><trkpt lat="36.95261090764973" lon="15.190398859435424"><ele>19.6</ele><time>2026-04-19T13:11:03Z</time></trkpt><trkpt lat="36.952720052639286" lon="15.19038992121303"><ele>19.8</ele><time>2026-04-19T13:11:04Z</time></trkpt><trkpt lat="36.95283319145992" lon="15.190387549407816"><ele>20.0</ele><time>2026-04-19T13:11:05Z</time></trkpt><trkpt lat="36.95295945965458" lon="15.190378602842301"><ele>20.0</ele><time>2026-04-19T13:11:06Z</time></trkpt><trkpt lat="36.95311028444491" lon="15.19035827636179"><ele>20.0</ele><time>2026-04-19T13:11:07Z</time></trkpt><trkpt lat="36.953280546036154" lon="15.190349805683875"><ele>20.0</ele><time>2026-04-19T13:11:08Z</time></trkpt><trkpt lat="36.9534437962981" lon="15.190361715610061"><ele>20.666666666666668</ele><time>2026-04-19T13:11:09Z</time></trkpt><trkpt lat="36.953630015623375" lon="15.190364402023194"><ele>21.333333333333332</ele><time>2026-04-19T13:11:10Z</time></trkpt><trkpt lat="36.95382990789726" lon="15.190353716580722"><ele>22.0</ele><time>2026-04-19T13:11:11Z</time></trkpt><trkpt lat="36.95401896026728" lon="15.190339223539066"><ele>22.666666666666664</ele><time>2026-04-19T13:11:12Z</time></trkpt><trkpt lat="36.95421071990301" lon="15.190327364126068"><ele>23.333333333333332</ele><time>2026-04-19T13:11:13Z</time></trkpt><trkpt lat="36.95440863274925" lon="15.19031942627049"><ele>24.0</ele><time>2026-04-19T13:11:14Z</time></trkpt><trkpt lat="36.95461412159225" lon="15.190311630265674"><ele>24.0</ele><time>2026-04-19T13:11:15Z</time></trkpt><trkpt lat="36.95482082446882" lon="15.190302066968393"><ele>24.0</ele><time>2026-04-19T13:11:16Z</time></trkpt><trkpt lat="36.9550316232831" lon="15.190291198153457"><ele>24.0</ele><time>2026-04-19T13:11:17Z</time></trkpt><trkpt lat="36.95524496338031" lon="15.190279694247982"><ele>24.0</ele><time>2026-04-19T13:11:18Z</time></trkpt><trkpt lat="36.95546408839755" lon="15.190270112629872"><ele>24.0</ele><time>2026-04-19T13:11:19Z</time></trkpt><trkpt lat="36.955689326704956" lon="15.190258540692758"><ele>24.0</ele><time>2026-04-19T13:11:20Z</time></trkpt><trkpt lat="36.9559165629638" lon="15.190243609283364"><ele>24.0</ele><time>2026-04-19T13:11:21Z</time></trkpt><trkpt lat="36.956136982518274" lon="15.190230613554283"><ele>24.0</ele><time>2026-04-19T13:11:22Z</time></trkpt><trkpt lat="36.956350771672234" lon="15.1902195761224"><ele>24.0</ele><time>2026-04-19T13:11:23Z</time></trkpt><trkpt lat="36.956565185001395" lon="15.190207128736596"><ele>24.0</ele><time>2026-04-19T13:11:24Z</time></trkpt><trkpt lat="36.95677972493672" lon="15.19019576695436"><ele>24.0</ele><time>2026-04-19T13:11:25Z</time></trkpt><trkpt lat="36.95699616318617" lon="15.19018711255172"><ele>24.0</ele><time>2026-04-19T13:11:26Z</time></trkpt><trkpt lat="36.95721288464637" lon="15.190177076382856"><ele>24.0</ele><time>2026-04-19T13:11:27Z</time></trkpt><trkpt lat="36.957434013901725" lon="15.190163649458816"><ele>24.0</ele><time>2026-04-19T13:11:28Z</time></trkpt><trkpt lat="36.957655684025156" lon="15.190150728389334"><ele>24.0</ele><time>2026-04-19T13:11:29Z</time></trkpt><trkpt lat="36.957876450717414" lon="15.190139730972216"><ele>24.333333333333336</ele><time>2026-04-19T13:11:30Z</time></trkpt><trkpt lat="36.95809829276311" lon="15.190129569517794"><ele>24.666666666666668</ele><time>2026-04-19T13:11:31Z</time></trkpt><trkpt lat="36.95831880925569" lon="15.190118626476396"><ele>25.0</ele><time>2026-04-19T13:11:32Z</time></trkpt><trkpt lat="36.958539231589356" lon="15.190107444322617"><ele>26.0</ele><time>2026-04-19T13:11:33Z</time></trkpt><trkpt lat="36.9587609099856" lon="15.190097060148641"><ele>27.0</ele><time>2026-04-19T13:11:34Z</time></trkpt><trkpt lat="36.95898488904944" lon="15.190085709661155"><ele>28.0</ele><time>2026-04-19T13:11:35Z</time></trkpt><trkpt lat="36.95921003809033" lon="15.190073532495127"><ele>28.666666666666668</ele><time>2026-04-19T13:11:36Z</time></trkpt><trkpt lat="36.95943218390562" lon="15.190062244557945"><ele>29.333333333333336</ele><time>2026-04-19T13:11:37Z</time></trkpt><trkpt lat="36.959652894205" lon="15.1900531112235"><ele>30.0</ele><time>2026-04-19T13:11:38Z</time></trkpt><trkpt lat="36.95986746724794" lon="15.190040557911553"><ele>30.0</ele><time>2026-04-19T13:11:39Z</time></trkpt><trkpt lat="36.96007630761543" lon="15.190027268046235"><ele>30.0</ele><time>2026-04-19T13:11:40Z</time></trkpt><trkpt lat="36.9602816093354" lon="15.190018105041897"><ele>30.0</ele><time>2026-04-19T13:11:41Z</time></trkpt><trkpt lat="36.96048244003868" lon="15.190011963899826"><ele>30.0</ele><time>2026-04-19T13:11:42Z</time></trkpt><trkpt lat="36.96067962593291" lon="15.190002885064189"><ele>30.0</ele><time>2026-04-19T13:11:43Z</time></trkpt><trkpt lat="36.96087409156824" lon="15.189992024243297"><ele>30.0</ele><time>2026-04-19T13:11:44Z</time></trkpt><trkpt lat="36.96106631468915" lon="15.18998039050953"><ele>30.0</ele><time>2026-04-19T13:11:45Z</time></trkpt><trkpt lat="36.96125608384638" lon="15.189970410020722"><ele>30.0</ele><time>2026-04-19T13:11:46Z</time></trkpt><trkpt lat="36.96144234168039" lon="15.18996139594181"><ele>30.0</ele><time>2026-04-19T13:11:47Z</time></trkpt><trkpt lat="36.96163455781078" lon="15.189951960328676"><ele>30.666666666666664</ele><time>2026-04-19T13:11:48Z</time></trkpt><trkpt lat="36.961828320066864" lon="15.189941847860522"><ele>31.333333333333332</ele><time>2026-04-19T13:11:49Z</time></trkpt><trkpt lat="36.96203550194637" lon="15.189935393584431"><ele>32.0</ele><time>2026-04-19T13:11:50Z</time></trkpt><trkpt lat="36.962257958124454" lon="15.18992807601681"><ele>32.0</ele><time>2026-04-19T13:11:51Z</time></trkpt><trkpt lat="36.962483524958145" lon="15.18991627321166"><ele>32.0</ele><time>2026-04-19T13:11:52Z</time></trkpt><trkpt lat="36.96271064439127" lon="15.18990418967537"><ele>33.0</ele><time>2026-04-19T13:11:53Z</time></trkpt><trkpt lat="36.96293599004916" lon="15.189894157329965"><ele>34.0</ele><time>2026-04-19T13:11:54Z</time></trkpt><trkpt lat="36.96316227032233" lon="15.189885322724644"><ele>35.0</ele><time>2026-04-19T13:11:55Z</time></trkpt><trkpt lat="36.963387718792674" lon="15.189874959191313"><ele>36.0</ele><time>2026-04-19T13:11:56Z</time></trkpt><trkpt lat="36.96361324156287" lon="15.189866891055695"><ele>36.0</ele><time>2026-04-19T13:11:57Z</time></trkpt><trkpt lat="36.96384051268651" lon="15.189855883017163"><ele>36.0</ele><time>2026-04-19T13:11:58Z</time></trkpt><trkpt lat="36.96406445673851" lon="15.189848191043598"><ele>37.0</ele><time>2026-04-19T13:11:59Z</time></trkpt><trkpt lat="36.964289354482865" lon="15.189838934109774"><ele>38.0</ele><time>2026-04-19T13:12:00Z</time></trkpt><trkpt lat="36.96451281276825" lon="15.18982640418781"><ele>39.0</ele><time>2026-04-19T13:12:01Z</time></trkpt><trkpt lat="36.964738787364524" lon="15.189811152829098"><ele>39.0</ele><time>2026-04-19T13:12:02Z</time></trkpt><trkpt lat="36.964959315957465" lon="15.189802448396014"><ele>39.0</ele><time>2026-04-19T13:12:03Z</time></trkpt><trkpt lat="36.965183764232755" lon="15.18979150720585"><ele>39.0</ele><time>2026-04-19T13:12:04Z</time></trkpt><trkpt lat="36.96540464245447" lon="15.189775606337768"><ele>40.0</ele><time>2026-04-19T13:12:05Z</time></trkpt><trkpt lat="36.96562432194769" lon="15.189760652131293"><ele>41.0</ele><time>2026-04-19T13:12:06Z</time></trkpt><trkpt lat="36.96584506125619" lon="15.189749989118658"><ele>42.0</ele><time>2026-04-19T13:12:07Z</time></trkpt><trkpt lat="36.96606307411903" lon="15.189741302988693"><ele>42.333333333333336</ele><time>2026-04-19T13:12:08Z</time></trkpt><trkpt lat="36.96628571873427" lon="15.189730524693188"><ele>42.66666666666667</ele><time>2026-04-19T13:12:09Z</time></trkpt><trkpt lat="36.96650982994527" lon="15.189720760661743"><ele>43.0</ele><time>2026-04-19T13:12:10Z</time></trkpt><trkpt lat="36.96673086674573" lon="15.189709584079752"><ele>44.333333333333336</ele><time>2026-04-19T13:12:11Z</time></trkpt><trkpt lat="36.9669498581074" lon="15.189697662638519"><ele>45.666666666666664</ele><time>2026-04-19T13:12:12Z</time></trkpt><trkpt lat="36.96717474077795" lon="15.189684968796438"><ele>47.0</ele><time>2026-04-19T13:12:13Z</time></trkpt><trkpt lat="36.967397900909724" lon="15.189671816718956"><ele>48.0</ele><time>2026-04-19T13:12:14Z</time></trkpt><trkpt lat="36.9676178408885" lon="15.18966008715648"><ele>49.0</ele><time>2026-04-19T13:12:15Z</time></trkpt><trkpt lat="36.96783269429946" lon="15.189651526179784"><ele>50.0</ele><time>2026-04-19T13:12:16Z</time></trkpt><trkpt lat="36.96804392694315" lon="15.189644750565854"><ele>50.0</ele><time>2026-04-19T13:12:17Z</time></trkpt><trkpt lat="36.96825436847666" lon="15.189633562620836"><ele>50.0</ele><time>2026-04-19T13:12:18Z</time></trkpt><trkpt lat="36.96846472580438" lon="15.18962596319276"><ele>50.0</ele><time>2026-04-19T13:12:19Z</time></trkpt><trkpt lat="36.968674322448166" lon="15.189620475211736"><ele>49.66666666666667</ele><time>2026-04-19T13:12:20Z</time></trkpt><trkpt lat="36.96887915981431" lon="15.18961252008923"><ele>49.33333333333333</ele><time>2026-04-19T13:12:21Z</time></trkpt><trkpt lat="36.969072319043605" lon="15.189600827862233"><ele>49.0</ele><time>2026-04-19T13:12:22Z</time></trkpt><trkpt lat="36.96925629776188" lon="15.189588573636676"><ele>50.33333333333333</ele><time>2026-04-19T13:12:23Z</time></trkpt><trkpt lat="36.96942669000713" lon="15.189582585867187"><ele>51.66666666666667</ele><time>2026-04-19T13:12:24Z</time></trkpt><trkpt lat="36.96957827131675" lon="15.189592372097893"><ele>53.0</ele><time>2026-04-19T13:12:25Z</time></trkpt><trkpt lat="36.969721676173506" lon="15.18961828372904"><ele>53.0</ele><time>2026-04-19T13:12:26Z</time></trkpt><trkpt lat="36.969846998673404" lon="15.189696777396723"><ele>53.0</ele><time>2026-04-19T13:12:27Z</time></trkpt><trkpt lat="36.96997495778098" lon="15.189811296696186"><ele>53.0</ele><time>2026-04-19T13:12:28Z</time></trkpt><trkpt lat="36.97010400915432" lon="15.189955241908901"><ele>51.333333333333336</ele><time>2026-04-19T13:12:29Z</time></trkpt><trkpt lat="36.97023770666387" lon="15.190105249453138"><ele>49.66666666666667</ele><time>2026-04-19T13:12:30Z</time></trkpt><trkpt lat="36.97036816111813" lon="15.19024965719259"><ele>48.0</ele><time>2026-04-19T13:12:31Z</time></trkpt><trkpt lat="36.97049777180393" lon="15.190400315224231"><ele>48.0</ele><time>2026-04-19T13:12:32Z</time></trkpt><trkpt lat="36.97061747638863" lon="15.190541151850578"><ele>48.0</ele><time>2026-04-19T13:12:33Z</time></trkpt><trkpt lat="36.97073255797573" lon="15.190672489418949"><ele>48.0</ele><time>2026-04-19T13:12:34Z</time></trkpt><trkpt lat="36.97084132337755" lon="15.190797672631684"><ele>48.75</ele><time>2026-04-19T13:12:35Z</time></trkpt><trkpt lat="36.97094331206917" lon="15.190917036120068"><ele>49.5</ele><time>2026-04-19T13:12:36Z</time></trkpt><trkpt lat="36.97103890951839" lon="15.191025941058626"><ele>50.25</ele><time>2026-04-19T13:12:37Z</time></trkpt><trkpt lat="36.97112534320271" lon="15.191133374826881"><ele>51.0</ele><time>2026-04-19T13:12:38Z</time></trkpt><trkpt lat="36.97120946287517" lon="15.19123552092644"><ele>51.0</ele><time>2026-04-19T13:12:39Z</time></trkpt><trkpt lat="36.97129516381566" lon="15.191332970210517"><ele>51.0</ele><time>2026-04-19T13:12:40Z</time></trkpt><trkpt lat="36.97137616878328" lon="15.191421291680129"><ele>51.0</ele><time>2026-04-19T13:12:41Z</time></trkpt><trkpt lat="36.97144360223903" lon="15.191500262514609"><ele>51.0</ele><time>2026-04-19T13:12:42Z</time></trkpt><trkpt lat="36.97149543308432" lon="15.191566889754812"><ele>51.0</ele><time>2026-04-19T13:12:43Z</time></trkpt><trkpt lat="36.97154341134815" lon="15.191619471096615"><ele>50.599999999999994</ele><time>2026-04-19T13:12:44Z</time></trkpt><trkpt lat="36.97165691716043" lon="15.191623217910843"><ele>50.2</ele><time>2026-04-19T13:12:46Z</time></trkpt><trkpt lat="36.97171947874035" lon="15.191572093460632"><ele>49.8</ele><time>2026-04-19T13:12:47Z</time></trkpt><trkpt lat="36.97178502014997" lon="15.191485588011547"><ele>49.400000000000006</ele><time>2026-04-19T13:12:48Z</time></trkpt><trkpt lat="36.97186410519882" lon="15.19138538739166"><ele>49.0</ele><time>2026-04-19T13:12:49Z</time></trkpt><trkpt lat="36.971942721015424" lon="15.191291008801008"><ele>50.0</ele><time>2026-04-19T13:12:50Z</time></trkpt><trkpt lat="36.972028756763414" lon="15.191185262722799"><ele>51.0</ele><time>2026-04-19T13:12:51Z</time></trkpt><trkpt lat="36.97211991304575" lon="15.191062115336626"><ele>52.0</ele><time>2026-04-19T13:12:52Z</time></trkpt><trkpt lat="36.972206836302995" lon="15.190942753932097"><ele>53.0</ele><time>2026-04-19T13:12:53Z</time></trkpt><trkpt lat="36.97229772328858" lon="15.190822053894655"><ele>53.0</ele><time>2026-04-19T13:12:54Z</time></trkpt><trkpt lat="36.97239249141819" lon="15.190689416664442"><ele>53.0</ele><time>2026-04-19T13:12:55Z</time></trkpt><trkpt lat="36.97249057966884" lon="15.190546249968786"><ele>53.0</ele><time>2026-04-19T13:12:56Z</time></trkpt><trkpt lat="36.9725924598591" lon="15.19039539108748"><ele>53.66666666666667</ele><time>2026-04-19T13:12:57Z</time></trkpt><trkpt lat="36.97269035512561" lon="15.190245864608634"><ele>54.33333333333333</ele><time>2026-04-19T13:12:58Z</time></trkpt><trkpt lat="36.972786516307245" lon="15.190100997651678"><ele>55.0</ele><time>2026-04-19T13:12:59Z</time></trkpt><trkpt lat="36.97288684931683" lon="15.189960219284838"><ele>55.0</ele><time>2026-04-19T13:13:00Z</time></trkpt><trkpt lat="36.97298783583474" lon="15.189830947652233"><ele>55.0</ele><time>2026-04-19T13:13:01Z</time></trkpt><trkpt lat="36.973083767935435" lon="15.189710003096446"><ele>55.0</ele><time>2026-04-19T13:13:02Z</time></trkpt><trkpt lat="36.97317712341095" lon="15.189597308760392"><ele>55.0</ele><time>2026-04-19T13:13:03Z</time></trkpt><trkpt lat="36.97327091185064" lon="15.189499879401263"><ele>55.25</ele><time>2026-04-19T13:13:04Z</time></trkpt><trkpt lat="36.97337554920293" lon="15.189424604039555"><ele>55.5</ele><time>2026-04-19T13:13:05Z</time></trkpt><trkpt lat="36.97348223953612" lon="15.189388760023837"><ele>55.75</ele><time>2026-04-19T13:13:06Z</time></trkpt><trkpt lat="36.973595962617836" lon="15.18935977217681"><ele>56.0</ele><time>2026-04-19T13:13:07Z</time></trkpt><trkpt lat="36.973723600929205" lon="15.189357466810531"><ele>56.0</ele><time>2026-04-19T13:13:08Z</time></trkpt><trkpt lat="36.973852868021645" lon="15.189379824470436"><ele>55.99999999999999</ele><time>2026-04-19T13:13:09Z</time></trkpt><trkpt lat="36.9739631338513" lon="15.189406161727282"><ele>55.99999999999999</ele><time>2026-04-19T13:13:10Z</time></trkpt><trkpt lat="36.97405443757494" lon="15.189426185103933"><ele>56.0</ele><time>2026-04-19T13:13:11Z</time></trkpt><trkpt lat="36.9741604906692" lon="15.189421454710004"><ele>56.0</ele><time>2026-04-19T13:13:13Z</time></trkpt><trkpt lat="36.9742164503742" lon="15.189295342519696"><ele>56.0</ele><time>2026-04-19T13:13:15Z</time></trkpt><trkpt lat="36.974239774841216" lon="15.189187643706196"><ele>55.99999999999999</ele><time>2026-04-19T13:13:16Z</time></trkpt><trkpt lat="36.974267646580344" lon="15.189071296546553"><ele>55.99999999999999</ele><time>2026-04-19T13:13:17Z</time></trkpt><trkpt lat="36.97430257803022" lon="15.188942993400564"><ele>56.0</ele><time>2026-04-19T13:13:18Z</time></trkpt><trkpt lat="36.97433441025501" lon="15.18881985664621"><ele>56.0</ele><time>2026-04-19T13:13:19Z</time></trkpt><trkpt lat="36.974368994976636" lon="15.188688469581555"><ele>56.25</ele><time>2026-04-19T13:13:20Z</time></trkpt><trkpt lat="36.97440603731122" lon="15.188539910410107"><ele>56.5</ele><time>2026-04-19T13:13:21Z</time></trkpt><trkpt lat="36.97445021882397" lon="15.188378965336677"><ele>56.75</ele><time>2026-04-19T13:13:22Z</time></trkpt><trkpt lat="36.97451538428632" lon="15.188217507720008"><ele>57.0</ele><time>2026-04-19T13:13:23Z</time></trkpt><trkpt lat="36.974544299006645" lon="15.188046828337955"><ele>57.25</ele><time>2026-04-19T13:13:24Z</time></trkpt><trkpt lat="36.974605072025874" lon="15.18788538416561"><ele>57.5</ele><time>2026-04-19T13:13:25Z</time></trkpt><trkpt lat="36.97463728635559" lon="15.187703367893056"><ele>57.75</ele><time>2026-04-19T13:13:26Z</time></trkpt><trkpt lat="36.97468786581877" lon="15.187523693673123"><ele>58.0</ele><time>2026-04-19T13:13:27Z</time></trkpt><trkpt lat="36.97473910315229" lon="15.187341348275147"><ele>58.33333333333333</ele><time>2026-04-19T13:13:28Z</time></trkpt><trkpt lat="36.974790411208325" lon="15.187159616047218"><ele>58.66666666666667</ele><time>2026-04-19T13:13:29Z</time></trkpt><trkpt lat="36.97483876101699" lon="15.186976279016422"><ele>59.0</ele><time>2026-04-19T13:13:30Z</time></trkpt><trkpt lat="36.974887595639885" lon="15.18679362642569"><ele>59.0</ele><time>2026-04-19T13:13:31Z</time></trkpt><trkpt lat="36.974937908401614" lon="15.186613199645798"><ele>59.0</ele><time>2026-04-19T13:13:32Z</time></trkpt><trkpt lat="36.97498913488809" lon="15.186425266573464"><ele>59.0</ele><time>2026-04-19T13:13:33Z</time></trkpt><trkpt lat="36.975038874114944" lon="15.186232004330366"><ele>60.0</ele><time>2026-04-19T13:13:34Z</time></trkpt><trkpt lat="36.97510597951556" lon="15.1860399003522"><ele>61.0</ele><time>2026-04-19T13:13:35Z</time></trkpt><trkpt lat="36.97516027299944" lon="15.185836703627185"><ele>62.0</ele><time>2026-04-19T13:13:36Z</time></trkpt><trkpt lat="36.975199491995" lon="15.185628849727745"><ele>62.0</ele><time>2026-04-19T13:13:37Z</time></trkpt><trkpt lat="36.97525440426701" lon="15.18542527720437"><ele>62.0</ele><time>2026-04-19T13:13:38Z</time></trkpt><trkpt lat="36.97532791200198" lon="15.185213892661926"><ele>62.0</ele><time>2026-04-19T13:13:39Z</time></trkpt><trkpt lat="36.97538624645122" lon="15.184998758524749"><ele>62.0</ele><time>2026-04-19T13:13:40Z</time></trkpt><trkpt lat="36.97544157117145" lon="15.184794724040996"><ele>62.0</ele><time>2026-04-19T13:13:41Z</time></trkpt><trkpt lat="36.97549428226067" lon="15.184599834201842"><ele>62.0</ele><time>2026-04-19T13:13:42Z</time></trkpt><trkpt lat="36.975543903207225" lon="15.184416469288283"><ele>62.0</ele><time>2026-04-19T13:13:43Z</time></trkpt><trkpt lat="36.97559072953658" lon="15.184243431368376"><ele>62.0</ele><time>2026-04-19T13:13:44Z</time></trkpt><trkpt lat="36.97563368896119" lon="15.18408468286599"><ele>62.0</ele><time>2026-04-19T13:13:45Z</time></trkpt><trkpt lat="36.97566249992923" lon="15.183916317337902"><ele>62.0</ele><time>2026-04-19T13:13:46Z</time></trkpt><trkpt lat="36.97571259786508" lon="15.183756350500692"><ele>62.0</ele><time>2026-04-19T13:13:47Z</time></trkpt><trkpt lat="36.97575992395939" lon="15.183600097470626"><ele>62.0</ele><time>2026-04-19T13:13:48Z</time></trkpt><trkpt lat="36.9758063236108" lon="15.183443111820111"><ele>62.0</ele><time>2026-04-19T13:13:49Z</time></trkpt><trkpt lat="36.9758523058298" lon="15.183280275279875"><ele>62.0</ele><time>2026-04-19T13:13:50Z</time></trkpt><trkpt lat="36.975901579304846" lon="15.183094210510928"><ele>63.0</ele><time>2026-04-19T13:13:51Z</time></trkpt><trkpt lat="36.97594635192916" lon="15.182897908925913"><ele>64.0</ele><time>2026-04-19T13:13:52Z</time></trkpt><trkpt lat="36.97601541204268" lon="15.182709425107845"><ele>65.0</ele><time>2026-04-19T13:13:53Z</time></trkpt><trkpt lat="36.976058573098406" lon="15.182511753086844"><ele>65.33333333333334</ele><time>2026-04-19T13:13:54Z</time></trkpt><trkpt lat="36.97610756337098" lon="15.1823203187135"><ele>65.66666666666667</ele><time>2026-04-19T13:13:55Z</time></trkpt><trkpt lat="36.976159111891036" lon="15.182128460044982"><ele>66.0</ele><time>2026-04-19T13:13:56Z</time></trkpt><trkpt lat="36.976214599548506" lon="15.181932707896777"><ele>66.0</ele><time>2026-04-19T13:13:57Z</time></trkpt><trkpt lat="36.97626971256342" lon="15.181737209747245"><ele>66.0</ele><time>2026-04-19T13:13:58Z</time></trkpt><trkpt lat="36.97631866933134" lon="15.181544729607461"><ele>66.0</ele><time>2026-04-19T13:13:59Z</time></trkpt><trkpt lat="36.97636927622442" lon="15.181359376575456"><ele>66.33333333333333</ele><time>2026-04-19T13:14:00Z</time></trkpt><trkpt lat="36.97643040411968" lon="15.181169432060344"><ele>66.66666666666666</ele><time>2026-04-19T13:14:01Z</time></trkpt><trkpt lat="36.976501698778584" lon="15.180968885714693"><ele>67.0</ele><time>2026-04-19T13:14:02Z</time></trkpt><trkpt lat="36.9765721493279" lon="15.180759974610579"><ele>68.33333333333333</ele><time>2026-04-19T13:14:03Z</time></trkpt><trkpt lat="36.97665558371659" lon="15.180562667972072"><ele>69.66666666666667</ele><time>2026-04-19T13:14:04Z</time></trkpt><trkpt lat="36.976721215761636" lon="15.180373036580805"><ele>71.0</ele><time>2026-04-19T13:14:05Z</time></trkpt><trkpt lat="36.97678161349792" lon="15.180193860261886"><ele>71.66666666666667</ele><time>2026-04-19T13:14:06Z</time></trkpt><trkpt lat="36.97684052239533" lon="15.180015231005466"><ele>72.33333333333333</ele><time>2026-04-19T13:14:07Z</time></trkpt><trkpt lat="36.97688606711624" lon="15.179826230656742"><ele>73.0</ele><time>2026-04-19T13:14:08Z</time></trkpt><trkpt lat="36.9769564850288" lon="15.179639500958663"><ele>73.66666666666666</ele><time>2026-04-19T13:14:09Z</time></trkpt><trkpt lat="36.9770199885349" lon="15.17944608315191"><ele>74.33333333333333</ele><time>2026-04-19T13:14:10Z</time></trkpt><trkpt lat="36.97708501592152" lon="15.179258355029063"><ele>75.0</ele><time>2026-04-19T13:14:11Z</time></trkpt><trkpt lat="36.97715041273431" lon="15.17906634463965"><ele>75.33333333333333</ele><time>2026-04-19T13:14:12Z</time></trkpt><trkpt lat="36.977214179872796" lon="15.178871860039669"><ele>75.66666666666666</ele><time>2026-04-19T13:14:13Z</time></trkpt><trkpt lat="36.977278536216204" lon="15.178680896524003"><ele>76.0</ele><time>2026-04-19T13:14:14Z</time></trkpt><trkpt lat="36.97735652886012" lon="15.17850795646721"><ele>76.0</ele><time>2026-04-19T13:14:15Z</time></trkpt><trkpt lat="36.97741984144967" lon="15.178334165753048"><ele>76.0</ele><time>2026-04-19T13:14:16Z</time></trkpt><trkpt lat="36.977471141137336" lon="15.178154624550919"><ele>76.0</ele><time>2026-04-19T13:14:17Z</time></trkpt><trkpt lat="36.977536007537346" lon="15.177981723389784"><ele>76.75</ele><time>2026-04-19T13:14:18Z</time></trkpt><trkpt lat="36.977598195048955" lon="15.177803848851594"><ele>77.5</ele><time>2026-04-19T13:14:19Z</time></trkpt><trkpt lat="36.97765534672613" lon="15.177634351139076"><ele>78.25</ele><time>2026-04-19T13:14:20Z</time></trkpt><trkpt lat="36.97770954829092" lon="15.177473192150455"><ele>79.0</ele><time>2026-04-19T13:14:21Z</time></trkpt><trkpt lat="36.977762902301" lon="15.177322182118223"><ele>79.4</ele><time>2026-04-19T13:14:22Z</time></trkpt><trkpt lat="36.97781351825198" lon="15.17719133438192"><ele>79.80000000000001</ele><time>2026-04-19T13:14:23Z</time></trkpt><trkpt lat="36.97785605210098" lon="15.177069712821384"><ele>80.19999999999999</ele><time>2026-04-19T13:14:24Z</time></trkpt><trkpt lat="36.977902100929725" lon="15.176950200394742"><ele>80.6</ele><time>2026-04-19T13:14:25Z</time></trkpt><trkpt lat="36.977970003363424" lon="15.1768243877474"><ele>81.0</ele><time>2026-04-19T13:14:26Z</time></trkpt><trkpt lat="36.978065878540406" lon="15.176722136152934"><ele>81.0</ele><time>2026-04-19T13:14:27Z</time></trkpt><trkpt lat="36.978142442595484" lon="15.176581872420439"><ele>81.0</ele><time>2026-04-19T13:14:28Z</time></trkpt><trkpt lat="36.97823398523689" lon="15.176452492096926"><ele>81.0</ele><time>2026-04-19T13:14:29Z</time></trkpt><trkpt lat="36.978326160858686" lon="15.176319584619394"><ele>81.0</ele><time>2026-04-19T13:14:30Z</time></trkpt><trkpt lat="36.97841724760418" lon="15.176193047902679"><ele>82.0</ele><time>2026-04-19T13:14:31Z</time></trkpt><trkpt lat="36.97850647805442" lon="15.17608624010216"><ele>83.0</ele><time>2026-04-19T13:14:32Z</time></trkpt><trkpt lat="36.978587289553516" lon="15.175996178828921"><ele>84.0</ele><time>2026-04-19T13:14:33Z</time></trkpt><trkpt lat="36.978656684194476" lon="15.175920422133526"><ele>85.0</ele><time>2026-04-19T13:14:34Z</time></trkpt><trkpt lat="36.9787083592473" lon="15.175863546572648"><ele>86.0</ele><time>2026-04-19T13:14:35Z</time></trkpt><trkpt lat="36.97875852423054" lon="15.175712239984419"><ele>86.8</ele><time>2026-04-19T13:14:37Z</time></trkpt><trkpt lat="36.978788337008005" lon="15.175597520856602"><ele>87.6</ele><time>2026-04-19T13:14:38Z</time></trkpt><trkpt lat="36.978812004263084" lon="15.175474953922638"><ele>88.4</ele><time>2026-04-19T13:14:39Z</time></trkpt><trkpt lat="36.97884152006443" lon="15.175327572391348"><ele>89.2</ele><time>2026-04-19T13:14:40Z</time></trkpt><trkpt lat="36.97886535725721" lon="15.175169448861416"><ele>90.0</ele><time>2026-04-19T13:14:41Z</time></trkpt><trkpt lat="36.978887608564065" lon="15.175013469696788"><ele>91.0</ele><time>2026-04-19T13:14:42Z</time></trkpt><trkpt lat="36.97889804250477" lon="15.174846160170974"><ele>92.0</ele><time>2026-04-19T13:14:43Z</time></trkpt><trkpt lat="36.97891131570428" lon="15.17467744403221"><ele>93.0</ele><time>2026-04-19T13:14:44Z</time></trkpt><trkpt lat="36.97892357331463" lon="15.174506294184468"><ele>94.0</ele><time>2026-04-19T13:14:45Z</time></trkpt><trkpt lat="36.97894186698552" lon="15.174326821694383"><ele>94.0</ele><time>2026-04-19T13:14:46Z</time></trkpt><trkpt lat="36.978956188055584" lon="15.17414747745325"><ele>94.0</ele><time>2026-04-19T13:14:47Z</time></trkpt><trkpt lat="36.97896791910646" lon="15.173980991019667"><ele>94.0</ele><time>2026-04-19T13:14:48Z</time></trkpt><trkpt lat="36.978982073919525" lon="15.173828389802438"><ele>94.0</ele><time>2026-04-19T13:14:49Z</time></trkpt><trkpt lat="36.97899402520652" lon="15.173695197908593"><ele>95.6</ele><time>2026-04-19T13:14:50Z</time></trkpt><trkpt lat="36.97900256498475" lon="15.173595099822137"><ele>97.2</ele><time>2026-04-19T13:14:51Z</time></trkpt><trkpt lat="36.97900778928563" lon="15.173456931689568"><ele>98.8</ele><time>2026-04-19T13:14:53Z</time></trkpt><trkpt lat="36.97888273218801" lon="15.173422320772167"><ele>100.39999999999999</ele><time>2026-04-19T13:14:55Z</time></trkpt><trkpt lat="36.9788177159061" lon="15.17338905098661"><ele>102.0</ele><time>2026-04-19T13:14:56Z</time></trkpt><trkpt lat="36.97874159784796" lon="15.173365578216039"><ele>102.0</ele><time>2026-04-19T13:14:57Z</time></trkpt><trkpt lat="36.97865638927024" lon="15.173410951039708"><ele>102.0</ele><time>2026-04-19T13:14:58Z</time></trkpt><trkpt lat="36.97858086858179" lon="15.173453895913534"><ele>102.0</ele><time>2026-04-19T13:14:59Z</time></trkpt><trkpt lat="36.97851993886951" lon="15.17349534406268"><ele>102.0</ele><time>2026-04-19T13:15:00Z</time></trkpt><trkpt lat="36.97843636561109" lon="15.17350786391317"><ele>102.0</ele><time>2026-04-19T13:15:02Z</time></trkpt><trkpt lat="36.97842186803037" lon="15.173354969946"><ele>102.0</ele><time>2026-04-19T13:15:05Z</time></trkpt><trkpt lat="36.97848500616644" lon="15.17330123516827"><ele>102.0</ele><time>2026-04-19T13:15:06Z</time></trkpt><trkpt lat="36.9785283121814" lon="15.17320754352532"><ele>102.0</ele><time>2026-04-19T13:15:07Z</time></trkpt><trkpt lat="36.97858504085343" lon="15.173117789776587"><ele>102.0</ele><time>2026-04-19T13:15:08Z</time></trkpt><trkpt lat="36.9786300138367" lon="15.173041357935224"><ele>102.0</ele><time>2026-04-19T13:15:09Z</time></trkpt><trkpt lat="36.9786751134714" lon="15.172950767319051"><ele>102.0</ele><time>2026-04-19T13:15:10Z</time></trkpt><trkpt lat="36.97872549007089" lon="15.172854843650038"><ele>104.6</ele><time>2026-04-19T13:15:11Z</time></trkpt><trkpt lat="36.97878192174951" lon="15.172760552394207"><ele>107.19999999999999</ele><time>2026-04-19T13:15:12Z</time></trkpt><trkpt lat="36.97884348957942" lon="15.172662095189589"><ele>109.8</ele><time>2026-04-19T13:15:13Z</time></trkpt><trkpt lat="36.97890328821343" lon="15.172559954927907"><ele>112.4</ele><time>2026-04-19T13:15:14Z</time></trkpt><trkpt lat="36.97896369253402" lon="15.172451014800455"><ele>115.0</ele><time>2026-04-19T13:15:15Z</time></trkpt><trkpt lat="36.979020005228165" lon="15.17234515645161"><ele>116.4</ele><time>2026-04-19T13:15:16Z</time></trkpt><trkpt lat="36.97907434333139" lon="15.172244467786534"><ele>117.8</ele><time>2026-04-19T13:15:17Z</time></trkpt><trkpt lat="36.979133842175" lon="15.172139466190195"><ele>119.19999999999999</ele><time>2026-04-19T13:15:18Z</time></trkpt><trkpt lat="36.97919481091165" lon="15.17203327741405"><ele>120.6</ele><time>2026-04-19T13:15:19Z</time></trkpt><trkpt lat="36.97927459000788" lon="15.171929621996"><ele>122.0</ele><time>2026-04-19T13:15:20Z</time></trkpt><trkpt lat="36.97934265661645" lon="15.171810867539353"><ele>122.0</ele><time>2026-04-19T13:15:21Z</time></trkpt><trkpt lat="36.97940787061955" lon="15.171693675451456"><ele>121.99999999999999</ele><time>2026-04-19T13:15:22Z</time></trkpt><trkpt lat="36.97945680090112" lon="15.171578243961623"><ele>121.99999999999999</ele><time>2026-04-19T13:15:23Z</time></trkpt><trkpt lat="36.979538417850016" lon="15.171512258833957"><ele>122.0</ele><time>2026-04-19T13:15:24Z</time></trkpt><trkpt lat="36.97961430080644" lon="15.171424937883728"><ele>122.0</ele><time>2026-04-19T13:15:25Z</time></trkpt><trkpt lat="36.97972672241013" lon="15.17136183621038"><ele>127.0</ele><time>2026-04-19T13:15:26Z</time></trkpt><trkpt lat="36.97985082312743" lon="15.171301672952982"><ele>132.0</ele><time>2026-04-19T13:15:27Z</time></trkpt><trkpt lat="36.9799615786287" lon="15.171249003952202"><ele>137.0</ele><time>2026-04-19T13:15:28Z</time></trkpt><trkpt lat="36.98006670828548" lon="15.171207167240617"><ele>142.0</ele><time>2026-04-19T13:15:29Z</time></trkpt><trkpt lat="36.98018404325546" lon="15.171184600141514"><ele>142.0</ele><time>2026-04-19T13:15:30Z</time></trkpt><trkpt lat="36.98032483792983" lon="15.171177399151851"><ele>142.0</ele><time>2026-04-19T13:15:31Z</time></trkpt><trkpt lat="36.98045727756166" lon="15.171176654809297"><ele>142.0</ele><time>2026-04-19T13:15:32Z</time></trkpt><trkpt lat="36.980579604770384" lon="15.171171003525368"><ele>142.0</ele><time>2026-04-19T13:15:33Z</time></trkpt><trkpt lat="36.98069317985787" lon="15.17115656059195"><ele>142.0</ele><time>2026-04-19T13:15:34Z</time></trkpt><trkpt lat="36.980801506392595" lon="15.17117119721884"><ele>142.0</ele><time>2026-04-19T13:15:35Z</time></trkpt><trkpt lat="36.98089565065955" lon="15.171155416837118"><ele>142.0</ele><time>2026-04-19T13:15:36Z</time></trkpt><trkpt lat="36.98097349522919" lon="15.171099142322635"><ele>142.0</ele><time>2026-04-19T13:15:37Z</time></trkpt><trkpt lat="36.980920075661494" lon="15.171146442048693"><ele>142.0</ele><time>2026-04-19T13:15:38Z</time></trkpt><trkpt lat="36.98086304892492" lon="15.171042862837645"><ele>142.0</ele><time>2026-04-19T13:15:41Z</time></trkpt><trkpt lat="36.98077473069585" lon="15.170949375251823"><ele>142.0</ele><time>2026-04-19T13:15:43Z</time></trkpt><trkpt lat="36.98071444571052" lon="15.170901200189922"><ele>142.0</ele><time>2026-04-19T13:15:44Z</time></trkpt><trkpt lat="36.98063973016002" lon="15.170872353169484"><ele>142.0</ele><time>2026-04-19T13:15:45Z</time></trkpt><trkpt lat="36.98057029131148" lon="15.170831187258113"><ele>142.0</ele><time>2026-04-19T13:15:46Z</time></trkpt><trkpt lat="36.980510983031635" lon="15.170791123360726"><ele>142.0</ele><time>2026-04-19T13:15:47Z</time></trkpt><trkpt lat="36.98044240598477" lon="15.170775509879517"><ele>142.0</ele><time>2026-04-19T13:15:48Z</time></trkpt><trkpt lat="36.980368567927755" lon="15.170792125944038"><ele>142.0</ele><time>2026-04-19T13:15:49Z</time></trkpt><trkpt lat="36.98031422967997" lon="15.170854699156372"><ele>142.0</ele><time>2026-04-19T13:15:50Z</time></trkpt><trkpt lat="36.9802139957355" lon="15.170876255150736"><ele>142.0</ele><time>2026-04-19T13:15:52Z</time></trkpt><trkpt lat="36.980179750632004" lon="15.170807990013326"><ele>142.0</ele><time>2026-04-19T13:15:55Z</time></trkpt><trkpt lat="36.98022004835447" lon="15.170737086131972"><ele>142.0</ele><time>2026-04-19T13:15:57Z</time></trkpt><trkpt lat="36.98032375340634" lon="15.17072993392633"><ele>142.0</ele><time>2026-04-19T13:15:59Z</time></trkpt><trkpt lat="36.980387663152676" lon="15.170733522658475"><ele>142.0</ele><time>2026-04-19T13:16:00Z</time></trkpt><trkpt lat="36.98045861701016" lon="15.170730993816731"><ele>142.0</ele><time>2026-04-19T13:16:01Z</time></trkpt><trkpt lat="36.98053021938943" lon="15.170728477508087"><ele>142.0</ele><time>2026-04-19T13:16:02Z</time></trkpt><trkpt lat="36.98062469583166" lon="15.170704626360317"><ele>142.0</ele><time>2026-04-19T13:16:04Z</time></trkpt><trkpt lat="36.9806296700377" lon="15.170610007004143"><ele>142.0</ele><time>2026-04-19T13:16:06Z</time></trkpt><trkpt lat="36.98055068608429" lon="15.17055228501819"><ele>143.79999999999998</ele><time>2026-04-19T13:16:08Z</time></trkpt><trkpt lat="36.98043557273879" lon="15.170589273950911"><ele>145.6</ele><time>2026-04-19T13:16:10Z</time></trkpt><trkpt lat="36.9803287081444" lon="15.170603718421141"><ele>147.39999999999998</ele><time>2026-04-19T13:16:12Z</time></trkpt><trkpt lat="36.98030038848452" lon="15.170522120591437"><ele>149.2</ele><time>2026-04-19T13:16:15Z</time></trkpt><trkpt lat="36.98041554773446" lon="15.17049222702283"><ele>151.0</ele><time>2026-04-19T13:16:17Z</time></trkpt><trkpt lat="36.98048044098706" lon="15.170509675926539"><ele>151.0</ele><time>2026-04-19T13:16:18Z</time></trkpt><trkpt lat="36.98057951524089" lon="15.17050411741979"><ele>151.0</ele><time>2026-04-19T13:16:20Z</time></trkpt><trkpt lat="36.98059638181371" lon="15.170406199758824"><ele>151.0</ele><time>2026-04-19T13:16:22Z</time></trkpt><trkpt lat="36.98051766456165" lon="15.170319794451721"><ele>151.0</ele><time>2026-04-19T13:16:24Z</time></trkpt><trkpt lat="36.98043917964114" lon="15.170231445307369"><ele>151.0</ele><time>2026-04-19T13:16:26Z</time></trkpt><trkpt lat="36.98045525516086" lon="15.170099649429373"><ele>151.0</ele><time>2026-04-19T13:16:28Z</time></trkpt><trkpt lat="36.98049732048127" lon="15.170026979792251"><ele>151.0</ele><time>2026-04-19T13:16:29Z</time></trkpt><trkpt lat="36.980524752571725" lon="15.169944768548403"><ele>151.0</ele><time>2026-04-19T13:16:30Z</time></trkpt><trkpt lat="36.980518324737396" lon="15.169858535115742"><ele>151.0</ele><time>2026-04-19T13:16:31Z</time></trkpt><trkpt lat="36.98050170280756" lon="15.169755477710213"><ele>151.0</ele><time>2026-04-19T13:16:32Z</time></trkpt><trkpt lat="36.98048623648727" lon="15.169635902289311"><ele>151.0</ele><time>2026-04-19T13:16:33Z</time></trkpt><trkpt lat="36.98047061552805" lon="15.169509880230606"><ele>152.83333333333334</ele><time>2026-04-19T13:16:34Z</time></trkpt><trkpt lat="36.98045550127136" lon="15.169390575290572"><ele>154.66666666666669</ele><time>2026-04-19T13:16:35Z</time></trkpt><trkpt lat="36.98044072567152" lon="15.169287175549908"><ele>156.5</ele><time>2026-04-19T13:16:36Z</time></trkpt><trkpt lat="36.980423939152004" lon="15.16918349615"><ele>158.33333333333334</ele><time>2026-04-19T13:16:37Z</time></trkpt><trkpt lat="36.98040842207654" lon="15.1690760480255"><ele>160.16666666666666</ele><time>2026-04-19T13:16:38Z</time></trkpt><trkpt lat="36.980398392230704" lon="15.168966857451993"><ele>162.0</ele><time>2026-04-19T13:16:39Z</time></trkpt><trkpt lat="36.98041077125829" lon="15.168844721915642"><ele>164.25</ele><time>2026-04-19T13:16:40Z</time></trkpt><trkpt lat="36.98044595107421" lon="15.168714564601986"><ele>166.5</ele><time>2026-04-19T13:16:41Z</time></trkpt><trkpt lat="36.98049253616471" lon="15.168568202350626"><ele>168.75</ele><time>2026-04-19T13:16:42Z</time></trkpt><trkpt lat="36.98055233497807" lon="15.168413556197974"><ele>171.0</ele><time>2026-04-19T13:16:43Z</time></trkpt><trkpt lat="36.980630310361775" lon="15.168252365669918"><ele>172.75</ele><time>2026-04-19T13:16:44Z</time></trkpt><trkpt lat="36.98070964511275" lon="15.168094929347827"><ele>174.5</ele><time>2026-04-19T13:16:45Z</time></trkpt><trkpt lat="36.980780022875905" lon="15.167946185482933"><ele>176.25</ele><time>2026-04-19T13:16:46Z</time></trkpt><trkpt lat="36.98084609819908" lon="15.167790223294851"><ele>178.0</ele><time>2026-04-19T13:16:47Z</time></trkpt><trkpt lat="36.98092042850329" lon="15.167625998681084"><ele>178.0</ele><time>2026-04-19T13:16:48Z</time></trkpt><trkpt lat="36.980992346797386" lon="15.1674553987991"><ele>178.0</ele><time>2026-04-19T13:16:49Z</time></trkpt><trkpt lat="36.981064004993314" lon="15.167280208432022"><ele>178.0</ele><time>2026-04-19T13:16:50Z</time></trkpt><trkpt lat="36.98113921339976" lon="15.16710399450599"><ele>178.0</ele><time>2026-04-19T13:16:51Z</time></trkpt><trkpt lat="36.981215899209666" lon="15.166929765389622"><ele>178.0</ele><time>2026-04-19T13:16:52Z</time></trkpt><trkpt lat="36.98127894645523" lon="15.166751304604672"><ele>178.0</ele><time>2026-04-19T13:16:53Z</time></trkpt><trkpt lat="36.9813447603663" lon="15.166580643919032"><ele>178.5</ele><time>2026-04-19T13:16:54Z</time></trkpt><trkpt lat="36.98141350332013" lon="15.1664169677223"><ele>179.0</ele><time>2026-04-19T13:16:55Z</time></trkpt><trkpt lat="36.98147618814255" lon="15.16626162294351"><ele>179.5</ele><time>2026-04-19T13:16:56Z</time></trkpt><trkpt lat="36.98153700710329" lon="15.166112333884373"><ele>180.0</ele><time>2026-04-19T13:16:57Z</time></trkpt><trkpt lat="36.981598101261724" lon="15.165964889103835"><ele>180.0</ele><time>2026-04-19T13:16:58Z</time></trkpt><trkpt lat="36.98166088610972" lon="15.165812114865894"><ele>180.0</ele><time>2026-04-19T13:16:59Z</time></trkpt><trkpt lat="36.981727006134584" lon="15.165654373339166"><ele>180.0</ele><time>2026-04-19T13:17:00Z</time></trkpt><trkpt lat="36.981792570014655" lon="15.165487260798598"><ele>180.0</ele><time>2026-04-19T13:17:01Z</time></trkpt><trkpt lat="36.981854809806684" lon="15.165320724649646"><ele>180.75</ele><time>2026-04-19T13:17:02Z</time></trkpt><trkpt lat="36.98191875806086" lon="15.165167730199718"><ele>181.5</ele><time>2026-04-19T13:17:03Z</time></trkpt><trkpt lat="36.981981884208516" lon="15.165022772383077"><ele>182.25</ele><time>2026-04-19T13:17:04Z</time></trkpt><trkpt lat="36.98204316432019" lon="15.164874560886139"><ele>183.0</ele><time>2026-04-19T13:17:05Z</time></trkpt><trkpt lat="36.982106056491766" lon="15.164720283797772"><ele>183.25</ele><time>2026-04-19T13:17:06Z</time></trkpt><trkpt lat="36.98216998336464" lon="15.164557611298653"><ele>183.5</ele><time>2026-04-19T13:17:07Z</time></trkpt><trkpt lat="36.982233274677135" lon="15.164389405103133"><ele>183.75</ele><time>2026-04-19T13:17:08Z</time></trkpt><trkpt lat="36.98230245302941" lon="15.164221123660447"><ele>184.0</ele><time>2026-04-19T13:17:09Z</time></trkpt><trkpt lat="36.98236504805922" lon="15.164061494448585"><ele>183.79999999999998</ele><time>2026-04-19T13:17:10Z</time></trkpt><trkpt lat="36.98242897416534" lon="15.163917323642952"><ele>183.6</ele><time>2026-04-19T13:17:11Z</time></trkpt><trkpt lat="36.982483840494076" lon="15.163790259245788"><ele>183.4</ele><time>2026-04-19T13:17:12Z</time></trkpt><trkpt lat="36.98252249490375" lon="15.163697694347922"><ele>183.2</ele><time>2026-04-19T13:17:13Z</time></trkpt><trkpt lat="36.98256030784906" lon="15.163619408355638"><ele>183.0</ele><time>2026-04-19T13:17:15Z</time></trkpt><trkpt lat="36.98259869644577" lon="15.163548029181788"><ele>183.0</ele><time>2026-04-19T13:17:19Z</time></trkpt><trkpt lat="36.98263200292139" lon="15.163476838562152"><ele>183.0</ele><time>2026-04-19T13:21:16Z</time></trkpt><trkpt lat="36.98267831911089" lon="15.163373190839204"><ele>183.0</ele><time>2026-04-19T13:21:18Z</time></trkpt><trkpt lat="36.98271043011036" lon="15.163301331845116"><ele>183.0</ele><time>2026-04-19T13:21:19Z</time></trkpt><trkpt lat="36.98274402338282" lon="15.163227243456832"><ele>183.0</ele><time>2026-04-19T13:21:20Z</time></trkpt><trkpt lat="36.98277855026608" lon="15.163152495457645"><ele>183.0</ele><time>2026-04-19T13:21:21Z</time></trkpt><trkpt lat="36.98281691475801" lon="15.163069439362983"><ele>183.0</ele><time>2026-04-19T13:21:22Z</time></trkpt><trkpt lat="36.982854075059166" lon="15.162986790697577"><ele>183.0</ele><time>2026-04-19T13:21:23Z</time></trkpt><trkpt lat="36.98288778394773" lon="15.162906589562851"><ele>183.0</ele><time>2026-04-19T13:21:24Z</time></trkpt><trkpt lat="36.98292026616126" lon="15.16282930695749"><ele>183.0</ele><time>2026-04-19T13:21:25Z</time></trkpt><trkpt lat="36.98295170612936" lon="15.162755681680165"><ele>183.0</ele><time>2026-04-19T13:21:26Z</time></trkpt><trkpt lat="36.982988770900775" lon="15.16266947308962"><ele>183.0</ele><time>2026-04-19T13:21:27Z</time></trkpt><trkpt lat="36.98302905683281" lon="15.162580779528387"><ele>183.0</ele><time>2026-04-19T13:21:28Z</time></trkpt><trkpt lat="36.98307180850338" lon="15.16249044282649"><ele>183.0</ele><time>2026-04-19T13:21:29Z</time></trkpt><trkpt lat="36.98311255789253" lon="15.162404337126082"><ele>183.0</ele><time>2026-04-19T13:21:30Z</time></trkpt><trkpt lat="36.98315478142604" lon="15.162313702362415"><ele>183.0</ele><time>2026-04-19T13:21:31Z</time></trkpt><trkpt lat="36.98319590146881" lon="15.162222057333196"><ele>183.0</ele><time>2026-04-19T13:21:32Z</time></trkpt><trkpt lat="36.98323753124566" lon="15.16212914833333"><ele>183.0</ele><time>2026-04-19T13:21:33Z</time></trkpt><trkpt lat="36.9832799060375" lon="15.162036814572565"><ele>183.0</ele><time>2026-04-19T13:21:34Z</time></trkpt><trkpt lat="36.98332327499502" lon="15.161942314790538"><ele>182.60000000000002</ele><time>2026-04-19T13:21:35Z</time></trkpt><trkpt lat="36.98336598008524" lon="15.161849261634204"><ele>182.20000000000002</ele><time>2026-04-19T13:21:36Z</time></trkpt><trkpt lat="36.983411061065155" lon="15.161750941844318"><ele>181.8</ele><time>2026-04-19T13:21:37Z</time></trkpt><trkpt lat="36.98346087678241" lon="15.161639688378497"><ele>181.4</ele><time>2026-04-19T13:21:38Z</time></trkpt><trkpt lat="36.9835103658353" lon="15.16152916416781"><ele>181.0</ele><time>2026-04-19T13:21:39Z</time></trkpt><trkpt lat="36.98355934046724" lon="15.161422303263311"><ele>181.0</ele><time>2026-04-19T13:21:40Z</time></trkpt><trkpt lat="36.98360403258061" lon="15.161325257493882"><ele>181.0</ele><time>2026-04-19T13:21:41Z</time></trkpt><trkpt lat="36.98362996228223" lon="15.16122588598401"><ele>181.0</ele><time>2026-04-19T13:21:42Z</time></trkpt><trkpt lat="36.983681964325136" lon="15.161144578146024"><ele>181.0</ele><time>2026-04-19T13:21:43Z</time></trkpt><trkpt lat="36.98372016111581" lon="15.161054717797537"><ele>181.0</ele><time>2026-04-19T13:21:44Z</time></trkpt><trkpt lat="36.98376058140219" lon="15.160960763120027"><ele>181.0</ele><time>2026-04-19T13:21:45Z</time></trkpt><trkpt lat="36.983806736865226" lon="15.160859421746725"><ele>181.0</ele><time>2026-04-19T13:21:46Z</time></trkpt><trkpt lat="36.98384109878345" lon="15.160749980480693"><ele>181.0</ele><time>2026-04-19T13:21:47Z</time></trkpt><trkpt lat="36.983899713046625" lon="15.16065651165555"><ele>181.0</ele><time>2026-04-19T13:21:48Z</time></trkpt><trkpt lat="36.98394493440711" lon="15.16055784811357"><ele>181.0</ele><time>2026-04-19T13:21:49Z</time></trkpt><trkpt lat="36.983985392497985" lon="15.160465666642748"><ele>181.0</ele><time>2026-04-19T13:21:50Z</time></trkpt><trkpt lat="36.984008573970215" lon="15.160375786785234"><ele>181.0</ele><time>2026-04-19T13:21:51Z</time></trkpt><trkpt lat="36.984051581643165" lon="15.160289022715565"><ele>180.83333333333334</ele><time>2026-04-19T13:21:52Z</time></trkpt><trkpt lat="36.984084822055436" lon="15.1602023504766"><ele>180.66666666666669</ele><time>2026-04-19T13:21:53Z</time></trkpt><trkpt lat="36.98412661312727" lon="15.160110960394482"><ele>180.5</ele><time>2026-04-19T13:21:54Z</time></trkpt><trkpt lat="36.98417057183523" lon="15.160010246217148"><ele>180.33333333333334</ele><time>2026-04-19T13:21:55Z</time></trkpt><trkpt lat="36.984216192547976" lon="15.159908642309123"><ele>180.16666666666666</ele><time>2026-04-19T13:21:56Z</time></trkpt><trkpt lat="36.98426103345979" lon="15.159805026323298"><ele>180.0</ele><time>2026-04-19T13:21:57Z</time></trkpt><trkpt lat="36.98430331399321" lon="15.15970943977943"><ele>179.5</ele><time>2026-04-19T13:21:58Z</time></trkpt><trkpt lat="36.98435134539284" lon="15.159609639054901"><ele>179.0</ele><time>2026-04-19T13:21:59Z</time></trkpt><trkpt lat="36.98439571083954" lon="15.159510199869091"><ele>178.5</ele><time>2026-04-19T13:22:00Z</time></trkpt><trkpt lat="36.98444339752435" lon="15.15941838081473"><ele>178.0</ele><time>2026-04-19T13:22:01Z</time></trkpt><trkpt lat="36.984482023593" lon="15.159325977621057"><ele>177.5</ele><time>2026-04-19T13:22:02Z</time></trkpt><trkpt lat="36.98452415516632" lon="15.15923354417843"><ele>177.0</ele><time>2026-04-19T13:22:03Z</time></trkpt><trkpt lat="36.98456404251231" lon="15.159141500796888"><ele>177.0</ele><time>2026-04-19T13:22:04Z</time></trkpt><trkpt lat="36.984605685794044" lon="15.159047436669859"><ele>177.0</ele><time>2026-04-19T13:22:05Z</time></trkpt><trkpt lat="36.9846461588143" lon="15.158961060446822"><ele>177.0</ele><time>2026-04-19T13:22:06Z</time></trkpt><trkpt lat="36.984681683887004" lon="15.1588860072958"><ele>177.0</ele><time>2026-04-19T13:22:07Z</time></trkpt><trkpt lat="36.984712509591134" lon="15.158815392044598"><ele>177.0</ele><time>2026-04-19T13:22:08Z</time></trkpt><trkpt lat="36.98473993516199" lon="15.158732991302832"><ele>177.0</ele><time>2026-04-19T13:22:09Z</time></trkpt><trkpt lat="36.9847948343519" lon="15.158650743830313"><ele>176.8</ele><time>2026-04-19T13:22:10Z</time></trkpt><trkpt lat="36.98482971179609" lon="15.158532344655963"><ele>176.6</ele><time>2026-04-19T13:22:11Z</time></trkpt><trkpt lat="36.98488326861005" lon="15.158430052193042"><ele>176.4</ele><time>2026-04-19T13:22:12Z</time></trkpt><trkpt lat="36.984931986869555" lon="15.158324037062002"><ele>176.20000000000002</ele><time>2026-04-19T13:22:13Z</time></trkpt><trkpt lat="36.98497415660016" lon="15.158219996659621"><ele>176.0</ele><time>2026-04-19T13:22:14Z</time></trkpt><trkpt lat="36.98501534039573" lon="15.158126295307866"><ele>176.0</ele><time>2026-04-19T13:22:15Z</time></trkpt><trkpt lat="36.985051739904" lon="15.158042935517592"><ele>176.0</ele><time>2026-04-19T13:22:16Z</time></trkpt><trkpt lat="36.98509253840538" lon="15.157956737305714"><ele>176.0</ele><time>2026-04-19T13:22:17Z</time></trkpt><trkpt lat="36.98515531744472" lon="15.157817440650183"><ele>176.0</ele><time>2026-04-19T13:22:19Z</time></trkpt><trkpt lat="36.98518809213319" lon="15.157742349592462"><ele>176.0</ele><time>2026-04-19T13:22:20Z</time></trkpt><trkpt lat="36.98522009619833" lon="15.157656011444216"><ele>176.0</ele><time>2026-04-19T13:22:21Z</time></trkpt><trkpt lat="36.98525922677643" lon="15.157567605314076"><ele>176.0</ele><time>2026-04-19T13:22:22Z</time></trkpt><trkpt lat="36.985334191999826" lon="15.157434934851407"><ele>176.0</ele><time>2026-04-19T13:22:24Z</time></trkpt><trkpt lat="36.98537330093945" lon="15.15734571450251"><ele>176.0</ele><time>2026-04-19T13:22:25Z</time></trkpt><trkpt lat="36.98540292156247" lon="15.157235045118913"><ele>176.0</ele><time>2026-04-19T13:22:26Z</time></trkpt><trkpt lat="36.98546467959805" lon="15.157139879684392"><ele>176.0</ele><time>2026-04-19T13:22:27Z</time></trkpt><trkpt lat="36.985509475727454" lon="15.157040894638103"><ele>176.20000000000002</ele><time>2026-04-19T13:22:28Z</time></trkpt><trkpt lat="36.985550992751406" lon="15.156949155393727"><ele>176.4</ele><time>2026-04-19T13:22:29Z</time></trkpt><trkpt lat="36.98559299466032" lon="15.156856344737227"><ele>176.6</ele><time>2026-04-19T13:22:30Z</time></trkpt><trkpt lat="36.985637587466705" lon="15.156756933691433"><ele>176.8</ele><time>2026-04-19T13:22:31Z</time></trkpt><trkpt lat="36.98568299616144" lon="15.156655492440914"><ele>177.0</ele><time>2026-04-19T13:22:32Z</time></trkpt><trkpt lat="36.985731003798755" lon="15.156548245357541"><ele>177.33333333333334</ele><time>2026-04-19T13:22:33Z</time></trkpt><trkpt lat="36.985769152153296" lon="15.156463727792877"><ele>177.66666666666666</ele><time>2026-04-19T13:22:34Z</time></trkpt><trkpt lat="36.98580971527308" lon="15.156375253672875"><ele>178.0</ele><time>2026-04-19T13:22:35Z</time></trkpt><trkpt lat="36.985849196330804" lon="15.1562891398026"><ele>178.33333333333331</ele><time>2026-04-19T13:22:36Z</time></trkpt><trkpt lat="36.98588647741535" lon="15.15620782538082"><ele>178.66666666666666</ele><time>2026-04-19T13:22:37Z</time></trkpt><trkpt lat="36.98592424247878" lon="15.156126662665184"><ele>179.0</ele><time>2026-04-19T13:22:38Z</time></trkpt><trkpt lat="36.985966751993004" lon="15.156034796087594"><ele>178.0</ele><time>2026-04-19T13:22:39Z</time></trkpt><trkpt lat="36.98601368035984" lon="15.155933380462468"><ele>177.0</ele><time>2026-04-19T13:22:40Z</time></trkpt><trkpt lat="36.986059303728915" lon="15.15583287387906"><ele>176.0</ele><time>2026-04-19T13:22:41Z</time></trkpt><trkpt lat="36.98610784231181" lon="15.15572629328361"><ele>175.0</ele><time>2026-04-19T13:22:42Z</time></trkpt><trkpt lat="36.98615292822109" lon="15.15562472763928"><ele>174.0</ele><time>2026-04-19T13:22:43Z</time></trkpt><trkpt lat="36.986200055613104" lon="15.155518166660206"><ele>174.0</ele><time>2026-04-19T13:22:44Z</time></trkpt><trkpt lat="36.98624300021619" lon="15.155421063401382"><ele>174.0</ele><time>2026-04-19T13:22:45Z</time></trkpt><trkpt lat="36.98628480398233" lon="15.155326539818896"><ele>174.0</ele><time>2026-04-19T13:22:46Z</time></trkpt><trkpt lat="36.98632384090167" lon="15.155238272442775"><ele>174.0</ele><time>2026-04-19T13:22:47Z</time></trkpt><trkpt lat="36.98636653044465" lon="15.155141746007434"><ele>174.0</ele><time>2026-04-19T13:22:48Z</time></trkpt><trkpt lat="36.98640758411194" lon="15.155047932438867"><ele>174.0</ele><time>2026-04-19T13:22:48.999Z</time></trkpt><trkpt lat="36.986448519554706" lon="15.154954362331713"><ele>174.16666666666666</ele><time>2026-04-19T13:22:49.999Z</time></trkpt><trkpt lat="36.98648692425031" lon="15.154866576965409"><ele>174.33333333333334</ele><time>2026-04-19T13:22:50.999Z</time></trkpt><trkpt lat="36.98652566714362" lon="15.154778018586557"><ele>174.5</ele><time>2026-04-19T13:22:51.999Z</time></trkpt><trkpt lat="36.986566063454084" lon="15.154687737294836"><ele>174.66666666666669</ele><time>2026-04-19T13:22:52.999Z</time></trkpt><trkpt lat="36.98660014769077" lon="15.154613407401202"><ele>174.83333333333334</ele><time>2026-04-19T13:22:53.999Z</time></trkpt><trkpt lat="36.98663721290934" lon="15.154533771961646"><ele>175.0</ele><time>2026-04-19T13:22:54.999Z</time></trkpt><trkpt lat="36.98667618570058" lon="15.154450038035508"><ele>174.5</ele><time>2026-04-19T13:22:55.999Z</time></trkpt><trkpt lat="36.9867182436236" lon="15.154359133514225"><ele>174.0</ele><time>2026-04-19T13:22:56.999Z</time></trkpt><trkpt lat="36.98676125828331" lon="15.154261678844883"><ele>173.5</ele><time>2026-04-19T13:22:57.999Z</time></trkpt><trkpt lat="36.98680538733432" lon="15.154161699517585"><ele>173.0</ele><time>2026-04-19T13:22:58.999Z</time></trkpt><trkpt lat="36.98684812182006" lon="15.154064879598687"><ele>172.5</ele><time>2026-04-19T13:22:59.999Z</time></trkpt><trkpt lat="36.98688873159478" lon="15.153972873471709"><ele>172.0</ele><time>2026-04-19T13:23:00.999Z</time></trkpt><trkpt lat="36.98692963284227" lon="15.153880207035323"><ele>172.0</ele><time>2026-04-19T13:23:01.999Z</time></trkpt><trkpt lat="36.98696930884906" lon="15.153790316487147"><ele>172.0</ele><time>2026-04-19T13:23:02.999Z</time></trkpt><trkpt lat="36.98700805582928" lon="15.15370253080447"><ele>172.0</ele><time>2026-04-19T13:23:03.999Z</time></trkpt><trkpt lat="36.98705282024157" lon="15.153601464778601"><ele>172.0</ele><time>2026-04-19T13:23:04.999Z</time></trkpt><trkpt lat="36.98710063745241" lon="15.15349353757273"><ele>172.0</ele><time>2026-04-19T13:23:05.999Z</time></trkpt><trkpt lat="36.987149444704826" lon="15.153382960778243"><ele>172.0</ele><time>2026-04-19T13:23:06.999Z</time></trkpt><trkpt lat="36.987200790766884" lon="15.153264113443083"><ele>172.0</ele><time>2026-04-19T13:23:07.999Z</time></trkpt><trkpt lat="36.98725316848173" lon="15.153142878257182"><ele>172.0</ele><time>2026-04-19T13:23:08.999Z</time></trkpt><trkpt lat="36.98730507802183" lon="15.153022726629402"><ele>172.0</ele><time>2026-04-19T13:23:09.999Z</time></trkpt><trkpt lat="36.987355273942384" lon="15.15290894695646"><ele>172.0</ele><time>2026-04-19T13:23:11Z</time></trkpt><trkpt lat="36.98740335658864" lon="15.152800013892591"><ele>171.8</ele><time>2026-04-19T13:23:12Z</time></trkpt><trkpt lat="36.98745286723597" lon="15.15269744188784"><ele>171.6</ele><time>2026-04-19T13:23:13Z</time></trkpt><trkpt lat="36.98750095916416" lon="15.152593869941633"><ele>171.4</ele><time>2026-04-19T13:23:14Z</time></trkpt><trkpt lat="36.987549528488024" lon="15.15248808695444"><ele>171.20000000000002</ele><time>2026-04-19T13:23:15Z</time></trkpt><trkpt lat="36.98759701467235" lon="15.152380148012144"><ele>171.0</ele><time>2026-04-19T13:23:16Z</time></trkpt><trkpt lat="36.98764496835925" lon="15.152271146407145"><ele>171.33333333333334</ele><time>2026-04-19T13:23:17Z</time></trkpt><trkpt lat="36.987692385542374" lon="15.152163364285569"><ele>171.66666666666666</ele><time>2026-04-19T13:23:18Z</time></trkpt><trkpt lat="36.98773729286562" lon="15.152061287315851"><ele>172.0</ele><time>2026-04-19T13:23:19Z</time></trkpt><trkpt lat="36.987779230182916" lon="15.151965961248239"><ele>172.33333333333331</ele><time>2026-04-19T13:23:20Z</time></trkpt><trkpt lat="36.987819792378104" lon="15.15187410887085"><ele>172.66666666666666</ele><time>2026-04-19T13:23:21Z</time></trkpt><trkpt lat="36.98786212853089" lon="15.151780002238356"><ele>173.0</ele><time>2026-04-19T13:23:22Z</time></trkpt><trkpt lat="36.98790427335041" lon="15.151686839994515"><ele>173.0</ele><time>2026-04-19T13:23:23Z</time></trkpt><trkpt lat="36.98794833254579" lon="15.151590066732469"><ele>173.0</ele><time>2026-04-19T13:23:24Z</time></trkpt><trkpt lat="36.98799322911175" lon="15.151491454310467"><ele>173.0</ele><time>2026-04-19T13:23:25Z</time></trkpt><trkpt lat="36.98803789651528" lon="15.151393345228177"><ele>173.0</ele><time>2026-04-19T13:23:26Z</time></trkpt><trkpt lat="36.9880797630565" lon="15.151301388086754"><ele>173.0</ele><time>2026-04-19T13:23:27Z</time></trkpt><trkpt lat="36.988122136912" lon="15.15120831605709"><ele>173.0</ele><time>2026-04-19T13:23:28Z</time></trkpt><trkpt lat="36.98816144569763" lon="15.1511193230674"><ele>173.28571428571428</ele><time>2026-04-19T13:23:29Z</time></trkpt><trkpt lat="36.98820028195094" lon="15.151031513685753"><ele>173.57142857142858</ele><time>2026-04-19T13:23:30Z</time></trkpt><trkpt lat="36.98823807440908" lon="15.15094617391618"><ele>173.85714285714286</ele><time>2026-04-19T13:23:31Z</time></trkpt><trkpt lat="36.9882746747794" lon="15.150865412393726"><ele>174.14285714285714</ele><time>2026-04-19T13:23:32Z</time></trkpt><trkpt lat="36.98831025332359" lon="15.15078690533872"><ele>174.42857142857144</ele><time>2026-04-19T13:23:33Z</time></trkpt><trkpt lat="36.988345560097166" lon="15.150708998223404"><ele>174.71428571428572</ele><time>2026-04-19T13:23:34Z</time></trkpt><trkpt lat="36.988381160254306" lon="15.150630016676699"><ele>175.0</ele><time>2026-04-19T13:23:35Z</time></trkpt><trkpt lat="36.988418305984496" lon="15.150546952147053"><ele>174.16666666666669</ele><time>2026-04-19T13:23:36Z</time></trkpt><trkpt lat="36.988452834297" lon="15.150469740664027"><ele>173.33333333333334</ele><time>2026-04-19T13:23:37Z</time></trkpt><trkpt lat="36.98849148512255" lon="15.150383310436782"><ele>172.5</ele><time>2026-04-19T13:23:38Z</time></trkpt><trkpt lat="36.98852781213026" lon="15.150302076849693"><ele>171.66666666666666</ele><time>2026-04-19T13:23:39Z</time></trkpt><trkpt lat="36.98856526485882" lon="15.150218325871007"><ele>170.83333333333331</ele><time>2026-04-19T13:23:40Z</time></trkpt><trkpt lat="36.988604786712294" lon="15.15013030824548"><ele>170.0</ele><time>2026-04-19T13:23:41Z</time></trkpt><trkpt lat="36.988642820496345" lon="15.150046404907746"><ele>170.0</ele><time>2026-04-19T13:23:42Z</time></trkpt><trkpt lat="36.988683689662395" lon="15.149956246439963"><ele>170.0</ele><time>2026-04-19T13:23:43Z</time></trkpt><trkpt lat="36.98872427537942" lon="15.14986671341426"><ele>170.0</ele><time>2026-04-19T13:23:44Z</time></trkpt><trkpt lat="36.988762127586035" lon="15.149783268505846"><ele>170.0</ele><time>2026-04-19T13:23:45Z</time></trkpt><trkpt lat="36.98880148743705" lon="15.149697123777635"><ele>170.0</ele><time>2026-04-19T13:23:46Z</time></trkpt><trkpt lat="36.988844022424566" lon="15.149604029896844"><ele>170.0</ele><time>2026-04-19T13:23:47Z</time></trkpt><trkpt lat="36.9888860904246" lon="15.149511958074577"><ele>170.0</ele><time>2026-04-19T13:23:48Z</time></trkpt><trkpt lat="36.988929122079114" lon="15.14941688411149"><ele>170.0</ele><time>2026-04-19T13:23:49Z</time></trkpt><trkpt lat="36.988971586611925" lon="15.149321726106413"><ele>170.0</ele><time>2026-04-19T13:23:50Z</time></trkpt><trkpt lat="36.9890129249782" lon="15.149229091701287"><ele>170.0</ele><time>2026-04-19T13:23:51Z</time></trkpt><trkpt lat="36.98905720518871" lon="15.149129862022303"><ele>170.0</ele><time>2026-04-19T13:23:52Z</time></trkpt><trkpt lat="36.98909906706497" lon="15.149031483371019"><ele>170.0</ele><time>2026-04-19T13:23:53Z</time></trkpt><trkpt lat="36.98914226940157" lon="15.148931810172087"><ele>168.8</ele><time>2026-04-19T13:23:54Z</time></trkpt><trkpt lat="36.98918531722698" lon="15.148832493452979"><ele>167.6</ele><time>2026-04-19T13:23:55Z</time></trkpt><trkpt lat="36.989229347857155" lon="15.148730909235848"><ele>166.39999999999998</ele><time>2026-04-19T13:23:56Z</time></trkpt><trkpt lat="36.98927342567241" lon="15.14862921621427"><ele>165.2</ele><time>2026-04-19T13:23:57Z</time></trkpt><trkpt lat="36.98931751283926" lon="15.148527774677504"><ele>164.0</ele><time>2026-04-19T13:23:58Z</time></trkpt><trkpt lat="36.98936248116663" lon="15.148428705943303"><ele>164.0</ele><time>2026-04-19T13:23:59Z</time></trkpt><trkpt lat="36.98940813639095" lon="15.148328123907216"><ele>164.0</ele><time>2026-04-19T13:24:00Z</time></trkpt><trkpt lat="36.98945383352015" lon="15.148227449577437"><ele>164.0</ele><time>2026-04-19T13:24:01Z</time></trkpt><trkpt lat="36.98949996356416" lon="15.148125821514776"><ele>164.0</ele><time>2026-04-19T13:24:02Z</time></trkpt><trkpt lat="36.98954581858125" lon="15.148024799325384"><ele>164.0</ele><time>2026-04-19T13:24:03Z</time></trkpt><trkpt lat="36.989592412582894" lon="15.147922149154832"><ele>164.39999999999998</ele><time>2026-04-19T13:24:04Z</time></trkpt><trkpt lat="36.98963879003807" lon="15.147819973410993"><ele>164.8</ele><time>2026-04-19T13:24:05Z</time></trkpt><trkpt lat="36.98968347445234" lon="15.14771329946872"><ele>165.2</ele><time>2026-04-19T13:24:06Z</time></trkpt><trkpt lat="36.989731355493525" lon="15.147603783401669"><ele>165.60000000000002</ele><time>2026-04-19T13:24:07Z</time></trkpt><trkpt lat="36.98977989420775" lon="15.14749487032"><ele>166.0</ele><time>2026-04-19T13:24:08Z</time></trkpt><trkpt lat="36.98982891511478" lon="15.147388602520529"><ele>165.66666666666669</ele><time>2026-04-19T13:24:09Z</time></trkpt><trkpt lat="36.98987762805604" lon="15.14728366159504"><ele>165.33333333333334</ele><time>2026-04-19T13:24:10Z</time></trkpt><trkpt lat="36.98991997591741" lon="15.147190966628115"><ele>165.0</ele><time>2026-04-19T13:24:11Z</time></trkpt><trkpt lat="36.989953994210445" lon="15.147109589623117"><ele>164.66666666666666</ele><time>2026-04-19T13:24:12Z</time></trkpt><trkpt lat="36.98998739053041" lon="15.14702970027012"><ele>164.33333333333331</ele><time>2026-04-19T13:24:13Z</time></trkpt><trkpt lat="36.99002092159902" lon="15.14694948871416"><ele>164.0</ele><time>2026-04-19T13:24:14Z</time></trkpt><trkpt lat="36.990058675805834" lon="15.146866451764817"><ele>164.0</ele><time>2026-04-19T13:24:15Z</time></trkpt><trkpt lat="36.990099103069106" lon="15.146777540934941"><ele>164.0</ele><time>2026-04-19T13:24:16Z</time></trkpt><trkpt lat="36.99012965179254" lon="15.1466767620824"><ele>164.0</ele><time>2026-04-19T13:24:17Z</time></trkpt><trkpt lat="36.9901792083825" lon="15.146570770217462"><ele>164.0</ele><time>2026-04-19T13:24:18Z</time></trkpt><trkpt lat="36.990222500277675" lon="15.146469044608558"><ele>164.0</ele><time>2026-04-19T13:24:19Z</time></trkpt><trkpt lat="36.99026843137536" lon="15.146372596271434"><ele>164.0</ele><time>2026-04-19T13:24:20Z</time></trkpt><trkpt lat="36.990303416579955" lon="15.14628873516978"><ele>164.33333333333331</ele><time>2026-04-19T13:24:21Z</time></trkpt><trkpt lat="36.9903397370483" lon="15.146211237594962"><ele>164.66666666666666</ele><time>2026-04-19T13:24:22Z</time></trkpt><trkpt lat="36.99037368635705" lon="15.14613582353798"><ele>165.0</ele><time>2026-04-19T13:24:23Z</time></trkpt><trkpt lat="36.9904260428318" lon="15.14602085896869"><ele>165.33333333333334</ele><time>2026-04-19T13:24:25Z</time></trkpt><trkpt lat="36.99046473801325" lon="15.145951973905051"><ele>165.66666666666669</ele><time>2026-04-19T13:24:27Z</time></trkpt><trkpt lat="36.99051663267077" lon="15.14585714638538"><ele>166.0</ele><time>2026-04-19T13:24:30Z</time></trkpt><trkpt lat="36.99055255996788" lon="15.145777782584664"><ele>166.5</ele><time>2026-04-19T13:24:32Z</time></trkpt><trkpt lat="36.990610404555184" lon="15.14565442445772"><ele>167.0</ele><time>2026-04-19T13:24:34Z</time></trkpt><trkpt lat="36.99064276583619" lon="15.1455848374811"><ele>167.5</ele><time>2026-04-19T13:24:35Z</time></trkpt><trkpt lat="36.99068109871068" lon="15.145502409747413"><ele>168.0</ele><time>2026-04-19T13:24:36Z</time></trkpt><trkpt lat="36.99071639421707" lon="15.145426513163047"><ele>168.5</ele><time>2026-04-19T13:24:37Z</time></trkpt><trkpt lat="36.99074900449798" lon="15.145352681397876"><ele>169.0</ele><time>2026-04-19T13:24:38Z</time></trkpt><trkpt lat="36.99078051627568" lon="15.145280103036429"><ele>169.0</ele><time>2026-04-19T13:24:39Z</time></trkpt><trkpt lat="36.99081370691336" lon="15.145203657960199"><ele>169.0</ele><time>2026-04-19T13:24:40Z</time></trkpt><trkpt lat="36.990847457187506" lon="15.145127194339636"><ele>169.0</ele><time>2026-04-19T13:24:41Z</time></trkpt><trkpt lat="36.99088292226352" lon="15.145047466524666"><ele>169.0</ele><time>2026-04-19T13:24:42Z</time></trkpt><trkpt lat="36.99092106327167" lon="15.144961723059112"><ele>169.0</ele><time>2026-04-19T13:24:43Z</time></trkpt><trkpt lat="36.99095735427202" lon="15.14488013843419"><ele>169.0</ele><time>2026-04-19T13:24:44Z</time></trkpt><trkpt lat="36.990991165135476" lon="15.144804129432927"><ele>169.0</ele><time>2026-04-19T13:24:45Z</time></trkpt><trkpt lat="36.99102394751349" lon="15.144729703765547"><ele>168.85714285714286</ele><time>2026-04-19T13:24:46Z</time></trkpt><trkpt lat="36.99105646490445" lon="15.144652351420708"><ele>168.71428571428572</ele><time>2026-04-19T13:24:47Z</time></trkpt><trkpt lat="36.991091001321664" lon="15.144570196242077"><ele>168.57142857142856</ele><time>2026-04-19T13:24:48Z</time></trkpt><trkpt lat="36.991124456178106" lon="15.14449061387061"><ele>168.42857142857144</ele><time>2026-04-19T13:24:49Z</time></trkpt><trkpt lat="36.99115833267179" lon="15.144410028537079"><ele>168.28571428571428</ele><time>2026-04-19T13:24:50Z</time></trkpt><trkpt lat="36.99119267381817" lon="15.144330240250603"><ele>168.14285714285714</ele><time>2026-04-19T13:24:51Z</time></trkpt><trkpt lat="36.99122803240725" lon="15.144248183328822"><ele>168.0</ele><time>2026-04-19T13:24:52Z</time></trkpt><trkpt lat="36.9912644055224" lon="15.144166348823381"><ele>168.0</ele><time>2026-04-19T13:24:53Z</time></trkpt><trkpt lat="36.991301443421975" lon="15.144084152979374"><ele>168.0</ele><time>2026-04-19T13:24:54Z</time></trkpt><trkpt lat="36.99133894630241" lon="15.144000925233966"><ele>168.0</ele><time>2026-04-19T13:24:55Z</time></trkpt><trkpt lat="36.99137705618119" lon="15.143916350416296"><ele>168.0</ele><time>2026-04-19T13:24:56Z</time></trkpt><trkpt lat="36.99141496145285" lon="15.143833024420976"><ele>168.0</ele><time>2026-04-19T13:24:57Z</time></trkpt><trkpt lat="36.99145457330162" lon="15.143746025041875"><ele>168.0</ele><time>2026-04-19T13:24:58Z</time></trkpt><trkpt lat="36.9914937436106" lon="15.143659995458382"><ele>168.33333333333334</ele><time>2026-04-19T13:24:59Z</time></trkpt><trkpt lat="36.99153272497265" lon="15.143573210941637"><ele>168.66666666666666</ele><time>2026-04-19T13:25:00Z</time></trkpt><trkpt lat="36.99157043171651" lon="15.143487856818428"><ele>169.0</ele><time>2026-04-19T13:25:01Z</time></trkpt><trkpt lat="36.99160915380864" lon="15.143400204350032"><ele>169.33333333333331</ele><time>2026-04-19T13:25:02Z</time></trkpt><trkpt lat="36.991646861257955" lon="15.143314848644525"><ele>169.66666666666666</ele><time>2026-04-19T13:25:03Z</time></trkpt><trkpt lat="36.991686220917565" lon="15.143229259231136"><ele>170.0</ele><time>2026-04-19T13:25:04Z</time></trkpt><trkpt lat="36.99172553189451" lon="15.143143999755846"><ele>170.16666666666666</ele><time>2026-04-19T13:25:05Z</time></trkpt><trkpt lat="36.99176501783438" lon="15.143058360817104"><ele>170.33333333333331</ele><time>2026-04-19T13:25:06Z</time></trkpt><trkpt lat="36.9918038059816" lon="15.14297423526128"><ele>170.5</ele><time>2026-04-19T13:25:07Z</time></trkpt><trkpt lat="36.99184139080754" lon="15.142890473804435"><ele>170.66666666666666</ele><time>2026-04-19T13:25:08Z</time></trkpt><trkpt lat="36.99187209580857" lon="15.142821001923586"><ele>170.83333333333334</ele><time>2026-04-19T13:25:09Z</time></trkpt><trkpt lat="36.99192716413152" lon="15.142696406538986"><ele>171.0</ele><time>2026-04-19T13:25:11Z</time></trkpt><trkpt lat="36.99198384511474" lon="15.14256816247113"><ele>171.0</ele><time>2026-04-19T13:25:13Z</time></trkpt><trkpt lat="36.99203848122569" lon="15.142445041277051"><ele>171.0</ele><time>2026-04-19T13:25:15Z</time></trkpt><trkpt lat="36.99209275250728" lon="15.14232544618061"><ele>171.0</ele><time>2026-04-19T13:25:17Z</time></trkpt><trkpt lat="36.992138263347094" lon="15.142226598911796"><ele>171.0</ele><time>2026-04-19T13:25:19Z</time></trkpt><trkpt lat="36.99215724890286" lon="15.142150068903481"><ele>171.0</ele><time>2026-04-19T13:25:24Z</time></trkpt><trkpt lat="36.992122206218546" lon="15.142261474174484"><ele>171.0</ele><time>2026-04-19T13:26:31Z</time></trkpt><trkpt lat="36.99206238084347" lon="15.142391411194424"><ele>171.0</ele><time>2026-04-19T13:26:33Z</time></trkpt><trkpt lat="36.99203161160384" lon="15.14246051958402"><ele>171.0</ele><time>2026-04-19T13:26:34Z</time></trkpt><trkpt lat="36.99198770466846" lon="15.142549044891574"><ele>171.0</ele><time>2026-04-19T13:26:36Z</time></trkpt><trkpt lat="36.99187258397172" lon="15.142773046702432"><ele>171.0</ele><time>2026-04-19T13:26:38Z</time></trkpt><trkpt lat="36.99183846245289" lon="15.142844187670548"><ele>171.0</ele><time>2026-04-19T13:26:39Z</time></trkpt><trkpt lat="36.99180536261621" lon="15.142925178718068"><ele>171.0</ele><time>2026-04-19T13:26:40Z</time></trkpt><trkpt lat="36.99176779846359" lon="15.143014077983915"><ele>171.0</ele><time>2026-04-19T13:26:41Z</time></trkpt><trkpt lat="36.9917304969763" lon="15.143093902436442"><ele>171.0</ele><time>2026-04-19T13:26:42Z</time></trkpt><trkpt lat="36.9916718968" lon="15.143217086893277"><ele>171.0</ele><time>2026-04-19T13:26:44Z</time></trkpt><trkpt lat="36.99162145691409" lon="15.143322699396117"><ele>171.20000000000002</ele><time>2026-04-19T13:26:46.001Z</time></trkpt><trkpt lat="36.99156346941704" lon="15.143430247826728"><ele>171.4</ele><time>2026-04-19T13:26:48.001Z</time></trkpt><trkpt lat="36.991503608240045" lon="15.14356678198565"><ele>171.6</ele><time>2026-04-19T13:26:50.001Z</time></trkpt><trkpt lat="36.99147307998294" lon="15.14364449698351"><ele>171.8</ele><time>2026-04-19T13:26:51.001Z</time></trkpt><trkpt lat="36.99143880591343" lon="15.143727236623816"><ele>172.0</ele><time>2026-04-19T13:26:52.001Z</time></trkpt><trkpt lat="36.991399428315745" lon="15.14381209809581"><ele>172.0</ele><time>2026-04-19T13:26:53.001Z</time></trkpt><trkpt lat="36.991358926726996" lon="15.143900625564616"><ele>172.0</ele><time>2026-04-19T13:26:54.001Z</time></trkpt><trkpt lat="36.991318328787536" lon="15.143987691906311"><ele>172.0</ele><time>2026-04-19T13:26:55.001Z</time></trkpt><trkpt lat="36.99127715665917" lon="15.14406783600502"><ele>172.0</ele><time>2026-04-19T13:26:56.001Z</time></trkpt><trkpt lat="36.99123839425907" lon="15.14415323216677"><ele>172.0</ele><time>2026-04-19T13:26:57.001Z</time></trkpt><trkpt lat="36.99120460551656" lon="15.144235781933993"><ele>172.0</ele><time>2026-04-19T13:26:58.001Z</time></trkpt><trkpt lat="36.99117194426886" lon="15.144320504886451"><ele>171.42857142857144</ele><time>2026-04-19T13:26:59Z</time></trkpt><trkpt lat="36.99113891844646" lon="15.14439966568329"><ele>170.85714285714286</ele><time>2026-04-19T13:27:00Z</time></trkpt><trkpt lat="36.99110504818856" lon="15.144475054837091"><ele>170.28571428571428</ele><time>2026-04-19T13:27:01Z</time></trkpt><trkpt lat="36.99107311990332" lon="15.144550047743053"><ele>169.71428571428572</ele><time>2026-04-19T13:27:02Z</time></trkpt><trkpt lat="36.99104072817186" lon="15.14462479551578"><ele>169.14285714285714</ele><time>2026-04-19T13:27:03Z</time></trkpt><trkpt lat="36.99100877799785" lon="15.144698463555201"><ele>168.57142857142858</ele><time>2026-04-19T13:27:04Z</time></trkpt><trkpt lat="36.99097859036246" lon="15.144772501855932"><ele>168.0</ele><time>2026-04-19T13:27:05Z</time></trkpt><trkpt lat="36.99092479843204" lon="15.144901566193845"><ele>168.16666666666666</ele><time>2026-04-19T13:27:07Z</time></trkpt><trkpt lat="36.99086849667134" lon="15.145017682629675"><ele>168.33333333333334</ele><time>2026-04-19T13:27:09Z</time></trkpt><trkpt lat="36.99080570864586" lon="15.145153359057216"><ele>168.5</ele><time>2026-04-19T13:27:11Z</time></trkpt><trkpt lat="36.99077395119357" lon="15.145227273683178"><ele>168.66666666666669</ele><time>2026-04-19T13:27:12Z</time></trkpt><trkpt lat="36.990741737535224" lon="15.145307618686664"><ele>168.83333333333334</ele><time>2026-04-19T13:27:13Z</time></trkpt><trkpt lat="36.99071436183401" lon="15.145378838658663"><ele>169.0</ele><time>2026-04-19T13:27:14Z</time></trkpt><trkpt lat="36.99065816430913" lon="15.14550211822996"><ele>169.0</ele><time>2026-04-19T13:27:16Z</time></trkpt><trkpt lat="36.990599789773306" lon="15.145619639423694"><ele>169.0</ele><time>2026-04-19T13:27:18Z</time></trkpt><trkpt lat="36.99054388354754" lon="15.14572281090493"><ele>169.0</ele><time>2026-04-19T13:27:20Z</time></trkpt><trkpt lat="36.99048933820221" lon="15.145844326100528"><ele>169.0</ele><time>2026-04-19T13:27:22Z</time></trkpt><trkpt lat="36.990454732911694" lon="15.145945374423766"><ele>169.0</ele><time>2026-04-19T13:27:25Z</time></trkpt><trkpt lat="36.990379662796485" lon="15.146075153107828"><ele>168.5</ele><time>2026-04-19T13:27:27Z</time></trkpt><trkpt lat="36.99033804734441" lon="15.14616708320564"><ele>168.0</ele><time>2026-04-19T13:27:28Z</time></trkpt><trkpt lat="36.990296365990375" lon="15.146259158832788"><ele>167.5</ele><time>2026-04-19T13:27:29Z</time></trkpt><trkpt lat="36.99025507679961" lon="15.146350229508553"><ele>167.0</ele><time>2026-04-19T13:27:30Z</time></trkpt><trkpt lat="36.99020883521137" lon="15.146451927664055"><ele>166.5</ele><time>2026-04-19T13:27:31Z</time></trkpt><trkpt lat="36.99016290623599" lon="15.146552938308139"><ele>166.0</ele><time>2026-04-19T13:27:32Z</time></trkpt><trkpt lat="36.99011822246205" lon="15.146651210451198"><ele>165.66666666666669</ele><time>2026-04-19T13:27:33Z</time></trkpt><trkpt lat="36.99007789288195" lon="15.146739906525966"><ele>165.33333333333334</ele><time>2026-04-19T13:27:34Z</time></trkpt><trkpt lat="36.9900394988448" lon="15.14682434573291"><ele>165.0</ele><time>2026-04-19T13:27:35Z</time></trkpt><trkpt lat="36.99001468977782" lon="15.14692087079432"><ele>164.66666666666666</ele><time>2026-04-19T13:27:36Z</time></trkpt><trkpt lat="36.98997546808114" lon="15.147007256420736"><ele>164.33333333333331</ele><time>2026-04-19T13:27:37Z</time></trkpt><trkpt lat="36.98993666071806" lon="15.147096332673026"><ele>164.0</ele><time>2026-04-19T13:27:38Z</time></trkpt><trkpt lat="36.98988810419892" lon="15.147177277028433"><ele>164.39999999999998</ele><time>2026-04-19T13:27:39Z</time></trkpt><trkpt lat="36.98984808444125" lon="15.147264327062475"><ele>164.8</ele><time>2026-04-19T13:27:40Z</time></trkpt><trkpt lat="36.98981984728771" lon="15.147366091980185"><ele>165.2</ele><time>2026-04-19T13:27:41Z</time></trkpt><trkpt lat="36.989766707194036" lon="15.147460901597032"><ele>165.60000000000002</ele><time>2026-04-19T13:27:42Z</time></trkpt><trkpt lat="36.989724375429816" lon="15.147567664137345"><ele>166.0</ele><time>2026-04-19T13:27:43Z</time></trkpt><trkpt lat="36.98967658097037" lon="15.147672525236258"><ele>166.0</ele><time>2026-04-19T13:27:44Z</time></trkpt><trkpt lat="36.98963407027565" lon="15.14777829461819"><ele>166.0</ele><time>2026-04-19T13:27:45Z</time></trkpt><trkpt lat="36.98958974349596" lon="15.147880196671775"><ele>166.0</ele><time>2026-04-19T13:27:46Z</time></trkpt><trkpt lat="36.98954531330314" lon="15.14798132250193"><ele>166.0</ele><time>2026-04-19T13:27:47Z</time></trkpt><trkpt lat="36.98949398920093" lon="15.148075714899006"><ele>166.0</ele><time>2026-04-19T13:27:48Z</time></trkpt><trkpt lat="36.98944936586423" lon="15.148176519411118"><ele>165.60000000000002</ele><time>2026-04-19T13:27:49Z</time></trkpt><trkpt lat="36.98940465571227" lon="15.148276114361098"><ele>165.2</ele><time>2026-04-19T13:27:50Z</time></trkpt><trkpt lat="36.98936064037799" lon="15.148374957452214"><ele>164.8</ele><time>2026-04-19T13:27:51Z</time></trkpt><trkpt lat="36.989316069157915" lon="15.148473846342192"><ele>164.39999999999998</ele><time>2026-04-19T13:27:52Z</time></trkpt><trkpt lat="36.9892717992007" lon="15.14857406019478"><ele>164.0</ele><time>2026-04-19T13:27:53Z</time></trkpt><trkpt lat="36.989229213223794" lon="15.148675553813042"><ele>164.0</ele><time>2026-04-19T13:27:54Z</time></trkpt><trkpt lat="36.98918664841813" lon="15.148774647498497"><ele>164.0</ele><time>2026-04-19T13:27:55Z</time></trkpt><trkpt lat="36.98914112220427" lon="15.14887116033057"><ele>164.0</ele><time>2026-04-19T13:27:56Z</time></trkpt><trkpt lat="36.98909871798409" lon="15.148964303737861"><ele>164.0</ele><time>2026-04-19T13:27:57Z</time></trkpt><trkpt lat="36.989057909987174" lon="15.149056814081938"><ele>164.0</ele><time>2026-04-19T13:27:58Z</time></trkpt><trkpt lat="36.989018119014474" lon="15.149146790879154"><ele>164.0</ele><time>2026-04-19T13:27:59Z</time></trkpt><trkpt lat="36.98898223993268" lon="15.149235676056529"><ele>165.0</ele><time>2026-04-19T13:28:00Z</time></trkpt><trkpt lat="36.98894303007037" lon="15.149327307335179"><ele>166.0</ele><time>2026-04-19T13:28:01Z</time></trkpt><trkpt lat="36.98890463368209" lon="15.149412566428614"><ele>167.0</ele><time>2026-04-19T13:28:02Z</time></trkpt><trkpt lat="36.988861732264915" lon="15.149504035587116"><ele>168.0</ele><time>2026-04-19T13:28:03.001Z</time></trkpt><trkpt lat="36.98882268594242" lon="15.149593262494133"><ele>169.0</ele><time>2026-04-19T13:28:04.001Z</time></trkpt><trkpt lat="36.988780549429315" lon="15.149683650272005"><ele>170.0</ele><time>2026-04-19T13:28:05.001Z</time></trkpt><trkpt lat="36.98873546396446" lon="15.14977968270606"><ele>170.0</ele><time>2026-04-19T13:28:06.001Z</time></trkpt><trkpt lat="36.98869088071056" lon="15.149879172509172"><ele>170.0</ele><time>2026-04-19T13:28:07.001Z</time></trkpt><trkpt lat="36.988648050902725" lon="15.149974037226654"><ele>170.0</ele><time>2026-04-19T13:28:08.001Z</time></trkpt><trkpt lat="36.988608957526644" lon="15.150061189965786"><ele>170.0</ele><time>2026-04-19T13:28:09.001Z</time></trkpt><trkpt lat="36.98857086674953" lon="15.150150007182768"><ele>170.0</ele><time>2026-04-19T13:28:10.001Z</time></trkpt><trkpt lat="36.98853390529651" lon="15.150238532744037"><ele>170.0</ele><time>2026-04-19T13:28:11.001Z</time></trkpt><trkpt lat="36.98849255026183" lon="15.150331539034108"><ele>170.0</ele><time>2026-04-19T13:28:12.001Z</time></trkpt><trkpt lat="36.988451672173426" lon="15.150421454649877"><ele>170.0</ele><time>2026-04-19T13:28:13.001Z</time></trkpt><trkpt lat="36.98841017594248" lon="15.150514441018473"><ele>170.0</ele><time>2026-04-19T13:28:14.001Z</time></trkpt><trkpt lat="36.98836898415945" lon="15.150605148218654"><ele>170.0</ele><time>2026-04-19T13:28:15.001Z</time></trkpt><trkpt lat="36.98832806991121" lon="15.150698558154582"><ele>170.0</ele><time>2026-04-19T13:28:16.001Z</time></trkpt><trkpt lat="36.98828843674386" lon="15.150789960471052"><ele>170.0</ele><time>2026-04-19T13:28:17.001Z</time></trkpt><trkpt lat="36.98823372518587" lon="15.150871277464462"><ele>170.83333333333331</ele><time>2026-04-19T13:28:18.001Z</time></trkpt><trkpt lat="36.98819325650296" lon="15.15096131996591"><ele>171.66666666666666</ele><time>2026-04-19T13:28:19.001Z</time></trkpt><trkpt lat="36.98815297068166" lon="15.151052407022666"><ele>172.5</ele><time>2026-04-19T13:28:20.001Z</time></trkpt><trkpt lat="36.988126685598246" lon="15.151152869830584"><ele>173.33333333333334</ele><time>2026-04-19T13:28:21.001Z</time></trkpt><trkpt lat="36.988085353415855" lon="15.151229641076515"><ele>174.16666666666669</ele><time>2026-04-19T13:28:22.001Z</time></trkpt><trkpt lat="36.98805467872685" lon="15.151310143693358"><ele>175.0</ele><time>2026-04-19T13:28:23.001Z</time></trkpt><trkpt lat="36.98801753245156" lon="15.151387164166827"><ele>175.0</ele><time>2026-04-19T13:28:24.001Z</time></trkpt><trkpt lat="36.987981254252745" lon="15.151468325505785"><ele>175.0</ele><time>2026-04-19T13:28:25.001Z</time></trkpt><trkpt lat="36.98794514213662" lon="15.151550465197673"><ele>175.0</ele><time>2026-04-19T13:28:26.001Z</time></trkpt><trkpt lat="36.98789463251258" lon="15.151623816347646"><ele>175.0</ele><time>2026-04-19T13:28:27.001Z</time></trkpt><trkpt lat="36.98786097150974" lon="15.151697750681308"><ele>175.0</ele><time>2026-04-19T13:28:28.001Z</time></trkpt><trkpt lat="36.98782810035432" lon="15.151770675687768"><ele>175.0</ele><time>2026-04-19T13:28:29.001Z</time></trkpt><trkpt lat="36.98780321227058" lon="15.151859273913617"><ele>175.0</ele><time>2026-04-19T13:28:30.001Z</time></trkpt><trkpt lat="36.987764782358795" lon="15.151947181557903"><ele>174.66666666666669</ele><time>2026-04-19T13:28:31.001Z</time></trkpt><trkpt lat="36.98771311045061" lon="15.152029825946641"><ele>174.33333333333334</ele><time>2026-04-19T13:28:32.001Z</time></trkpt><trkpt lat="36.987672072667166" lon="15.152123107278198"><ele>174.0</ele><time>2026-04-19T13:28:33.001Z</time></trkpt><trkpt lat="36.987639016197306" lon="15.152224752882615"><ele>173.66666666666666</ele><time>2026-04-19T13:28:34.001Z</time></trkpt><trkpt lat="36.98759866197495" lon="15.152322537272745"><ele>173.33333333333331</ele><time>2026-04-19T13:28:35.001Z</time></trkpt><trkpt lat="36.987556474908786" lon="15.15241599728867"><ele>173.0</ele><time>2026-04-19T13:28:36.001Z</time></trkpt><trkpt lat="36.98751687207823" lon="15.15250863141939"><ele>173.33333333333331</ele><time>2026-04-19T13:28:37.001Z</time></trkpt><trkpt lat="36.98747668464225" lon="15.152601401505775"><ele>173.66666666666666</ele><time>2026-04-19T13:28:38.001Z</time></trkpt><trkpt lat="36.987421210978255" lon="15.152682657502927"><ele>174.0</ele><time>2026-04-19T13:28:39.001Z</time></trkpt><trkpt lat="36.98737898342792" lon="15.152773599680758"><ele>174.33333333333334</ele><time>2026-04-19T13:28:40.001Z</time></trkpt><trkpt lat="36.987349889645834" lon="15.152870370852149"><ele>174.66666666666669</ele><time>2026-04-19T13:28:41.001Z</time></trkpt><trkpt lat="36.987310437485895" lon="15.152956805312607"><ele>175.0</ele><time>2026-04-19T13:28:42.001Z</time></trkpt><trkpt lat="36.98726894789345" lon="15.153054928174244"><ele>175.0</ele><time>2026-04-19T13:28:43.001Z</time></trkpt><trkpt lat="36.98723033783843" lon="15.153146941224769"><ele>175.0</ele><time>2026-04-19T13:28:44.001Z</time></trkpt><trkpt lat="36.98719087268123" lon="15.153230738276717"><ele>175.0</ele><time>2026-04-19T13:28:45.001Z</time></trkpt><trkpt lat="36.987149085590545" lon="15.153318237962548"><ele>175.0</ele><time>2026-04-19T13:28:46.001Z</time></trkpt><trkpt lat="36.98711188629895" lon="15.153409764482767"><ele>175.0</ele><time>2026-04-19T13:28:47.001Z</time></trkpt><trkpt lat="36.98707257174226" lon="15.153505109639807"><ele>175.0</ele><time>2026-04-19T13:28:48.001Z</time></trkpt><trkpt lat="36.98703113067786" lon="15.153600437393496"><ele>174.5</ele><time>2026-04-19T13:28:49.001Z</time></trkpt><trkpt lat="36.98698674474892" lon="15.15369233424164"><ele>174.0</ele><time>2026-04-19T13:28:50.001Z</time></trkpt><trkpt lat="36.9869471991257" lon="15.153782945854926"><ele>173.5</ele><time>2026-04-19T13:28:51.001Z</time></trkpt><trkpt lat="36.98690994405644" lon="15.153870087991333"><ele>173.0</ele><time>2026-04-19T13:28:52.001Z</time></trkpt><trkpt lat="36.98687046820881" lon="15.153960048937696"><ele>172.5</ele><time>2026-04-19T13:28:53.001Z</time></trkpt><trkpt lat="36.98682798456461" lon="15.15405229798825"><ele>172.0</ele><time>2026-04-19T13:28:54.001Z</time></trkpt><trkpt lat="36.986787652319464" lon="15.154142447388121"><ele>171.85714285714286</ele><time>2026-04-19T13:28:55.001Z</time></trkpt><trkpt lat="36.986751282493216" lon="15.154229858592242"><ele>171.71428571428572</ele><time>2026-04-19T13:28:56.001Z</time></trkpt><trkpt lat="36.98671434141149" lon="15.154314016193409"><ele>171.57142857142856</ele><time>2026-04-19T13:28:57.001Z</time></trkpt><trkpt lat="36.98668079867337" lon="15.154393618982505"><ele>171.42857142857144</ele><time>2026-04-19T13:28:58.001Z</time></trkpt><trkpt lat="36.986643733229904" lon="15.154465113316212"><ele>171.28571428571428</ele><time>2026-04-19T13:28:59.001Z</time></trkpt><trkpt lat="36.986609546093426" lon="15.154548393755839"><ele>171.14285714285714</ele><time>2026-04-19T13:29:00.001Z</time></trkpt><trkpt lat="36.986573770477634" lon="15.15462286575796"><ele>171.0</ele><time>2026-04-19T13:29:01.001Z</time></trkpt><trkpt lat="36.986539507759446" lon="15.154699152179477"><ele>171.60000000000002</ele><time>2026-04-19T13:29:02.001Z</time></trkpt><trkpt lat="36.98650305311775" lon="15.154782645468448"><ele>172.2</ele><time>2026-04-19T13:29:03.001Z</time></trkpt><trkpt lat="36.98643327377419" lon="15.154925515107044"><ele>172.8</ele><time>2026-04-19T13:29:05Z</time></trkpt><trkpt lat="36.98640101640374" lon="15.155007023671244"><ele>173.39999999999998</ele><time>2026-04-19T13:29:06Z</time></trkpt><trkpt lat="36.98636091894797" lon="15.155067797627629"><ele>174.0</ele><time>2026-04-19T13:29:07Z</time></trkpt><trkpt lat="36.9863089390118" lon="15.155185886819517"><ele>174.0</ele><time>2026-04-19T13:29:09Z</time></trkpt><trkpt lat="36.986275902380456" lon="15.155260586786959"><ele>174.0</ele><time>2026-04-19T13:29:10Z</time></trkpt><trkpt lat="36.98624275887764" lon="15.155358393377675"><ele>174.0</ele><time>2026-04-19T13:29:11Z</time></trkpt><trkpt lat="36.98620336647858" lon="15.155460770000879"><ele>174.0</ele><time>2026-04-19T13:29:12Z</time></trkpt><trkpt lat="36.98616125949419" lon="15.155552304303983"><ele>174.0</ele><time>2026-04-19T13:29:13Z</time></trkpt><trkpt lat="36.98612527030142" lon="15.155638969618556"><ele>174.0</ele><time>2026-04-19T13:29:14Z</time></trkpt><trkpt lat="36.98607656499165" lon="15.155710791984818"><ele>173.83333333333334</ele><time>2026-04-19T13:29:15Z</time></trkpt><trkpt lat="36.98603739023751" lon="15.155796811557714"><ele>173.66666666666666</ele><time>2026-04-19T13:29:16Z</time></trkpt><trkpt lat="36.98599547133225" lon="15.155888856809824"><ele>173.5</ele><time>2026-04-19T13:29:17Z</time></trkpt><trkpt lat="36.98595404232493" lon="15.155979824828133"><ele>173.33333333333331</ele><time>2026-04-19T13:29:18Z</time></trkpt><trkpt lat="36.98591314517805" lon="15.156067469444189"><ele>173.16666666666666</ele><time>2026-04-19T13:29:19Z</time></trkpt><trkpt lat="36.985887124117085" lon="15.156164542951338"><ele>173.0</ele><time>2026-04-19T13:29:20Z</time></trkpt><trkpt lat="36.9858443022592" lon="15.156251898465538"><ele>173.8</ele><time>2026-04-19T13:29:21Z</time></trkpt><trkpt lat="36.985804717049085" lon="15.156340189911907"><ele>174.60000000000002</ele><time>2026-04-19T13:29:22Z</time></trkpt><trkpt lat="36.98575807020498" lon="15.156439374378673"><ele>175.39999999999998</ele><time>2026-04-19T13:29:23Z</time></trkpt><trkpt lat="36.98571170952267" lon="15.156545530545246"><ele>176.2</ele><time>2026-04-19T13:29:24Z</time></trkpt><trkpt lat="36.98566200466011" lon="15.156650685605399"><ele>177.0</ele><time>2026-04-19T13:29:25Z</time></trkpt><trkpt lat="36.98561932521115" lon="15.15674141903278"><ele>177.0</ele><time>2026-04-19T13:29:26Z</time></trkpt><trkpt lat="36.98558099698644" lon="15.15683024666771"><ele>177.0</ele><time>2026-04-19T13:29:27Z</time></trkpt><trkpt lat="36.985542013810274" lon="15.15692014104827"><ele>177.0</ele><time>2026-04-19T13:29:28Z</time></trkpt><trkpt lat="36.98549737305306" lon="15.157024109489008"><ele>177.0</ele><time>2026-04-19T13:29:29Z</time></trkpt><trkpt lat="36.98544953857177" lon="15.157130799599365"><ele>177.0</ele><time>2026-04-19T13:29:30Z</time></trkpt><trkpt lat="36.9853865354131" lon="15.157228851105643"><ele>177.0</ele><time>2026-04-19T13:29:31Z</time></trkpt><trkpt lat="36.98533994581654" lon="15.157335137324303"><ele>177.0</ele><time>2026-04-19T13:29:32Z</time></trkpt><trkpt lat="36.98531181234873" lon="15.157439707281444"><ele>177.0</ele><time>2026-04-19T13:29:33Z</time></trkpt><trkpt lat="36.985273548705194" lon="15.157520795020787"><ele>177.0</ele><time>2026-04-19T13:29:34Z</time></trkpt><trkpt lat="36.985236782599856" lon="15.157604511613453"><ele>177.0</ele><time>2026-04-19T13:29:35Z</time></trkpt><trkpt lat="36.98519424895167" lon="15.157667519973534"><ele>177.0</ele><time>2026-04-19T13:29:36Z</time></trkpt><trkpt lat="36.98517686990156" lon="15.157747070727252"><ele>176.8</ele><time>2026-04-19T13:29:37Z</time></trkpt><trkpt lat="36.98511207911123" lon="15.157876355708312"><ele>176.6</ele><time>2026-04-19T13:29:39Z</time></trkpt><trkpt lat="36.98505545479329" lon="15.158010997260114"><ele>176.4</ele><time>2026-04-19T13:29:41Z</time></trkpt><trkpt lat="36.98499778440155" lon="15.158146561815977"><ele>176.20000000000002</ele><time>2026-04-19T13:29:43Z</time></trkpt><trkpt lat="36.98496305038951" lon="15.158220067552344"><ele>176.0</ele><time>2026-04-19T13:29:44Z</time></trkpt><trkpt lat="36.98493072604483" lon="15.158299675701434"><ele>176.5</ele><time>2026-04-19T13:29:45Z</time></trkpt><trkpt lat="36.98489443332015" lon="15.158387612348323"><ele>177.0</ele><time>2026-04-19T13:29:46Z</time></trkpt><trkpt lat="36.98485303308563" lon="15.158477948924006"><ele>177.5</ele><time>2026-04-19T13:29:47Z</time></trkpt><trkpt lat="36.98481133735803" lon="15.158566952868524"><ele>178.0</ele><time>2026-04-19T13:29:48Z</time></trkpt><trkpt lat="36.984771488256804" lon="15.15864837063281"><ele>178.5</ele><time>2026-04-19T13:29:49Z</time></trkpt><trkpt lat="36.98473677927227" lon="15.158728106631003"><ele>179.0</ele><time>2026-04-19T13:29:50Z</time></trkpt><trkpt lat="36.984699750233375" lon="15.158806034818985"><ele>179.0</ele><time>2026-04-19T13:29:51Z</time></trkpt><trkpt lat="36.98466683038772" lon="15.158881911251102"><ele>179.0</ele><time>2026-04-19T13:29:52Z</time></trkpt><trkpt lat="36.98461378741302" lon="15.15897077644513"><ele>179.0</ele><time>2026-04-19T13:29:54Z</time></trkpt><trkpt lat="36.98456245460128" lon="15.159086968419247"><ele>179.0</ele><time>2026-04-19T13:29:56Z</time></trkpt><trkpt lat="36.98450434331707" lon="15.159218274534188"><ele>179.0</ele><time>2026-04-19T13:29:58Z</time></trkpt><trkpt lat="36.98444900799081" lon="15.159343308081704"><ele>178.6</ele><time>2026-04-19T13:30:00Z</time></trkpt><trkpt lat="36.98439198951078" lon="15.159470449816288"><ele>178.2</ele><time>2026-04-19T13:30:02Z</time></trkpt><trkpt lat="36.98433302883993" lon="15.159600199964869"><ele>177.79999999999998</ele><time>2026-04-19T13:30:04Z</time></trkpt><trkpt lat="36.984304640716886" lon="15.159678421278606"><ele>177.39999999999998</ele><time>2026-04-19T13:30:05Z</time></trkpt><trkpt lat="36.98427267803399" lon="15.159756540538924"><ele>177.0</ele><time>2026-04-19T13:30:06Z</time></trkpt><trkpt lat="36.98423472237454" lon="15.159845267712662"><ele>177.0</ele><time>2026-04-19T13:30:07Z</time></trkpt><trkpt lat="36.984192935495344" lon="15.159942463444816"><ele>177.0</ele><time>2026-04-19T13:30:08Z</time></trkpt><trkpt lat="36.98414654770375" lon="15.16004662928572"><ele>177.0</ele><time>2026-04-19T13:30:09Z</time></trkpt><trkpt lat="36.98410027474925" lon="15.160149991266861"><ele>177.0</ele><time>2026-04-19T13:30:10Z</time></trkpt><trkpt lat="36.984057010979605" lon="15.160243283313491"><ele>177.0</ele><time>2026-04-19T13:30:11Z</time></trkpt><trkpt lat="36.9840149970759" lon="15.160341187981272"><ele>177.5</ele><time>2026-04-19T13:30:12Z</time></trkpt><trkpt lat="36.98397167729978" lon="15.1604356199394"><ele>178.0</ele><time>2026-04-19T13:30:13Z</time></trkpt><trkpt lat="36.983929532248325" lon="15.160532313023575"><ele>178.5</ele><time>2026-04-19T13:30:14Z</time></trkpt><trkpt lat="36.98389160288042" lon="15.160620374229294"><ele>179.0</ele><time>2026-04-19T13:30:15Z</time></trkpt><trkpt lat="36.983850357513944" lon="15.160704765658448"><ele>179.5</ele><time>2026-04-19T13:30:16Z</time></trkpt><trkpt lat="36.98381393791551" lon="15.160784139884695"><ele>180.0</ele><time>2026-04-19T13:30:17Z</time></trkpt><trkpt lat="36.983781287252675" lon="15.160863210043326"><ele>180.2</ele><time>2026-04-19T13:30:18Z</time></trkpt><trkpt lat="36.98371305067768" lon="15.161005079683724"><ele>180.4</ele><time>2026-04-19T13:30:20Z</time></trkpt><trkpt lat="36.98367498149632" lon="15.161097748398744"><ele>180.60000000000002</ele><time>2026-04-19T13:30:21Z</time></trkpt><trkpt lat="36.98363430061009" lon="15.161194020774097"><ele>180.8</ele><time>2026-04-19T13:30:22Z</time></trkpt><trkpt lat="36.98359468157992" lon="15.161287235183856"><ele>181.0</ele><time>2026-04-19T13:30:23Z</time></trkpt><trkpt lat="36.98356050433587" lon="15.161362335507066"><ele>181.0</ele><time>2026-04-19T13:30:24Z</time></trkpt><trkpt lat="36.98351260781921" lon="15.161481617978698"><ele>181.0</ele><time>2026-04-19T13:30:26Z</time></trkpt><trkpt lat="36.98345656254336" lon="15.161598536458472"><ele>181.0</ele><time>2026-04-19T13:30:28Z</time></trkpt><trkpt lat="36.983417363134464" lon="15.161677023387536"><ele>181.0</ele><time>2026-04-19T13:30:29Z</time></trkpt><trkpt lat="36.98337804336952" lon="15.16176504693903"><ele>181.0</ele><time>2026-04-19T13:30:30Z</time></trkpt><trkpt lat="36.98334030478413" lon="15.161856333086346"><ele>181.16666666666669</ele><time>2026-04-19T13:30:31Z</time></trkpt><trkpt lat="36.983299892305226" lon="15.16194589412441"><ele>181.33333333333334</ele><time>2026-04-19T13:30:32Z</time></trkpt><trkpt lat="36.98325554391036" lon="15.162033740278119"><ele>181.5</ele><time>2026-04-19T13:30:33Z</time></trkpt><trkpt lat="36.983213716544554" lon="15.162130236037028"><ele>181.66666666666666</ele><time>2026-04-19T13:30:34Z</time></trkpt><trkpt lat="36.98317342000678" lon="15.16222550738729"><ele>181.83333333333331</ele><time>2026-04-19T13:30:35Z</time></trkpt><trkpt lat="36.9831298153837" lon="15.162317526338995"><ele>182.0</ele><time>2026-04-19T13:30:36Z</time></trkpt><trkpt lat="36.98309013525502" lon="15.16240551597209"><ele>182.16666666666666</ele><time>2026-04-19T13:30:37Z</time></trkpt><trkpt lat="36.983044643970906" lon="15.16249347008196"><ele>182.33333333333331</ele><time>2026-04-19T13:30:38Z</time></trkpt><trkpt lat="36.98300477376412" lon="15.162591093566892"><ele>182.5</ele><time>2026-04-19T13:30:39Z</time></trkpt><trkpt lat="36.982955098272186" lon="15.162686635358398"><ele>182.66666666666666</ele><time>2026-04-19T13:30:40Z</time></trkpt><trkpt lat="36.982919306942996" lon="15.16278236592716"><ele>182.83333333333334</ele><time>2026-04-19T13:30:41.001Z</time></trkpt><trkpt lat="36.98288233388921" lon="15.162861912304365"><ele>183.0</ele><time>2026-04-19T13:30:42.001Z</time></trkpt><trkpt lat="36.982824954142544" lon="15.162993055065995"><ele>183.0</ele><time>2026-04-19T13:30:44.001Z</time></trkpt><trkpt lat="36.982790577048505" lon="15.163076394829789"><ele>183.0</ele><time>2026-04-19T13:30:45.001Z</time></trkpt><trkpt lat="36.982750900045346" lon="15.163166364447848"><ele>183.0</ele><time>2026-04-19T13:30:46.001Z</time></trkpt><trkpt lat="36.98268562036786" lon="15.163308010439954"><ele>183.0</ele><time>2026-04-19T13:30:48.001Z</time></trkpt><trkpt lat="36.9826539304896" lon="15.163378534892322"><ele>183.0</ele><time>2026-04-19T13:30:49.001Z</time></trkpt><trkpt lat="36.98259629888995" lon="15.163505164282004"><ele>183.0</ele><time>2026-04-19T13:30:51.001Z</time></trkpt><trkpt lat="36.98254025329288" lon="15.16359675784057"><ele>183.0</ele><time>2026-04-19T13:30:53.001Z</time></trkpt><trkpt lat="36.982492074392155" lon="15.163654908304222"><ele>183.0</ele><time>2026-04-19T13:30:56.001Z</time></trkpt><trkpt lat="36.9824331788158" lon="15.163570967422633"><ele>183.0</ele><time>2026-04-19T13:30:58.001Z</time></trkpt><trkpt lat="36.982376833923055" lon="15.163531187175264"><ele>183.0</ele><time>2026-04-19T13:30:59.001Z</time></trkpt><trkpt lat="36.982318908304045" lon="15.163468413495645"><ele>183.0</ele><time>2026-04-19T13:31:00.001Z</time></trkpt><trkpt lat="36.98226709433436" lon="15.163417269719451"><ele>183.8</ele><time>2026-04-19T13:31:01.001Z</time></trkpt><trkpt lat="36.982162585147236" lon="15.163311777532817"><ele>184.60000000000002</ele><time>2026-04-19T13:31:03.001Z</time></trkpt><trkpt lat="36.98211045620293" lon="15.163233328746763"><ele>185.39999999999998</ele><time>2026-04-19T13:31:04.001Z</time></trkpt><trkpt lat="36.98204066754799" lon="15.163160463267879"><ele>186.2</ele><time>2026-04-19T13:31:05.001Z</time></trkpt><trkpt lat="36.98195547654286" lon="15.163098408950116"><ele>187.0</ele><time>2026-04-19T13:31:06.001Z</time></trkpt><trkpt lat="36.98189134323659" lon="15.163004555511607"><ele>187.2</ele><time>2026-04-19T13:31:07.001Z</time></trkpt><trkpt lat="36.981824858393985" lon="15.162935139478865"><ele>187.39999999999998</ele><time>2026-04-19T13:31:08.001Z</time></trkpt><trkpt lat="36.981757264002574" lon="15.162864564910713"><ele>187.60000000000002</ele><time>2026-04-19T13:31:09.001Z</time></trkpt><trkpt lat="36.98168723140064" lon="15.162791444709306"><ele>187.8</ele><time>2026-04-19T13:31:10Z</time></trkpt><trkpt lat="36.981615025216136" lon="15.162714835476212"><ele>188.0</ele><time>2026-04-19T13:31:11Z</time></trkpt><trkpt lat="36.98153989414054" lon="15.162634504769475"><ele>189.0</ele><time>2026-04-19T13:31:12Z</time></trkpt><trkpt lat="36.98146299320595" lon="15.162552281747498"><ele>190.0</ele><time>2026-04-19T13:31:13Z</time></trkpt><trkpt lat="36.98137401104409" lon="15.162481443741619"><ele>191.0</ele><time>2026-04-19T13:31:14Z</time></trkpt><trkpt lat="36.98129429154004" lon="15.162395232362165"><ele>192.0</ele><time>2026-04-19T13:31:15Z</time></trkpt><trkpt lat="36.98121979888851" lon="15.16229793538094"><ele>193.0</ele><time>2026-04-19T13:31:16Z</time></trkpt><trkpt lat="36.981137951649934" lon="15.162212580775144"><ele>193.0</ele><time>2026-04-19T13:31:17Z</time></trkpt><trkpt lat="36.98105366854137" lon="15.162125992286573"><ele>193.0</ele><time>2026-04-19T13:31:18Z</time></trkpt><trkpt lat="36.98096917745148" lon="15.162039896329288"><ele>193.0</ele><time>2026-04-19T13:31:19Z</time></trkpt><trkpt lat="36.980886273479705" lon="15.161953385103404"><ele>193.0</ele><time>2026-04-19T13:31:20Z</time></trkpt><trkpt lat="36.980803158333636" lon="15.161864782545267"><ele>193.0</ele><time>2026-04-19T13:31:21Z</time></trkpt><trkpt lat="36.98072102968167" lon="15.161777231617986"><ele>194.8</ele><time>2026-04-19T13:31:22Z</time></trkpt><trkpt lat="36.98063951666975" lon="15.16168986435764"><ele>196.60000000000002</ele><time>2026-04-19T13:31:23Z</time></trkpt><trkpt lat="36.98056030783511" lon="15.16160471171449"><ele>198.39999999999998</ele><time>2026-04-19T13:31:24Z</time></trkpt><trkpt lat="36.98048051689421" lon="15.161521025470272"><ele>200.2</ele><time>2026-04-19T13:31:25Z</time></trkpt><trkpt lat="36.98039206655197" lon="15.161454104288772"><ele>202.0</ele><time>2026-04-19T13:31:26Z</time></trkpt><trkpt lat="36.98031435347215" lon="15.161373478129809"><ele>202.39999999999998</ele><time>2026-04-19T13:31:27Z</time></trkpt><trkpt lat="36.980247453353556" lon="15.161278762895924"><ele>202.79999999999998</ele><time>2026-04-19T13:31:28Z</time></trkpt><trkpt lat="36.980169890632325" lon="15.161196449687452"><ele>203.2</ele><time>2026-04-19T13:31:29Z</time></trkpt><trkpt lat="36.98009228150818" lon="15.161114136428234"><ele>203.6</ele><time>2026-04-19T13:31:30Z</time></trkpt><trkpt lat="36.98001432976322" lon="15.161032845459733"><ele>204.0</ele><time>2026-04-19T13:31:31Z</time></trkpt><trkpt lat="36.97993618534209" lon="15.16095135353142"><ele>206.2</ele><time>2026-04-19T13:31:32Z</time></trkpt><trkpt lat="36.97984644726145" lon="15.160883271980433"><ele>208.39999999999998</ele><time>2026-04-19T13:31:33Z</time></trkpt><trkpt lat="36.97976657283924" lon="15.16080024285095"><ele>210.6</ele><time>2026-04-19T13:31:34Z</time></trkpt><trkpt lat="36.97969727412756" lon="15.160702208035472"><ele>212.8</ele><time>2026-04-19T13:31:35Z</time></trkpt><trkpt lat="36.97961869824229" lon="15.160620266124566"><ele>215.0</ele><time>2026-04-19T13:31:36Z</time></trkpt><trkpt lat="36.97954022392265" lon="15.160538430201417"><ele>217.0</ele><time>2026-04-19T13:31:37Z</time></trkpt><trkpt lat="36.97946287312114" lon="15.160457765965923"><ele>219.0</ele><time>2026-04-19T13:31:38Z</time></trkpt><trkpt lat="36.979384572918505" lon="15.160376111563856"><ele>221.0</ele><time>2026-04-19T13:31:39Z</time></trkpt><trkpt lat="36.97930541606524" lon="15.160295722045161"><ele>223.0</ele><time>2026-04-19T13:31:40Z</time></trkpt><trkpt lat="36.979226595611195" lon="15.160214652026724"><ele>225.0</ele><time>2026-04-19T13:31:41Z</time></trkpt><trkpt lat="36.979148655574384" lon="15.160131905660409"><ele>225.0</ele><time>2026-04-19T13:31:42Z</time></trkpt><trkpt lat="36.97907036600987" lon="15.160048788223772"><ele>225.0</ele><time>2026-04-19T13:31:43Z</time></trkpt><trkpt lat="36.978994044572694" lon="15.159968279537667"><ele>225.0</ele><time>2026-04-19T13:31:44Z</time></trkpt><trkpt lat="36.97891681948061" lon="15.15988843843534"><ele>225.0</ele><time>2026-04-19T13:31:45Z</time></trkpt><trkpt lat="36.97883902884315" lon="15.159808012635628"><ele>225.0</ele><time>2026-04-19T13:31:46Z</time></trkpt><trkpt lat="36.97876330668284" lon="15.159729725413579"><ele>227.0</ele><time>2026-04-19T13:31:47Z</time></trkpt><trkpt lat="36.97869258400422" lon="15.159654546973977"><ele>229.0</ele><time>2026-04-19T13:31:48Z</time></trkpt><trkpt lat="36.97862661770763" lon="15.15958049275084"><ele>231.0</ele><time>2026-04-19T13:31:49Z</time></trkpt><trkpt lat="36.978556657897606" lon="15.159525346280471"><ele>233.0</ele><time>2026-04-19T13:31:50Z</time></trkpt><trkpt lat="36.97851207628631" lon="15.159448069249148"><ele>235.0</ele><time>2026-04-19T13:31:51Z</time></trkpt><trkpt lat="36.978453681790874" lon="15.159401085055203"><ele>237.0</ele><time>2026-04-19T13:31:52Z</time></trkpt><trkpt lat="36.97839378118066" lon="15.159370910575918"><ele>236.4285714285714</ele><time>2026-04-19T13:31:53Z</time></trkpt><trkpt lat="36.97832958093685" lon="15.159375650118236"><ele>235.85714285714283</ele><time>2026-04-19T13:31:54Z</time></trkpt><trkpt lat="36.97826830513338" lon="15.159407011476247"><ele>235.28571428571428</ele><time>2026-04-19T13:31:55Z</time></trkpt><trkpt lat="36.978219944034265" lon="15.159463171580116"><ele>234.7142857142857</ele><time>2026-04-19T13:31:56Z</time></trkpt><trkpt lat="36.97818979356329" lon="15.159547995606138"><ele>234.1428571428571</ele><time>2026-04-19T13:31:57Z</time></trkpt><trkpt lat="36.97816780068818" lon="15.159636598603205"><ele>233.57142857142858</ele><time>2026-04-19T13:31:58Z</time></trkpt><trkpt lat="36.97816450014195" lon="15.159732356473164"><ele>233.0</ele><time>2026-04-19T13:31:59Z</time></trkpt><trkpt lat="36.978162253112686" lon="15.1598332534404"><ele>232.83333333333334</ele><time>2026-04-19T13:32:00Z</time></trkpt><trkpt lat="36.97816180399489" lon="15.159936709926582"><ele>232.66666666666669</ele><time>2026-04-19T13:32:01Z</time></trkpt><trkpt lat="36.97816475215297" lon="15.160037354996929"><ele>232.5</ele><time>2026-04-19T13:32:02Z</time></trkpt><trkpt lat="36.97817029084589" lon="15.16013809743425"><ele>232.33333333333331</ele><time>2026-04-19T13:32:03Z</time></trkpt><trkpt lat="36.97817771374114" lon="15.16023140966923"><ele>232.16666666666666</ele><time>2026-04-19T13:32:04Z</time></trkpt><trkpt lat="36.97818715698254" lon="15.160316742744964"><ele>232.0</ele><time>2026-04-19T13:32:05Z</time></trkpt><trkpt lat="36.978196166675865" lon="15.160435240442155"><ele>231.99999999999997</ele><time>2026-04-19T13:32:07Z</time></trkpt><trkpt lat="36.978193474923515" lon="15.160545177502453"><ele>232.0</ele><time>2026-04-19T13:32:09Z</time></trkpt><trkpt lat="36.9781491909261" lon="15.160653035218381"><ele>232.0</ele><time>2026-04-19T13:32:11Z</time></trkpt><trkpt lat="36.97807639861312" lon="15.1606727451496"><ele>232.0</ele><time>2026-04-19T13:32:13Z</time></trkpt><trkpt lat="36.97801836488014" lon="15.160600634501368"><ele>231.99999999999997</ele><time>2026-04-19T13:32:14Z</time></trkpt><trkpt lat="36.9779924262862" lon="15.160476368330848"><ele>232.0</ele><time>2026-04-19T13:32:16Z</time></trkpt><trkpt lat="36.977948669837936" lon="15.160391953394356"><ele>231.99999999999997</ele><time>2026-04-19T13:32:18Z</time></trkpt><trkpt lat="36.977896951869766" lon="15.160318833474363"><ele>232.0</ele><time>2026-04-19T13:32:20Z</time></trkpt><trkpt lat="36.9778056805912" lon="15.160293824588091"><ele>232.0</ele><time>2026-04-19T13:32:22Z</time></trkpt><trkpt lat="36.97769339879234" lon="15.160347859552704"><ele>232.0</ele><time>2026-04-19T13:32:24Z</time></trkpt><trkpt lat="36.97763050876787" lon="15.160381128463186"><ele>231.99999999999997</ele><time>2026-04-19T13:32:25Z</time></trkpt><trkpt lat="36.9775654540845" lon="15.160415527594619"><ele>232.0</ele><time>2026-04-19T13:32:26Z</time></trkpt><trkpt lat="36.97750535880632" lon="15.16046749862981"><ele>234.99999999999997</ele><time>2026-04-19T13:32:27Z</time></trkpt><trkpt lat="36.977441293243956" lon="15.160493717298676"><ele>238.0</ele><time>2026-04-19T13:32:28Z</time></trkpt><trkpt lat="36.97732157822826" lon="15.160495132279685"><ele>241.0</ele><time>2026-04-19T13:32:30Z</time></trkpt><trkpt lat="36.9772591874096" lon="15.160467806200147"><ele>244.0</ele><time>2026-04-19T13:32:31Z</time></trkpt><trkpt lat="36.9772052929208" lon="15.160411495736398"><ele>246.99999999999997</ele><time>2026-04-19T13:32:32Z</time></trkpt><trkpt lat="36.97714528998384" lon="15.160371580150871"><ele>250.0</ele><time>2026-04-19T13:32:33Z</time></trkpt><trkpt lat="36.977079647305814" lon="15.16034649991307"><ele>250.0</ele><time>2026-04-19T13:32:34Z</time></trkpt><trkpt lat="36.97700353860543" lon="15.160262427129663"><ele>250.0</ele><time>2026-04-19T13:32:36Z</time></trkpt><trkpt lat="36.97699003822953" lon="15.160149181130775"><ele>250.0</ele><time>2026-04-19T13:32:38Z</time></trkpt><trkpt lat="36.9770361788363" lon="15.160047865396459"><ele>250.0</ele><time>2026-04-19T13:32:40Z</time></trkpt><trkpt lat="36.977094098876655" lon="15.159941400541628"><ele>250.0</ele><time>2026-04-19T13:32:42Z</time></trkpt><trkpt lat="36.97715635640441" lon="15.15980450663876"><ele>250.85714285714283</ele><time>2026-04-19T13:32:44Z</time></trkpt><trkpt lat="36.97719985978945" lon="15.159727206873194"><ele>251.71428571428572</ele><time>2026-04-19T13:32:45Z</time></trkpt><trkpt lat="36.977245204658885" lon="15.15964643023363"><ele>252.57142857142856</ele><time>2026-04-19T13:32:46Z</time></trkpt><trkpt lat="36.97728112201193" lon="15.15956607448679"><ele>253.42857142857142</ele><time>2026-04-19T13:32:47.001Z</time></trkpt><trkpt lat="36.97730969028537" lon="15.159484311219808"><ele>254.28571428571428</ele><time>2026-04-19T13:32:48.001Z</time></trkpt><trkpt lat="36.97732803377842" lon="15.159397777296942"><ele>255.14285714285714</ele><time>2026-04-19T13:32:49.001Z</time></trkpt><trkpt lat="36.97734546563772" lon="15.159312645578233"><ele>256.0</ele><time>2026-04-19T13:32:50.001Z</time></trkpt><trkpt lat="36.97736213331557" lon="15.159227265216987"><ele>255.99999999999997</ele><time>2026-04-19T13:32:51.001Z</time></trkpt><trkpt lat="36.97737616891508" lon="15.159141740361397"><ele>256.0</ele><time>2026-04-19T13:32:52.001Z</time></trkpt><trkpt lat="36.977385344073134" lon="15.159057621396526"><ele>256.0</ele><time>2026-04-19T13:32:53.001Z</time></trkpt><trkpt lat="36.97738568785813" lon="15.158976561148966"><ele>256.0</ele><time>2026-04-19T13:32:54.001Z</time></trkpt><trkpt lat="36.97737029058471" lon="15.158824877908188"><ele>255.99999999999997</ele><time>2026-04-19T13:32:56.001Z</time></trkpt><trkpt lat="36.97731661813322" lon="15.158692787869171"><ele>256.0</ele><time>2026-04-19T13:32:58.001Z</time></trkpt><trkpt lat="36.97725953178828" lon="15.158550784921573"><ele>256.85714285714283</ele><time>2026-04-19T13:33:00.001Z</time></trkpt><trkpt lat="36.97722254692863" lon="15.158481149168288"><ele>257.71428571428567</ele><time>2026-04-19T13:33:01.001Z</time></trkpt><trkpt lat="36.97720119460514" lon="15.158398490748917"><ele>258.57142857142856</ele><time>2026-04-19T13:33:02.001Z</time></trkpt><trkpt lat="36.97716306271133" lon="15.158328936618076"><ele>259.42857142857144</ele><time>2026-04-19T13:33:03.001Z</time></trkpt><trkpt lat="36.97711081338204" lon="15.158275144477305"><ele>260.28571428571433</ele><time>2026-04-19T13:33:04.001Z</time></trkpt><trkpt lat="36.97706424324755" lon="15.158216348648402"><ele>261.14285714285717</ele><time>2026-04-19T13:33:05.001Z</time></trkpt><trkpt lat="36.977012711097174" lon="15.158159393606567"><ele>262.0</ele><time>2026-04-19T13:33:06.001Z</time></trkpt><trkpt lat="36.9769552597569" lon="15.158106004221871"><ele>263.66666666666663</ele><time>2026-04-19T13:33:07.001Z</time></trkpt><trkpt lat="36.97689418421372" lon="15.158053449483274"><ele>265.3333333333333</ele><time>2026-04-19T13:33:08.001Z</time></trkpt><trkpt lat="36.97684395037962" lon="15.157981060575587"><ele>267.0</ele><time>2026-04-19T13:33:09.001Z</time></trkpt><trkpt lat="36.97678532017111" lon="15.157925933888444"><ele>268.6666666666667</ele><time>2026-04-19T13:33:10.001Z</time></trkpt><trkpt lat="36.97672046856503" lon="15.157889506158453"><ele>270.33333333333337</ele><time>2026-04-19T13:33:11.001Z</time></trkpt><trkpt lat="36.97661587734353" lon="15.157845000507407"><ele>272.0</ele><time>2026-04-19T13:33:13.001Z</time></trkpt><trkpt lat="36.976533694609216" lon="15.157938158912888"><ele>272.2857142857143</ele><time>2026-04-19T13:33:15.001Z</time></trkpt><trkpt lat="36.976517208134865" lon="15.1580187266875"><ele>272.57142857142856</ele><time>2026-04-19T13:33:16Z</time></trkpt><trkpt lat="36.97650253601436" lon="15.15809881195246"><ele>272.8571428571429</ele><time>2026-04-19T13:33:17Z</time></trkpt><trkpt lat="36.97648494365223" lon="15.158180666850837"><ele>273.1428571428571</ele><time>2026-04-19T13:33:18Z</time></trkpt><trkpt lat="36.97646616212649" lon="15.158265366394383"><ele>273.42857142857144</ele><time>2026-04-19T13:33:19Z</time></trkpt><trkpt lat="36.9764439198339" lon="15.158350569730016"><ele>273.7142857142857</ele><time>2026-04-19T13:33:20Z</time></trkpt><trkpt lat="36.97641583908894" lon="15.158427104035145"><ele>274.0</ele><time>2026-04-19T13:33:21Z</time></trkpt><trkpt lat="36.97631948773956" lon="15.158519506811142"><ele>274.0</ele><time>2026-04-19T13:33:23Z</time></trkpt><trkpt lat="36.97624024728662" lon="15.158533163808363"><ele>274.0</ele><time>2026-04-19T13:33:24Z</time></trkpt><trkpt lat="36.97616274296439" lon="15.158560367058131"><ele>274.0</ele><time>2026-04-19T13:33:25Z</time></trkpt><trkpt lat="36.97609390403281" lon="15.15857810851056"><ele>274.0</ele><time>2026-04-19T13:33:26Z</time></trkpt><trkpt lat="36.97602863315442" lon="15.158591515447897"><ele>274.0</ele><time>2026-04-19T13:33:27Z</time></trkpt><trkpt lat="36.97590089326919" lon="15.158570709492363"><ele>274.0</ele><time>2026-04-19T13:33:29Z</time></trkpt><trkpt lat="36.97585686046389" lon="15.158488738416262"><ele>275.3333333333333</ele><time>2026-04-19T13:33:30Z</time></trkpt><trkpt lat="36.97580130837616" lon="15.158419112718683"><ele>276.66666666666663</ele><time>2026-04-19T13:33:31Z</time></trkpt><trkpt lat="36.97577424842836" lon="15.158319664541468"><ele>278.0</ele><time>2026-04-19T13:33:32Z</time></trkpt><trkpt lat="36.97576336140391" lon="15.158213345275577"><ele>279.3333333333333</ele><time>2026-04-19T13:33:33Z</time></trkpt><trkpt lat="36.975787334629935" lon="15.158105847693122"><ele>280.6666666666667</ele><time>2026-04-19T13:33:34Z</time></trkpt><trkpt lat="36.97579144521875" lon="15.157992520886419"><ele>282.0</ele><time>2026-04-19T13:33:35Z</time></trkpt><trkpt lat="36.97581629174446" lon="15.157878643961812"><ele>281.6</ele><time>2026-04-19T13:33:36Z</time></trkpt><trkpt lat="36.975838400212815" lon="15.15775657859719"><ele>281.2</ele><time>2026-04-19T13:33:37Z</time></trkpt><trkpt lat="36.97586066688849" lon="15.157640815468456"><ele>280.8</ele><time>2026-04-19T13:33:38Z</time></trkpt><trkpt lat="36.97588101733455" lon="15.157530913100542"><ele>280.4</ele><time>2026-04-19T13:33:39Z</time></trkpt><trkpt lat="36.97590234238191" lon="15.157417559609332"><ele>280.0</ele><time>2026-04-19T13:33:40Z</time></trkpt><trkpt lat="36.97592656751048" lon="15.157304217345109"><ele>281.6</ele><time>2026-04-19T13:33:41Z</time></trkpt><trkpt lat="36.97595316219947" lon="15.15718717123117"><ele>283.2</ele><time>2026-04-19T13:33:42Z</time></trkpt><trkpt lat="36.97597894795507" lon="15.15706913885994"><ele>284.8</ele><time>2026-04-19T13:33:43Z</time></trkpt><trkpt lat="36.9760046761966" lon="15.15694964208456"><ele>286.4</ele><time>2026-04-19T13:33:44Z</time></trkpt><trkpt lat="36.97605072201141" lon="15.15683653067153"><ele>288.0</ele><time>2026-04-19T13:33:45Z</time></trkpt><trkpt lat="36.976087778981956" lon="15.156721270681205"><ele>288.0</ele><time>2026-04-19T13:33:46Z</time></trkpt><trkpt lat="36.976112051712605" lon="15.156599708613511"><ele>288.0</ele><time>2026-04-19T13:33:47Z</time></trkpt><trkpt lat="36.976160736861964" lon="15.156489463612226"><ele>288.0</ele><time>2026-04-19T13:33:48Z</time></trkpt><trkpt lat="36.976220653876425" lon="15.156385919689896"><ele>288.0</ele><time>2026-04-19T13:33:49Z</time></trkpt><trkpt lat="36.97629429821474" lon="15.156291729909853"><ele>288.0</ele><time>2026-04-19T13:33:50Z</time></trkpt><trkpt lat="36.976375398138565" lon="15.156202896412772"><ele>289.0</ele><time>2026-04-19T13:33:51Z</time></trkpt><trkpt lat="36.97645703236614" lon="15.156118860448482"><ele>290.0</ele><time>2026-04-19T13:33:52Z</time></trkpt><trkpt lat="36.976539352805396" lon="15.156047317610309"><ele>291.0</ele><time>2026-04-19T13:33:53Z</time></trkpt><trkpt lat="36.976615017973145" lon="15.155985091036353"><ele>292.0</ele><time>2026-04-19T13:33:54Z</time></trkpt><trkpt lat="36.97667682186214" lon="15.155922976272452"><ele>293.0</ele><time>2026-04-19T13:33:55Z</time></trkpt><trkpt lat="36.976707701759565" lon="15.155843932108604"><ele>294.0</ele><time>2026-04-19T13:33:56Z</time></trkpt><trkpt lat="36.97671775828507" lon="15.155753482908239"><ele>295.3333333333333</ele><time>2026-04-19T13:33:57Z</time></trkpt><trkpt lat="36.976736016665164" lon="15.155653569608969"><ele>296.6666666666667</ele><time>2026-04-19T13:33:58Z</time></trkpt><trkpt lat="36.976738764275936" lon="15.155548172739717"><ele>298.0</ele><time>2026-04-19T13:33:59Z</time></trkpt><trkpt lat="36.97674147630385" lon="15.155444140976753"><ele>299.33333333333337</ele><time>2026-04-19T13:34:00Z</time></trkpt><trkpt lat="36.976746303514425" lon="15.15534219809906"><ele>300.6666666666667</ele><time>2026-04-19T13:34:01Z</time></trkpt><trkpt lat="36.976736252923814" lon="15.155240038215373"><ele>302.0</ele><time>2026-04-19T13:34:02Z</time></trkpt><trkpt lat="36.97674895630606" lon="15.155142643555187"><ele>302.0</ele><time>2026-04-19T13:34:03Z</time></trkpt><trkpt lat="36.976771571205035" lon="15.15504877692611"><ele>302.0</ele><time>2026-04-19T13:34:04Z</time></trkpt><trkpt lat="36.97681164397895" lon="15.154955212052728"><ele>302.0</ele><time>2026-04-19T13:34:05Z</time></trkpt><trkpt lat="36.976863871932935" lon="15.154857127367688"><ele>302.0</ele><time>2026-04-19T13:34:06Z</time></trkpt><trkpt lat="36.97691158395201" lon="15.154757775308147"><ele>302.0</ele><time>2026-04-19T13:34:07Z</time></trkpt><trkpt lat="36.97695334702413" lon="15.154659356733369"><ele>302.0</ele><time>2026-04-19T13:34:08Z</time></trkpt><trkpt lat="36.97699144646229" lon="15.154567346306306"><ele>302.4</ele><time>2026-04-19T13:34:09Z</time></trkpt><trkpt lat="36.97703154857913" lon="15.154470237037783"><ele>302.79999999999995</ele><time>2026-04-19T13:34:10Z</time></trkpt><trkpt lat="36.97707336755469" lon="15.15437037626704"><ele>303.2</ele><time>2026-04-19T13:34:11Z</time></trkpt><trkpt lat="36.97711694723781" lon="15.154267978461391"><ele>303.59999999999997</ele><time>2026-04-19T13:34:12Z</time></trkpt><trkpt lat="36.97715669442211" lon="15.154157401855551"><ele>304.0</ele><time>2026-04-19T13:34:13Z</time></trkpt><trkpt lat="36.97719111569542" lon="15.154037070868215"><ele>304.75</ele><time>2026-04-19T13:34:14Z</time></trkpt><trkpt lat="36.97722431541287" lon="15.15390826562286"><ele>305.5</ele><time>2026-04-19T13:34:15Z</time></trkpt><trkpt lat="36.97725923453868" lon="15.1537715698552"><ele>306.25</ele><time>2026-04-19T13:34:16Z</time></trkpt><trkpt lat="36.977296122689104" lon="15.153629456492308"><ele>307.0</ele><time>2026-04-19T13:34:17Z</time></trkpt><trkpt lat="36.977331546717075" lon="15.15348664545633"><ele>307.0</ele><time>2026-04-19T13:34:18Z</time></trkpt><trkpt lat="36.97736413285155" lon="15.153348496999607"><ele>307.0</ele><time>2026-04-19T13:34:19Z</time></trkpt><trkpt lat="36.97741954373706" lon="15.153224313319877"><ele>307.0</ele><time>2026-04-19T13:34:20Z</time></trkpt><trkpt lat="36.97746079183242" lon="15.153098321564487"><ele>307.0</ele><time>2026-04-19T13:34:21Z</time></trkpt><trkpt lat="36.977485953779166" lon="15.152971681846267"><ele>307.0</ele><time>2026-04-19T13:34:22Z</time></trkpt><trkpt lat="36.97752634590989" lon="15.152856387587416"><ele>306.75</ele><time>2026-04-19T13:34:23Z</time></trkpt><trkpt lat="36.977565482897226" lon="15.152744277879764"><ele>306.5</ele><time>2026-04-19T13:34:24Z</time></trkpt><trkpt lat="36.97760281206808" lon="15.152634222669976"><ele>306.25</ele><time>2026-04-19T13:34:25Z</time></trkpt><trkpt lat="36.97763806131002" lon="15.152526737213934"><ele>306.0</ele><time>2026-04-19T13:34:26Z</time></trkpt><trkpt lat="36.97772363110659" lon="15.15233057813396"><ele>307.2</ele><time>2026-04-19T13:34:28Z</time></trkpt><trkpt lat="36.9777632098022" lon="15.152225172907723"><ele>308.40000000000003</ele><time>2026-04-19T13:34:29Z</time></trkpt><trkpt lat="36.97780414712876" lon="15.152118226241551"><ele>309.6</ele><time>2026-04-19T13:34:30Z</time></trkpt><trkpt lat="36.97784561760416" lon="15.152009887304354"><ele>310.8</ele><time>2026-04-19T13:34:31Z</time></trkpt><trkpt lat="36.977887132840266" lon="15.151900738309612"><ele>312.0</ele><time>2026-04-19T13:34:32Z</time></trkpt><trkpt lat="36.97792954117061" lon="15.15178938410145"><ele>312.0</ele><time>2026-04-19T13:34:33Z</time></trkpt><trkpt lat="36.97796023709447" lon="15.151668088553016"><ele>312.0</ele><time>2026-04-19T13:34:34Z</time></trkpt><trkpt lat="36.9780070853454" lon="15.151554974478902"><ele>312.0</ele><time>2026-04-19T13:34:35Z</time></trkpt><trkpt lat="36.9780514063579" lon="15.151439914634306"><ele>312.0</ele><time>2026-04-19T13:34:36Z</time></trkpt><trkpt lat="36.97809197176768" lon="15.151322537361454"><ele>312.0</ele><time>2026-04-19T13:34:37Z</time></trkpt><trkpt lat="36.97814992673218" lon="15.151211038140568"><ele>313.0</ele><time>2026-04-19T13:34:38Z</time></trkpt><trkpt lat="36.97819422685812" lon="15.151089129415512"><ele>314.0</ele><time>2026-04-19T13:34:39Z</time></trkpt><trkpt lat="36.97823709805451" lon="15.15096688140594"><ele>315.0</ele><time>2026-04-19T13:34:40Z</time></trkpt><trkpt lat="36.97827935694738" lon="15.150846379874363"><ele>316.0</ele><time>2026-04-19T13:34:41Z</time></trkpt><trkpt lat="36.97832150184601" lon="15.15073202359306"><ele>317.0</ele><time>2026-04-19T13:34:42Z</time></trkpt><trkpt lat="36.97836352334002" lon="15.15061541888544"><ele>318.6</ele><time>2026-04-19T13:34:43Z</time></trkpt><trkpt lat="36.97840566894349" lon="15.150496569401657"><ele>320.2</ele><time>2026-04-19T13:34:44Z</time></trkpt><trkpt lat="36.97843512837256" lon="15.15036960479632"><ele>321.8</ele><time>2026-04-19T13:34:45Z</time></trkpt><trkpt lat="36.978478017521084" lon="15.150244979435499"><ele>323.4</ele><time>2026-04-19T13:34:46Z</time></trkpt><trkpt lat="36.978518625360984" lon="15.150114480502573"><ele>325.0</ele><time>2026-04-19T13:34:47Z</time></trkpt><trkpt lat="36.97855837132333" lon="15.149980052515236"><ele>325.0</ele><time>2026-04-19T13:34:48Z</time></trkpt><trkpt lat="36.978595964584564" lon="15.149849397191002"><ele>325.0</ele><time>2026-04-19T13:34:49Z</time></trkpt><trkpt lat="36.97863498399686" lon="15.149725144507007"><ele>325.0</ele><time>2026-04-19T13:34:50Z</time></trkpt><trkpt lat="36.97867384022135" lon="15.149604652836615"><ele>325.0</ele><time>2026-04-19T13:34:51Z</time></trkpt><trkpt lat="36.97870820656063" lon="15.149489445274082"><ele>325.0</ele><time>2026-04-19T13:34:52.001Z</time></trkpt><trkpt lat="36.978743306694774" lon="15.149377692889134"><ele>325.0</ele><time>2026-04-19T13:34:53.001Z</time></trkpt><trkpt lat="36.9787780351508" lon="15.149268414453859"><ele>325.0</ele><time>2026-04-19T13:34:54.001Z</time></trkpt><trkpt lat="36.97881018135228" lon="15.14916317745152"><ele>325.0</ele><time>2026-04-19T13:34:55.001Z</time></trkpt><trkpt lat="36.97886496837747" lon="15.149072049396793"><ele>325.0</ele><time>2026-04-19T13:34:56.001Z</time></trkpt><trkpt lat="36.97890062237744" lon="15.148965745797396"><ele>325.0</ele><time>2026-04-19T13:34:57.001Z</time></trkpt><trkpt lat="36.97895678559586" lon="15.148865038019466"><ele>325.0</ele><time>2026-04-19T13:34:58.001Z</time></trkpt><trkpt lat="36.979010606105014" lon="15.148756858955624"><ele>325.0</ele><time>2026-04-19T13:34:59.001Z</time></trkpt><trkpt lat="36.979066320839664" lon="15.148648387488691"><ele>325.0</ele><time>2026-04-19T13:35:00.001Z</time></trkpt><trkpt lat="36.97912122636599" lon="15.148538117054816"><ele>325.0</ele><time>2026-04-19T13:35:01.001Z</time></trkpt><trkpt lat="36.97917342610116" lon="15.148429430067768"><ele>325.0</ele><time>2026-04-19T13:35:02.001Z</time></trkpt><trkpt lat="36.979224541011824" lon="15.148320645295907"><ele>325.0</ele><time>2026-04-19T13:35:03.001Z</time></trkpt><trkpt lat="36.979275043469016" lon="15.148213586700619"><ele>325.0</ele><time>2026-04-19T13:35:04.001Z</time></trkpt><trkpt lat="36.979334194002" lon="15.148108531740315"><ele>325.0</ele><time>2026-04-19T13:35:05.001Z</time></trkpt><trkpt lat="36.979392469668454" lon="15.14800449625783"><ele>325.0</ele><time>2026-04-19T13:35:06.001Z</time></trkpt><trkpt lat="36.97944301197906" lon="15.147901464739139"><ele>325.0</ele><time>2026-04-19T13:35:07.001Z</time></trkpt><trkpt lat="36.97947282192524" lon="15.147797378534237"><ele>325.0</ele><time>2026-04-19T13:35:08.001Z</time></trkpt><trkpt lat="36.979491399101335" lon="15.147693305199583"><ele>325.0</ele><time>2026-04-19T13:35:09.001Z</time></trkpt><trkpt lat="36.979506176565124" lon="15.147584721135328"><ele>325.0</ele><time>2026-04-19T13:35:10.001Z</time></trkpt><trkpt lat="36.97952323848449" lon="15.147475918252448"><ele>325.0</ele><time>2026-04-19T13:35:11.001Z</time></trkpt><trkpt lat="36.97954677271874" lon="15.147372611095632"><ele>325.0</ele><time>2026-04-19T13:35:12.001Z</time></trkpt><trkpt lat="36.97956785413325" lon="15.14726904815597"><ele>325.0</ele><time>2026-04-19T13:35:13.001Z</time></trkpt><trkpt lat="36.979593428457946" lon="15.147162516152546"><ele>325.0</ele><time>2026-04-19T13:35:14.001Z</time></trkpt><trkpt lat="36.97962759953437" lon="15.147057667320807"><ele>325.0</ele><time>2026-04-19T13:35:15.001Z</time></trkpt><trkpt lat="36.97965866273811" lon="15.146950620621832"><ele>325.0</ele><time>2026-04-19T13:35:16.001Z</time></trkpt><trkpt lat="36.97970530862686" lon="15.146850926395201"><ele>325.0</ele><time>2026-04-19T13:35:17.001Z</time></trkpt><trkpt lat="36.97974012579577" lon="15.146743783139378"><ele>325.0</ele><time>2026-04-19T13:35:18.001Z</time></trkpt><trkpt lat="36.97976083941665" lon="15.146623245545152"><ele>325.2</ele><time>2026-04-19T13:35:19.001Z</time></trkpt><trkpt lat="36.97979903907532" lon="15.146515331854907"><ele>325.4</ele><time>2026-04-19T13:35:20.001Z</time></trkpt><trkpt lat="36.979834026312275" lon="15.14640436271377"><ele>325.6</ele><time>2026-04-19T13:35:21.001Z</time></trkpt><trkpt lat="36.97986863370314" lon="15.146288245504248"><ele>325.8</ele><time>2026-04-19T13:35:22Z</time></trkpt><trkpt lat="36.979905639280595" lon="15.146175318045293"><ele>326.0</ele><time>2026-04-19T13:35:23Z</time></trkpt><trkpt lat="36.979942501771596" lon="15.146060845808652"><ele>326.0</ele><time>2026-04-19T13:35:24Z</time></trkpt><trkpt lat="36.97998459221293" lon="15.14594604263385"><ele>326.0</ele><time>2026-04-19T13:35:25Z</time></trkpt><trkpt lat="36.98003005123302" lon="15.145840065609557"><ele>326.0</ele><time>2026-04-19T13:35:26Z</time></trkpt><trkpt lat="36.98007588956487" lon="15.145732646841513"><ele>326.0</ele><time>2026-04-19T13:35:27Z</time></trkpt><trkpt lat="36.9801382521509" lon="15.145636932738451"><ele>326.0</ele><time>2026-04-19T13:35:28Z</time></trkpt><trkpt lat="36.98018713653678" lon="15.145531088495362"><ele>326.4</ele><time>2026-04-19T13:35:29Z</time></trkpt><trkpt lat="36.98022266045561" lon="15.145412440056218"><ele>326.8</ele><time>2026-04-19T13:35:30Z</time></trkpt><trkpt lat="36.98027146316808" lon="15.145304197426745"><ele>327.2</ele><time>2026-04-19T13:35:31Z</time></trkpt><trkpt lat="36.980318686446196" lon="15.145195126428664"><ele>327.59999999999997</ele><time>2026-04-19T13:35:32Z</time></trkpt><trkpt lat="36.980360598133906" lon="15.145084872663121"><ele>328.0</ele><time>2026-04-19T13:35:33Z</time></trkpt><trkpt lat="36.98041888562784" lon="15.144982591025762"><ele>327.79999999999995</ele><time>2026-04-19T13:35:34Z</time></trkpt><trkpt lat="36.98046156116497" lon="15.144869666241844"><ele>327.6</ele><time>2026-04-19T13:35:35Z</time></trkpt><trkpt lat="36.980503950864765" lon="15.144755290537718"><ele>327.4</ele><time>2026-04-19T13:35:36Z</time></trkpt><trkpt lat="36.98054579513963" lon="15.144640454430975"><ele>327.20000000000005</ele><time>2026-04-19T13:35:37Z</time></trkpt><trkpt lat="36.98058458640869" lon="15.1445270726795"><ele>327.0</ele><time>2026-04-19T13:35:38Z</time></trkpt><trkpt lat="36.98060556678136" lon="15.144416241850818"><ele>327.0</ele><time>2026-04-19T13:35:39Z</time></trkpt><trkpt lat="36.980654818270985" lon="15.144332869936646"><ele>327.0</ele><time>2026-04-19T13:35:40Z</time></trkpt><trkpt lat="36.98068755928451" lon="15.144247718584117"><ele>327.0</ele><time>2026-04-19T13:35:41Z</time></trkpt><trkpt lat="36.980721761458184" lon="15.144158618440777"><ele>327.0</ele><time>2026-04-19T13:35:42Z</time></trkpt><trkpt lat="36.980741946779304" lon="15.144061095799906"><ele>327.0</ele><time>2026-04-19T13:35:43Z</time></trkpt><trkpt lat="36.98077798419331" lon="15.14397661326606"><ele>327.0</ele><time>2026-04-19T13:35:44Z</time></trkpt><trkpt lat="36.980806636728026" lon="15.14388713235484"><ele>327.0</ele><time>2026-04-19T13:35:45Z</time></trkpt><trkpt lat="36.98084216950199" lon="15.143794692339375"><ele>327.0</ele><time>2026-04-19T13:35:46Z</time></trkpt><trkpt lat="36.98086738136774" lon="15.14369285454724"><ele>327.0</ele><time>2026-04-19T13:35:47Z</time></trkpt><trkpt lat="36.980893059560685" lon="15.143589133164467"><ele>327.0</ele><time>2026-04-19T13:35:48Z</time></trkpt><trkpt lat="36.98091932467068" lon="15.143480494481542"><ele>327.0</ele><time>2026-04-19T13:35:49Z</time></trkpt><trkpt lat="36.9809458955107" lon="15.143369360191041"><ele>327.0</ele><time>2026-04-19T13:35:50Z</time></trkpt><trkpt lat="36.980973306789" lon="15.143254710794501"><ele>326.6</ele><time>2026-04-19T13:35:51Z</time></trkpt><trkpt lat="36.9810009749567" lon="15.143138987265518"><ele>326.20000000000005</ele><time>2026-04-19T13:35:52Z</time></trkpt><trkpt lat="36.98101592753169" lon="15.143015973848158"><ele>325.8</ele><time>2026-04-19T13:35:53Z</time></trkpt><trkpt lat="36.981045259973854" lon="15.142895112431985"><ele>325.4</ele><time>2026-04-19T13:35:54Z</time></trkpt><trkpt lat="36.981072654440744" lon="15.142772800358266"><ele>325.0</ele><time>2026-04-19T13:35:55Z</time></trkpt><trkpt lat="36.98110199659831" lon="15.142648297515963"><ele>325.0</ele><time>2026-04-19T13:35:56Z</time></trkpt><trkpt lat="36.981129508917924" lon="15.142524268042775"><ele>325.0</ele><time>2026-04-19T13:35:57Z</time></trkpt><trkpt lat="36.98115783234651" lon="15.142402140327993"><ele>325.0</ele><time>2026-04-19T13:35:58Z</time></trkpt><trkpt lat="36.98118779824162" lon="15.142280300894024"><ele>325.0</ele><time>2026-04-19T13:35:59Z</time></trkpt><trkpt lat="36.98121613382378" lon="15.142157029455657"><ele>325.0</ele><time>2026-04-19T13:36:00Z</time></trkpt><trkpt lat="36.98124108537262" lon="15.142033920943689"><ele>325.0</ele><time>2026-04-19T13:36:01Z</time></trkpt><trkpt lat="36.98128089689565" lon="15.14191390088396"><ele>325.0</ele><time>2026-04-19T13:36:02Z</time></trkpt><trkpt lat="36.981283280414345" lon="15.141782395103423"><ele>325.0</ele><time>2026-04-19T13:36:03Z</time></trkpt><trkpt lat="36.9813007518688" lon="15.141655603022784"><ele>325.0</ele><time>2026-04-19T13:36:04Z</time></trkpt><trkpt lat="36.981332880100744" lon="15.141529884682702"><ele>325.0</ele><time>2026-04-19T13:36:05Z</time></trkpt><trkpt lat="36.98135127171773" lon="15.141399739397965"><ele>324.8</ele><time>2026-04-19T13:36:06Z</time></trkpt><trkpt lat="36.98137015701251" lon="15.141268365130362"><ele>324.6</ele><time>2026-04-19T13:36:07Z</time></trkpt><trkpt lat="36.981388542197394" lon="15.14114047034869"><ele>324.4</ele><time>2026-04-19T13:36:08Z</time></trkpt><trkpt lat="36.9813903721468" lon="15.141011660165999"><ele>324.2</ele><time>2026-04-19T13:36:09Z</time></trkpt><trkpt lat="36.98142370251924" lon="15.140888985545676"><ele>324.0</ele><time>2026-04-19T13:36:10Z</time></trkpt><trkpt lat="36.981441344867434" lon="15.14076309767698"><ele>324.0</ele><time>2026-04-19T13:36:11Z</time></trkpt><trkpt lat="36.98145912657962" lon="15.1406362153993"><ele>324.0</ele><time>2026-04-19T13:36:12Z</time></trkpt><trkpt lat="36.981477483139706" lon="15.14051370538898"><ele>324.0</ele><time>2026-04-19T13:36:13Z</time></trkpt><trkpt lat="36.98149678560841" lon="15.140391056042132"><ele>324.0</ele><time>2026-04-19T13:36:14Z</time></trkpt><trkpt lat="36.981516262146364" lon="15.140270676968802"><ele>324.0</ele><time>2026-04-19T13:36:15Z</time></trkpt><trkpt lat="36.981518645088414" lon="15.140147202858893"><ele>324.0</ele><time>2026-04-19T13:36:16Z</time></trkpt><trkpt lat="36.98153825204776" lon="15.140028018827872"><ele>324.0</ele><time>2026-04-19T13:36:17Z</time></trkpt><trkpt lat="36.98156606874599" lon="15.139913731433445"><ele>324.0</ele><time>2026-04-19T13:36:18Z</time></trkpt><trkpt lat="36.981582587747646" lon="15.139797699733194"><ele>324.0</ele><time>2026-04-19T13:36:19Z</time></trkpt><trkpt lat="36.98159926754518" lon="15.13968384383862"><ele>324.0</ele><time>2026-04-19T13:36:20Z</time></trkpt><trkpt lat="36.981615487103724" lon="15.139567894467795"><ele>323.79999999999995</ele><time>2026-04-19T13:36:21Z</time></trkpt><trkpt lat="36.981617375535556" lon="15.139449567209887"><ele>323.59999999999997</ele><time>2026-04-19T13:36:22Z</time></trkpt><trkpt lat="36.98163570348138" lon="15.13933089595831"><ele>323.4</ele><time>2026-04-19T13:36:23Z</time></trkpt><trkpt lat="36.98165453107536" lon="15.139210284038974"><ele>323.2</ele><time>2026-04-19T13:36:24Z</time></trkpt><trkpt lat="36.98167531569649" lon="15.13908644612813"><ele>323.0</ele><time>2026-04-19T13:36:25Z</time></trkpt><trkpt lat="36.98171999678968" lon="15.138969383179882"><ele>323.4</ele><time>2026-04-19T13:36:26Z</time></trkpt><trkpt lat="36.98175614651186" lon="15.138847098942483"><ele>323.79999999999995</ele><time>2026-04-19T13:36:27Z</time></trkpt><trkpt lat="36.981775695004195" lon="15.138716919410097"><ele>324.2</ele><time>2026-04-19T13:36:28Z</time></trkpt><trkpt lat="36.98181024802497" lon="15.138594164030016"><ele>324.6</ele><time>2026-04-19T13:36:29Z</time></trkpt><trkpt lat="36.98184474490747" lon="15.13847231485821"><ele>325.0</ele><time>2026-04-19T13:36:30Z</time></trkpt><trkpt lat="36.98188094867019" lon="15.138353577992124"><ele>325.0</ele><time>2026-04-19T13:36:31Z</time></trkpt><trkpt lat="36.981928515758945" lon="15.138242023844986"><ele>325.0</ele><time>2026-04-19T13:36:32Z</time></trkpt><trkpt lat="36.98194954660598" lon="15.138120440938856"><ele>325.0</ele><time>2026-04-19T13:36:33Z</time></trkpt><trkpt lat="36.98198699147512" lon="15.138007772472967"><ele>325.0</ele><time>2026-04-19T13:36:34Z</time></trkpt><trkpt lat="36.98202624051514" lon="15.137896920085264"><ele>325.0</ele><time>2026-04-19T13:36:35Z</time></trkpt><trkpt lat="36.982062997844324" lon="15.13778780269133"><ele>324.8333333333333</ele><time>2026-04-19T13:36:36Z</time></trkpt><trkpt lat="36.982104881597536" lon="15.137684265038823"><ele>324.66666666666663</ele><time>2026-04-19T13:36:37Z</time></trkpt><trkpt lat="36.982146003494044" lon="15.13758573889477"><ele>324.5</ele><time>2026-04-19T13:36:38Z</time></trkpt><trkpt lat="36.982186802108636" lon="15.137489024069046"><ele>324.3333333333333</ele><time>2026-04-19T13:36:39Z</time></trkpt><trkpt lat="36.98222815335793" lon="15.13739927005388"><ele>324.1666666666667</ele><time>2026-04-19T13:36:40Z</time></trkpt><trkpt lat="36.982270274034406" lon="15.137314967859965"><ele>324.0</ele><time>2026-04-19T13:36:41Z</time></trkpt><trkpt lat="36.982312543598056" lon="15.13722596967386"><ele>323.8333333333333</ele><time>2026-04-19T13:36:42Z</time></trkpt><trkpt lat="36.98235096919352" lon="15.13713554181354"><ele>323.6666666666667</ele><time>2026-04-19T13:36:43Z</time></trkpt><trkpt lat="36.98238876012013" lon="15.13704790084282"><ele>323.5</ele><time>2026-04-19T13:36:44.001Z</time></trkpt><trkpt lat="36.982429078137464" lon="15.136960364322025"><ele>323.33333333333337</ele><time>2026-04-19T13:36:45.001Z</time></trkpt><trkpt lat="36.982470017516256" lon="15.136873919388911"><ele>323.1666666666667</ele><time>2026-04-19T13:36:46.001Z</time></trkpt><trkpt lat="36.98251021908882" lon="15.13678322202677"><ele>323.0</ele><time>2026-04-19T13:36:47.001Z</time></trkpt><trkpt lat="36.98253705332727" lon="15.136689151589295"><ele>323.6666666666667</ele><time>2026-04-19T13:36:48.001Z</time></trkpt><trkpt lat="36.98255677507815" lon="15.136590464670482"><ele>324.33333333333337</ele><time>2026-04-19T13:36:49.001Z</time></trkpt><trkpt lat="36.98257961542705" lon="15.136491468677272"><ele>325.0</ele><time>2026-04-19T13:36:50.001Z</time></trkpt><trkpt lat="36.982602736997435" lon="15.136393204217137"><ele>325.6666666666667</ele><time>2026-04-19T13:36:51.001Z</time></trkpt><trkpt lat="36.98265086257808" lon="15.136301754385013"><ele>326.3333333333333</ele><time>2026-04-19T13:36:52.001Z</time></trkpt><trkpt lat="36.982684768793696" lon="15.136204356745392"><ele>327.0</ele><time>2026-04-19T13:36:53.001Z</time></trkpt><trkpt lat="36.98270692751754" lon="15.136097075327092"><ele>327.0</ele><time>2026-04-19T13:36:54.001Z</time></trkpt><trkpt lat="36.98274010062548" lon="15.135995409181321"><ele>327.0</ele><time>2026-04-19T13:36:55.001Z</time></trkpt><trkpt lat="36.98276971511744" lon="15.13589283140421"><ele>327.0</ele><time>2026-04-19T13:36:56.001Z</time></trkpt><trkpt lat="36.982822682491864" lon="15.135799539481"><ele>327.0</ele><time>2026-04-19T13:36:57.001Z</time></trkpt><trkpt lat="36.9828717037745" lon="15.135695828244659"><ele>327.0</ele><time>2026-04-19T13:36:58.001Z</time></trkpt><trkpt lat="36.98292630362741" lon="15.135598971799807"><ele>327.20000000000005</ele><time>2026-04-19T13:36:59.001Z</time></trkpt><trkpt lat="36.982986965554126" lon="15.135499230471313"><ele>327.4</ele><time>2026-04-19T13:37:00.001Z</time></trkpt><trkpt lat="36.98304720315126" lon="15.135394885905184"><ele>327.6</ele><time>2026-04-19T13:37:01.001Z</time></trkpt><trkpt lat="36.9830856226065" lon="15.1352796792574"><ele>327.79999999999995</ele><time>2026-04-19T13:37:02.001Z</time></trkpt><trkpt lat="36.98313151635512" lon="15.13517234373709"><ele>328.0</ele><time>2026-04-19T13:37:03.001Z</time></trkpt><trkpt lat="36.98317699042511" lon="15.13506544615921"><ele>328.0</ele><time>2026-04-19T13:37:04.001Z</time></trkpt><trkpt lat="36.983233227110915" lon="15.134967220364807"><ele>328.0</ele><time>2026-04-19T13:37:05.001Z</time></trkpt><trkpt lat="36.983262725518856" lon="15.13485443042254"><ele>328.0</ele><time>2026-04-19T13:37:06.001Z</time></trkpt><trkpt lat="36.98330410895703" lon="15.13475631431238"><ele>328.0</ele><time>2026-04-19T13:37:07.001Z</time></trkpt><trkpt lat="36.98333933690628" lon="15.134659963725898"><ele>328.0</ele><time>2026-04-19T13:37:08.001Z</time></trkpt><trkpt lat="36.983365498128904" lon="15.134563006320548"><ele>328.0</ele><time>2026-04-19T13:37:09.001Z</time></trkpt><trkpt lat="36.983384631762696" lon="15.134467324179175"><ele>328.5</ele><time>2026-04-19T13:37:10.001Z</time></trkpt><trkpt lat="36.98339044365134" lon="15.134373354373063"><ele>329.0</ele><time>2026-04-19T13:37:11.001Z</time></trkpt><trkpt lat="36.983396601905255" lon="15.134274377771566"><ele>329.5</ele><time>2026-04-19T13:37:12.001Z</time></trkpt><trkpt lat="36.98337845133368" lon="15.134175457538147"><ele>330.0</ele><time>2026-04-19T13:37:13.001Z</time></trkpt><trkpt lat="36.98333894694799" lon="15.134085132554274"><ele>330.5</ele><time>2026-04-19T13:37:14.001Z</time></trkpt><trkpt lat="36.98331104337724" lon="15.133989701186737"><ele>331.0</ele><time>2026-04-19T13:37:15.001Z</time></trkpt><trkpt lat="36.983297732876935" lon="15.133885169976288"><ele>331.66666666666663</ele><time>2026-04-19T13:37:16.001Z</time></trkpt><trkpt lat="36.9832589162112" lon="15.133802351133397"><ele>332.3333333333333</ele><time>2026-04-19T13:37:17.001Z</time></trkpt><trkpt lat="36.98324235431232" lon="15.133678382419758"><ele>333.0</ele><time>2026-04-19T13:37:19.001Z</time></trkpt><trkpt lat="36.98321159314116" lon="15.133601431193474"><ele>333.6666666666667</ele><time>2026-04-19T13:37:23.001Z</time></trkpt><trkpt lat="36.983201127154054" lon="15.133522557874517"><ele>334.33333333333337</ele><time>2026-04-19T13:37:25.001Z</time></trkpt><trkpt lat="36.983099681405754" lon="15.133450447004671"><ele>335.0</ele><time>2026-04-19T13:37:27.001Z</time></trkpt><trkpt lat="36.98300912453595" lon="15.133380901741953"><ele>335.0</ele><time>2026-04-19T13:37:29Z</time></trkpt><trkpt lat="36.98292948213878" lon="15.13332845805361"><ele>335.0</ele><time>2026-04-19T13:37:31Z</time></trkpt><trkpt lat="36.98287379265116" lon="15.13325879216935"><ele>335.0</ele><time>2026-04-19T13:37:33Z</time></trkpt><trkpt lat="36.982864097125805" lon="15.133140307089786"><ele>335.0</ele><time>2026-04-19T13:37:35Z</time></trkpt><trkpt lat="36.9828454723375" lon="15.13298542411065"><ele>335.0</ele><time>2026-04-19T13:37:37Z</time></trkpt><trkpt lat="36.982848197038" lon="15.13289891850405"><ele>336.1666666666667</ele><time>2026-04-19T13:37:38Z</time></trkpt><trkpt lat="36.9828314019269" lon="15.132768631165524"><ele>337.33333333333337</ele><time>2026-04-19T13:37:40Z</time></trkpt><trkpt lat="36.98281372401344" lon="15.132616763141396"><ele>338.5</ele><time>2026-04-19T13:37:42Z</time></trkpt><trkpt lat="36.98278874071558" lon="15.132534849721415"><ele>339.6666666666667</ele><time>2026-04-19T13:37:43Z</time></trkpt><trkpt lat="36.98278117904617" lon="15.132446639813047"><ele>340.8333333333333</ele><time>2026-04-19T13:37:44Z</time></trkpt><trkpt lat="36.98276953197886" lon="15.132363083174315"><ele>342.0</ele><time>2026-04-19T13:37:45Z</time></trkpt><trkpt lat="36.98275471329846" lon="15.132277828783232"><ele>342.85714285714283</ele><time>2026-04-19T13:37:46Z</time></trkpt><trkpt lat="36.98273962104411" lon="15.132194445547714"><ele>343.7142857142857</ele><time>2026-04-19T13:37:47Z</time></trkpt><trkpt lat="36.98272713574437" lon="15.13210971995345"><ele>344.57142857142856</ele><time>2026-04-19T13:37:48Z</time></trkpt><trkpt lat="36.982715074215356" lon="15.132024772217704"><ele>345.42857142857144</ele><time>2026-04-19T13:37:49Z</time></trkpt><trkpt lat="36.98272990971402" lon="15.131942837446282"><ele>346.2857142857143</ele><time>2026-04-19T13:37:50Z</time></trkpt><trkpt lat="36.98273195277644" lon="15.131859466302691"><ele>347.1428571428571</ele><time>2026-04-19T13:37:51Z</time></trkpt><trkpt lat="36.98272399484481" lon="15.13177868728631"><ele>348.0</ele><time>2026-04-19T13:37:52Z</time></trkpt><trkpt lat="36.982731457608516" lon="15.131699128005925"><ele>348.0</ele><time>2026-04-19T13:37:53Z</time></trkpt><trkpt lat="36.982731623814196" lon="15.13161690108399"><ele>348.0</ele><time>2026-04-19T13:37:54Z</time></trkpt><trkpt lat="36.98272739335431" lon="15.131533652090619"><ele>348.0</ele><time>2026-04-19T13:37:55Z</time></trkpt><trkpt lat="36.98271768556483" lon="15.131448403164406"><ele>348.0</ele><time>2026-04-19T13:37:56Z</time></trkpt><trkpt lat="36.98271475320424" lon="15.13135949106472"><ele>348.0</ele><time>2026-04-19T13:37:57Z</time></trkpt><trkpt lat="36.98267321031808" lon="15.131284972853331"><ele>348.0</ele><time>2026-04-19T13:37:58Z</time></trkpt><trkpt lat="36.9826440465965" lon="15.131201759233395"><ele>348.0</ele><time>2026-04-19T13:37:59Z</time></trkpt><trkpt lat="36.98261259760973" lon="15.131122671425967"><ele>348.42857142857144</ele><time>2026-04-19T13:38:00Z</time></trkpt><trkpt lat="36.982569134154936" lon="15.13105285992698"><ele>348.8571428571429</ele><time>2026-04-19T13:38:01Z</time></trkpt><trkpt lat="36.982526639676976" lon="15.130980711912246"><ele>349.28571428571433</ele><time>2026-04-19T13:38:02Z</time></trkpt><trkpt lat="36.98249856271229" lon="15.130896520084683"><ele>349.7142857142857</ele><time>2026-04-19T13:38:03Z</time></trkpt><trkpt lat="36.9824578716661" lon="15.130825001639021"><ele>350.14285714285717</ele><time>2026-04-19T13:38:04Z</time></trkpt><trkpt lat="36.982426137570094" lon="15.130749045038181"><ele>350.5714285714286</ele><time>2026-04-19T13:38:05Z</time></trkpt><trkpt lat="36.98239788484385" lon="15.13067072217489"><ele>351.0</ele><time>2026-04-19T13:38:06Z</time></trkpt><trkpt lat="36.98235951354423" lon="15.130591881969202"><ele>351.28571428571433</ele><time>2026-04-19T13:38:07Z</time></trkpt><trkpt lat="36.98234935010025" lon="15.13049869000112"><ele>351.57142857142856</ele><time>2026-04-19T13:38:08Z</time></trkpt><trkpt lat="36.982325698139476" lon="15.130412211594379"><ele>351.8571428571429</ele><time>2026-04-19T13:38:09Z</time></trkpt><trkpt lat="36.9822839716428" lon="15.13033451427535"><ele>352.14285714285717</ele><time>2026-04-19T13:38:10Z</time></trkpt><trkpt lat="36.982259655754724" lon="15.130249241857582"><ele>352.42857142857144</ele><time>2026-04-19T13:38:11Z</time></trkpt><trkpt lat="36.98223245815111" lon="15.13016643570761"><ele>352.7142857142857</ele><time>2026-04-19T13:38:12Z</time></trkpt><trkpt lat="36.98220437910769" lon="15.130084910380969"><ele>353.0</ele><time>2026-04-19T13:38:13Z</time></trkpt><trkpt lat="36.98217222094574" lon="15.130002027606277"><ele>353.0</ele><time>2026-04-19T13:38:14Z</time></trkpt><trkpt lat="36.982136909157255" lon="15.12991922615706"><ele>353.0</ele><time>2026-04-19T13:38:15Z</time></trkpt><trkpt lat="36.98210403188562" lon="15.129837270949999"><ele>353.0</ele><time>2026-04-19T13:38:16Z</time></trkpt><trkpt lat="36.98207532588379" lon="15.129754187062556"><ele>353.0</ele><time>2026-04-19T13:38:17Z</time></trkpt><trkpt lat="36.9820466150526" lon="15.129680421478863"><ele>353.0</ele><time>2026-04-19T13:38:18Z</time></trkpt><trkpt lat="36.982009347760574" lon="15.129534851273553"><ele>353.0</ele><time>2026-04-19T13:38:20Z</time></trkpt><trkpt lat="36.981959215027175" lon="15.12939511225777"><ele>353.6666666666667</ele><time>2026-04-19T13:38:22Z</time></trkpt><trkpt lat="36.981906167402315" lon="15.129247248344075"><ele>354.33333333333337</ele><time>2026-04-19T13:38:24.001Z</time></trkpt><trkpt lat="36.98187735057908" lon="15.129166924895783"><ele>355.0</ele><time>2026-04-19T13:38:25.001Z</time></trkpt><trkpt lat="36.981847223590655" lon="15.129082949412194"><ele>355.6666666666667</ele><time>2026-04-19T13:38:26.001Z</time></trkpt><trkpt lat="36.981806741035285" lon="15.12901310625377"><ele>356.3333333333333</ele><time>2026-04-19T13:38:27.001Z</time></trkpt><trkpt lat="36.981785107057355" lon="15.128932639496742"><ele>357.0</ele><time>2026-04-19T13:38:28.001Z</time></trkpt><trkpt lat="36.981739554703" lon="15.128866388744589"><ele>357.6666666666667</ele><time>2026-04-19T13:38:29.001Z</time></trkpt><trkpt lat="36.98171045525948" lon="15.12879207028548"><ele>358.3333333333333</ele><time>2026-04-19T13:38:30.001Z</time></trkpt><trkpt lat="36.98165196762318" lon="15.128745158700497"><ele>359.0</ele><time>2026-04-19T13:38:31.001Z</time></trkpt><trkpt lat="36.981557407132975" lon="15.12863860292017"><ele>359.66666666666663</ele><time>2026-04-19T13:38:33.001Z</time></trkpt><trkpt lat="36.981505938201884" lon="15.128589928325079"><ele>360.3333333333333</ele><time>2026-04-19T13:38:34.001Z</time></trkpt><trkpt lat="36.981450332737865" lon="15.1285467141834"><ele>361.0</ele><time>2026-04-19T13:38:35.001Z</time></trkpt><trkpt lat="36.98139987591943" lon="15.128491107822365"><ele>361.8333333333333</ele><time>2026-04-19T13:38:36.001Z</time></trkpt><trkpt lat="36.981340922650716" lon="15.128453150211246"><ele>362.66666666666663</ele><time>2026-04-19T13:38:37.001Z</time></trkpt><trkpt lat="36.981274815220395" lon="15.128415820483262"><ele>363.5</ele><time>2026-04-19T13:38:38.001Z</time></trkpt><trkpt lat="36.9811556916979" lon="15.128349144855436"><ele>364.3333333333333</ele><time>2026-04-19T13:38:40.001Z</time></trkpt><trkpt lat="36.98108996085476" lon="15.128331068859406"><ele>365.1666666666667</ele><time>2026-04-19T13:38:41.001Z</time></trkpt><trkpt lat="36.981034268059865" lon="15.128283058410414"><ele>366.0</ele><time>2026-04-19T13:38:42.001Z</time></trkpt><trkpt lat="36.98097247090898" lon="15.128246443240583"><ele>366.57142857142856</ele><time>2026-04-19T13:38:43.001Z</time></trkpt><trkpt lat="36.98092223954949" lon="15.128184670160259"><ele>367.14285714285717</ele><time>2026-04-19T13:38:44.001Z</time></trkpt><trkpt lat="36.98086293197282" lon="15.128134937986214"><ele>367.71428571428567</ele><time>2026-04-19T13:38:45.001Z</time></trkpt><trkpt lat="36.980805169136794" lon="15.128082014402262"><ele>368.2857142857143</ele><time>2026-04-19T13:38:46.001Z</time></trkpt><trkpt lat="36.980748680115354" lon="15.128021311264206"><ele>368.85714285714283</ele><time>2026-04-19T13:38:47.001Z</time></trkpt><trkpt lat="36.980682037526876" lon="15.127966011759604"><ele>369.4285714285714</ele><time>2026-04-19T13:38:48.001Z</time></trkpt><trkpt lat="36.98063163363202" lon="15.127888498617894"><ele>370.0</ele><time>2026-04-19T13:38:49.001Z</time></trkpt><trkpt lat="36.98057945063654" lon="15.12781452521395"><ele>370.5</ele><time>2026-04-19T13:38:50.001Z</time></trkpt><trkpt lat="36.980528967125935" lon="15.127736131213636"><ele>371.0</ele><time>2026-04-19T13:38:51.001Z</time></trkpt><trkpt lat="36.98046929185137" lon="15.127671329328756"><ele>371.5</ele><time>2026-04-19T13:38:52.001Z</time></trkpt><trkpt lat="36.98041050033624" lon="15.127606497669142"><ele>372.0</ele><time>2026-04-19T13:38:53.001Z</time></trkpt><trkpt lat="36.98035714656003" lon="15.127547661935331"><ele>372.5</ele><time>2026-04-19T13:38:54.001Z</time></trkpt><trkpt lat="36.980275557247246" lon="15.127455637130382"><ele>373.0</ele><time>2026-04-19T13:38:56.001Z</time></trkpt><trkpt lat="36.980284991798825" lon="15.127292490767852"><ele>373.3333333333333</ele><time>2026-04-19T13:38:58.001Z</time></trkpt><trkpt lat="36.98030848081907" lon="15.127207428541777"><ele>373.66666666666663</ele><time>2026-04-19T13:38:59.001Z</time></trkpt><trkpt lat="36.98032162190916" lon="15.127126371787753"><ele>374.0</ele><time>2026-04-19T13:39:00.001Z</time></trkpt><trkpt lat="36.9803450491189" lon="15.126989125641765"><ele>374.3333333333333</ele><time>2026-04-19T13:39:02.001Z</time></trkpt><trkpt lat="36.98037011903119" lon="15.12686969612611"><ele>374.6666666666667</ele><time>2026-04-19T13:39:04.001Z</time></trkpt><trkpt lat="36.98040679746305" lon="15.126756056141042"><ele>375.0</ele><time>2026-04-19T13:39:06.001Z</time></trkpt><trkpt lat="36.980443012574824" lon="15.126628078072683"><ele>375.0</ele><time>2026-04-19T13:39:08.001Z</time></trkpt><trkpt lat="36.98050058436157" lon="15.126505284937302"><ele>375.0</ele><time>2026-04-19T13:39:10.001Z</time></trkpt><trkpt lat="36.98053391851822" lon="15.12643637578936"><ele>375.0</ele><time>2026-04-19T13:39:11.001Z</time></trkpt><trkpt lat="36.98054649478956" lon="15.126356216996564"><ele>375.0</ele><time>2026-04-19T13:39:12.001Z</time></trkpt><trkpt lat="36.980570458209485" lon="15.126283306152043"><ele>375.0</ele><time>2026-04-19T13:39:13.001Z</time></trkpt><trkpt lat="36.9806098173294" lon="15.12621999689409"><ele>375.0</ele><time>2026-04-19T13:39:14.001Z</time></trkpt><trkpt lat="36.980650452114766" lon="15.126100688989686"><ele>375.0</ele><time>2026-04-19T13:39:16.001Z</time></trkpt><trkpt lat="36.98067916876511" lon="15.126020108849712"><ele>375.0</ele><time>2026-04-19T13:39:18.001Z</time></trkpt><trkpt lat="36.98068900591672" lon="15.125937899865697"><ele>375.0</ele><time>2026-04-19T13:39:20.001Z</time></trkpt><trkpt lat="36.980711760760904" lon="15.125831256291663"><ele>375.0</ele><time>2026-04-19T13:39:23.001Z</time></trkpt><trkpt lat="36.98073234197056" lon="15.12575676340745"><ele>375.0</ele><time>2026-04-19T13:39:25.001Z</time></trkpt><trkpt lat="36.98074565686575" lon="15.125675802048706"><ele>375.0</ele><time>2026-04-19T13:39:27.001Z</time></trkpt><trkpt lat="36.980759085166795" lon="15.125594149241849"><ele>375.0</ele><time>2026-04-19T13:39:29.001Z</time></trkpt><trkpt lat="36.98077263726149" lon="15.125511742495942"><ele>374.8333333333333</ele><time>2026-04-19T13:39:31.001Z</time></trkpt><trkpt lat="36.98076013827022" lon="15.12541252063515"><ele>374.6666666666667</ele><time>2026-04-19T13:39:33.001Z</time></trkpt><trkpt lat="36.980775604167455" lon="15.125310426683493"><ele>374.5</ele><time>2026-04-19T13:39:35Z</time></trkpt><trkpt lat="36.98079870531231" lon="15.125215211045088"><ele>374.33333333333337</ele><time>2026-04-19T13:39:37Z</time></trkpt><trkpt lat="36.98082288525298" lon="15.125126985235159"><ele>374.1666666666667</ele><time>2026-04-19T13:41:03.001Z</time></trkpt><trkpt lat="36.98083632039539" lon="15.12502529910372"><ele>374.0</ele><time>2026-04-19T13:41:05.001Z</time></trkpt><trkpt lat="36.980908078812625" lon="15.124903520645786"><ele>373.6666666666667</ele><time>2026-04-19T13:41:07.001Z</time></trkpt><trkpt lat="36.98099843391696" lon="15.124813451998879"><ele>373.33333333333337</ele><time>2026-04-19T13:41:09.001Z</time></trkpt><trkpt lat="36.981066309417116" lon="15.124695005080005"><ele>373.0</ele><time>2026-04-19T13:41:11.001Z</time></trkpt><trkpt lat="36.98111128142308" lon="15.124637870171911"><ele>372.6666666666667</ele><time>2026-04-19T13:41:12.001Z</time></trkpt><trkpt lat="36.98115594415801" lon="15.12456876429507"><ele>372.3333333333333</ele><time>2026-04-19T13:41:13.001Z</time></trkpt><trkpt lat="36.98120308235381" lon="15.124491088262321"><ele>372.0</ele><time>2026-04-19T13:41:14.001Z</time></trkpt><trkpt lat="36.98125282791571" lon="15.124409849131984"><ele>372.0</ele><time>2026-04-19T13:41:15.001Z</time></trkpt><trkpt lat="36.981304213194925" lon="15.124323946185529"><ele>372.0</ele><time>2026-04-19T13:41:16.001Z</time></trkpt><trkpt lat="36.981355917362905" lon="15.124235061939306"><ele>372.0</ele><time>2026-04-19T13:41:17.001Z</time></trkpt><trkpt lat="36.981403537654195" lon="15.12414255349574"><ele>372.0</ele><time>2026-04-19T13:41:18.001Z</time></trkpt><trkpt lat="36.981453141695056" lon="15.124048386267056"><ele>372.0</ele><time>2026-04-19T13:41:19.001Z</time></trkpt><trkpt lat="36.981505296748814" lon="15.123957448995693"><ele>372.0</ele><time>2026-04-19T13:41:20.001Z</time></trkpt><trkpt lat="36.98155647678113" lon="15.123869138926725"><ele>372.20000000000005</ele><time>2026-04-19T13:41:21.001Z</time></trkpt><trkpt lat="36.98160262489564" lon="15.123776912883175"><ele>372.4</ele><time>2026-04-19T13:41:22.001Z</time></trkpt><trkpt lat="36.981645965723885" lon="15.123674773973898"><ele>372.6</ele><time>2026-04-19T13:41:23.001Z</time></trkpt><trkpt lat="36.981684599311656" lon="15.123565709929977"><ele>372.79999999999995</ele><time>2026-04-19T13:41:24.001Z</time></trkpt><trkpt lat="36.98171522204018" lon="15.123457469763975"><ele>373.0</ele><time>2026-04-19T13:41:25.001Z</time></trkpt><trkpt lat="36.98176433476015" lon="15.12335710116705"><ele>373.0</ele><time>2026-04-19T13:41:26.001Z</time></trkpt><trkpt lat="36.9817998222966" lon="15.123249793027979"><ele>373.0</ele><time>2026-04-19T13:41:27.001Z</time></trkpt><trkpt lat="36.98182542796838" lon="15.123135256350412"><ele>373.0</ele><time>2026-04-19T13:41:28.001Z</time></trkpt><trkpt lat="36.981868888956356" lon="15.12302169554164"><ele>373.0</ele><time>2026-04-19T13:41:29.001Z</time></trkpt><trkpt lat="36.98191098997111" lon="15.122902533746288"><ele>373.0</ele><time>2026-04-19T13:41:30.001Z</time></trkpt><trkpt lat="36.98195800118221" lon="15.1227821179471"><ele>373.0</ele><time>2026-04-19T13:41:31.001Z</time></trkpt><trkpt lat="36.98200769604715" lon="15.122661945884547"><ele>373.0</ele><time>2026-04-19T13:41:32.001Z</time></trkpt><trkpt lat="36.98206046731345" lon="15.122544241045158"><ele>373.0</ele><time>2026-04-19T13:41:33.001Z</time></trkpt><trkpt lat="36.98211263667768" lon="15.122428163691543"><ele>373.0</ele><time>2026-04-19T13:41:34.001Z</time></trkpt><trkpt lat="36.982161961306566" lon="15.12231261353511"><ele>373.0</ele><time>2026-04-19T13:41:35.001Z</time></trkpt><trkpt lat="36.98220530336967" lon="15.122191597457"><ele>372.4</ele><time>2026-04-19T13:41:36.001Z</time></trkpt><trkpt lat="36.982239762674084" lon="15.122066542352274"><ele>371.79999999999995</ele><time>2026-04-19T13:41:37.001Z</time></trkpt><trkpt lat="36.982262770952524" lon="15.12193352922111"><ele>371.2</ele><time>2026-04-19T13:41:38.001Z</time></trkpt><trkpt lat="36.98228653551517" lon="15.121799964081532"><ele>370.6</ele><time>2026-04-19T13:41:39.001Z</time></trkpt><trkpt lat="36.98231244295088" lon="15.12166160989587"><ele>370.0</ele><time>2026-04-19T13:41:40Z</time></trkpt><trkpt lat="36.98234296642697" lon="15.121521346064194"><ele>369.0</ele><time>2026-04-19T13:41:41Z</time></trkpt><trkpt lat="36.982380155083575" lon="15.121380866770458"><ele>368.0</ele><time>2026-04-19T13:41:42Z</time></trkpt><trkpt lat="36.982422552130814" lon="15.121244798681982"><ele>367.0</ele><time>2026-04-19T13:41:43Z</time></trkpt><trkpt lat="36.98246815199108" lon="15.121116133585257"><ele>366.0</ele><time>2026-04-19T13:41:44Z</time></trkpt><trkpt lat="36.98251319730252" lon="15.120984806434015"><ele>363.0</ele><time>2026-04-19T13:41:45Z</time></trkpt><trkpt lat="36.98255269384284" lon="15.120851125535069"><ele>360.0</ele><time>2026-04-19T13:41:46Z</time></trkpt><trkpt lat="36.98257927870263" lon="15.120714999184246"><ele>357.0</ele><time>2026-04-19T13:41:47Z</time></trkpt><trkpt lat="36.98259944052792" lon="15.120576111342993"><ele>354.0</ele><time>2026-04-19T13:41:48Z</time></trkpt><trkpt lat="36.98261562473825" lon="15.120431053079402"><ele>354.0</ele><time>2026-04-19T13:41:49Z</time></trkpt><trkpt lat="36.982630188763004" lon="15.12028668520294"><ele>354.0</ele><time>2026-04-19T13:41:50Z</time></trkpt><trkpt lat="36.982646805871966" lon="15.120140089567917"><ele>354.0</ele><time>2026-04-19T13:41:51Z</time></trkpt><trkpt lat="36.982668834835934" lon="15.119993348445323"><ele>354.0</ele><time>2026-04-19T13:41:52Z</time></trkpt><trkpt lat="36.98269228405365" lon="15.119852249873409"><ele>352.6</ele><time>2026-04-19T13:41:53Z</time></trkpt><trkpt lat="36.98270940640653" lon="15.119709596772095"><ele>351.2</ele><time>2026-04-19T13:41:54Z</time></trkpt><trkpt lat="36.98271310011589" lon="15.119579077420168"><ele>349.8</ele><time>2026-04-19T13:41:55Z</time></trkpt><trkpt lat="36.98269715836514" lon="15.11945476606162"><ele>348.40000000000003</ele><time>2026-04-19T13:41:56Z</time></trkpt><trkpt lat="36.98266957996588" lon="15.11933475429652"><ele>347.0</ele><time>2026-04-19T13:41:57Z</time></trkpt><trkpt lat="36.982656622614584" lon="15.119214224463066"><ele>347.0</ele><time>2026-04-19T13:41:58Z</time></trkpt><trkpt lat="36.982627093918495" lon="15.119094961331585"><ele>347.0</ele><time>2026-04-19T13:41:59Z</time></trkpt><trkpt lat="36.98259590414064" lon="15.118979792852631"><ele>347.0</ele><time>2026-04-19T13:42:00Z</time></trkpt><trkpt lat="36.98256365878701" lon="15.118877076623317"><ele>347.0</ele><time>2026-04-19T13:42:01Z</time></trkpt><trkpt lat="36.982510322199275" lon="15.11879235994521"><ele>347.0</ele><time>2026-04-19T13:42:02Z</time></trkpt><trkpt lat="36.982481024017275" lon="15.118705013530965"><ele>347.0</ele><time>2026-04-19T13:42:03Z</time></trkpt><trkpt lat="36.98242491178372" lon="15.118626599174712"><ele>349.6666666666667</ele><time>2026-04-19T13:42:04Z</time></trkpt><trkpt lat="36.98235337447507" lon="15.118554216833473"><ele>352.33333333333337</ele><time>2026-04-19T13:42:05Z</time></trkpt><trkpt lat="36.98226471774069" lon="15.118514614983997"><ele>355.0</ele><time>2026-04-19T13:42:06Z</time></trkpt><trkpt lat="36.98218673211093" lon="15.11846035379184"><ele>357.6666666666667</ele><time>2026-04-19T13:42:07Z</time></trkpt><trkpt lat="36.982114226880654" lon="15.118413983774524"><ele>360.3333333333333</ele><time>2026-04-19T13:42:08Z</time></trkpt><trkpt lat="36.98204510029436" lon="15.118363845133025"><ele>363.0</ele><time>2026-04-19T13:42:09Z</time></trkpt><trkpt lat="36.98198373546188" lon="15.118307352753451"><ele>363.0</ele><time>2026-04-19T13:42:10Z</time></trkpt><trkpt lat="36.98193844327074" lon="15.118235206452525"><ele>363.0</ele><time>2026-04-19T13:42:11Z</time></trkpt><trkpt lat="36.98192661444893" lon="15.11813618790966"><ele>363.0</ele><time>2026-04-19T13:42:12Z</time></trkpt><trkpt lat="36.98187986899612" lon="15.118025255837932"><ele>363.0</ele><time>2026-04-19T13:42:13Z</time></trkpt><trkpt lat="36.981854644181965" lon="15.117894752494308"><ele>363.0</ele><time>2026-04-19T13:42:14Z</time></trkpt><trkpt lat="36.981831529912085" lon="15.11776263533816"><ele>363.59999999999997</ele><time>2026-04-19T13:42:15Z</time></trkpt><trkpt lat="36.9818057435164" lon="15.117639021198773"><ele>364.2</ele><time>2026-04-19T13:42:16Z</time></trkpt><trkpt lat="36.98179838556944" lon="15.117513745862727"><ele>364.8</ele><time>2026-04-19T13:42:17Z</time></trkpt><trkpt lat="36.98177555211038" lon="15.117389845890823"><ele>365.4</ele><time>2026-04-19T13:42:18Z</time></trkpt><trkpt lat="36.981752121566906" lon="15.117262706285388"><ele>366.0</ele><time>2026-04-19T13:42:19Z</time></trkpt><trkpt lat="36.98172804845108" lon="15.117128247487543"><ele>367.0</ele><time>2026-04-19T13:42:20Z</time></trkpt><trkpt lat="36.981704984850616" lon="15.116995674175495"><ele>368.0</ele><time>2026-04-19T13:42:21Z</time></trkpt><trkpt lat="36.981681920705675" lon="15.116863097537731"><ele>369.0</ele><time>2026-04-19T13:42:22Z</time></trkpt><trkpt lat="36.98165346168298" lon="15.116731324514197"><ele>370.0</ele><time>2026-04-19T13:42:23Z</time></trkpt><trkpt lat="36.98163599972911" lon="15.116598725694809"><ele>371.0</ele><time>2026-04-19T13:42:24Z</time></trkpt><trkpt lat="36.981617110405196" lon="15.116469537433312"><ele>372.20000000000005</ele><time>2026-04-19T13:42:25Z</time></trkpt><trkpt lat="36.98158982475852" lon="15.116343827697811"><ele>373.40000000000003</ele><time>2026-04-19T13:42:26Z</time></trkpt><trkpt lat="36.98156287737372" lon="15.116214111700586"><ele>374.6</ele><time>2026-04-19T13:42:27Z</time></trkpt><trkpt lat="36.981540172734086" lon="15.116075263675015"><ele>375.8</ele><time>2026-04-19T13:42:28Z</time></trkpt><trkpt lat="36.98152104246182" lon="15.115933216654428"><ele>377.0</ele><time>2026-04-19T13:42:29Z</time></trkpt><trkpt lat="36.98150671152833" lon="15.115804820845433"><ele>377.5</ele><time>2026-04-19T13:42:30Z</time></trkpt><trkpt lat="36.98149371830083" lon="15.115691943827816"><ele>378.0</ele><time>2026-04-19T13:42:31Z</time></trkpt><trkpt lat="36.98148653079603" lon="15.115584574090962"><ele>378.5</ele><time>2026-04-19T13:42:32Z</time></trkpt><trkpt lat="36.98148988913122" lon="15.115484808801819"><ele>379.0</ele><time>2026-04-19T13:42:33Z</time></trkpt><trkpt lat="36.98152619379948" lon="15.115395044511075"><ele>379.5</ele><time>2026-04-19T13:42:34Z</time></trkpt><trkpt lat="36.98154202571019" lon="15.115282920971216"><ele>380.0</ele><time>2026-04-19T13:42:35Z</time></trkpt><trkpt lat="36.98158152045089" lon="15.115167225390797"><ele>380.0</ele><time>2026-04-19T13:42:36Z</time></trkpt><trkpt lat="36.98161489087813" lon="15.115053277033393"><ele>380.0</ele><time>2026-04-19T13:42:37.001Z</time></trkpt><trkpt lat="36.981637875086996" lon="15.11497126602557"><ele>380.0</ele><time>2026-04-19T13:42:38.001Z</time></trkpt><trkpt lat="36.981680747366816" lon="15.114842031576003"><ele>380.0</ele><time>2026-04-19T13:42:40.001Z</time></trkpt><trkpt lat="36.981703838689576" lon="15.11475869469208"><ele>380.0</ele><time>2026-04-19T13:42:41.001Z</time></trkpt><trkpt lat="36.98172881782309" lon="15.114666656963712"><ele>380.0</ele><time>2026-04-19T13:42:42.001Z</time></trkpt><trkpt lat="36.98175733163735" lon="15.114567404346385"><ele>380.4</ele><time>2026-04-19T13:42:43.001Z</time></trkpt><trkpt lat="36.98178741434044" lon="15.114462882981407"><ele>380.8</ele><time>2026-04-19T13:42:44.001Z</time></trkpt><trkpt lat="36.98181161960778" lon="15.11435325999219"><ele>381.20000000000005</ele><time>2026-04-19T13:42:45.001Z</time></trkpt><trkpt lat="36.98182142167252" lon="15.114235635672202"><ele>381.6</ele><time>2026-04-19T13:42:46.001Z</time></trkpt><trkpt lat="36.98183052622644" lon="15.114117414002862"><ele>382.0</ele><time>2026-04-19T13:42:47.001Z</time></trkpt><trkpt lat="36.981837651097095" lon="15.114002311964546"><ele>382.8</ele><time>2026-04-19T13:42:48.001Z</time></trkpt><trkpt lat="36.98183264612024" lon="15.11388732972768"><ele>383.6</ele><time>2026-04-19T13:42:49.001Z</time></trkpt><trkpt lat="36.981805461334645" lon="15.1137750909879"><ele>384.40000000000003</ele><time>2026-04-19T13:42:50.001Z</time></trkpt><trkpt lat="36.98177168872956" lon="15.113668025626332"><ele>385.20000000000005</ele><time>2026-04-19T13:42:51.001Z</time></trkpt><trkpt lat="36.981752107963366" lon="15.113548225277608"><ele>386.0</ele><time>2026-04-19T13:42:52.001Z</time></trkpt><trkpt lat="36.98174812908298" lon="15.113411828261007"><ele>386.0</ele><time>2026-04-19T13:42:53.001Z</time></trkpt><trkpt lat="36.981743622802895" lon="15.1132770065783"><ele>386.0</ele><time>2026-04-19T13:42:54.001Z</time></trkpt><trkpt lat="36.981732566561334" lon="15.113156793349571"><ele>386.0</ele><time>2026-04-19T13:42:55.001Z</time></trkpt><trkpt lat="36.98172276200034" lon="15.113047426880206"><ele>386.0</ele><time>2026-04-19T13:42:56.001Z</time></trkpt><trkpt lat="36.9817316306206" lon="15.112925593063936"><ele>386.0</ele><time>2026-04-19T13:42:57.001Z</time></trkpt><trkpt lat="36.98170835262976" lon="15.112793654294213"><ele>386.5</ele><time>2026-04-19T13:42:58.001Z</time></trkpt><trkpt lat="36.98170383426358" lon="15.11264643612992"><ele>387.0</ele><time>2026-04-19T13:42:59.001Z</time></trkpt><trkpt lat="36.98168799860302" lon="15.112503295693399"><ele>387.5</ele><time>2026-04-19T13:43:00.001Z</time></trkpt><trkpt lat="36.98166824090752" lon="15.112364202402413"><ele>388.0</ele><time>2026-04-19T13:43:01.001Z</time></trkpt><trkpt lat="36.98164545528053" lon="15.112235236963839"><ele>388.0</ele><time>2026-04-19T13:43:02.001Z</time></trkpt><trkpt lat="36.981616610339884" lon="15.112123363660213"><ele>388.0</ele><time>2026-04-19T13:43:03.001Z</time></trkpt><trkpt lat="36.98159015053639" lon="15.11201101631599"><ele>388.0</ele><time>2026-04-19T13:43:04.001Z</time></trkpt><trkpt lat="36.98157028018196" lon="15.111905497674453"><ele>388.0</ele><time>2026-04-19T13:43:05.001Z</time></trkpt><trkpt lat="36.981550797758864" lon="15.111797476523309"><ele>388.0</ele><time>2026-04-19T13:43:06.001Z</time></trkpt><trkpt lat="36.98154936137351" lon="15.111687803629673"><ele>388.2</ele><time>2026-04-19T13:43:07.001Z</time></trkpt><trkpt lat="36.98155440756858" lon="15.111572632329542"><ele>388.4</ele><time>2026-04-19T13:43:08.001Z</time></trkpt><trkpt lat="36.981567244403216" lon="15.111455878166492"><ele>388.59999999999997</ele><time>2026-04-19T13:43:09.001Z</time></trkpt><trkpt lat="36.98159890140292" lon="15.11132246071292"><ele>388.79999999999995</ele><time>2026-04-19T13:43:10.001Z</time></trkpt><trkpt lat="36.98164332813433" lon="15.111199811670778"><ele>389.0</ele><time>2026-04-19T13:43:11.001Z</time></trkpt><trkpt lat="36.981688339874076" lon="15.111079468184121"><ele>389.0</ele><time>2026-04-19T13:43:12.001Z</time></trkpt><trkpt lat="36.98170711036479" lon="15.110946640706267"><ele>389.0</ele><time>2026-04-19T13:43:13.001Z</time></trkpt><trkpt lat="36.98171108656916" lon="15.110790340474754"><ele>389.0</ele><time>2026-04-19T13:43:14.001Z</time></trkpt><trkpt lat="36.98171419714402" lon="15.110627583006067"><ele>389.0</ele><time>2026-04-19T13:43:15.001Z</time></trkpt><trkpt lat="36.98172749355247" lon="15.110473161387068"><ele>389.0</ele><time>2026-04-19T13:43:16.001Z</time></trkpt><trkpt lat="36.98173641542339" lon="15.110319765023998"><ele>389.0</ele><time>2026-04-19T13:43:17.001Z</time></trkpt><trkpt lat="36.981729847263395" lon="15.110173969432665"><ele>389.0</ele><time>2026-04-19T13:43:18.001Z</time></trkpt><trkpt lat="36.98171159369376" lon="15.11001956488856"><ele>389.0</ele><time>2026-04-19T13:43:19.001Z</time></trkpt><trkpt lat="36.98168518466876" lon="15.109857025112285"><ele>389.75</ele><time>2026-04-19T13:43:20.001Z</time></trkpt><trkpt lat="36.98166795257073" lon="15.109689195979984"><ele>390.5</ele><time>2026-04-19T13:43:21.001Z</time></trkpt><trkpt lat="36.98168798988518" lon="15.109522105460183"><ele>391.25</ele><time>2026-04-19T13:43:22.001Z</time></trkpt><trkpt lat="36.981676599195005" lon="15.1093482623108"><ele>392.0</ele><time>2026-04-19T13:43:23.001Z</time></trkpt><trkpt lat="36.98168331526022" lon="15.109163454838944"><ele>392.25</ele><time>2026-04-19T13:43:24.001Z</time></trkpt><trkpt lat="36.98168080835754" lon="15.108976794598748"><ele>392.5</ele><time>2026-04-19T13:43:25.001Z</time></trkpt><trkpt lat="36.98167471058202" lon="15.108792716597717"><ele>392.75</ele><time>2026-04-19T13:43:26.001Z</time></trkpt><trkpt lat="36.9816670777295" lon="15.108614963442971"><ele>393.0</ele><time>2026-04-19T13:43:27.001Z</time></trkpt><trkpt lat="36.98165583227913" lon="15.108442716408748"><ele>393.0</ele><time>2026-04-19T13:43:28.001Z</time></trkpt><trkpt lat="36.98163156331827" lon="15.108274645420323"><ele>393.0</ele><time>2026-04-19T13:43:29.001Z</time></trkpt><trkpt lat="36.981602781418175" lon="15.10811196460311"><ele>393.0</ele><time>2026-04-19T13:43:30.001Z</time></trkpt><trkpt lat="36.98161366904145" lon="15.107950565832109"><ele>393.0</ele><time>2026-04-19T13:43:31.001Z</time></trkpt><trkpt lat="36.981636296234335" lon="15.107790809092629"><ele>393.5</ele><time>2026-04-19T13:43:32.001Z</time></trkpt><trkpt lat="36.98163778445118" lon="15.10762095956195"><ele>394.0</ele><time>2026-04-19T13:43:33.001Z</time></trkpt><trkpt lat="36.981615716024706" lon="15.107449154724263"><ele>394.5</ele><time>2026-04-19T13:43:34.001Z</time></trkpt><trkpt lat="36.981600250507604" lon="15.107274341520899"><ele>395.0</ele><time>2026-04-19T13:43:35.001Z</time></trkpt><trkpt lat="36.98161202881984" lon="15.107100419901771"><ele>396.25</ele><time>2026-04-19T13:43:36.001Z</time></trkpt><trkpt lat="36.98162563323579" lon="15.106925368299125"><ele>397.5</ele><time>2026-04-19T13:43:37.001Z</time></trkpt><trkpt lat="36.98163136782039" lon="15.106743706269118"><ele>398.75</ele><time>2026-04-19T13:43:38.001Z</time></trkpt><trkpt lat="36.98165107199984" lon="15.106564646728296"><ele>400.0</ele><time>2026-04-19T13:43:39.001Z</time></trkpt><trkpt lat="36.9816688015095" lon="15.106392374998487"><ele>399.5</ele><time>2026-04-19T13:43:40.001Z</time></trkpt><trkpt lat="36.98169075962337" lon="15.106225995697212"><ele>399.0</ele><time>2026-04-19T13:43:41.001Z</time></trkpt><trkpt lat="36.981704793575574" lon="15.106075051358506"><ele>398.5</ele><time>2026-04-19T13:43:42.001Z</time></trkpt><trkpt lat="36.98171923581099" lon="15.105934707863307"><ele>398.0</ele><time>2026-04-19T13:43:43.001Z</time></trkpt><trkpt lat="36.981721710871454" lon="15.105805657487814"><ele>398.59999999999997</ele><time>2026-04-19T13:43:44.001Z</time></trkpt><trkpt lat="36.981710268476064" lon="15.105686200421674"><ele>399.2</ele><time>2026-04-19T13:43:45.001Z</time></trkpt><trkpt lat="36.98168166919322" lon="15.105564735198683"><ele>399.8</ele><time>2026-04-19T13:43:46Z</time></trkpt><trkpt lat="36.98164585981141" lon="15.105434408515803"><ele>400.4</ele><time>2026-04-19T13:43:47Z</time></trkpt><trkpt lat="36.981611286972765" lon="15.105301093644457"><ele>401.0</ele><time>2026-04-19T13:43:48Z</time></trkpt><trkpt lat="36.98157462159209" lon="15.105162369799295"><ele>401.0</ele><time>2026-04-19T13:43:49Z</time></trkpt><trkpt lat="36.98153388051333" lon="15.105021431062328"><ele>401.0</ele><time>2026-04-19T13:43:50Z</time></trkpt><trkpt lat="36.98149331499656" lon="15.104878463303004"><ele>401.0</ele><time>2026-04-19T13:43:51Z</time></trkpt><trkpt lat="36.98145136865081" lon="15.104735401082287"><ele>401.0</ele><time>2026-04-19T13:43:52Z</time></trkpt><trkpt lat="36.981411291753034" lon="15.10459347622017"><ele>401.20000000000005</ele><time>2026-04-19T13:43:53Z</time></trkpt><trkpt lat="36.98137674197536" lon="15.104462433819366"><ele>401.40000000000003</ele><time>2026-04-19T13:43:54Z</time></trkpt><trkpt lat="36.981346337510764" lon="15.104338016029342"><ele>401.6</ele><time>2026-04-19T13:43:55Z</time></trkpt><trkpt lat="36.981313966534415" lon="15.104221136261463"><ele>401.8</ele><time>2026-04-19T13:43:56Z</time></trkpt><trkpt lat="36.98128033939778" lon="15.10410880697329"><ele>402.0</ele><time>2026-04-19T13:43:57Z</time></trkpt><trkpt lat="36.98125131298123" lon="15.104004763774189"><ele>401.7142857142857</ele><time>2026-04-19T13:43:58Z</time></trkpt><trkpt lat="36.981226088635914" lon="15.103903171060685"><ele>401.42857142857144</ele><time>2026-04-19T13:43:59Z</time></trkpt><trkpt lat="36.98120306789398" lon="15.103813611098298"><ele>401.14285714285717</ele><time>2026-04-19T13:44:00Z</time></trkpt><trkpt lat="36.98117887249461" lon="15.103727764723452"><ele>400.8571428571429</ele><time>2026-04-19T13:44:01Z</time></trkpt><trkpt lat="36.981151130351854" lon="15.103650601798467"><ele>400.57142857142856</ele><time>2026-04-19T13:44:02Z</time></trkpt><trkpt lat="36.98112077655503" lon="15.103573333953785"><ele>400.28571428571433</ele><time>2026-04-19T13:44:03Z</time></trkpt><trkpt lat="36.981092296513914" lon="15.103497347659957"><ele>400.0</ele><time>2026-04-19T13:44:04Z</time></trkpt><trkpt lat="36.98107485034948" lon="15.10341865282658"><ele>400.00000000000006</ele><time>2026-04-19T13:44:05Z</time></trkpt><trkpt lat="36.98105836032569" lon="15.103337556461327"><ele>400.0</ele><time>2026-04-19T13:44:06Z</time></trkpt><trkpt lat="36.981048089395756" lon="15.103252816153404"><ele>400.0</ele><time>2026-04-19T13:44:07Z</time></trkpt><trkpt lat="36.98105169178659" lon="15.103161693900535"><ele>400.0</ele><time>2026-04-19T13:44:08Z</time></trkpt><trkpt lat="36.98105656543195" lon="15.103066829593661"><ele>400.00000000000006</ele><time>2026-04-19T13:44:09Z</time></trkpt><trkpt lat="36.98106921774599" lon="15.102965481823793"><ele>400.0</ele><time>2026-04-19T13:44:10Z</time></trkpt><trkpt lat="36.98108532831343" lon="15.102856424746873"><ele>399.50000000000006</ele><time>2026-04-19T13:44:11Z</time></trkpt><trkpt lat="36.98110064856753" lon="15.102746195114207"><ele>399.0</ele><time>2026-04-19T13:44:12Z</time></trkpt><trkpt lat="36.981113000581985" lon="15.102647386094821"><ele>398.5</ele><time>2026-04-19T13:44:13Z</time></trkpt><trkpt lat="36.9811287381233" lon="15.102554022535157"><ele>398.0</ele><time>2026-04-19T13:44:14Z</time></trkpt><trkpt lat="36.98114865233995" lon="15.102460412878296"><ele>397.50000000000006</ele><time>2026-04-19T13:44:15Z</time></trkpt><trkpt lat="36.981172005076694" lon="15.102363280082907"><ele>397.0</ele><time>2026-04-19T13:44:16Z</time></trkpt><trkpt lat="36.98119205564738" lon="15.102263135243778"><ele>396.20000000000005</ele><time>2026-04-19T13:44:17Z</time></trkpt><trkpt lat="36.98120335182548" lon="15.102151409452361"><ele>395.4</ele><time>2026-04-19T13:44:18Z</time></trkpt><trkpt lat="36.98121197978548" lon="15.102036202397128"><ele>394.6</ele><time>2026-04-19T13:44:19Z</time></trkpt><trkpt lat="36.981216756431984" lon="15.101922312159404"><ele>393.79999999999995</ele><time>2026-04-19T13:44:20Z</time></trkpt><trkpt lat="36.981220057210564" lon="15.101807697091921"><ele>393.0</ele><time>2026-04-19T13:44:21Z</time></trkpt><trkpt lat="36.981225799416684" lon="15.101702102730117"><ele>393.0</ele><time>2026-04-19T13:44:22Z</time></trkpt><trkpt lat="36.9812302522335" lon="15.101609143762932"><ele>393.0</ele><time>2026-04-19T13:44:23Z</time></trkpt><trkpt lat="36.9812341017141" lon="15.101520853488504"><ele>393.0</ele><time>2026-04-19T13:44:24Z</time></trkpt><trkpt lat="36.981242579381416" lon="15.101370081709781"><ele>393.0</ele><time>2026-04-19T13:44:26Z</time></trkpt><trkpt lat="36.9812562211045" lon="15.101230364484769"><ele>393.0</ele><time>2026-04-19T13:44:28Z</time></trkpt><trkpt lat="36.98126580361135" lon="15.101090307197397"><ele>393.2</ele><time>2026-04-19T13:44:30Z</time></trkpt><trkpt lat="36.98127404834569" lon="15.100948993036136"><ele>393.4</ele><time>2026-04-19T13:44:32Z</time></trkpt><trkpt lat="36.981279657844574" lon="15.100818866700013"><ele>393.59999999999997</ele><time>2026-04-19T13:44:34Z</time></trkpt><trkpt lat="36.981292916586504" lon="15.100704412907481"><ele>393.79999999999995</ele><time>2026-04-19T13:44:36Z</time></trkpt><trkpt lat="36.981282235913476" lon="15.100602075009315"><ele>394.0</ele><time>2026-04-19T13:44:38Z</time></trkpt><trkpt lat="36.981252847859025" lon="15.100500257210857"><ele>394.0</ele><time>2026-04-19T13:44:40Z</time></trkpt><trkpt lat="36.98117746866418" lon="15.100434193480762"><ele>394.0</ele><time>2026-04-19T13:44:42Z</time></trkpt><trkpt lat="36.98105972302089" lon="15.100404103499944"><ele>394.0</ele><time>2026-04-19T13:44:44Z</time></trkpt><trkpt lat="36.980996667318244" lon="15.100389499593815"><ele>394.0</ele><time>2026-04-19T13:44:45Z</time></trkpt><trkpt lat="36.980934667540176" lon="15.100374661486498"><ele>394.0</ele><time>2026-04-19T13:44:46Z</time></trkpt><trkpt lat="36.980822389429065" lon="15.100307867490798"><ele>394.6666666666667</ele><time>2026-04-19T13:44:48Z</time></trkpt><trkpt lat="36.980765131311635" lon="15.100196806778609"><ele>395.33333333333337</ele><time>2026-04-19T13:44:50Z</time></trkpt><trkpt lat="36.98080240936651" lon="15.100063695705604"><ele>396.0</ele><time>2026-04-19T13:44:52Z</time></trkpt><trkpt lat="36.980845605927385" lon="15.099994241163"><ele>396.66666666666663</ele><time>2026-04-19T13:44:53Z</time></trkpt><trkpt lat="36.98088291638891" lon="15.099912223218993"><ele>397.3333333333333</ele><time>2026-04-19T13:44:54Z</time></trkpt><trkpt lat="36.98091941703799" lon="15.09981567699125"><ele>398.0</ele><time>2026-04-19T13:44:55Z</time></trkpt><trkpt lat="36.98096182124056" lon="15.099705699355782"><ele>397.99999999999994</ele><time>2026-04-19T13:44:56Z</time></trkpt><trkpt lat="36.98100163127669" lon="15.099604522557415"><ele>398.0</ele><time>2026-04-19T13:44:57Z</time></trkpt><trkpt lat="36.98103945983807" lon="15.099509385203032"><ele>398.0</ele><time>2026-04-19T13:44:58Z</time></trkpt><trkpt lat="36.98106808777705" lon="15.099421647028795"><ele>398.0</ele><time>2026-04-19T13:44:59Z</time></trkpt><trkpt lat="36.981093038258074" lon="15.099338905250853"><ele>397.99999999999994</ele><time>2026-04-19T13:45:00Z</time></trkpt><trkpt lat="36.9811206918529" lon="15.099255656320985"><ele>398.0</ele><time>2026-04-19T13:45:01.001Z</time></trkpt><trkpt lat="36.98114583054899" lon="15.09917310052621"><ele>397.99999999999994</ele><time>2026-04-19T13:45:02.001Z</time></trkpt><trkpt lat="36.981172944829815" lon="15.099091431667462"><ele>398.0</ele><time>2026-04-19T13:45:03.001Z</time></trkpt><trkpt lat="36.98119894018889" lon="15.099007762128991"><ele>398.0</ele><time>2026-04-19T13:45:04.001Z</time></trkpt><trkpt lat="36.98121865130772" lon="15.098921527538314"><ele>398.0</ele><time>2026-04-19T13:45:05.001Z</time></trkpt><trkpt lat="36.98122902972484" lon="15.098833822395992"><ele>398.0</ele><time>2026-04-19T13:45:06.001Z</time></trkpt><trkpt lat="36.98123614448081" lon="15.098748382708182"><ele>397.99999999999994</ele><time>2026-04-19T13:45:07.001Z</time></trkpt><trkpt lat="36.98124573429555" lon="15.09866740519364"><ele>398.0</ele><time>2026-04-19T13:45:08.001Z</time></trkpt><trkpt lat="36.98126407922969" lon="15.098514150897515"><ele>398.71428571428567</ele><time>2026-04-19T13:45:10.001Z</time></trkpt><trkpt lat="36.98127825417557" lon="15.098435350531387"><ele>399.42857142857144</ele><time>2026-04-19T13:45:11.001Z</time></trkpt><trkpt lat="36.98129394302339" lon="15.098355160551789"><ele>400.1428571428571</ele><time>2026-04-19T13:45:12.001Z</time></trkpt><trkpt lat="36.981318377878" lon="15.098279091302265"><ele>400.85714285714283</ele><time>2026-04-19T13:45:13.001Z</time></trkpt><trkpt lat="36.98135399497457" lon="15.098208443071991"><ele>401.57142857142856</ele><time>2026-04-19T13:45:14.001Z</time></trkpt><trkpt lat="36.98138428337387" lon="15.098131848555813"><ele>402.2857142857143</ele><time>2026-04-19T13:45:15.001Z</time></trkpt><trkpt lat="36.98142025917998" lon="15.098053098586197"><ele>403.0</ele><time>2026-04-19T13:45:16.001Z</time></trkpt><trkpt lat="36.98145986667317" lon="15.097979808997003"><ele>403.42857142857144</ele><time>2026-04-19T13:45:17.001Z</time></trkpt><trkpt lat="36.98148999646299" lon="15.097899459878471"><ele>403.85714285714283</ele><time>2026-04-19T13:45:18.001Z</time></trkpt><trkpt lat="36.981515505877184" lon="15.097811682920135"><ele>404.2857142857143</ele><time>2026-04-19T13:45:19.001Z</time></trkpt><trkpt lat="36.98153584052139" lon="15.097728930470124"><ele>404.7142857142857</ele><time>2026-04-19T13:45:20.001Z</time></trkpt><trkpt lat="36.98155768517037" lon="15.097651056459743"><ele>405.1428571428571</ele><time>2026-04-19T13:45:21.001Z</time></trkpt><trkpt lat="36.98157912776" lon="15.097575518400316"><ele>405.57142857142856</ele><time>2026-04-19T13:45:22.001Z</time></trkpt><trkpt lat="36.981601647889555" lon="15.09750148560325"><ele>406.0</ele><time>2026-04-19T13:45:23.001Z</time></trkpt><trkpt lat="36.98162707436885" lon="15.097426944625823"><ele>406.14285714285717</ele><time>2026-04-19T13:45:24.001Z</time></trkpt><trkpt lat="36.981653968075534" lon="15.097351651788864"><ele>406.2857142857143</ele><time>2026-04-19T13:45:25.001Z</time></trkpt><trkpt lat="36.981684723534705" lon="15.097275476156192"><ele>406.42857142857144</ele><time>2026-04-19T13:45:26.001Z</time></trkpt><trkpt lat="36.98171264721801" lon="15.097194811969256"><ele>406.57142857142856</ele><time>2026-04-19T13:45:27.001Z</time></trkpt><trkpt lat="36.98173685057454" lon="15.097110598734448"><ele>406.7142857142857</ele><time>2026-04-19T13:45:28.001Z</time></trkpt><trkpt lat="36.981764437358216" lon="15.09702792983322"><ele>406.8571428571429</ele><time>2026-04-19T13:45:29.001Z</time></trkpt><trkpt lat="36.98179244604028" lon="15.096947465061234"><ele>407.0</ele><time>2026-04-19T13:45:30.001Z</time></trkpt><trkpt lat="36.981840623210644" lon="15.096822430884027"><ele>406.99999999999994</ele><time>2026-04-19T13:45:32.001Z</time></trkpt><trkpt lat="36.981887519739665" lon="15.096686833460657"><ele>407.0</ele><time>2026-04-19T13:45:34.001Z</time></trkpt><trkpt lat="36.981919040487895" lon="15.096614043823967"><ele>407.0</ele><time>2026-04-19T13:45:35.001Z</time></trkpt><trkpt lat="36.981955547417144" lon="15.096545388312682"><ele>407.0</ele><time>2026-04-19T13:45:36.001Z</time></trkpt><trkpt lat="36.98199626144623" lon="15.096476210671703"><ele>406.99999999999994</ele><time>2026-04-19T13:45:37.001Z</time></trkpt><trkpt lat="36.9820308835817" lon="15.096399814128404"><ele>407.0</ele><time>2026-04-19T13:45:38.001Z</time></trkpt><trkpt lat="36.9820669421597" lon="15.096319225314595"><ele>407.3333333333333</ele><time>2026-04-19T13:45:39.001Z</time></trkpt><trkpt lat="36.98210709210234" lon="15.096240072255668"><ele>407.66666666666663</ele><time>2026-04-19T13:45:40.001Z</time></trkpt><trkpt lat="36.98215063586734" lon="15.096157527121957"><ele>408.0</ele><time>2026-04-19T13:45:41.001Z</time></trkpt><trkpt lat="36.98219622012661" lon="15.096075655879853"><ele>408.33333333333337</ele><time>2026-04-19T13:45:42.001Z</time></trkpt><trkpt lat="36.982242950770726" lon="15.095998528329954"><ele>408.6666666666667</ele><time>2026-04-19T13:45:43.001Z</time></trkpt><trkpt lat="36.98228925659762" lon="15.095924267888632"><ele>409.0</ele><time>2026-04-19T13:45:44.001Z</time></trkpt><trkpt lat="36.98232705948514" lon="15.095853671317203"><ele>409.0</ele><time>2026-04-19T13:45:45.001Z</time></trkpt><trkpt lat="36.98234925697661" lon="15.09577641914738"><ele>409.0</ele><time>2026-04-19T13:45:46.001Z</time></trkpt><trkpt lat="36.9823593320102" lon="15.095697943410824"><ele>409.0</ele><time>2026-04-19T13:45:47.001Z</time></trkpt><trkpt lat="36.98236934819004" lon="15.09561316532352"><ele>409.0</ele><time>2026-04-19T13:45:48.001Z</time></trkpt><trkpt lat="36.982388515019544" lon="15.09553054781528"><ele>409.0</ele><time>2026-04-19T13:45:49.001Z</time></trkpt><trkpt lat="36.98240811248627" lon="15.095443151581561"><ele>409.0</ele><time>2026-04-19T13:45:50.001Z</time></trkpt><trkpt lat="36.982427801940446" lon="15.09535259327729"><ele>409.0</ele><time>2026-04-19T13:45:51.001Z</time></trkpt><trkpt lat="36.982453053930065" lon="15.095262980987732"><ele>409.00000000000006</ele><time>2026-04-19T13:45:52Z</time></trkpt><trkpt lat="36.98247984203419" lon="15.09516978686792"><ele>409.0</ele><time>2026-04-19T13:45:53Z</time></trkpt><trkpt lat="36.982508399893064" lon="15.09507753787041"><ele>409.0</ele><time>2026-04-19T13:45:54Z</time></trkpt><trkpt lat="36.98253580064972" lon="15.09498357378121"><ele>409.0</ele><time>2026-04-19T13:45:55Z</time></trkpt><trkpt lat="36.98255950992268" lon="15.094881802153198"><ele>409.00000000000006</ele><time>2026-04-19T13:45:56Z</time></trkpt><trkpt lat="36.98258204809137" lon="15.094782554476097"><ele>409.0</ele><time>2026-04-19T13:45:57Z</time></trkpt><trkpt lat="36.98260552852802" lon="15.094687191043622"><ele>409.0</ele><time>2026-04-19T13:45:58Z</time></trkpt><trkpt lat="36.982633420211485" lon="15.094593103545709"><ele>409.0</ele><time>2026-04-19T13:45:59Z</time></trkpt><trkpt lat="36.98267015579485" lon="15.094495123410375"><ele>409.0</ele><time>2026-04-19T13:46:00Z</time></trkpt><trkpt lat="36.98272421834783" lon="15.094385408459575"><ele>409.0</ele><time>2026-04-19T13:46:01Z</time></trkpt><trkpt lat="36.98278684438962" lon="15.094276406075137"><ele>409.0</ele><time>2026-04-19T13:46:02Z</time></trkpt><trkpt lat="36.98284356731684" lon="15.094178042544037"><ele>409.1666666666667</ele><time>2026-04-19T13:46:03Z</time></trkpt><trkpt lat="36.98289162253052" lon="15.094083246744002"><ele>409.33333333333337</ele><time>2026-04-19T13:46:04Z</time></trkpt><trkpt lat="36.982932112459466" lon="15.093989255417"><ele>409.5</ele><time>2026-04-19T13:46:05Z</time></trkpt><trkpt lat="36.98296714091846" lon="15.093895267418388"><ele>409.66666666666663</ele><time>2026-04-19T13:46:06Z</time></trkpt><trkpt lat="36.98300579585576" lon="15.093794361126783"><ele>409.8333333333333</ele><time>2026-04-19T13:46:07Z</time></trkpt><trkpt lat="36.98304489076585" lon="15.093694663351549"><ele>410.0</ele><time>2026-04-19T13:46:08Z</time></trkpt><trkpt lat="36.983073122306145" lon="15.093595466704198"><ele>409.99999999999994</ele><time>2026-04-19T13:46:09Z</time></trkpt><trkpt lat="36.983093609520914" lon="15.093490657142834"><ele>410.0</ele><time>2026-04-19T13:46:10Z</time></trkpt><trkpt lat="36.98311226624489" lon="15.093383165357855"><ele>410.0</ele><time>2026-04-19T13:46:11Z</time></trkpt><trkpt lat="36.98312591396582" lon="15.093277179762358"><ele>410.0</ele><time>2026-04-19T13:46:12Z</time></trkpt><trkpt lat="36.98313960429966" lon="15.093175181569709"><ele>409.99999999999994</ele><time>2026-04-19T13:46:13Z</time></trkpt><trkpt lat="36.98315622532412" lon="15.093080416828109"><ele>410.0</ele><time>2026-04-19T13:46:14Z</time></trkpt><trkpt lat="36.98318970474252" lon="15.09294357790096"><ele>410.3333333333333</ele><time>2026-04-19T13:46:16Z</time></trkpt><trkpt lat="36.983210224721724" lon="15.092851152271734"><ele>410.66666666666663</ele><time>2026-04-19T13:46:18Z</time></trkpt><trkpt lat="36.983225017266314" lon="15.092765525304104"><ele>411.0</ele><time>2026-04-19T13:46:21Z</time></trkpt><trkpt lat="36.98322718460789" lon="15.092676878867493"><ele>411.33333333333337</ele><time>2026-04-19T13:46:38Z</time></trkpt><trkpt lat="36.98323798984466" lon="15.092552895474155"><ele>411.6666666666667</ele><time>2026-04-19T13:46:41Z</time></trkpt><trkpt lat="36.98325420265408" lon="15.092470337454971"><ele>412.0</ele><time>2026-04-19T13:46:43Z</time></trkpt><trkpt lat="36.983281516444634" lon="15.09236167791213"><ele>412.40000000000003</ele><time>2026-04-19T13:46:45Z</time></trkpt><trkpt lat="36.983321170885525" lon="15.092222397553542"><ele>412.8</ele><time>2026-04-19T13:46:47Z</time></trkpt><trkpt lat="36.98334681765755" lon="15.092147515260866"><ele>413.2</ele><time>2026-04-19T13:46:48Z</time></trkpt><trkpt lat="36.983391323435015" lon="15.092013651497984"><ele>413.6</ele><time>2026-04-19T13:46:50Z</time></trkpt><trkpt lat="36.9834378892468" lon="15.091901741449773"><ele>414.0</ele><time>2026-04-19T13:46:52Z</time></trkpt><trkpt lat="36.98350044673136" lon="15.091800778490752"><ele>414.0</ele><time>2026-04-19T13:46:54Z</time></trkpt><trkpt lat="36.983552971848695" lon="15.091694681025803"><ele>414.0</ele><time>2026-04-19T13:46:56Z</time></trkpt><trkpt lat="36.98361410709527" lon="15.091574984834526"><ele>414.0</ele><time>2026-04-19T13:46:58Z</time></trkpt><trkpt lat="36.98368856042173" lon="15.091469261514378"><ele>414.0</ele><time>2026-04-19T13:47:00Z</time></trkpt><trkpt lat="36.983775879381724" lon="15.091385780629837"><ele>414.0</ele><time>2026-04-19T13:47:02Z</time></trkpt><trkpt lat="36.983856814335766" lon="15.091287875298551"><ele>413.2</ele><time>2026-04-19T13:47:04.001Z</time></trkpt><trkpt lat="36.98390930321545" lon="15.091174437514566"><ele>412.4</ele><time>2026-04-19T13:47:06.001Z</time></trkpt><trkpt lat="36.98394281328185" lon="15.091037225976626"><ele>411.6</ele><time>2026-04-19T13:47:08.001Z</time></trkpt><trkpt lat="36.98398713506069" lon="15.090907784443335"><ele>410.8</ele><time>2026-04-19T13:47:10.001Z</time></trkpt><trkpt lat="36.98400975607243" lon="15.09080792756194"><ele>410.0</ele><time>2026-04-19T13:47:12.001Z</time></trkpt><trkpt lat="36.98402482280546" lon="15.09072094120636"><ele>409.99999999999994</ele><time>2026-04-19T13:47:14.001Z</time></trkpt><trkpt lat="36.98405057142961" lon="15.09062693384996"><ele>410.0</ele><time>2026-04-19T13:47:17.001Z</time></trkpt><trkpt lat="36.98407682824186" lon="15.090535741172452"><ele>410.0</ele><time>2026-04-19T13:47:20.001Z</time></trkpt><trkpt lat="36.98408627991219" lon="15.090451681706174"><ele>410.0</ele><time>2026-04-19T13:47:23.001Z</time></trkpt><trkpt lat="36.984110538308705" lon="15.090366630139105"><ele>409.99999999999994</ele><time>2026-04-19T13:47:25.001Z</time></trkpt><trkpt lat="36.98413076698798" lon="15.090286932334674"><ele>410.0</ele><time>2026-04-19T13:47:27.001Z</time></trkpt><trkpt lat="36.984150978138615" lon="15.090177168202747"><ele>409.99999999999994</ele><time>2026-04-19T13:47:30.001Z</time></trkpt><trkpt lat="36.98417134066774" lon="15.090092571503023"><ele>410.0</ele><time>2026-04-19T13:47:32.001Z</time></trkpt><trkpt lat="36.984201640529996" lon="15.089988479638329"><ele>410.0</ele><time>2026-04-19T13:47:34.001Z</time></trkpt><trkpt lat="36.984224812137114" lon="15.08986881929732"><ele>410.0</ele><time>2026-04-19T13:47:36.001Z</time></trkpt><trkpt lat="36.984250820665075" lon="15.08974949427198"><ele>409.99999999999994</ele><time>2026-04-19T13:47:38.001Z</time></trkpt><trkpt lat="36.984270603076894" lon="15.089648513689378"><ele>410.0</ele><time>2026-04-19T13:47:40.001Z</time></trkpt><trkpt lat="36.98426727585065" lon="15.089551525892954"><ele>410.3333333333333</ele><time>2026-04-19T13:47:42.001Z</time></trkpt><trkpt lat="36.98424356125876" lon="15.08945478542658"><ele>410.66666666666663</ele><time>2026-04-19T13:47:44.001Z</time></trkpt><trkpt lat="36.9842130616805" lon="15.089332412773292"><ele>411.0</ele><time>2026-04-19T13:47:46.001Z</time></trkpt><trkpt lat="36.984205305533536" lon="15.089183772377222"><ele>411.33333333333337</ele><time>2026-04-19T13:47:48.001Z</time></trkpt><trkpt lat="36.984200702082035" lon="15.089103537675593"><ele>411.6666666666667</ele><time>2026-04-19T13:47:49.001Z</time></trkpt><trkpt lat="36.984189017347475" lon="15.089020113499588"><ele>412.0</ele><time>2026-04-19T13:47:50.001Z</time></trkpt><trkpt lat="36.98415013160807" lon="15.08887890553365"><ele>412.6666666666667</ele><time>2026-04-19T13:47:52.001Z</time></trkpt><trkpt lat="36.98411244960762" lon="15.088721823917588"><ele>413.33333333333337</ele><time>2026-04-19T13:47:54.001Z</time></trkpt><trkpt lat="36.98409716345013" lon="15.088625564061028"><ele>414.0</ele><time>2026-04-19T13:47:55.001Z</time></trkpt><trkpt lat="36.98408303511037" lon="15.088523573850887"><ele>414.66666666666663</ele><time>2026-04-19T13:47:56.001Z</time></trkpt><trkpt lat="36.984070598467696" lon="15.088427074215353"><ele>415.3333333333333</ele><time>2026-04-19T13:47:57.001Z</time></trkpt><trkpt lat="36.98405495313705" lon="15.088340146948141"><ele>416.0</ele><time>2026-04-19T13:47:58.001Z</time></trkpt><trkpt lat="36.98401188651684" lon="15.08821396853209"><ele>415.99999999999994</ele><time>2026-04-19T13:48:00.001Z</time></trkpt><trkpt lat="36.984000792632045" lon="15.08806743391077"><ele>416.0</ele><time>2026-04-19T13:48:02.001Z</time></trkpt><trkpt lat="36.98399759172221" lon="15.087980204261425"><ele>416.0</ele><time>2026-04-19T13:48:03.001Z</time></trkpt><trkpt lat="36.98399437353114" lon="15.087883033326689"><ele>416.0</ele><time>2026-04-19T13:48:04.001Z</time></trkpt><trkpt lat="36.983995243127545" lon="15.087778360538705"><ele>415.99999999999994</ele><time>2026-04-19T13:48:05.001Z</time></trkpt><trkpt lat="36.98400144429535" lon="15.087665758485764"><ele>416.0</ele><time>2026-04-19T13:48:06.001Z</time></trkpt><trkpt lat="36.9840087940734" lon="15.087548286878073"><ele>416.0</ele><time>2026-04-19T13:48:07.001Z</time></trkpt><trkpt lat="36.984020551814126" lon="15.087428041691823"><ele>416.0</ele><time>2026-04-19T13:48:08.001Z</time></trkpt><trkpt lat="36.984035086710406" lon="15.087309576808856"><ele>416.0</ele><time>2026-04-19T13:48:09.001Z</time></trkpt><trkpt lat="36.98404220468884" lon="15.087197010910737"><ele>416.0</ele><time>2026-04-19T13:48:10.001Z</time></trkpt><trkpt lat="36.98403664966918" lon="15.08708505922184"><ele>416.0</ele><time>2026-04-19T13:48:11.001Z</time></trkpt><trkpt lat="36.98401675913245" lon="15.086973230075836"><ele>415.8333333333333</ele><time>2026-04-19T13:48:12.001Z</time></trkpt><trkpt lat="36.98399388108429" lon="15.086869004888918"><ele>415.66666666666663</ele><time>2026-04-19T13:48:13.001Z</time></trkpt><trkpt lat="36.98397017217153" lon="15.086771866082623"><ele>415.5</ele><time>2026-04-19T13:48:14.001Z</time></trkpt><trkpt lat="36.983950999300625" lon="15.086671723221492"><ele>415.33333333333337</ele><time>2026-04-19T13:48:15.001Z</time></trkpt><trkpt lat="36.983942073244016" lon="15.086571479794106"><ele>415.1666666666667</ele><time>2026-04-19T13:48:16.001Z</time></trkpt><trkpt lat="36.98393833128948" lon="15.0864703353518"><ele>415.0</ele><time>2026-04-19T13:48:17.001Z</time></trkpt><trkpt lat="36.98393740718553" lon="15.086366931693004"><ele>414.83333333333337</ele><time>2026-04-19T13:48:18Z</time></trkpt><trkpt lat="36.983933879461404" lon="15.086261509530956"><ele>414.6666666666667</ele><time>2026-04-19T13:48:19Z</time></trkpt><trkpt lat="36.98392840277832" lon="15.086155462849552"><ele>414.5</ele><time>2026-04-19T13:48:20Z</time></trkpt><trkpt lat="36.98392409548501" lon="15.086048544444335"><ele>414.33333333333337</ele><time>2026-04-19T13:48:21Z</time></trkpt><trkpt lat="36.983921565988716" lon="15.085941097199608"><ele>414.1666666666667</ele><time>2026-04-19T13:48:22Z</time></trkpt><trkpt lat="36.98392081568969" lon="15.08583242981933"><ele>414.0</ele><time>2026-04-19T13:48:23Z</time></trkpt><trkpt lat="36.98392075770563" lon="15.08572375297772"><ele>414.3333333333333</ele><time>2026-04-19T13:48:24Z</time></trkpt><trkpt lat="36.98391823925167" lon="15.085616224140656"><ele>414.66666666666663</ele><time>2026-04-19T13:48:25Z</time></trkpt><trkpt lat="36.98391637904454" lon="15.085508464675144"><ele>415.0</ele><time>2026-04-19T13:48:26Z</time></trkpt><trkpt lat="36.98391487275054" lon="15.085399207353747"><ele>415.3333333333333</ele><time>2026-04-19T13:48:27Z</time></trkpt><trkpt lat="36.98391713442789" lon="15.085290601812956"><ele>415.66666666666663</ele><time>2026-04-19T13:48:28Z</time></trkpt><trkpt lat="36.98392003342143" lon="15.085184144765769"><ele>416.0</ele><time>2026-04-19T13:48:29Z</time></trkpt><trkpt lat="36.98392364847708" lon="15.085075509360465"><ele>415.99999999999994</ele><time>2026-04-19T13:48:30Z</time></trkpt><trkpt lat="36.983922911577096" lon="15.084969092869756"><ele>416.0</ele><time>2026-04-19T13:48:31Z</time></trkpt><trkpt lat="36.98392004532153" lon="15.08486326723658"><ele>416.0</ele><time>2026-04-19T13:48:32Z</time></trkpt><trkpt lat="36.98391760552031" lon="15.084758658145123"><ele>416.0</ele><time>2026-04-19T13:48:33Z</time></trkpt><trkpt lat="36.98392640579199" lon="15.084656463860684"><ele>415.99999999999994</ele><time>2026-04-19T13:48:34Z</time></trkpt><trkpt lat="36.9839507582357" lon="15.084551586179916"><ele>416.0</ele><time>2026-04-19T13:48:35Z</time></trkpt><trkpt lat="36.98398146013305" lon="15.08444482001027"><ele>416.6</ele><time>2026-04-19T13:48:36Z</time></trkpt><trkpt lat="36.984015334231216" lon="15.084333166680072"><ele>417.20000000000005</ele><time>2026-04-19T13:48:37Z</time></trkpt><trkpt lat="36.984046273439034" lon="15.084219336429243"><ele>417.79999999999995</ele><time>2026-04-19T13:48:38Z</time></trkpt><trkpt lat="36.984075860065886" lon="15.084103738599905"><ele>418.4</ele><time>2026-04-19T13:48:39Z</time></trkpt><trkpt lat="36.98410738342209" lon="15.083986331367186"><ele>419.0</ele><time>2026-04-19T13:48:40Z</time></trkpt><trkpt lat="36.98413703885327" lon="15.083867283168656"><ele>420.0</ele><time>2026-04-19T13:48:41Z</time></trkpt><trkpt lat="36.98416251495493" lon="15.083747274440897"><ele>421.0</ele><time>2026-04-19T13:48:42Z</time></trkpt><trkpt lat="36.98417965221925" lon="15.083629992406635"><ele>422.0</ele><time>2026-04-19T13:48:43Z</time></trkpt><trkpt lat="36.98417682744968" lon="15.083509645891398"><ele>423.0</ele><time>2026-04-19T13:48:44Z</time></trkpt><trkpt lat="36.98415685272196" lon="15.083384603514634"><ele>424.0</ele><time>2026-04-19T13:48:45Z</time></trkpt><trkpt lat="36.98414085108824" lon="15.083273930424884"><ele>424.6666666666667</ele><time>2026-04-19T13:48:46.001Z</time></trkpt><trkpt lat="36.984126263707125" lon="15.083163274963626"><ele>425.33333333333337</ele><time>2026-04-19T13:48:47.001Z</time></trkpt><trkpt lat="36.98411334535367" lon="15.083052785066325"><ele>426.0</ele><time>2026-04-19T13:48:48.001Z</time></trkpt><trkpt lat="36.984094362126186" lon="15.08294461265456"><ele>426.66666666666663</ele><time>2026-04-19T13:48:49.001Z</time></trkpt><trkpt lat="36.984064352579836" lon="15.082837800445063"><ele>427.3333333333333</ele><time>2026-04-19T13:48:50.001Z</time></trkpt><trkpt lat="36.98402970688729" lon="15.082734107395105"><ele>428.0</ele><time>2026-04-19T13:48:51.001Z</time></trkpt><trkpt lat="36.98400398968679" lon="15.082629938646196"><ele>427.99999999999994</ele><time>2026-04-19T13:48:52.001Z</time></trkpt><trkpt lat="36.98399660224588" lon="15.082520422912621"><ele>428.0</ele><time>2026-04-19T13:48:53.001Z</time></trkpt><trkpt lat="36.984001125120884" lon="15.082412206701882"><ele>428.0</ele><time>2026-04-19T13:48:54.001Z</time></trkpt><trkpt lat="36.984017272493" lon="15.082306929111393"><ele>428.0</ele><time>2026-04-19T13:48:55.001Z</time></trkpt><trkpt lat="36.984045506389776" lon="15.082206433156506"><ele>427.99999999999994</ele><time>2026-04-19T13:48:56.001Z</time></trkpt><trkpt lat="36.98408077274979" lon="15.08211088792465"><ele>428.0</ele><time>2026-04-19T13:48:57.001Z</time></trkpt><trkpt lat="36.98412633081339" lon="15.082022673639425"><ele>428.8333333333333</ele><time>2026-04-19T13:48:58.001Z</time></trkpt><trkpt lat="36.984180174608774" lon="15.081940649208446"><ele>429.66666666666663</ele><time>2026-04-19T13:48:59.001Z</time></trkpt><trkpt lat="36.984235460558445" lon="15.081860094563242"><ele>430.5</ele><time>2026-04-19T13:49:00.001Z</time></trkpt><trkpt lat="36.984287234446775" lon="15.081781424356743"><ele>431.33333333333337</ele><time>2026-04-19T13:49:01.001Z</time></trkpt><trkpt lat="36.98433424204481" lon="15.08170505935552"><ele>432.1666666666667</ele><time>2026-04-19T13:49:02.001Z</time></trkpt><trkpt lat="36.98437844878498" lon="15.081628468587647"><ele>433.0</ele><time>2026-04-19T13:49:03.001Z</time></trkpt><trkpt lat="36.98441774549499" lon="15.081550305401002"><ele>433.00000000000006</ele><time>2026-04-19T13:49:04.001Z</time></trkpt><trkpt lat="36.98445667558315" lon="15.081466398288795"><ele>433.0</ele><time>2026-04-19T13:49:05.001Z</time></trkpt><trkpt lat="36.98450374116843" lon="15.081381630674427"><ele>433.0</ele><time>2026-04-19T13:49:06.001Z</time></trkpt><trkpt lat="36.984558609246704" lon="15.081298145073317"><ele>433.0</ele><time>2026-04-19T13:49:07.001Z</time></trkpt><trkpt lat="36.98461243165034" lon="15.081213185195741"><ele>433.00000000000006</ele><time>2026-04-19T13:49:08.001Z</time></trkpt><trkpt lat="36.984667077349975" lon="15.081126732823389"><ele>433.0</ele><time>2026-04-19T13:49:09.001Z</time></trkpt><trkpt lat="36.98471842211805" lon="15.081034644216862"><ele>433.00000000000006</ele><time>2026-04-19T13:49:10.001Z</time></trkpt><trkpt lat="36.98476466418228" lon="15.080943010033252"><ele>433.0</ele><time>2026-04-19T13:49:11.001Z</time></trkpt><trkpt lat="36.9848082836302" lon="15.080849424027907"><ele>433.0</ele><time>2026-04-19T13:49:12.001Z</time></trkpt><trkpt lat="36.98485215909104" lon="15.080755794276275"><ele>433.0</ele><time>2026-04-19T13:49:13.001Z</time></trkpt><trkpt lat="36.98489705532166" lon="15.080662368896602"><ele>433.00000000000006</ele><time>2026-04-19T13:49:14.001Z</time></trkpt><trkpt lat="36.984946109996656" lon="15.080565378046023"><ele>433.0</ele><time>2026-04-19T13:49:15.001Z</time></trkpt><trkpt lat="36.985005715475815" lon="15.080465871281223"><ele>433.0</ele><time>2026-04-19T13:49:16.001Z</time></trkpt><trkpt lat="36.985074162066965" lon="15.080364165828373"><ele>432.99999999999994</ele><time>2026-04-19T13:49:17.001Z</time></trkpt><trkpt lat="36.98514388278237" lon="15.0802607689961"><ele>432.99999999999994</ele><time>2026-04-19T13:49:18.001Z</time></trkpt><trkpt lat="36.9852136675993" lon="15.080156880159018"><ele>433.0</ele><time>2026-04-19T13:49:19.001Z</time></trkpt><trkpt lat="36.98528282731036" lon="15.080056706736796"><ele>433.0</ele><time>2026-04-19T13:49:20.001Z</time></trkpt><trkpt lat="36.985346188725444" lon="15.079959846375916"><ele>433.79999999999995</ele><time>2026-04-19T13:49:21.001Z</time></trkpt><trkpt lat="36.985400372801884" lon="15.079863164696471"><ele>434.59999999999997</ele><time>2026-04-19T13:49:22.001Z</time></trkpt><trkpt lat="36.98545035405734" lon="15.079766019780404"><ele>435.40000000000003</ele><time>2026-04-19T13:49:23.001Z</time></trkpt><trkpt lat="36.985491885419016" lon="15.079667645893519"><ele>436.20000000000005</ele><time>2026-04-19T13:49:24.001Z</time></trkpt><trkpt lat="36.98552535335393" lon="15.079566611497922"><ele>437.0</ele><time>2026-04-19T13:49:25.001Z</time></trkpt><trkpt lat="36.985553423723076" lon="15.079462438336789"><ele>436.99999999999994</ele><time>2026-04-19T13:49:26.001Z</time></trkpt><trkpt lat="36.98557706475528" lon="15.079358658898125"><ele>437.0</ele><time>2026-04-19T13:49:27.001Z</time></trkpt><trkpt lat="36.98560229570663" lon="15.079256126193473"><ele>437.0</ele><time>2026-04-19T13:49:28.001Z</time></trkpt><trkpt lat="36.98563058290587" lon="15.079155219337784"><ele>437.0</ele><time>2026-04-19T13:49:29.001Z</time></trkpt><trkpt lat="36.98566398519209" lon="15.07905617114162"><ele>436.99999999999994</ele><time>2026-04-19T13:49:30.001Z</time></trkpt><trkpt lat="36.985700767134745" lon="15.078963250155445"><ele>437.0</ele><time>2026-04-19T13:49:31.001Z</time></trkpt><trkpt lat="36.98574493956208" lon="15.078872206727329"><ele>437.16666666666663</ele><time>2026-04-19T13:49:32.001Z</time></trkpt><trkpt lat="36.985794184352905" lon="15.078785677020587"><ele>437.3333333333333</ele><time>2026-04-19T13:49:33.001Z</time></trkpt><trkpt lat="36.98584755790981" lon="15.078703073086642"><ele>437.5</ele><time>2026-04-19T13:49:34.001Z</time></trkpt><trkpt lat="36.98590214556164" lon="15.078617009695819"><ele>437.66666666666663</ele><time>2026-04-19T13:49:35.001Z</time></trkpt><trkpt lat="36.98595975386955" lon="15.07852360630839"><ele>437.8333333333333</ele><time>2026-04-19T13:49:36.001Z</time></trkpt><trkpt lat="36.98601676989514" lon="15.078426680844304"><ele>438.0</ele><time>2026-04-19T13:49:37.001Z</time></trkpt><trkpt lat="36.98606999705012" lon="15.078322630300187"><ele>438.4</ele><time>2026-04-19T13:49:38.001Z</time></trkpt><trkpt lat="36.98611275900706" lon="15.078210515382825"><ele>438.79999999999995</ele><time>2026-04-19T13:49:39.001Z</time></trkpt><trkpt lat="36.98615440700849" lon="15.07809624151558"><ele>439.2</ele><time>2026-04-19T13:49:40.001Z</time></trkpt><trkpt lat="36.9861897766906" lon="15.077978775234747"><ele>439.6</ele><time>2026-04-19T13:49:41.001Z</time></trkpt><trkpt lat="36.98622037500324" lon="15.077858940294346"><ele>440.0</ele><time>2026-04-19T13:49:42.001Z</time></trkpt><trkpt lat="36.986244016613455" lon="15.077736396233066"><ele>440.0</ele><time>2026-04-19T13:49:43.001Z</time></trkpt><trkpt lat="36.98626067004701" lon="15.077610915189346"><ele>440.0</ele><time>2026-04-19T13:49:44.001Z</time></trkpt><trkpt lat="36.98627638631438" lon="15.077485881345464"><ele>440.0</ele><time>2026-04-19T13:49:45.001Z</time></trkpt><trkpt lat="36.986294013328596" lon="15.077364228887447"><ele>440.0</ele><time>2026-04-19T13:49:46.001Z</time></trkpt><trkpt lat="36.98631505409555" lon="15.077250692363586"><ele>440.0</ele><time>2026-04-19T13:49:47.001Z</time></trkpt><trkpt lat="36.98635045620702" lon="15.077149552723387"><ele>440.2</ele><time>2026-04-19T13:49:48.001Z</time></trkpt><trkpt lat="36.9864014855632" lon="15.077053920505623"><ele>440.4</ele><time>2026-04-19T13:49:49.001Z</time></trkpt><trkpt lat="36.98646313693335" lon="15.076957126847066"><ele>440.6</ele><time>2026-04-19T13:49:50.001Z</time></trkpt><trkpt lat="36.98652421129824" lon="15.07685833765826"><ele>440.8</ele><time>2026-04-19T13:49:51.001Z</time></trkpt><trkpt lat="36.98658190327433" lon="15.076757807365208"><ele>441.0</ele><time>2026-04-19T13:49:52.001Z</time></trkpt><trkpt lat="36.98663758308992" lon="15.076659821494447"><ele>441.1666666666667</ele><time>2026-04-19T13:49:53.001Z</time></trkpt><trkpt lat="36.98669147430727" lon="15.07656457255309"><ele>441.33333333333337</ele><time>2026-04-19T13:49:54.001Z</time></trkpt><trkpt lat="36.98674554835517" lon="15.07647305086846"><ele>441.5</ele><time>2026-04-19T13:49:55.001Z</time></trkpt><trkpt lat="36.98680001754579" lon="15.076386604748835"><ele>441.6666666666667</ele><time>2026-04-19T13:49:56.001Z</time></trkpt><trkpt lat="36.986853795046166" lon="15.076303667216033"><ele>441.83333333333337</ele><time>2026-04-19T13:49:57.001Z</time></trkpt><trkpt lat="36.98690290802813" lon="15.076228976500552"><ele>442.0</ele><time>2026-04-19T13:49:58.001Z</time></trkpt><trkpt lat="36.98694962045839" lon="15.076159966872288"><ele>442.00000000000006</ele><time>2026-04-19T13:49:59.001Z</time></trkpt><trkpt lat="36.986994411062945" lon="15.076100188917133"><ele>442.0</ele><time>2026-04-19T13:50:00.001Z</time></trkpt><trkpt lat="36.987046203694824" lon="15.076046329565019"><ele>442.0</ele><time>2026-04-19T13:50:01.001Z</time></trkpt><trkpt lat="36.98709997508679" lon="15.07599376750781"><ele>442.0</ele><time>2026-04-19T13:50:02.001Z</time></trkpt><trkpt lat="36.98715556484928" lon="15.075944366554406"><ele>442.00000000000006</ele><time>2026-04-19T13:50:03.001Z</time></trkpt><trkpt lat="36.98720589677859" lon="15.075893924666717"><ele>442.0</ele><time>2026-04-19T13:50:04.001Z</time></trkpt><trkpt lat="36.98729804505802" lon="15.075797718413746"><ele>442.6</ele><time>2026-04-19T13:50:06.001Z</time></trkpt><trkpt lat="36.98738232976749" lon="15.075706127257872"><ele>443.20000000000005</ele><time>2026-04-19T13:50:08.001Z</time></trkpt><trkpt lat="36.987447124337876" lon="15.075595998706039"><ele>443.8</ele><time>2026-04-19T13:50:10.001Z</time></trkpt><trkpt lat="36.9874962800463" lon="15.075461944093016"><ele>444.4</ele><time>2026-04-19T13:50:12.001Z</time></trkpt><trkpt lat="36.98752129312453" lon="15.075388760396033"><ele>445.0</ele><time>2026-04-19T13:50:13.001Z</time></trkpt><trkpt lat="36.987548929338416" lon="15.075316339980125"><ele>445.2857142857143</ele><time>2026-04-19T13:50:14.001Z</time></trkpt><trkpt lat="36.987574946864896" lon="15.07524158569118"><ele>445.57142857142856</ele><time>2026-04-19T13:50:15.001Z</time></trkpt><trkpt lat="36.98759916774996" lon="15.075164500192544"><ele>445.85714285714283</ele><time>2026-04-19T13:50:16.001Z</time></trkpt><trkpt lat="36.98762362035563" lon="15.07508585233308"><ele>446.1428571428571</ele><time>2026-04-19T13:50:17.001Z</time></trkpt><trkpt lat="36.987648345305125" lon="15.075005163884681"><ele>446.42857142857144</ele><time>2026-04-19T13:50:18.001Z</time></trkpt><trkpt lat="36.987673183725946" lon="15.074922218494104"><ele>446.71428571428567</ele><time>2026-04-19T13:50:19.001Z</time></trkpt><trkpt lat="36.987699791500994" lon="15.074840374936834"><ele>447.0</ele><time>2026-04-19T13:50:20.001Z</time></trkpt><trkpt lat="36.98772770126933" lon="15.074760130659588"><ele>447.0</ele><time>2026-04-19T13:50:21.001Z</time></trkpt><trkpt lat="36.987755205033544" lon="15.074680235614379"><ele>447.0</ele><time>2026-04-19T13:50:22.001Z</time></trkpt><trkpt lat="36.987783535589806" lon="15.074601993335177"><ele>447.0</ele><time>2026-04-19T13:50:23.001Z</time></trkpt><trkpt lat="36.987814675647506" lon="15.074528145730072"><ele>447.0</ele><time>2026-04-19T13:50:24.001Z</time></trkpt><trkpt lat="36.987872693793776" lon="15.074402520760541"><ele>447.0</ele><time>2026-04-19T13:50:26.001Z</time></trkpt><trkpt lat="36.9879493034178" lon="15.0742937498955"><ele>447.0</ele><time>2026-04-19T13:50:28.001Z</time></trkpt><trkpt lat="36.98802114155798" lon="15.07419982044819"><ele>447.0</ele><time>2026-04-19T13:50:30.001Z</time></trkpt><trkpt lat="36.98808268060443" lon="15.074127496305742"><ele>447.0</ele><time>2026-04-19T13:50:32.001Z</time></trkpt><trkpt lat="36.98816128332517" lon="15.074083923053037"><ele>447.0</ele><time>2026-04-19T13:50:34.001Z</time></trkpt><trkpt lat="36.98827354341499" lon="15.074081933479048"><ele>447.0</ele><time>2026-04-19T13:50:36.001Z</time></trkpt><trkpt lat="36.988339205015414" lon="15.0740891021797"><ele>447.0</ele><time>2026-04-19T13:50:37.001Z</time></trkpt><trkpt lat="36.98840610040152" lon="15.074098671847324"><ele>447.0</ele><time>2026-04-19T13:50:38.001Z</time></trkpt><trkpt lat="36.988469808665585" lon="15.074108882560093"><ele>446.5</ele><time>2026-04-19T13:50:39.001Z</time></trkpt><trkpt lat="36.98859028811473" lon="15.074122360711314"><ele>446.0</ele><time>2026-04-19T13:50:41.001Z</time></trkpt><trkpt lat="36.98870249679257" lon="15.074141598079573"><ele>445.5</ele><time>2026-04-19T13:50:43.001Z</time></trkpt><trkpt lat="36.98880734178532" lon="15.074186379300361"><ele>445.0</ele><time>2026-04-19T13:50:45.001Z</time></trkpt><trkpt lat="36.98891358037994" lon="15.074224804019861"><ele>445.0</ele><time>2026-04-19T13:50:47.001Z</time></trkpt><trkpt lat="36.989021334945825" lon="15.074252801378847"><ele>445.0</ele><time>2026-04-19T13:50:49.001Z</time></trkpt><trkpt lat="36.98912919957279" lon="15.074273707924064"><ele>445.0</ele><time>2026-04-19T13:50:51.001Z</time></trkpt><trkpt lat="36.98924227407934" lon="15.074312352734852"><ele>445.0</ele><time>2026-04-19T13:50:53.001Z</time></trkpt><trkpt lat="36.989301495179326" lon="15.074339189662902"><ele>445.0</ele><time>2026-04-19T13:50:54.001Z</time></trkpt><trkpt lat="36.98936217542527" lon="15.074364142024455"><ele>445.00000000000006</ele><time>2026-04-19T13:50:55.001Z</time></trkpt><trkpt lat="36.989423298837785" lon="15.07438513516287"><ele>445.0</ele><time>2026-04-19T13:50:56.001Z</time></trkpt><trkpt lat="36.9895331144222" lon="15.07440570477614"><ele>445.0</ele><time>2026-04-19T13:50:58.001Z</time></trkpt><trkpt lat="36.98960694622414" lon="15.074424198740324"><ele>445.0</ele><time>2026-04-19T13:51:00.001Z</time></trkpt><trkpt lat="36.98967087253597" lon="15.074395562904703"><ele>445.00000000000006</ele><time>2026-04-19T13:51:03.001Z</time></trkpt><trkpt lat="36.989709973691994" lon="15.0743269615623"><ele>445.0</ele><time>2026-04-19T13:51:05.001Z</time></trkpt><trkpt lat="36.98975319313838" lon="15.074225039058641"><ele>445.2</ele><time>2026-04-19T13:51:07.001Z</time></trkpt><trkpt lat="36.989795574109884" lon="15.07410424956036"><ele>445.4</ele><time>2026-04-19T13:51:09.001Z</time></trkpt><trkpt lat="36.989850724792404" lon="15.07397132201265"><ele>445.6</ele><time>2026-04-19T13:51:11.001Z</time></trkpt><trkpt lat="36.98988842449542" lon="15.07389638038461"><ele>445.8</ele><time>2026-04-19T13:51:12.001Z</time></trkpt><trkpt lat="36.989927833274436" lon="15.07381643428682"><ele>446.0</ele><time>2026-04-19T13:51:13.001Z</time></trkpt><trkpt lat="36.98997251812609" lon="15.073725042137175"><ele>445.99999999999994</ele><time>2026-04-19T13:51:14.001Z</time></trkpt><trkpt lat="36.99001841574027" lon="15.073627117897356"><ele>446.0</ele><time>2026-04-19T13:51:15.001Z</time></trkpt><trkpt lat="36.99006239950966" lon="15.07353433090891"><ele>446.0</ele><time>2026-04-19T13:51:16.001Z</time></trkpt><trkpt lat="36.990104829328175" lon="15.073445119897636"><ele>446.0</ele><time>2026-04-19T13:51:17.001Z</time></trkpt><trkpt lat="36.990150716615716" lon="15.073355692129878"><ele>445.99999999999994</ele><time>2026-04-19T13:51:18.001Z</time></trkpt><trkpt lat="36.99019851893984" lon="15.07326650677529"><ele>446.0</ele><time>2026-04-19T13:51:19.001Z</time></trkpt><trkpt lat="36.990244360796964" lon="15.073175811078492"><ele>446.49999999999994</ele><time>2026-04-19T13:51:20.001Z</time></trkpt><trkpt lat="36.990289545620335" lon="15.073082222137986"><ele>447.0</ele><time>2026-04-19T13:51:21.001Z</time></trkpt><trkpt lat="36.99033478468946" lon="15.07298904336284"><ele>447.5</ele><time>2026-04-19T13:51:22.001Z</time></trkpt><trkpt lat="36.99038555319816" lon="15.072900697552027"><ele>448.0</ele><time>2026-04-19T13:51:23.001Z</time></trkpt><trkpt lat="36.99043892707376" lon="15.072815500164799"><ele>448.49999999999994</ele><time>2026-04-19T13:51:24.001Z</time></trkpt><trkpt lat="36.99048981103574" lon="15.072731549074343"><ele>449.0</ele><time>2026-04-19T13:51:25.001Z</time></trkpt><trkpt lat="36.99053649478195" lon="15.072651587786584"><ele>449.0</ele><time>2026-04-19T13:51:26.001Z</time></trkpt><trkpt lat="36.99058049389702" lon="15.072573848909286"><ele>448.99999999999994</ele><time>2026-04-19T13:51:27.001Z</time></trkpt><trkpt lat="36.99062470887824" lon="15.07249790571487"><ele>449.0</ele><time>2026-04-19T13:51:28.001Z</time></trkpt><trkpt lat="36.99066798199633" lon="15.072425481153632"><ele>449.0</ele><time>2026-04-19T13:51:29.001Z</time></trkpt><trkpt lat="36.99070912958475" lon="15.07236062154081"><ele>448.99999999999994</ele><time>2026-04-19T13:51:30.001Z</time></trkpt><trkpt lat="36.99074978030606" lon="15.072298800288479"><ele>449.0</ele><time>2026-04-19T13:51:31.001Z</time></trkpt><trkpt lat="36.99078953260611" lon="15.072234382670038"><ele>449.0</ele><time>2026-04-19T13:51:32.001Z</time></trkpt><trkpt lat="36.99082719356124" lon="15.07216738641723"><ele>449.2857142857143</ele><time>2026-04-19T13:51:33.001Z</time></trkpt><trkpt lat="36.99086541737103" lon="15.072103032774422"><ele>449.57142857142856</ele><time>2026-04-19T13:51:34.001Z</time></trkpt><trkpt lat="36.99090815255642" lon="15.072036950458566"><ele>449.85714285714283</ele><time>2026-04-19T13:51:35.001Z</time></trkpt><trkpt lat="36.99095115755999" lon="15.071972978662998"><ele>450.1428571428571</ele><time>2026-04-19T13:51:36.001Z</time></trkpt><trkpt lat="36.99099521970133" lon="15.071908168152532"><ele>450.42857142857144</ele><time>2026-04-19T13:51:37.001Z</time></trkpt><trkpt lat="36.99103883773191" lon="15.0718422181723"><ele>450.71428571428567</ele><time>2026-04-19T13:51:38.001Z</time></trkpt><trkpt lat="36.99107772568938" lon="15.071773618519261"><ele>451.0</ele><time>2026-04-19T13:51:39.001Z</time></trkpt><trkpt lat="36.991115241037434" lon="15.07170585872702"><ele>451.0</ele><time>2026-04-19T13:51:40.001Z</time></trkpt><trkpt lat="36.991154170413985" lon="15.071640550176223"><ele>451.0</ele><time>2026-04-19T13:51:41.001Z</time></trkpt><trkpt lat="36.99119525638748" lon="15.071576653199527"><ele>451.0</ele><time>2026-04-19T13:51:42.001Z</time></trkpt><trkpt lat="36.99123491079347" lon="15.07151403521608"><ele>451.0</ele><time>2026-04-19T13:51:43.001Z</time></trkpt><trkpt lat="36.991272287191485" lon="15.07144889304019"><ele>451.0</ele><time>2026-04-19T13:51:44.001Z</time></trkpt><trkpt lat="36.991308571660646" lon="15.071381632731168"><ele>451.0</ele><time>2026-04-19T13:51:45.001Z</time></trkpt><trkpt lat="36.99134548873366" lon="15.071315491648422"><ele>451.0</ele><time>2026-04-19T13:51:46.001Z</time></trkpt><trkpt lat="36.99138371831591" lon="15.071251726224945"><ele>451.2857142857143</ele><time>2026-04-19T13:51:47.001Z</time></trkpt><trkpt lat="36.991424010037186" lon="15.071186765088429"><ele>451.57142857142856</ele><time>2026-04-19T13:51:48.001Z</time></trkpt><trkpt lat="36.991461661416714" lon="15.071118720456273"><ele>451.85714285714283</ele><time>2026-04-19T13:51:49.001Z</time></trkpt><trkpt lat="36.991500695307714" lon="15.071053964316551"><ele>452.1428571428571</ele><time>2026-04-19T13:51:50.001Z</time></trkpt><trkpt lat="36.991541323103974" lon="15.070990579923597"><ele>452.42857142857144</ele><time>2026-04-19T13:51:51.001Z</time></trkpt><trkpt lat="36.99158074235695" lon="15.07092740982016"><ele>452.71428571428567</ele><time>2026-04-19T13:51:52.001Z</time></trkpt><trkpt lat="36.991619431958824" lon="15.070865064684371"><ele>452.99999999999994</ele><time>2026-04-19T13:51:53.001Z</time></trkpt><trkpt lat="36.99169504269664" lon="15.070751831381546"><ele>453.2</ele><time>2026-04-19T13:51:55.001Z</time></trkpt><trkpt lat="36.99176826891872" lon="15.070640953023103"><ele>453.4</ele><time>2026-04-19T13:51:57.001Z</time></trkpt><trkpt lat="36.99183682064008" lon="15.070523787702834"><ele>453.59999999999997</ele><time>2026-04-19T13:51:59.001Z</time></trkpt><trkpt lat="36.991894396391565" lon="15.070413301283926"><ele>453.79999999999995</ele><time>2026-04-19T13:52:01.001Z</time></trkpt><trkpt lat="36.991957266241045" lon="15.070314874576498"><ele>454.0</ele><time>2026-04-19T13:52:03.001Z</time></trkpt><trkpt lat="36.99202463334154" lon="15.070211220950066"><ele>454.00000000000006</ele><time>2026-04-19T13:52:05.001Z</time></trkpt><trkpt lat="36.99208528719818" lon="15.07010574417875"><ele>454.0</ele><time>2026-04-19T13:52:07.001Z</time></trkpt><trkpt lat="36.992137735467246" lon="15.070021795864987"><ele>454.0</ele><time>2026-04-19T13:52:09.001Z</time></trkpt><trkpt lat="36.99217725928473" lon="15.06994472609869"><ele>454.0</ele><time>2026-04-19T13:52:11Z</time></trkpt><trkpt lat="36.9922224142684" lon="15.069861320676736"><ele>454.00000000000006</ele><time>2026-04-19T13:52:13Z</time></trkpt><trkpt lat="36.99228004675885" lon="15.069784840400803"><ele>454.0</ele><time>2026-04-19T13:52:15Z</time></trkpt><trkpt lat="36.99233465310277" lon="15.069700049706103"><ele>454.33333333333337</ele><time>2026-04-19T13:52:18Z</time></trkpt><trkpt lat="36.99237843117877" lon="15.069616251034525"><ele>454.6666666666667</ele><time>2026-04-19T13:52:20Z</time></trkpt><trkpt lat="36.992443770563966" lon="15.069513864537615"><ele>455.0</ele><time>2026-04-19T13:52:22Z</time></trkpt><trkpt lat="36.99251887950115" lon="15.069402056883918"><ele>455.33333333333337</ele><time>2026-04-19T13:52:24Z</time></trkpt><trkpt lat="36.99256926240577" lon="15.069352383589582"><ele>455.6666666666667</ele><time>2026-04-19T13:52:25Z</time></trkpt><trkpt lat="36.99262183100521" lon="15.069307608308902"><ele>456.0</ele><time>2026-04-19T13:52:26Z</time></trkpt><trkpt lat="36.992675275875236" lon="15.069259638490706"><ele>456.0</ele><time>2026-04-19T13:52:27Z</time></trkpt><trkpt lat="36.99276977915656" lon="15.069170513793773"><ele>456.0</ele><time>2026-04-19T13:52:29Z</time></trkpt><trkpt lat="36.992876661687546" lon="15.0690943450421"><ele>456.0</ele><time>2026-04-19T13:52:31Z</time></trkpt><trkpt lat="36.99298708596394" lon="15.06902231703643"><ele>456.0</ele><time>2026-04-19T13:52:33Z</time></trkpt><trkpt lat="36.9930396341596" lon="15.068978710260218"><ele>456.0</ele><time>2026-04-19T13:52:34Z</time></trkpt><trkpt lat="36.99312705018649" lon="15.068881568669457"><ele>456.0</ele><time>2026-04-19T13:52:36Z</time></trkpt><trkpt lat="36.99320426831244" lon="15.068797617469352"><ele>456.0</ele><time>2026-04-19T13:52:38Z</time></trkpt><trkpt lat="36.99326019162796" lon="15.068703174750064"><ele>456.0</ele><time>2026-04-19T13:52:40Z</time></trkpt><trkpt lat="36.99330663742427" lon="15.068609598221224"><ele>456.0</ele><time>2026-04-19T13:52:42Z</time></trkpt><trkpt lat="36.993363670657054" lon="15.068522077105547"><ele>456.0</ele><time>2026-04-19T13:52:44Z</time></trkpt><trkpt lat="36.99342416533619" lon="15.068427719241157"><ele>456.0</ele><time>2026-04-19T13:52:46Z</time></trkpt><trkpt lat="36.993483483331865" lon="15.068322419719278"><ele>456.0</ele><time>2026-04-19T13:52:48Z</time></trkpt><trkpt lat="36.99354532488227" lon="15.068200855096794"><ele>456.0</ele><time>2026-04-19T13:52:50Z</time></trkpt><trkpt lat="36.99360398361652" lon="15.068060048251802"><ele>456.0</ele><time>2026-04-19T13:52:52Z</time></trkpt><trkpt lat="36.99362765928236" lon="15.067982034093989"><ele>456.0</ele><time>2026-04-19T13:52:53Z</time></trkpt><trkpt lat="36.99364737964588" lon="15.067903080477048"><ele>456.0</ele><time>2026-04-19T13:52:54Z</time></trkpt><trkpt lat="36.993661048850335" lon="15.067821962085358"><ele>455.99999999999994</ele><time>2026-04-19T13:52:55Z</time></trkpt><trkpt lat="36.99369003125395" lon="15.067748576933482"><ele>456.0</ele><time>2026-04-19T13:52:56Z</time></trkpt><trkpt lat="36.993709738569024" lon="15.067669348740628"><ele>456.0</ele><time>2026-04-19T13:52:57Z</time></trkpt><trkpt lat="36.99373211366294" lon="15.067591992220013"><ele>455.99999999999994</ele><time>2026-04-19T13:52:58Z</time></trkpt><trkpt lat="36.99376078121793" lon="15.067520997617969"><ele>456.0</ele><time>2026-04-19T13:52:59Z</time></trkpt><trkpt lat="36.993778142018115" lon="15.067437332654466"><ele>456.0</ele><time>2026-04-19T13:53:00Z</time></trkpt><trkpt lat="36.99381631326728" lon="15.067364947184563"><ele>455.85714285714283</ele><time>2026-04-19T13:53:01Z</time></trkpt><trkpt lat="36.99386884073349" lon="15.067306268924796"><ele>455.71428571428567</ele><time>2026-04-19T13:53:02Z</time></trkpt><trkpt lat="36.99389712282234" lon="15.06722545146872"><ele>455.57142857142856</ele><time>2026-04-19T13:53:03Z</time></trkpt><trkpt lat="36.99394114845375" lon="15.067159286620784"><ele>455.42857142857144</ele><time>2026-04-19T13:53:04Z</time></trkpt><trkpt lat="36.99398204910552" lon="15.067093523000935"><ele>455.2857142857143</ele><time>2026-04-19T13:53:05Z</time></trkpt><trkpt lat="36.99402352487715" lon="15.067030549130832"><ele>455.1428571428571</ele><time>2026-04-19T13:53:06Z</time></trkpt><trkpt lat="36.99408107652344" lon="15.066988780583726"><ele>455.0</ele><time>2026-04-19T13:53:07Z</time></trkpt><trkpt lat="36.99418289745077" lon="15.066890242730254"><ele>455.0</ele><time>2026-04-19T13:53:09Z</time></trkpt><trkpt lat="36.99424015851321" lon="15.06684086765977"><ele>455.0</ele><time>2026-04-19T13:53:10Z</time></trkpt><trkpt lat="36.99430016115972" lon="15.066789128575861"><ele>455.0</ele><time>2026-04-19T13:53:11Z</time></trkpt><trkpt lat="36.994360331568465" lon="15.06674073435136"><ele>455.0</ele><time>2026-04-19T13:53:12Z</time></trkpt><trkpt lat="36.99442325206109" lon="15.066689864769371"><ele>455.0</ele><time>2026-04-19T13:53:13Z</time></trkpt><trkpt lat="36.99448298486261" lon="15.066641572352975"><ele>455.0</ele><time>2026-04-19T13:53:14Z</time></trkpt><trkpt lat="36.994546723245136" lon="15.066590041527906"><ele>455.0</ele><time>2026-04-19T13:53:15Z</time></trkpt><trkpt lat="36.99461027685198" lon="15.066537673864435"><ele>455.42857142857144</ele><time>2026-04-19T13:53:16Z</time></trkpt><trkpt lat="36.99467239389475" lon="15.066484958572344"><ele>455.8571428571429</ele><time>2026-04-19T13:53:17Z</time></trkpt><trkpt lat="36.99472368292872" lon="15.06641738816265"><ele>456.2857142857143</ele><time>2026-04-19T13:53:18Z</time></trkpt><trkpt lat="36.994786889686345" lon="15.066367240763139"><ele>456.7142857142857</ele><time>2026-04-19T13:53:19Z</time></trkpt><trkpt lat="36.994847510724576" lon="15.066313757808347"><ele>457.14285714285717</ele><time>2026-04-19T13:53:20Z</time></trkpt><trkpt lat="36.9949048176345" lon="15.066254750267833"><ele>457.57142857142856</ele><time>2026-04-19T13:53:21Z</time></trkpt><trkpt lat="36.994964980566074" lon="15.066203375260539"><ele>458.0</ele><time>2026-04-19T13:53:22Z</time></trkpt><trkpt lat="36.99501959531945" lon="15.066144682226303"><ele>457.99999999999994</ele><time>2026-04-19T13:53:23Z</time></trkpt><trkpt lat="36.99507432020495" lon="15.066086772591598"><ele>458.0</ele><time>2026-04-19T13:53:24Z</time></trkpt><trkpt lat="36.99512158679592" lon="15.066023738178762"><ele>458.0</ele><time>2026-04-19T13:53:25Z</time></trkpt><trkpt lat="36.995164917625644" lon="15.065958398925824"><ele>458.0</ele><time>2026-04-19T13:53:26Z</time></trkpt><trkpt lat="36.995204371972825" lon="15.065891879756824"><ele>457.99999999999994</ele><time>2026-04-19T13:53:27Z</time></trkpt><trkpt lat="36.99524317444192" lon="15.06582701537298"><ele>458.0</ele><time>2026-04-19T13:53:28Z</time></trkpt><trkpt lat="36.99530009842533" lon="15.065691669471152"><ele>458.2</ele><time>2026-04-19T13:53:30Z</time></trkpt><trkpt lat="36.99537050147255" lon="15.065575228200942"><ele>458.4</ele><time>2026-04-19T13:53:32Z</time></trkpt><trkpt lat="36.99541594882767" lon="15.065439050528397"><ele>458.59999999999997</ele><time>2026-04-19T13:53:34Z</time></trkpt><trkpt lat="36.99547086446983" lon="15.065312087987213"><ele>458.79999999999995</ele><time>2026-04-19T13:53:36Z</time></trkpt><trkpt lat="36.995512988730326" lon="15.065222244401149"><ele>459.0</ele><time>2026-04-19T13:53:38Z</time></trkpt><trkpt lat="36.99554731026577" lon="15.065151848033299"><ele>459.0</ele><time>2026-04-19T13:53:40Z</time></trkpt><trkpt lat="36.995590782856596" lon="15.065075074159937"><ele>459.0</ele><time>2026-04-19T13:53:43Z</time></trkpt><trkpt lat="36.99562394344788" lon="15.065001584651153"><ele>459.0</ele><time>2026-04-19T13:53:45Z</time></trkpt><trkpt lat="36.99567958250128" lon="15.064896301804952"><ele>462.0</ele><time>2026-04-19T13:53:47Z</time></trkpt><trkpt lat="36.99573257962793" lon="15.0647989094574"><ele>462.0</ele><time>2026-04-19T13:53:49Z</time></trkpt><trkpt lat="36.995778216509606" lon="15.0647081027975"><ele>462.0</ele><time>2026-04-19T13:53:51Z</time></trkpt></trkseg><trkseg><trkpt lat="36.99657410871922" lon="15.066265984805407"><ele>457.0</ele><time>2026-04-19T14:49:42Z</time></trkpt><trkpt lat="36.996496976530175" lon="15.066161614965575"><ele>457.00000000000006</ele><time>2026-04-19T14:49:44Z</time></trkpt><trkpt lat="36.996402099126605" lon="15.066081445176273"><ele>457.00000000000006</ele><time>2026-04-19T14:49:46Z</time></trkpt><trkpt lat="36.996309173801855" lon="15.066065332644728"><ele>457.0</ele><time>2026-04-19T14:49:49Z</time></trkpt><trkpt lat="36.996227959690685" lon="15.066088853751078"><ele>457.0</ele><time>2026-04-19T14:49:52Z</time></trkpt><trkpt lat="36.996151675978545" lon="15.06611301881218"><ele>457.00000000000006</ele><time>2026-04-19T14:49:55Z</time></trkpt><trkpt lat="36.99610310271975" lon="15.066226699351573"><ele>457.0</ele><time>2026-04-19T14:49:58Z</time></trkpt><trkpt lat="36.9960847922077" lon="15.06630859105067"><ele>457.0</ele><time>2026-04-19T14:50:32Z</time></trkpt><trkpt lat="36.9960676667382" lon="15.066394935671726"><ele>457.0</ele><time>2026-04-19T14:50:34Z</time></trkpt><trkpt lat="36.996045290039014" lon="15.066538721931025"><ele>457.00000000000006</ele><time>2026-04-19T14:50:36Z</time></trkpt><trkpt lat="36.99599616978656" lon="15.0665992580204"><ele>457.0</ele><time>2026-04-19T14:50:37Z</time></trkpt><trkpt lat="36.99597814226387" lon="15.066679310626078"><ele>457.33333333333337</ele><time>2026-04-19T14:50:38Z</time></trkpt><trkpt lat="36.99596838197192" lon="15.066776231312621"><ele>457.6666666666667</ele><time>2026-04-19T14:50:39Z</time></trkpt><trkpt lat="36.99593667001476" lon="15.066863471350702"><ele>458.0</ele><time>2026-04-19T14:50:40Z</time></trkpt><trkpt lat="36.995934537110536" lon="15.066949718450527"><ele>458.33333333333337</ele><time>2026-04-19T14:50:41Z</time></trkpt><trkpt lat="36.99589857835667" lon="15.067032620306636"><ele>458.6666666666667</ele><time>2026-04-19T14:50:42Z</time></trkpt><trkpt lat="36.99587486296072" lon="15.067128212878346"><ele>459.0</ele><time>2026-04-19T14:50:43Z</time></trkpt><trkpt lat="36.99586598523506" lon="15.06721774339877"><ele>459.0</ele><time>2026-04-19T14:50:44Z</time></trkpt><trkpt lat="36.99584334991008" lon="15.067338168446664"><ele>459.0</ele><time>2026-04-19T14:50:46Z</time></trkpt><trkpt lat="36.99580937202081" lon="15.067444826575965"><ele>459.0</ele><time>2026-04-19T14:50:48Z</time></trkpt><trkpt lat="36.99578008386502" lon="15.067569566641236"><ele>459.0</ele><time>2026-04-19T14:50:50Z</time></trkpt><trkpt lat="36.9957496273196" lon="15.067689875776079"><ele>459.0</ele><time>2026-04-19T14:50:52Z</time></trkpt><trkpt lat="36.995728207499184" lon="15.067771782094106"><ele>459.0</ele><time>2026-04-19T14:50:54Z</time></trkpt><trkpt lat="36.995745327657914" lon="15.067865610813714"><ele>459.0</ele><time>2026-04-19T14:50:57Z</time></trkpt><trkpt lat="36.995805769135956" lon="15.067905367819504"><ele>459.0</ele><time>2026-04-19T14:50:59Z</time></trkpt><trkpt lat="36.9958960951197" lon="15.06792448123579"><ele>459.0</ele><time>2026-04-19T14:51:02Z</time></trkpt><trkpt lat="36.9959584104935" lon="15.067894384875514"><ele>459.0</ele><time>2026-04-19T14:51:04Z</time></trkpt><trkpt lat="36.99600450076336" lon="15.067804708214023"><ele>459.0</ele><time>2026-04-19T14:51:07Z</time></trkpt><trkpt lat="36.99602770898776" lon="15.067718115077056"><ele>459.0</ele><time>2026-04-19T14:51:09Z</time></trkpt><trkpt lat="36.99606117624356" lon="15.067632801486681"><ele>459.0</ele><time>2026-04-19T14:51:11Z</time></trkpt><trkpt lat="36.99609423537864" lon="15.067552066193475"><ele>459.0</ele><time>2026-04-19T14:51:13Z</time></trkpt><trkpt lat="36.99614035790336" lon="15.06747335071166"><ele>459.0</ele><time>2026-04-19T14:51:16Z</time></trkpt><trkpt lat="36.99613585614174" lon="15.067381129851139"><ele>459.0</ele><time>2026-04-19T14:51:19Z</time></trkpt><trkpt lat="36.99610420195339" lon="15.067282300649671"><ele>459.0</ele><time>2026-04-19T14:51:22Z</time></trkpt><trkpt lat="36.99604602017778" lon="15.067238632901867"><ele>459.0</ele><time>2026-04-19T14:51:24Z</time></trkpt><trkpt lat="36.99596706618268" lon="15.067211980109604"><ele>459.0</ele><time>2026-04-19T14:51:27Z</time></trkpt><trkpt lat="36.99591118084112" lon="15.067126246704388"><ele>459.0</ele><time>2026-04-19T14:51:30Z</time></trkpt><trkpt lat="36.9959154205249" lon="15.067031358526647"><ele>459.0</ele><time>2026-04-19T14:51:32Z</time></trkpt><trkpt lat="36.99595565843051" lon="15.066928624207291"><ele>459.0</ele><time>2026-04-19T14:51:34Z</time></trkpt><trkpt lat="36.995970690893294" lon="15.06683496041472"><ele>459.0</ele><time>2026-04-19T14:51:36Z</time></trkpt><trkpt lat="36.99599261233229" lon="15.06672876181482"><ele>458.6</ele><time>2026-04-19T14:51:39Z</time></trkpt><trkpt lat="36.99600711706166" lon="15.066607121886795"><ele>458.2</ele><time>2026-04-19T14:52:37.001Z</time></trkpt><trkpt lat="36.99604816605003" lon="15.066476800570372"><ele>457.80000000000007</ele><time>2026-04-19T14:52:39.001Z</time></trkpt><trkpt lat="36.996083682975325" lon="15.066380722391344"><ele>457.40000000000003</ele><time>2026-04-19T14:52:41.001Z</time></trkpt><trkpt lat="36.996103336820944" lon="15.066305280570141"><ele>457.0</ele><time>2026-04-19T14:52:44.001Z</time></trkpt><trkpt lat="36.996058843320675" lon="15.066412199018234"><ele>457.0</ele><time>2026-04-19T14:53:06.001Z</time></trkpt><trkpt lat="36.99604897780236" lon="15.066506291984703"><ele>457.00000000000006</ele><time>2026-04-19T14:53:07.001Z</time></trkpt><trkpt lat="36.99602271098854" lon="15.066635161748524"><ele>457.00000000000006</ele><time>2026-04-19T14:53:09.001Z</time></trkpt><trkpt lat="36.99599483528427" lon="15.066758945974314"><ele>457.0</ele><time>2026-04-19T14:53:11.001Z</time></trkpt><trkpt lat="36.99596766224631" lon="15.066879609938553"><ele>457.0</ele><time>2026-04-19T14:53:13.001Z</time></trkpt><trkpt lat="36.99594209816255" lon="15.066993129227477"><ele>457.40000000000003</ele><time>2026-04-19T14:53:15.001Z</time></trkpt><trkpt lat="36.99589984714557" lon="15.06710159594069"><ele>457.80000000000007</ele><time>2026-04-19T14:53:17.001Z</time></trkpt><trkpt lat="36.99589175845576" lon="15.06722232079204"><ele>458.2</ele><time>2026-04-19T14:53:19.001Z</time></trkpt><trkpt lat="36.99591076884057" lon="15.067339229142688"><ele>458.6</ele><time>2026-04-19T14:53:21.001Z</time></trkpt><trkpt lat="36.99597641311709" lon="15.067319439442942"><ele>459.0</ele><time>2026-04-19T14:53:22.001Z</time></trkpt><trkpt lat="36.99579617695185" lon="15.067500911161464"><ele>459.0</ele><time>2026-04-19T14:53:24.001Z</time></trkpt><trkpt lat="36.99577335683432" lon="15.067577579649345"><ele>459.0</ele><time>2026-04-19T14:53:27.001Z</time></trkpt><trkpt lat="36.99575424830268" lon="15.067655173466976"><ele>459.0</ele><time>2026-04-19T14:53:53.001Z</time></trkpt><trkpt lat="36.99572863251386" lon="15.067735142381991"><ele>459.0</ele><time>2026-04-19T14:53:56.001Z</time></trkpt><trkpt lat="36.995716317165666" lon="15.0678240510837"><ele>459.0</ele><time>2026-04-19T14:54:00.001Z</time></trkpt><trkpt lat="36.995755974320105" lon="15.06790467048143"><ele>459.0</ele><time>2026-04-19T14:54:04.001Z</time></trkpt><trkpt lat="36.99584790785302" lon="15.067937914499387"><ele>459.0</ele><time>2026-04-19T14:54:16.001Z</time></trkpt><trkpt lat="36.995941064834774" lon="15.06792703441849"><ele>459.0</ele><time>2026-04-19T14:54:18.001Z</time></trkpt><trkpt lat="36.995995725686804" lon="15.067845098208418"><ele>459.0</ele><time>2026-04-19T14:54:20.001Z</time></trkpt><trkpt lat="36.99602082734115" lon="15.067718735368896"><ele>459.0</ele><time>2026-04-19T14:54:22.001Z</time></trkpt><trkpt lat="36.99604371564537" lon="15.067593311418445"><ele>459.0</ele><time>2026-04-19T14:54:24.001Z</time></trkpt><trkpt lat="36.99606574798925" lon="15.067478049696831"><ele>459.0</ele><time>2026-04-19T14:54:26.001Z</time></trkpt><trkpt lat="36.99608390396455" lon="15.067388449570037"><ele>459.0</ele><time>2026-04-19T14:54:28.001Z</time></trkpt><trkpt lat="36.996084141508085" lon="15.067290970898867"><ele>459.0</ele><time>2026-04-19T14:54:31.001Z</time></trkpt><trkpt lat="36.99603358420645" lon="15.067243252804063"><ele>459.0</ele><time>2026-04-19T14:54:33.001Z</time></trkpt><trkpt lat="36.9959513073488" lon="15.067249717785142"><ele>459.0</ele><time>2026-04-19T14:54:36.001Z</time></trkpt><trkpt lat="36.9958865373797" lon="15.067186374068035"><ele>459.0</ele><time>2026-04-19T14:54:39.001Z</time></trkpt><trkpt lat="36.995904754346924" lon="15.067101291106454"><ele>459.0</ele><time>2026-04-19T14:54:42.001Z</time></trkpt><trkpt lat="36.99592309165939" lon="15.066974731011532"><ele>459.0</ele><time>2026-04-19T14:55:37.001Z</time></trkpt><trkpt lat="36.995965631293814" lon="15.066837156286732"><ele>459.0</ele><time>2026-04-19T14:55:39.001Z</time></trkpt><trkpt lat="36.99599098273541" lon="15.066703114542078"><ele>459.0</ele><time>2026-04-19T14:55:41.001Z</time></trkpt><trkpt lat="36.99601266312422" lon="15.066613448019037"><ele>459.0</ele><time>2026-04-19T14:55:42.001Z</time></trkpt><trkpt lat="36.99604602152001" lon="15.06653164950708"><ele>459.0</ele><time>2026-04-19T14:55:43.001Z</time></trkpt><trkpt lat="36.99607701567758" lon="15.066406314987363"><ele>458.6</ele><time>2026-04-19T14:55:45.001Z</time></trkpt><trkpt lat="36.99611027057656" lon="15.066282724388488"><ele>458.2</ele><time>2026-04-19T14:55:47.001Z</time></trkpt><trkpt lat="36.99614847241699" lon="15.066167398028064"><ele>457.80000000000007</ele><time>2026-04-19T14:55:49.001Z</time></trkpt><trkpt lat="36.996188050221456" lon="15.066086990916624"><ele>457.40000000000003</ele><time>2026-04-19T14:55:52.001Z</time></trkpt><trkpt lat="36.996139804141784" lon="15.065942465341449"><ele>457.0</ele><time>2026-04-19T14:55:56.001Z</time></trkpt><trkpt lat="36.99607031322585" lon="15.065862010998528"><ele>456.8</ele><time>2026-04-19T14:55:59.001Z</time></trkpt><trkpt lat="36.99604133220731" lon="15.065777726648621"><ele>456.6</ele><time>2026-04-19T14:56:01.001Z</time></trkpt><trkpt lat="36.99599145435968" lon="15.065689953186522"><ele>456.40000000000003</ele><time>2026-04-19T14:56:04.001Z</time></trkpt><trkpt lat="36.99592505793733" lon="15.06561294148865"><ele>456.20000000000005</ele><time>2026-04-19T14:56:06.001Z</time></trkpt><trkpt lat="36.99586925327953" lon="15.065489907123986"><ele>456.0</ele><time>2026-04-19T14:56:08.001Z</time></trkpt><trkpt lat="36.99578843919015" lon="15.06537699937712"><ele>456.5</ele><time>2026-04-19T14:56:10.001Z</time></trkpt><trkpt lat="36.99575271908474" lon="15.065312084962654"><ele>457.0</ele><time>2026-04-19T14:56:11.001Z</time></trkpt><trkpt lat="36.99568818320432" lon="15.065209819025561"><ele>457.5</ele><time>2026-04-19T14:56:13.001Z</time></trkpt><trkpt lat="36.995643178426334" lon="15.065146491802905"><ele>458.0</ele><time>2026-04-19T14:56:15.001Z</time></trkpt><trkpt lat="36.99561049543956" lon="15.065069202378155"><ele>458.5</ele><time>2026-04-19T14:56:18.001Z</time></trkpt><trkpt lat="36.99566916854772" lon="15.064940066314092"><ele>459.0</ele><time>2026-04-19T14:56:21.001Z</time></trkpt><trkpt lat="36.99572058895395" lon="15.064843755739936"><ele>459.0</ele><time>2026-04-19T14:56:22.001Z</time></trkpt><trkpt lat="36.995754243862095" lon="15.06474653134957"><ele>459.0</ele><time>2026-04-19T14:56:23.001Z</time></trkpt><trkpt lat="36.99580964136261" lon="15.064681821564262"><ele>459.0</ele><time>2026-04-19T14:56:24.001Z</time></trkpt><trkpt lat="36.9958464827744" lon="15.064590841032823"><ele>459.0</ele><time>2026-04-19T14:56:25.001Z</time></trkpt><trkpt lat="36.99589424815115" lon="15.064498883113368"><ele>459.0</ele><time>2026-04-19T14:56:26.001Z</time></trkpt><trkpt lat="36.9959474544482" lon="15.06440525863041"><ele>459.0</ele><time>2026-04-19T14:56:27.001Z</time></trkpt><trkpt lat="36.99600228273285" lon="15.064315237217306"><ele>459.0</ele><time>2026-04-19T14:56:28.001Z</time></trkpt><trkpt lat="36.99605032381494" lon="15.064230076876841"><ele>459.0</ele><time>2026-04-19T14:56:29.001Z</time></trkpt><trkpt lat="36.99609404125701" lon="15.064150698999805"><ele>459.0</ele><time>2026-04-19T14:56:30.001Z</time></trkpt><trkpt lat="36.996133884035245" lon="15.06407264049157"><ele>459.0</ele><time>2026-04-19T14:56:31.001Z</time></trkpt><trkpt lat="36.99618812387806" lon="15.064006258957876"><ele>459.0</ele><time>2026-04-19T14:56:32.001Z</time></trkpt><trkpt lat="36.99622882107974" lon="15.06393167138991"><ele>459.0</ele><time>2026-04-19T14:56:33.001Z</time></trkpt><trkpt lat="36.996270853749195" lon="15.063854636250465"><ele>459.5</ele><time>2026-04-19T14:56:34.001Z</time></trkpt><trkpt lat="36.99631373828694" lon="15.063776039853847"><ele>460.0</ele><time>2026-04-19T14:56:35.001Z</time></trkpt><trkpt lat="36.99635767501952" lon="15.063695515053169"><ele>460.5</ele><time>2026-04-19T14:56:36.001Z</time></trkpt><trkpt lat="36.99639299134716" lon="15.063603035574776"><ele>461.0</ele><time>2026-04-19T14:56:37.001Z</time></trkpt><trkpt lat="36.9964449181969" lon="15.063514205832856"><ele>461.5</ele><time>2026-04-19T14:56:38.001Z</time></trkpt><trkpt lat="36.99649453358105" lon="15.06341634323116"><ele>462.0</ele><time>2026-04-19T14:56:39.001Z</time></trkpt><trkpt lat="36.996555418201254" lon="15.063312068419465"><ele>462.8</ele><time>2026-04-19T14:56:40.001Z</time></trkpt><trkpt lat="36.99661693282402" lon="15.063206794155104"><ele>463.6</ele><time>2026-04-19T14:56:41.001Z</time></trkpt><trkpt lat="36.99668044181808" lon="15.063100998327055"><ele>464.40000000000003</ele><time>2026-04-19T14:56:42.001Z</time></trkpt><trkpt lat="36.99674949042078" lon="15.062998193750637"><ele>465.20000000000005</ele><time>2026-04-19T14:56:43.001Z</time></trkpt><trkpt lat="36.99681748632808" lon="15.06289499431261"><ele>466.0</ele><time>2026-04-19T14:56:44.001Z</time></trkpt><trkpt lat="36.996880139641036" lon="15.062789355236337"><ele>466.0</ele><time>2026-04-19T14:56:45.001Z</time></trkpt><trkpt lat="36.996939382120466" lon="15.062691918356036"><ele>466.0</ele><time>2026-04-19T14:56:46.001Z</time></trkpt><trkpt lat="36.99699745310351" lon="15.06260080441721"><ele>466.0</ele><time>2026-04-19T14:56:47.001Z</time></trkpt><trkpt lat="36.99705429122997" lon="15.062511841971473"><ele>466.0</ele><time>2026-04-19T14:56:48.001Z</time></trkpt><trkpt lat="36.99710818994088" lon="15.062423580674608"><ele>466.0</ele><time>2026-04-19T14:56:49.001Z</time></trkpt><trkpt lat="36.99716053739107" lon="15.06233642606948"><ele>467.1666666666667</ele><time>2026-04-19T14:56:50.001Z</time></trkpt><trkpt lat="36.99721089139387" lon="15.062250364155702"><ele>468.33333333333337</ele><time>2026-04-19T14:56:51.001Z</time></trkpt><trkpt lat="36.99726081348402" lon="15.062166151747839"><ele>469.5</ele><time>2026-04-19T14:56:52.001Z</time></trkpt><trkpt lat="36.99730421461134" lon="15.062079546843373"><ele>470.66666666666663</ele><time>2026-04-19T14:56:53.001Z</time></trkpt><trkpt lat="36.99734100777655" lon="15.061988393090463"><ele>471.8333333333333</ele><time>2026-04-19T14:56:54.001Z</time></trkpt><trkpt lat="36.99737134355471" lon="15.061894193972387"><ele>473.0</ele><time>2026-04-19T14:56:55.001Z</time></trkpt><trkpt lat="36.99739808109191" lon="15.061801158960794"><ele>472.99999999999994</ele><time>2026-04-19T14:56:56.001Z</time></trkpt><trkpt lat="36.997426524505656" lon="15.06170667304746"><ele>473.0</ele><time>2026-04-19T14:56:57.001Z</time></trkpt><trkpt lat="36.99745128783081" lon="15.061625711172042"><ele>473.0</ele><time>2026-04-19T14:56:58.001Z</time></trkpt><trkpt lat="36.997494716490316" lon="15.0615256113601"><ele>473.0</ele><time>2026-04-19T14:57:00.001Z</time></trkpt><trkpt lat="36.99755870764623" lon="15.061468805495942"><ele>472.99999999999994</ele><time>2026-04-19T14:57:03.001Z</time></trkpt><trkpt lat="36.99765637081988" lon="15.061495437543748"><ele>473.0</ele><time>2026-04-19T14:57:06.001Z</time></trkpt><trkpt lat="36.997765252974084" lon="15.061495011927347"><ele>472.99999999999994</ele><time>2026-04-19T14:57:08.001Z</time></trkpt><trkpt lat="36.997830064394556" lon="15.061494942051732"><ele>473.0</ele><time>2026-04-19T14:57:09.001Z</time></trkpt><trkpt lat="36.99790004968946" lon="15.061495377784576"><ele>473.0</ele><time>2026-04-19T14:57:10.001Z</time></trkpt><trkpt lat="36.997973457584095" lon="15.061495836099105"><ele>473.0</ele><time>2026-04-19T14:57:11.001Z</time></trkpt><trkpt lat="36.99804799641495" lon="15.061493982824215"><ele>472.99999999999994</ele><time>2026-04-19T14:57:12.001Z</time></trkpt><trkpt lat="36.99812710044808" lon="15.06147229849235"><ele>473.0</ele><time>2026-04-19T14:57:13.001Z</time></trkpt><trkpt lat="36.99821427200401" lon="15.0614708825773"><ele>472.99999999999994</ele><time>2026-04-19T14:57:14.001Z</time></trkpt><trkpt lat="36.99829873665907" lon="15.061467665505601"><ele>473.0</ele><time>2026-04-19T14:57:15Z</time></trkpt><trkpt lat="36.99837935918521" lon="15.061464725071295"><ele>473.0</ele><time>2026-04-19T14:57:16Z</time></trkpt><trkpt lat="36.99845604340159" lon="15.061486376181918"><ele>473.0</ele><time>2026-04-19T14:57:17Z</time></trkpt><trkpt lat="36.998533910855514" lon="15.061499105737266"><ele>472.99999999999994</ele><time>2026-04-19T14:57:18Z</time></trkpt><trkpt lat="36.99861749697385" lon="15.061541947326365"><ele>473.0</ele><time>2026-04-19T14:57:19Z</time></trkpt><trkpt lat="36.99870017958697" lon="15.061592906238882"><ele>473.16666666666663</ele><time>2026-04-19T14:57:20Z</time></trkpt><trkpt lat="36.99878380764876" lon="15.061629858629649"><ele>473.3333333333333</ele><time>2026-04-19T14:57:21Z</time></trkpt><trkpt lat="36.99885646272444" lon="15.06168733617151"><ele>473.5</ele><time>2026-04-19T14:57:22Z</time></trkpt><trkpt lat="36.99893081371459" lon="15.061721137493594"><ele>473.66666666666663</ele><time>2026-04-19T14:57:23Z</time></trkpt><trkpt lat="36.9990020912959" lon="15.061715544592582"><ele>473.8333333333333</ele><time>2026-04-19T14:57:24Z</time></trkpt><trkpt lat="36.99906041985421" lon="15.061669540174845"><ele>474.0</ele><time>2026-04-19T14:57:25Z</time></trkpt><trkpt lat="36.999112811898975" lon="15.061595010146492"><ele>473.3333333333333</ele><time>2026-04-19T14:57:26Z</time></trkpt><trkpt lat="36.9991704832077" lon="15.061524877135543"><ele>472.66666666666663</ele><time>2026-04-19T14:57:27Z</time></trkpt><trkpt lat="36.999244247941405" lon="15.06147628864349"><ele>472.0</ele><time>2026-04-19T14:57:28Z</time></trkpt><trkpt lat="36.999333586505315" lon="15.061436414143408"><ele>471.3333333333333</ele><time>2026-04-19T14:57:29Z</time></trkpt><trkpt lat="36.99943056998829" lon="15.06140184671333"><ele>470.66666666666663</ele><time>2026-04-19T14:57:30Z</time></trkpt><trkpt lat="36.99951800073858" lon="15.061382554768315"><ele>470.0</ele><time>2026-04-19T14:57:31Z</time></trkpt><trkpt lat="36.999602581250926" lon="15.06137072961889"><ele>469.99999999999994</ele><time>2026-04-19T14:57:32Z</time></trkpt><trkpt lat="36.999683831671035" lon="15.061361766918704"><ele>470.0</ele><time>2026-04-19T14:57:33Z</time></trkpt><trkpt lat="36.99976415627546" lon="15.061358030510615"><ele>470.0</ele><time>2026-04-19T14:57:34Z</time></trkpt><trkpt lat="36.999844409256795" lon="15.0613990076521"><ele>470.0</ele><time>2026-04-19T14:57:35Z</time></trkpt><trkpt lat="36.999928545826336" lon="15.061429515196888"><ele>469.99999999999994</ele><time>2026-04-19T14:57:36Z</time></trkpt><trkpt lat="37.000018111742" lon="15.06143992801816"><ele>470.0</ele><time>2026-04-19T14:57:37Z</time></trkpt><trkpt lat="37.00010091306236" lon="15.061472636689166"><ele>469.99999999999994</ele><time>2026-04-19T14:57:38Z</time></trkpt><trkpt lat="37.0001825207755" lon="15.061516576780535"><ele>470.0</ele><time>2026-04-19T14:57:39Z</time></trkpt><trkpt lat="37.000253428492435" lon="15.061579872563719"><ele>470.0</ele><time>2026-04-19T14:57:40Z</time></trkpt><trkpt lat="37.00031314294194" lon="15.061650877250484"><ele>470.0</ele><time>2026-04-19T14:57:41Z</time></trkpt><trkpt lat="37.000371267463194" lon="15.061707715631535"><ele>469.99999999999994</ele><time>2026-04-19T14:57:42Z</time></trkpt><trkpt lat="37.0004304648763" lon="15.061738250074095"><ele>470.0</ele><time>2026-04-19T14:57:43.001Z</time></trkpt><trkpt lat="37.00050931667497" lon="15.0617331359421"><ele>469.99999999999994</ele><time>2026-04-19T14:57:45.001Z</time></trkpt><trkpt lat="37.000587240357966" lon="15.061711026040939"><ele>470.0</ele><time>2026-04-19T14:57:48.001Z</time></trkpt><trkpt lat="37.00064683129432" lon="15.061571340705639"><ele>470.0</ele><time>2026-04-19T14:57:50.001Z</time></trkpt><trkpt lat="37.00067170409373" lon="15.061488109854801"><ele>470.0</ele><time>2026-04-19T14:57:51.001Z</time></trkpt><trkpt lat="37.00070526335309" lon="15.06141519637604"><ele>469.99999999999994</ele><time>2026-04-19T14:57:52.001Z</time></trkpt><trkpt lat="37.00072783284799" lon="15.061329439181907"><ele>470.0</ele><time>2026-04-19T14:57:53.001Z</time></trkpt><trkpt lat="37.00074532503055" lon="15.061233086868226"><ele>469.99999999999994</ele><time>2026-04-19T14:57:54.001Z</time></trkpt><trkpt lat="37.00078193243358" lon="15.061132328213924"><ele>470.0</ele><time>2026-04-19T14:57:55.001Z</time></trkpt><trkpt lat="37.00080193800333" lon="15.061021767485196"><ele>470.0</ele><time>2026-04-19T14:57:56.001Z</time></trkpt><trkpt lat="37.00080758889367" lon="15.060906182439505"><ele>470.0</ele><time>2026-04-19T14:57:57.001Z</time></trkpt><trkpt lat="37.0008268376881" lon="15.06079583239975"><ele>469.99999999999994</ele><time>2026-04-19T14:57:58.001Z</time></trkpt><trkpt lat="37.000845458735796" lon="15.06069523691861"><ele>470.0</ele><time>2026-04-19T14:57:59.001Z</time></trkpt><trkpt lat="37.00087999494222" lon="15.060606300656808"><ele>469.99999999999994</ele><time>2026-04-19T14:58:00.001Z</time></trkpt><trkpt lat="37.00090207869972" lon="15.060512082772778"><ele>470.0</ele><time>2026-04-19T14:58:01.001Z</time></trkpt><trkpt lat="37.00092704568675" lon="15.060419968172951"><ele>470.0</ele><time>2026-04-19T14:58:02.001Z</time></trkpt><trkpt lat="37.00095668420267" lon="15.060324586699009"><ele>470.0</ele><time>2026-04-19T14:58:03.001Z</time></trkpt><trkpt lat="37.00098903617077" lon="15.060229652315574"><ele>469.99999999999994</ele><time>2026-04-19T14:58:04.001Z</time></trkpt><trkpt lat="37.001025204629705" lon="15.060136392200656"><ele>470.0</ele><time>2026-04-19T14:58:05.001Z</time></trkpt><trkpt lat="37.0010657156673" lon="15.060042785697565"><ele>469.99999999999994</ele><time>2026-04-19T14:58:06.001Z</time></trkpt><trkpt lat="37.00110915080995" lon="15.059954518865753"><ele>470.0</ele><time>2026-04-19T14:58:07.001Z</time></trkpt><trkpt lat="37.001155249637556" lon="15.059866513513361"><ele>470.0</ele><time>2026-04-19T14:58:08.001Z</time></trkpt><trkpt lat="37.00120404127648" lon="15.059781936216858"><ele>470.0</ele><time>2026-04-19T14:58:09.001Z</time></trkpt><trkpt lat="37.001258268185204" lon="15.059704379605655"><ele>469.99999999999994</ele><time>2026-04-19T14:58:10.001Z</time></trkpt><trkpt lat="37.001317023459485" lon="15.059635432561201"><ele>470.0</ele><time>2026-04-19T14:58:11.001Z</time></trkpt><trkpt lat="37.001380953021005" lon="15.059577802465979"><ele>469.99999999999994</ele><time>2026-04-19T14:58:12.001Z</time></trkpt><trkpt lat="37.00144780642825" lon="15.059522823364276"><ele>470.0</ele><time>2026-04-19T14:58:13.001Z</time></trkpt><trkpt lat="37.001516427172895" lon="15.059465835476253"><ele>470.0</ele><time>2026-04-19T14:58:14.001Z</time></trkpt><trkpt lat="37.00158414982193" lon="15.059411333088404"><ele>470.0</ele><time>2026-04-19T14:58:15.001Z</time></trkpt><trkpt lat="37.00165350867039" lon="15.059356217579628"><ele>469.99999999999994</ele><time>2026-04-19T14:58:16.001Z</time></trkpt><trkpt lat="37.00172410117726" lon="15.059300219000777"><ele>470.0</ele><time>2026-04-19T14:58:17.001Z</time></trkpt><trkpt lat="37.00178428550134" lon="15.05922290152923"><ele>470.66666666666663</ele><time>2026-04-19T14:58:18.001Z</time></trkpt><trkpt lat="37.0018585699754" lon="15.059172535486017"><ele>471.3333333333333</ele><time>2026-04-19T14:58:19.001Z</time></trkpt><trkpt lat="37.00192130302911" lon="15.059099475755781"><ele>472.0</ele><time>2026-04-19T14:58:20.001Z</time></trkpt><trkpt lat="37.00197787355865" lon="15.05901950466413"><ele>472.66666666666663</ele><time>2026-04-19T14:58:21.001Z</time></trkpt><trkpt lat="37.00203204775525" lon="15.058930487836456"><ele>473.3333333333333</ele><time>2026-04-19T14:58:22.001Z</time></trkpt><trkpt lat="37.00208479923238" lon="15.058845468941895"><ele>474.0</ele><time>2026-04-19T14:58:23.001Z</time></trkpt><trkpt lat="37.002132859657934" lon="15.058768011332484"><ele>474.0</ele><time>2026-04-19T14:58:24.001Z</time></trkpt><trkpt lat="37.002177882456216" lon="15.058692398059595"><ele>474.0</ele><time>2026-04-19T14:58:25.001Z</time></trkpt><trkpt lat="37.00221302941001" lon="15.058604979350319"><ele>474.0</ele><time>2026-04-19T14:58:26.001Z</time></trkpt><trkpt lat="37.00225345525273" lon="15.05851937649778"><ele>474.0</ele><time>2026-04-19T14:58:27.001Z</time></trkpt><trkpt lat="37.002286768189784" lon="15.058428015004658"><ele>474.0</ele><time>2026-04-19T14:58:28.001Z</time></trkpt><trkpt lat="37.002305942982794" lon="15.058331059747058"><ele>474.0</ele><time>2026-04-19T14:58:29.001Z</time></trkpt><trkpt lat="37.00233735352252" lon="15.058237976698193"><ele>474.5</ele><time>2026-04-19T14:58:30.001Z</time></trkpt><trkpt lat="37.002335010465494" lon="15.058135360497756"><ele>475.0</ele><time>2026-04-19T14:58:31.001Z</time></trkpt><trkpt lat="37.0023505721278" lon="15.058035957746776"><ele>475.5</ele><time>2026-04-19T14:58:32.001Z</time></trkpt><trkpt lat="37.0023610764669" lon="15.057935037199664"><ele>476.0</ele><time>2026-04-19T14:58:33.001Z</time></trkpt><trkpt lat="37.00238778695205" lon="15.057834191333058"><ele>476.5</ele><time>2026-04-19T14:58:34.001Z</time></trkpt><trkpt lat="37.002400266326056" lon="15.057732475246993"><ele>477.0</ele><time>2026-04-19T14:58:35.001Z</time></trkpt><trkpt lat="37.00241195773086" lon="15.057637181860702"><ele>477.0</ele><time>2026-04-19T14:58:36.001Z</time></trkpt><trkpt lat="37.00242246239517" lon="15.057551561222386"><ele>477.00000000000006</ele><time>2026-04-19T14:58:37.001Z</time></trkpt><trkpt lat="37.0024318539402" lon="15.057471552140903"><ele>477.00000000000006</ele><time>2026-04-19T14:58:38.001Z</time></trkpt><trkpt lat="37.00244803044714" lon="15.057325907731883"><ele>477.0</ele><time>2026-04-19T14:58:40.001Z</time></trkpt><trkpt lat="37.002455712400945" lon="15.057194134897136"><ele>477.0</ele><time>2026-04-19T14:58:42.001Z</time></trkpt><trkpt lat="37.002485998201195" lon="15.057072612128756"><ele>477.20000000000005</ele><time>2026-04-19T14:58:44.001Z</time></trkpt><trkpt lat="37.00252164292341" lon="15.056946583530925"><ele>477.40000000000003</ele><time>2026-04-19T14:58:46.001Z</time></trkpt><trkpt lat="37.00259306790782" lon="15.05683193696017"><ele>477.59999999999997</ele><time>2026-04-19T14:58:48.001Z</time></trkpt><trkpt lat="37.00268794026594" lon="15.056740027369507"><ele>477.79999999999995</ele><time>2026-04-19T14:58:50.001Z</time></trkpt><trkpt lat="37.00277281698581" lon="15.056659679477809"><ele>478.0</ele><time>2026-04-19T14:58:52.001Z</time></trkpt><trkpt lat="37.002837654741164" lon="15.05657521102276"><ele>479.79999999999995</ele><time>2026-04-19T14:58:54.001Z</time></trkpt><trkpt lat="37.00290635496058" lon="15.056533264298885"><ele>481.59999999999997</ele><time>2026-04-19T14:58:56.001Z</time></trkpt><trkpt lat="37.00297084776981" lon="15.056457870040697"><ele>483.40000000000003</ele><time>2026-04-19T14:58:58.001Z</time></trkpt><trkpt lat="37.00303938192477" lon="15.056384270918834"><ele>485.20000000000005</ele><time>2026-04-19T14:59:00.001Z</time></trkpt><trkpt lat="37.00312809312697" lon="15.056326105830948"><ele>487.0</ele><time>2026-04-19T14:59:02.001Z</time></trkpt><trkpt lat="37.00321063317149" lon="15.056248796974339"><ele>487.0</ele><time>2026-04-19T14:59:04.001Z</time></trkpt><trkpt lat="37.00329519422299" lon="15.056169595216668"><ele>487.00000000000006</ele><time>2026-04-19T14:59:06.001Z</time></trkpt><trkpt lat="37.003380609739345" lon="15.056089593010196"><ele>487.00000000000006</ele><time>2026-04-19T14:59:08.001Z</time></trkpt><trkpt lat="37.00346715288436" lon="15.056011119614837"><ele>487.0</ele><time>2026-04-19T14:59:10.001Z</time></trkpt><trkpt lat="37.003541276319254" lon="15.055943915467005"><ele>487.0</ele><time>2026-04-19T14:59:12.001Z</time></trkpt><trkpt lat="37.003597811708794" lon="15.055892656144836"><ele>486.40000000000003</ele><time>2026-04-19T14:59:14.001Z</time></trkpt><trkpt lat="37.00365847995661" lon="15.055817875650266"><ele>485.80000000000007</ele><time>2026-04-19T14:59:17.001Z</time></trkpt><trkpt lat="37.003726526109105" lon="15.055743586660242"><ele>485.2</ele><time>2026-04-19T14:59:19.001Z</time></trkpt><trkpt lat="37.00381149081773" lon="15.05567223232525"><ele>484.6</ele><time>2026-04-19T14:59:21.001Z</time></trkpt><trkpt lat="37.00386049503189" lon="15.055564699355418"><ele>484.0</ele><time>2026-04-19T14:59:23.001Z</time></trkpt><trkpt lat="37.00391348358513" lon="15.055463025578126"><ele>484.0</ele><time>2026-04-19T14:59:25.001Z</time></trkpt><trkpt lat="37.003959699307806" lon="15.055349419253549"><ele>484.0</ele><time>2026-04-19T14:59:27.001Z</time></trkpt><trkpt lat="37.00399657866412" lon="15.055208672264875"><ele>484.0</ele><time>2026-04-19T14:59:29.001Z</time></trkpt><trkpt lat="37.004026400400974" lon="15.055062220021451"><ele>484.0</ele><time>2026-04-19T14:59:31.001Z</time></trkpt><trkpt lat="37.004036214835786" lon="15.054908095844059"><ele>483.71428571428567</ele><time>2026-04-19T14:59:33.001Z</time></trkpt><trkpt lat="37.004034125170456" lon="15.054828646394025"><ele>483.4285714285714</ele><time>2026-04-19T14:59:34.001Z</time></trkpt><trkpt lat="37.00404770732693" lon="15.054748547444381"><ele>483.1428571428571</ele><time>2026-04-19T14:59:35.001Z</time></trkpt><trkpt lat="37.0040454423038" lon="15.0546678559665"><ele>482.8571428571429</ele><time>2026-04-19T14:59:36.001Z</time></trkpt><trkpt lat="37.00402383999225" lon="15.054585550150396"><ele>482.5714285714286</ele><time>2026-04-19T14:59:37.001Z</time></trkpt><trkpt lat="37.00403264296978" lon="15.05450031293376"><ele>482.28571428571433</ele><time>2026-04-19T14:59:38.001Z</time></trkpt><trkpt lat="37.00402612336591" lon="15.054416147004666"><ele>482.0</ele><time>2026-04-19T14:59:39.001Z</time></trkpt><trkpt lat="37.00401934995729" lon="15.05432870473319"><ele>481.99999999999994</ele><time>2026-04-19T14:59:40.001Z</time></trkpt><trkpt lat="37.00401296583666" lon="15.054242949465134"><ele>482.0</ele><time>2026-04-19T14:59:41.001Z</time></trkpt><trkpt lat="37.00401006877748" lon="15.054154714938838"><ele>482.0</ele><time>2026-04-19T14:59:42.001Z</time></trkpt><trkpt lat="37.00400388305022" lon="15.05406533165313"><ele>482.0</ele><time>2026-04-19T14:59:43.001Z</time></trkpt><trkpt lat="37.00403702034218" lon="15.053966850780531"><ele>481.99999999999994</ele><time>2026-04-19T14:59:44.001Z</time></trkpt><trkpt lat="37.004096388787495" lon="15.053868791469268"><ele>482.0</ele><time>2026-04-19T14:59:45.001Z</time></trkpt><trkpt lat="37.00416458519172" lon="15.053770977101694"><ele>480.8</ele><time>2026-04-19T14:59:46.001Z</time></trkpt><trkpt lat="37.00423436831744" lon="15.05367731228484"><ele>479.6</ele><time>2026-04-19T14:59:47.001Z</time></trkpt><trkpt lat="37.00430221287807" lon="15.053583261662455"><ele>478.40000000000003</ele><time>2026-04-19T14:59:48.001Z</time></trkpt><trkpt lat="37.00436773233301" lon="15.053488314584474"><ele>477.20000000000005</ele><time>2026-04-19T14:59:49.001Z</time></trkpt><trkpt lat="37.00442984437054" lon="15.053396223782169"><ele>476.0</ele><time>2026-04-19T14:59:50.001Z</time></trkpt><trkpt lat="37.00448278597357" lon="15.053315796362515"><ele>476.8333333333333</ele><time>2026-04-19T14:59:51.001Z</time></trkpt><trkpt lat="37.00453246527724" lon="15.053239832527558"><ele>477.66666666666663</ele><time>2026-04-19T14:59:52.001Z</time></trkpt><trkpt lat="37.00457674054517" lon="15.053175258866371"><ele>478.5</ele><time>2026-04-19T14:59:53.001Z</time></trkpt><trkpt lat="37.00462822883486" lon="15.053104005367468"><ele>479.33333333333337</ele><time>2026-04-19T14:59:55.001Z</time></trkpt><trkpt lat="37.00468217327451" lon="15.05305826670284"><ele>480.1666666666667</ele><time>2026-04-19T15:00:09.001Z</time></trkpt><trkpt lat="37.00461751762802" lon="15.052891302788913"><ele>481.0</ele><time>2026-04-19T15:00:11.001Z</time></trkpt><trkpt lat="37.00461500477658" lon="15.0528118087667"><ele>481.00000000000006</ele><time>2026-04-19T15:00:12.001Z</time></trkpt><trkpt lat="37.0046229345681" lon="15.052713583480156"><ele>481.0</ele><time>2026-04-19T15:00:13.001Z</time></trkpt><trkpt lat="37.004625785358144" lon="15.05261994604439"><ele>481.0</ele><time>2026-04-19T15:00:14.001Z</time></trkpt><trkpt lat="37.00464917305119" lon="15.052469875570642"><ele>481.0</ele><time>2026-04-19T15:00:16.001Z</time></trkpt><trkpt lat="37.004655430016236" lon="15.052386722293345"><ele>481.00000000000006</ele><time>2026-04-19T15:00:17.001Z</time></trkpt><trkpt lat="37.00466090898042" lon="15.052299347616163"><ele>481.0</ele><time>2026-04-19T15:00:18.001Z</time></trkpt><trkpt lat="37.00466611565605" lon="15.05221118689949"><ele>482.2857142857142</ele><time>2026-04-19T15:00:19.001Z</time></trkpt><trkpt lat="37.004670103157196" lon="15.05211724545432"><ele>483.57142857142856</ele><time>2026-04-19T15:00:20.001Z</time></trkpt><trkpt lat="37.00467184667277" lon="15.052026080775166"><ele>484.85714285714283</ele><time>2026-04-19T15:00:21.001Z</time></trkpt><trkpt lat="37.00466763732256" lon="15.05193287337073"><ele>486.1428571428571</ele><time>2026-04-19T15:00:22.001Z</time></trkpt><trkpt lat="37.00466200085079" lon="15.051843638357036"><ele>487.42857142857144</ele><time>2026-04-19T15:00:23.001Z</time></trkpt><trkpt lat="37.00465261922607" lon="15.051753932171735"><ele>488.7142857142857</ele><time>2026-04-19T15:00:24.001Z</time></trkpt><trkpt lat="37.004640889141626" lon="15.051667550151885"><ele>490.0</ele><time>2026-04-19T15:00:25.001Z</time></trkpt><trkpt lat="37.00462505295772" lon="15.051582042139495"><ele>490.1428571428571</ele><time>2026-04-19T15:00:26.001Z</time></trkpt><trkpt lat="37.00460583230671" lon="15.051498689998702"><ele>490.2857142857143</ele><time>2026-04-19T15:00:27.001Z</time></trkpt><trkpt lat="37.0045853314927" lon="15.051416449085904"><ele>490.42857142857144</ele><time>2026-04-19T15:00:28.001Z</time></trkpt><trkpt lat="37.00456139584587" lon="15.051335526964994"><ele>490.57142857142856</ele><time>2026-04-19T15:00:29.001Z</time></trkpt><trkpt lat="37.00453304540663" lon="15.051253836620198"><ele>490.71428571428567</ele><time>2026-04-19T15:00:30.001Z</time></trkpt><trkpt lat="37.004500186371914" lon="15.05116896337342"><ele>490.85714285714283</ele><time>2026-04-19T15:00:31.001Z</time></trkpt><trkpt lat="37.00446799669123" lon="15.051090946461347"><ele>491.0</ele><time>2026-04-19T15:00:32.001Z</time></trkpt><trkpt lat="37.004434781348394" lon="15.051018607661643"><ele>491.0</ele><time>2026-04-19T15:00:33.001Z</time></trkpt><trkpt lat="37.004352044968854" lon="15.050835315866951"><ele>491.0</ele><time>2026-04-19T15:00:38.001Z</time></trkpt><trkpt lat="37.00430460876286" lon="15.050736685271719"><ele>491.0</ele><time>2026-04-19T15:00:40.001Z</time></trkpt><trkpt lat="37.004270107477964" lon="15.05066643335309"><ele>491.0</ele><time>2026-04-19T15:00:41.001Z</time></trkpt><trkpt lat="37.00423408713054" lon="15.050594246426868"><ele>491.0</ele><time>2026-04-19T15:00:42.001Z</time></trkpt><trkpt lat="37.004197107763275" lon="15.05052153470734"><ele>489.66666666666663</ele><time>2026-04-19T15:00:43.001Z</time></trkpt><trkpt lat="37.00415936372131" lon="15.050447999625492"><ele>488.3333333333333</ele><time>2026-04-19T15:00:44.001Z</time></trkpt><trkpt lat="37.004117317769435" lon="15.050367359245001"><ele>487.0</ele><time>2026-04-19T15:00:45.001Z</time></trkpt><trkpt lat="37.00406964271988" lon="15.050277421325713"><ele>485.66666666666663</ele><time>2026-04-19T15:00:46.001Z</time></trkpt><trkpt lat="37.0040178943942" lon="15.050181506520675"><ele>484.3333333333333</ele><time>2026-04-19T15:00:47.001Z</time></trkpt><trkpt lat="37.00396335869907" lon="15.050080425296812"><ele>483.0</ele><time>2026-04-19T15:00:48.001Z</time></trkpt><trkpt lat="37.00390461750379" lon="15.049974449701837"><ele>483.59999999999997</ele><time>2026-04-19T15:00:49.001Z</time></trkpt><trkpt lat="37.003842606292594" lon="15.049865168178961"><ele>484.19999999999993</ele><time>2026-04-19T15:00:50.001Z</time></trkpt><trkpt lat="37.00377802205203" lon="15.04975346186861"><ele>484.8</ele><time>2026-04-19T15:00:51.001Z</time></trkpt><trkpt lat="37.00371138266681" lon="15.049642956519042"><ele>485.4</ele><time>2026-04-19T15:00:52.001Z</time></trkpt><trkpt lat="37.00364192846142" lon="15.049532215414692"><ele>486.0</ele><time>2026-04-19T15:00:53.001Z</time></trkpt><trkpt lat="37.00357184821907" lon="15.049425078599352"><ele>486.0</ele><time>2026-04-19T15:00:54.001Z</time></trkpt><trkpt lat="37.00349872845109" lon="15.049321237480147"><ele>486.0</ele><time>2026-04-19T15:00:55.001Z</time></trkpt><trkpt lat="37.003423726011775" lon="15.049224648934903"><ele>486.0</ele><time>2026-04-19T15:00:56.001Z</time></trkpt><trkpt lat="37.003350174132024" lon="15.049134776905124"><ele>486.0</ele><time>2026-04-19T15:00:57.001Z</time></trkpt><trkpt lat="37.00327917777076" lon="15.049054562410431"><ele>486.0</ele><time>2026-04-19T15:00:58.001Z</time></trkpt><trkpt lat="37.00320743776151" lon="15.048977811291758"><ele>487.3333333333333</ele><time>2026-04-19T15:00:59.001Z</time></trkpt><trkpt lat="37.00313609048298" lon="15.048909797264512"><ele>488.66666666666663</ele><time>2026-04-19T15:01:00.001Z</time></trkpt><trkpt lat="37.003067864105205" lon="15.048848686492663"><ele>490.0</ele><time>2026-04-19T15:01:01.001Z</time></trkpt><trkpt lat="37.003000657472306" lon="15.048787811123358"><ele>491.3333333333333</ele><time>2026-04-19T15:01:02.001Z</time></trkpt><trkpt lat="37.00293483398169" lon="15.048723808572406"><ele>492.66666666666663</ele><time>2026-04-19T15:01:03.001Z</time></trkpt><trkpt lat="37.00287510298955" lon="15.048657431870906"><ele>494.0</ele><time>2026-04-19T15:01:04.001Z</time></trkpt><trkpt lat="37.00282120894773" lon="15.048585486369733"><ele>493.99999999999994</ele><time>2026-04-19T15:01:05.001Z</time></trkpt><trkpt lat="37.002771022261484" lon="15.04850755983306"><ele>494.0</ele><time>2026-04-19T15:01:06.001Z</time></trkpt><trkpt lat="37.00272692161705" lon="15.048426276696338"><ele>494.0</ele><time>2026-04-19T15:01:07.001Z</time></trkpt><trkpt lat="37.00268069981121" lon="15.048340429360074"><ele>494.0</ele><time>2026-04-19T15:01:08.001Z</time></trkpt><trkpt lat="37.00263213419708" lon="15.048255892727049"><ele>493.99999999999994</ele><time>2026-04-19T15:01:09.001Z</time></trkpt><trkpt lat="37.002582051724815" lon="15.048172409213718"><ele>494.0</ele><time>2026-04-19T15:01:10.001Z</time></trkpt><trkpt lat="37.00253183127911" lon="15.048091119094087"><ele>494.6</ele><time>2026-04-19T15:01:11.001Z</time></trkpt><trkpt lat="37.00247965226944" lon="15.048006438326276"><ele>495.2</ele><time>2026-04-19T15:01:12.001Z</time></trkpt><trkpt lat="37.00242552126287" lon="15.047918589807573"><ele>495.80000000000007</ele><time>2026-04-19T15:01:13.001Z</time></trkpt><trkpt lat="37.00237002652454" lon="15.047828527907637"><ele>496.40000000000003</ele><time>2026-04-19T15:01:14.001Z</time></trkpt><trkpt lat="37.002312052780304" lon="15.04773777942986"><ele>497.0</ele><time>2026-04-19T15:01:15.001Z</time></trkpt><trkpt lat="37.0022497739484" lon="15.047644642445716"><ele>497.0</ele><time>2026-04-19T15:01:16.001Z</time></trkpt><trkpt lat="37.00218702016298" lon="15.047557948484505"><ele>497.00000000000006</ele><time>2026-04-19T15:01:17.001Z</time></trkpt><trkpt lat="37.0021221428501" lon="15.047475950931938"><ele>497.00000000000006</ele><time>2026-04-19T15:01:18.001Z</time></trkpt><trkpt lat="37.00205464022141" lon="15.047397196773876"><ele>497.0</ele><time>2026-04-19T15:01:19.001Z</time></trkpt><trkpt lat="37.00198205957301" lon="15.047322308534913"><ele>497.0</ele><time>2026-04-19T15:01:20.001Z</time></trkpt><trkpt lat="37.001908769302254" lon="15.04725760920408"><ele>496.8333333333333</ele><time>2026-04-19T15:01:21.001Z</time></trkpt><trkpt lat="37.0018358080398" lon="15.047197710213142"><ele>496.66666666666663</ele><time>2026-04-19T15:01:22.001Z</time></trkpt><trkpt lat="37.001758696779625" lon="15.047143366766424"><ele>496.5</ele><time>2026-04-19T15:01:23.001Z</time></trkpt><trkpt lat="37.001682363042015" lon="15.04709742449766"><ele>496.33333333333337</ele><time>2026-04-19T15:01:24.001Z</time></trkpt><trkpt lat="37.001605053647594" lon="15.047053893111078"><ele>496.1666666666667</ele><time>2026-04-19T15:01:25.001Z</time></trkpt><trkpt lat="37.00152578750157" lon="15.047012284694521"><ele>496.0</ele><time>2026-04-19T15:01:26.001Z</time></trkpt><trkpt lat="37.001445876863905" lon="15.046970337899975"><ele>496.0</ele><time>2026-04-19T15:01:27.001Z</time></trkpt><trkpt lat="37.001363381587495" lon="15.046927034420698"><ele>496.0</ele><time>2026-04-19T15:01:28.001Z</time></trkpt><trkpt lat="37.001280693625695" lon="15.04688083219025"><ele>496.0</ele><time>2026-04-19T15:01:29.001Z</time></trkpt><trkpt lat="37.0011947461769" lon="15.046832448424224"><ele>496.0</ele><time>2026-04-19T15:01:30.001Z</time></trkpt><trkpt lat="37.0011078984943" lon="15.046783557884458"><ele>496.0</ele><time>2026-04-19T15:01:31.001Z</time></trkpt><trkpt lat="37.00102689456819" lon="15.046737957029853"><ele>496.00000000000006</ele><time>2026-04-19T15:01:32.001Z</time></trkpt><trkpt lat="37.0009538626625" lon="15.046696844726734"><ele>496.0</ele><time>2026-04-19T15:01:33.001Z</time></trkpt><trkpt lat="37.0008856824785" lon="15.046658460755625"><ele>496.0</ele><time>2026-04-19T15:01:34.001Z</time></trkpt><trkpt lat="37.00081667109963" lon="15.046619610105541"><ele>496.0</ele><time>2026-04-19T15:01:35.001Z</time></trkpt><trkpt lat="37.00074689226011" lon="15.0465821687732"><ele>496.00000000000006</ele><time>2026-04-19T15:01:36.001Z</time></trkpt><trkpt lat="37.00068158814023" lon="15.046547212657929"><ele>496.0</ele><time>2026-04-19T15:01:37.001Z</time></trkpt><trkpt lat="37.00057119281622" lon="15.046487668025776"><ele>495.6</ele><time>2026-04-19T15:01:39.001Z</time></trkpt><trkpt lat="37.00047299607806" lon="15.046434669114666"><ele>495.20000000000005</ele><time>2026-04-19T15:01:41.001Z</time></trkpt><trkpt lat="37.00036583031213" lon="15.046375085561438"><ele>494.79999999999995</ele><time>2026-04-19T15:01:43.001Z</time></trkpt><trkpt lat="37.00030885934908" lon="15.046339698538128"><ele>494.4</ele><time>2026-04-19T15:01:44.001Z</time></trkpt><trkpt lat="37.000206129520244" lon="15.046273526157444"><ele>494.0</ele><time>2026-04-19T15:01:46.001Z</time></trkpt><trkpt lat="37.000098273692046" lon="15.04619830267402"><ele>493.99999999999994</ele><time>2026-04-19T15:01:48.001Z</time></trkpt><trkpt lat="37.000045879580014" lon="15.046149794896786"><ele>494.0</ele><time>2026-04-19T15:01:49.001Z</time></trkpt><trkpt lat="36.99998826864211" lon="15.046096822008709"><ele>494.0</ele><time>2026-04-19T15:01:50.001Z</time></trkpt><trkpt lat="36.99992836476234" lon="15.046038377822846"><ele>494.0</ele><time>2026-04-19T15:01:51.001Z</time></trkpt><trkpt lat="36.99985654937463" lon="15.045988176373353"><ele>493.99999999999994</ele><time>2026-04-19T15:01:52.001Z</time></trkpt><trkpt lat="36.99980429642109" lon="15.045904912390036"><ele>494.0</ele><time>2026-04-19T15:01:53.001Z</time></trkpt><trkpt lat="36.99974009438768" lon="15.045833003673224"><ele>493.66666666666663</ele><time>2026-04-19T15:01:54.001Z</time></trkpt><trkpt lat="36.99967491131741" lon="15.045758747587834"><ele>493.3333333333333</ele><time>2026-04-19T15:01:55.001Z</time></trkpt><trkpt lat="36.999613059365835" lon="15.045688286328042"><ele>493.0</ele><time>2026-04-19T15:01:56.001Z</time></trkpt><trkpt lat="36.9995515767325" lon="15.045618245764182"><ele>492.66666666666663</ele><time>2026-04-19T15:01:57.001Z</time></trkpt><trkpt lat="36.9994897177045" lon="15.04554902172182"><ele>492.3333333333333</ele><time>2026-04-19T15:01:58.001Z</time></trkpt><trkpt lat="36.99942852277371" lon="15.045481188545113"><ele>492.0</ele><time>2026-04-19T15:01:59.001Z</time></trkpt><trkpt lat="36.99936863261947" lon="15.04541398016041"><ele>492.0</ele><time>2026-04-19T15:02:00.001Z</time></trkpt><trkpt lat="36.9993165730449" lon="15.045351379100318"><ele>492.0</ele><time>2026-04-19T15:02:01.001Z</time></trkpt><trkpt lat="36.99926977423234" lon="15.045290749889325"><ele>492.0</ele><time>2026-04-19T15:02:02.001Z</time></trkpt><trkpt lat="36.99922642118482" lon="15.045232914177047"><ele>492.0</ele><time>2026-04-19T15:02:03.001Z</time></trkpt><trkpt lat="36.99916244982244" lon="15.045113711818589"><ele>492.0</ele><time>2026-04-19T15:02:05.001Z</time></trkpt><trkpt lat="36.999108702260656" lon="15.044986069915245"><ele>492.0</ele><time>2026-04-19T15:02:07.001Z</time></trkpt><trkpt lat="36.99908273404561" lon="15.044835008760723"><ele>491.8333333333333</ele><time>2026-04-19T15:02:09.001Z</time></trkpt><trkpt lat="36.99909503198423" lon="15.044688362703033"><ele>491.66666666666663</ele><time>2026-04-19T15:02:11.001Z</time></trkpt><trkpt lat="36.99911066814674" lon="15.044607791036794"><ele>491.5</ele><time>2026-04-19T15:02:12.001Z</time></trkpt><trkpt lat="36.999132527194604" lon="15.044527820417338"><ele>491.3333333333333</ele><time>2026-04-19T15:02:13.001Z</time></trkpt><trkpt lat="36.9991551178584" lon="15.044440457548765"><ele>491.16666666666663</ele><time>2026-04-19T15:02:14.001Z</time></trkpt><trkpt lat="36.999178712051986" lon="15.044347343764246"><ele>491.0</ele><time>2026-04-19T15:02:15.001Z</time></trkpt><trkpt lat="36.9992013827399" lon="15.04424681306401"><ele>490.99999999999994</ele><time>2026-04-19T15:02:16.001Z</time></trkpt><trkpt lat="36.999221806116" lon="15.044145584243"><ele>491.0</ele><time>2026-04-19T15:02:17.001Z</time></trkpt><trkpt lat="36.99924194663527" lon="15.044045757273446"><ele>491.0</ele><time>2026-04-19T15:02:18.001Z</time></trkpt><trkpt lat="36.99926222513963" lon="15.043945246498852"><ele>491.0</ele><time>2026-04-19T15:02:19.001Z</time></trkpt><trkpt lat="36.99928252346837" lon="15.043842636141271"><ele>490.99999999999994</ele><time>2026-04-19T15:02:20.001Z</time></trkpt><trkpt lat="36.999301903611645" lon="15.043741069089066"><ele>491.0</ele><time>2026-04-19T15:02:21.001Z</time></trkpt><trkpt lat="36.99932175833442" lon="15.043637014049198"><ele>491.16666666666663</ele><time>2026-04-19T15:02:22.001Z</time></trkpt><trkpt lat="36.99933967977236" lon="15.0435311488631"><ele>491.3333333333333</ele><time>2026-04-19T15:02:23.001Z</time></trkpt><trkpt lat="36.99935548764541" lon="15.043426969831012"><ele>491.5</ele><time>2026-04-19T15:02:24.001Z</time></trkpt><trkpt lat="36.99935684974603" lon="15.043322552543655"><ele>491.66666666666663</ele><time>2026-04-19T15:02:25.001Z</time></trkpt><trkpt lat="36.99937420088246" lon="15.043220961710151"><ele>491.8333333333333</ele><time>2026-04-19T15:02:26.001Z</time></trkpt><trkpt lat="36.99938818090904" lon="15.043119397596183"><ele>492.0</ele><time>2026-04-19T15:02:27.001Z</time></trkpt><trkpt lat="36.999392482925934" lon="15.043014559636461"><ele>492.0</ele><time>2026-04-19T15:02:28.001Z</time></trkpt><trkpt lat="36.99938747169426" lon="15.042909332510247"><ele>492.0</ele><time>2026-04-19T15:02:29.001Z</time></trkpt><trkpt lat="36.99940296873975" lon="15.04280471937786"><ele>492.0</ele><time>2026-04-19T15:02:30.001Z</time></trkpt><trkpt lat="36.99940029735451" lon="15.042697101637946"><ele>492.0</ele><time>2026-04-19T15:02:31.001Z</time></trkpt><trkpt lat="36.99939480412902" lon="15.04258601151897"><ele>492.0</ele><time>2026-04-19T15:02:32.001Z</time></trkpt><trkpt lat="36.99938657515924" lon="15.04247326121387"><ele>492.0</ele><time>2026-04-19T15:02:33.001Z</time></trkpt><trkpt lat="36.99937560240115" lon="15.042357690270656"><ele>491.3333333333333</ele><time>2026-04-19T15:02:34.001Z</time></trkpt><trkpt lat="36.999359942271994" lon="15.042242218400181"><ele>490.66666666666663</ele><time>2026-04-19T15:02:35.001Z</time></trkpt><trkpt lat="36.99932225558591" lon="15.0421315124445"><ele>490.0</ele><time>2026-04-19T15:02:36.001Z</time></trkpt><trkpt lat="36.99929540716116" lon="15.042024140565063"><ele>489.3333333333333</ele><time>2026-04-19T15:02:37.001Z</time></trkpt><trkpt lat="36.99926395034098" lon="15.041927301236525"><ele>488.66666666666663</ele><time>2026-04-19T15:02:38.001Z</time></trkpt><trkpt lat="36.99922593492318" lon="15.041844908556568"><ele>488.0</ele><time>2026-04-19T15:02:39.001Z</time></trkpt><trkpt lat="36.99916942436294" lon="15.041780493835853"><ele>486.8333333333333</ele><time>2026-04-19T15:02:40.001Z</time></trkpt><trkpt lat="36.999101348265356" lon="15.041731884811066"><ele>485.66666666666663</ele><time>2026-04-19T15:02:41.001Z</time></trkpt><trkpt lat="36.999035833438896" lon="15.041672777462086"><ele>484.5</ele><time>2026-04-19T15:02:42.001Z</time></trkpt><trkpt lat="36.99895085096227" lon="15.041662111510488"><ele>483.33333333333337</ele><time>2026-04-19T15:02:43.001Z</time></trkpt><trkpt lat="36.99887285902447" lon="15.041644603649008"><ele>482.1666666666667</ele><time>2026-04-19T15:02:44.001Z</time></trkpt><trkpt lat="36.99879354181635" lon="15.041649799318288"><ele>481.0</ele><time>2026-04-19T15:02:45.001Z</time></trkpt><trkpt lat="36.99871316436068" lon="15.041660185619705"><ele>481.00000000000006</ele><time>2026-04-19T15:02:46.001Z</time></trkpt><trkpt lat="36.99863285692342" lon="15.04167556765861"><ele>481.0</ele><time>2026-04-19T15:02:47.001Z</time></trkpt><trkpt lat="36.9985552724375" lon="15.041691245657"><ele>481.0</ele><time>2026-04-19T15:02:48.001Z</time></trkpt><trkpt lat="36.998486411902846" lon="15.041702270001828"><ele>481.0</ele><time>2026-04-19T15:02:49.001Z</time></trkpt><trkpt lat="36.998390290027686" lon="15.041696218152207"><ele>481.00000000000006</ele><time>2026-04-19T15:02:51.001Z</time></trkpt><trkpt lat="36.99840497314958" lon="15.041557460520227"><ele>481.0</ele><time>2026-04-19T15:02:58.001Z</time></trkpt><trkpt lat="36.99848792606935" lon="15.04145666484017"><ele>480.6666666666667</ele><time>2026-04-19T15:03:00.001Z</time></trkpt><trkpt lat="36.99853406985803" lon="15.041394942928356"><ele>480.33333333333337</ele><time>2026-04-19T15:03:01.001Z</time></trkpt><trkpt lat="36.99860670106083" lon="15.041283077917063"><ele>480.0</ele><time>2026-04-19T15:03:03.001Z</time></trkpt><trkpt lat="36.99864797002926" lon="15.041222165624129"><ele>479.66666666666663</ele><time>2026-04-19T15:03:04.001Z</time></trkpt><trkpt lat="36.99869502772203" lon="15.041159039189683"><ele>479.3333333333333</ele><time>2026-04-19T15:03:05.001Z</time></trkpt><trkpt lat="36.9987441277945" lon="15.041096526379283"><ele>479.0</ele><time>2026-04-19T15:03:06.001Z</time></trkpt><trkpt lat="36.99879107073969" lon="15.041034710023855"><ele>479.0</ele><time>2026-04-19T15:03:07.001Z</time></trkpt><trkpt lat="36.9988371167331" lon="15.040971189180178"><ele>479.0</ele><time>2026-04-19T15:03:08.001Z</time></trkpt><trkpt lat="36.99888597975449" lon="15.040902543206569"><ele>479.0</ele><time>2026-04-19T15:03:09.001Z</time></trkpt><trkpt lat="36.99893744378574" lon="15.040833508920286"><ele>479.0</ele><time>2026-04-19T15:03:10.001Z</time></trkpt><trkpt lat="36.998986112620706" lon="15.040764568207816"><ele>479.0</ele><time>2026-04-19T15:03:11.001Z</time></trkpt><trkpt lat="36.9990321053484" lon="15.04069203365815"><ele>479.0</ele><time>2026-04-19T15:03:12.001Z</time></trkpt><trkpt lat="36.99908129489995" lon="15.04062237618628"><ele>479.0</ele><time>2026-04-19T15:03:13.001Z</time></trkpt><trkpt lat="36.999132643019756" lon="15.04055625066378"><ele>479.49999999999994</ele><time>2026-04-19T15:03:14.001Z</time></trkpt><trkpt lat="36.999182255374635" lon="15.04048953963586"><ele>480.0</ele><time>2026-04-19T15:03:15.001Z</time></trkpt><trkpt lat="36.999230365168906" lon="15.040422313648204"><ele>480.5</ele><time>2026-04-19T15:03:16.001Z</time></trkpt><trkpt lat="36.999275682607575" lon="15.040359720754301"><ele>481.0</ele><time>2026-04-19T15:03:17.001Z</time></trkpt><trkpt lat="36.999348986161955" lon="15.040256857712057"><ele>481.49999999999994</ele><time>2026-04-19T15:03:19.001Z</time></trkpt><trkpt lat="36.99940479122597" lon="15.040192806358528"><ele>482.0</ele><time>2026-04-19T15:03:22.001Z</time></trkpt><trkpt lat="36.9993201418319" lon="15.040304268688297"><ele>482.0</ele><time>2026-04-19T15:05:02.001Z</time></trkpt><trkpt lat="36.999254102475795" lon="15.040395144412045"><ele>482.00000000000006</ele><time>2026-04-19T15:05:03.001Z</time></trkpt><trkpt lat="36.999201495362485" lon="15.040470978454284"><ele>482.00000000000006</ele><time>2026-04-19T15:05:04.001Z</time></trkpt><trkpt lat="36.999138356388784" lon="15.040562434510672"><ele>482.0</ele><time>2026-04-19T15:05:05.001Z</time></trkpt><trkpt lat="36.99906857431192" lon="15.04066044806831"><ele>482.0</ele><time>2026-04-19T15:05:06.001Z</time></trkpt><trkpt lat="36.999002058936576" lon="15.040751658348027"><ele>481.40000000000003</ele><time>2026-04-19T15:05:07.001Z</time></trkpt><trkpt lat="36.998935106953276" lon="15.040841851168391"><ele>480.80000000000007</ele><time>2026-04-19T15:05:08.001Z</time></trkpt><trkpt lat="36.9988715381707" lon="15.040931483106496"><ele>480.2</ele><time>2026-04-19T15:05:09.001Z</time></trkpt><trkpt lat="36.99881081383956" lon="15.041019832737588"><ele>479.6</ele><time>2026-04-19T15:05:10.001Z</time></trkpt><trkpt lat="36.998746468307424" lon="15.041106909740705"><ele>479.0</ele><time>2026-04-19T15:05:11.001Z</time></trkpt><trkpt lat="36.998681551511005" lon="15.04119321676872"><ele>478.99999999999994</ele><time>2026-04-19T15:05:12.001Z</time></trkpt><trkpt lat="36.99862047380652" lon="15.041279177473122"><ele>479.0</ele><time>2026-04-19T15:05:13.001Z</time></trkpt><trkpt lat="36.998561948677626" lon="15.041360964400655"><ele>479.0</ele><time>2026-04-19T15:05:14.001Z</time></trkpt><trkpt lat="36.99851026830013" lon="15.041435334570625"><ele>479.0</ele><time>2026-04-19T15:05:15.001Z</time></trkpt><trkpt lat="36.99846598317597" lon="15.041499047223182"><ele>478.99999999999994</ele><time>2026-04-19T15:05:16.001Z</time></trkpt><trkpt lat="36.99839338832466" lon="15.041595080472527"><ele>479.0</ele><time>2026-04-19T15:05:18.001Z</time></trkpt><trkpt lat="36.99835427838912" lon="15.04167272481199"><ele>479.4</ele><time>2026-04-19T15:05:21.001Z</time></trkpt><trkpt lat="36.99843558739812" lon="15.041732427896509"><ele>479.79999999999995</ele><time>2026-04-19T15:05:25.001Z</time></trkpt><trkpt lat="36.99850085629966" lon="15.041715132481155"><ele>480.20000000000005</ele><time>2026-04-19T15:05:26.001Z</time></trkpt><trkpt lat="36.99863294180128" lon="15.041677506147126"><ele>480.6</ele><time>2026-04-19T15:05:28.001Z</time></trkpt><trkpt lat="36.99871744169065" lon="15.041660591375333"><ele>481.0</ele><time>2026-04-19T15:05:29.001Z</time></trkpt><trkpt lat="36.99879206779144" lon="15.041650935236355"><ele>481.0</ele><time>2026-04-19T15:05:30.001Z</time></trkpt><trkpt lat="36.99892882956116" lon="15.041659634059226"><ele>481.0</ele><time>2026-04-19T15:05:32.001Z</time></trkpt><trkpt lat="36.99900751051779" lon="15.041685363110457"><ele>481.0</ele><time>2026-04-19T15:05:33.001Z</time></trkpt><trkpt lat="36.999083994810256" lon="15.04172545215496"><ele>481.0</ele><time>2026-04-19T15:05:34.001Z</time></trkpt><trkpt lat="36.99915246166137" lon="15.041769932516509"><ele>481.0</ele><time>2026-04-19T15:05:35.001Z</time></trkpt><trkpt lat="36.999191093485955" lon="15.041855108081046"><ele>482.1666666666667</ele><time>2026-04-19T15:05:36.001Z</time></trkpt><trkpt lat="36.999228926735384" lon="15.041923154305032"><ele>483.33333333333337</ele><time>2026-04-19T15:05:37.001Z</time></trkpt><trkpt lat="36.99926690602579" lon="15.042005707015592"><ele>484.5</ele><time>2026-04-19T15:05:38.001Z</time></trkpt><trkpt lat="36.9992977368441" lon="15.042106496783461"><ele>485.66666666666663</ele><time>2026-04-19T15:05:39.001Z</time></trkpt><trkpt lat="36.9993234150461" lon="15.04222335669643"><ele>486.8333333333333</ele><time>2026-04-19T15:05:40.001Z</time></trkpt><trkpt lat="36.999355524057826" lon="15.042340070068303"><ele>488.0</ele><time>2026-04-19T15:05:41.001Z</time></trkpt><trkpt lat="36.9993655298766" lon="15.042443652086442"><ele>488.66666666666663</ele><time>2026-04-19T15:05:42.001Z</time></trkpt><trkpt lat="36.99935825803966" lon="15.042539295676864"><ele>489.3333333333333</ele><time>2026-04-19T15:05:43.001Z</time></trkpt><trkpt lat="36.99938033996474" lon="15.04262727395048"><ele>490.0</ele><time>2026-04-19T15:05:44.001Z</time></trkpt><trkpt lat="36.99938271215048" lon="15.042718540892912"><ele>490.66666666666663</ele><time>2026-04-19T15:05:45.001Z</time></trkpt><trkpt lat="36.999369631248506" lon="15.04281470216295"><ele>491.3333333333333</ele><time>2026-04-19T15:05:46.001Z</time></trkpt><trkpt lat="36.99936963124971" lon="15.042914192580348"><ele>492.0</ele><time>2026-04-19T15:05:47.001Z</time></trkpt><trkpt lat="36.999365783378366" lon="15.043015647614643"><ele>492.0</ele><time>2026-04-19T15:05:48.001Z</time></trkpt><trkpt lat="36.99935869513528" lon="15.043120002766715"><ele>492.0</ele><time>2026-04-19T15:05:49.001Z</time></trkpt><trkpt lat="36.99934716297578" lon="15.043229887627282"><ele>492.0</ele><time>2026-04-19T15:05:50.001Z</time></trkpt><trkpt lat="36.99933353868032" lon="15.04334083296566"><ele>492.0</ele><time>2026-04-19T15:05:51.001Z</time></trkpt><trkpt lat="36.999317876122056" lon="15.043454418327805"><ele>492.0</ele><time>2026-04-19T15:05:52.001Z</time></trkpt><trkpt lat="36.99929987338958" lon="15.043564375493622"><ele>492.0</ele><time>2026-04-19T15:05:53.001Z</time></trkpt><trkpt lat="36.99927956363843" lon="15.04367855744155"><ele>492.20000000000005</ele><time>2026-04-19T15:05:54.001Z</time></trkpt><trkpt lat="36.99926941810137" lon="15.043797442393707"><ele>492.40000000000003</ele><time>2026-04-19T15:05:55.001Z</time></trkpt><trkpt lat="36.99924261612495" lon="15.04390873155201"><ele>492.59999999999997</ele><time>2026-04-19T15:05:56.001Z</time></trkpt><trkpt lat="36.99921695884669" lon="15.04401774954059"><ele>492.79999999999995</ele><time>2026-04-19T15:05:57.001Z</time></trkpt><trkpt lat="36.99919265082387" lon="15.044124012371759"><ele>493.0</ele><time>2026-04-19T15:05:58.001Z</time></trkpt><trkpt lat="36.999167574502536" lon="15.044229833218292"><ele>492.50000000000006</ele><time>2026-04-19T15:05:59.001Z</time></trkpt><trkpt lat="36.9991439260285" lon="15.044334469641703"><ele>492.0</ele><time>2026-04-19T15:06:00.001Z</time></trkpt><trkpt lat="36.99912062701936" lon="15.04443560794665"><ele>491.5</ele><time>2026-04-19T15:06:01.001Z</time></trkpt><trkpt lat="36.99909665977309" lon="15.04453418620657"><ele>491.0</ele><time>2026-04-19T15:06:02.001Z</time></trkpt><trkpt lat="36.99907457452968" lon="15.044632153502326"><ele>490.50000000000006</ele><time>2026-04-19T15:06:03.001Z</time></trkpt><trkpt lat="36.99906222609508" lon="15.044731404322173"><ele>490.0</ele><time>2026-04-19T15:06:04.001Z</time></trkpt><trkpt lat="36.9990569393726" lon="15.044824037645382"><ele>490.00000000000006</ele><time>2026-04-19T15:06:05.001Z</time></trkpt><trkpt lat="36.99906360413926" lon="15.044912802735643"><ele>490.0</ele><time>2026-04-19T15:06:06.001Z</time></trkpt><trkpt lat="36.99908181786589" lon="15.044999631441515"><ele>490.0</ele><time>2026-04-19T15:06:07.001Z</time></trkpt><trkpt lat="36.999111539038" lon="15.045093946897442"><ele>490.0</ele><time>2026-04-19T15:06:08.001Z</time></trkpt><trkpt lat="36.999151545837485" lon="15.045192592782156"><ele>490.00000000000006</ele><time>2026-04-19T15:06:09.001Z</time></trkpt><trkpt lat="36.99920861368653" lon="15.045284974571212"><ele>490.0</ele><time>2026-04-19T15:06:10.001Z</time></trkpt><trkpt lat="36.999287731015386" lon="15.045377744725844"><ele>490.5</ele><time>2026-04-19T15:06:11.001Z</time></trkpt><trkpt lat="36.999384795137814" lon="15.045469291237174"><ele>491.0</ele><time>2026-04-19T15:06:12.001Z</time></trkpt><trkpt lat="36.999487939878385" lon="15.045576158083385"><ele>491.5</ele><time>2026-04-19T15:06:13.001Z</time></trkpt><trkpt lat="36.99957981332827" lon="15.04570671487596"><ele>492.0</ele><time>2026-04-19T15:06:14.001Z</time></trkpt><trkpt lat="36.99968443314273" lon="15.045802633079768"><ele>492.5</ele><time>2026-04-19T15:06:15.001Z</time></trkpt><trkpt lat="36.999766016750954" lon="15.045918148748415"><ele>493.0</ele><time>2026-04-19T15:06:16.001Z</time></trkpt><trkpt lat="36.999867899068796" lon="15.046029459953312"><ele>493.5</ele><time>2026-04-19T15:06:17.001Z</time></trkpt><trkpt lat="36.99998555995557" lon="15.046120746775525"><ele>494.0</ele><time>2026-04-19T15:06:18.001Z</time></trkpt><trkpt lat="37.00007854568831" lon="15.046217078861039"><ele>494.0</ele><time>2026-04-19T15:06:19.001Z</time></trkpt><trkpt lat="37.000172627302796" lon="15.046293636666128"><ele>494.0</ele><time>2026-04-19T15:06:20.001Z</time></trkpt><trkpt lat="37.000280041447894" lon="15.046363533250128"><ele>494.0</ele><time>2026-04-19T15:06:21.001Z</time></trkpt><trkpt lat="37.00040229182158" lon="15.046432667440895"><ele>494.0</ele><time>2026-04-19T15:06:22.001Z</time></trkpt><trkpt lat="37.00053615335574" lon="15.046503458052053"><ele>494.0</ele><time>2026-04-19T15:06:23.001Z</time></trkpt><trkpt lat="37.00067860139563" lon="15.046578649345134"><ele>494.0</ele><time>2026-04-19T15:06:24.001Z</time></trkpt><trkpt lat="37.00082261657192" lon="15.046659640608896"><ele>494.0</ele><time>2026-04-19T15:06:25.001Z</time></trkpt><trkpt lat="37.00096312395438" lon="15.04674019100202"><ele>494.5</ele><time>2026-04-19T15:06:26.001Z</time></trkpt><trkpt lat="37.001098444808036" lon="15.04681811466876"><ele>495.0</ele><time>2026-04-19T15:06:27.001Z</time></trkpt><trkpt lat="37.00123234322441" lon="15.04689266454494"><ele>495.5</ele><time>2026-04-19T15:06:28.001Z</time></trkpt><trkpt lat="37.00136326486527" lon="15.046963636906842"><ele>496.0</ele><time>2026-04-19T15:06:29.001Z</time></trkpt><trkpt lat="37.001490701032836" lon="15.047032088462819"><ele>496.0</ele><time>2026-04-19T15:06:30.001Z</time></trkpt><trkpt lat="37.001610631535" lon="15.047094474609821"><ele>496.0</ele><time>2026-04-19T15:06:31.001Z</time></trkpt><trkpt lat="37.001723099098456" lon="15.04715602034424"><ele>496.0</ele><time>2026-04-19T15:06:32.001Z</time></trkpt><trkpt lat="37.00183448951317" lon="15.047233058930223"><ele>496.0</ele><time>2026-04-19T15:06:33.001Z</time></trkpt><trkpt lat="37.00194838285944" lon="15.047335985800174"><ele>496.33333333333337</ele><time>2026-04-19T15:06:34.001Z</time></trkpt><trkpt lat="37.00206887899355" lon="15.047464237601073"><ele>496.66666666666663</ele><time>2026-04-19T15:06:35.001Z</time></trkpt><trkpt lat="37.00218109988916" lon="15.047595984977633"><ele>497.0</ele><time>2026-04-19T15:06:36.001Z</time></trkpt><trkpt lat="37.002286133159416" lon="15.047738023343111"><ele>497.0</ele><time>2026-04-19T15:06:37.001Z</time></trkpt><trkpt lat="37.002389134056635" lon="15.04789906572466"><ele>497.0</ele><time>2026-04-19T15:06:38.001Z</time></trkpt><trkpt lat="37.002479168548675" lon="15.048056550970712"><ele>497.0</ele><time>2026-04-19T15:06:39.001Z</time></trkpt><trkpt lat="37.00255995482392" lon="15.048201052771343"><ele>496.25</ele><time>2026-04-19T15:06:40.001Z</time></trkpt><trkpt lat="37.00263555637365" lon="15.04834497662398"><ele>495.5</ele><time>2026-04-19T15:06:41.001Z</time></trkpt><trkpt lat="37.00270642395049" lon="15.048485701511696"><ele>494.75</ele><time>2026-04-19T15:06:42.001Z</time></trkpt><trkpt lat="37.00278381534622" lon="15.04861595917421"><ele>494.0</ele><time>2026-04-19T15:06:43.001Z</time></trkpt><trkpt lat="37.002876086499874" lon="15.04873001536406"><ele>494.0</ele><time>2026-04-19T15:06:44.001Z</time></trkpt><trkpt lat="37.0029817146258" lon="15.048834105879944"><ele>494.0</ele><time>2026-04-19T15:06:45.001Z</time></trkpt><trkpt lat="37.003094932719115" lon="15.04893282165421"><ele>494.0</ele><time>2026-04-19T15:06:46.001Z</time></trkpt><trkpt lat="37.00320996970366" lon="15.049042255318636"><ele>494.0</ele><time>2026-04-19T15:06:47.001Z</time></trkpt><trkpt lat="37.003326136623265" lon="15.04916605835018"><ele>491.3333333333333</ele><time>2026-04-19T15:06:48.001Z</time></trkpt><trkpt lat="37.00344259083639" lon="15.04930040851095"><ele>488.66666666666663</ele><time>2026-04-19T15:06:49.001Z</time></trkpt><trkpt lat="37.00355250302908" lon="15.049440590318692"><ele>486.0</ele><time>2026-04-19T15:06:50.001Z</time></trkpt><trkpt lat="37.00364846033255" lon="15.049592115831652"><ele>486.0</ele><time>2026-04-19T15:06:51.001Z</time></trkpt><trkpt lat="37.00373933393214" lon="15.049752072864356"><ele>486.0</ele><time>2026-04-19T15:06:52.001Z</time></trkpt><trkpt lat="37.00383333819902" lon="15.049915983516462"><ele>486.0</ele><time>2026-04-19T15:06:53.001Z</time></trkpt><trkpt lat="37.003933494732" lon="15.050084861845525"><ele>486.33333333333337</ele><time>2026-04-19T15:06:54.001Z</time></trkpt><trkpt lat="37.00402822648832" lon="15.050259141352026"><ele>486.6666666666667</ele><time>2026-04-19T15:06:55.001Z</time></trkpt><trkpt lat="37.00411843400718" lon="15.05043079544382"><ele>487.0</ele><time>2026-04-19T15:06:56.001Z</time></trkpt><trkpt lat="37.00419921017224" lon="15.05059004794017"><ele>487.0</ele><time>2026-04-19T15:06:57.001Z</time></trkpt><trkpt lat="37.00427757834184" lon="15.05074126482911"><ele>487.0</ele><time>2026-04-19T15:06:58.001Z</time></trkpt><trkpt lat="37.004350493296585" lon="15.050888567482822"><ele>487.0</ele><time>2026-04-19T15:06:59.001Z</time></trkpt><trkpt lat="37.00441166776389" lon="15.051027341217624"><ele>487.0</ele><time>2026-04-19T15:07:00.001Z</time></trkpt><trkpt lat="37.00446297002211" lon="15.051163815187438"><ele>487.75</ele><time>2026-04-19T15:07:01.001Z</time></trkpt><trkpt lat="37.00451005416006" lon="15.051303054512616"><ele>488.5</ele><time>2026-04-19T15:07:02.001Z</time></trkpt><trkpt lat="37.004555110149695" lon="15.051448977439712"><ele>489.25</ele><time>2026-04-19T15:07:03.001Z</time></trkpt><trkpt lat="37.00459591679233" lon="15.051593885505305"><ele>490.0</ele><time>2026-04-19T15:07:04.001Z</time></trkpt><trkpt lat="37.00463028438883" lon="15.051740820332054"><ele>490.0</ele><time>2026-04-19T15:07:05.001Z</time></trkpt><trkpt lat="37.00464666957085" lon="15.05189799850466"><ele>490.0</ele><time>2026-04-19T15:07:06.001Z</time></trkpt><trkpt lat="37.00464493610625" lon="15.052063274023018"><ele>490.0</ele><time>2026-04-19T15:07:07.001Z</time></trkpt><trkpt lat="37.0046384721938" lon="15.052234670264372"><ele>490.0</ele><time>2026-04-19T15:07:08.001Z</time></trkpt><trkpt lat="37.004635345010975" lon="15.05240486778454"><ele>488.2</ele><time>2026-04-19T15:07:09.001Z</time></trkpt><trkpt lat="37.00460821642196" lon="15.052569185768936"><ele>486.4</ele><time>2026-04-19T15:07:10.001Z</time></trkpt><trkpt lat="37.00459895056345" lon="15.05271620279831"><ele>484.6</ele><time>2026-04-19T15:07:11.001Z</time></trkpt><trkpt lat="37.00459301547767" lon="15.052837657810535"><ele>482.8</ele><time>2026-04-19T15:07:12.001Z</time></trkpt><trkpt lat="37.004601034770886" lon="15.052936077019142"><ele>481.0</ele><time>2026-04-19T15:07:13.001Z</time></trkpt><trkpt lat="37.00462708704826" lon="15.053018420703031"><ele>481.00000000000006</ele><time>2026-04-19T15:07:15.001Z</time></trkpt><trkpt lat="37.00469764748793" lon="15.053048762536509"><ele>481.0</ele><time>2026-04-19T15:07:19.001Z</time></trkpt><trkpt lat="37.00475399516319" lon="15.052996828414324"><ele>481.0</ele><time>2026-04-19T15:07:21.001Z</time></trkpt><trkpt lat="37.004824300810334" lon="15.052919856821898"><ele>481.0</ele><time>2026-04-19T15:07:23.001Z</time></trkpt><trkpt lat="37.00493880864062" lon="15.05285279772909"><ele>481.00000000000006</ele><time>2026-04-19T15:07:25.001Z</time></trkpt><trkpt lat="37.00499705942121" lon="15.05281684125599"><ele>481.0</ele><time>2026-04-19T15:07:26.001Z</time></trkpt><trkpt lat="37.00506249414102" lon="15.052775559111563"><ele>480.6</ele><time>2026-04-19T15:07:27.001Z</time></trkpt><trkpt lat="37.005129186344476" lon="15.052724543610292"><ele>480.20000000000005</ele><time>2026-04-19T15:07:28.001Z</time></trkpt><trkpt lat="37.005192205494296" lon="15.052654928832352"><ele>479.79999999999995</ele><time>2026-04-19T15:07:29.001Z</time></trkpt><trkpt lat="37.00525257219507" lon="15.052569149819782"><ele>479.4</ele><time>2026-04-19T15:07:30.001Z</time></trkpt><trkpt lat="37.0053054766552" lon="15.05246380441157"><ele>479.0</ele><time>2026-04-19T15:07:31.001Z</time></trkpt><trkpt lat="37.00535774528515" lon="15.05234669490371"><ele>479.0</ele><time>2026-04-19T15:07:32.001Z</time></trkpt><trkpt lat="37.00542649096306" lon="15.052237348967473"><ele>479.0</ele><time>2026-04-19T15:07:33.001Z</time></trkpt><trkpt lat="37.00548234587954" lon="15.052123455934746"><ele>479.0</ele><time>2026-04-19T15:07:34.001Z</time></trkpt><trkpt lat="37.00552926863704" lon="15.051999721729105"><ele>479.0</ele><time>2026-04-19T15:07:35.001Z</time></trkpt><trkpt lat="37.00558364296222" lon="15.051885691933663"><ele>479.0</ele><time>2026-04-19T15:07:36.001Z</time></trkpt><trkpt lat="37.0056387850485" lon="15.05177550054123"><ele>479.0</ele><time>2026-04-19T15:07:37.001Z</time></trkpt><trkpt lat="37.00570425926042" lon="15.05166477567828"><ele>479.0</ele><time>2026-04-19T15:07:38.001Z</time></trkpt><trkpt lat="37.00577759782911" lon="15.051550089025264"><ele>479.0</ele><time>2026-04-19T15:07:39.001Z</time></trkpt><trkpt lat="37.00588202878735" lon="15.05144961257838"><ele>479.0</ele><time>2026-04-19T15:07:40.001Z</time></trkpt><trkpt lat="37.00599172015295" lon="15.051334177342426"><ele>477.75</ele><time>2026-04-19T15:07:41.001Z</time></trkpt><trkpt lat="37.00609667944192" lon="15.051199786620396"><ele>476.5</ele><time>2026-04-19T15:07:42.001Z</time></trkpt><trkpt lat="37.006206006256306" lon="15.05108238028527"><ele>475.25</ele><time>2026-04-19T15:07:43.001Z</time></trkpt><trkpt lat="37.006306018892666" lon="15.050976130461793"><ele>474.0</ele><time>2026-04-19T15:07:44.001Z</time></trkpt><trkpt lat="37.006402015056814" lon="15.05087435925796"><ele>474.0</ele><time>2026-04-19T15:07:45.001Z</time></trkpt><trkpt lat="37.00649716328941" lon="15.050792195641511"><ele>474.0</ele><time>2026-04-19T15:07:46.001Z</time></trkpt><trkpt lat="37.00657852065733" lon="15.050705194942337"><ele>474.0</ele><time>2026-04-19T15:07:47.001Z</time></trkpt><trkpt lat="37.006659785594685" lon="15.05061829300079"><ele>474.0</ele><time>2026-04-19T15:07:48.001Z</time></trkpt><trkpt lat="37.00673322888779" lon="15.050520715789137"><ele>474.0</ele><time>2026-04-19T15:07:49.001Z</time></trkpt><trkpt lat="37.006816775655736" lon="15.050440014826075"><ele>471.2</ele><time>2026-04-19T15:07:50.001Z</time></trkpt><trkpt lat="37.00689699419748" lon="15.050353469061989"><ele>468.4</ele><time>2026-04-19T15:07:51.001Z</time></trkpt><trkpt lat="37.00697374156612" lon="15.050270301710999"><ele>465.6</ele><time>2026-04-19T15:07:52.001Z</time></trkpt><trkpt lat="37.007049778739606" lon="15.050187386298592"><ele>462.8</ele><time>2026-04-19T15:07:53.001Z</time></trkpt><trkpt lat="37.00712465377065" lon="15.050102309255546"><ele>460.0</ele><time>2026-04-19T15:07:54.001Z</time></trkpt><trkpt lat="37.007201769253044" lon="15.050020093429318"><ele>460.2</ele><time>2026-04-19T15:07:55.001Z</time></trkpt><trkpt lat="37.00727957537669" lon="15.04994305163375"><ele>460.4</ele><time>2026-04-19T15:07:56.001Z</time></trkpt><trkpt lat="37.00735631817264" lon="15.049863748091967"><ele>460.6</ele><time>2026-04-19T15:07:57.001Z</time></trkpt><trkpt lat="37.00743277286374" lon="15.049783552697862"><ele>460.8</ele><time>2026-04-19T15:07:58.001Z</time></trkpt><trkpt lat="37.00751848918798" lon="15.049714944925917"><ele>461.0</ele><time>2026-04-19T15:07:59.001Z</time></trkpt><trkpt lat="37.007590890009396" lon="15.049626744158923"><ele>458.4</ele><time>2026-04-19T15:08:00.001Z</time></trkpt><trkpt lat="37.00766819103499" lon="15.049544834720647"><ele>455.8</ele><time>2026-04-19T15:08:01.001Z</time></trkpt><trkpt lat="37.00774556489375" lon="15.049461938850722"><ele>453.19999999999993</ele><time>2026-04-19T15:08:02.001Z</time></trkpt><trkpt lat="37.007828917154896" lon="15.049394729021168"><ele>450.59999999999997</ele><time>2026-04-19T15:08:03.001Z</time></trkpt><trkpt lat="37.00789766719112" lon="15.049345233327054"><ele>448.0</ele><time>2026-04-19T15:08:04.001Z</time></trkpt><trkpt lat="37.007968116866806" lon="15.049309190626527"><ele>448.00000000000006</ele><time>2026-04-19T15:08:05.001Z</time></trkpt><trkpt lat="37.00805680358088" lon="15.049329212625409"><ele>448.0</ele><time>2026-04-19T15:08:06.001Z</time></trkpt><trkpt lat="37.008136937923815" lon="15.049372057350226"><ele>448.0</ele><time>2026-04-19T15:08:07.001Z</time></trkpt><trkpt lat="37.00818701300271" lon="15.04945529885611"><ele>448.0</ele><time>2026-04-19T15:08:08.001Z</time></trkpt><trkpt lat="37.008232754976824" lon="15.049522148992205"><ele>448.00000000000006</ele><time>2026-04-19T15:08:09.001Z</time></trkpt><trkpt lat="37.008279104179465" lon="15.04959310754455"><ele>448.0</ele><time>2026-04-19T15:08:10.001Z</time></trkpt><trkpt lat="37.00832214438211" lon="15.049674066901991"><ele>446.00000000000006</ele><time>2026-04-19T15:08:11.001Z</time></trkpt><trkpt lat="37.008376326037386" lon="15.049740504029538"><ele>444.0</ele><time>2026-04-19T15:08:12.001Z</time></trkpt><trkpt lat="37.00846447738729" lon="15.049835871618761"><ele>442.0</ele><time>2026-04-19T15:08:14.001Z</time></trkpt><trkpt lat="37.00851884135421" lon="15.04987830500237"><ele>440.0</ele><time>2026-04-19T15:08:15.001Z</time></trkpt><trkpt lat="37.008598830250115" lon="15.049848388102763"><ele>438.00000000000006</ele><time>2026-04-19T15:08:16.001Z</time></trkpt><trkpt lat="37.00867352698911" lon="15.049811711838496"><ele>436.0</ele><time>2026-04-19T15:08:17.001Z</time></trkpt><trkpt lat="37.00873874066733" lon="15.049749533830225"><ele>436.00000000000006</ele><time>2026-04-19T15:08:18.001Z</time></trkpt><trkpt lat="37.00880212813667" lon="15.04968373752292"><ele>436.0</ele><time>2026-04-19T15:08:19.001Z</time></trkpt><trkpt lat="37.00886924464488" lon="15.049618104750143"><ele>436.0</ele><time>2026-04-19T15:08:20.001Z</time></trkpt><trkpt lat="37.008938949803074" lon="15.049544109657592"><ele>436.0</ele><time>2026-04-19T15:08:21.001Z</time></trkpt><trkpt lat="37.00901222389867" lon="15.049471100960776"><ele>436.00000000000006</ele><time>2026-04-19T15:08:22.001Z</time></trkpt><trkpt lat="37.009079689325084" lon="15.049400121742238"><ele>436.0</ele><time>2026-04-19T15:08:23.001Z</time></trkpt><trkpt lat="37.00915217290159" lon="15.049346675925886"><ele>434.6</ele><time>2026-04-19T15:08:24.001Z</time></trkpt><trkpt lat="37.009216848454294" lon="15.049280497652745"><ele>433.20000000000005</ele><time>2026-04-19T15:08:25.001Z</time></trkpt><trkpt lat="37.00930025212386" lon="15.049252622562925"><ele>431.79999999999995</ele><time>2026-04-19T15:08:26.001Z</time></trkpt><trkpt lat="37.00939206484636" lon="15.049228621690272"><ele>430.4</ele><time>2026-04-19T15:08:27.001Z</time></trkpt><trkpt lat="37.009488822316726" lon="15.049199639703941"><ele>429.0</ele><time>2026-04-19T15:08:28.001Z</time></trkpt><trkpt lat="37.00958377281796" lon="15.049170064254275"><ele>429.0</ele><time>2026-04-19T15:08:29.001Z</time></trkpt><trkpt lat="37.009675847786546" lon="15.049141396322936"><ele>429.0</ele><time>2026-04-19T15:08:30.001Z</time></trkpt><trkpt lat="37.009772294109204" lon="15.049134657240991"><ele>429.0</ele><time>2026-04-19T15:08:31.001Z</time></trkpt><trkpt lat="37.00986095573615" lon="15.049083849591174"><ele>429.0</ele><time>2026-04-19T15:08:32.001Z</time></trkpt><trkpt lat="37.009952846556324" lon="15.049056019338753"><ele>429.0</ele><time>2026-04-19T15:08:33.001Z</time></trkpt><trkpt lat="37.01004632177162" lon="15.049028382056257"><ele>428.6666666666667</ele><time>2026-04-19T15:08:34.001Z</time></trkpt><trkpt lat="37.01014004040583" lon="15.049034578254572"><ele>428.33333333333337</ele><time>2026-04-19T15:08:35.001Z</time></trkpt><trkpt lat="37.01022153169314" lon="15.04901518239057"><ele>428.0</ele><time>2026-04-19T15:08:36.001Z</time></trkpt><trkpt lat="37.01029621670078" lon="15.04903348054705"><ele>427.6666666666667</ele><time>2026-04-19T15:08:37.001Z</time></trkpt><trkpt lat="37.0103670632041" lon="15.049075526303858"><ele>427.33333333333337</ele><time>2026-04-19T15:08:38.001Z</time></trkpt><trkpt lat="37.01043819901442" lon="15.04910575957195"><ele>427.0</ele><time>2026-04-19T15:08:39.001Z</time></trkpt><trkpt lat="37.010510162328245" lon="15.049135457185214"><ele>426.0</ele><time>2026-04-19T15:08:40.001Z</time></trkpt><trkpt lat="37.01058709496796" lon="15.049147244919027"><ele>425.00000000000006</ele><time>2026-04-19T15:08:41.001Z</time></trkpt><trkpt lat="37.01065513811379" lon="15.049174280878011"><ele>424.0</ele><time>2026-04-19T15:08:42.001Z</time></trkpt><trkpt lat="37.01076173378582" lon="15.049235942451803"><ele>423.0</ele><time>2026-04-19T15:08:44.001Z</time></trkpt><trkpt lat="37.010858831441226" lon="15.049289659156326"><ele>422.0</ele><time>2026-04-19T15:08:46.001Z</time></trkpt><trkpt lat="37.01093684658069" lon="15.049314802374695"><ele>421.66666666666663</ele><time>2026-04-19T15:08:48.001Z</time></trkpt><trkpt lat="37.01101376786123" lon="15.049307867316331"><ele>421.3333333333333</ele><time>2026-04-19T15:08:51.001Z</time></trkpt><trkpt lat="37.01108068281226" lon="15.04928117509614"><ele>421.0</ele><time>2026-04-19T15:08:55.001Z</time></trkpt><trkpt lat="37.01111827135181" lon="15.049198176000699"><ele>420.66666666666663</ele><time>2026-04-19T15:08:58.001Z</time></trkpt><trkpt lat="37.01114430152564" lon="15.04910512203365"><ele>420.3333333333333</ele><time>2026-04-19T15:09:00.001Z</time></trkpt><trkpt lat="37.01116020476275" lon="15.048972100100636"><ele>420.0</ele><time>2026-04-19T15:09:02.001Z</time></trkpt><trkpt lat="37.011180192614106" lon="15.048889384350856"><ele>420.0</ele><time>2026-04-19T15:09:03.001Z</time></trkpt><trkpt lat="37.01123232936477" lon="15.0487571463316"><ele>420.0</ele><time>2026-04-19T15:09:05.001Z</time></trkpt><trkpt lat="37.01124216764909" lon="15.04867097210964"><ele>420.0</ele><time>2026-04-19T15:09:06.001Z</time></trkpt><trkpt lat="37.01127650399298" lon="15.048589635870888"><ele>420.0</ele><time>2026-04-19T15:09:07.001Z</time></trkpt><trkpt lat="37.01131192323" lon="15.048500130026543"><ele>420.0</ele><time>2026-04-19T15:09:08.001Z</time></trkpt><trkpt lat="37.011349656420926" lon="15.04840645121688"><ele>420.0</ele><time>2026-04-19T15:09:09.001Z</time></trkpt><trkpt lat="37.01140612392461" lon="15.048319929874877"><ele>420.1666666666667</ele><time>2026-04-19T15:09:10.001Z</time></trkpt><trkpt lat="37.011447122595854" lon="15.048235838970559"><ele>420.33333333333337</ele><time>2026-04-19T15:09:11.001Z</time></trkpt><trkpt lat="37.01148702888054" lon="15.04815633197193"><ele>420.5</ele><time>2026-04-19T15:09:12.001Z</time></trkpt><trkpt lat="37.01153017007303" lon="15.048074293285671"><ele>420.6666666666667</ele><time>2026-04-19T15:09:13.001Z</time></trkpt><trkpt lat="37.011581492346636" lon="15.047984792224588"><ele>420.83333333333337</ele><time>2026-04-19T15:09:14.001Z</time></trkpt><trkpt lat="37.0116348578798" lon="15.04790064452909"><ele>421.0</ele><time>2026-04-19T15:09:15.001Z</time></trkpt><trkpt lat="37.01168913202611" lon="15.047816892917975"><ele>421.0</ele><time>2026-04-19T15:09:16.001Z</time></trkpt><trkpt lat="37.01174626436591" lon="15.047739076964369"><ele>421.0</ele><time>2026-04-19T15:09:17.001Z</time></trkpt><trkpt lat="37.01181375670451" lon="15.047666672343313"><ele>421.0</ele><time>2026-04-19T15:09:18.001Z</time></trkpt><trkpt lat="37.01189205350886" lon="15.04760405224752"><ele>421.0</ele><time>2026-04-19T15:09:19.001Z</time></trkpt><trkpt lat="37.01197624180619" lon="15.047536101550515"><ele>421.0</ele><time>2026-04-19T15:09:20.001Z</time></trkpt><trkpt lat="37.012066321606355" lon="15.047466010782768"><ele>421.20000000000005</ele><time>2026-04-19T15:09:21.001Z</time></trkpt><trkpt lat="37.0121532259401" lon="15.047398846969502"><ele>421.40000000000003</ele><time>2026-04-19T15:09:22.001Z</time></trkpt><trkpt lat="37.012233159073666" lon="15.047336043310642"><ele>421.6</ele><time>2026-04-19T15:09:23.001Z</time></trkpt><trkpt lat="37.012311214779366" lon="15.047274818883919"><ele>421.8</ele><time>2026-04-19T15:09:24.001Z</time></trkpt><trkpt lat="37.01238287052763" lon="15.04720268849922"><ele>422.0</ele><time>2026-04-19T15:09:25.001Z</time></trkpt><trkpt lat="37.01246019957025" lon="15.04714948222099"><ele>424.3333333333333</ele><time>2026-04-19T15:09:26.001Z</time></trkpt><trkpt lat="37.01253911001931" lon="15.047101671953747"><ele>426.66666666666663</ele><time>2026-04-19T15:09:27.001Z</time></trkpt><trkpt lat="37.01261155737624" lon="15.047047048248356"><ele>429.0</ele><time>2026-04-19T15:09:28.001Z</time></trkpt><trkpt lat="37.012685167053014" lon="15.04699789719875"><ele>431.33333333333337</ele><time>2026-04-19T15:09:29.001Z</time></trkpt><trkpt lat="37.01275263366166" lon="15.046941627303578"><ele>433.6666666666667</ele><time>2026-04-19T15:09:30.001Z</time></trkpt><trkpt lat="37.0128235711662" lon="15.046891651892093"><ele>436.0</ele><time>2026-04-19T15:09:31.001Z</time></trkpt><trkpt lat="37.01286517617913" lon="15.046794200238022"><ele>436.0</ele><time>2026-04-19T15:09:32.001Z</time></trkpt><trkpt lat="37.01291735109305" lon="15.046708347554995"><ele>436.0</ele><time>2026-04-19T15:09:33.001Z</time></trkpt><trkpt lat="37.01297811021086" lon="15.046625220995438"><ele>436.0</ele><time>2026-04-19T15:09:34.001Z</time></trkpt><trkpt lat="37.01304915927155" lon="15.046541836439008"><ele>436.0</ele><time>2026-04-19T15:09:35.001Z</time></trkpt><trkpt lat="37.01311704822747" lon="15.046448639418497"><ele>436.0</ele><time>2026-04-19T15:09:36.001Z</time></trkpt><trkpt lat="37.01317622387856" lon="15.046351957815519"><ele>437.6</ele><time>2026-04-19T15:09:37.001Z</time></trkpt><trkpt lat="37.01323712741851" lon="15.046269553674385"><ele>439.20000000000005</ele><time>2026-04-19T15:09:38.001Z</time></trkpt><trkpt lat="37.013304597551574" lon="15.046210254742629"><ele>440.79999999999995</ele><time>2026-04-19T15:09:39.001Z</time></trkpt><trkpt lat="37.01337653130677" lon="15.046145165118222"><ele>442.4</ele><time>2026-04-19T15:09:40.001Z</time></trkpt><trkpt lat="37.01344703372024" lon="15.046063098831969"><ele>444.0</ele><time>2026-04-19T15:09:41.001Z</time></trkpt><trkpt lat="37.01352699408574" lon="15.045999945380697"><ele>444.5</ele><time>2026-04-19T15:09:42.001Z</time></trkpt><trkpt lat="37.01360732562298" lon="15.045943792645609"><ele>445.0</ele><time>2026-04-19T15:09:43.001Z</time></trkpt><trkpt lat="37.01367558809397" lon="15.045864896765643"><ele>445.5</ele><time>2026-04-19T15:09:44.001Z</time></trkpt><trkpt lat="37.013757871669796" lon="15.045839860027405"><ele>446.0</ele><time>2026-04-19T15:09:45.001Z</time></trkpt><trkpt lat="37.01382534023345" lon="15.045805091948486"><ele>446.5</ele><time>2026-04-19T15:09:46.001Z</time></trkpt><trkpt lat="37.013892733005065" lon="15.045778815381588"><ele>447.0</ele><time>2026-04-19T15:09:47.001Z</time></trkpt><trkpt lat="37.01395191692596" lon="15.045738026517894"><ele>448.1428571428571</ele><time>2026-04-19T15:09:48.001Z</time></trkpt><trkpt lat="37.014017078285754" lon="15.04570846312171"><ele>449.2857142857143</ele><time>2026-04-19T15:09:49.001Z</time></trkpt><trkpt lat="37.01407696529789" lon="15.045671585835832"><ele>450.42857142857144</ele><time>2026-04-19T15:09:50.001Z</time></trkpt><trkpt lat="37.014143941252435" lon="15.045642597499942"><ele>451.57142857142856</ele><time>2026-04-19T15:09:51.001Z</time></trkpt><trkpt lat="37.01419506382887" lon="15.04558229177258"><ele>452.7142857142857</ele><time>2026-04-19T15:09:52.001Z</time></trkpt><trkpt lat="37.01425566463785" lon="15.045537680707374"><ele>453.85714285714283</ele><time>2026-04-19T15:09:53.001Z</time></trkpt><trkpt lat="37.014324846354185" lon="15.045502003172759"><ele>455.0</ele><time>2026-04-19T15:09:54.001Z</time></trkpt><trkpt lat="37.0144116820967" lon="15.045481656658957"><ele>454.99999999999994</ele><time>2026-04-19T15:09:55.001Z</time></trkpt><trkpt lat="37.01450011487424" lon="15.045470587067008"><ele>455.0</ele><time>2026-04-19T15:09:56.001Z</time></trkpt><trkpt lat="37.01458303400341" lon="15.045454999037371"><ele>455.0</ele><time>2026-04-19T15:09:57.001Z</time></trkpt><trkpt lat="37.0146725735068" lon="15.045476080599975"><ele>455.0</ele><time>2026-04-19T15:09:58.001Z</time></trkpt><trkpt lat="37.014760961166786" lon="15.045485929158895"><ele>454.99999999999994</ele><time>2026-04-19T15:09:59.001Z</time></trkpt><trkpt lat="37.01484874206448" lon="15.045520714072405"><ele>455.0</ele><time>2026-04-19T15:10:00.001Z</time></trkpt><trkpt lat="37.014941726389466" lon="15.045547827527233"><ele>455.2</ele><time>2026-04-19T15:10:01.001Z</time></trkpt><trkpt lat="37.015041030627046" lon="15.045558673583107"><ele>455.4</ele><time>2026-04-19T15:10:02.001Z</time></trkpt><trkpt lat="37.01513825560443" lon="15.04558340660923"><ele>455.6</ele><time>2026-04-19T15:10:03.001Z</time></trkpt><trkpt lat="37.01523980941786" lon="15.045596448791459"><ele>455.8</ele><time>2026-04-19T15:10:04.001Z</time></trkpt><trkpt lat="37.01534078991488" lon="15.045615682147107"><ele>456.0</ele><time>2026-04-19T15:10:05.001Z</time></trkpt><trkpt lat="37.01544346324027" lon="15.045636646349086"><ele>456.0</ele><time>2026-04-19T15:10:06.001Z</time></trkpt><trkpt lat="37.01554963333166" lon="15.04565726128308"><ele>456.0</ele><time>2026-04-19T15:10:07.001Z</time></trkpt><trkpt lat="37.015656549789284" lon="15.045671927293272"><ele>456.0</ele><time>2026-04-19T15:10:08.001Z</time></trkpt><trkpt lat="37.0157616889289" lon="15.045688160817184"><ele>456.0</ele><time>2026-04-19T15:10:09.001Z</time></trkpt><trkpt lat="37.01585898827995" lon="15.045705062573594"><ele>456.0</ele><time>2026-04-19T15:10:10.001Z</time></trkpt><trkpt lat="37.015951638930915" lon="15.045725422801016"><ele>456.4</ele><time>2026-04-19T15:10:11.001Z</time></trkpt><trkpt lat="37.01604527086357" lon="15.045749550988583"><ele>456.8</ele><time>2026-04-19T15:10:12.001Z</time></trkpt><trkpt lat="37.016141107372555" lon="15.045761584230446"><ele>457.19999999999993</ele><time>2026-04-19T15:10:13.001Z</time></trkpt><trkpt lat="37.01623877363752" lon="15.045770862747636"><ele>457.59999999999997</ele><time>2026-04-19T15:10:14.001Z</time></trkpt><trkpt lat="37.01633543459084" lon="15.04580054428634"><ele>458.0</ele><time>2026-04-19T15:10:15.001Z</time></trkpt><trkpt lat="37.01643202837636" lon="15.04579355668232"><ele>458.79999999999995</ele><time>2026-04-19T15:10:16.001Z</time></trkpt><trkpt lat="37.01652907727162" lon="15.045807577982314"><ele>459.59999999999997</ele><time>2026-04-19T15:10:17.001Z</time></trkpt><trkpt lat="37.016627391139004" lon="15.045811790210424"><ele>460.40000000000003</ele><time>2026-04-19T15:10:18.001Z</time></trkpt><trkpt lat="37.016731149129996" lon="15.045806364769069"><ele>461.20000000000005</ele><time>2026-04-19T15:10:19.001Z</time></trkpt><trkpt lat="37.01683795806702" lon="15.045800654888096"><ele>462.0</ele><time>2026-04-19T15:10:20.001Z</time></trkpt><trkpt lat="37.01694704641896" lon="15.045818425894618"><ele>462.40000000000003</ele><time>2026-04-19T15:10:21.001Z</time></trkpt><trkpt lat="37.017051058158124" lon="15.045795621887645"><ele>462.80000000000007</ele><time>2026-04-19T15:10:22.001Z</time></trkpt><trkpt lat="37.01715385153745" lon="15.045794165391387"><ele>463.2</ele><time>2026-04-19T15:10:23.001Z</time></trkpt><trkpt lat="37.01725858499631" lon="15.045794957294552"><ele>463.6</ele><time>2026-04-19T15:10:24.001Z</time></trkpt><trkpt lat="37.01736597346336" lon="15.04579634793712"><ele>464.0</ele><time>2026-04-19T15:10:25.001Z</time></trkpt><trkpt lat="37.017481989617956" lon="15.045804740274479"><ele>464.2</ele><time>2026-04-19T15:10:26.001Z</time></trkpt><trkpt lat="37.01759984016035" lon="15.04581274846171"><ele>464.4</ele><time>2026-04-19T15:10:27.001Z</time></trkpt><trkpt lat="37.01771123316532" lon="15.045839271146088"><ele>464.6</ele><time>2026-04-19T15:10:28.001Z</time></trkpt><trkpt lat="37.0178193634002" lon="15.045825772582686"><ele>464.8</ele><time>2026-04-19T15:10:29.001Z</time></trkpt><trkpt lat="37.017924428302635" lon="15.045829454277554"><ele>465.0</ele><time>2026-04-19T15:10:30.001Z</time></trkpt><trkpt lat="37.01803435481804" lon="15.045824485675475"><ele>465.0</ele><time>2026-04-19T15:10:31.001Z</time></trkpt><trkpt lat="37.01814848591337" lon="15.045808742722993"><ele>465.0</ele><time>2026-04-19T15:10:32.001Z</time></trkpt><trkpt lat="37.01826483743963" lon="15.045785894827176"><ele>465.0</ele><time>2026-04-19T15:10:33.001Z</time></trkpt><trkpt lat="37.018380430382294" lon="15.04576122903863"><ele>465.0</ele><time>2026-04-19T15:10:34.001Z</time></trkpt><trkpt lat="37.01849228820854" lon="15.04573184445596"><ele>464.2</ele><time>2026-04-19T15:10:35.001Z</time></trkpt><trkpt lat="37.01859942195169" lon="15.04569651067043"><ele>463.4</ele><time>2026-04-19T15:10:36.001Z</time></trkpt><trkpt lat="37.01870488320716" lon="15.045660533296273"><ele>462.6</ele><time>2026-04-19T15:10:37.001Z</time></trkpt><trkpt lat="37.01880954873679" lon="15.045622247988584"><ele>461.8</ele><time>2026-04-19T15:10:38.001Z</time></trkpt><trkpt lat="37.01891351689927" lon="15.045581125263526"><ele>461.0</ele><time>2026-04-19T15:10:39.001Z</time></trkpt><trkpt lat="37.01900929766919" lon="15.0455393145358"><ele>461.0</ele><time>2026-04-19T15:10:40.001Z</time></trkpt><trkpt lat="37.01909344525493" lon="15.045498664123263"><ele>461.0</ele><time>2026-04-19T15:10:41.001Z</time></trkpt><trkpt lat="37.019174727389846" lon="15.045461940832917"><ele>461.0</ele><time>2026-04-19T15:10:42.001Z</time></trkpt><trkpt lat="37.01925594163608" lon="15.04543338949327"><ele>461.0</ele><time>2026-04-19T15:10:43.001Z</time></trkpt><trkpt lat="37.0193503400668" lon="15.045420167340833"><ele>461.0</ele><time>2026-04-19T15:10:44.001Z</time></trkpt><trkpt lat="37.019448217299164" lon="15.045418254967734"><ele>461.4</ele><time>2026-04-19T15:10:45.001Z</time></trkpt><trkpt lat="37.01954775868771" lon="15.045425316417372"><ele>461.8</ele><time>2026-04-19T15:10:46.001Z</time></trkpt><trkpt lat="37.0196474892487" lon="15.045430606293785"><ele>462.19999999999993</ele><time>2026-04-19T15:10:47.001Z</time></trkpt><trkpt lat="37.019747208956986" lon="15.045433767961498"><ele>462.59999999999997</ele><time>2026-04-19T15:10:48.001Z</time></trkpt><trkpt lat="37.01984349947217" lon="15.045423666765045"><ele>463.0</ele><time>2026-04-19T15:10:49.001Z</time></trkpt><trkpt lat="37.019940134372106" lon="15.045399858683481"><ele>463.2</ele><time>2026-04-19T15:10:50.001Z</time></trkpt><trkpt lat="37.02003581099048" lon="15.045369482063329"><ele>463.4</ele><time>2026-04-19T15:10:51.001Z</time></trkpt><trkpt lat="37.020134804949905" lon="15.045334550143666"><ele>463.59999999999997</ele><time>2026-04-19T15:10:52.001Z</time></trkpt><trkpt lat="37.0202326792922" lon="15.045300627951915"><ele>463.79999999999995</ele><time>2026-04-19T15:10:53.001Z</time></trkpt><trkpt lat="37.020331127381105" lon="15.045261377173764"><ele>464.0</ele><time>2026-04-19T15:10:54.001Z</time></trkpt><trkpt lat="37.020425035619276" lon="15.045218433553481"><ele>463.99999999999994</ele><time>2026-04-19T15:10:55.001Z</time></trkpt><trkpt lat="37.02051384683872" lon="15.045174587490552"><ele>464.0</ele><time>2026-04-19T15:10:56.001Z</time></trkpt><trkpt lat="37.02059715568648" lon="15.045131092890276"><ele>464.0</ele><time>2026-04-19T15:10:57.001Z</time></trkpt><trkpt lat="37.020673086137414" lon="15.045084540290041"><ele>464.0</ele><time>2026-04-19T15:10:58.001Z</time></trkpt><trkpt lat="37.02074144092201" lon="15.045038888031451"><ele>463.99999999999994</ele><time>2026-04-19T15:10:59.001Z</time></trkpt><trkpt lat="37.02080051277677" lon="15.044999522289121"><ele>464.0</ele><time>2026-04-19T15:11:00.001Z</time></trkpt><trkpt lat="37.02089084050023" lon="15.044933849109675"><ele>464.0</ele><time>2026-04-19T15:11:02.001Z</time></trkpt><trkpt lat="37.02095678524152" lon="15.044833921023963"><ele>464.0</ele><time>2026-04-19T15:11:04.001Z</time></trkpt><trkpt lat="37.02102646256095" lon="15.044722119638264"><ele>464.0</ele><time>2026-04-19T15:11:06.001Z</time></trkpt><trkpt lat="37.02111047219133" lon="15.044667787017737"><ele>464.0</ele><time>2026-04-19T15:11:08.001Z</time></trkpt><trkpt lat="37.02119695720458" lon="15.044697194436239"><ele>464.0</ele><time>2026-04-19T15:11:10.001Z</time></trkpt><trkpt lat="37.0213092126697" lon="15.044777065962863"><ele>464.00000000000006</ele><time>2026-04-19T15:11:12.001Z</time></trkpt><trkpt lat="37.02136446733837" lon="15.044827953203255"><ele>464.0</ele><time>2026-04-19T15:11:13.001Z</time></trkpt><trkpt lat="37.02141905609289" lon="15.044884128476768"><ele>464.00000000000006</ele><time>2026-04-19T15:11:14.001Z</time></trkpt><trkpt lat="37.02147631000993" lon="15.044928026137173"><ele>464.00000000000006</ele><time>2026-04-19T15:11:15.001Z</time></trkpt><trkpt lat="37.02153692931832" lon="15.044968896380443"><ele>464.0</ele><time>2026-04-19T15:11:16.001Z</time></trkpt><trkpt lat="37.02160406881878" lon="15.045004243090382"><ele>464.00000000000006</ele><time>2026-04-19T15:11:17.001Z</time></trkpt><trkpt lat="37.02167769000871" lon="15.045044859503681"><ele>464.00000000000006</ele><time>2026-04-19T15:11:18.001Z</time></trkpt><trkpt lat="37.021747297203206" lon="15.04508254661566"><ele>464.16666666666663</ele><time>2026-04-19T15:11:19.001Z</time></trkpt><trkpt lat="37.02181825492165" lon="15.045107195491129"><ele>464.3333333333333</ele><time>2026-04-19T15:11:20.001Z</time></trkpt><trkpt lat="37.02188805119668" lon="15.045136183921137"><ele>464.5</ele><time>2026-04-19T15:11:21.001Z</time></trkpt><trkpt lat="37.0219531907369" lon="15.04517793868752"><ele>464.66666666666663</ele><time>2026-04-19T15:11:22.001Z</time></trkpt><trkpt lat="37.02200776175802" lon="15.045244033156584"><ele>464.8333333333333</ele><time>2026-04-19T15:11:23.001Z</time></trkpt><trkpt lat="37.02205452200821" lon="15.045326034298819"><ele>465.0</ele><time>2026-04-19T15:11:24.001Z</time></trkpt><trkpt lat="37.022098429663465" lon="15.045413748506618"><ele>465.0</ele><time>2026-04-19T15:11:25.001Z</time></trkpt><trkpt lat="37.02214400122977" lon="15.045504417973447"><ele>465.0</ele><time>2026-04-19T15:11:26.001Z</time></trkpt><trkpt lat="37.022190179489115" lon="15.045600904030849"><ele>465.0</ele><time>2026-04-19T15:11:27.001Z</time></trkpt><trkpt lat="37.02221639135023" lon="15.04571840621578"><ele>465.0</ele><time>2026-04-19T15:11:28.001Z</time></trkpt><trkpt lat="37.02225622485522" lon="15.045834585627167"><ele>465.0</ele><time>2026-04-19T15:11:29.001Z</time></trkpt><trkpt lat="37.02229605161756" lon="15.045953451139546"><ele>465.4</ele><time>2026-04-19T15:11:30.001Z</time></trkpt><trkpt lat="37.0223351433103" lon="15.04607053794166"><ele>465.8</ele><time>2026-04-19T15:11:31.001Z</time></trkpt><trkpt lat="37.0223736242155" lon="15.04618496901386"><ele>466.20000000000005</ele><time>2026-04-19T15:11:32.001Z</time></trkpt><trkpt lat="37.0224118799346" lon="15.046294735528143"><ele>466.6</ele><time>2026-04-19T15:11:33.001Z</time></trkpt><trkpt lat="37.02244932395719" lon="15.046404901193085"><ele>467.0</ele><time>2026-04-19T15:11:34.001Z</time></trkpt><trkpt lat="37.02248236325036" lon="15.046504745700746"><ele>467.6</ele><time>2026-04-19T15:11:35.001Z</time></trkpt><trkpt lat="37.0225089415211" lon="15.046589185860135"><ele>468.20000000000005</ele><time>2026-04-19T15:11:36.001Z</time></trkpt><trkpt lat="37.02253196042965" lon="15.046668604407225"><ele>468.8</ele><time>2026-04-19T15:11:37.001Z</time></trkpt><trkpt lat="37.022569731959784" lon="15.046805321813352"><ele>469.4</ele><time>2026-04-19T15:11:39.001Z</time></trkpt><trkpt lat="37.02260232798564" lon="15.046923305983931"><ele>470.0</ele><time>2026-04-19T15:11:41.001Z</time></trkpt><trkpt lat="37.02265052780762" lon="15.047041732443164"><ele>470.0</ele><time>2026-04-19T15:11:43.001Z</time></trkpt><trkpt lat="37.022669189000055" lon="15.04718233953692"><ele>470.0</ele><time>2026-04-19T15:11:45.001Z</time></trkpt><trkpt lat="37.022717143605355" lon="15.047318544615582"><ele>470.0</ele><time>2026-04-19T15:11:47.001Z</time></trkpt><trkpt lat="37.02274988381226" lon="15.047459501215851"><ele>470.0</ele><time>2026-04-19T15:11:49.001Z</time></trkpt><trkpt lat="37.02279766128709" lon="15.04761257274786"><ele>470.0</ele><time>2026-04-19T15:11:51.001Z</time></trkpt><trkpt lat="37.022835461964526" lon="15.047687439985015"><ele>469.99999999999994</ele><time>2026-04-19T15:11:52.001Z</time></trkpt><trkpt lat="37.02288012727084" lon="15.047759470152785"><ele>470.0</ele><time>2026-04-19T15:11:53.001Z</time></trkpt><trkpt lat="37.022926413688026" lon="15.047827631480802"><ele>470.0</ele><time>2026-04-19T15:11:54.001Z</time></trkpt><trkpt lat="37.02298774842723" lon="15.047885660326802"><ele>469.99999999999994</ele><time>2026-04-19T15:11:55.001Z</time></trkpt><trkpt lat="37.02302586171479" lon="15.047970205442278"><ele>470.0</ele><time>2026-04-19T15:11:56.001Z</time></trkpt><trkpt lat="37.02307435686783" lon="15.048048214037722"><ele>470.0</ele><time>2026-04-19T15:11:57.001Z</time></trkpt><trkpt lat="37.0231234195181" lon="15.048130754267726"><ele>469.99999999999994</ele><time>2026-04-19T15:11:58.001Z</time></trkpt><trkpt lat="37.02318428372776" lon="15.048204552928564"><ele>470.0</ele><time>2026-04-19T15:11:59.001Z</time></trkpt><trkpt lat="37.02322965693193" lon="15.048292601176612"><ele>470.0</ele><time>2026-04-19T15:12:00.001Z</time></trkpt><trkpt lat="37.023274837727286" lon="15.048379552428912"><ele>470.0</ele><time>2026-04-19T15:12:01.001Z</time></trkpt><trkpt lat="37.02330491240725" lon="15.048483168735707"><ele>469.99999999999994</ele><time>2026-04-19T15:12:02.001Z</time></trkpt><trkpt lat="37.02334494353076" lon="15.048578269471365"><ele>470.0</ele><time>2026-04-19T15:12:03.001Z</time></trkpt><trkpt lat="37.023398216261036" lon="15.048665201433964"><ele>469.99999999999994</ele><time>2026-04-19T15:12:04.001Z</time></trkpt><trkpt lat="37.02343799878506" lon="15.04876218655665"><ele>470.0</ele><time>2026-04-19T15:12:05.001Z</time></trkpt><trkpt lat="37.023486310259514" lon="15.048857934373816"><ele>470.0</ele><time>2026-04-19T15:12:06.001Z</time></trkpt><trkpt lat="37.023542479099014" lon="15.048944104038647"><ele>470.0</ele><time>2026-04-19T15:12:07.001Z</time></trkpt><trkpt lat="37.02360129923536" lon="15.049027293169825"><ele>469.99999999999994</ele><time>2026-04-19T15:12:08.001Z</time></trkpt><trkpt lat="37.02365329314536" lon="15.04912121831147"><ele>470.0</ele><time>2026-04-19T15:12:09.001Z</time></trkpt><trkpt lat="37.02371295116" lon="15.049203760362705"><ele>469.49999999999994</ele><time>2026-04-19T15:12:10.001Z</time></trkpt><trkpt lat="37.02377122629434" lon="15.049291207262167"><ele>469.0</ele><time>2026-04-19T15:12:11.001Z</time></trkpt><trkpt lat="37.02382678509908" lon="15.049379509275022"><ele>468.5</ele><time>2026-04-19T15:12:12.001Z</time></trkpt><trkpt lat="37.023892062780035" lon="15.04945679786727"><ele>468.0</ele><time>2026-04-19T15:12:13.001Z</time></trkpt><trkpt lat="37.023929934458366" lon="15.04955566270848"><ele>467.49999999999994</ele><time>2026-04-19T15:12:14.001Z</time></trkpt><trkpt lat="37.02397804025794" lon="15.049642608953956"><ele>467.0</ele><time>2026-04-19T15:12:15.001Z</time></trkpt><trkpt lat="37.024037081167755" lon="15.04971309581935"><ele>466.99999999999994</ele><time>2026-04-19T15:12:16.001Z</time></trkpt><trkpt lat="37.024066685925945" lon="15.049803303508845"><ele>467.0</ele><time>2026-04-19T15:12:17.001Z</time></trkpt><trkpt lat="37.024109109519756" lon="15.049879137857705"><ele>467.0</ele><time>2026-04-19T15:12:18.001Z</time></trkpt><trkpt lat="37.02415492192884" lon="15.049954053476377"><ele>467.0</ele><time>2026-04-19T15:12:19.001Z</time></trkpt><trkpt lat="37.02420198435182" lon="15.050028222778618"><ele>466.99999999999994</ele><time>2026-04-19T15:12:20Z</time></trkpt><trkpt lat="37.024251456852475" lon="15.050101732747894"><ele>467.0</ele><time>2026-04-19T15:12:21Z</time></trkpt><trkpt lat="37.02430517518889" lon="15.05017596068161"><ele>467.8333333333333</ele><time>2026-04-19T15:12:22Z</time></trkpt><trkpt lat="37.02436362102045" lon="15.050248537943013"><ele>468.66666666666663</ele><time>2026-04-19T15:12:23Z</time></trkpt><trkpt lat="37.02442669609262" lon="15.050318618292083"><ele>469.5</ele><time>2026-04-19T15:12:24Z</time></trkpt><trkpt lat="37.02450641283736" lon="15.050366149929518"><ele>470.33333333333337</ele><time>2026-04-19T15:12:25Z</time></trkpt><trkpt lat="37.024572561802536" lon="15.050440618879014"><ele>471.1666666666667</ele><time>2026-04-19T15:12:26Z</time></trkpt><trkpt lat="37.02465282746541" lon="15.05049235532476"><ele>472.0</ele><time>2026-04-19T15:12:27Z</time></trkpt><trkpt lat="37.02474159990273" lon="15.050521146439182"><ele>472.0</ele><time>2026-04-19T15:12:28Z</time></trkpt><trkpt lat="37.02482701343355" lon="15.050563596085839"><ele>472.00000000000006</ele><time>2026-04-19T15:12:29Z</time></trkpt><trkpt lat="37.024918330543414" lon="15.050603650179822"><ele>472.00000000000006</ele><time>2026-04-19T15:12:30Z</time></trkpt><trkpt lat="37.025008060857296" lon="15.050641384546473"><ele>472.0</ele><time>2026-04-19T15:12:31Z</time></trkpt><trkpt lat="37.0250977162075" lon="15.050670336808414"><ele>472.0</ele><time>2026-04-19T15:12:32Z</time></trkpt><trkpt lat="37.025197848908675" lon="15.050704588645965"><ele>471.6</ele><time>2026-04-19T15:12:33Z</time></trkpt><trkpt lat="37.02530274028867" lon="15.050751564678334"><ele>471.20000000000005</ele><time>2026-04-19T15:12:34Z</time></trkpt><trkpt lat="37.0254317815781" lon="15.0507845304822"><ele>470.8</ele><time>2026-04-19T15:12:36Z</time></trkpt><trkpt lat="37.02550953839603" lon="15.050822717926659"><ele>470.4</ele><time>2026-04-19T15:12:37Z</time></trkpt><trkpt lat="37.02557913334807" lon="15.050875230669735"><ele>470.0</ele><time>2026-04-19T15:12:38Z</time></trkpt><trkpt lat="37.02565359890537" lon="15.050893413145516"><ele>470.0</ele><time>2026-04-19T15:12:39Z</time></trkpt><trkpt lat="37.025722842445276" lon="15.050930325047654"><ele>469.99999999999994</ele><time>2026-04-19T15:12:40Z</time></trkpt><trkpt lat="37.025791308566625" lon="15.050968314473993"><ele>470.0</ele><time>2026-04-19T15:12:41Z</time></trkpt><trkpt lat="37.02586117193205" lon="15.051004252568736"><ele>470.0</ele><time>2026-04-19T15:12:42Z</time></trkpt><trkpt lat="37.025925040193" lon="15.05104718718726"><ele>469.99999999999994</ele><time>2026-04-19T15:12:43Z</time></trkpt><trkpt lat="37.02598098784023" lon="15.05110725916382"><ele>470.0</ele><time>2026-04-19T15:12:44Z</time></trkpt><trkpt lat="37.02604294134154" lon="15.051153895291316"><ele>470.0</ele><time>2026-04-19T15:12:45Z</time></trkpt><trkpt lat="37.026103916266884" lon="15.051201788729365"><ele>470.2857142857143</ele><time>2026-04-19T15:12:46Z</time></trkpt><trkpt lat="37.02616649923142" lon="15.051250945265584"><ele>470.57142857142856</ele><time>2026-04-19T15:12:47Z</time></trkpt><trkpt lat="37.026227517054444" lon="15.051298872020144"><ele>470.85714285714283</ele><time>2026-04-19T15:12:48Z</time></trkpt><trkpt lat="37.02629534855784" lon="15.051330586506303"><ele>471.1428571428571</ele><time>2026-04-19T15:12:49Z</time></trkpt><trkpt lat="37.02636062743422" lon="15.051368999974487"><ele>471.42857142857144</ele><time>2026-04-19T15:12:50Z</time></trkpt><trkpt lat="37.02642494774765" lon="15.051401919092553"><ele>471.71428571428567</ele><time>2026-04-19T15:12:51Z</time></trkpt><trkpt lat="37.02648899447613" lon="15.051431682364832"><ele>472.0</ele><time>2026-04-19T15:12:52Z</time></trkpt><trkpt lat="37.026601579379836" lon="15.051471917956052"><ele>473.6666666666667</ele><time>2026-04-19T15:12:54Z</time></trkpt><trkpt lat="37.02670458118013" lon="15.051514227746104"><ele>475.33333333333337</ele><time>2026-04-19T15:12:56Z</time></trkpt><trkpt lat="37.026795100540305" lon="15.05152637153998"><ele>477.0</ele><time>2026-04-19T15:12:58Z</time></trkpt><trkpt lat="37.02687388977104" lon="15.05155569419582"><ele>478.66666666666663</ele><time>2026-04-19T15:13:00Z</time></trkpt><trkpt lat="37.02697456291901" lon="15.051565126353527"><ele>480.3333333333333</ele><time>2026-04-19T15:13:02Z</time></trkpt><trkpt lat="37.027038112895674" lon="15.051563166182268"><ele>482.0</ele><time>2026-04-19T15:13:03Z</time></trkpt><trkpt lat="37.02710332856817" lon="15.051556061454557"><ele>481.99999999999994</ele><time>2026-04-19T15:13:04Z</time></trkpt><trkpt lat="37.02721499154066" lon="15.051544416918523"><ele>482.0</ele><time>2026-04-19T15:13:06Z</time></trkpt><trkpt lat="37.027292400750774" lon="15.051536834005784"><ele>482.0</ele><time>2026-04-19T15:13:08Z</time></trkpt><trkpt lat="37.027358921135104" lon="15.05158232427722"><ele>482.0</ele><time>2026-04-19T15:13:10Z</time></trkpt><trkpt lat="37.02743863827454" lon="15.051662380055188"><ele>481.99999999999994</ele><time>2026-04-19T15:13:12Z</time></trkpt><trkpt lat="37.02748048077193" lon="15.051721298666848"><ele>482.0</ele><time>2026-04-19T15:13:13Z</time></trkpt><trkpt lat="37.02749279186031" lon="15.05180062808568"><ele>480.99999999999994</ele><time>2026-04-19T15:13:14Z</time></trkpt><trkpt lat="37.02753889884237" lon="15.05194827419152"><ele>480.0</ele><time>2026-04-19T15:13:16Z</time></trkpt><trkpt lat="37.02759718011544" lon="15.05201042862093"><ele>479.0</ele><time>2026-04-19T15:13:17Z</time></trkpt><trkpt lat="37.02764883593414" lon="15.052066573890725"><ele>478.0</ele><time>2026-04-19T15:13:18.001Z</time></trkpt><trkpt lat="37.02769227484794" lon="15.052127297612703"><ele>476.99999999999994</ele><time>2026-04-19T15:13:19.001Z</time></trkpt><trkpt lat="37.02777102089093" lon="15.052198356363576"><ele>476.0</ele><time>2026-04-19T15:13:21.001Z</time></trkpt><trkpt lat="37.027837940825194" lon="15.052249091590099"><ele>476.0</ele><time>2026-04-19T15:13:24.001Z</time></trkpt><trkpt lat="37.027882363434045" lon="15.052309410204955"><ele>476.0</ele><time>2026-04-19T15:13:30.001Z</time></trkpt><trkpt lat="37.027804402542735" lon="15.052392168610895"><ele>476.0</ele><time>2026-04-19T15:13:31.001Z</time></trkpt><trkpt lat="37.0277581710204" lon="15.052539331742366"><ele>476.0</ele><time>2026-04-19T15:13:33.001Z</time></trkpt><trkpt lat="37.02771374918927" lon="15.052680292898424"><ele>476.0</ele><time>2026-04-19T15:13:35.001Z</time></trkpt><trkpt lat="37.027673615408396" lon="15.052805923413995"><ele>475.8</ele><time>2026-04-19T15:13:37.001Z</time></trkpt><trkpt lat="37.027633506758455" lon="15.052931475275722"><ele>475.6</ele><time>2026-04-19T15:13:39.001Z</time></trkpt><trkpt lat="37.027586187691455" lon="15.053065371313384"><ele>475.4</ele><time>2026-04-19T15:13:41.001Z</time></trkpt><trkpt lat="37.02754227681384" lon="15.053191197562262"><ele>475.2</ele><time>2026-04-19T15:13:43.001Z</time></trkpt><trkpt lat="37.02751073307752" lon="15.053286585417572"><ele>475.0</ele><time>2026-04-19T15:13:45.001Z</time></trkpt><trkpt lat="37.02748492176402" lon="15.053387480265867"><ele>474.4</ele><time>2026-04-19T15:13:47.001Z</time></trkpt><trkpt lat="37.027460204733096" lon="15.053507410413408"><ele>473.8</ele><time>2026-04-19T15:13:49.001Z</time></trkpt><trkpt lat="37.02743613508651" lon="15.053626782858215"><ele>473.20000000000005</ele><time>2026-04-19T15:13:51.001Z</time></trkpt><trkpt lat="37.027412301972646" lon="15.053744982246892"><ele>472.6</ele><time>2026-04-19T15:13:53.001Z</time></trkpt><trkpt lat="37.02738831440798" lon="15.053858666323084"><ele>472.0</ele><time>2026-04-19T15:13:55.001Z</time></trkpt><trkpt lat="37.027365026004524" lon="15.053963886440311"><ele>472.00000000000006</ele><time>2026-04-19T15:13:57.001Z</time></trkpt><trkpt lat="37.02733782506115" lon="15.054056609142968"><ele>472.0</ele><time>2026-04-19T15:13:59.001Z</time></trkpt><trkpt lat="37.02731447431948" lon="15.054157707536937"><ele>472.0</ele><time>2026-04-19T15:14:01.001Z</time></trkpt><trkpt lat="37.027249605445384" lon="15.054218637970468"><ele>472.0</ele><time>2026-04-19T15:14:03Z</time></trkpt><trkpt lat="37.02719522259496" lon="15.054287046252561"><ele>472.00000000000006</ele><time>2026-04-19T15:14:05Z</time></trkpt><trkpt lat="37.02711652367331" lon="15.054383715329708"><ele>472.0</ele><time>2026-04-19T15:14:07Z</time></trkpt><trkpt lat="37.0270284792233" lon="15.054495373787852"><ele>473.0</ele><time>2026-04-19T15:14:09Z</time></trkpt><trkpt lat="37.02694711114739" lon="15.054601352877212"><ele>474.00000000000006</ele><time>2026-04-19T15:14:11Z</time></trkpt><trkpt lat="37.02685666980733" lon="15.054714916741208"><ele>475.00000000000006</ele><time>2026-04-19T15:14:13Z</time></trkpt><trkpt lat="37.026811851374916" lon="15.054771065174789"><ele>476.0</ele><time>2026-04-19T15:14:14Z</time></trkpt><trkpt lat="37.02672909693234" lon="15.054876715021248"><ele>477.0</ele><time>2026-04-19T15:14:16Z</time></trkpt><trkpt lat="37.026663545706015" lon="15.05496224046679"><ele>475.5</ele><time>2026-04-19T15:14:18Z</time></trkpt><trkpt lat="37.026612372271664" lon="15.055030933695802"><ele>474.0</ele><time>2026-04-19T15:14:20Z</time></trkpt><trkpt lat="37.026573475779124" lon="15.055112298645003"><ele>472.5</ele><time>2026-04-19T15:14:23Z</time></trkpt><trkpt lat="37.026563382607804" lon="15.055211740926522"><ele>471.0</ele><time>2026-04-19T15:14:28Z</time></trkpt><trkpt lat="37.026473787157876" lon="15.055279388294784"><ele>469.5</ele><time>2026-04-19T15:14:33Z</time></trkpt><trkpt lat="37.026401816345754" lon="15.055360127050317"><ele>468.0</ele><time>2026-04-19T15:14:36Z</time></trkpt><trkpt lat="37.0263449825096" lon="15.055420686423485"><ele>468.0</ele><time>2026-04-19T15:14:38Z</time></trkpt><trkpt lat="37.0262774440621" lon="15.055485844331178"><ele>468.0</ele><time>2026-04-19T15:14:40Z</time></trkpt><trkpt lat="37.026212567589845" lon="15.055548685656188"><ele>468.0</ele><time>2026-04-19T15:14:42Z</time></trkpt><trkpt lat="37.02614809718795" lon="15.055618802021002"><ele>468.0</ele><time>2026-04-19T15:14:44Z</time></trkpt><trkpt lat="37.0260927471648" lon="15.055693863212914"><ele>468.0</ele><time>2026-04-19T15:14:46Z</time></trkpt><trkpt lat="37.02604312421838" lon="15.055775696480065"><ele>468.0</ele><time>2026-04-19T15:14:48Z</time></trkpt><trkpt lat="37.026008835554975" lon="15.055859082258793"><ele>468.0</ele><time>2026-04-19T15:14:50Z</time></trkpt><trkpt lat="37.02597752325568" lon="15.055934182659175"><ele>467.99999999999994</ele><time>2026-04-19T15:14:55Z</time></trkpt><trkpt lat="37.025952096684684" lon="15.056033276267549"><ele>467.99999999999994</ele><time>2026-04-19T15:14:58Z</time></trkpt><trkpt lat="37.02597680930336" lon="15.055935894437031"><ele>468.0</ele><time>2026-04-19T15:15:24Z</time></trkpt><trkpt lat="37.026035760500484" lon="15.055794503693582"><ele>468.0</ele><time>2026-04-19T15:15:26Z</time></trkpt><trkpt lat="37.026089207105564" lon="15.055696902971036"><ele>468.0</ele><time>2026-04-19T15:15:27Z</time></trkpt><trkpt lat="37.0261575659222" lon="15.055603037621701"><ele>467.99999999999994</ele><time>2026-04-19T15:15:29Z</time></trkpt><trkpt lat="37.02624177914772" lon="15.055510846314107"><ele>467.99999999999994</ele><time>2026-04-19T15:15:31Z</time></trkpt><trkpt lat="37.02634122464559" lon="15.05542526678147"><ele>468.0</ele><time>2026-04-19T15:15:33Z</time></trkpt><trkpt lat="37.02641035730018" lon="15.05535102487918"><ele>468.0</ele><time>2026-04-19T15:15:35Z</time></trkpt><trkpt lat="37.02648162599512" lon="15.05526540183255"><ele>468.0</ele><time>2026-04-19T15:15:37Z</time></trkpt><trkpt lat="37.026554571554065" lon="15.05520149317293"><ele>467.99999999999994</ele><time>2026-04-19T15:15:39Z</time></trkpt><trkpt lat="37.02659532545193" lon="15.055121621832997"><ele>467.99999999999994</ele><time>2026-04-19T15:15:41Z</time></trkpt><trkpt lat="37.02662832116944" lon="15.0549954282534"><ele>468.0</ele><time>2026-04-19T15:15:44Z</time></trkpt><trkpt lat="37.02667953567145" lon="15.054940774190712"><ele>468.0</ele><time>2026-04-19T15:15:45Z</time></trkpt><trkpt lat="37.02677167806198" lon="15.054822491764266"><ele>469.79999999999995</ele><time>2026-04-19T15:15:47Z</time></trkpt><trkpt lat="37.02682777300854" lon="15.054751062662131"><ele>471.59999999999997</ele><time>2026-04-19T15:15:48Z</time></trkpt><trkpt lat="37.026872292329756" lon="15.054694374466845"><ele>473.40000000000003</ele><time>2026-04-19T15:15:49Z</time></trkpt><trkpt lat="37.02692130647856" lon="15.054633937217965"><ele>475.20000000000005</ele><time>2026-04-19T15:15:50Z</time></trkpt><trkpt lat="37.0270077408603" lon="15.054525653986097"><ele>477.0</ele><time>2026-04-19T15:15:52Z</time></trkpt><trkpt lat="37.027090392765196" lon="15.054414731497856"><ele>477.0</ele><time>2026-04-19T15:15:54Z</time></trkpt><trkpt lat="37.02717043882604" lon="15.054317486709024"><ele>477.00000000000006</ele><time>2026-04-19T15:15:56Z</time></trkpt><trkpt lat="37.02724412223431" lon="15.054226979285472"><ele>477.00000000000006</ele><time>2026-04-19T15:15:58Z</time></trkpt><trkpt lat="37.02732796800392" lon="15.054153121055297"><ele>477.0</ele><time>2026-04-19T15:16:00Z</time></trkpt><trkpt lat="37.02736551503962" lon="15.054040398799392"><ele>477.0</ele><time>2026-04-19T15:16:02Z</time></trkpt><trkpt lat="37.027398046066416" lon="15.053914921291073"><ele>476.5</ele><time>2026-04-19T15:16:04Z</time></trkpt><trkpt lat="37.02743295527321" lon="15.05377816795825"><ele>476.0</ele><time>2026-04-19T15:16:06Z</time></trkpt><trkpt lat="37.02746006746638" lon="15.053637226704085"><ele>475.5</ele><time>2026-04-19T15:16:08Z</time></trkpt><trkpt lat="37.027488332267666" lon="15.053495700995084"><ele>475.0</ele><time>2026-04-19T15:16:10Z</time></trkpt><trkpt lat="37.02751285102148" lon="15.053363929749317"><ele>475.00000000000006</ele><time>2026-04-19T15:16:12Z</time></trkpt><trkpt lat="37.02754817315804" lon="15.053245125073087"><ele>475.0</ele><time>2026-04-19T15:16:14Z</time></trkpt><trkpt lat="37.02758963918642" lon="15.05314000051515"><ele>475.0</ele><time>2026-04-19T15:16:16Z</time></trkpt><trkpt lat="37.02761831987106" lon="15.053061300855324"><ele>475.0</ele><time>2026-04-19T15:16:18Z</time></trkpt><trkpt lat="37.02764854406125" lon="15.052954760726886"><ele>475.00000000000006</ele><time>2026-04-19T15:16:21Z</time></trkpt><trkpt lat="37.027672455233926" lon="15.05288076358888"><ele>475.0</ele><time>2026-04-19T15:16:24Z</time></trkpt><trkpt lat="37.027702676555926" lon="15.052795968993662"><ele>475.0</ele><time>2026-04-19T15:16:27Z</time></trkpt><trkpt lat="37.02773271913108" lon="15.052726131812458"><ele>475.00000000000006</ele><time>2026-04-19T15:16:30Z</time></trkpt><trkpt lat="37.02775399979705" lon="15.052638423129832"><ele>475.0</ele><time>2026-04-19T15:16:33Z</time></trkpt><trkpt lat="37.02778032003658" lon="15.052535976927205"><ele>475.0</ele><time>2026-04-19T15:16:35Z</time></trkpt><trkpt lat="37.02780549950646" lon="15.052450921230111"><ele>475.00000000000006</ele><time>2026-04-19T15:16:37Z</time></trkpt><trkpt lat="37.02784808454184" lon="15.052369397813049"><ele>475.0</ele><time>2026-04-19T15:16:40Z</time></trkpt><trkpt lat="37.02785950962121" lon="15.052288899812414"><ele>475.0</ele><time>2026-04-19T15:16:43Z</time></trkpt><trkpt lat="37.02794981185635" lon="15.052317011492576"><ele>475.00000000000006</ele><time>2026-04-19T15:16:47Z</time></trkpt><trkpt lat="37.028027953150854" lon="15.052356693571841"><ele>475.0</ele><time>2026-04-19T15:16:50Z</time></trkpt><trkpt lat="37.02811511841268" lon="15.052391701557063"><ele>475.0</ele><time>2026-04-19T15:16:55Z</time></trkpt><trkpt lat="37.02819500143533" lon="15.052428259644389"><ele>475.0</ele><time>2026-04-19T15:16:57Z</time></trkpt><trkpt lat="37.02829224352297" lon="15.052474567749513"><ele>475.00000000000006</ele><time>2026-04-19T15:16:59Z</time></trkpt><trkpt lat="37.02836124177661" lon="15.052462758533814"><ele>475.0</ele><time>2026-04-19T15:17:01Z</time></trkpt><trkpt lat="37.02841959073375" lon="15.052377693794961"><ele>473.83333333333337</ele><time>2026-04-19T15:17:03Z</time></trkpt><trkpt lat="37.02844774667" lon="15.052241138558657"><ele>472.6666666666667</ele><time>2026-04-19T15:17:05Z</time></trkpt><trkpt lat="37.02846568595815" lon="15.05216551662145"><ele>471.5</ele><time>2026-04-19T15:17:06Z</time></trkpt><trkpt lat="37.028485595056864" lon="15.052086433650892"><ele>470.33333333333337</ele><time>2026-04-19T15:17:07Z</time></trkpt><trkpt lat="37.02850211289371" lon="15.052006269586268"><ele>469.1666666666667</ele><time>2026-04-19T15:17:08Z</time></trkpt><trkpt lat="37.02851299569421" lon="15.051920970988334"><ele>468.0</ele><time>2026-04-19T15:17:09Z</time></trkpt><trkpt lat="37.02852925174771" lon="15.051771098926345"><ele>468.0</ele><time>2026-04-19T15:17:11Z</time></trkpt><trkpt lat="37.02856013610477" lon="15.051642660115604"><ele>467.99999999999994</ele><time>2026-04-19T15:17:13Z</time></trkpt><trkpt lat="37.02860469200095" lon="15.051529509567033"><ele>467.99999999999994</ele><time>2026-04-19T15:17:15Z</time></trkpt><trkpt lat="37.028678007049976" lon="15.051419062434043"><ele>468.0</ele><time>2026-04-19T15:17:17Z</time></trkpt><trkpt lat="37.02877492775979" lon="15.051318674070988"><ele>468.0</ele><time>2026-04-19T15:17:19Z</time></trkpt><trkpt lat="37.02882273964273" lon="15.051262235597978"><ele>468.7142857142857</ele><time>2026-04-19T15:17:20Z</time></trkpt><trkpt lat="37.02886129800186" lon="15.051190459404292"><ele>469.42857142857144</ele><time>2026-04-19T15:17:21Z</time></trkpt><trkpt lat="37.02890866329471" lon="15.051134417405617"><ele>470.14285714285717</ele><time>2026-04-19T15:17:22Z</time></trkpt><trkpt lat="37.02895725681583" lon="15.051075493037688"><ele>470.8571428571429</ele><time>2026-04-19T15:17:23Z</time></trkpt><trkpt lat="37.029004116834" lon="15.051015634879422"><ele>471.57142857142856</ele><time>2026-04-19T15:17:24Z</time></trkpt><trkpt lat="37.02905282513827" lon="15.050950975807012"><ele>472.28571428571433</ele><time>2026-04-19T15:17:25Z</time></trkpt><trkpt lat="37.02910384451616" lon="15.050885132285671"><ele>473.0</ele><time>2026-04-19T15:17:26Z</time></trkpt><trkpt lat="37.0291604741566" lon="15.05081724932389"><ele>470.99999999999994</ele><time>2026-04-19T15:17:27Z</time></trkpt><trkpt lat="37.029219074206544" lon="15.05075186793908"><ele>469.0</ele><time>2026-04-19T15:17:28Z</time></trkpt><trkpt lat="37.029283476170974" lon="15.050690095812625"><ele>467.0</ele><time>2026-04-19T15:17:29Z</time></trkpt><trkpt lat="37.029351075586824" lon="15.050628838639913"><ele>465.0</ele><time>2026-04-19T15:17:30Z</time></trkpt><trkpt lat="37.02942102719618" lon="15.05057085912687"><ele>462.99999999999994</ele><time>2026-04-19T15:17:31Z</time></trkpt><trkpt lat="37.02949843576161" lon="15.050530055251198"><ele>461.0</ele><time>2026-04-19T15:17:32Z</time></trkpt><trkpt lat="37.02958088798684" lon="15.050521507782094"><ele>461.0</ele><time>2026-04-19T15:17:33Z</time></trkpt><trkpt lat="37.029655641373196" lon="15.050496882819377"><ele>461.00000000000006</ele><time>2026-04-19T15:17:34Z</time></trkpt><trkpt lat="37.02972615032454" lon="15.050472853517208"><ele>461.0</ele><time>2026-04-19T15:17:35Z</time></trkpt><trkpt lat="37.02979405667262" lon="15.050449711244548"><ele>461.0</ele><time>2026-04-19T15:17:36Z</time></trkpt><trkpt lat="37.029859176478574" lon="15.050427518597475"><ele>461.00000000000006</ele><time>2026-04-19T15:17:37Z</time></trkpt><trkpt lat="37.0299172175025" lon="15.05038817596575"><ele>461.0</ele><time>2026-04-19T15:17:38Z</time></trkpt><trkpt lat="37.029994328712334" lon="15.050386514583534"><ele>461.0</ele><time>2026-04-19T15:17:40Z</time></trkpt><trkpt lat="37.030072916396" lon="15.050485684465487"><ele>459.0</ele><time>2026-04-19T15:17:43Z</time></trkpt><trkpt lat="37.03014848851395" lon="15.050595534239491"><ele>457.0</ele><time>2026-04-19T15:17:45Z</time></trkpt><trkpt lat="37.03025091763934" lon="15.050671652174149"><ele>455.0</ele><time>2026-04-19T15:17:47Z</time></trkpt><trkpt lat="37.03037550072896" lon="15.050664730474617"><ele>453.0</ele><time>2026-04-19T15:17:49Z</time></trkpt><trkpt lat="37.030437980903734" lon="15.050638894726038"><ele>451.0</ele><time>2026-04-19T15:17:50Z</time></trkpt><trkpt lat="37.03049659962003" lon="15.05059690194411"><ele>451.00000000000006</ele><time>2026-04-19T15:17:51Z</time></trkpt><trkpt lat="37.030548765734146" lon="15.050540566772685"><ele>451.0</ele><time>2026-04-19T15:17:52Z</time></trkpt><trkpt lat="37.03059961770592" lon="15.050475226209805"><ele>451.0</ele><time>2026-04-19T15:17:53Z</time></trkpt><trkpt lat="37.03065465738394" lon="15.050410656817904"><ele>451.0</ele><time>2026-04-19T15:17:54Z</time></trkpt><trkpt lat="37.03071346277189" lon="15.050347627406499"><ele>451.00000000000006</ele><time>2026-04-19T15:17:55Z</time></trkpt><trkpt lat="37.03077133844485" lon="15.050277788149478"><ele>451.0</ele><time>2026-04-19T15:17:56Z</time></trkpt><trkpt lat="37.030830209984764" lon="15.050205671251087"><ele>450.6666666666667</ele><time>2026-04-19T15:17:57Z</time></trkpt><trkpt lat="37.030891937947835" lon="15.050134928671527"><ele>450.33333333333337</ele><time>2026-04-19T15:17:58Z</time></trkpt><trkpt lat="37.03095430428053" lon="15.050063719567104"><ele>450.0</ele><time>2026-04-19T15:17:59Z</time></trkpt><trkpt lat="37.0310179802749" lon="15.049991452754561"><ele>449.66666666666663</ele><time>2026-04-19T15:18:00Z</time></trkpt><trkpt lat="37.031083962168054" lon="15.049919639684305"><ele>449.3333333333333</ele><time>2026-04-19T15:18:01Z</time></trkpt><trkpt lat="37.03114628637282" lon="15.04985087937262"><ele>449.0</ele><time>2026-04-19T15:18:02Z</time></trkpt><trkpt lat="37.03120342072798" lon="15.049780650279"><ele>449.66666666666663</ele><time>2026-04-19T15:18:03Z</time></trkpt><trkpt lat="37.03125979532718" lon="15.049716106123709"><ele>450.3333333333333</ele><time>2026-04-19T15:18:04Z</time></trkpt><trkpt lat="37.03132248747011" lon="15.049661972673512"><ele>451.0</ele><time>2026-04-19T15:18:05Z</time></trkpt><trkpt lat="37.03138782020159" lon="15.049619302250163"><ele>451.66666666666663</ele><time>2026-04-19T15:18:06Z</time></trkpt><trkpt lat="37.03145878595833" lon="15.049591369683778"><ele>452.3333333333333</ele><time>2026-04-19T15:18:07Z</time></trkpt><trkpt lat="37.031535065699316" lon="15.04957477277523"><ele>453.0</ele><time>2026-04-19T15:18:08Z</time></trkpt><trkpt lat="37.03161583835686" lon="15.049561415921367"><ele>451.8333333333333</ele><time>2026-04-19T15:18:09Z</time></trkpt><trkpt lat="37.03170000877834" lon="15.04957560091267"><ele>450.66666666666663</ele><time>2026-04-19T15:18:10Z</time></trkpt><trkpt lat="37.031785240988235" lon="15.049611313821753"><ele>449.5</ele><time>2026-04-19T15:18:11Z</time></trkpt><trkpt lat="37.03187003859568" lon="15.049645155560723"><ele>448.3333333333333</ele><time>2026-04-19T15:18:12Z</time></trkpt><trkpt lat="37.03194902648704" lon="15.049674989038367"><ele>447.16666666666663</ele><time>2026-04-19T15:18:13Z</time></trkpt><trkpt lat="37.032025713809006" lon="15.049703504622205"><ele>446.0</ele><time>2026-04-19T15:18:14Z</time></trkpt><trkpt lat="37.032105035268465" lon="15.049731665389498"><ele>445.99999999999994</ele><time>2026-04-19T15:18:15Z</time></trkpt><trkpt lat="37.0321842843168" lon="15.04976249483946"><ele>446.0</ele><time>2026-04-19T15:18:16Z</time></trkpt><trkpt lat="37.0322669250658" lon="15.049791170947454"><ele>446.0</ele><time>2026-04-19T15:18:17Z</time></trkpt><trkpt lat="37.03234668884126" lon="15.049822624990897"><ele>446.0</ele><time>2026-04-19T15:18:18Z</time></trkpt><trkpt lat="37.032426512570524" lon="15.049849897368977"><ele>445.99999999999994</ele><time>2026-04-19T15:18:19Z</time></trkpt><trkpt lat="37.032496776409225" lon="15.049877641041206"><ele>446.0</ele><time>2026-04-19T15:18:20Z</time></trkpt><trkpt lat="37.032560320959526" lon="15.049909304617117"><ele>445.66666666666663</ele><time>2026-04-19T15:18:21Z</time></trkpt><trkpt lat="37.03262434191627" lon="15.04993774070082"><ele>445.3333333333333</ele><time>2026-04-19T15:18:22Z</time></trkpt><trkpt lat="37.03268748771244" lon="15.04996188907967"><ele>445.0</ele><time>2026-04-19T15:18:23Z</time></trkpt><trkpt lat="37.032752114680335" lon="15.049972445984288"><ele>444.66666666666663</ele><time>2026-04-19T15:18:24Z</time></trkpt><trkpt lat="37.03281742449931" lon="15.049968145604593"><ele>444.3333333333333</ele><time>2026-04-19T15:18:25Z</time></trkpt><trkpt lat="37.032937933031434" lon="15.049961126131839"><ele>444.0</ele><time>2026-04-19T15:18:27Z</time></trkpt><trkpt lat="37.033052129235024" lon="15.049919143437265"><ele>444.0</ele><time>2026-04-19T15:18:29Z</time></trkpt><trkpt lat="37.033165514045585" lon="15.049845737653675"><ele>444.0</ele><time>2026-04-19T15:18:31Z</time></trkpt><trkpt lat="37.033217513381366" lon="15.049793225233719"><ele>444.0</ele><time>2026-04-19T15:18:32Z</time></trkpt><trkpt lat="37.03326916991428" lon="15.04973654327267"><ele>444.0</ele><time>2026-04-19T15:18:33Z</time></trkpt><trkpt lat="37.03332370236228" lon="15.04967986051588"><ele>444.0</ele><time>2026-04-19T15:18:34Z</time></trkpt><trkpt lat="37.03338094695047" lon="15.049624001746851"><ele>444.0</ele><time>2026-04-19T15:18:35Z</time></trkpt><trkpt lat="37.033438143562506" lon="15.049577108645382"><ele>442.79999999999995</ele><time>2026-04-19T15:18:36Z</time></trkpt><trkpt lat="37.03354520221988" lon="15.049522860020245"><ele>441.59999999999997</ele><time>2026-04-19T15:18:38Z</time></trkpt><trkpt lat="37.0336564405832" lon="15.04952000327196"><ele>440.4</ele><time>2026-04-19T15:18:40Z</time></trkpt><trkpt lat="37.033770698649" lon="15.049549303171311"><ele>439.2</ele><time>2026-04-19T15:18:42Z</time></trkpt><trkpt lat="37.03382947429748" lon="15.049588171064224"><ele>438.0</ele><time>2026-04-19T15:18:43Z</time></trkpt><trkpt lat="37.0338879217969" lon="15.049630331974516"><ele>438.0</ele><time>2026-04-19T15:18:44Z</time></trkpt><trkpt lat="37.0339471493696" lon="15.04967899651636"><ele>438.0</ele><time>2026-04-19T15:18:45Z</time></trkpt><trkpt lat="37.03399316342184" lon="15.049749742428526"><ele>438.0</ele><time>2026-04-19T15:18:46Z</time></trkpt><trkpt lat="37.03404877894958" lon="15.049803250707294"><ele>438.0</ele><time>2026-04-19T15:18:47Z</time></trkpt><trkpt lat="37.034103795389704" lon="15.04985618260549"><ele>438.0</ele><time>2026-04-19T15:18:48Z</time></trkpt><trkpt lat="37.0341579987003" lon="15.049908332175514"><ele>438.0</ele><time>2026-04-19T15:18:49Z</time></trkpt><trkpt lat="37.034212661838424" lon="15.049960924258048"><ele>438.0</ele><time>2026-04-19T15:18:50Z</time></trkpt><trkpt lat="37.03426257248609" lon="15.050014630938222"><ele>436.5</ele><time>2026-04-19T15:18:51Z</time></trkpt><trkpt lat="37.03435558562754" lon="15.05010317269166"><ele>435.0</ele><time>2026-04-19T15:18:53Z</time></trkpt><trkpt lat="37.03440992562607" lon="15.050200522191249"><ele>433.5</ele><time>2026-04-19T15:18:55Z</time></trkpt><trkpt lat="37.03444746679241" lon="15.050287027313429"><ele>432.0</ele><time>2026-04-19T15:18:57Z</time></trkpt><trkpt lat="37.03448888391878" lon="15.050372319129908"><ele>430.5</ele><time>2026-04-19T15:19:00Z</time></trkpt><trkpt lat="37.0345111671662" lon="15.050466729780892"><ele>429.0</ele><time>2026-04-19T15:19:06Z</time></trkpt><trkpt lat="37.0345658755118" lon="15.050550193549471"><ele>429.0</ele><time>2026-04-19T15:19:09Z</time></trkpt><trkpt lat="37.03455652683351" lon="15.050675001259206"><ele>429.0</ele><time>2026-04-19T15:19:11Z</time></trkpt><trkpt lat="37.03455325891545" lon="15.050780309984825"><ele>429.0</ele><time>2026-04-19T15:19:13Z</time></trkpt><trkpt lat="37.03454233417757" lon="15.0509141804985"><ele>429.0</ele><time>2026-04-19T15:19:15Z</time></trkpt><trkpt lat="37.034535472623766" lon="15.051062577075102"><ele>429.0</ele><time>2026-04-19T15:19:17Z</time></trkpt><trkpt lat="37.03451754720641" lon="15.051201603180706"><ele>429.8333333333333</ele><time>2026-04-19T15:19:19Z</time></trkpt><trkpt lat="37.034507001048325" lon="15.051325772862446"><ele>430.66666666666663</ele><time>2026-04-19T15:19:21Z</time></trkpt><trkpt lat="37.03449881885765" lon="15.051416482628651"><ele>431.5</ele><time>2026-04-19T15:19:23Z</time></trkpt><trkpt lat="37.034485834033234" lon="15.051506422852839"><ele>432.3333333333333</ele><time>2026-04-19T15:19:25Z</time></trkpt><trkpt lat="37.03447703490712" lon="15.051611786719231"><ele>433.16666666666663</ele><time>2026-04-19T15:19:27Z</time></trkpt><trkpt lat="37.034461620166674" lon="15.051715166246924"><ele>434.0</ele><time>2026-04-19T15:19:29Z</time></trkpt><trkpt lat="37.034456243337715" lon="15.051800114997333"><ele>434.8333333333333</ele><time>2026-04-19T15:19:31Z</time></trkpt><trkpt lat="37.0344668172583" lon="15.051877931477632"><ele>435.66666666666663</ele><time>2026-04-19T15:19:33Z</time></trkpt><trkpt lat="37.03447954351589" lon="15.05195564698594"><ele>436.5</ele><time>2026-04-19T15:19:35Z</time></trkpt><trkpt lat="37.03452051322383" lon="15.052034737952859"><ele>437.33333333333337</ele><time>2026-04-19T15:19:37Z</time></trkpt><trkpt lat="37.03462490764941" lon="15.05206624018161"><ele>438.1666666666667</ele><time>2026-04-19T15:19:40Z</time></trkpt><trkpt lat="37.03469213860395" lon="15.052001316320823"><ele>439.0</ele><time>2026-04-19T15:19:42Z</time></trkpt><trkpt lat="37.03471487468184" lon="15.051908358076618"><ele>439.00000000000006</ele><time>2026-04-19T15:19:44Z</time></trkpt><trkpt lat="37.03472771397106" lon="15.051814687463885"><ele>439.0</ele><time>2026-04-19T15:19:46Z</time></trkpt><trkpt lat="37.03474416148095" lon="15.051695329659012"><ele>439.0</ele><time>2026-04-19T15:19:48Z</time></trkpt><trkpt lat="37.03475605763015" lon="15.051565465996642"><ele>439.0</ele><time>2026-04-19T15:19:50Z</time></trkpt><trkpt lat="37.03477862920955" lon="15.0514670816567"><ele>439.00000000000006</ele><time>2026-04-19T15:19:52Z</time></trkpt><trkpt lat="37.034798050510815" lon="15.051381594443637"><ele>439.0</ele><time>2026-04-19T15:19:54Z</time></trkpt><trkpt lat="37.034813295968235" lon="15.051253881108098"><ele>438.0</ele><time>2026-04-19T15:19:56Z</time></trkpt><trkpt lat="37.03482561441267" lon="15.051105832826797"><ele>437.0</ele><time>2026-04-19T15:19:58Z</time></trkpt><trkpt lat="37.03482676318447" lon="15.050957716737303"><ele>436.0</ele><time>2026-04-19T15:20:00Z</time></trkpt><trkpt lat="37.034817364251886" lon="15.0508177233805"><ele>435.0</ele><time>2026-04-19T15:20:02Z</time></trkpt><trkpt lat="37.03479122314175" lon="15.050704459987154"><ele>434.0</ele><time>2026-04-19T15:20:04Z</time></trkpt><trkpt lat="37.03473701113648" lon="15.050622970967808"><ele>433.0</ele><time>2026-04-19T15:20:06Z</time></trkpt><trkpt lat="37.03470786828003" lon="15.050545006057927"><ele>432.0</ele><time>2026-04-19T15:20:08Z</time></trkpt><trkpt lat="37.03468719495053" lon="15.050463266108363"><ele>431.0</ele><time>2026-04-19T15:20:11Z</time></trkpt><trkpt lat="37.03464873782397" lon="15.050384513787257"><ele>430.0</ele><time>2026-04-19T15:20:14Z</time></trkpt><trkpt lat="37.034498105545765" lon="15.050309084048187"><ele>429.0</ele><time>2026-04-19T15:20:22Z</time></trkpt><trkpt lat="37.03442358674033" lon="15.050432582379111"><ele>429.0</ele><time>2026-04-19T15:20:23Z</time></trkpt><trkpt lat="37.03447438990883" lon="15.050489546301066"><ele>429.0</ele><time>2026-04-19T15:20:24Z</time></trkpt><trkpt lat="37.034364635204945" lon="15.050489525566677"><ele>429.0</ele><time>2026-04-19T15:20:25Z</time></trkpt><trkpt lat="37.034310094125054" lon="15.050543783586965"><ele>429.0</ele><time>2026-04-19T15:20:27Z</time></trkpt><trkpt lat="37.03426219394987" lon="15.050600075026487"><ele>429.0</ele><time>2026-04-19T15:20:29Z</time></trkpt><trkpt lat="37.034226743735225" lon="15.050671296957725"><ele>429.0</ele><time>2026-04-19T15:20:31Z</time></trkpt><trkpt lat="37.034178345135665" lon="15.05072520289645"><ele>429.0</ele><time>2026-04-19T15:20:33Z</time></trkpt><trkpt lat="37.03413451824595" lon="15.050786992006303"><ele>429.0</ele><time>2026-04-19T15:20:35Z</time></trkpt><trkpt lat="37.03408327827835" lon="15.050844239175934"><ele>429.0</ele><time>2026-04-19T15:20:37Z</time></trkpt><trkpt lat="37.03402596250764" lon="15.05090490100166"><ele>429.0</ele><time>2026-04-19T15:20:40Z</time></trkpt><trkpt lat="37.03397726690089" lon="15.05095495920245"><ele>429.0</ele><time>2026-04-19T15:20:44Z</time></trkpt><trkpt lat="37.0340324274812" lon="15.050888160460762"><ele>429.0</ele><time>2026-04-19T15:21:24Z</time></trkpt><trkpt lat="37.03410363706562" lon="15.050800505389546"><ele>429.0</ele><time>2026-04-19T15:21:26Z</time></trkpt><trkpt lat="37.03418696199013" lon="15.050697188106218"><ele>429.0</ele><time>2026-04-19T15:21:28Z</time></trkpt><trkpt lat="37.03423173797596" lon="15.050641669030547"><ele>429.0</ele><time>2026-04-19T15:21:29Z</time></trkpt><trkpt lat="37.03428579617345" lon="15.050569335128017"><ele>429.0</ele><time>2026-04-19T15:21:30Z</time></trkpt><trkpt lat="37.03435475794899" lon="15.05048122861365"><ele>429.0</ele><time>2026-04-19T15:21:32Z</time></trkpt><trkpt lat="37.03441282885395" lon="15.050423057941675"><ele>429.0</ele><time>2026-04-19T15:21:34Z</time></trkpt><trkpt lat="37.03449176082332" lon="15.050398264423702"><ele>429.0</ele><time>2026-04-19T15:21:38Z</time></trkpt><trkpt lat="37.034598660503654" lon="15.050525370178049"><ele>429.0</ele><time>2026-04-19T15:21:42Z</time></trkpt><trkpt lat="37.03467343412808" lon="15.050396220956744"><ele>429.0</ele><time>2026-04-19T15:21:46Z</time></trkpt><trkpt lat="37.03464240896046" lon="15.050301645945336"><ele>429.0</ele><time>2026-04-19T15:21:49Z</time></trkpt><trkpt lat="37.03456860972552" lon="15.05023535546614"><ele>429.0</ele><time>2026-04-19T15:21:51Z</time></trkpt><trkpt lat="37.03448592228994" lon="15.05018489817171"><ele>429.0</ele><time>2026-04-19T15:21:53Z</time></trkpt><trkpt lat="37.0344259414066" lon="15.050233177523879"><ele>429.0</ele><time>2026-04-19T15:21:57Z</time></trkpt><trkpt lat="37.0344358840698" lon="15.050330415673514"><ele>429.0</ele><time>2026-04-19T15:21:59Z</time></trkpt><trkpt lat="37.03450927409465" lon="15.050434205792824"><ele>429.0</ele><time>2026-04-19T15:22:01Z</time></trkpt><trkpt lat="37.034594561431604" lon="15.050478527002078"><ele>429.0</ele><time>2026-04-19T15:22:03Z</time></trkpt><trkpt lat="37.034712624691736" lon="15.0504427114538"><ele>429.0</ele><time>2026-04-19T15:22:05Z</time></trkpt><trkpt lat="37.03478184127411" lon="15.050424251798413"><ele>429.0</ele><time>2026-04-19T15:22:06Z</time></trkpt><trkpt lat="37.034850675999465" lon="15.050411513689044"><ele>429.0</ele><time>2026-04-19T15:22:07Z</time></trkpt><trkpt lat="37.03493066389814" lon="15.05040854142515"><ele>429.0</ele><time>2026-04-19T15:22:08Z</time></trkpt><trkpt lat="37.03501900391978" lon="15.050409273404737"><ele>429.0</ele><time>2026-04-19T15:22:09Z</time></trkpt><trkpt lat="37.03511150820299" lon="15.050410765946935"><ele>429.0</ele><time>2026-04-19T15:22:10Z</time></trkpt><trkpt lat="37.03520670333633" lon="15.05041480589872"><ele>429.0</ele><time>2026-04-19T15:22:11Z</time></trkpt><trkpt lat="37.03530354245144" lon="15.050411214814224"><ele>429.2</ele><time>2026-04-19T15:22:12Z</time></trkpt><trkpt lat="37.035395711554756" lon="15.050406490210923"><ele>429.4</ele><time>2026-04-19T15:22:13Z</time></trkpt><trkpt lat="37.03548552702029" lon="15.05040282164966"><ele>429.6</ele><time>2026-04-19T15:22:14Z</time></trkpt><trkpt lat="37.035572955758354" lon="15.050381689729539"><ele>429.8</ele><time>2026-04-19T15:22:15Z</time></trkpt><trkpt lat="37.03566018504067" lon="15.050342391112784"><ele>430.0</ele><time>2026-04-19T15:22:16Z</time></trkpt><trkpt lat="37.03574810640373" lon="15.050295367142773"><ele>430.4</ele><time>2026-04-19T15:22:17Z</time></trkpt><trkpt lat="37.03583477692567" lon="15.05023343895973"><ele>430.8</ele><time>2026-04-19T15:22:18Z</time></trkpt><trkpt lat="37.03591743456515" lon="15.050157426717599"><ele>431.20000000000005</ele><time>2026-04-19T15:22:19Z</time></trkpt><trkpt lat="37.035995677394" lon="15.050075512852782"><ele>431.6</ele><time>2026-04-19T15:22:20Z</time></trkpt><trkpt lat="37.03607479132939" lon="15.049992664781572"><ele>432.0</ele><time>2026-04-19T15:22:21Z</time></trkpt><trkpt lat="37.03615604597849" lon="15.049908841270435"><ele>433.20000000000005</ele><time>2026-04-19T15:22:22Z</time></trkpt><trkpt lat="37.036238029061415" lon="15.04982200289851"><ele>434.40000000000003</ele><time>2026-04-19T15:22:23Z</time></trkpt><trkpt lat="37.036325343821105" lon="15.049736737813134"><ele>435.59999999999997</ele><time>2026-04-19T15:22:24Z</time></trkpt><trkpt lat="37.03641431837608" lon="15.049649180841563"><ele>436.79999999999995</ele><time>2026-04-19T15:22:25Z</time></trkpt><trkpt lat="37.036502836548706" lon="15.049552403383736"><ele>438.0</ele><time>2026-04-19T15:22:26Z</time></trkpt><trkpt lat="37.036592509004876" lon="15.049455586666335"><ele>437.0</ele><time>2026-04-19T15:22:27Z</time></trkpt><trkpt lat="37.036697382316426" lon="15.049376064152385"><ele>436.0</ele><time>2026-04-19T15:22:28Z</time></trkpt><trkpt lat="37.03678429309945" lon="15.049263051319159"><ele>435.0</ele><time>2026-04-19T15:22:29Z</time></trkpt><trkpt lat="37.036881704121484" lon="15.049162800097864"><ele>434.0</ele><time>2026-04-19T15:22:30Z</time></trkpt><trkpt lat="37.03697383381429" lon="15.049062805420753"><ele>434.0</ele><time>2026-04-19T15:22:31Z</time></trkpt><trkpt lat="37.03706241538017" lon="15.048961766102865"><ele>434.0</ele><time>2026-04-19T15:22:32Z</time></trkpt><trkpt lat="37.037157124313815" lon="15.048876775479814"><ele>434.0</ele><time>2026-04-19T15:22:33Z</time></trkpt><trkpt lat="37.03722419287989" lon="15.048761443352692"><ele>434.0</ele><time>2026-04-19T15:22:34Z</time></trkpt><trkpt lat="37.037298696890616" lon="15.048658901640088"><ele>434.0</ele><time>2026-04-19T15:22:35Z</time></trkpt><trkpt lat="37.03738232725306" lon="15.048561465077816"><ele>434.0</ele><time>2026-04-19T15:22:36Z</time></trkpt><trkpt lat="37.037452481944996" lon="15.048447640462234"><ele>434.0</ele><time>2026-04-19T15:22:37Z</time></trkpt><trkpt lat="37.03752011177179" lon="15.048331448929183"><ele>434.0</ele><time>2026-04-19T15:22:38Z</time></trkpt><trkpt lat="37.037570306773866" lon="15.04820291084042"><ele>432.75</ele><time>2026-04-19T15:22:39Z</time></trkpt><trkpt lat="37.037630705659225" lon="15.048082055407022"><ele>431.5</ele><time>2026-04-19T15:22:40Z</time></trkpt><trkpt lat="37.03768671487342" lon="15.047956773138228"><ele>430.25</ele><time>2026-04-19T15:22:41Z</time></trkpt><trkpt lat="37.037732769383005" lon="15.047825893954712"><ele>429.0</ele><time>2026-04-19T15:22:42Z</time></trkpt><trkpt lat="37.0377920251428" lon="15.047707836310952"><ele>429.0</ele><time>2026-04-19T15:22:43Z</time></trkpt><trkpt lat="37.03783218553211" lon="15.04759257981085"><ele>429.0</ele><time>2026-04-19T15:22:44Z</time></trkpt><trkpt lat="37.037864870411774" lon="15.047497619905993"><ele>429.0</ele><time>2026-04-19T15:22:45Z</time></trkpt><trkpt lat="37.0378928701951" lon="15.047419542662675"><ele>429.0</ele><time>2026-04-19T15:22:46Z</time></trkpt><trkpt lat="37.037921739614006" lon="15.0473167320973"><ele>429.0</ele><time>2026-04-19T15:22:48Z</time></trkpt><trkpt lat="37.03799454865036" lon="15.047333426411003"><ele>429.0</ele><time>2026-04-19T15:22:50Z</time></trkpt><trkpt lat="37.0380147030984" lon="15.047443137374238"><ele>429.0</ele><time>2026-04-19T15:22:52Z</time></trkpt><trkpt lat="37.037974806794" lon="15.047591185276925"><ele>429.0</ele><time>2026-04-19T15:22:54Z</time></trkpt><trkpt lat="37.03795078638237" lon="15.04767945989619"><ele>429.0</ele><time>2026-04-19T15:22:55Z</time></trkpt><trkpt lat="37.037927787189254" lon="15.047778625978122"><ele>429.0</ele><time>2026-04-19T15:22:56Z</time></trkpt><trkpt lat="37.03791166293227" lon="15.04787804325818"><ele>429.0</ele><time>2026-04-19T15:22:57Z</time></trkpt><trkpt lat="37.0378939749502" lon="15.047978830601746"><ele>429.0</ele><time>2026-04-19T15:22:58Z</time></trkpt><trkpt lat="37.037868908887035" lon="15.048085003620168"><ele>429.0</ele><time>2026-04-19T15:22:59Z</time></trkpt><trkpt lat="37.03784025607855" lon="15.048201877834922"><ele>429.0</ele><time>2026-04-19T15:23:00Z</time></trkpt><trkpt lat="37.03781433131873" lon="15.048327422930193"><ele>429.0</ele><time>2026-04-19T15:23:01Z</time></trkpt><trkpt lat="37.037792404898624" lon="15.048462670646886"><ele>429.0</ele><time>2026-04-19T15:23:02Z</time></trkpt><trkpt lat="37.03776979228275" lon="15.048603466389798"><ele>429.0</ele><time>2026-04-19T15:23:03Z</time></trkpt><trkpt lat="37.037743842075265" lon="15.048746961494741"><ele>427.2</ele><time>2026-04-19T15:23:04Z</time></trkpt><trkpt lat="37.03772437133352" lon="15.048888596924153"><ele>425.4</ele><time>2026-04-19T15:23:05Z</time></trkpt><trkpt lat="37.03771376794748" lon="15.049026348312262"><ele>423.6</ele><time>2026-04-19T15:23:06Z</time></trkpt><trkpt lat="37.037709615492915" lon="15.049162184765976"><ele>421.8</ele><time>2026-04-19T15:23:07Z</time></trkpt><trkpt lat="37.03770968928621" lon="15.049297170032377"><ele>420.0</ele><time>2026-04-19T15:23:08Z</time></trkpt><trkpt lat="37.03771053025302" lon="15.049433335147462"><ele>418.0</ele><time>2026-04-19T15:23:09Z</time></trkpt><trkpt lat="37.037710316431394" lon="15.049572460903637"><ele>416.0</ele><time>2026-04-19T15:23:10Z</time></trkpt><trkpt lat="37.037707337285084" lon="15.049716523594366"><ele>414.0</ele><time>2026-04-19T15:23:11Z</time></trkpt><trkpt lat="37.03770434695401" lon="15.049866489117006"><ele>412.0</ele><time>2026-04-19T15:23:12Z</time></trkpt><trkpt lat="37.037701811449665" lon="15.05002177540134"><ele>410.75</ele><time>2026-04-19T15:23:13Z</time></trkpt><trkpt lat="37.03769983825338" lon="15.050183306281914"><ele>409.5</ele><time>2026-04-19T15:23:14Z</time></trkpt><trkpt lat="37.0376984876522" lon="15.050345221922807"><ele>408.25</ele><time>2026-04-19T15:23:15Z</time></trkpt><trkpt lat="37.0376978167928" lon="15.05050353253019"><ele>407.0</ele><time>2026-04-19T15:23:16Z</time></trkpt><trkpt lat="37.03769783485729" lon="15.050657552024209"><ele>406.5</ele><time>2026-04-19T15:23:17Z</time></trkpt><trkpt lat="37.03768295541932" lon="15.050806193440671"><ele>406.0</ele><time>2026-04-19T15:23:18Z</time></trkpt><trkpt lat="37.03769955964968" lon="15.050948067833883"><ele>405.5</ele><time>2026-04-19T15:23:19Z</time></trkpt><trkpt lat="37.037697892646975" lon="15.05108569436965"><ele>405.0</ele><time>2026-04-19T15:23:20Z</time></trkpt><trkpt lat="37.03769181755315" lon="15.051217964110696"><ele>405.0</ele><time>2026-04-19T15:23:21Z</time></trkpt><trkpt lat="37.03768171327913" lon="15.05134463742855"><ele>405.0</ele><time>2026-04-19T15:23:22Z</time></trkpt><trkpt lat="37.03766612852304" lon="15.051469798374029"><ele>405.0</ele><time>2026-04-19T15:23:23Z</time></trkpt><trkpt lat="37.0376477762399" lon="15.051596060025316"><ele>405.0</ele><time>2026-04-19T15:23:24Z</time></trkpt><trkpt lat="37.037626610923425" lon="15.051726681732815"><ele>405.0</ele><time>2026-04-19T15:23:25Z</time></trkpt><trkpt lat="37.03760224206111" lon="15.051858678968832"><ele>404.0</ele><time>2026-04-19T15:23:26Z</time></trkpt><trkpt lat="37.03757527655855" lon="15.051993061301259"><ele>403.0</ele><time>2026-04-19T15:23:27Z</time></trkpt><trkpt lat="37.03754088626881" lon="15.05213035887816"><ele>402.0</ele><time>2026-04-19T15:23:28Z</time></trkpt><trkpt lat="37.03749956197156" lon="15.05226652441796"><ele>401.0</ele><time>2026-04-19T15:23:29Z</time></trkpt><trkpt lat="37.03745840475054" lon="15.052398848264946"><ele>403.4</ele><time>2026-04-19T15:23:30Z</time></trkpt><trkpt lat="37.03741739468222" lon="15.052528265456731"><ele>405.8</ele><time>2026-04-19T15:23:31Z</time></trkpt><trkpt lat="37.03737487657605" lon="15.052652511316793"><ele>408.2</ele><time>2026-04-19T15:23:32Z</time></trkpt><trkpt lat="37.037334780112026" lon="15.052771295469661"><ele>410.59999999999997</ele><time>2026-04-19T15:23:33Z</time></trkpt><trkpt lat="37.037297116124044" lon="15.052888788195595"><ele>413.0</ele><time>2026-04-19T15:23:34Z</time></trkpt><trkpt lat="37.037259582263964" lon="15.05300429623134"><ele>413.0</ele><time>2026-04-19T15:23:35Z</time></trkpt><trkpt lat="37.037221119286045" lon="15.053120173247146"><ele>413.0</ele><time>2026-04-19T15:23:36Z</time></trkpt><trkpt lat="37.03718681725994" lon="15.053234786901278"><ele>413.0</ele><time>2026-04-19T15:23:37Z</time></trkpt><trkpt lat="37.03715330200678" lon="15.053350910840072"><ele>413.0</ele><time>2026-04-19T15:23:38.001Z</time></trkpt><trkpt lat="37.03711898693444" lon="15.05346492220836"><ele>413.0</ele><time>2026-04-19T15:23:39.001Z</time></trkpt><trkpt lat="37.037084405453" lon="15.05357740803993"><ele>410.0</ele><time>2026-04-19T15:23:40.001Z</time></trkpt><trkpt lat="37.037047881509295" lon="15.053686265971901"><ele>407.0</ele><time>2026-04-19T15:23:41.001Z</time></trkpt><trkpt lat="37.03701201428948" lon="15.053792133145379"><ele>404.0</ele><time>2026-04-19T15:23:42.001Z</time></trkpt><trkpt lat="37.036979321217025" lon="15.053898373684826"><ele>401.0</ele><time>2026-04-19T15:23:43.001Z</time></trkpt><trkpt lat="37.03692961954415" lon="15.0540013022638"><ele>398.0</ele><time>2026-04-19T15:23:44.001Z</time></trkpt><trkpt lat="37.03689602567271" lon="15.054104811734483"><ele>397.16666666666663</ele><time>2026-04-19T15:23:45.001Z</time></trkpt><trkpt lat="37.03686280006921" lon="15.054207186355855"><ele>396.3333333333333</ele><time>2026-04-19T15:23:46.001Z</time></trkpt><trkpt lat="37.036828948749054" lon="15.05431148920661"><ele>395.5</ele><time>2026-04-19T15:23:47.001Z</time></trkpt><trkpt lat="37.03679529754076" lon="15.054415175317047"><ele>394.66666666666663</ele><time>2026-04-19T15:23:48.001Z</time></trkpt><trkpt lat="37.03676303264093" lon="15.05451577555894"><ele>393.8333333333333</ele><time>2026-04-19T15:23:49.001Z</time></trkpt><trkpt lat="37.03673064688167" lon="15.054620443988663"><ele>393.0</ele><time>2026-04-19T15:23:50.001Z</time></trkpt><trkpt lat="37.03669835702168" lon="15.05472428841202"><ele>393.0</ele><time>2026-04-19T15:23:51.001Z</time></trkpt><trkpt lat="37.03666575938413" lon="15.054824689397257"><ele>393.0</ele><time>2026-04-19T15:23:52.001Z</time></trkpt><trkpt lat="37.036629631167685" lon="15.054924537152976"><ele>393.0</ele><time>2026-04-19T15:23:53.001Z</time></trkpt><trkpt lat="37.03659217787207" lon="15.05502297700692"><ele>393.0</ele><time>2026-04-19T15:23:54.001Z</time></trkpt><trkpt lat="37.03655240331199" lon="15.055119564921615"><ele>393.0</ele><time>2026-04-19T15:23:55.001Z</time></trkpt><trkpt lat="37.036510969456465" lon="15.055218295453543"><ele>393.0</ele><time>2026-04-19T15:23:56.001Z</time></trkpt><trkpt lat="37.03647084448573" lon="15.055313907105628"><ele>393.8333333333333</ele><time>2026-04-19T15:23:57.001Z</time></trkpt><trkpt lat="37.03643069008886" lon="15.055409655107503"><ele>394.66666666666663</ele><time>2026-04-19T15:23:58.001Z</time></trkpt><trkpt lat="37.03638882099978" lon="15.055504637071316"><ele>395.5</ele><time>2026-04-19T15:23:59.001Z</time></trkpt><trkpt lat="37.036348435787936" lon="15.055593774692358"><ele>396.3333333333333</ele><time>2026-04-19T15:24:00.001Z</time></trkpt><trkpt lat="37.03631044224933" lon="15.055673468396344"><ele>397.16666666666663</ele><time>2026-04-19T15:24:01.001Z</time></trkpt><trkpt lat="37.03625918640531" lon="15.055793392779405"><ele>398.0</ele><time>2026-04-19T15:24:03.001Z</time></trkpt><trkpt lat="37.036202146633975" lon="15.055872433021351"><ele>395.3333333333333</ele><time>2026-04-19T15:24:06.001Z</time></trkpt><trkpt lat="37.03614328031797" lon="15.055948688708758"><ele>392.66666666666663</ele><time>2026-04-19T15:24:10.001Z</time></trkpt><trkpt lat="37.03613229742228" lon="15.056051555313159"><ele>390.0</ele><time>2026-04-19T15:24:13.001Z</time></trkpt><trkpt lat="37.036134135467435" lon="15.056144027238178"><ele>387.3333333333333</ele><time>2026-04-19T15:24:15.001Z</time></trkpt><trkpt lat="37.03611601193786" lon="15.05626010147559"><ele>384.66666666666663</ele><time>2026-04-19T15:24:17.001Z</time></trkpt><trkpt lat="37.03608627562741" lon="15.056383172702239"><ele>382.0</ele><time>2026-04-19T15:24:19.001Z</time></trkpt><trkpt lat="37.03605056016155" lon="15.056503233323177"><ele>382.0</ele><time>2026-04-19T15:24:21.001Z</time></trkpt><trkpt lat="37.03600105178751" lon="15.056601571219158"><ele>382.0</ele><time>2026-04-19T15:24:23.001Z</time></trkpt><trkpt lat="37.03597593051103" lon="15.056701903535563"><ele>382.0</ele><time>2026-04-19T15:24:25.001Z</time></trkpt><trkpt lat="37.03594801964" lon="15.056814392813248"><ele>382.0</ele><time>2026-04-19T15:24:27.001Z</time></trkpt><trkpt lat="37.03591572013435" lon="15.056938275967838"><ele>382.0</ele><time>2026-04-19T15:24:29.001Z</time></trkpt><trkpt lat="37.035879149048846" lon="15.057075620813789"><ele>382.0</ele><time>2026-04-19T15:24:31.001Z</time></trkpt><trkpt lat="37.035859567785614" lon="15.057151742049822"><ele>382.0</ele><time>2026-04-19T15:24:32.001Z</time></trkpt><trkpt lat="37.0358325623945" lon="15.057279609189896"><ele>382.0</ele><time>2026-04-19T15:24:34Z</time></trkpt><trkpt lat="37.035810048386274" lon="15.057379978148006"><ele>382.0</ele><time>2026-04-19T15:24:37Z</time></trkpt><trkpt lat="37.035886308068186" lon="15.057398451166614"><ele>382.0</ele><time>2026-04-19T15:24:39Z</time></trkpt><trkpt lat="37.035946436240856" lon="15.057274439733648"><ele>382.0</ele><time>2026-04-19T15:24:42Z</time></trkpt><trkpt lat="37.03597497909819" lon="15.057123748218716"><ele>382.0</ele><time>2026-04-19T15:24:44Z</time></trkpt><trkpt lat="37.036020310290944" lon="15.05699031877667"><ele>382.0</ele><time>2026-04-19T15:24:46Z</time></trkpt><trkpt lat="37.036056344799206" lon="15.056907769098459"><ele>382.0</ele><time>2026-04-19T15:24:48Z</time></trkpt><trkpt lat="37.0361390999668" lon="15.056916703443143"><ele>382.0</ele><time>2026-04-19T15:24:50Z</time></trkpt><trkpt lat="37.03618394153546" lon="15.056999739157991"><ele>382.0</ele><time>2026-04-19T15:24:52Z</time></trkpt><trkpt lat="37.03619110736097" lon="15.057091047562377"><ele>382.0</ele><time>2026-04-19T15:24:55Z</time></trkpt><trkpt lat="37.036142088419176" lon="15.057153966320392"><ele>382.0</ele><time>2026-04-19T15:24:56Z</time></trkpt><trkpt lat="37.03607983284744" lon="15.057261719186101"><ele>382.0</ele><time>2026-04-19T15:24:58Z</time></trkpt><trkpt lat="37.03605019503308" lon="15.05734101230128"><ele>382.0</ele><time>2026-04-19T15:26:29.001Z</time></trkpt><trkpt lat="37.03609339545428" lon="15.057209816502086"><ele>382.0</ele><time>2026-04-19T15:28:08Z</time></trkpt><trkpt lat="37.03613927891673" lon="15.057139239649848"><ele>382.0</ele><time>2026-04-19T15:28:09Z</time></trkpt><trkpt lat="37.03618243565684" lon="15.057076091353995"><ele>382.0</ele><time>2026-04-19T15:28:10Z</time></trkpt><trkpt lat="37.03625993462669" lon="15.056975213518756"><ele>382.0</ele><time>2026-04-19T15:28:12Z</time></trkpt><trkpt lat="37.03632151959394" lon="15.056882582463892"><ele>382.0</ele><time>2026-04-19T15:28:14Z</time></trkpt><trkpt lat="37.03637889560287" lon="15.056777951585536"><ele>382.0</ele><time>2026-04-19T15:28:16Z</time></trkpt><trkpt lat="37.036440433396606" lon="15.056663473912844"><ele>382.0</ele><time>2026-04-19T15:28:18.001Z</time></trkpt><trkpt lat="37.036464631466096" lon="15.056584092523916"><ele>382.0</ele><time>2026-04-19T15:28:19.001Z</time></trkpt><trkpt lat="37.03655659292379" lon="15.05645230049577"><ele>382.0</ele><time>2026-04-19T15:28:21.001Z</time></trkpt><trkpt lat="37.03660207314427" lon="15.056373085945118"><ele>382.0</ele><time>2026-04-19T15:28:22.001Z</time></trkpt><trkpt lat="37.036641661062056" lon="15.056261743830344"><ele>382.0</ele><time>2026-04-19T15:28:23.001Z</time></trkpt><trkpt lat="37.036674959187025" lon="15.056071554669044"><ele>382.0</ele><time>2026-04-19T15:28:24.001Z</time></trkpt><trkpt lat="37.0367171303688" lon="15.055950512656892"><ele>382.0</ele><time>2026-04-19T15:28:25.001Z</time></trkpt><trkpt lat="37.036757793138754" lon="15.055835920918382"><ele>382.6</ele><time>2026-04-19T15:28:26.001Z</time></trkpt><trkpt lat="37.03679725201675" lon="15.055729694394417"><ele>383.20000000000005</ele><time>2026-04-19T15:28:27.001Z</time></trkpt><trkpt lat="37.03684179619211" lon="15.055638077857754"><ele>383.8</ele><time>2026-04-19T15:28:28.001Z</time></trkpt><trkpt lat="37.036894534046276" lon="15.055533374354047"><ele>384.4</ele><time>2026-04-19T15:28:29.001Z</time></trkpt><trkpt lat="37.03695885817517" lon="15.055411063252643"><ele>385.0</ele><time>2026-04-19T15:28:30.001Z</time></trkpt><trkpt lat="37.03702906135207" lon="15.055277573306293"><ele>385.0</ele><time>2026-04-19T15:28:31.001Z</time></trkpt><trkpt lat="37.03710097162002" lon="15.05513865063629"><ele>385.0</ele><time>2026-04-19T15:28:32.001Z</time></trkpt><trkpt lat="37.0371774880538" lon="15.054990495780654"><ele>385.0</ele><time>2026-04-19T15:28:33.001Z</time></trkpt><trkpt lat="37.03726183429017" lon="15.0548271806791"><ele>385.0</ele><time>2026-04-19T15:28:34.001Z</time></trkpt><trkpt lat="37.03734053386421" lon="15.054673400290882"><ele>387.0</ele><time>2026-04-19T15:28:35.001Z</time></trkpt><trkpt lat="37.037410887929376" lon="15.054535320488863"><ele>389.0</ele><time>2026-04-19T15:28:36.001Z</time></trkpt><trkpt lat="37.03747704134792" lon="15.054406968109655"><ele>391.0</ele><time>2026-04-19T15:28:37.001Z</time></trkpt><trkpt lat="37.037543471608515" lon="15.054279994194896"><ele>393.0</ele><time>2026-04-19T15:28:38.001Z</time></trkpt><trkpt lat="37.037610591123" lon="15.054156938474598"><ele>389.75</ele><time>2026-04-19T15:28:39.001Z</time></trkpt><trkpt lat="37.03767828493705" lon="15.054034446550553"><ele>386.5</ele><time>2026-04-19T15:28:40.001Z</time></trkpt><trkpt lat="37.03774752379514" lon="15.053913410049152"><ele>383.25</ele><time>2026-04-19T15:28:41.001Z</time></trkpt><trkpt lat="37.03782001161286" lon="15.053797143869481"><ele>380.0</ele><time>2026-04-19T15:28:42.001Z</time></trkpt><trkpt lat="37.037896533676744" lon="15.053671504279817"><ele>380.0</ele><time>2026-04-19T15:28:43.001Z</time></trkpt><trkpt lat="37.037974620438035" lon="15.053539619129644"><ele>380.0</ele><time>2026-04-19T15:28:44.001Z</time></trkpt><trkpt lat="37.03805202356419" lon="15.053405521227267"><ele>380.0</ele><time>2026-04-19T15:28:45.001Z</time></trkpt><trkpt lat="37.03812943719308" lon="15.05326779773311"><ele>380.0</ele><time>2026-04-19T15:28:46.001Z</time></trkpt><trkpt lat="37.0382037398617" lon="15.053119778412956"><ele>377.75</ele><time>2026-04-19T15:28:47.001Z</time></trkpt><trkpt lat="37.03826721089897" lon="15.052963181124666"><ele>375.5</ele><time>2026-04-19T15:28:48.001Z</time></trkpt><trkpt lat="37.03832659963964" lon="15.052803896046296"><ele>373.25</ele><time>2026-04-19T15:28:49.001Z</time></trkpt><trkpt lat="37.03838503050671" lon="15.052643251540085"><ele>371.0</ele><time>2026-04-19T15:28:50.001Z</time></trkpt><trkpt lat="37.03844330200611" lon="15.05248005924816"><ele>371.75</ele><time>2026-04-19T15:28:51.001Z</time></trkpt><trkpt lat="37.03850170753463" lon="15.052316491696352"><ele>372.5</ele><time>2026-04-19T15:28:52.001Z</time></trkpt><trkpt lat="37.0385599911841" lon="15.052153263097452"><ele>373.25</ele><time>2026-04-19T15:28:53.001Z</time></trkpt><trkpt lat="37.03861992413225" lon="15.051994694488279"><ele>374.0</ele><time>2026-04-19T15:28:54.001Z</time></trkpt><trkpt lat="37.03868092514704" lon="15.051839534526781"><ele>374.0</ele><time>2026-04-19T15:28:55.001Z</time></trkpt><trkpt lat="37.03874076784916" lon="15.051697941346859"><ele>374.0</ele><time>2026-04-19T15:28:56.001Z</time></trkpt><trkpt lat="37.03879925662522" lon="15.051559551609392"><ele>374.0</ele><time>2026-04-19T15:28:57.001Z</time></trkpt><trkpt lat="37.038856324048496" lon="15.051424525036138"><ele>374.0</ele><time>2026-04-19T15:28:58.001Z</time></trkpt><trkpt lat="37.03891238071514" lon="15.051291889945025"><ele>375.5</ele><time>2026-04-19T15:28:59.001Z</time></trkpt><trkpt lat="37.038966318601844" lon="15.051162169165103"><ele>377.0</ele><time>2026-04-19T15:29:00.001Z</time></trkpt><trkpt lat="37.03902024002209" lon="15.051035189657611"><ele>378.5</ele><time>2026-04-19T15:29:01.001Z</time></trkpt><trkpt lat="37.039077617027154" lon="15.050915892527147"><ele>380.0</ele><time>2026-04-19T15:29:02.001Z</time></trkpt><trkpt lat="37.03913127268737" lon="15.050787182145738"><ele>378.4</ele><time>2026-04-19T15:29:03.001Z</time></trkpt><trkpt lat="37.039208781969826" lon="15.050692829143147"><ele>376.8</ele><time>2026-04-19T15:29:04.001Z</time></trkpt><trkpt lat="37.039285775647464" lon="15.050618144149414"><ele>375.20000000000005</ele><time>2026-04-19T15:29:05.001Z</time></trkpt><trkpt lat="37.03936313175711" lon="15.050552607885853"><ele>373.6</ele><time>2026-04-19T15:29:06.001Z</time></trkpt><trkpt lat="37.03944435489153" lon="15.050503441940347"><ele>372.0</ele><time>2026-04-19T15:29:07.001Z</time></trkpt><trkpt lat="37.03952798413108" lon="15.050460642538626"><ele>372.0</ele><time>2026-04-19T15:29:08.001Z</time></trkpt><trkpt lat="37.039616003322294" lon="15.050418418030588"><ele>372.0</ele><time>2026-04-19T15:29:09.001Z</time></trkpt><trkpt lat="37.03970843200978" lon="15.050376380160897"><ele>372.0</ele><time>2026-04-19T15:29:10.001Z</time></trkpt><trkpt lat="37.039798008285295" lon="15.050332919890344"><ele>372.0</ele><time>2026-04-19T15:29:11.001Z</time></trkpt><trkpt lat="37.03988027762015" lon="15.050287981199409"><ele>372.0</ele><time>2026-04-19T15:29:12.001Z</time></trkpt><trkpt lat="37.039959041801396" lon="15.050266456699365"><ele>370.8333333333333</ele><time>2026-04-19T15:29:13.001Z</time></trkpt><trkpt lat="37.04000590106157" lon="15.05020937527855"><ele>369.6666666666667</ele><time>2026-04-19T15:29:14.001Z</time></trkpt><trkpt lat="37.04006863620981" lon="15.050156550293666"><ele>368.5</ele><time>2026-04-19T15:29:16.001Z</time></trkpt><trkpt lat="37.040132331352616" lon="15.0500768307345"><ele>367.33333333333337</ele><time>2026-04-19T15:29:19.001Z</time></trkpt><trkpt lat="37.04018142774807" lon="15.050008518394188"><ele>366.1666666666667</ele><time>2026-04-19T15:29:21.001Z</time></trkpt><trkpt lat="37.04024599924573" lon="15.049931258130943"><ele>365.0</ele><time>2026-04-19T15:29:23.001Z</time></trkpt><trkpt lat="37.04031521683704" lon="15.049834119369695"><ele>364.6</ele><time>2026-04-19T15:29:25.001Z</time></trkpt><trkpt lat="37.04038720816797" lon="15.049733539894389"><ele>364.2</ele><time>2026-04-19T15:29:27.001Z</time></trkpt><trkpt lat="37.040460815651805" lon="15.049637131250964"><ele>363.79999999999995</ele><time>2026-04-19T15:29:29.001Z</time></trkpt><trkpt lat="37.04052631816457" lon="15.049545028700464"><ele>363.4</ele><time>2026-04-19T15:29:31.001Z</time></trkpt><trkpt lat="37.04057963788429" lon="15.049471136084206"><ele>363.0</ele><time>2026-04-19T15:29:33.001Z</time></trkpt><trkpt lat="37.04062589973217" lon="15.049414066957683"><ele>363.0</ele><time>2026-04-19T15:29:35.001Z</time></trkpt><trkpt lat="37.04067569749433" lon="15.049349981512707"><ele>363.0</ele><time>2026-04-19T15:29:38.001Z</time></trkpt><trkpt lat="37.040719036281665" lon="15.049291189620574"><ele>363.0</ele><time>2026-04-19T15:29:42.001Z</time></trkpt><trkpt lat="37.04078183143969" lon="15.049180824807317"><ele>363.0</ele><time>2026-04-19T15:30:10.001Z</time></trkpt><trkpt lat="37.04086682916532" lon="15.049061618739668"><ele>363.0</ele><time>2026-04-19T15:30:12.001Z</time></trkpt><trkpt lat="37.04094650530731" lon="15.048947749180691"><ele>360.6666666666667</ele><time>2026-04-19T15:30:14.001Z</time></trkpt><trkpt lat="37.041016309665245" lon="15.04884948826061"><ele>358.3333333333333</ele><time>2026-04-19T15:30:16.001Z</time></trkpt><trkpt lat="37.04106866896156" lon="15.048781079028446"><ele>356.0</ele><time>2026-04-19T15:30:18.001Z</time></trkpt><trkpt lat="37.041113625081245" lon="15.048716480076799"><ele>353.66666666666663</ele><time>2026-04-19T15:30:20.001Z</time></trkpt><trkpt lat="37.04118584587505" lon="15.048619560692224"><ele>351.3333333333333</ele><time>2026-04-19T15:30:22.001Z</time></trkpt><trkpt lat="37.04123238841519" lon="15.048561046177563"><ele>349.0</ele><time>2026-04-19T15:30:23.001Z</time></trkpt><trkpt lat="37.04127981262739" lon="15.048498490361784"><ele>349.0</ele><time>2026-04-19T15:30:24.001Z</time></trkpt><trkpt lat="37.04132542657981" lon="15.048425398864046"><ele>349.0</ele><time>2026-04-19T15:30:25.001Z</time></trkpt><trkpt lat="37.04137486069268" lon="15.048349201058373"><ele>349.0</ele><time>2026-04-19T15:30:26.001Z</time></trkpt><trkpt lat="37.04142026846872" lon="15.048282938480865"><ele>349.0</ele><time>2026-04-19T15:30:27.001Z</time></trkpt><trkpt lat="37.04148878657459" lon="15.048177846717286"><ele>349.0</ele><time>2026-04-19T15:30:29.001Z</time></trkpt><trkpt lat="37.04153070338473" lon="15.048106552727575"><ele>349.0</ele><time>2026-04-19T15:30:31.001Z</time></trkpt><trkpt lat="37.0416374837401" lon="15.047982562189242"><ele>350.71428571428567</ele><time>2026-04-19T15:30:47.001Z</time></trkpt><trkpt lat="37.04167345168707" lon="15.04790980164707"><ele>352.42857142857144</ele><time>2026-04-19T15:30:48.001Z</time></trkpt><trkpt lat="37.04171892693026" lon="15.047821189178832"><ele>354.1428571428571</ele><time>2026-04-19T15:30:49.001Z</time></trkpt><trkpt lat="37.04175607003399" lon="15.04775165940138"><ele>355.85714285714283</ele><time>2026-04-19T15:30:50.001Z</time></trkpt><trkpt lat="37.041794867650864" lon="15.047687384416813"><ele>357.57142857142856</ele><time>2026-04-19T15:30:51.001Z</time></trkpt><trkpt lat="37.04183761571944" lon="15.047610769637876"><ele>359.2857142857143</ele><time>2026-04-19T15:30:52.001Z</time></trkpt><trkpt lat="37.04188277393406" lon="15.047525367160354"><ele>361.0</ele><time>2026-04-19T15:30:53.001Z</time></trkpt><trkpt lat="37.04193425037671" lon="15.047438595147305"><ele>361.0</ele><time>2026-04-19T15:30:54.001Z</time></trkpt><trkpt lat="37.04198835575223" lon="15.047348384013251"><ele>361.0</ele><time>2026-04-19T15:30:55.001Z</time></trkpt><trkpt lat="37.042043929332785" lon="15.047254159668341"><ele>361.0</ele><time>2026-04-19T15:30:56.001Z</time></trkpt><trkpt lat="37.04209764153482" lon="15.047165488924303"><ele>361.0</ele><time>2026-04-19T15:30:57.001Z</time></trkpt><trkpt lat="37.04213980585455" lon="15.047102750549081"><ele>361.0</ele><time>2026-04-19T15:30:58.001Z</time></trkpt><trkpt lat="37.0422117882627" lon="15.04702657699614"><ele>361.0</ele><time>2026-04-19T15:31:00.001Z</time></trkpt><trkpt lat="37.04228458626586" lon="15.046968636345275"><ele>361.0</ele><time>2026-04-19T15:31:02.001Z</time></trkpt><trkpt lat="37.04239523906579" lon="15.046947206587323"><ele>361.0</ele><time>2026-04-19T15:31:04.001Z</time></trkpt><trkpt lat="37.04246772779109" lon="15.046951325005805"><ele>361.0</ele><time>2026-04-19T15:31:05.001Z</time></trkpt><trkpt lat="37.04254027077736" lon="15.046965205906991"><ele>361.0</ele><time>2026-04-19T15:31:06.001Z</time></trkpt><trkpt lat="37.04260312954277" lon="15.047001282572003"><ele>361.0</ele><time>2026-04-19T15:31:07.001Z</time></trkpt><trkpt lat="37.042656597618816" lon="15.047057150418716"><ele>361.0</ele><time>2026-04-19T15:31:08.001Z</time></trkpt><trkpt lat="37.04268173665373" lon="15.047142872458357"><ele>363.16666666666663</ele><time>2026-04-19T15:31:09.001Z</time></trkpt><trkpt lat="37.04271729603065" lon="15.04721692710351"><ele>365.3333333333333</ele><time>2026-04-19T15:31:10.001Z</time></trkpt><trkpt lat="37.04276306059894" lon="15.047284988838033"><ele>367.5</ele><time>2026-04-19T15:31:11.001Z</time></trkpt><trkpt lat="37.04279163745114" lon="15.047368694570281"><ele>369.6666666666667</ele><time>2026-04-19T15:31:12.001Z</time></trkpt><trkpt lat="37.042832030274454" lon="15.047449597172344"><ele>371.83333333333337</ele><time>2026-04-19T15:31:13.001Z</time></trkpt><trkpt lat="37.0428813038442" lon="15.047542214509413"><ele>374.0</ele><time>2026-04-19T15:31:14.001Z</time></trkpt><trkpt lat="37.04293140652701" lon="15.04764835762276"><ele>374.2</ele><time>2026-04-19T15:31:15.001Z</time></trkpt><trkpt lat="37.042977216648666" lon="15.04775915863536"><ele>374.4</ele><time>2026-04-19T15:31:16.001Z</time></trkpt><trkpt lat="37.04302475091695" lon="15.047863257312214"><ele>374.6</ele><time>2026-04-19T15:31:17.001Z</time></trkpt><trkpt lat="37.043073461496924" lon="15.047957668856942"><ele>374.8</ele><time>2026-04-19T15:31:18.001Z</time></trkpt><trkpt lat="37.043118300824545" lon="15.048055638093448"><ele>375.0</ele><time>2026-04-19T15:31:19.001Z</time></trkpt><trkpt lat="37.043164928320266" lon="15.048152284595245"><ele>375.0</ele><time>2026-04-19T15:31:20.001Z</time></trkpt><trkpt lat="37.04321148890673" lon="15.048240336732944"><ele>375.0</ele><time>2026-04-19T15:31:21.001Z</time></trkpt><trkpt lat="37.04325767142756" lon="15.048338599338"><ele>375.0</ele><time>2026-04-19T15:31:22.001Z</time></trkpt><trkpt lat="37.04330625942025" lon="15.048442655570113"><ele>375.0</ele><time>2026-04-19T15:31:23.001Z</time></trkpt><trkpt lat="37.043352870518916" lon="15.048545979543068"><ele>375.0</ele><time>2026-04-19T15:31:24.001Z</time></trkpt><trkpt lat="37.04339786941083" lon="15.048645377763622"><ele>375.3333333333333</ele><time>2026-04-19T15:31:25.001Z</time></trkpt><trkpt lat="37.043441681523426" lon="15.048746219334218"><ele>375.6666666666667</ele><time>2026-04-19T15:31:26.001Z</time></trkpt><trkpt lat="37.04348162102467" lon="15.048836401970615"><ele>376.0</ele><time>2026-04-19T15:31:27.001Z</time></trkpt><trkpt lat="37.043515071371196" lon="15.048905729051421"><ele>376.33333333333337</ele><time>2026-04-19T15:31:28.001Z</time></trkpt><trkpt lat="37.04354584223042" lon="15.04898803291229"><ele>376.6666666666667</ele><time>2026-04-19T15:31:30.001Z</time></trkpt><trkpt lat="37.043584497589904" lon="15.049068666489871"><ele>377.0</ele><time>2026-04-19T15:31:33.001Z</time></trkpt><trkpt lat="37.043617809123965" lon="15.049141846396791"><ele>377.0</ele><time>2026-04-19T15:31:47.001Z</time></trkpt><trkpt lat="37.04356531627284" lon="15.049021925446812"><ele>377.0</ele><time>2026-04-19T15:31:51.001Z</time></trkpt><trkpt lat="37.043524970072305" lon="15.048942803429927"><ele>377.0</ele><time>2026-04-19T15:31:52.001Z</time></trkpt><trkpt lat="37.04351481011771" lon="15.048837843967611"><ele>377.0</ele><time>2026-04-19T15:31:53.001Z</time></trkpt><trkpt lat="37.04347650866977" lon="15.048763488894439"><ele>377.0</ele><time>2026-04-19T15:31:54.001Z</time></trkpt><trkpt lat="37.043438601787" lon="15.048676818440809"><ele>377.0</ele><time>2026-04-19T15:31:55.001Z</time></trkpt><trkpt lat="37.04339196421271" lon="15.048577620603107"><ele>377.0</ele><time>2026-04-19T15:31:56.001Z</time></trkpt><trkpt lat="37.04333896228864" lon="15.04846367008982"><ele>377.0</ele><time>2026-04-19T15:31:57.001Z</time></trkpt><trkpt lat="37.04328801024067" lon="15.048358796622372"><ele>377.0</ele><time>2026-04-19T15:31:58Z</time></trkpt><trkpt lat="37.04323849770939" lon="15.048257275769318"><ele>377.0</ele><time>2026-04-19T15:31:59Z</time></trkpt><trkpt lat="37.04318906132018" lon="15.048150888162061"><ele>377.0</ele><time>2026-04-19T15:32:00Z</time></trkpt><trkpt lat="37.043136281690074" lon="15.048040394471503"><ele>376.6</ele><time>2026-04-19T15:32:01Z</time></trkpt><trkpt lat="37.04308328758931" lon="15.047926428686344"><ele>376.20000000000005</ele><time>2026-04-19T15:32:02Z</time></trkpt><trkpt lat="37.04303022196459" lon="15.047811489218855"><ele>375.8</ele><time>2026-04-19T15:32:03Z</time></trkpt><trkpt lat="37.04298245212707" lon="15.047706486932324"><ele>375.4</ele><time>2026-04-19T15:32:04Z</time></trkpt><trkpt lat="37.04293742600003" lon="15.047609632149998"><ele>375.0</ele><time>2026-04-19T15:32:05Z</time></trkpt><trkpt lat="37.04289520784578" lon="15.047525489858705"><ele>374.8571428571429</ele><time>2026-04-19T15:32:06Z</time></trkpt><trkpt lat="37.04285821784472" lon="15.047446151350885"><ele>374.71428571428567</ele><time>2026-04-19T15:32:07Z</time></trkpt><trkpt lat="37.04282031237195" lon="15.047368462420131"><ele>374.57142857142856</ele><time>2026-04-19T15:32:08Z</time></trkpt><trkpt lat="37.042783501542544" lon="15.047291338324053"><ele>374.42857142857144</ele><time>2026-04-19T15:32:09Z</time></trkpt><trkpt lat="37.04274864445929" lon="15.047211976213768"><ele>374.28571428571433</ele><time>2026-04-19T15:32:10Z</time></trkpt><trkpt lat="37.0427096723712" lon="15.04713252910678"><ele>374.1428571428571</ele><time>2026-04-19T15:32:11Z</time></trkpt><trkpt lat="37.04266494282868" lon="15.047056854631565"><ele>374.0</ele><time>2026-04-19T15:32:12Z</time></trkpt><trkpt lat="37.04260971045462" lon="15.046986451828428"><ele>374.0</ele><time>2026-04-19T15:32:13Z</time></trkpt><trkpt lat="37.04253843103965" lon="15.04694121057826"><ele>374.0</ele><time>2026-04-19T15:32:14Z</time></trkpt><trkpt lat="37.04245887287249" lon="15.046917766172335"><ele>374.0</ele><time>2026-04-19T15:32:15Z</time></trkpt><trkpt lat="37.04238193431328" lon="15.046912631469807"><ele>374.0</ele><time>2026-04-19T15:32:16Z</time></trkpt><trkpt lat="37.04230659737306" lon="15.046929075008023"><ele>374.0</ele><time>2026-04-19T15:32:17Z</time></trkpt><trkpt lat="37.04223475535603" lon="15.046956267320702"><ele>374.0</ele><time>2026-04-19T15:32:18Z</time></trkpt><trkpt lat="37.04217369631723" lon="15.047006905220377"><ele>372.0</ele><time>2026-04-19T15:32:19Z</time></trkpt><trkpt lat="37.04212330171796" lon="15.047076390418521"><ele>370.0</ele><time>2026-04-19T15:32:20Z</time></trkpt><trkpt lat="37.04207955232167" lon="15.047155545430396"><ele>368.0</ele><time>2026-04-19T15:32:21Z</time></trkpt><trkpt lat="37.042036225489056" lon="15.047235477410641"><ele>366.0</ele><time>2026-04-19T15:32:22Z</time></trkpt><trkpt lat="37.04199221381423" lon="15.047320040202605"><ele>364.0</ele><time>2026-04-19T15:32:23Z</time></trkpt><trkpt lat="37.04194608694536" lon="15.047407004200597"><ele>362.0</ele><time>2026-04-19T15:32:24Z</time></trkpt><trkpt lat="37.0418901699014" lon="15.047490627797288"><ele>362.0</ele><time>2026-04-19T15:32:25Z</time></trkpt><trkpt lat="37.04183659744704" lon="15.04757844377636"><ele>362.0</ele><time>2026-04-19T15:32:26Z</time></trkpt><trkpt lat="37.04178309545953" lon="15.047673622194953"><ele>362.0</ele><time>2026-04-19T15:32:27Z</time></trkpt><trkpt lat="37.04172541710206" lon="15.04777377580961"><ele>362.0</ele><time>2026-04-19T15:32:28Z</time></trkpt><trkpt lat="37.041663836368436" lon="15.047875580242248"><ele>362.0</ele><time>2026-04-19T15:32:29Z</time></trkpt><trkpt lat="37.041596015132995" lon="15.04797791845949"><ele>358.75</ele><time>2026-04-19T15:32:30Z</time></trkpt><trkpt lat="37.04152599126599" lon="15.048080980706427"><ele>355.5</ele><time>2026-04-19T15:32:31Z</time></trkpt><trkpt lat="37.041453158226766" lon="15.048187540750995"><ele>352.25</ele><time>2026-04-19T15:32:32Z</time></trkpt><trkpt lat="37.041380640027384" lon="15.048295148065606"><ele>349.0</ele><time>2026-04-19T15:32:33Z</time></trkpt><trkpt lat="37.04130377717473" lon="15.048408567552396"><ele>349.0</ele><time>2026-04-19T15:32:34Z</time></trkpt><trkpt lat="37.0412228062441" lon="15.048528961347593"><ele>349.0</ele><time>2026-04-19T15:32:35Z</time></trkpt><trkpt lat="37.04113701177651" lon="15.04865282553316"><ele>349.0</ele><time>2026-04-19T15:32:36Z</time></trkpt><trkpt lat="37.04104777154681" lon="15.048773140741012"><ele>349.0</ele><time>2026-04-19T15:32:37Z</time></trkpt><trkpt lat="37.040961865160895" lon="15.048887233517075"><ele>349.0</ele><time>2026-04-19T15:32:38Z</time></trkpt><trkpt lat="37.04087954445061" lon="15.049004484241891"><ele>349.0</ele><time>2026-04-19T15:32:39Z</time></trkpt><trkpt lat="37.04080032936741" lon="15.049122560558828"><ele>349.0</ele><time>2026-04-19T15:32:40Z</time></trkpt><trkpt lat="37.04072030541182" lon="15.049236067496103"><ele>349.0</ele><time>2026-04-19T15:32:41Z</time></trkpt><trkpt lat="37.040641091918985" lon="15.049343154860306"><ele>351.79999999999995</ele><time>2026-04-19T15:32:42Z</time></trkpt><trkpt lat="37.040565068417266" lon="15.04944695683551"><ele>354.59999999999997</ele><time>2026-04-19T15:32:43Z</time></trkpt><trkpt lat="37.04049288769889" lon="15.049552393943145"><ele>357.4</ele><time>2026-04-19T15:32:44Z</time></trkpt><trkpt lat="37.04042101797603" lon="15.049656466821745"><ele>360.2</ele><time>2026-04-19T15:32:45Z</time></trkpt><trkpt lat="37.04034940628788" lon="15.049755922290437"><ele>363.0</ele><time>2026-04-19T15:32:46Z</time></trkpt><trkpt lat="37.04027953860699" lon="15.04985191683968"><ele>363.0</ele><time>2026-04-19T15:32:47Z</time></trkpt><trkpt lat="37.04021547468101" lon="15.049942745292231"><ele>363.0</ele><time>2026-04-19T15:32:48Z</time></trkpt><trkpt lat="37.04015669962045" lon="15.050024104932398"><ele>363.0</ele><time>2026-04-19T15:32:49Z</time></trkpt><trkpt lat="37.040101677983316" lon="15.050092737942062"><ele>363.0</ele><time>2026-04-19T15:32:50Z</time></trkpt><trkpt lat="37.040048226430756" lon="15.050150738172302"><ele>363.0</ele><time>2026-04-19T15:32:51Z</time></trkpt><trkpt lat="37.03999336098971" lon="15.050201595844632"><ele>363.0</ele><time>2026-04-19T15:32:52Z</time></trkpt><trkpt lat="37.03993499551462" lon="15.050240096189548"><ele>364.79999999999995</ele><time>2026-04-19T15:32:53Z</time></trkpt><trkpt lat="37.03987611561987" lon="15.050274211935008"><ele>366.6</ele><time>2026-04-19T15:32:54Z</time></trkpt><trkpt lat="37.03981665737484" lon="15.05030259019233"><ele>368.4</ele><time>2026-04-19T15:32:55Z</time></trkpt><trkpt lat="37.03965000654943" lon="15.050391446978507"><ele>370.20000000000005</ele><time>2026-04-19T15:32:58.001Z</time></trkpt><trkpt lat="37.03956604492544" lon="15.05043329025507"><ele>372.0</ele><time>2026-04-19T15:33:00.001Z</time></trkpt><trkpt lat="37.039494577890984" lon="15.050429381063706"><ele>372.0</ele><time>2026-04-19T15:33:04.001Z</time></trkpt><trkpt lat="37.039557398099596" lon="15.050389478674273"><ele>372.0</ele><time>2026-04-19T15:33:08.001Z</time></trkpt><trkpt lat="37.03954629746077" lon="15.050287528924127"><ele>372.0</ele><time>2026-04-19T15:33:09.001Z</time></trkpt><trkpt lat="37.039582182145914" lon="15.05019934032492"><ele>372.0</ele><time>2026-04-19T15:33:11.001Z</time></trkpt><trkpt lat="37.039611164253984" lon="15.050128395083624"><ele>372.0</ele><time>2026-04-19T15:33:12.001Z</time></trkpt><trkpt lat="37.03964501966532" lon="15.05005744844979"><ele>372.0</ele><time>2026-04-19T15:33:13.001Z</time></trkpt><trkpt lat="37.03970444251972" lon="15.049921503900649"><ele>372.6666666666667</ele><time>2026-04-19T15:33:15.001Z</time></trkpt><trkpt lat="37.03973422135971" lon="15.049844272045197"><ele>373.3333333333333</ele><time>2026-04-19T15:33:16.001Z</time></trkpt><trkpt lat="37.03976367505724" lon="15.049764497118712"><ele>374.0</ele><time>2026-04-19T15:33:17.001Z</time></trkpt><trkpt lat="37.03978557941764" lon="15.049678595697715"><ele>374.66666666666663</ele><time>2026-04-19T15:33:18.001Z</time></trkpt><trkpt lat="37.039802553190036" lon="15.049585700076712"><ele>375.3333333333333</ele><time>2026-04-19T15:33:19.001Z</time></trkpt><trkpt lat="37.03981034356733" lon="15.049488599232198"><ele>376.0</ele><time>2026-04-19T15:33:20.001Z</time></trkpt><trkpt lat="37.039813108291376" lon="15.0493796144364"><ele>376.0</ele><time>2026-04-19T15:33:21.001Z</time></trkpt><trkpt lat="37.03981634718505" lon="15.049265302919256"><ele>376.0</ele><time>2026-04-19T15:33:22.001Z</time></trkpt><trkpt lat="37.03981872561084" lon="15.049163562806534"><ele>376.0</ele><time>2026-04-19T15:33:23.001Z</time></trkpt><trkpt lat="37.039819551457654" lon="15.04906318304952"><ele>376.0</ele><time>2026-04-19T15:33:24.001Z</time></trkpt><trkpt lat="37.03982217397272" lon="15.04896174181224"><ele>376.0</ele><time>2026-04-19T15:33:25.001Z</time></trkpt><trkpt lat="37.03982856023798" lon="15.048864011281655"><ele>376.0</ele><time>2026-04-19T15:33:26.001Z</time></trkpt><trkpt lat="37.03984100499465" lon="15.04875123731972"><ele>376.8333333333333</ele><time>2026-04-19T15:33:27.001Z</time></trkpt><trkpt lat="37.039857132101005" lon="15.048633699311317"><ele>377.66666666666663</ele><time>2026-04-19T15:33:28.001Z</time></trkpt><trkpt lat="37.039877420904" lon="15.048512827223304"><ele>378.5</ele><time>2026-04-19T15:33:29.001Z</time></trkpt><trkpt lat="37.0398987657096" lon="15.048405494052068"><ele>379.3333333333333</ele><time>2026-04-19T15:33:30.001Z</time></trkpt><trkpt lat="37.03992010160767" lon="15.048306999859632"><ele>380.1666666666667</ele><time>2026-04-19T15:33:31.001Z</time></trkpt><trkpt lat="37.03993935875654" lon="15.048210386090231"><ele>381.0</ele><time>2026-04-19T15:33:32.001Z</time></trkpt><trkpt lat="37.0399575665485" lon="15.048106999527977"><ele>379.0</ele><time>2026-04-19T15:33:33Z</time></trkpt><trkpt lat="37.03997414552649" lon="15.048004587938802"><ele>377.0</ele><time>2026-04-19T15:33:34Z</time></trkpt><trkpt lat="37.0399963934215" lon="15.047902175740893"><ele>375.0</ele><time>2026-04-19T15:33:35Z</time></trkpt><trkpt lat="37.040039115680266" lon="15.047812557185852"><ele>373.0</ele><time>2026-04-19T15:33:36Z</time></trkpt><trkpt lat="37.040058840339775" lon="15.047707326047993"><ele>371.0</ele><time>2026-04-19T15:33:37Z</time></trkpt><trkpt lat="37.04009687048968" lon="15.047607710536344"><ele>369.0</ele><time>2026-04-19T15:33:38Z</time></trkpt><trkpt lat="37.0401368706476" lon="15.047500549406614"><ele>369.79999999999995</ele><time>2026-04-19T15:33:39Z</time></trkpt><trkpt lat="37.04018578243548" lon="15.047386648527866"><ele>370.59999999999997</ele><time>2026-04-19T15:33:40Z</time></trkpt><trkpt lat="37.04022984418211" lon="15.047267859787064"><ele>371.4</ele><time>2026-04-19T15:33:41Z</time></trkpt><trkpt lat="37.040286448375824" lon="15.047155680536253"><ele>372.2</ele><time>2026-04-19T15:33:42Z</time></trkpt><trkpt lat="37.04032732113253" lon="15.047038028529009"><ele>373.0</ele><time>2026-04-19T15:33:43Z</time></trkpt><trkpt lat="37.04035420175822" lon="15.046915072060235"><ele>373.0</ele><time>2026-04-19T15:33:44Z</time></trkpt><trkpt lat="37.04039027239972" lon="15.04680718291245"><ele>373.0</ele><time>2026-04-19T15:33:45Z</time></trkpt><trkpt lat="37.04040922231387" lon="15.046708066315107"><ele>373.0</ele><time>2026-04-19T15:33:46Z</time></trkpt><trkpt lat="37.04041499710919" lon="15.04660950277585"><ele>373.0</ele><time>2026-04-19T15:33:47Z</time></trkpt><trkpt lat="37.04041502411152" lon="15.046501869437177"><ele>373.0</ele><time>2026-04-19T15:33:48Z</time></trkpt><trkpt lat="37.04040946781116" lon="15.04639366687976"><ele>373.0</ele><time>2026-04-19T15:33:49Z</time></trkpt><trkpt lat="37.040421206105734" lon="15.046299360106534"><ele>373.0</ele><time>2026-04-19T15:33:50Z</time></trkpt><trkpt lat="37.04041500981095" lon="15.046212171349362"><ele>373.0</ele><time>2026-04-19T15:33:51Z</time></trkpt><trkpt lat="37.04040934274089" lon="15.046132429338064"><ele>373.0</ele><time>2026-04-19T15:33:52Z</time></trkpt><trkpt lat="37.04039941639954" lon="15.04599275470532"><ele>373.0</ele><time>2026-04-19T15:33:54Z</time></trkpt><trkpt lat="37.04039042290512" lon="15.045914077522575"><ele>373.0</ele><time>2026-04-19T15:33:56Z</time></trkpt><trkpt lat="37.04037221230584" lon="15.045817650425597"><ele>373.0</ele><time>2026-04-19T15:33:58Z</time></trkpt><trkpt lat="37.04035048802027" lon="15.045723270206423"><ele>373.0</ele><time>2026-04-19T15:34:00Z</time></trkpt><trkpt lat="37.04033091790069" lon="15.045642036356885"><ele>373.0</ele><time>2026-04-19T15:34:02Z</time></trkpt><trkpt lat="37.04031158104028" lon="15.045559470002226"><ele>373.0</ele><time>2026-04-19T15:34:04Z</time></trkpt><trkpt lat="37.04029300509721" lon="15.04546955346157"><ele>373.0</ele><time>2026-04-19T15:34:06Z</time></trkpt><trkpt lat="37.04026487670966" lon="15.045379987445283"><ele>373.0</ele><time>2026-04-19T15:34:09Z</time></trkpt><trkpt lat="37.040262831959765" lon="15.045300977184402"><ele>373.0</ele><time>2026-04-19T15:34:12Z</time></trkpt><trkpt lat="37.040269245149304" lon="15.045183292486215"><ele>373.0</ele><time>2026-04-19T15:34:39Z</time></trkpt><trkpt lat="37.040276861733034" lon="15.045073389295737"><ele>373.0</ele><time>2026-04-19T15:34:42Z</time></trkpt><trkpt lat="37.040310866636396" lon="15.044975771699015"><ele>373.0</ele><time>2026-04-19T15:34:45Z</time></trkpt><trkpt lat="37.04033477438715" lon="15.044880403424342"><ele>373.0</ele><time>2026-04-19T15:34:49Z</time></trkpt><trkpt lat="37.04036435168343" lon="15.044804732334176"><ele>373.0</ele><time>2026-04-19T15:34:54Z</time></trkpt><trkpt lat="37.040351434023144" lon="15.044885492269893"><ele>373.0</ele><time>2026-04-19T15:35:08.001Z</time></trkpt><trkpt lat="37.040330377205365" lon="15.044966482750574"><ele>373.0</ele><time>2026-04-19T15:35:11.001Z</time></trkpt><trkpt lat="37.040707581700744" lon="15.045202193067146"><ele>373.0</ele><time>2026-04-19T15:35:14.001Z</time></trkpt><trkpt lat="37.04067571346446" lon="15.045277684071959"><ele>373.0</ele><time>2026-04-19T15:35:19.001Z</time></trkpt><trkpt lat="37.04070165651976" lon="15.045181540669581"><ele>373.0</ele><time>2026-04-19T15:35:45.001Z</time></trkpt><trkpt lat="37.04071744980305" lon="15.045078712041393"><ele>373.0</ele><time>2026-04-19T15:35:49.001Z</time></trkpt><trkpt lat="37.04071407513745" lon="15.044974388046393"><ele>373.0</ele><time>2026-04-19T15:35:52.001Z</time></trkpt><trkpt lat="37.04069167575759" lon="15.044899207098164"><ele>373.0</ele><time>2026-04-19T15:35:54.001Z</time></trkpt><trkpt lat="37.04065980976826" lon="15.04482694081481"><ele>373.0</ele><time>2026-04-19T15:35:56.001Z</time></trkpt><trkpt lat="37.04063069996498" lon="15.044749724258912"><ele>373.7142857142857</ele><time>2026-04-19T15:35:58.001Z</time></trkpt><trkpt lat="37.04061585885772" lon="15.04464304602328"><ele>374.42857142857144</ele><time>2026-04-19T15:36:01.001Z</time></trkpt><trkpt lat="37.04060218992323" lon="15.04455831233019"><ele>375.1428571428571</ele><time>2026-04-19T15:36:04.001Z</time></trkpt><trkpt lat="37.04058911932891" lon="15.044461081707839"><ele>375.8571428571429</ele><time>2026-04-19T15:36:07.001Z</time></trkpt><trkpt lat="37.04061493212049" lon="15.04437272074515"><ele>376.57142857142856</ele><time>2026-04-19T15:36:10.001Z</time></trkpt><trkpt lat="37.04063510870946" lon="15.044297252467652"><ele>377.2857142857143</ele><time>2026-04-19T15:36:13Z</time></trkpt><trkpt lat="37.040653580101385" lon="15.044204735992045"><ele>378.0</ele><time>2026-04-19T15:36:16Z</time></trkpt><trkpt lat="37.040645361991636" lon="15.044100560695519"><ele>378.0</ele><time>2026-04-19T15:36:19Z</time></trkpt><trkpt lat="37.04063613857325" lon="15.044018737955334"><ele>378.0</ele><time>2026-04-19T15:36:21Z</time></trkpt><trkpt lat="37.04061780699017" lon="15.043940731097646"><ele>378.0</ele><time>2026-04-19T15:36:23Z</time></trkpt><trkpt lat="37.0405910006577" lon="15.043861522830127"><ele>378.0</ele><time>2026-04-19T15:36:25Z</time></trkpt><trkpt lat="37.04055644748979" lon="15.04376009196919"><ele>378.0</ele><time>2026-04-19T15:36:28Z</time></trkpt><trkpt lat="37.04054355260615" lon="15.043682328683792"><ele>378.0</ele><time>2026-04-19T15:36:31Z</time></trkpt><trkpt lat="37.04054847137392" lon="15.043597290169158"><ele>378.0</ele><time>2026-04-19T15:36:37Z</time></trkpt><trkpt lat="37.04057899366712" lon="15.04371171614985"><ele>378.0</ele><time>2026-04-19T15:36:41Z</time></trkpt><trkpt lat="37.040604853672356" lon="15.043802564617613"><ele>378.0</ele><time>2026-04-19T15:36:45Z</time></trkpt><trkpt lat="37.04063072077306" lon="15.043874882778487"><ele>378.0</ele><time>2026-04-19T15:36:50Z</time></trkpt><trkpt lat="37.04086543471447" lon="15.043679495919612"><ele>378.0</ele><time>2026-04-19T15:37:11.001Z</time></trkpt><trkpt lat="37.040939522044404" lon="15.043722817201127"><ele>370.4</ele><time>2026-04-19T15:37:22.001Z</time></trkpt><trkpt lat="37.04100078368259" lon="15.043798962645278"><ele>362.79999999999995</ele><time>2026-04-19T15:37:38.001Z</time></trkpt><trkpt lat="37.041013145731476" lon="15.043878984117026"><ele>355.2</ele><time>2026-04-19T15:37:40.001Z</time></trkpt><trkpt lat="37.041051963469485" lon="15.043978150408078"><ele>347.6</ele><time>2026-04-19T15:37:43.001Z</time></trkpt><trkpt lat="37.04115146485025" lon="15.043860160675893"><ele>340.0</ele><time>2026-04-19T15:39:21.001Z</time></trkpt><trkpt lat="37.04114980599631" lon="15.043755169733034"><ele>340.0</ele><time>2026-04-19T15:39:23.001Z</time></trkpt><trkpt lat="37.04117154331492" lon="15.043668813586553"><ele>340.0</ele><time>2026-04-19T15:39:27.001Z</time></trkpt><trkpt lat="37.04126115111593" lon="15.043687147364755"><ele>340.0</ele><time>2026-04-19T15:39:44.001Z</time></trkpt><trkpt lat="37.041313792574485" lon="15.043739148555412"><ele>340.0</ele><time>2026-04-19T15:39:48.001Z</time></trkpt><trkpt lat="37.04137228881108" lon="15.043804909537501"><ele>340.0</ele><time>2026-04-19T15:39:53.001Z</time></trkpt><trkpt lat="37.041376698944376" lon="15.043896479452671"><ele>340.0</ele><time>2026-04-19T15:39:55Z</time></trkpt><trkpt lat="37.04136456717549" lon="15.043985932086482"><ele>340.0</ele><time>2026-04-19T15:39:57Z</time></trkpt><trkpt lat="37.04133885197548" lon="15.044085093574438"><ele>340.0</ele><time>2026-04-19T15:39:59Z</time></trkpt><trkpt lat="37.04132826738922" lon="15.0441774448047"><ele>340.0</ele><time>2026-04-19T15:40:01Z</time></trkpt><trkpt lat="37.04133584061219" lon="15.04427100872878"><ele>340.0</ele><time>2026-04-19T15:40:03Z</time></trkpt><trkpt lat="37.041369296090146" lon="15.044364414589785"><ele>340.0</ele><time>2026-04-19T15:40:06Z</time></trkpt><trkpt lat="37.04142346617925" lon="15.044433981763154"><ele>340.0</ele><time>2026-04-19T15:40:10Z</time></trkpt><trkpt lat="37.04149408122945" lon="15.044461214878886"><ele>339.3333333333333</ele><time>2026-04-19T15:40:12Z</time></trkpt><trkpt lat="37.04157901192497" lon="15.044459128921876"><ele>338.66666666666663</ele><time>2026-04-19T15:40:14Z</time></trkpt><trkpt lat="37.04166004225103" lon="15.0444050870537"><ele>338.0</ele><time>2026-04-19T15:40:16Z</time></trkpt><trkpt lat="37.04175839897686" lon="15.044350058372322"><ele>337.3333333333333</ele><time>2026-04-19T15:40:18Z</time></trkpt><trkpt lat="37.0418089411156" lon="15.044302358684595"><ele>336.6666666666667</ele><time>2026-04-19T15:40:20Z</time></trkpt><trkpt lat="37.04187757893315" lon="15.044234454140604"><ele>336.0</ele><time>2026-04-19T15:40:23Z</time></trkpt><trkpt lat="37.041928778352585" lon="15.044176590775763"><ele>339.8333333333333</ele><time>2026-04-19T15:44:56Z</time></trkpt><trkpt lat="37.04198280493006" lon="15.044087129296436"><ele>343.6666666666667</ele><time>2026-04-19T15:44:59Z</time></trkpt><trkpt lat="37.04200740689548" lon="15.043997493814986"><ele>347.5</ele><time>2026-04-19T15:45:01Z</time></trkpt><trkpt lat="37.04203380303954" lon="15.043910346186548"><ele>351.33333333333337</ele><time>2026-04-19T15:45:03Z</time></trkpt><trkpt lat="37.04206579992737" lon="15.043819599646435"><ele>355.1666666666667</ele><time>2026-04-19T15:45:05Z</time></trkpt><trkpt lat="37.04209642706045" lon="15.043734468478796"><ele>359.0</ele><time>2026-04-19T15:45:07Z</time></trkpt><trkpt lat="37.042131345621364" lon="15.043633680885874"><ele>359.0</ele><time>2026-04-19T15:45:09Z</time></trkpt><trkpt lat="37.04216053058345" lon="15.043530715480152"><ele>359.0</ele><time>2026-04-19T15:45:11Z</time></trkpt><trkpt lat="37.04219755934165" lon="15.043425055545859"><ele>359.0</ele><time>2026-04-19T15:45:13Z</time></trkpt><trkpt lat="37.04224101659479" lon="15.043307468510609"><ele>359.0</ele><time>2026-04-19T15:45:15Z</time></trkpt><trkpt lat="37.04228238795999" lon="15.043183083375544"><ele>359.0</ele><time>2026-04-19T15:45:17Z</time></trkpt><trkpt lat="37.042311845914284" lon="15.04306667647085"><ele>360.1666666666667</ele><time>2026-04-19T15:45:19Z</time></trkpt><trkpt lat="37.04234540670267" lon="15.042973914425916"><ele>361.33333333333337</ele><time>2026-04-19T15:45:21Z</time></trkpt><trkpt lat="37.0423818352792" lon="15.042884566550784"><ele>362.5</ele><time>2026-04-19T15:45:23Z</time></trkpt><trkpt lat="37.04240819634891" lon="15.042794828454777"><ele>363.6666666666667</ele><time>2026-04-19T15:45:25Z</time></trkpt><trkpt lat="37.04244041875304" lon="15.042699638161308"><ele>364.8333333333333</ele><time>2026-04-19T15:45:27Z</time></trkpt><trkpt lat="37.042468366896635" lon="15.042600640622684"><ele>366.0</ele><time>2026-04-19T15:45:29Z</time></trkpt><trkpt lat="37.04250540147129" lon="15.042497260573748"><ele>367.4</ele><time>2026-04-19T15:45:31Z</time></trkpt><trkpt lat="37.042544418290426" lon="15.042384872111697"><ele>368.8</ele><time>2026-04-19T15:45:33.001Z</time></trkpt><trkpt lat="37.04258280498395" lon="15.042277700739463"><ele>370.2</ele><time>2026-04-19T15:45:35.001Z</time></trkpt><trkpt lat="37.04261820107352" lon="15.042167098696094"><ele>371.59999999999997</ele><time>2026-04-19T15:45:37.001Z</time></trkpt><trkpt lat="37.04265592385395" lon="15.04204409094648"><ele>373.0</ele><time>2026-04-19T15:45:39.001Z</time></trkpt><trkpt lat="37.04271168531532" lon="15.04192614473415"><ele>373.0</ele><time>2026-04-19T15:45:41.001Z</time></trkpt><trkpt lat="37.04275301521247" lon="15.04180923872728"><ele>373.0</ele><time>2026-04-19T15:45:43.001Z</time></trkpt><trkpt lat="37.0427972267879" lon="15.04169519297078"><ele>373.0</ele><time>2026-04-19T15:45:45.001Z</time></trkpt><trkpt lat="37.04285406241596" lon="15.041574865666547"><ele>373.0</ele><time>2026-04-19T15:45:47Z</time></trkpt><trkpt lat="37.04290346324422" lon="15.041471752793687"><ele>373.0</ele><time>2026-04-19T15:45:49Z</time></trkpt><trkpt lat="37.04295050937442" lon="15.041369087024695"><ele>373.0</ele><time>2026-04-19T15:45:51Z</time></trkpt><trkpt lat="37.043003655139856" lon="15.041253110426489"><ele>373.0</ele><time>2026-04-19T15:45:53Z</time></trkpt><trkpt lat="37.04305249934198" lon="15.04114652086393"><ele>373.0</ele><time>2026-04-19T15:45:55Z</time></trkpt><trkpt lat="37.04310023711222" lon="15.041042345775681"><ele>373.0</ele><time>2026-04-19T15:45:57Z</time></trkpt><trkpt lat="37.04314569983379" lon="15.040943135412407"><ele>373.0</ele><time>2026-04-19T15:45:59Z</time></trkpt><trkpt lat="37.043186411611764" lon="15.040856219893477"><ele>373.4</ele><time>2026-04-19T15:46:01Z</time></trkpt><trkpt lat="37.04324446687509" lon="15.040733483483816"><ele>373.79999999999995</ele><time>2026-04-19T15:46:03Z</time></trkpt><trkpt lat="37.04327782584552" lon="15.04066295827186"><ele>374.2</ele><time>2026-04-19T15:46:04Z</time></trkpt><trkpt lat="37.0433388772014" lon="15.040533887758146"><ele>374.6</ele><time>2026-04-19T15:46:06Z</time></trkpt><trkpt lat="37.04339786546845" lon="15.040409178855484"><ele>375.0</ele><time>2026-04-19T15:46:08Z</time></trkpt><trkpt lat="37.043461570256795" lon="15.04027395195252"><ele>375.0</ele><time>2026-04-19T15:46:10Z</time></trkpt><trkpt lat="37.04351737110829" lon="15.040152615852744"><ele>375.0</ele><time>2026-04-19T15:46:12Z</time></trkpt><trkpt lat="37.04357134561567" lon="15.040035251015235"><ele>375.0</ele><time>2026-04-19T15:46:14Z</time></trkpt><trkpt lat="37.043603777223936" lon="15.039964730033606"><ele>375.0</ele><time>2026-04-19T15:46:15Z</time></trkpt><trkpt lat="37.04363795427776" lon="15.039890699913542"><ele>375.0</ele><time>2026-04-19T15:46:16Z</time></trkpt><trkpt lat="37.04366820669118" lon="15.039817054484859"><ele>375.0</ele><time>2026-04-19T15:46:17Z</time></trkpt><trkpt lat="37.04369722461792" lon="15.039746414388704"><ele>375.3333333333333</ele><time>2026-04-19T15:46:18Z</time></trkpt><trkpt lat="37.043753854052895" lon="15.039608557847773"><ele>375.6666666666667</ele><time>2026-04-19T15:46:20Z</time></trkpt><trkpt lat="37.04378590438943" lon="15.039530535785032"><ele>376.0</ele><time>2026-04-19T15:46:22Z</time></trkpt><trkpt lat="37.04383080523447" lon="15.039421230919835"><ele>376.33333333333337</ele><time>2026-04-19T15:46:24Z</time></trkpt><trkpt lat="37.04386085403086" lon="15.039348081317165"><ele>376.6666666666667</ele><time>2026-04-19T15:46:25Z</time></trkpt><trkpt lat="37.04389438083638" lon="15.039267311449834"><ele>377.0</ele><time>2026-04-19T15:46:26Z</time></trkpt><trkpt lat="37.0439299630552" lon="15.039181760854095"><ele>377.1666666666667</ele><time>2026-04-19T15:46:27Z</time></trkpt><trkpt lat="37.043964207920155" lon="15.039099425651388"><ele>377.33333333333337</ele><time>2026-04-19T15:46:28Z</time></trkpt><trkpt lat="37.04399644723217" lon="15.039021912480456"><ele>377.5</ele><time>2026-04-19T15:46:29Z</time></trkpt><trkpt lat="37.044027216666876" lon="15.03894793332206"><ele>377.6666666666667</ele><time>2026-04-19T15:46:30Z</time></trkpt><trkpt lat="37.04406301405847" lon="15.03881692944985"><ele>377.8333333333333</ele><time>2026-04-19T15:46:32Z</time></trkpt><trkpt lat="37.04411926610752" lon="15.038726618213627"><ele>378.0</ele><time>2026-04-19T15:46:34Z</time></trkpt><trkpt lat="37.044158382712006" lon="15.03858797010837"><ele>378.1666666666667</ele><time>2026-04-19T15:46:36Z</time></trkpt><trkpt lat="37.044196802090084" lon="15.038511473477632"><ele>378.3333333333333</ele><time>2026-04-19T15:46:37Z</time></trkpt><trkpt lat="37.04422365571826" lon="15.038437470221734"><ele>378.5</ele><time>2026-04-19T15:46:38Z</time></trkpt><trkpt lat="37.044275875264766" lon="15.03831316521423"><ele>378.66666666666663</ele><time>2026-04-19T15:46:40Z</time></trkpt><trkpt lat="37.044337986552854" lon="15.038209806794981"><ele>378.8333333333333</ele><time>2026-04-19T15:46:42Z</time></trkpt><trkpt lat="37.044371907447264" lon="15.038130412685291"><ele>379.0</ele><time>2026-04-19T15:46:43Z</time></trkpt><trkpt lat="37.044402630839926" lon="15.038058502540961"><ele>379.4</ele><time>2026-04-19T15:46:44Z</time></trkpt><trkpt lat="37.04444410268537" lon="15.03795570926809"><ele>379.79999999999995</ele><time>2026-04-19T15:46:46Z</time></trkpt><trkpt lat="37.04450246759638" lon="15.037809867827395"><ele>380.20000000000005</ele><time>2026-04-19T15:46:48Z</time></trkpt><trkpt lat="37.04453201463348" lon="15.03773603606939"><ele>380.6</ele><time>2026-04-19T15:46:49Z</time></trkpt><trkpt lat="37.044574156472926" lon="15.037630902854271"><ele>381.0</ele><time>2026-04-19T15:46:51Z</time></trkpt><trkpt lat="37.04462244223925" lon="15.037516047092842"><ele>381.3333333333333</ele><time>2026-04-19T15:46:53Z</time></trkpt><trkpt lat="37.044658347265276" lon="15.03743028061473"><ele>381.6666666666667</ele><time>2026-04-19T15:46:56Z</time></trkpt><trkpt lat="37.04465381329864" lon="15.037351472079827"><ele>382.0</ele><time>2026-04-19T15:49:21Z</time></trkpt><trkpt lat="37.044715912325195" lon="15.037247280516986"><ele>382.33333333333337</ele><time>2026-04-19T15:49:24Z</time></trkpt><trkpt lat="37.0446995346145" lon="15.037143552319128"><ele>382.6666666666667</ele><time>2026-04-19T15:49:26Z</time></trkpt><trkpt lat="37.04471140716806" lon="15.037015469554852"><ele>383.0</ele><time>2026-04-19T15:49:27.999Z</time></trkpt><trkpt lat="37.04471516705003" lon="15.036919933348575"><ele>383.0</ele><time>2026-04-19T15:49:29.999Z</time></trkpt><trkpt lat="37.04472685973539" lon="15.036819965872152"><ele>383.0</ele><time>2026-04-19T15:49:31.999Z</time></trkpt><trkpt lat="37.04475200534495" lon="15.036734436944776"><ele>383.0</ele><time>2026-04-19T15:49:33.999Z</time></trkpt><trkpt lat="37.04477958337503" lon="15.036634420271023"><ele>383.0</ele><time>2026-04-19T15:49:35.999Z</time></trkpt><trkpt lat="37.044854535956844" lon="15.036537725210735"><ele>383.0</ele><time>2026-04-19T15:49:37.999Z</time></trkpt><trkpt lat="37.0449266335811" lon="15.036431365264638"><ele>384.2</ele><time>2026-04-19T15:49:39.999Z</time></trkpt><trkpt lat="37.044993138645275" lon="15.036340906192455"><ele>385.4</ele><time>2026-04-19T15:49:41.999Z</time></trkpt><trkpt lat="37.04506722169529" lon="15.036240139684145"><ele>386.59999999999997</ele><time>2026-04-19T15:49:43.999Z</time></trkpt><trkpt lat="37.04514659919924" lon="15.036132171808763"><ele>387.79999999999995</ele><time>2026-04-19T15:49:46Z</time></trkpt><trkpt lat="37.045222144028266" lon="15.036029417008791"><ele>389.0</ele><time>2026-04-19T15:49:48Z</time></trkpt><trkpt lat="37.04528067224152" lon="15.035949844566176"><ele>389.0</ele><time>2026-04-19T15:49:50Z</time></trkpt><trkpt lat="37.045347421967215" lon="15.035854909474008"><ele>389.0</ele><time>2026-04-19T15:49:52Z</time></trkpt><trkpt lat="37.04541965569592" lon="15.035743251961092"><ele>389.0</ele><time>2026-04-19T15:49:54Z</time></trkpt><trkpt lat="37.04548626118955" lon="15.035636781624186"><ele>389.0</ele><time>2026-04-19T15:49:56Z</time></trkpt><trkpt lat="37.04554861815368" lon="15.035537049947804"><ele>389.0</ele><time>2026-04-19T15:49:58Z</time></trkpt><trkpt lat="37.04561269042307" lon="15.035435406604938"><ele>389.2</ele><time>2026-04-19T15:50:00Z</time></trkpt><trkpt lat="37.0456775397433" lon="15.03533331378337"><ele>389.4</ele><time>2026-04-19T15:50:02Z</time></trkpt><trkpt lat="37.04574746597794" lon="15.03522322847609"><ele>389.6</ele><time>2026-04-19T15:50:04Z</time></trkpt><trkpt lat="37.045811223122655" lon="15.035122855369229"><ele>389.8</ele><time>2026-04-19T15:50:06Z</time></trkpt><trkpt lat="37.04587675236889" lon="15.035019309741962"><ele>390.0</ele><time>2026-04-19T15:50:08Z</time></trkpt><trkpt lat="37.045942866943854" lon="15.034912482730332"><ele>391.6</ele><time>2026-04-19T15:50:10Z</time></trkpt><trkpt lat="37.04600319571478" lon="15.03481484017995"><ele>393.2</ele><time>2026-04-19T15:50:12Z</time></trkpt><trkpt lat="37.04605537021113" lon="15.034722903139615"><ele>394.79999999999995</ele><time>2026-04-19T15:50:14Z</time></trkpt><trkpt lat="37.04609804515605" lon="15.034603960952184"><ele>396.4</ele><time>2026-04-19T15:50:16Z</time></trkpt><trkpt lat="37.04612202369198" lon="15.034502586147388"><ele>398.0</ele><time>2026-04-19T15:50:18Z</time></trkpt><trkpt lat="37.04614214673786" lon="15.03437400482502"><ele>398.0</ele><time>2026-04-19T15:50:20Z</time></trkpt><trkpt lat="37.04617047869388" lon="15.034225220486512"><ele>398.0</ele><time>2026-04-19T15:50:22Z</time></trkpt><trkpt lat="37.04618737576907" lon="15.034144191659962"><ele>398.0</ele><time>2026-04-19T15:50:23Z</time></trkpt><trkpt lat="37.04620367024502" lon="15.034066052420256"><ele>398.0</ele><time>2026-04-19T15:50:24Z</time></trkpt><trkpt lat="37.04623306636331" lon="15.033925085443904"><ele>398.0</ele><time>2026-04-19T15:50:26Z</time></trkpt><trkpt lat="37.04625666464143" lon="15.033811788567903"><ele>398.4</ele><time>2026-04-19T15:50:28Z</time></trkpt><trkpt lat="37.046284212487976" lon="15.033674548708468"><ele>398.79999999999995</ele><time>2026-04-19T15:50:30Z</time></trkpt><trkpt lat="37.04629645076268" lon="15.033537506591168"><ele>399.2</ele><time>2026-04-19T15:50:32Z</time></trkpt><trkpt lat="37.04630307897324" lon="15.033420799869694"><ele>399.6</ele><time>2026-04-19T15:50:34Z</time></trkpt><trkpt lat="37.04628825538281" lon="15.03331051397228"><ele>400.0</ele><time>2026-04-19T15:50:36Z</time></trkpt><trkpt lat="37.04626233414685" lon="15.033193269797643"><ele>400.0</ele><time>2026-04-19T15:50:38Z</time></trkpt><trkpt lat="37.04623182214535" lon="15.033077548480218"><ele>400.0</ele><time>2026-04-19T15:50:40Z</time></trkpt><trkpt lat="37.046204359778194" lon="15.032951739844224"><ele>400.0</ele><time>2026-04-19T15:50:42Z</time></trkpt><trkpt lat="37.046171236294875" lon="15.032813563900817"><ele>400.0</ele><time>2026-04-19T15:50:44Z</time></trkpt><trkpt lat="37.04615041143076" lon="15.032685238513825"><ele>400.0</ele><time>2026-04-19T15:50:46Z</time></trkpt><trkpt lat="37.04612587561742" lon="15.032589174123453"><ele>400.0</ele><time>2026-04-19T15:50:48Z</time></trkpt><trkpt lat="37.046116776659" lon="15.032508999361466"><ele>400.0</ele><time>2026-04-19T15:50:50Z</time></trkpt><trkpt lat="37.04608384570382" lon="15.032398077787208"><ele>400.0</ele><time>2026-04-19T15:50:52Z</time></trkpt><trkpt lat="37.04607723310253" lon="15.032276828269872"><ele>400.0</ele><time>2026-04-19T15:50:54Z</time></trkpt><trkpt lat="37.04606430528681" lon="15.032130707796146"><ele>400.0</ele><time>2026-04-19T15:50:56Z</time></trkpt><trkpt lat="37.046054889089625" lon="15.031986600571441"><ele>400.8</ele><time>2026-04-19T15:50:58Z</time></trkpt><trkpt lat="37.04604237122995" lon="15.031840559560285"><ele>401.6</ele><time>2026-04-19T15:51:00Z</time></trkpt><trkpt lat="37.04603387537403" lon="15.03171078016471"><ele>402.4</ele><time>2026-04-19T15:51:02Z</time></trkpt><trkpt lat="37.046026615373094" lon="15.031583295816874"><ele>403.2</ele><time>2026-04-19T15:51:04Z</time></trkpt><trkpt lat="37.04601736325279" lon="15.031451804091349"><ele>404.0</ele><time>2026-04-19T15:51:06Z</time></trkpt><trkpt lat="37.04600916064175" lon="15.031338051834664"><ele>404.6</ele><time>2026-04-19T15:51:08Z</time></trkpt><trkpt lat="37.045998178386945" lon="15.031233738789199"><ele>405.2</ele><time>2026-04-19T15:51:10Z</time></trkpt><trkpt lat="37.04599484157563" lon="15.03112876211771"><ele>405.8</ele><time>2026-04-19T15:51:22.999Z</time></trkpt><trkpt lat="37.04599042539082" lon="15.031013443670611"><ele>406.40000000000003</ele><time>2026-04-19T15:51:24.999Z</time></trkpt><trkpt lat="37.0459920673193" lon="15.030875273695708"><ele>407.0</ele><time>2026-04-19T15:51:26.999Z</time></trkpt><trkpt lat="37.045987278622675" lon="15.030753170234794"><ele>407.6</ele><time>2026-04-19T15:51:28.999Z</time></trkpt><trkpt lat="37.045973983970704" lon="15.030630268074775"><ele>408.20000000000005</ele><time>2026-04-19T15:51:30.999Z</time></trkpt><trkpt lat="37.04595555500253" lon="15.030512311256354"><ele>408.8</ele><time>2026-04-19T15:51:32.999Z</time></trkpt><trkpt lat="37.045933182866534" lon="15.030391813428283"><ele>409.4</ele><time>2026-04-19T15:51:34.999Z</time></trkpt><trkpt lat="37.0459049220522" lon="15.030280462851362"><ele>410.0</ele><time>2026-04-19T15:51:37.999Z</time></trkpt><trkpt lat="37.04587562622035" lon="15.030149739132542"><ele>410.0</ele><time>2026-04-19T15:51:39.999Z</time></trkpt><trkpt lat="37.0458616817763" lon="15.030042600074575"><ele>410.0</ele><time>2026-04-19T15:51:41.999Z</time></trkpt><trkpt lat="37.04583913566822" lon="15.02992684630904"><ele>410.0</ele><time>2026-04-19T15:51:43.999Z</time></trkpt><trkpt lat="37.045818217470035" lon="15.02980513905108"><ele>410.0</ele><time>2026-04-19T15:51:45.999Z</time></trkpt><trkpt lat="37.045814134405546" lon="15.029683394457171"><ele>410.0</ele><time>2026-04-19T15:51:47.999Z</time></trkpt><trkpt lat="37.045795378161316" lon="15.029556976166617"><ele>410.2</ele><time>2026-04-19T15:51:49.999Z</time></trkpt><trkpt lat="37.04577677319674" lon="15.029430834912246"><ele>410.4</ele><time>2026-04-19T15:51:52Z</time></trkpt><trkpt lat="37.0458141935038" lon="15.029311313441179"><ele>410.6</ele><time>2026-04-19T15:51:54Z</time></trkpt><trkpt lat="37.04582261440393" lon="15.029181946019264"><ele>410.8</ele><time>2026-04-19T15:51:56Z</time></trkpt><trkpt lat="37.04586198642839" lon="15.029059559396163"><ele>411.0</ele><time>2026-04-19T15:51:58Z</time></trkpt><trkpt lat="37.04588482885387" lon="15.02893923413595"><ele>411.6</ele><time>2026-04-19T15:52:00Z</time></trkpt><trkpt lat="37.04590746466618" lon="15.028819997425481"><ele>412.20000000000005</ele><time>2026-04-19T15:52:02Z</time></trkpt><trkpt lat="37.04593016864595" lon="15.028700401453303"><ele>412.79999999999995</ele><time>2026-04-19T15:52:04Z</time></trkpt><trkpt lat="37.04595443380464" lon="15.028576552917531"><ele>413.4</ele><time>2026-04-19T15:52:06Z</time></trkpt><trkpt lat="37.045978391018835" lon="15.02845819044681"><ele>414.0</ele><time>2026-04-19T15:52:08Z</time></trkpt><trkpt lat="37.046000402779036" lon="15.028349439547194"><ele>414.3333333333333</ele><time>2026-04-19T15:52:10Z</time></trkpt><trkpt lat="37.0460223995251" lon="15.028230132699592"><ele>414.66666666666663</ele><time>2026-04-19T15:52:12Z</time></trkpt><trkpt lat="37.04604510227611" lon="15.028106580484485"><ele>415.0</ele><time>2026-04-19T15:52:14Z</time></trkpt><trkpt lat="37.0460461360482" lon="15.028016063582738"><ele>415.3333333333333</ele><time>2026-04-19T15:52:16Z</time></trkpt><trkpt lat="37.046084945125195" lon="15.027889748857133"><ele>415.66666666666663</ele><time>2026-04-19T15:52:18Z</time></trkpt><trkpt lat="37.04608546264964" lon="15.027804302993733"><ele>416.0</ele><time>2026-04-19T15:52:19Z</time></trkpt><trkpt lat="37.04610331350143" lon="15.027728434006901"><ele>416.0</ele><time>2026-04-19T15:52:20Z</time></trkpt><trkpt lat="37.046125046603315" lon="15.027598841991463"><ele>416.0</ele><time>2026-04-19T15:52:22Z</time></trkpt><trkpt lat="37.04614384568341" lon="15.027488772022537"><ele>416.0</ele><time>2026-04-19T15:52:24Z</time></trkpt><trkpt lat="37.046180164384985" lon="15.027380621342429"><ele>416.0</ele><time>2026-04-19T15:52:26Z</time></trkpt><trkpt lat="37.04620507940018" lon="15.027253036385108"><ele>416.0</ele><time>2026-04-19T15:52:28Z</time></trkpt><trkpt lat="37.046228597924745" lon="15.02713119439972"><ele>416.20000000000005</ele><time>2026-04-19T15:52:30Z</time></trkpt><trkpt lat="37.04625224816712" lon="15.027001135554091"><ele>416.40000000000003</ele><time>2026-04-19T15:52:32Z</time></trkpt><trkpt lat="37.04624762482462" lon="15.02685630949628"><ele>416.6</ele><time>2026-04-19T15:52:34Z</time></trkpt><trkpt lat="37.046269967287074" lon="15.026741775845052"><ele>416.8</ele><time>2026-04-19T15:52:36Z</time></trkpt><trkpt lat="37.04629136801658" lon="15.026663287081814"><ele>417.0</ele><time>2026-04-19T15:52:39Z</time></trkpt><trkpt lat="37.04624074699505" lon="15.026593597729738"><ele>417.0</ele><time>2026-04-19T15:59:25.999Z</time></trkpt><trkpt lat="37.04627962586497" lon="15.026677100841729"><ele>417.0</ele><time>2026-04-19T15:59:58.999Z</time></trkpt><trkpt lat="37.04626510644302" lon="15.026777240383936"><ele>417.0</ele><time>2026-04-19T16:00:01.999Z</time></trkpt><trkpt lat="37.04626003347556" lon="15.026873143615907"><ele>417.0</ele><time>2026-04-19T16:00:18.999Z</time></trkpt><trkpt lat="37.04624365172538" lon="15.026974677025663"><ele>417.0</ele><time>2026-04-19T16:00:20.999Z</time></trkpt><trkpt lat="37.04622825697079" lon="15.027068025211577"><ele>417.0</ele><time>2026-04-19T16:00:22.999Z</time></trkpt><trkpt lat="37.046211770229576" lon="15.027158000187157"><ele>417.0</ele><time>2026-04-19T16:00:24.999Z</time></trkpt><trkpt lat="37.04619712165501" lon="15.027243766132608"><ele>417.0</ele><time>2026-04-19T16:00:26.999Z</time></trkpt><trkpt lat="37.046174701765715" lon="15.027372021778463"><ele>417.0</ele><time>2026-04-19T16:00:28.999Z</time></trkpt><trkpt lat="37.0461552745757" lon="15.027467705171427"><ele>417.0</ele><time>2026-04-19T16:00:31.999Z</time></trkpt><trkpt lat="37.0461389605351" lon="15.027568008125868"><ele>417.0</ele><time>2026-04-19T16:00:33.999Z</time></trkpt><trkpt lat="37.04612052001541" lon="15.0276769945426"><ele>417.0</ele><time>2026-04-19T16:00:35.999Z</time></trkpt><trkpt lat="37.046100799367586" lon="15.027770870592168"><ele>416.8571428571429</ele><time>2026-04-19T16:00:37.999Z</time></trkpt><trkpt lat="37.04608400529912" lon="15.02785904884156"><ele>416.71428571428567</ele><time>2026-04-19T16:00:39.999Z</time></trkpt><trkpt lat="37.04606455838116" lon="15.027940892601483"><ele>416.57142857142856</ele><time>2026-04-19T16:00:41.999Z</time></trkpt><trkpt lat="37.04605138067414" lon="15.028045438441497"><ele>416.42857142857144</ele><time>2026-04-19T16:00:43.999Z</time></trkpt><trkpt lat="37.04603284072137" lon="15.028145769282236"><ele>416.28571428571433</ele><time>2026-04-19T16:00:45.999Z</time></trkpt><trkpt lat="37.04601655659686" lon="15.028230972167952"><ele>416.1428571428571</ele><time>2026-04-19T16:00:47.999Z</time></trkpt><trkpt lat="37.046002038624685" lon="15.02830958357919"><ele>416.0</ele><time>2026-04-19T16:00:49.999Z</time></trkpt><trkpt lat="37.04597979186977" lon="15.028425285951627"><ele>415.66666666666663</ele><time>2026-04-19T16:00:52.999Z</time></trkpt><trkpt lat="37.0459580274808" lon="15.02853349252325"><ele>415.3333333333333</ele><time>2026-04-19T16:00:54.999Z</time></trkpt><trkpt lat="37.04593662827805" lon="15.028639389189019"><ele>415.0</ele><time>2026-04-19T16:00:56.999Z</time></trkpt><trkpt lat="37.04592267599714" lon="15.028722943009111"><ele>414.66666666666663</ele><time>2026-04-19T16:00:58.999Z</time></trkpt><trkpt lat="37.04589982301485" lon="15.02883055772491"><ele>414.3333333333333</ele><time>2026-04-19T16:01:00.999Z</time></trkpt><trkpt lat="37.04587909588958" lon="15.028935813941239"><ele>414.0</ele><time>2026-04-19T16:01:02.999Z</time></trkpt><trkpt lat="37.0458569270838" lon="15.029051472967092"><ele>413.6666666666667</ele><time>2026-04-19T16:01:04.999Z</time></trkpt><trkpt lat="37.04583340380276" lon="15.029160957717242"><ele>413.33333333333337</ele><time>2026-04-19T16:01:06.999Z</time></trkpt><trkpt lat="37.04581432199667" lon="15.029255104795768"><ele>413.0</ele><time>2026-04-19T16:01:08.999Z</time></trkpt><trkpt lat="37.045800552963534" lon="15.029339751533342"><ele>412.6666666666667</ele><time>2026-04-19T16:01:10.999Z</time></trkpt><trkpt lat="37.045779791008954" lon="15.029446314402247"><ele>412.33333333333337</ele><time>2026-04-19T16:01:13.999Z</time></trkpt><trkpt lat="37.04578886177061" lon="15.029552079148402"><ele>412.0</ele><time>2026-04-19T16:01:15.999Z</time></trkpt><trkpt lat="37.0458050694459" lon="15.029683756798988"><ele>412.00000000000006</ele><time>2026-04-19T16:01:17.999Z</time></trkpt><trkpt lat="37.04582253634145" lon="15.029805624853816"><ele>412.0</ele><time>2026-04-19T16:01:19.999Z</time></trkpt><trkpt lat="37.045837039034005" lon="15.029913377670535"><ele>412.0</ele><time>2026-04-19T16:01:21.999Z</time></trkpt><trkpt lat="37.04585674094758" lon="15.030014565946384"><ele>412.0</ele><time>2026-04-19T16:01:23.999Z</time></trkpt><trkpt lat="37.045872935725626" lon="15.030118898479344"><ele>412.00000000000006</ele><time>2026-04-19T16:01:25.999Z</time></trkpt><trkpt lat="37.04588258387889" lon="15.03019756598263"><ele>412.0</ele><time>2026-04-19T16:01:27.999Z</time></trkpt><trkpt lat="37.04589845667201" lon="15.03028030439508"><ele>411.6666666666667</ele><time>2026-04-19T16:01:29.999Z</time></trkpt><trkpt lat="37.04592409386203" lon="15.03039178262232"><ele>411.33333333333337</ele><time>2026-04-19T16:01:31.999Z</time></trkpt><trkpt lat="37.04594225071034" lon="15.03048794704639"><ele>411.0</ele><time>2026-04-19T16:01:33.999Z</time></trkpt><trkpt lat="37.04596868481809" lon="15.030567403840763"><ele>410.66666666666663</ele><time>2026-04-19T16:01:35.999Z</time></trkpt><trkpt lat="37.0459846651708" lon="15.030675983576991"><ele>410.3333333333333</ele><time>2026-04-19T16:01:37.999Z</time></trkpt><trkpt lat="37.04599632328" lon="15.030797232625915"><ele>410.0</ele><time>2026-04-19T16:01:39.999Z</time></trkpt><trkpt lat="37.04599845132354" lon="15.03092092762975"><ele>409.49999999999994</ele><time>2026-04-19T16:01:41.999Z</time></trkpt><trkpt lat="37.0459929705596" lon="15.031043060055895"><ele>409.0</ele><time>2026-04-19T16:01:43.999Z</time></trkpt><trkpt lat="37.04599305940666" lon="15.031127632978274"><ele>408.5</ele><time>2026-04-19T16:01:45.999Z</time></trkpt><trkpt lat="37.04599937018046" lon="15.031225602724062"><ele>408.0</ele><time>2026-04-19T16:01:47.999Z</time></trkpt><trkpt lat="37.04600560198533" lon="15.031308505732902"><ele>407.49999999999994</ele><time>2026-04-19T16:01:49.999Z</time></trkpt><trkpt lat="37.046022172385925" lon="15.031439387719638"><ele>407.0</ele><time>2026-04-19T16:01:52.999Z</time></trkpt><trkpt lat="37.046027058584926" lon="15.031571486306715"><ele>406.40000000000003</ele><time>2026-04-19T16:01:54.999Z</time></trkpt><trkpt lat="37.046031248360066" lon="15.03165113138465"><ele>405.8</ele><time>2026-04-19T16:01:55.999Z</time></trkpt><trkpt lat="37.04604167509846" lon="15.031791845782427"><ele>405.2</ele><time>2026-04-19T16:01:57.999Z</time></trkpt><trkpt lat="37.046052503784566" lon="15.031934183689382"><ele>404.6</ele><time>2026-04-19T16:01:59.999Z</time></trkpt><trkpt lat="37.046061580686704" lon="15.032042758232924"><ele>404.0</ele><time>2026-04-19T16:02:01.999Z</time></trkpt><trkpt lat="37.04606806518818" lon="15.03216249042942"><ele>403.99999999999994</ele><time>2026-04-19T16:02:03.999Z</time></trkpt><trkpt lat="37.04607841520578" lon="15.03225491148797"><ele>404.0</ele><time>2026-04-19T16:02:05.999Z</time></trkpt><trkpt lat="37.046083936352495" lon="15.032365124953511"><ele>404.0</ele><time>2026-04-19T16:02:08.999Z</time></trkpt><trkpt lat="37.046112558580575" lon="15.032499335636714"><ele>404.0</ele><time>2026-04-19T16:02:11.999Z</time></trkpt><trkpt lat="37.04614240592462" lon="15.032607906059813"><ele>403.99999999999994</ele><time>2026-04-19T16:02:13.999Z</time></trkpt><trkpt lat="37.04615947532188" lon="15.032700645476075"><ele>404.0</ele><time>2026-04-19T16:02:15.999Z</time></trkpt><trkpt lat="37.04618429946393" lon="15.032813217035667"><ele>403.2</ele><time>2026-04-19T16:02:17.999Z</time></trkpt><trkpt lat="37.04620925040048" lon="15.032967780929516"><ele>402.4</ele><time>2026-04-19T16:02:19.999Z</time></trkpt><trkpt lat="37.046237202794735" lon="15.033102384533318"><ele>401.6</ele><time>2026-04-19T16:02:21.998Z</time></trkpt><trkpt lat="37.0462586797343" lon="15.033200326787695"><ele>400.8</ele><time>2026-04-19T16:02:23.998Z</time></trkpt><trkpt lat="37.04627783631168" lon="15.033289956592299"><ele>400.0</ele><time>2026-04-19T16:02:25.998Z</time></trkpt><trkpt lat="37.046296647354026" lon="15.033370061915754"><ele>400.00000000000006</ele><time>2026-04-19T16:02:27.998Z</time></trkpt><trkpt lat="37.04630766675051" lon="15.033472096291444"><ele>400.0</ele><time>2026-04-19T16:02:29.998Z</time></trkpt><trkpt lat="37.04629530465812" lon="15.033586283202833"><ele>400.0</ele><time>2026-04-19T16:02:31.998Z</time></trkpt><trkpt lat="37.04627213281426" lon="15.033684448478429"><ele>400.0</ele><time>2026-04-19T16:02:33.998Z</time></trkpt><trkpt lat="37.0462507710807" lon="15.033784032392541"><ele>400.00000000000006</ele><time>2026-04-19T16:02:35.998Z</time></trkpt><trkpt lat="37.046228516064026" lon="15.033880193834918"><ele>400.0</ele><time>2026-04-19T16:02:37.998Z</time></trkpt><trkpt lat="37.04621208951537" lon="15.033958008629323"><ele>400.0</ele><time>2026-04-19T16:02:39.999Z</time></trkpt><trkpt lat="37.046190455112715" lon="15.034061076967902"><ele>400.0</ele><time>2026-04-19T16:02:41.999Z</time></trkpt><trkpt lat="37.04616754101704" lon="15.034178733429822"><ele>400.0</ele><time>2026-04-19T16:02:43.999Z</time></trkpt><trkpt lat="37.04614065887697" lon="15.034301981229982"><ele>400.0</ele><time>2026-04-19T16:02:45.999Z</time></trkpt><trkpt lat="37.04611719682278" lon="15.034425755658592"><ele>400.0</ele><time>2026-04-19T16:02:47.999Z</time></trkpt><trkpt lat="37.04610377068729" lon="15.034523949536462"><ele>399.6666666666667</ele><time>2026-04-19T16:02:49.999Z</time></trkpt><trkpt lat="37.04608069140641" lon="15.034605807497202"><ele>399.33333333333337</ele><time>2026-04-19T16:02:51.999Z</time></trkpt><trkpt lat="37.046054819147834" lon="15.034683707612654"><ele>399.0</ele><time>2026-04-19T16:02:53.999Z</time></trkpt><trkpt lat="37.046011507302964" lon="15.0347712263102"><ele>398.66666666666663</ele><time>2026-04-19T16:02:55.999Z</time></trkpt><trkpt lat="37.04595728620481" lon="15.034851728495727"><ele>398.3333333333333</ele><time>2026-04-19T16:02:57.999Z</time></trkpt><trkpt lat="37.04589426141597" lon="15.03495105007701"><ele>398.0</ele><time>2026-04-19T16:02:59.999Z</time></trkpt><trkpt lat="37.0458382539007" lon="15.035045363394621"><ele>396.66666666666663</ele><time>2026-04-19T16:03:01.999Z</time></trkpt><trkpt lat="37.045785403291994" lon="15.035129555458022"><ele>395.3333333333333</ele><time>2026-04-19T16:03:03.999Z</time></trkpt><trkpt lat="37.04572931493076" lon="15.035219429813052"><ele>394.0</ele><time>2026-04-19T16:03:05.999Z</time></trkpt><trkpt lat="37.04567459599491" lon="15.035306834668049"><ele>392.66666666666663</ele><time>2026-04-19T16:03:07.999Z</time></trkpt><trkpt lat="37.04562271028955" lon="15.035389065578139"><ele>391.3333333333333</ele><time>2026-04-19T16:03:09.999Z</time></trkpt><trkpt lat="37.04556830614643" lon="15.035472862509643"><ele>390.0</ele><time>2026-04-19T16:03:11.999Z</time></trkpt><trkpt lat="37.0455300566954" lon="15.035540198188489"><ele>390.0</ele><time>2026-04-19T16:03:13.999Z</time></trkpt><trkpt lat="37.0454859806031" lon="15.035599098443933"><ele>390.0</ele><time>2026-04-19T16:03:15.999Z</time></trkpt><trkpt lat="37.04543649541066" lon="15.03568325424485"><ele>390.0</ele><time>2026-04-19T16:03:17.999Z</time></trkpt><trkpt lat="37.04538567529206" lon="15.035762479579306"><ele>390.0</ele><time>2026-04-19T16:03:19.999Z</time></trkpt><trkpt lat="37.04533241823851" lon="15.035841841838266"><ele>390.0</ele><time>2026-04-19T16:03:21.999Z</time></trkpt><trkpt lat="37.04528456037415" lon="15.035913749788445"><ele>390.0</ele><time>2026-04-19T16:03:23.999Z</time></trkpt><trkpt lat="37.045234755618104" lon="15.035975240414299"><ele>389.8333333333333</ele><time>2026-04-19T16:03:25.999Z</time></trkpt><trkpt lat="37.04517859196265" lon="15.03605092603192"><ele>389.66666666666663</ele><time>2026-04-19T16:03:27.999Z</time></trkpt><trkpt lat="37.045113283362916" lon="15.036143115507864"><ele>389.5</ele><time>2026-04-19T16:03:29.999Z</time></trkpt><trkpt lat="37.04505336274919" lon="15.036226714596072"><ele>389.3333333333333</ele><time>2026-04-19T16:03:31.999Z</time></trkpt><trkpt lat="37.04499653722158" lon="15.036303354014667"><ele>389.16666666666663</ele><time>2026-04-19T16:03:33.999Z</time></trkpt><trkpt lat="37.04494935329487" lon="15.036368224785909"><ele>389.0</ele><time>2026-04-19T16:03:35.999Z</time></trkpt><trkpt lat="37.04489579140894" lon="15.036440601768506"><ele>387.99999999999994</ele><time>2026-04-19T16:03:37.999Z</time></trkpt><trkpt lat="37.04484604421099" lon="15.036521540785435"><ele>387.0</ele><time>2026-04-19T16:03:39.999Z</time></trkpt><trkpt lat="37.04480027244873" lon="15.03660552958725"><ele>386.0</ele><time>2026-04-19T16:03:41.999Z</time></trkpt><trkpt lat="37.044758085744604" lon="15.036693769635395"><ele>385.0</ele><time>2026-04-19T16:03:43.999Z</time></trkpt><trkpt lat="37.044717010118816" lon="15.036799372502895"><ele>384.0</ele><time>2026-04-19T16:03:45.999Z</time></trkpt><trkpt lat="37.04469958549226" lon="15.036917316966257"><ele>383.0</ele><time>2026-04-19T16:03:47.999Z</time></trkpt><trkpt lat="37.04470159572872" lon="15.03701460272203"><ele>383.0</ele><time>2026-04-19T16:03:49.999Z</time></trkpt><trkpt lat="37.04470275912267" lon="15.037103635368625"><ele>383.0</ele><time>2026-04-19T16:03:51.999Z</time></trkpt><trkpt lat="37.04471414205811" lon="15.03721572142787"><ele>383.0</ele><time>2026-04-19T16:03:55.999Z</time></trkpt><trkpt lat="37.04470874868012" lon="15.037299527355577"><ele>383.0</ele><time>2026-04-19T16:03:57.999Z</time></trkpt><trkpt lat="37.04467550094372" lon="15.037387423927019"><ele>383.0</ele><time>2026-04-19T16:03:59.999Z</time></trkpt><trkpt lat="37.044631285780454" lon="15.03748556425153"><ele>383.0</ele><time>2026-04-19T16:04:01.999Z</time></trkpt><trkpt lat="37.04459083122816" lon="15.037583601203096"><ele>382.6666666666667</ele><time>2026-04-19T16:04:03.999Z</time></trkpt><trkpt lat="37.0445579701738" lon="15.037666080870496"><ele>382.33333333333337</ele><time>2026-04-19T16:04:05.999Z</time></trkpt><trkpt lat="37.0445148986823" lon="15.0377337302709"><ele>382.0</ele><time>2026-04-19T16:04:07.999Z</time></trkpt><trkpt lat="37.0444817794546" lon="15.0378204689871"><ele>381.6666666666667</ele><time>2026-04-19T16:04:09.999Z</time></trkpt><trkpt lat="37.044441213672215" lon="15.037913107768732"><ele>381.3333333333333</ele><time>2026-04-19T16:04:11.999Z</time></trkpt><trkpt lat="37.04440353179883" lon="15.03801249568532"><ele>381.0</ele><time>2026-04-19T16:04:13.999Z</time></trkpt><trkpt lat="37.04436735521426" lon="15.038099645126685"><ele>381.0</ele><time>2026-04-19T16:04:15.999Z</time></trkpt><trkpt lat="37.04433337110243" lon="15.03818321284743"><ele>381.0</ele><time>2026-04-19T16:04:17.999Z</time></trkpt><trkpt lat="37.044307958513755" lon="15.038286604227606"><ele>381.0</ele><time>2026-04-19T16:04:20.999Z</time></trkpt><trkpt lat="37.0442687836987" lon="15.038371362149618"><ele>381.0</ele><time>2026-04-19T16:04:22.999Z</time></trkpt><trkpt lat="37.044225371177475" lon="15.038454707858735"><ele>381.0</ele><time>2026-04-19T16:04:24.999Z</time></trkpt><trkpt lat="37.044173205748706" lon="15.038585960861234"><ele>381.0</ele><time>2026-04-19T16:04:26.999Z</time></trkpt><trkpt lat="37.044143502463854" lon="15.03865817756543"><ele>380.5</ele><time>2026-04-19T16:04:27.999Z</time></trkpt><trkpt lat="37.04410478794223" lon="15.038743071159933"><ele>380.0</ele><time>2026-04-19T16:04:29.999Z</time></trkpt><trkpt lat="37.04407628159651" lon="15.038828257052419"><ele>379.5</ele><time>2026-04-19T16:04:32.999Z</time></trkpt><trkpt lat="37.044034302797535" lon="15.038913062909742"><ele>379.0</ele><time>2026-04-19T16:04:34.999Z</time></trkpt><trkpt lat="37.04398786218636" lon="15.039029557951963"><ele>378.5</ele><time>2026-04-19T16:04:36.999Z</time></trkpt><trkpt lat="37.04393743729145" lon="15.039152618886858"><ele>378.0</ele><time>2026-04-19T16:04:38.999Z</time></trkpt><trkpt lat="37.0438858739129" lon="15.039271267123087"><ele>377.8333333333333</ele><time>2026-04-19T16:04:40.999Z</time></trkpt><trkpt lat="37.04383082819947" lon="15.039408228361937"><ele>377.6666666666667</ele><time>2026-04-19T16:04:42.999Z</time></trkpt><trkpt lat="37.04380131534301" lon="15.039479525189433"><ele>377.5</ele><time>2026-04-19T16:04:43.999Z</time></trkpt><trkpt lat="37.04377202784222" lon="15.039552971886744"><ele>377.33333333333337</ele><time>2026-04-19T16:04:44.999Z</time></trkpt><trkpt lat="37.04374154390088" lon="15.039624527680047"><ele>377.1666666666667</ele><time>2026-04-19T16:04:45.999Z</time></trkpt><trkpt lat="37.04368434964397" lon="15.039746491674121"><ele>377.0</ele><time>2026-04-19T16:04:47.999Z</time></trkpt><trkpt lat="37.043643586504736" lon="15.039857471902161"><ele>377.0</ele><time>2026-04-19T16:04:49.999Z</time></trkpt><trkpt lat="37.04359967204435" lon="15.039957396938672"><ele>377.0</ele><time>2026-04-19T16:04:51.999Z</time></trkpt><trkpt lat="37.04355846973463" lon="15.040028369736387"><ele>377.0</ele><time>2026-04-19T16:04:53.999Z</time></trkpt><trkpt lat="37.04351471510142" lon="15.040130863302217"><ele>377.0</ele><time>2026-04-19T16:04:55.999Z</time></trkpt><trkpt lat="37.04346567792307" lon="15.0402301028714"><ele>377.0</ele><time>2026-04-19T16:04:57.999Z</time></trkpt><trkpt lat="37.043409691083355" lon="15.04035023496724"><ele>376.6</ele><time>2026-04-19T16:04:59.999Z</time></trkpt><trkpt lat="37.043351662195974" lon="15.040474144260909"><ele>376.20000000000005</ele><time>2026-04-19T16:05:01.999Z</time></trkpt><trkpt lat="37.043296310616334" lon="15.040589704094472"><ele>375.8</ele><time>2026-04-19T16:05:03.999Z</time></trkpt><trkpt lat="37.0432461173098" lon="15.040697551863671"><ele>375.4</ele><time>2026-04-19T16:05:05.999Z</time></trkpt><trkpt lat="37.04321330794437" lon="15.040767371416052"><ele>375.0</ele><time>2026-04-19T16:05:06.999Z</time></trkpt><trkpt lat="37.04316202314503" lon="15.040877079072521"><ele>374.6666666666667</ele><time>2026-04-19T16:05:08.999Z</time></trkpt><trkpt lat="37.04311851333187" lon="15.040974996079719"><ele>374.3333333333333</ele><time>2026-04-19T16:05:10.999Z</time></trkpt><trkpt lat="37.04307236219238" lon="15.04106762343954"><ele>374.0</ele><time>2026-04-19T16:05:12.999Z</time></trkpt><trkpt lat="37.043027496158075" lon="15.04116446649144"><ele>373.66666666666663</ele><time>2026-04-19T16:05:14.999Z</time></trkpt><trkpt lat="37.04299165132039" lon="15.04123945237529"><ele>373.3333333333333</ele><time>2026-04-19T16:05:16.999Z</time></trkpt><trkpt lat="37.04294983958484" lon="15.041328994477714"><ele>373.0</ele><time>2026-04-19T16:05:18.999Z</time></trkpt><trkpt lat="37.042900816305995" lon="15.041433911079626"><ele>373.0</ele><time>2026-04-19T16:05:20.999Z</time></trkpt><trkpt lat="37.042851101535014" lon="15.041541747481801"><ele>373.0</ele><time>2026-04-19T16:05:22.999Z</time></trkpt><trkpt lat="37.04280202445512" lon="15.041647365521978"><ele>373.0</ele><time>2026-04-19T16:05:24.999Z</time></trkpt><trkpt lat="37.042751663093895" lon="15.041776441207038"><ele>373.0</ele><time>2026-04-19T16:05:26.999Z</time></trkpt><trkpt lat="37.042710527046616" lon="15.041903573614823"><ele>373.0</ele><time>2026-04-19T16:05:28.999Z</time></trkpt><trkpt lat="37.04267273705532" lon="15.04202074216231"><ele>373.0</ele><time>2026-04-19T16:05:30.999Z</time></trkpt><trkpt lat="37.04263727913478" lon="15.042128447709564"><ele>373.0</ele><time>2026-04-19T16:05:32.999Z</time></trkpt><trkpt lat="37.04261189593907" lon="15.042221983625058"><ele>373.0</ele><time>2026-04-19T16:05:34.999Z</time></trkpt><trkpt lat="37.042586688472085" lon="15.042326675116042"><ele>373.0</ele><time>2026-04-19T16:05:36.999Z</time></trkpt><trkpt lat="37.042545612962314" lon="15.042432659121292"><ele>373.0</ele><time>2026-04-19T16:05:38.999Z</time></trkpt><trkpt lat="37.0425132999465" lon="15.042543068528394"><ele>373.0</ele><time>2026-04-19T16:05:40.999Z</time></trkpt><trkpt lat="37.042479340659106" lon="15.042639561737728"><ele>371.8333333333333</ele><time>2026-04-19T16:05:42.999Z</time></trkpt><trkpt lat="37.04245589854581" lon="15.042727501744956"><ele>370.66666666666663</ele><time>2026-04-19T16:05:44.999Z</time></trkpt><trkpt lat="37.04241401171536" lon="15.042830576723887"><ele>369.5</ele><time>2026-04-19T16:05:46.999Z</time></trkpt><trkpt lat="37.04238368015229" lon="15.042938326805798"><ele>368.3333333333333</ele><time>2026-04-19T16:05:48.999Z</time></trkpt><trkpt lat="37.04234538784585" lon="15.043016667701183"><ele>367.1666666666667</ele><time>2026-04-19T16:05:50.999Z</time></trkpt><trkpt lat="37.042309676548875" lon="15.043091969451265"><ele>366.0</ele><time>2026-04-19T16:05:52.999Z</time></trkpt><trkpt lat="37.04228547307817" lon="15.043175446928439"><ele>366.0</ele><time>2026-04-19T16:05:54.999Z</time></trkpt><trkpt lat="37.04226043046937" lon="15.04325323619507"><ele>366.0</ele><time>2026-04-19T16:05:56.999Z</time></trkpt><trkpt lat="37.04222883002248" lon="15.04333735403833"><ele>366.0</ele><time>2026-04-19T16:05:58.999Z</time></trkpt><trkpt lat="37.04219947778655" lon="15.043430782162647"><ele>366.0</ele><time>2026-04-19T16:06:01.999Z</time></trkpt><trkpt lat="37.042163154001166" lon="15.043541257583462"><ele>366.0</ele><time>2026-04-19T16:06:04.999Z</time></trkpt><trkpt lat="37.042129948877815" lon="15.043647216479924"><ele>366.0</ele><time>2026-04-19T16:06:07.999Z</time></trkpt><trkpt lat="37.04209681922583" lon="15.043750262552978"><ele>364.8333333333333</ele><time>2026-04-19T16:06:10.999Z</time></trkpt><trkpt lat="37.04206829470802" lon="15.043851293571457"><ele>363.6666666666667</ele><time>2026-04-19T16:06:13.999Z</time></trkpt><trkpt lat="37.042039991451034" lon="15.043928592194193"><ele>362.5</ele><time>2026-04-19T16:06:15.999Z</time></trkpt><trkpt lat="37.042002810364" lon="15.044038295634147"><ele>361.33333333333337</ele><time>2026-04-19T16:06:18.999Z</time></trkpt><trkpt lat="37.041966634122765" lon="15.04413261436548"><ele>360.1666666666667</ele><time>2026-04-19T16:06:21.999Z</time></trkpt><trkpt lat="37.041906767681716" lon="15.044224080396058"><ele>359.0</ele><time>2026-04-19T16:06:24.999Z</time></trkpt><trkpt lat="37.041849189552934" lon="15.044275140585649"><ele>357.14285714285717</ele><time>2026-04-19T16:06:26.999Z</time></trkpt><trkpt lat="37.04179047397645" lon="15.0443414901086"><ele>355.28571428571433</ele><time>2026-04-19T16:06:29.999Z</time></trkpt><trkpt lat="37.04171911126848" lon="15.044391001644788"><ele>353.42857142857144</ele><time>2026-04-19T16:06:33Z</time></trkpt><trkpt lat="37.04165488832988" lon="15.044434652117486"><ele>351.57142857142856</ele><time>2026-04-19T16:06:36Z</time></trkpt><trkpt lat="37.04159089939723" lon="15.044458513457448"><ele>349.7142857142857</ele><time>2026-04-19T16:06:39Z</time></trkpt><trkpt lat="37.041513381433475" lon="15.0444663620603"><ele>347.85714285714283</ele><time>2026-04-19T16:06:43Z</time></trkpt><trkpt lat="37.04145162609239" lon="15.044441888636287"><ele>346.0</ele><time>2026-04-19T16:06:59Z</time></trkpt><trkpt lat="37.04138629559287" lon="15.044410299942468"><ele>345.1428571428571</ele><time>2026-04-19T16:07:03Z</time></trkpt><trkpt lat="37.04134813692954" lon="15.044330326656432"><ele>344.28571428571433</ele><time>2026-04-19T16:07:08Z</time></trkpt><trkpt lat="37.04133874398409" lon="15.044244517449524"><ele>343.42857142857144</ele><time>2026-04-19T16:07:12Z</time></trkpt><trkpt lat="37.04133428723495" lon="15.044156952164098"><ele>342.57142857142856</ele><time>2026-04-19T16:07:16Z</time></trkpt><trkpt lat="37.04134988143966" lon="15.04407093209405"><ele>341.71428571428567</ele><time>2026-04-19T16:07:20Z</time></trkpt><trkpt lat="37.04136325211401" lon="15.043988953788869"><ele>340.8571428571429</ele><time>2026-04-19T16:07:24Z</time></trkpt><trkpt lat="37.04137458257904" lon="15.043910858311278"><ele>340.0</ele><time>2026-04-19T16:07:28Z</time></trkpt><trkpt lat="37.041366208682945" lon="15.04381654140019"><ele>340.0</ele><time>2026-04-19T16:07:33Z</time></trkpt><trkpt lat="37.04134284416443" lon="15.04373841588489"><ele>340.0</ele><time>2026-04-19T16:07:38Z</time></trkpt><trkpt lat="37.041302985880826" lon="15.043673634312482"><ele>340.0</ele><time>2026-04-19T16:07:43Z</time></trkpt><trkpt lat="37.04123994623012" lon="15.043636036328754"><ele>340.0</ele><time>2026-04-19T16:07:48Z</time></trkpt><trkpt lat="37.04117282040148" lon="15.043638105861074"><ele>340.0</ele><time>2026-04-19T16:07:52Z</time></trkpt><trkpt lat="37.04113898896844" lon="15.04370977765161"><ele>340.0</ele><time>2026-04-19T16:08:04Z</time></trkpt><trkpt lat="37.041138683049496" lon="15.043809490750231"><ele>340.0</ele><time>2026-04-19T16:08:08Z</time></trkpt><trkpt lat="37.04114582933973" lon="15.043906460297013"><ele>340.0</ele><time>2026-04-19T16:08:11Z</time></trkpt><trkpt lat="37.0410830813571" lon="15.043943490120927"><ele>340.0</ele><time>2026-04-19T16:08:15Z</time></trkpt><trkpt lat="37.041036463904945" lon="15.043878456988827"><ele>340.0</ele><time>2026-04-19T16:08:19Z</time></trkpt><trkpt lat="37.041016309211756" lon="15.043789404986002"><ele>340.0</ele><time>2026-04-19T16:08:22Z</time></trkpt><trkpt lat="37.040981726165235" lon="15.043707890440434"><ele>340.0</ele><time>2026-04-19T16:08:25Z</time></trkpt><trkpt lat="37.04091312409866" lon="15.04367876928171"><ele>340.0</ele><time>2026-04-19T16:08:29Z</time></trkpt><trkpt lat="37.04084297834909" lon="15.04370373649042"><ele>340.0</ele><time>2026-04-19T16:10:56.001Z</time></trkpt><trkpt lat="37.040777402555044" lon="15.04376187839866"><ele>346.3333333333333</ele><time>2026-04-19T16:10:58.001Z</time></trkpt><trkpt lat="37.0407247218218" lon="15.04385963313058"><ele>352.66666666666663</ele><time>2026-04-19T16:11:00.001Z</time></trkpt><trkpt lat="37.040652144004625" lon="15.043882787005941"><ele>359.0</ele><time>2026-04-19T16:11:50Z</time></trkpt><trkpt lat="37.04061547111743" lon="15.043782948725354"><ele>365.3333333333333</ele><time>2026-04-19T16:11:53Z</time></trkpt><trkpt lat="37.040590407643" lon="15.043673625537211"><ele>371.6666666666667</ele><time>2026-04-19T16:11:56Z</time></trkpt><trkpt lat="37.04053549689354" lon="15.043617246699318"><ele>378.0</ele><time>2026-04-19T16:11:59Z</time></trkpt><trkpt lat="37.040513766427985" lon="15.043711945864041"><ele>378.0</ele><time>2026-04-19T16:12:03Z</time></trkpt><trkpt lat="37.040565121715694" lon="15.043788594924484"><ele>378.0</ele><time>2026-04-19T16:12:05Z</time></trkpt><trkpt lat="37.04060994929859" lon="15.043908735503074"><ele>378.0</ele><time>2026-04-19T16:12:07Z</time></trkpt><trkpt lat="37.04063918634854" lon="15.044023682491499"><ele>378.0</ele><time>2026-04-19T16:12:09Z</time></trkpt><trkpt lat="37.04065218686614" lon="15.044129097917889"><ele>378.0</ele><time>2026-04-19T16:12:11Z</time></trkpt><trkpt lat="37.040646143914465" lon="15.044226163467807"><ele>378.0</ele><time>2026-04-19T16:12:13Z</time></trkpt><trkpt lat="37.040622772794265" lon="15.044334692624686"><ele>378.2</ele><time>2026-04-19T16:12:15Z</time></trkpt><trkpt lat="37.04060697827147" lon="15.044453150212899"><ele>378.4</ele><time>2026-04-19T16:12:17Z</time></trkpt><trkpt lat="37.04060561748997" lon="15.044583501862007"><ele>378.59999999999997</ele><time>2026-04-19T16:12:19Z</time></trkpt><trkpt lat="37.040621726202396" lon="15.044698920415513"><ele>378.79999999999995</ele><time>2026-04-19T16:12:21Z</time></trkpt><trkpt lat="37.04066564374869" lon="15.044815724429638"><ele>379.0</ele><time>2026-04-19T16:12:23Z</time></trkpt><trkpt lat="37.04071654603742" lon="15.044937472956011"><ele>378.0</ele><time>2026-04-19T16:12:25Z</time></trkpt><trkpt lat="37.040730296222655" lon="15.045041654456353"><ele>377.0</ele><time>2026-04-19T16:12:27Z</time></trkpt><trkpt lat="37.040713718574644" lon="15.045141014889806"><ele>376.0</ele><time>2026-04-19T16:12:29Z</time></trkpt><trkpt lat="37.04070327727834" lon="15.045227515074702"><ele>375.0</ele><time>2026-04-19T16:12:31Z</time></trkpt><trkpt lat="37.04067317715668" lon="15.045300780180712"><ele>374.0</ele><time>2026-04-19T16:12:33Z</time></trkpt><trkpt lat="37.0406004012373" lon="15.045295030434175"><ele>373.0</ele><time>2026-04-19T16:12:45Z</time></trkpt><trkpt lat="37.04055652356956" lon="15.045188525335641"><ele>373.0</ele><time>2026-04-19T16:12:47Z</time></trkpt><trkpt lat="37.04049406827527" lon="15.045080421127775"><ele>373.0</ele><time>2026-04-19T16:12:49Z</time></trkpt><trkpt lat="37.04045292795117" lon="15.044981552809165"><ele>373.0</ele><time>2026-04-19T16:12:51.001Z</time></trkpt><trkpt lat="37.040429087716895" lon="15.044861912682588"><ele>373.0</ele><time>2026-04-19T16:12:53.001Z</time></trkpt><trkpt lat="37.040410593951975" lon="15.044777615275938"><ele>373.0</ele><time>2026-04-19T16:12:55.001Z</time></trkpt><trkpt lat="37.0403401932899" lon="15.044800688867348"><ele>373.0</ele><time>2026-04-19T16:13:18Z</time></trkpt><trkpt lat="37.04031089818025" lon="15.044884648974103"><ele>373.0</ele><time>2026-04-19T16:13:21Z</time></trkpt><trkpt lat="37.040297370682445" lon="15.044977760276156"><ele>373.0</ele><time>2026-04-19T16:13:23Z</time></trkpt><trkpt lat="37.04028424064477" lon="15.04510457125827"><ele>373.0</ele><time>2026-04-19T16:13:25Z</time></trkpt><trkpt lat="37.0402779709128" lon="15.045239097671422"><ele>373.0</ele><time>2026-04-19T16:13:27Z</time></trkpt><trkpt lat="37.04027505291443" lon="15.04535903412644"><ele>373.0</ele><time>2026-04-19T16:13:29Z</time></trkpt><trkpt lat="37.04028141077198" lon="15.045468583052237"><ele>373.0</ele><time>2026-04-19T16:13:31Z</time></trkpt><trkpt lat="37.04029602216133" lon="15.045571211299688"><ele>373.0</ele><time>2026-04-19T16:13:33Z</time></trkpt><trkpt lat="37.04032722095411" lon="15.045685672122296"><ele>373.0</ele><time>2026-04-19T16:13:35Z</time></trkpt><trkpt lat="37.04035450810868" lon="15.045813382044038"><ele>373.0</ele><time>2026-04-19T16:13:37Z</time></trkpt><trkpt lat="37.040373712027694" lon="15.045959257623027"><ele>373.0</ele><time>2026-04-19T16:13:39Z</time></trkpt><trkpt lat="37.04038762567484" lon="15.04609498814175"><ele>373.0</ele><time>2026-04-19T16:13:41Z</time></trkpt><trkpt lat="37.040401566220744" lon="15.046236911389574"><ele>373.0</ele><time>2026-04-19T16:13:43Z</time></trkpt><trkpt lat="37.04041767707331" lon="15.046445088731566"><ele>373.0</ele><time>2026-04-19T16:13:45Z</time></trkpt><trkpt lat="37.040423795418036" lon="15.046531693629799"><ele>373.0</ele><time>2026-04-19T16:13:46Z</time></trkpt><trkpt lat="37.040420308068605" lon="15.04661320585327"><ele>373.0</ele><time>2026-04-19T16:13:47Z</time></trkpt><trkpt lat="37.04041111331684" lon="15.046701320117274"><ele>373.0</ele><time>2026-04-19T16:13:48Z</time></trkpt><trkpt lat="37.04039429395158" lon="15.046793145711508"><ele>373.0</ele><time>2026-04-19T16:13:49Z</time></trkpt><trkpt lat="37.04037246792717" lon="15.046891542671629"><ele>373.0</ele><time>2026-04-19T16:13:50Z</time></trkpt><trkpt lat="37.04033541580099" lon="15.047003360961936"><ele>373.0</ele><time>2026-04-19T16:13:51Z</time></trkpt><trkpt lat="37.04029212977021" lon="15.047112911377392"><ele>373.0</ele><time>2026-04-19T16:13:52Z</time></trkpt><trkpt lat="37.04024688145897" lon="15.047231851439884"><ele>373.0</ele><time>2026-04-19T16:13:53Z</time></trkpt><trkpt lat="37.04020732026757" lon="15.047352772044585"><ele>373.0</ele><time>2026-04-19T16:13:54Z</time></trkpt><trkpt lat="37.0401651547012" lon="15.047468261766879"><ele>373.0</ele><time>2026-04-19T16:13:55Z</time></trkpt><trkpt lat="37.040119405643765" lon="15.047584967348621"><ele>373.0</ele><time>2026-04-19T16:13:56Z</time></trkpt><trkpt lat="37.04007335463342" lon="15.047702114624649"><ele>373.0</ele><time>2026-04-19T16:13:57Z</time></trkpt><trkpt lat="37.040030412662134" lon="15.047818828118587"><ele>372.2</ele><time>2026-04-19T16:13:58Z</time></trkpt><trkpt lat="37.0399940147991" lon="15.04794326020758"><ele>371.4</ele><time>2026-04-19T16:13:59Z</time></trkpt><trkpt lat="37.0399643644047" lon="15.04806757896504"><ele>370.59999999999997</ele><time>2026-04-19T16:14:00Z</time></trkpt><trkpt lat="37.03994537957706" lon="15.048173350102577"><ele>369.79999999999995</ele><time>2026-04-19T16:14:01Z</time></trkpt><trkpt lat="37.03993567497661" lon="15.04827627809116"><ele>369.0</ele><time>2026-04-19T16:14:02Z</time></trkpt><trkpt lat="37.03992009116043" lon="15.048378998535874"><ele>371.0</ele><time>2026-04-19T16:14:03Z</time></trkpt><trkpt lat="37.03989596821776" lon="15.048478999220938"><ele>373.0</ele><time>2026-04-19T16:14:04Z</time></trkpt><trkpt lat="37.03986796339804" lon="15.0485831812785"><ele>375.0</ele><time>2026-04-19T16:14:05Z</time></trkpt><trkpt lat="37.039847382117834" lon="15.048687673348757"><ele>377.0</ele><time>2026-04-19T16:14:06Z</time></trkpt><trkpt lat="37.03983534434934" lon="15.048777819825602"><ele>379.0</ele><time>2026-04-19T16:14:07Z</time></trkpt><trkpt lat="37.0398260458171" lon="15.048865675511198"><ele>381.0</ele><time>2026-04-19T16:14:08Z</time></trkpt><trkpt lat="37.039826119044875" lon="15.048947354298244"><ele>381.0</ele><time>2026-04-19T16:14:09Z</time></trkpt><trkpt lat="37.03982761192481" lon="15.049032796952424"><ele>381.0</ele><time>2026-04-19T16:14:10Z</time></trkpt><trkpt lat="37.03982788119739" lon="15.049118184109728"><ele>381.0</ele><time>2026-04-19T16:14:11Z</time></trkpt><trkpt lat="37.03982418519383" lon="15.049215105677094"><ele>381.0</ele><time>2026-04-19T16:14:12Z</time></trkpt><trkpt lat="37.039821752498064" lon="15.049313182632233"><ele>381.0</ele><time>2026-04-19T16:14:13Z</time></trkpt><trkpt lat="37.03981965226611" lon="15.049409333177126"><ele>381.0</ele><time>2026-04-19T16:14:14Z</time></trkpt><trkpt lat="37.039811334708" lon="15.049509082896229"><ele>381.0</ele><time>2026-04-19T16:14:15Z</time></trkpt><trkpt lat="37.039802139577276" lon="15.049608414936351"><ele>380.2857142857143</ele><time>2026-04-19T16:14:16Z</time></trkpt><trkpt lat="37.03979090425174" lon="15.049695257880963"><ele>379.5714285714286</ele><time>2026-04-19T16:14:17Z</time></trkpt><trkpt lat="37.03977352333392" lon="15.049776850649849"><ele>378.8571428571429</ele><time>2026-04-19T16:14:18Z</time></trkpt><trkpt lat="37.03975238214585" lon="15.049854216062288"><ele>378.1428571428571</ele><time>2026-04-19T16:14:19Z</time></trkpt><trkpt lat="37.039719862988385" lon="15.049932448357552"><ele>377.42857142857144</ele><time>2026-04-19T16:14:20Z</time></trkpt><trkpt lat="37.039684606482794" lon="15.050004506844672"><ele>376.7142857142857</ele><time>2026-04-19T16:14:21Z</time></trkpt><trkpt lat="37.039649016298426" lon="15.050080002819543"><ele>376.0</ele><time>2026-04-19T16:14:22Z</time></trkpt><trkpt lat="37.03961332809591" lon="15.050152269803043"><ele>375.20000000000005</ele><time>2026-04-19T16:14:23Z</time></trkpt><trkpt lat="37.03957835216665" lon="15.050229996232085"><ele>374.40000000000003</ele><time>2026-04-19T16:14:24Z</time></trkpt><trkpt lat="37.03951835301196" lon="15.050334318713057"><ele>373.6</ele><time>2026-04-19T16:14:26Z</time></trkpt><trkpt lat="37.03947910554774" lon="15.050402545447438"><ele>372.8</ele><time>2026-04-19T16:14:29Z</time></trkpt><trkpt lat="37.03943336072811" lon="15.050501271868704"><ele>372.0</ele><time>2026-04-19T16:16:08Z</time></trkpt><trkpt lat="37.03931930795766" lon="15.0505758183044"><ele>372.0</ele><time>2026-04-19T16:16:10Z</time></trkpt><trkpt lat="37.039256187045474" lon="15.0506175472219"><ele>372.0</ele><time>2026-04-19T16:16:11Z</time></trkpt><trkpt lat="37.03918414564933" lon="15.05068912404406"><ele>372.0</ele><time>2026-04-19T16:16:12Z</time></trkpt><trkpt lat="37.039116681680376" lon="15.050786551868391"><ele>372.0</ele><time>2026-04-19T16:16:13Z</time></trkpt><trkpt lat="37.03905433236327" lon="15.05091206879386"><ele>372.0</ele><time>2026-04-19T16:16:14Z</time></trkpt><trkpt lat="37.03900386315285" lon="15.051035629880873"><ele>372.40000000000003</ele><time>2026-04-19T16:16:15Z</time></trkpt><trkpt lat="37.038962058253084" lon="15.051144186338556"><ele>372.8</ele><time>2026-04-19T16:16:16Z</time></trkpt><trkpt lat="37.03891329848675" lon="15.051253167727001"><ele>373.2</ele><time>2026-04-19T16:16:17Z</time></trkpt><trkpt lat="37.038861279766984" lon="15.051365414809794"><ele>373.6</ele><time>2026-04-19T16:16:18Z</time></trkpt><trkpt lat="37.03880796992605" lon="15.051494857339131"><ele>374.0</ele><time>2026-04-19T16:16:19Z</time></trkpt><trkpt lat="37.03875542165432" lon="15.051626887615043"><ele>374.0</ele><time>2026-04-19T16:16:20Z</time></trkpt><trkpt lat="37.038703288733146" lon="15.051745541104966"><ele>374.0</ele><time>2026-04-19T16:16:21Z</time></trkpt><trkpt lat="37.038655498927724" lon="15.051852918276463"><ele>374.0</ele><time>2026-04-19T16:16:22Z</time></trkpt><trkpt lat="37.0386143113369" lon="15.051952875742689"><ele>374.0</ele><time>2026-04-19T16:16:23Z</time></trkpt><trkpt lat="37.0385774195133" lon="15.052053251096272"><ele>374.0</ele><time>2026-04-19T16:16:24Z</time></trkpt><trkpt lat="37.03854365899533" lon="15.052148925404941"><ele>374.0</ele><time>2026-04-19T16:16:25Z</time></trkpt><trkpt lat="37.03850637923715" lon="15.05224067196459"><ele>374.0</ele><time>2026-04-19T16:16:26Z</time></trkpt><trkpt lat="37.03847241752615" lon="15.052324428215616"><ele>374.0</ele><time>2026-04-19T16:16:27Z</time></trkpt><trkpt lat="37.0384416243162" lon="15.052399176983375"><ele>374.0</ele><time>2026-04-19T16:16:28Z</time></trkpt><trkpt lat="37.038396960942215" lon="15.052524410117723"><ele>374.0</ele><time>2026-04-19T16:16:30Z</time></trkpt><trkpt lat="37.03836542820448" lon="15.052607274366357"><ele>374.0</ele><time>2026-04-19T16:16:33Z</time></trkpt><trkpt lat="37.03835320012925" lon="15.052691363588528"><ele>374.0</ele><time>2026-04-19T16:16:37Z</time></trkpt><trkpt lat="37.03842242942327" lon="15.052691146508806"><ele>374.0</ele><time>2026-04-19T16:16:40.999Z</time></trkpt><trkpt lat="37.03843832328909" lon="15.052576559142702"><ele>374.0</ele><time>2026-04-19T16:16:42.999Z</time></trkpt><trkpt lat="37.03843426735057" lon="15.05248895638567"><ele>374.0</ele><time>2026-04-19T16:16:43.999Z</time></trkpt><trkpt lat="37.03852964113204" lon="15.05224803986939"><ele>374.0</ele><time>2026-04-19T16:16:45.999Z</time></trkpt><trkpt lat="37.03855641312949" lon="15.052137896510159"><ele>374.0</ele><time>2026-04-19T16:16:46.999Z</time></trkpt><trkpt lat="37.03859601881066" lon="15.052032376587235"><ele>374.0</ele><time>2026-04-19T16:16:47.999Z</time></trkpt><trkpt lat="37.038634665282636" lon="15.051951062057311"><ele>374.0</ele><time>2026-04-19T16:16:48.999Z</time></trkpt><trkpt lat="37.038667766244465" lon="15.051880883332261"><ele>374.0</ele><time>2026-04-19T16:16:49.999Z</time></trkpt><trkpt lat="37.038720497089855" lon="15.051759581861598"><ele>374.0</ele><time>2026-04-19T16:16:51.999Z</time></trkpt><trkpt lat="37.03877228727843" lon="15.051661219998033"><ele>374.0</ele><time>2026-04-19T16:16:53.999Z</time></trkpt><trkpt lat="37.03880137142335" lon="15.051564147188717"><ele>375.2</ele><time>2026-04-19T16:16:55.999Z</time></trkpt><trkpt lat="37.038851751784016" lon="15.051450157350386"><ele>376.4</ele><time>2026-04-19T16:16:57.999Z</time></trkpt><trkpt lat="37.03890737580216" lon="15.051315607505"><ele>377.6</ele><time>2026-04-19T16:16:59.999Z</time></trkpt><trkpt lat="37.03897111922636" lon="15.051184944441879"><ele>378.8</ele><time>2026-04-19T16:17:02Z</time></trkpt><trkpt lat="37.039020563574574" lon="15.051074810492903"><ele>380.0</ele><time>2026-04-19T16:17:04Z</time></trkpt><trkpt lat="37.0390565116956" lon="15.050972050311497"><ele>380.0</ele><time>2026-04-19T16:17:06Z</time></trkpt><trkpt lat="37.03910505689686" lon="15.050878541407268"><ele>380.0</ele><time>2026-04-19T16:17:08Z</time></trkpt><trkpt lat="37.03916208094756" lon="15.050774496447767"><ele>380.0</ele><time>2026-04-19T16:17:10Z</time></trkpt><trkpt lat="37.039238288199996" lon="15.050680513003414"><ele>380.0</ele><time>2026-04-19T16:17:12Z</time></trkpt><trkpt lat="37.03932589152339" lon="15.050590235016536"><ele>380.0</ele><time>2026-04-19T16:17:14Z</time></trkpt><trkpt lat="37.03941901022664" lon="15.050537818120743"><ele>378.6666666666667</ele><time>2026-04-19T16:17:16Z</time></trkpt><trkpt lat="37.03948142526684" lon="15.050500425629027"><ele>377.33333333333337</ele><time>2026-04-19T16:17:18Z</time></trkpt><trkpt lat="37.03948345481375" lon="15.050398193669603"><ele>376.0</ele><time>2026-04-19T16:17:21Z</time></trkpt><trkpt lat="37.039410177423996" lon="15.050471245934537"><ele>374.6666666666667</ele><time>2026-04-19T16:17:36Z</time></trkpt><trkpt lat="37.03934378872481" lon="15.050540734327626"><ele>373.3333333333333</ele><time>2026-04-19T16:17:37Z</time></trkpt><trkpt lat="37.039271996734236" lon="15.050600371398632"><ele>372.0</ele><time>2026-04-19T16:17:38Z</time></trkpt><trkpt lat="37.039191173488945" lon="15.050676355104914"><ele>373.6</ele><time>2026-04-19T16:17:39Z</time></trkpt><trkpt lat="37.039132958313644" lon="15.05075909836145"><ele>375.20000000000005</ele><time>2026-04-19T16:17:40Z</time></trkpt><trkpt lat="37.039083051353316" lon="15.050850212311829"><ele>376.8</ele><time>2026-04-19T16:17:41Z</time></trkpt><trkpt lat="37.03902843010296" lon="15.050951171417115"><ele>378.4</ele><time>2026-04-19T16:17:42Z</time></trkpt><trkpt lat="37.03897790528981" lon="15.051065757939437"><ele>380.0</ele><time>2026-04-19T16:17:43Z</time></trkpt><trkpt lat="37.038932469003825" lon="15.051180714543115"><ele>380.0</ele><time>2026-04-19T16:17:44Z</time></trkpt><trkpt lat="37.038889253947346" lon="15.051279937216483"><ele>380.0</ele><time>2026-04-19T16:17:45Z</time></trkpt><trkpt lat="37.03884901843183" lon="15.051373343297033"><ele>380.0</ele><time>2026-04-19T16:17:46Z</time></trkpt><trkpt lat="37.03880984214289" lon="15.051468349621299"><ele>380.0</ele><time>2026-04-19T16:17:47Z</time></trkpt><trkpt lat="37.038767949795705" lon="15.05156559396957"><ele>380.0</ele><time>2026-04-19T16:17:48Z</time></trkpt><trkpt lat="37.038724316602966" lon="15.051661684312018"><ele>380.0</ele><time>2026-04-19T16:17:49Z</time></trkpt><trkpt lat="37.03868315967231" lon="15.051761276594219"><ele>378.8</ele><time>2026-04-19T16:17:50Z</time></trkpt><trkpt lat="37.03864074131527" lon="15.051862911056958"><ele>377.6</ele><time>2026-04-19T16:17:51Z</time></trkpt><trkpt lat="37.0385970448904" lon="15.051965886928"><ele>376.4</ele><time>2026-04-19T16:17:52Z</time></trkpt><trkpt lat="37.03855806200731" lon="15.052075090534524"><ele>375.2</ele><time>2026-04-19T16:17:53Z</time></trkpt><trkpt lat="37.0385201676312" lon="15.05218790318495"><ele>374.0</ele><time>2026-04-19T16:17:54Z</time></trkpt><trkpt lat="37.03848009031452" lon="15.052303835414886"><ele>374.0</ele><time>2026-04-19T16:17:55Z</time></trkpt><trkpt lat="37.0384392214374" lon="15.052431775983468"><ele>374.0</ele><time>2026-04-19T16:17:56Z</time></trkpt><trkpt lat="37.038394610455704" lon="15.052565737594225"><ele>374.0</ele><time>2026-04-19T16:17:57Z</time></trkpt><trkpt lat="37.03834652474142" lon="15.052697513210877"><ele>374.0</ele><time>2026-04-19T16:17:58Z</time></trkpt><trkpt lat="37.03829529462293" lon="15.052831882107574"><ele>375.5</ele><time>2026-04-19T16:17:59Z</time></trkpt><trkpt lat="37.03824200068362" lon="15.052971554880216"><ele>377.0</ele><time>2026-04-19T16:18:00Z</time></trkpt><trkpt lat="37.038177235651524" lon="15.053110233817629"><ele>378.5</ele><time>2026-04-19T16:18:01Z</time></trkpt><trkpt lat="37.0381065223334" lon="15.053246777504496"><ele>380.0</ele><time>2026-04-19T16:18:02Z</time></trkpt><trkpt lat="37.03803283166945" lon="15.053384963095581"><ele>380.0</ele><time>2026-04-19T16:18:03Z</time></trkpt><trkpt lat="37.037960560610706" lon="15.053520843399907"><ele>380.0</ele><time>2026-04-19T16:18:04Z</time></trkpt><trkpt lat="37.03788529556349" lon="15.053652039181513"><ele>380.0</ele><time>2026-04-19T16:18:05Z</time></trkpt><trkpt lat="37.03780898729408" lon="15.053779701123238"><ele>380.0</ele><time>2026-04-19T16:18:06Z</time></trkpt><trkpt lat="37.03773404589652" lon="15.053907156577015"><ele>380.0</ele><time>2026-04-19T16:18:07Z</time></trkpt><trkpt lat="37.03766212907501" lon="15.054033209807418"><ele>380.0</ele><time>2026-04-19T16:18:08Z</time></trkpt><trkpt lat="37.03759327970913" lon="15.054158215988224"><ele>380.0</ele><time>2026-04-19T16:18:09Z</time></trkpt><trkpt lat="37.03752778063923" lon="15.054286171935017"><ele>380.0</ele><time>2026-04-19T16:18:10Z</time></trkpt><trkpt lat="37.037465858418784" lon="15.054416188879875"><ele>383.25</ele><time>2026-04-19T16:18:11Z</time></trkpt><trkpt lat="37.037404252990086" lon="15.054546082838867"><ele>386.5</ele><time>2026-04-19T16:18:12Z</time></trkpt><trkpt lat="37.0373385546204" lon="15.054671513288167"><ele>389.75</ele><time>2026-04-19T16:18:13Z</time></trkpt><trkpt lat="37.037271472813984" lon="15.054794365994965"><ele>393.0</ele><time>2026-04-19T16:18:14Z</time></trkpt><trkpt lat="37.03720507454913" lon="15.054917899558664"><ele>391.0</ele><time>2026-04-19T16:18:15Z</time></trkpt><trkpt lat="37.03713950757536" lon="15.055042097945266"><ele>389.0</ele><time>2026-04-19T16:18:16Z</time></trkpt><trkpt lat="37.03707605393445" lon="15.055167022447229"><ele>387.0</ele><time>2026-04-19T16:18:17Z</time></trkpt><trkpt lat="37.037013167045686" lon="15.055290184622667"><ele>385.0</ele><time>2026-04-19T16:18:18Z</time></trkpt><trkpt lat="37.03694877020997" lon="15.055414597028966"><ele>385.0</ele><time>2026-04-19T16:18:19Z</time></trkpt><trkpt lat="37.03688789788496" lon="15.055537329419002"><ele>385.0</ele><time>2026-04-19T16:18:20Z</time></trkpt><trkpt lat="37.036829400046884" lon="15.055661251378165"><ele>385.0</ele><time>2026-04-19T16:18:21Z</time></trkpt><trkpt lat="37.03677853046722" lon="15.05577760263485"><ele>385.0</ele><time>2026-04-19T16:18:22Z</time></trkpt><trkpt lat="37.03673550306264" lon="15.05588751906787"><ele>385.0</ele><time>2026-04-19T16:18:22.999Z</time></trkpt><trkpt lat="37.03669656825918" lon="15.05599286329124"><ele>384.50000000000006</ele><time>2026-04-19T16:18:23.999Z</time></trkpt><trkpt lat="37.036662771219646" lon="15.056097028532655"><ele>384.0</ele><time>2026-04-19T16:18:24.999Z</time></trkpt><trkpt lat="37.03663187224406" lon="15.056190737914562"><ele>383.5</ele><time>2026-04-19T16:18:25.999Z</time></trkpt><trkpt lat="37.036599549880115" lon="15.05629213889819"><ele>383.0</ele><time>2026-04-19T16:18:26.999Z</time></trkpt><trkpt lat="37.03656605871325" lon="15.056399225378788"><ele>382.5</ele><time>2026-04-19T16:18:27.999Z</time></trkpt><trkpt lat="37.0365292572928" lon="15.056504608500012"><ele>382.0</ele><time>2026-04-19T16:18:28.999Z</time></trkpt><trkpt lat="37.03649143239091" lon="15.056607319404572"><ele>382.0</ele><time>2026-04-19T16:18:29.999Z</time></trkpt><trkpt lat="37.03645632245391" lon="15.056706441293255"><ele>382.0</ele><time>2026-04-19T16:18:30.999Z</time></trkpt><trkpt lat="37.036415202414034" lon="15.056796580805653"><ele>382.0</ele><time>2026-04-19T16:18:31.999Z</time></trkpt><trkpt lat="37.036370384146835" lon="15.056869442763764"><ele>382.0</ele><time>2026-04-19T16:18:32.999Z</time></trkpt><trkpt lat="37.03632834368123" lon="15.056935457749047"><ele>382.0</ele><time>2026-04-19T16:18:33.999Z</time></trkpt><trkpt lat="37.03628610423294" lon="15.056994555432015"><ele>382.0</ele><time>2026-04-19T16:18:34.999Z</time></trkpt><trkpt lat="37.03620680470841" lon="15.057105731420721"><ele>382.0</ele><time>2026-04-19T16:18:36.999Z</time></trkpt><trkpt lat="37.03613508547933" lon="15.05722957222003"><ele>382.0</ele><time>2026-04-19T16:18:38.999Z</time></trkpt><trkpt lat="37.03609819782259" lon="15.057297240299224"><ele>382.0</ele><time>2026-04-19T16:18:39.999Z</time></trkpt><trkpt lat="37.03606129053986" lon="15.05736992031944"><ele>382.0</ele><time>2026-04-19T16:18:40.999Z</time></trkpt><trkpt lat="37.036022156295395" lon="15.057461429731317"><ele>382.0</ele><time>2026-04-19T16:18:41.999Z</time></trkpt><trkpt lat="37.03598389469896" lon="15.05756701315852"><ele>382.0</ele><time>2026-04-19T16:18:42.999Z</time></trkpt><trkpt lat="37.03594860194178" lon="15.057673355488843"><ele>380.6</ele><time>2026-04-19T16:18:43.999Z</time></trkpt><trkpt lat="37.03591187244454" lon="15.057785043083323"><ele>379.20000000000005</ele><time>2026-04-19T16:18:44.999Z</time></trkpt><trkpt lat="37.03587594071618" lon="15.057899034662116"><ele>377.8</ele><time>2026-04-19T16:18:45.999Z</time></trkpt><trkpt lat="37.03584664146339" lon="15.058012581805157"><ele>376.4</ele><time>2026-04-19T16:18:46.999Z</time></trkpt><trkpt lat="37.035810934214204" lon="15.058130880785043"><ele>375.0</ele><time>2026-04-19T16:18:47.999Z</time></trkpt><trkpt lat="37.035770880671045" lon="15.058259821315902"><ele>376.25</ele><time>2026-04-19T16:18:48.999Z</time></trkpt><trkpt lat="37.035730623902644" lon="15.058397059425431"><ele>377.5</ele><time>2026-04-19T16:18:49.999Z</time></trkpt><trkpt lat="37.03569188324713" lon="15.058539003279293"><ele>378.75</ele><time>2026-04-19T16:18:50.999Z</time></trkpt><trkpt lat="37.03565090028699" lon="15.058673897288779"><ele>380.0</ele><time>2026-04-19T16:18:51.999Z</time></trkpt><trkpt lat="37.035608869547275" lon="15.058802789003012"><ele>380.0</ele><time>2026-04-19T16:18:52.999Z</time></trkpt><trkpt lat="37.03557384179974" lon="15.05890939518307"><ele>380.0</ele><time>2026-04-19T16:18:53.999Z</time></trkpt><trkpt lat="37.035545796375416" lon="15.0589936483222"><ele>380.0</ele><time>2026-04-19T16:18:54.999Z</time></trkpt><trkpt lat="37.03550848983543" lon="15.059105279418576"><ele>380.0</ele><time>2026-04-19T16:18:56.999Z</time></trkpt><trkpt lat="37.03546175109444" lon="15.059229203374889"><ele>380.0</ele><time>2026-04-19T16:18:58.999Z</time></trkpt><trkpt lat="37.035408898190724" lon="15.059364004995315"><ele>379.14285714285717</ele><time>2026-04-19T16:19:00.999Z</time></trkpt><trkpt lat="37.035391918380576" lon="15.059442776231181"><ele>378.28571428571433</ele><time>2026-04-19T16:19:01.999Z</time></trkpt><trkpt lat="37.035372679677934" lon="15.059520575029286"><ele>377.42857142857144</ele><time>2026-04-19T16:19:02.999Z</time></trkpt><trkpt lat="37.035348770543585" lon="15.059603668148373"><ele>376.57142857142856</ele><time>2026-04-19T16:19:03.999Z</time></trkpt><trkpt lat="37.035327141682636" lon="15.05968888588555"><ele>375.7142857142857</ele><time>2026-04-19T16:19:04.999Z</time></trkpt><trkpt lat="37.035301934210324" lon="15.059774342177363"><ele>374.85714285714283</ele><time>2026-04-19T16:19:05.999Z</time></trkpt><trkpt lat="37.03527287813532" lon="15.05984642122284"><ele>374.0</ele><time>2026-04-19T16:19:06.999Z</time></trkpt><trkpt lat="37.03522693866232" lon="15.05996048696632"><ele>373.0</ele><time>2026-04-19T16:19:09Z</time></trkpt><trkpt lat="37.035204374523616" lon="15.060061894686134"><ele>372.0</ele><time>2026-04-19T16:19:11Z</time></trkpt><trkpt lat="37.035194731447184" lon="15.060145651942248"><ele>371.0</ele><time>2026-04-19T16:19:13Z</time></trkpt><trkpt lat="37.035235024747614" lon="15.06023138988641"><ele>370.0</ele><time>2026-04-19T16:19:15Z</time></trkpt><trkpt lat="37.03531557099631" lon="15.060286226235187"><ele>369.0</ele><time>2026-04-19T16:19:17Z</time></trkpt><trkpt lat="37.03534660073087" lon="15.060365510432508"><ele>368.0</ele><time>2026-04-19T16:19:19Z</time></trkpt><trkpt lat="37.03531907042017" lon="15.06047343077824"><ele>368.0</ele><time>2026-04-19T16:19:21Z</time></trkpt><trkpt lat="37.0352690552542" lon="15.060582506586508"><ele>368.0</ele><time>2026-04-19T16:19:23Z</time></trkpt><trkpt lat="37.03521435043718" lon="15.060694458132806"><ele>368.0</ele><time>2026-04-19T16:19:25Z</time></trkpt><trkpt lat="37.035161001734615" lon="15.060814206275982"><ele>368.0</ele><time>2026-04-19T16:19:27Z</time></trkpt><trkpt lat="37.035112621463526" lon="15.060939752324874"><ele>368.0</ele><time>2026-04-19T16:19:29Z</time></trkpt><trkpt lat="37.03507593177733" lon="15.061082190180105"><ele>368.42857142857144</ele><time>2026-04-19T16:19:31Z</time></trkpt><trkpt lat="37.03502987610865" lon="15.061226827242276"><ele>368.85714285714283</ele><time>2026-04-19T16:19:33Z</time></trkpt><trkpt lat="37.035001283187334" lon="15.061298722436588"><ele>369.2857142857143</ele><time>2026-04-19T16:19:34Z</time></trkpt><trkpt lat="37.03497514373144" lon="15.061371662980246"><ele>369.7142857142857</ele><time>2026-04-19T16:19:35Z</time></trkpt><trkpt lat="37.03494488739102" lon="15.061444524397416"><ele>370.1428571428571</ele><time>2026-04-19T16:19:36Z</time></trkpt><trkpt lat="37.03491205217867" lon="15.061515554207915"><ele>370.57142857142856</ele><time>2026-04-19T16:19:37Z</time></trkpt><trkpt lat="37.034875709938476" lon="15.061583462802473"><ele>371.0</ele><time>2026-04-19T16:19:38Z</time></trkpt><trkpt lat="37.03484945515215" lon="15.061656413490079"><ele>371.0</ele><time>2026-04-19T16:19:39Z</time></trkpt><trkpt lat="37.03482511205182" lon="15.061730442784272"><ele>371.0</ele><time>2026-04-19T16:19:40Z</time></trkpt><trkpt lat="37.034802617040334" lon="15.061804242541015"><ele>371.0</ele><time>2026-04-19T16:19:41Z</time></trkpt><trkpt lat="37.03475621657106" lon="15.061943289088047"><ele>371.0</ele><time>2026-04-19T16:19:43Z</time></trkpt><trkpt lat="37.034710659859336" lon="15.062056548309696"><ele>371.0</ele><time>2026-04-19T16:19:45Z</time></trkpt><trkpt lat="37.03467907047666" lon="15.062147448672839"><ele>371.0</ele><time>2026-04-19T16:19:51Z</time></trkpt><trkpt lat="37.03463012565392" lon="15.06225491873899"><ele>371.0</ele><time>2026-04-19T16:19:55Z</time></trkpt><trkpt lat="37.034581310122846" lon="15.062371412406458"><ele>371.0</ele><time>2026-04-19T16:19:57Z</time></trkpt><trkpt lat="37.034533751854866" lon="15.062495249298788"><ele>371.0</ele><time>2026-04-19T16:19:59Z</time></trkpt><trkpt lat="37.03449912702465" lon="15.06258536560172"><ele>371.0</ele><time>2026-04-19T16:20:01Z</time></trkpt><trkpt lat="37.034461653780696" lon="15.062684545404144"><ele>371.0</ele><time>2026-04-19T16:20:04Z</time></trkpt><trkpt lat="37.03441273752171" lon="15.062756657477484"><ele>371.0</ele><time>2026-04-19T16:20:07Z</time></trkpt><trkpt lat="37.034341848168324" lon="15.062780334145"><ele>371.0</ele><time>2026-04-19T16:20:09.999Z</time></trkpt><trkpt lat="37.03425356475222" lon="15.06272828826182"><ele>371.0</ele><time>2026-04-19T16:20:11.999Z</time></trkpt><trkpt lat="37.03418082574704" lon="15.062679571236638"><ele>371.0</ele><time>2026-04-19T16:20:13.999Z</time></trkpt><trkpt lat="37.034128072326396" lon="15.062629837173269"><ele>371.0</ele><time>2026-04-19T16:20:17.999Z</time></trkpt><trkpt lat="37.03403619057812" lon="15.062673749019332"><ele>371.0</ele><time>2026-04-19T16:20:21.999Z</time></trkpt><trkpt lat="37.034005044038175" lon="15.062744265200013"><ele>371.6666666666667</ele><time>2026-04-19T16:20:22.999Z</time></trkpt><trkpt lat="37.033959026214" lon="15.062863148934714"><ele>372.33333333333337</ele><time>2026-04-19T16:20:24.999Z</time></trkpt><trkpt lat="37.033875017154166" lon="15.062995133457056"><ele>373.0</ele><time>2026-04-19T16:20:26.999Z</time></trkpt><trkpt lat="37.03383967931733" lon="15.063063342037681"><ele>373.6666666666667</ele><time>2026-04-19T16:20:27.999Z</time></trkpt><trkpt lat="37.033800132620605" lon="15.063129454329413"><ele>374.3333333333333</ele><time>2026-04-19T16:20:28.999Z</time></trkpt><trkpt lat="37.033759883563434" lon="15.063195772199414"><ele>375.0</ele><time>2026-04-19T16:20:29.999Z</time></trkpt><trkpt lat="37.0337196242822" lon="15.063260607068344"><ele>374.7142857142857</ele><time>2026-04-19T16:20:30.999Z</time></trkpt><trkpt lat="37.03367691845246" lon="15.063320232929584"><ele>374.4285714285714</ele><time>2026-04-19T16:20:31.999Z</time></trkpt><trkpt lat="37.03364017026529" lon="15.063386120835913"><ele>374.1428571428571</ele><time>2026-04-19T16:20:32.999Z</time></trkpt><trkpt lat="37.03360898480984" lon="15.063458113442776"><ele>373.8571428571429</ele><time>2026-04-19T16:20:33.999Z</time></trkpt><trkpt lat="37.03356622654734" lon="15.063525596749866"><ele>373.57142857142856</ele><time>2026-04-19T16:20:34.999Z</time></trkpt><trkpt lat="37.033519306656615" lon="15.063597551843248"><ele>373.2857142857143</ele><time>2026-04-19T16:20:35.999Z</time></trkpt><trkpt lat="37.033470206860706" lon="15.063672404902507"><ele>373.0</ele><time>2026-04-19T16:20:36.999Z</time></trkpt><trkpt lat="37.033417955290126" lon="15.063750669829673"><ele>373.0</ele><time>2026-04-19T16:20:37.999Z</time></trkpt><trkpt lat="37.03336783238843" lon="15.063832129222547"><ele>373.0</ele><time>2026-04-19T16:20:38.999Z</time></trkpt><trkpt lat="37.03332011122644" lon="15.06391185266983"><ele>373.0</ele><time>2026-04-19T16:20:39.999Z</time></trkpt><trkpt lat="37.03327223307329" lon="15.063986295954573"><ele>373.0</ele><time>2026-04-19T16:20:40.999Z</time></trkpt><trkpt lat="37.03322963915209" lon="15.064058788536629"><ele>373.0</ele><time>2026-04-19T16:20:41.999Z</time></trkpt><trkpt lat="37.03318868509415" lon="15.064123789018256"><ele>373.0</ele><time>2026-04-19T16:20:42.999Z</time></trkpt><trkpt lat="37.0331427809516" lon="15.064192901100451"><ele>373.0</ele><time>2026-04-19T16:20:43.999Z</time></trkpt><trkpt lat="37.0330934168425" lon="15.064261579797183"><ele>372.8333333333333</ele><time>2026-04-19T16:20:44.999Z</time></trkpt><trkpt lat="37.03304518267718" lon="15.064334094808144"><ele>372.66666666666663</ele><time>2026-04-19T16:20:45.999Z</time></trkpt><trkpt lat="37.03299863543442" lon="15.064406860516533"><ele>372.5</ele><time>2026-04-19T16:20:46.999Z</time></trkpt><trkpt lat="37.03295217822831" lon="15.06447698963209"><ele>372.3333333333333</ele><time>2026-04-19T16:20:47.999Z</time></trkpt><trkpt lat="37.032882030214544" lon="15.064520862238703"><ele>372.1666666666667</ele><time>2026-04-19T16:20:48.999Z</time></trkpt><trkpt lat="37.032851770511876" lon="15.064611829385107"><ele>372.0</ele><time>2026-04-19T16:20:49.999Z</time></trkpt><trkpt lat="37.032799860229304" lon="15.064679088716565"><ele>372.0</ele><time>2026-04-19T16:20:50.999Z</time></trkpt><trkpt lat="37.032748878517666" lon="15.06475178619092"><ele>372.0</ele><time>2026-04-19T16:20:51.999Z</time></trkpt><trkpt lat="37.03269816657047" lon="15.064827976203073"><ele>372.0</ele><time>2026-04-19T16:20:52.999Z</time></trkpt><trkpt lat="37.032644159959496" lon="15.06490216588902"><ele>372.0</ele><time>2026-04-19T16:20:53.999Z</time></trkpt><trkpt lat="37.03259145657099" lon="15.064978987464837"><ele>372.0</ele><time>2026-04-19T16:20:54.999Z</time></trkpt><trkpt lat="37.0325407144433" lon="15.065055289437497"><ele>372.0</ele><time>2026-04-19T16:20:55.999Z</time></trkpt><trkpt lat="37.03248909361246" lon="15.065124826885217"><ele>372.0</ele><time>2026-04-19T16:20:56.999Z</time></trkpt><trkpt lat="37.03243278392961" lon="15.065193013719899"><ele>372.0</ele><time>2026-04-19T16:20:57.999Z</time></trkpt><trkpt lat="37.032376469979944" lon="15.065261033224745"><ele>372.0</ele><time>2026-04-19T16:20:58.999Z</time></trkpt><trkpt lat="37.032323804453696" lon="15.065333093041703"><ele>372.0</ele><time>2026-04-19T16:20:59.999Z</time></trkpt><trkpt lat="37.03227263107701" lon="15.065407597613856"><ele>372.0</ele><time>2026-04-19T16:21:00.999Z</time></trkpt><trkpt lat="37.03222187772739" lon="15.065481872460373"><ele>372.0</ele><time>2026-04-19T16:21:01.999Z</time></trkpt><trkpt lat="37.0321724539928" lon="15.065553074052998"><ele>372.0</ele><time>2026-04-19T16:21:02.999Z</time></trkpt><trkpt lat="37.03211862934618" lon="15.06561716495057"><ele>372.0</ele><time>2026-04-19T16:21:03.999Z</time></trkpt><trkpt lat="37.0320674955644" lon="15.065676053287982"><ele>372.0</ele><time>2026-04-19T16:21:04.999Z</time></trkpt><trkpt lat="37.03201994963931" lon="15.065735774101158"><ele>372.0</ele><time>2026-04-19T16:21:05.999Z</time></trkpt><trkpt lat="37.03197929989089" lon="15.065796432577077"><ele>372.0</ele><time>2026-04-19T16:21:06.999Z</time></trkpt><trkpt lat="37.031893389133366" lon="15.065906219353712"><ele>372.0</ele><time>2026-04-19T16:21:08.999Z</time></trkpt><trkpt lat="37.031817460411844" lon="15.066008162376615"><ele>371.8333333333333</ele><time>2026-04-19T16:21:10.999Z</time></trkpt><trkpt lat="37.031759845357286" lon="15.066080109355676"><ele>371.6666666666667</ele><time>2026-04-19T16:21:13Z</time></trkpt><trkpt lat="37.03171549531231" lon="15.066145232371573"><ele>371.5</ele><time>2026-04-19T16:21:17Z</time></trkpt><trkpt lat="37.03173082347903" lon="15.066238128217886"><ele>371.33333333333337</ele><time>2026-04-19T16:21:22Z</time></trkpt><trkpt lat="37.031804992779946" lon="15.066309521035858"><ele>371.1666666666667</ele><time>2026-04-19T16:21:24Z</time></trkpt><trkpt lat="37.0317891079861" lon="15.06645447989974"><ele>371.0</ele><time>2026-04-19T16:21:27Z</time></trkpt><trkpt lat="37.03173343212545" lon="15.06652550181388"><ele>371.0</ele><time>2026-04-19T16:21:28Z</time></trkpt><trkpt lat="37.03169038921752" lon="15.066592190103647"><ele>371.0</ele><time>2026-04-19T16:21:29Z</time></trkpt><trkpt lat="37.031645075262745" lon="15.066660785651207"><ele>371.0</ele><time>2026-04-19T16:21:30Z</time></trkpt><trkpt lat="37.03160269076322" lon="15.066739812189548"><ele>371.0</ele><time>2026-04-19T16:21:31Z</time></trkpt><trkpt lat="37.031554783144" lon="15.066818867201807"><ele>371.0</ele><time>2026-04-19T16:21:32Z</time></trkpt><trkpt lat="37.031505607824045" lon="15.066896200305518"><ele>371.0</ele><time>2026-04-19T16:21:33Z</time></trkpt><trkpt lat="37.03146474228212" lon="15.066964623367662"><ele>371.0</ele><time>2026-04-19T16:21:34Z</time></trkpt><trkpt lat="37.03142961960937" lon="15.067030942853314"><ele>370.6</ele><time>2026-04-19T16:21:35Z</time></trkpt><trkpt lat="37.03135526003918" lon="15.067150145645487"><ele>370.20000000000005</ele><time>2026-04-19T16:21:37Z</time></trkpt><trkpt lat="37.031283830654594" lon="15.067265914858217"><ele>369.79999999999995</ele><time>2026-04-19T16:21:39Z</time></trkpt><trkpt lat="37.031233135138415" lon="15.067360618068458"><ele>369.4</ele><time>2026-04-19T16:21:41Z</time></trkpt><trkpt lat="37.03119951883053" lon="15.067445540684085"><ele>369.0</ele><time>2026-04-19T16:21:43Z</time></trkpt><trkpt lat="37.03112594461482" lon="15.067539285620013"><ele>368.57142857142856</ele><time>2026-04-19T16:21:45Z</time></trkpt><trkpt lat="37.03110047208677" lon="15.067611967332276"><ele>368.1428571428571</ele><time>2026-04-19T16:21:46Z</time></trkpt><trkpt lat="37.031060382974616" lon="15.067678656317307"><ele>367.7142857142857</ele><time>2026-04-19T16:21:47Z</time></trkpt><trkpt lat="37.031018673211484" lon="15.06775053248804"><ele>367.2857142857143</ele><time>2026-04-19T16:21:48Z</time></trkpt><trkpt lat="37.03097547411337" lon="15.06782557392916"><ele>366.8571428571429</ele><time>2026-04-19T16:21:49Z</time></trkpt><trkpt lat="37.03092953132065" lon="15.067898818480234"><ele>366.42857142857144</ele><time>2026-04-19T16:21:50Z</time></trkpt><trkpt lat="37.03088515212072" lon="15.06797031682536"><ele>366.0</ele><time>2026-04-19T16:21:51Z</time></trkpt><trkpt lat="37.03084267313054" lon="15.068041364415958"><ele>365.8333333333333</ele><time>2026-04-19T16:21:52Z</time></trkpt><trkpt lat="37.030799828882905" lon="15.068109807558836"><ele>365.6666666666667</ele><time>2026-04-19T16:21:53Z</time></trkpt><trkpt lat="37.03075686438262" lon="15.06817624451355"><ele>365.5</ele><time>2026-04-19T16:21:54Z</time></trkpt><trkpt lat="37.030681563410766" lon="15.0682853355812"><ele>365.33333333333337</ele><time>2026-04-19T16:21:56Z</time></trkpt><trkpt lat="37.03064317731388" lon="15.068350216604712"><ele>365.1666666666667</ele><time>2026-04-19T16:21:59Z</time></trkpt><trkpt lat="37.03059745104754" lon="15.06843301028567"><ele>365.0</ele><time>2026-04-19T16:22:04Z</time></trkpt><trkpt lat="37.030548615042775" lon="15.068512240167044"><ele>365.0</ele><time>2026-04-19T16:22:06.999Z</time></trkpt><trkpt lat="37.03051259210574" lon="15.068599047696617"><ele>365.0</ele><time>2026-04-19T16:22:08.999Z</time></trkpt><trkpt lat="37.03045519953207" lon="15.068698035318027"><ele>365.0</ele><time>2026-04-19T16:22:10.999Z</time></trkpt><trkpt lat="37.030393642487816" lon="15.068798500729612"><ele>365.0</ele><time>2026-04-19T16:22:12.999Z</time></trkpt><trkpt lat="37.030323888850994" lon="15.068919568074891"><ele>365.0</ele><time>2026-04-19T16:22:14.999Z</time></trkpt><trkpt lat="37.03025123852608" lon="15.06903782404205"><ele>364.8</ele><time>2026-04-19T16:22:16.999Z</time></trkpt><trkpt lat="37.03018566303003" lon="15.069139220668989"><ele>364.6</ele><time>2026-04-19T16:22:18.999Z</time></trkpt><trkpt lat="37.030137021511585" lon="15.069218543184862"><ele>364.4</ele><time>2026-04-19T16:22:20.999Z</time></trkpt><trkpt lat="37.030089237229056" lon="15.06930963339296"><ele>364.2</ele><time>2026-04-19T16:22:23.999Z</time></trkpt><trkpt lat="37.03000830762982" lon="15.069379334667016"><ele>364.0</ele><time>2026-04-19T16:22:25.999Z</time></trkpt><trkpt lat="37.029951489581855" lon="15.069530944428468"><ele>364.0</ele><time>2026-04-19T16:22:27.999Z</time></trkpt><trkpt lat="37.02991165156411" lon="15.0696097324524"><ele>364.0</ele><time>2026-04-19T16:22:28.999Z</time></trkpt><trkpt lat="37.02987244272239" lon="15.069682295856017"><ele>364.0</ele><time>2026-04-19T16:22:29.999Z</time></trkpt><trkpt lat="37.02983415065697" lon="15.069751647678677"><ele>364.0</ele><time>2026-04-19T16:22:30.999Z</time></trkpt><trkpt lat="37.029793495294484" lon="15.069814474129288"><ele>364.0</ele><time>2026-04-19T16:22:31.999Z</time></trkpt><trkpt lat="37.02975639944564" lon="15.069878290298194"><ele>364.0</ele><time>2026-04-19T16:22:32.999Z</time></trkpt><trkpt lat="37.029679264478624" lon="15.070000832761615"><ele>363.8333333333333</ele><time>2026-04-19T16:22:34.999Z</time></trkpt><trkpt lat="37.0296396216287" lon="15.070062924837792"><ele>363.66666666666663</ele><time>2026-04-19T16:22:35.999Z</time></trkpt><trkpt lat="37.02955906674564" lon="15.070184615712051"><ele>363.5</ele><time>2026-04-19T16:22:37.999Z</time></trkpt><trkpt lat="37.02952412079941" lon="15.070253521617968"><ele>363.3333333333333</ele><time>2026-04-19T16:22:38.999Z</time></trkpt><trkpt lat="37.02948692362657" lon="15.070325202918509"><ele>363.1666666666667</ele><time>2026-04-19T16:22:39.999Z</time></trkpt><trkpt lat="37.02944454176957" lon="15.070396339206216"><ele>363.0</ele><time>2026-04-19T16:22:40.999Z</time></trkpt><trkpt lat="37.029406568116066" lon="15.070465826610377"><ele>363.0</ele><time>2026-04-19T16:22:41.999Z</time></trkpt><trkpt lat="37.02934391383117" lon="15.070582881278733"><ele>363.0</ele><time>2026-04-19T16:22:43.999Z</time></trkpt><trkpt lat="37.02928753669608" lon="15.070653194841668"><ele>363.0</ele><time>2026-04-19T16:22:45.999Z</time></trkpt><trkpt lat="37.029191602341626" lon="15.070616102307746"><ele>363.0</ele><time>2026-04-19T16:22:48.999Z</time></trkpt><trkpt lat="37.02909633152747" lon="15.07055429562475"><ele>363.0</ele><time>2026-04-19T16:22:50.999Z</time></trkpt><trkpt lat="37.02900243035034" lon="15.070475147616904"><ele>363.0</ele><time>2026-04-19T16:22:52.999Z</time></trkpt><trkpt lat="37.028955803956414" lon="15.070418817744093"><ele>363.0</ele><time>2026-04-19T16:22:55.999Z</time></trkpt><trkpt lat="37.02882881260961" lon="15.070510640605564"><ele>363.0</ele><time>2026-04-19T16:22:59.999Z</time></trkpt><trkpt lat="37.028781038558705" lon="15.0706281282068"><ele>363.0</ele><time>2026-04-19T16:23:01.999Z</time></trkpt><trkpt lat="37.028719222455756" lon="15.070752580946595"><ele>363.0</ele><time>2026-04-19T16:23:03.999Z</time></trkpt><trkpt lat="37.02867575080231" lon="15.070814611792214"><ele>362.1666666666667</ele><time>2026-04-19T16:23:04.999Z</time></trkpt><trkpt lat="37.02863923585926" lon="15.070898153015984"><ele>361.3333333333333</ele><time>2026-04-19T16:23:05.999Z</time></trkpt><trkpt lat="37.02860106361089" lon="15.070988830689002"><ele>360.5</ele><time>2026-04-19T16:23:06.999Z</time></trkpt><trkpt lat="37.02857888715759" lon="15.071089469191486"><ele>359.66666666666663</ele><time>2026-04-19T16:23:07.999Z</time></trkpt><trkpt lat="37.0285417338883" lon="15.071174146480335"><ele>358.8333333333333</ele><time>2026-04-19T16:23:08.999Z</time></trkpt><trkpt lat="37.02850455118779" lon="15.07125815098258"><ele>358.0</ele><time>2026-04-19T16:23:09.999Z</time></trkpt><trkpt lat="37.02847424418025" lon="15.071352055799471"><ele>358.0</ele><time>2026-04-19T16:23:10.999Z</time></trkpt><trkpt lat="37.028446012627306" lon="15.07145328217337"><ele>358.0</ele><time>2026-04-19T16:23:11.999Z</time></trkpt><trkpt lat="37.02841216771387" lon="15.071556608685075"><ele>358.0</ele><time>2026-04-19T16:23:12.999Z</time></trkpt><trkpt lat="37.028352911671796" lon="15.071650666746828"><ele>358.0</ele><time>2026-04-19T16:23:13.999Z</time></trkpt><trkpt lat="37.02831451735034" lon="15.071756587269755"><ele>358.0</ele><time>2026-04-19T16:23:14.999Z</time></trkpt><trkpt lat="37.02829099745222" lon="15.071867967664438"><ele>357.5</ele><time>2026-04-19T16:23:15.999Z</time></trkpt><trkpt lat="37.02825248786868" lon="15.071966820096232"><ele>357.0</ele><time>2026-04-19T16:23:16.999Z</time></trkpt><trkpt lat="37.02820306952398" lon="15.072053467061892"><ele>356.5</ele><time>2026-04-19T16:23:17.999Z</time></trkpt><trkpt lat="37.02816559589968" lon="15.072150487450898"><ele>356.0</ele><time>2026-04-19T16:23:19Z</time></trkpt><trkpt lat="37.02813013386475" lon="15.072244819401797"><ele>355.5</ele><time>2026-04-19T16:23:20Z</time></trkpt><trkpt lat="37.02809527011203" lon="15.072336679108755"><ele>355.0</ele><time>2026-04-19T16:23:21Z</time></trkpt><trkpt lat="37.028059693490206" lon="15.072429949850525"><ele>354.3333333333333</ele><time>2026-04-19T16:23:22Z</time></trkpt><trkpt lat="37.02802491888154" lon="15.072521054697303"><ele>353.66666666666663</ele><time>2026-04-19T16:23:23Z</time></trkpt><trkpt lat="37.027990473057244" lon="15.072611298222386"><ele>353.0</ele><time>2026-04-19T16:23:24Z</time></trkpt><trkpt lat="37.0279564308" lon="15.072700484414344"><ele>352.3333333333333</ele><time>2026-04-19T16:23:25Z</time></trkpt><trkpt lat="37.027922000948394" lon="15.07278768124864"><ele>351.6666666666667</ele><time>2026-04-19T16:23:26Z</time></trkpt><trkpt lat="37.02788646031981" lon="15.072874873811763"><ele>351.0</ele><time>2026-04-19T16:23:27Z</time></trkpt><trkpt lat="37.027850938369376" lon="15.072962020536103"><ele>351.0</ele><time>2026-04-19T16:23:28Z</time></trkpt><trkpt lat="37.02781515221685" lon="15.073045091721175"><ele>351.0</ele><time>2026-04-19T16:23:29Z</time></trkpt><trkpt lat="37.02777727258817" lon="15.073129418738263"><ele>351.0</ele><time>2026-04-19T16:23:30Z</time></trkpt><trkpt lat="37.02773368909891" lon="15.073214173658965"><ele>351.0</ele><time>2026-04-19T16:23:31Z</time></trkpt><trkpt lat="37.027687955598324" lon="15.073295600286814"><ele>351.0</ele><time>2026-04-19T16:23:32Z</time></trkpt><trkpt lat="37.02763898140632" lon="15.073375435611352"><ele>351.0</ele><time>2026-04-19T16:23:33Z</time></trkpt><trkpt lat="37.02758961241667" lon="15.073455421807271"><ele>350.6666666666667</ele><time>2026-04-19T16:23:34Z</time></trkpt><trkpt lat="37.02753942973433" lon="15.07353608587202"><ele>350.3333333333333</ele><time>2026-04-19T16:23:35Z</time></trkpt><trkpt lat="37.027498561142316" lon="15.073627356292619"><ele>350.0</ele><time>2026-04-19T16:23:36Z</time></trkpt><trkpt lat="37.02744059359336" lon="15.073699401682092"><ele>349.66666666666663</ele><time>2026-04-19T16:23:37Z</time></trkpt><trkpt lat="37.02738826146553" lon="15.073768586366262"><ele>349.3333333333333</ele><time>2026-04-19T16:23:38Z</time></trkpt><trkpt lat="37.02733944648964" lon="15.07383863449433"><ele>349.0</ele><time>2026-04-19T16:23:39Z</time></trkpt><trkpt lat="37.02729104201084" lon="15.07390444797949"><ele>349.0</ele><time>2026-04-19T16:23:40Z</time></trkpt><trkpt lat="37.027240645222804" lon="15.07397084163136"><ele>349.0</ele><time>2026-04-19T16:23:41Z</time></trkpt><trkpt lat="37.02719290835709" lon="15.074042481076946"><ele>349.0</ele><time>2026-04-19T16:23:42Z</time></trkpt><trkpt lat="37.027129495219874" lon="15.074097547759058"><ele>349.0</ele><time>2026-04-19T16:23:43Z</time></trkpt><trkpt lat="37.02707353922278" lon="15.074169578881051"><ele>349.0</ele><time>2026-04-19T16:23:44Z</time></trkpt><trkpt lat="37.027016006197215" lon="15.074243536631345"><ele>349.0</ele><time>2026-04-19T16:23:45Z</time></trkpt><trkpt lat="37.02695727595789" lon="15.074319033362775"><ele>348.3333333333333</ele><time>2026-04-19T16:23:46Z</time></trkpt><trkpt lat="37.026907904931356" lon="15.074409301301287"><ele>347.66666666666663</ele><time>2026-04-19T16:23:47Z</time></trkpt><trkpt lat="37.026844977583345" lon="15.0744863717323"><ele>347.0</ele><time>2026-04-19T16:23:48Z</time></trkpt><trkpt lat="37.026784604580186" lon="15.074569247498824"><ele>346.3333333333333</ele><time>2026-04-19T16:23:49Z</time></trkpt><trkpt lat="37.02672136237132" lon="15.074651749558326"><ele>345.6666666666667</ele><time>2026-04-19T16:23:50Z</time></trkpt><trkpt lat="37.026651180918" lon="15.074728497514172"><ele>345.0</ele><time>2026-04-19T16:23:51Z</time></trkpt><trkpt lat="37.026575995921704" lon="15.074794705524711"><ele>345.8333333333333</ele><time>2026-04-19T16:23:52Z</time></trkpt><trkpt lat="37.02649957255079" lon="15.074858560017303"><ele>346.6666666666667</ele><time>2026-04-19T16:23:53Z</time></trkpt><trkpt lat="37.02643565229179" lon="15.074916332654267"><ele>347.5</ele><time>2026-04-19T16:23:54Z</time></trkpt><trkpt lat="37.02637495302522" lon="15.07497601718057"><ele>348.33333333333337</ele><time>2026-04-19T16:23:55Z</time></trkpt><trkpt lat="37.026314421533826" lon="15.07502745207249"><ele>349.1666666666667</ele><time>2026-04-19T16:23:56Z</time></trkpt><trkpt lat="37.026249124592056" lon="15.075059637342815"><ele>350.0</ele><time>2026-04-19T16:23:57Z</time></trkpt><trkpt lat="37.0261799094636" lon="15.075054223156032"><ele>350.0</ele><time>2026-04-19T16:23:58Z</time></trkpt><trkpt lat="37.02606901294663" lon="15.075069043969886"><ele>350.0</ele><time>2026-04-19T16:24:00Z</time></trkpt><trkpt lat="37.026032806805006" lon="15.075161586205592"><ele>350.0</ele><time>2026-04-19T16:24:01Z</time></trkpt><trkpt lat="37.02600743767781" lon="15.075264550193896"><ele>350.0</ele><time>2026-04-19T16:24:02Z</time></trkpt><trkpt lat="37.02601967821038" lon="15.075396387090374"><ele>350.0</ele><time>2026-04-19T16:24:03Z</time></trkpt><trkpt lat="37.026013027198495" lon="15.075523755981466"><ele>350.0</ele><time>2026-04-19T16:24:04Z</time></trkpt><trkpt lat="37.026006495377686" lon="15.075648577672451"><ele>350.0</ele><time>2026-04-19T16:24:05Z</time></trkpt><trkpt lat="37.025996139983874" lon="15.07578241682498"><ele>350.0</ele><time>2026-04-19T16:24:06Z</time></trkpt><trkpt lat="37.025989438263565" lon="15.075923622584172"><ele>350.0</ele><time>2026-04-19T16:24:07Z</time></trkpt><trkpt lat="37.02598668948192" lon="15.076071657205077"><ele>350.0</ele><time>2026-04-19T16:24:08Z</time></trkpt><trkpt lat="37.02596692516178" lon="15.076226218416487"><ele>347.75</ele><time>2026-04-19T16:24:08.999Z</time></trkpt><trkpt lat="37.02597490768338" lon="15.07637934197276"><ele>345.5</ele><time>2026-04-19T16:24:09.999Z</time></trkpt><trkpt lat="37.025968891972475" lon="15.076535458970817"><ele>343.25</ele><time>2026-04-19T16:24:10.999Z</time></trkpt><trkpt lat="37.02596435969568" lon="15.076694497597751"><ele>341.0</ele><time>2026-04-19T16:24:11.999Z</time></trkpt><trkpt lat="37.02595962528809" lon="15.076862170295485"><ele>339.75</ele><time>2026-04-19T16:24:12.999Z</time></trkpt><trkpt lat="37.0259541011253" lon="15.077033867488463"><ele>338.5</ele><time>2026-04-19T16:24:13.999Z</time></trkpt><trkpt lat="37.02594642597597" lon="15.077213441260918"><ele>337.25</ele><time>2026-04-19T16:24:14.999Z</time></trkpt><trkpt lat="37.02593867178743" lon="15.07740010443544"><ele>336.0</ele><time>2026-04-19T16:24:15.999Z</time></trkpt><trkpt lat="37.02593136595723" lon="15.077589585432039"><ele>334.3333333333333</ele><time>2026-04-19T16:24:16.999Z</time></trkpt><trkpt lat="37.02592559663339" lon="15.077780893234426"><ele>332.66666666666663</ele><time>2026-04-19T16:24:17.999Z</time></trkpt><trkpt lat="37.025921287324046" lon="15.077973360107588"><ele>331.0</ele><time>2026-04-19T16:24:18.999Z</time></trkpt><trkpt lat="37.025914945872245" lon="15.078172048930345"><ele>330.0</ele><time>2026-04-19T16:24:19.999Z</time></trkpt><trkpt lat="37.025907459737425" lon="15.078378846460577"><ele>329.0</ele><time>2026-04-19T16:24:20.999Z</time></trkpt><trkpt lat="37.02588642468726" lon="15.078588790976209"><ele>328.0</ele><time>2026-04-19T16:24:21.999Z</time></trkpt><trkpt lat="37.02587885203336" lon="15.078807799674271"><ele>328.0</ele><time>2026-04-19T16:24:22.999Z</time></trkpt><trkpt lat="37.025871075807245" lon="15.079032695884756"><ele>328.0</ele><time>2026-04-19T16:24:23.999Z</time></trkpt><trkpt lat="37.025863146357025" lon="15.07926202346769"><ele>328.0</ele><time>2026-04-19T16:24:24.999Z</time></trkpt><trkpt lat="37.0258549883898" lon="15.079497960028705"><ele>326.3333333333333</ele><time>2026-04-19T16:24:25.999Z</time></trkpt><trkpt lat="37.02586689059444" lon="15.079742148116601"><ele>324.6666666666667</ele><time>2026-04-19T16:24:26.999Z</time></trkpt><trkpt lat="37.02585649043184" lon="15.079983239849248"><ele>323.0</ele><time>2026-04-19T16:24:27.999Z</time></trkpt><trkpt lat="37.025849433343076" lon="15.080229363223348"><ele>321.6666666666667</ele><time>2026-04-19T16:24:28.999Z</time></trkpt><trkpt lat="37.0258427622242" lon="15.080482222690325"><ele>320.3333333333333</ele><time>2026-04-19T16:24:29.999Z</time></trkpt><trkpt lat="37.02581345215545" lon="15.080735425781105"><ele>319.0</ele><time>2026-04-19T16:24:30.999Z</time></trkpt><trkpt lat="37.02580453355854" lon="15.080994839282265"><ele>321.66666666666663</ele><time>2026-04-19T16:24:31.999Z</time></trkpt><trkpt lat="37.025795542320445" lon="15.081256365671571"><ele>324.3333333333333</ele><time>2026-04-19T16:24:32.999Z</time></trkpt><trkpt lat="37.02578633120606" lon="15.081524287573597"><ele>327.0</ele><time>2026-04-19T16:24:33.999Z</time></trkpt><trkpt lat="37.02577709120405" lon="15.081793049738138"><ele>327.0</ele><time>2026-04-19T16:24:34.999Z</time></trkpt><trkpt lat="37.02576781235026" lon="15.082062941978643"><ele>327.0</ele><time>2026-04-19T16:24:35.999Z</time></trkpt><trkpt lat="37.02575831461076" lon="15.08234130517753"><ele>327.0</ele><time>2026-04-19T16:24:36.999Z</time></trkpt><trkpt lat="37.025749010859215" lon="15.082621560956158"><ele>326.3333333333333</ele><time>2026-04-19T16:24:37.999Z</time></trkpt><trkpt lat="37.02573972518092" lon="15.082901272330908"><ele>325.66666666666663</ele><time>2026-04-19T16:24:38.999Z</time></trkpt><trkpt lat="37.02573047205109" lon="15.083178005617873"><ele>325.0</ele><time>2026-04-19T16:24:39.999Z</time></trkpt><trkpt lat="37.02572144630393" lon="15.083447012988358"><ele>326.3333333333333</ele><time>2026-04-19T16:24:40.999Z</time></trkpt><trkpt lat="37.025729122225464" lon="15.083715481960445"><ele>327.6666666666667</ele><time>2026-04-19T16:24:41.999Z</time></trkpt><trkpt lat="37.025702479502456" lon="15.083980047973027"><ele>329.0</ele><time>2026-04-19T16:24:42.999Z</time></trkpt><trkpt lat="37.025718601155624" lon="15.084249408361824"><ele>329.0</ele><time>2026-04-19T16:24:43.999Z</time></trkpt><trkpt lat="37.02573322834021" lon="15.084522037590736"><ele>329.0</ele><time>2026-04-19T16:24:44.999Z</time></trkpt><trkpt lat="37.025759893211614" lon="15.084798438218176"><ele>329.0</ele><time>2026-04-19T16:24:45.999Z</time></trkpt><trkpt lat="37.02579387830207" lon="15.085073295314393"><ele>329.0</ele><time>2026-04-19T16:24:46.999Z</time></trkpt><trkpt lat="37.02579492825621" lon="15.085352586633848"><ele>329.0</ele><time>2026-04-19T16:24:47.999Z</time></trkpt><trkpt lat="37.02582843515351" lon="15.0856295548853"><ele>329.0</ele><time>2026-04-19T16:24:48.999Z</time></trkpt><trkpt lat="37.025861953813155" lon="15.085907796098097"><ele>322.33333333333337</ele><time>2026-04-19T16:24:49.999Z</time></trkpt><trkpt lat="37.02589520410072" lon="15.086183809561357"><ele>315.6666666666667</ele><time>2026-04-19T16:24:50.999Z</time></trkpt><trkpt lat="37.02594023506984" lon="15.086449791010248"><ele>309.0</ele><time>2026-04-19T16:24:51.999Z</time></trkpt><trkpt lat="37.02595133344079" lon="15.086716435444565"><ele>309.0</ele><time>2026-04-19T16:24:52.999Z</time></trkpt><trkpt lat="37.025944894375954" lon="15.086986826530525"><ele>309.0</ele><time>2026-04-19T16:24:53.999Z</time></trkpt><trkpt lat="37.02589563995912" lon="15.087259511382914"><ele>309.0</ele><time>2026-04-19T16:24:54.999Z</time></trkpt><trkpt lat="37.02585963993454" lon="15.087537028043812"><ele>307.6666666666667</ele><time>2026-04-19T16:24:55.999Z</time></trkpt><trkpt lat="37.02582390313256" lon="15.087815596589435"><ele>306.33333333333337</ele><time>2026-04-19T16:24:56.999Z</time></trkpt><trkpt lat="37.02580626468319" lon="15.088093013901718"><ele>305.0</ele><time>2026-04-19T16:24:57.999Z</time></trkpt><trkpt lat="37.02576170764378" lon="15.088363300863689"><ele>308.6666666666667</ele><time>2026-04-19T16:24:58.999Z</time></trkpt><trkpt lat="37.02574055891316" lon="15.08863645140927"><ele>312.3333333333333</ele><time>2026-04-19T16:24:59.999Z</time></trkpt><trkpt lat="37.02572660175456" lon="15.088909202527255"><ele>316.0</ele><time>2026-04-19T16:25:00.999Z</time></trkpt><trkpt lat="37.02571460558712" lon="15.089182417646525"><ele>316.0</ele><time>2026-04-19T16:25:01.999Z</time></trkpt><trkpt lat="37.025703954994626" lon="15.089460705895885"><ele>316.0</ele><time>2026-04-19T16:25:02.999Z</time></trkpt><trkpt lat="37.02569434318086" lon="15.089738663697199"><ele>316.0</ele><time>2026-04-19T16:25:03.999Z</time></trkpt><trkpt lat="37.025684598072225" lon="15.090020476308306"><ele>316.0</ele><time>2026-04-19T16:25:04.999Z</time></trkpt><trkpt lat="37.02567473452693" lon="15.090305713790178"><ele>316.0</ele><time>2026-04-19T16:25:05.999Z</time></trkpt><trkpt lat="37.025664763965466" lon="15.090594046181456"><ele>314.0</ele><time>2026-04-19T16:25:06.999Z</time></trkpt><trkpt lat="37.02565464588596" lon="15.090886644485678"><ele>312.0</ele><time>2026-04-19T16:25:07.999Z</time></trkpt><trkpt lat="37.0256445507755" lon="15.091178578421479"><ele>312.0</ele><time>2026-04-19T16:25:08.999Z</time></trkpt><trkpt lat="37.02563471974984" lon="15.091465590287465"><ele>312.0</ele><time>2026-04-19T16:25:09.999Z</time></trkpt><trkpt lat="37.02564647416119" lon="15.091750781980268"><ele>309.6666666666667</ele><time>2026-04-19T16:25:10.999Z</time></trkpt><trkpt lat="37.0256361265925" lon="15.09202929481882"><ele>307.33333333333337</ele><time>2026-04-19T16:25:11.999Z</time></trkpt><trkpt lat="37.02562822644471" lon="15.092304870685231"><ele>305.0</ele><time>2026-04-19T16:25:12.999Z</time></trkpt><trkpt lat="37.0256281557161" lon="15.092578915566763"><ele>303.6666666666667</ele><time>2026-04-19T16:25:13.999Z</time></trkpt><trkpt lat="37.02562320867066" lon="15.092849620894405"><ele>302.3333333333333</ele><time>2026-04-19T16:25:14.999Z</time></trkpt><trkpt lat="37.02566357469355" lon="15.09311505318468"><ele>301.0</ele><time>2026-04-19T16:25:15.999Z</time></trkpt><trkpt lat="37.02569400459592" lon="15.093380661421758"><ele>300.66666666666663</ele><time>2026-04-19T16:25:16.999Z</time></trkpt><trkpt lat="37.025714494111966" lon="15.093648358925908"><ele>300.3333333333333</ele><time>2026-04-19T16:25:17.999Z</time></trkpt><trkpt lat="37.0257477699534" lon="15.093915239028856"><ele>300.0</ele><time>2026-04-19T16:25:18.999Z</time></trkpt><trkpt lat="37.025781035350754" lon="15.094182035333246"><ele>295.3333333333333</ele><time>2026-04-19T16:25:19.999Z</time></trkpt><trkpt lat="37.0258142844073" lon="15.094448700580257"><ele>290.66666666666663</ele><time>2026-04-19T16:25:20.999Z</time></trkpt><trkpt lat="37.02584644469717" lon="15.094716080005501"><ele>286.0</ele><time>2026-04-19T16:25:21.999Z</time></trkpt><trkpt lat="37.02588989663608" lon="15.094981018942905"><ele>285.3333333333333</ele><time>2026-04-19T16:25:22.999Z</time></trkpt><trkpt lat="37.025911447189294" lon="15.095248743815713"><ele>284.6666666666667</ele><time>2026-04-19T16:25:23.999Z</time></trkpt><trkpt lat="37.025920890346484" lon="15.095513762457035"><ele>284.0</ele><time>2026-04-19T16:25:25Z</time></trkpt><trkpt lat="37.02591915916822" lon="15.09577226414101"><ele>283.6666666666667</ele><time>2026-04-19T16:25:26Z</time></trkpt><trkpt lat="37.02590653312941" lon="15.09603228980538"><ele>283.3333333333333</ele><time>2026-04-19T16:25:27Z</time></trkpt><trkpt lat="37.02588542528671" lon="15.0962917836813"><ele>283.0</ele><time>2026-04-19T16:25:28Z</time></trkpt><trkpt lat="37.02585397728643" lon="15.09655468706276"><ele>283.0</ele><time>2026-04-19T16:25:29Z</time></trkpt><trkpt lat="37.02582231447947" lon="15.096819110496217"><ele>283.0</ele><time>2026-04-19T16:25:30Z</time></trkpt><trkpt lat="37.02579004327296" lon="15.097086217875967"><ele>283.0</ele><time>2026-04-19T16:25:31Z</time></trkpt><trkpt lat="37.02575934383071" lon="15.097355433878036"><ele>285.3333333333333</ele><time>2026-04-19T16:25:32Z</time></trkpt><trkpt lat="37.02572984844037" lon="15.097624705808268"><ele>287.6666666666667</ele><time>2026-04-19T16:25:33Z</time></trkpt><trkpt lat="37.02569949926177" lon="15.097897507335654"><ele>290.0</ele><time>2026-04-19T16:25:34Z</time></trkpt><trkpt lat="37.0256683092591" lon="15.098170473081417"><ele>288.33333333333337</ele><time>2026-04-19T16:25:35Z</time></trkpt><trkpt lat="37.02563803408464" lon="15.098443060185481"><ele>286.6666666666667</ele><time>2026-04-19T16:25:36Z</time></trkpt><trkpt lat="37.025605872509665" lon="15.098715784752189"><ele>285.0</ele><time>2026-04-19T16:25:37Z</time></trkpt><trkpt lat="37.02557089812157" lon="15.098988711359484"><ele>283.6666666666667</ele><time>2026-04-19T16:25:38Z</time></trkpt><trkpt lat="37.02552832388483" lon="15.099254795976265"><ele>282.33333333333337</ele><time>2026-04-19T16:25:39Z</time></trkpt><trkpt lat="37.02547503672222" lon="15.099517147961265"><ele>281.0</ele><time>2026-04-19T16:25:40Z</time></trkpt><trkpt lat="37.025411910755004" lon="15.099774341320519"><ele>281.33333333333337</ele><time>2026-04-19T16:25:41Z</time></trkpt><trkpt lat="37.025340488559756" lon="15.100025904485948"><ele>281.6666666666667</ele><time>2026-04-19T16:25:42Z</time></trkpt><trkpt lat="37.0252590788346" lon="15.100272414333643"><ele>282.0</ele><time>2026-04-19T16:25:43Z</time></trkpt><trkpt lat="37.02516977745175" lon="15.100513381140697"><ele>282.0</ele><time>2026-04-19T16:25:44Z</time></trkpt><trkpt lat="37.025077052829374" lon="15.100747963553044"><ele>282.0</ele><time>2026-04-19T16:25:45Z</time></trkpt><trkpt lat="37.024977110025326" lon="15.100980143961714"><ele>282.0</ele><time>2026-04-19T16:25:46Z</time></trkpt><trkpt lat="37.02486970597974" lon="15.101205628568053"><ele>283.0</ele><time>2026-04-19T16:25:47Z</time></trkpt><trkpt lat="37.02475272501111" lon="15.101424584190264"><ele>284.0</ele><time>2026-04-19T16:25:48Z</time></trkpt><trkpt lat="37.02462528332204" lon="15.101635170289809"><ele>285.0</ele><time>2026-04-19T16:25:49Z</time></trkpt><trkpt lat="37.02449056206866" lon="15.101842631452039"><ele>282.3333333333333</ele><time>2026-04-19T16:25:50Z</time></trkpt><trkpt lat="37.02434820291142" lon="15.102048516210605"><ele>279.66666666666663</ele><time>2026-04-19T16:25:51Z</time></trkpt><trkpt lat="37.024201665177884" lon="15.102249898936414"><ele>277.0</ele><time>2026-04-19T16:25:52Z</time></trkpt><trkpt lat="37.024055420555435" lon="15.102454387074902"><ele>275.3333333333333</ele><time>2026-04-19T16:25:53Z</time></trkpt><trkpt lat="37.0239053667965" lon="15.102661082206197"><ele>273.6666666666667</ele><time>2026-04-19T16:25:54Z</time></trkpt><trkpt lat="37.023755318864104" lon="15.102868126326511"><ele>272.0</ele><time>2026-04-19T16:25:55Z</time></trkpt><trkpt lat="37.02360194459501" lon="15.103075629736159"><ele>269.6666666666667</ele><time>2026-04-19T16:25:56Z</time></trkpt><trkpt lat="37.023450295866816" lon="15.103282879534962"><ele>267.3333333333333</ele><time>2026-04-19T16:25:57Z</time></trkpt><trkpt lat="37.02330052358997" lon="15.103490564961312"><ele>265.0</ele><time>2026-04-19T16:25:58Z</time></trkpt><trkpt lat="37.02315368689038" lon="15.103700878666634"><ele>265.0</ele><time>2026-04-19T16:25:59Z</time></trkpt><trkpt lat="37.023003521711146" lon="15.103905160272635"><ele>265.0</ele><time>2026-04-19T16:26:00Z</time></trkpt><trkpt lat="37.02285529290259" lon="15.104112320391266"><ele>265.0</ele><time>2026-04-19T16:26:01Z</time></trkpt><trkpt lat="37.022711384644154" lon="15.104319169231424"><ele>264.0</ele><time>2026-04-19T16:26:02Z</time></trkpt><trkpt lat="37.02256781465997" lon="15.104520559202856"><ele>263.0</ele><time>2026-04-19T16:26:03Z</time></trkpt><trkpt lat="37.02242511246" lon="15.10472034655563"><ele>262.0</ele><time>2026-04-19T16:26:04Z</time></trkpt><trkpt lat="37.022285001136275" lon="15.104918440173153"><ele>260.66666666666663</ele><time>2026-04-19T16:26:05Z</time></trkpt><trkpt lat="37.02214638348559" lon="15.10511433050743"><ele>259.3333333333333</ele><time>2026-04-19T16:26:06Z</time></trkpt><trkpt lat="37.02200842339082" lon="15.105305809661719"><ele>258.0</ele><time>2026-04-19T16:26:07Z</time></trkpt><trkpt lat="37.0218716279506" lon="15.10549408367208"><ele>258.0</ele><time>2026-04-19T16:26:08Z</time></trkpt><trkpt lat="37.02173661113453" lon="15.105679395591084"><ele>258.0</ele><time>2026-04-19T16:26:09Z</time></trkpt><trkpt lat="37.02160200170265" lon="15.10586378988866"><ele>258.0</ele><time>2026-04-19T16:26:10Z</time></trkpt><trkpt lat="37.02146972898377" lon="15.106044526900334"><ele>257.3333333333333</ele><time>2026-04-19T16:26:10.999Z</time></trkpt><trkpt lat="37.02134523577004" lon="15.10622409171132"><ele>256.66666666666663</ele><time>2026-04-19T16:26:11.999Z</time></trkpt><trkpt lat="37.02122589319431" lon="15.106398120852734"><ele>256.0</ele><time>2026-04-19T16:26:12.999Z</time></trkpt><trkpt lat="37.02110844433406" lon="15.106565873921927"><ele>254.66666666666666</ele><time>2026-04-19T16:26:13.999Z</time></trkpt><trkpt lat="37.02099718972662" lon="15.10673002777304"><ele>253.33333333333331</ele><time>2026-04-19T16:26:14.999Z</time></trkpt><trkpt lat="37.02089699078973" lon="15.106893589912291"><ele>252.0</ele><time>2026-04-19T16:26:15.999Z</time></trkpt><trkpt lat="37.020803616003604" lon="15.107058466229356"><ele>252.0</ele><time>2026-04-19T16:26:16.999Z</time></trkpt><trkpt lat="37.02071758595917" lon="15.107221921152059"><ele>252.0</ele><time>2026-04-19T16:26:17.999Z</time></trkpt><trkpt lat="37.02064067543803" lon="15.107385014312742"><ele>252.0</ele><time>2026-04-19T16:26:18.999Z</time></trkpt><trkpt lat="37.02057016657815" lon="15.107543886715389"><ele>251.5</ele><time>2026-04-19T16:26:19.999Z</time></trkpt><trkpt lat="37.02050422723419" lon="15.10770390835372"><ele>251.0</ele><time>2026-04-19T16:26:20.999Z</time></trkpt><trkpt lat="37.02043996177471" lon="15.107860375046533"><ele>250.5</ele><time>2026-04-19T16:26:21.999Z</time></trkpt><trkpt lat="37.020379540887554" lon="15.108013608751452"><ele>250.0</ele><time>2026-04-19T16:26:22.999Z</time></trkpt><trkpt lat="37.020330363276564" lon="15.108167115251927"><ele>249.0</ele><time>2026-04-19T16:26:23.999Z</time></trkpt><trkpt lat="37.02028517341547" lon="15.10832486864257"><ele>248.0</ele><time>2026-04-19T16:26:24.999Z</time></trkpt><trkpt lat="37.02024104416559" lon="15.108485984981053"><ele>247.0</ele><time>2026-04-19T16:26:25.999Z</time></trkpt><trkpt lat="37.020204729293425" lon="15.108652805457753"><ele>246.0</ele><time>2026-04-19T16:26:26.999Z</time></trkpt><trkpt lat="37.020169314789726" lon="15.108826422433516"><ele>246.0</ele><time>2026-04-19T16:26:27.999Z</time></trkpt><trkpt lat="37.020135723615695" lon="15.109007663329054"><ele>246.0</ele><time>2026-04-19T16:26:28.999Z</time></trkpt><trkpt lat="37.02010645340896" lon="15.109195292130366"><ele>246.0</ele><time>2026-04-19T16:26:29.999Z</time></trkpt><trkpt lat="37.02008196676375" lon="15.10938935987177"><ele>245.33333333333331</ele><time>2026-04-19T16:26:30.999Z</time></trkpt><trkpt lat="37.020034894891474" lon="15.10958685865098"><ele>244.66666666666666</ele><time>2026-04-19T16:26:31.999Z</time></trkpt><trkpt lat="37.020021097597144" lon="15.109794728662996"><ele>244.0</ele><time>2026-04-19T16:26:32.999Z</time></trkpt><trkpt lat="37.02001205847311" lon="15.110007435295307"><ele>244.0</ele><time>2026-04-19T16:26:33.999Z</time></trkpt><trkpt lat="37.020010030375644" lon="15.110227034531015"><ele>244.0</ele><time>2026-04-19T16:26:34.999Z</time></trkpt><trkpt lat="37.02001666145566" lon="15.110448089883848"><ele>244.0</ele><time>2026-04-19T16:26:35.999Z</time></trkpt><trkpt lat="37.020029556851945" lon="15.110669444977749"><ele>244.0</ele><time>2026-04-19T16:26:36.999Z</time></trkpt><trkpt lat="37.02005108432523" lon="15.110889319029798"><ele>244.0</ele><time>2026-04-19T16:26:37.999Z</time></trkpt><trkpt lat="37.020091020708115" lon="15.111098866078597"><ele>244.0</ele><time>2026-04-19T16:26:38.999Z</time></trkpt><trkpt lat="37.02011526309473" lon="15.111309843968536"><ele>244.0</ele><time>2026-04-19T16:26:39.999Z</time></trkpt><trkpt lat="37.02014432448061" lon="15.111526960437175"><ele>244.0</ele><time>2026-04-19T16:26:40.999Z</time></trkpt><trkpt lat="37.02018067021587" lon="15.111748837730259"><ele>244.0</ele><time>2026-04-19T16:26:41.999Z</time></trkpt><trkpt lat="37.020219377494115" lon="15.111978037700542"><ele>243.0</ele><time>2026-04-19T16:26:42.999Z</time></trkpt><trkpt lat="37.02025565191279" lon="15.112213706610003"><ele>242.0</ele><time>2026-04-19T16:26:43.999Z</time></trkpt><trkpt lat="37.02029005466453" lon="15.112454704692801"><ele>241.0</ele><time>2026-04-19T16:26:44.999Z</time></trkpt><trkpt lat="37.02032674499513" lon="15.112699875988424"><ele>240.66666666666666</ele><time>2026-04-19T16:26:45.999Z</time></trkpt><trkpt lat="37.020367060038154" lon="15.112949261051142"><ele>240.33333333333331</ele><time>2026-04-19T16:26:46.999Z</time></trkpt><trkpt lat="37.02040668850129" lon="15.11320285203688"><ele>240.0</ele><time>2026-04-19T16:26:47.999Z</time></trkpt><trkpt lat="37.0204456934974" lon="15.113459015914286"><ele>240.0</ele><time>2026-04-19T16:26:48.999Z</time></trkpt><trkpt lat="37.02048858570013" lon="15.113716148318098"><ele>240.0</ele><time>2026-04-19T16:26:49.999Z</time></trkpt><trkpt lat="37.020531858985954" lon="15.113975729107592"><ele>240.0</ele><time>2026-04-19T16:26:50.999Z</time></trkpt><trkpt lat="37.02057335047022" lon="15.114238780400905"><ele>239.33333333333331</ele><time>2026-04-19T16:26:51.999Z</time></trkpt><trkpt lat="37.02061497481414" lon="15.114503972978376"><ele>238.66666666666666</ele><time>2026-04-19T16:26:52.999Z</time></trkpt><trkpt lat="37.02063404097422" lon="15.114776047724744"><ele>238.0</ele><time>2026-04-19T16:26:53.999Z</time></trkpt><trkpt lat="37.02067512695091" lon="15.115043615665417"><ele>237.33333333333331</ele><time>2026-04-19T16:26:54.999Z</time></trkpt><trkpt lat="37.02071580987827" lon="15.115308558795578"><ele>236.66666666666669</ele><time>2026-04-19T16:26:55.999Z</time></trkpt><trkpt lat="37.02075593370019" lon="15.115569860808153"><ele>236.0</ele><time>2026-04-19T16:26:56.999Z</time></trkpt><trkpt lat="37.02079608748066" lon="15.115831357943293"><ele>235.66666666666669</ele><time>2026-04-19T16:26:57.999Z</time></trkpt><trkpt lat="37.02083590989524" lon="15.116090697077059"><ele>235.33333333333331</ele><time>2026-04-19T16:26:58.999Z</time></trkpt><trkpt lat="37.02087559190302" lon="15.116349121835034"><ele>235.0</ele><time>2026-04-19T16:26:59.999Z</time></trkpt><trkpt lat="37.02091477112683" lon="15.116604272254602"><ele>235.0</ele><time>2026-04-19T16:27:00.999Z</time></trkpt><trkpt lat="37.020954138283855" lon="15.116860646591293"><ele>235.0</ele><time>2026-04-19T16:27:01.999Z</time></trkpt><trkpt lat="37.020994004387084" lon="15.117120270260285"><ele>235.0</ele><time>2026-04-19T16:27:02.999Z</time></trkpt><trkpt lat="37.021035353118265" lon="15.11737876037509"><ele>234.33333333333331</ele><time>2026-04-19T16:27:03.999Z</time></trkpt><trkpt lat="37.0210887287006" lon="15.11762245916222"><ele>233.66666666666669</ele><time>2026-04-19T16:27:04.999Z</time></trkpt><trkpt lat="37.02112502773924" lon="15.11785874252946"><ele>233.0</ele><time>2026-04-19T16:27:05.999Z</time></trkpt><trkpt lat="37.021161331193845" lon="15.118088906809943"><ele>233.66666666666669</ele><time>2026-04-19T16:27:06.999Z</time></trkpt><trkpt lat="37.02119697163121" lon="15.118315699178726"><ele>234.33333333333331</ele><time>2026-04-19T16:27:07.999Z</time></trkpt><trkpt lat="37.021233294384075" lon="15.118542937003577"><ele>235.0</ele><time>2026-04-19T16:27:08.999Z</time></trkpt><trkpt lat="37.02125242009735" lon="15.118773397834273"><ele>235.0</ele><time>2026-04-19T16:27:09.999Z</time></trkpt><trkpt lat="37.021287770103946" lon="15.119004271964016"><ele>235.0</ele><time>2026-04-19T16:27:10.999Z</time></trkpt><trkpt lat="37.021323080279096" lon="15.11924182233925"><ele>235.0</ele><time>2026-04-19T16:27:11.999Z</time></trkpt><trkpt lat="37.02135847080556" lon="15.119485173403831"><ele>235.0</ele><time>2026-04-19T16:27:12.999Z</time></trkpt><trkpt lat="37.02140609830896" lon="15.119732785051866"><ele>235.0</ele><time>2026-04-19T16:27:13.999Z</time></trkpt><trkpt lat="37.02143019854222" lon="15.119988433543861"><ele>235.0</ele><time>2026-04-19T16:27:14.999Z</time></trkpt><trkpt lat="37.021448780325805" lon="15.120248721677815"><ele>235.0</ele><time>2026-04-19T16:27:15.999Z</time></trkpt><trkpt lat="37.02145926094245" lon="15.120513467065384"><ele>235.0</ele><time>2026-04-19T16:27:16.999Z</time></trkpt><trkpt lat="37.02146249743639" lon="15.120782805878466"><ele>235.0</ele><time>2026-04-19T16:27:17.999Z</time></trkpt><trkpt lat="37.021457627208626" lon="15.121053825352707"><ele>234.66666666666666</ele><time>2026-04-19T16:27:18.999Z</time></trkpt><trkpt lat="37.021444395225565" lon="15.121330907933336"><ele>234.33333333333331</ele><time>2026-04-19T16:27:19.999Z</time></trkpt><trkpt lat="37.021421557947136" lon="15.121611879934786"><ele>234.0</ele><time>2026-04-19T16:27:20.999Z</time></trkpt><trkpt lat="37.02138456644339" lon="15.121895813410205"><ele>233.33333333333331</ele><time>2026-04-19T16:27:21.999Z</time></trkpt><trkpt lat="37.02135914695631" lon="15.122171527893483"><ele>232.66666666666666</ele><time>2026-04-19T16:27:22.999Z</time></trkpt><trkpt lat="37.02133419666224" lon="15.122442153170715"><ele>232.0</ele><time>2026-04-19T16:27:23.999Z</time></trkpt><trkpt lat="37.021310483877855" lon="15.122699355842082"><ele>231.66666666666666</ele><time>2026-04-19T16:27:24.999Z</time></trkpt><trkpt lat="37.02128850121182" lon="15.12294379042295"><ele>231.33333333333331</ele><time>2026-04-19T16:27:25.999Z</time></trkpt><trkpt lat="37.02126897948176" lon="15.123171082059994"><ele>231.0</ele><time>2026-04-19T16:27:26.999Z</time></trkpt><trkpt lat="37.021250941210845" lon="15.12338110166307"><ele>230.66666666666669</ele><time>2026-04-19T16:27:27.999Z</time></trkpt><trkpt lat="37.021233881717706" lon="15.123582361157288"><ele>230.33333333333334</ele><time>2026-04-19T16:27:28.999Z</time></trkpt><trkpt lat="37.02123275983613" lon="15.123776306349892"><ele>230.0</ele><time>2026-04-19T16:27:29.999Z</time></trkpt><trkpt lat="37.02121394127865" lon="15.12395809835545"><ele>229.5</ele><time>2026-04-19T16:27:31Z</time></trkpt><trkpt lat="37.02119559597291" lon="15.124121868870134"><ele>229.0</ele><time>2026-04-19T16:27:32Z</time></trkpt><trkpt lat="37.02117849604268" lon="15.124270380986134"><ele>228.5</ele><time>2026-04-19T16:27:33Z</time></trkpt><trkpt lat="37.02116375944966" lon="15.12441360826471"><ele>228.0</ele><time>2026-04-19T16:27:34Z</time></trkpt><trkpt lat="37.021151581123306" lon="15.12456385125097"><ele>228.0</ele><time>2026-04-19T16:27:35Z</time></trkpt><trkpt lat="37.02113978694367" lon="15.124728381247442"><ele>228.0</ele><time>2026-04-19T16:27:36Z</time></trkpt><trkpt lat="37.02112757045578" lon="15.124901135970589"><ele>228.0</ele><time>2026-04-19T16:27:37Z</time></trkpt><trkpt lat="37.02111382507619" lon="15.125075349704227"><ele>228.0</ele><time>2026-04-19T16:27:38Z</time></trkpt><trkpt lat="37.021098063825676" lon="15.12524436513992"><ele>227.60000000000002</ele><time>2026-04-19T16:27:39Z</time></trkpt><trkpt lat="37.02108319894212" lon="15.125408892766307"><ele>227.20000000000002</ele><time>2026-04-19T16:27:40Z</time></trkpt><trkpt lat="37.02107005415921" lon="15.125556046667567"><ele>226.8</ele><time>2026-04-19T16:27:41Z</time></trkpt><trkpt lat="37.02105381127673" lon="15.125684706821673"><ele>226.4</ele><time>2026-04-19T16:27:42Z</time></trkpt><trkpt lat="37.0210422464103" lon="15.125787588414186"><ele>226.0</ele><time>2026-04-19T16:27:43Z</time></trkpt><trkpt lat="37.02104216316758" lon="15.125900895943527"><ele>226.0</ele><time>2026-04-19T16:27:45Z</time></trkpt><trkpt lat="37.0211304905111" lon="15.12580654092637"><ele>226.00000000000003</ele><time>2026-04-19T16:27:51Z</time></trkpt><trkpt lat="37.021124992753556" lon="15.125668463920244"><ele>226.00000000000003</ele><time>2026-04-19T16:27:53Z</time></trkpt><trkpt lat="37.02112918571431" lon="15.125574614354644"><ele>226.0</ele><time>2026-04-19T16:27:54Z</time></trkpt><trkpt lat="37.021136767216404" lon="15.125465458373364"><ele>226.0</ele><time>2026-04-19T16:27:55Z</time></trkpt><trkpt lat="37.02114553156711" lon="15.125335827266117"><ele>225.8</ele><time>2026-04-19T16:27:56Z</time></trkpt><trkpt lat="37.021155758295684" lon="15.125188901976221"><ele>225.60000000000002</ele><time>2026-04-19T16:27:57Z</time></trkpt><trkpt lat="37.02116555298813" lon="15.12504852543435"><ele>225.4</ele><time>2026-04-19T16:27:58Z</time></trkpt><trkpt lat="37.021176451147035" lon="15.124920698269184"><ele>225.2</ele><time>2026-04-19T16:27:59Z</time></trkpt><trkpt lat="37.02118867058286" lon="15.124791725115614"><ele>225.0</ele><time>2026-04-19T16:28:00Z</time></trkpt><trkpt lat="37.02119978948899" lon="15.124657305353786"><ele>225.6</ele><time>2026-04-19T16:28:01Z</time></trkpt><trkpt lat="37.021208268897844" lon="15.124516276243876"><ele>226.2</ele><time>2026-04-19T16:28:02Z</time></trkpt><trkpt lat="37.02121957820036" lon="15.124372853321395"><ele>226.8</ele><time>2026-04-19T16:28:03Z</time></trkpt><trkpt lat="37.02122984857463" lon="15.124236586052064"><ele>227.4</ele><time>2026-04-19T16:28:04Z</time></trkpt><trkpt lat="37.02123896423239" lon="15.124106895923225"><ele>228.0</ele><time>2026-04-19T16:28:05Z</time></trkpt><trkpt lat="37.021250643389074" lon="15.123988199514285"><ele>228.33333333333334</ele><time>2026-04-19T16:28:06Z</time></trkpt><trkpt lat="37.02125960432782" lon="15.123875999197686"><ele>228.66666666666669</ele><time>2026-04-19T16:28:07Z</time></trkpt><trkpt lat="37.02126988345372" lon="15.123769960028373"><ele>229.0</ele><time>2026-04-19T16:28:08Z</time></trkpt><trkpt lat="37.02127923525188" lon="15.123663451966973"><ele>229.33333333333334</ele><time>2026-04-19T16:28:09Z</time></trkpt><trkpt lat="37.02128793910268" lon="15.123563764337842"><ele>229.66666666666669</ele><time>2026-04-19T16:28:10Z</time></trkpt><trkpt lat="37.02129395212324" lon="15.123474991366853"><ele>230.0</ele><time>2026-04-19T16:28:11Z</time></trkpt><trkpt lat="37.02128712292238" lon="15.123395444949269"><ele>230.0</ele><time>2026-04-19T16:28:12Z</time></trkpt><trkpt lat="37.02108941125136" lon="15.123398201669687"><ele>230.0</ele><time>2026-04-19T16:28:15.999Z</time></trkpt><trkpt lat="37.02103014752821" lon="15.12344994174473"><ele>230.0</ele><time>2026-04-19T16:28:16.999Z</time></trkpt><trkpt lat="37.020976565121806" lon="15.123523251439183"><ele>230.0</ele><time>2026-04-19T16:28:17.999Z</time></trkpt><trkpt lat="37.02090328773764" lon="15.123589172317466"><ele>230.0</ele><time>2026-04-19T16:28:18.999Z</time></trkpt><trkpt lat="37.020819472983575" lon="15.123681144072464"><ele>228.75</ele><time>2026-04-19T16:28:19.999Z</time></trkpt><trkpt lat="37.020724059533634" lon="15.123789133207495"><ele>227.5</ele><time>2026-04-19T16:28:20.999Z</time></trkpt><trkpt lat="37.020633390695714" lon="15.12389140940819"><ele>226.25</ele><time>2026-04-19T16:28:21.999Z</time></trkpt><trkpt lat="37.02054081536372" lon="15.123992845859696"><ele>225.0</ele><time>2026-04-19T16:28:22.999Z</time></trkpt><trkpt lat="37.02044650072472" lon="15.124096188097583"><ele>224.5</ele><time>2026-04-19T16:28:23.999Z</time></trkpt><trkpt lat="37.02034968889601" lon="15.124202266555123"><ele>224.0</ele><time>2026-04-19T16:28:24.999Z</time></trkpt><trkpt lat="37.02025103637073" lon="15.124310361886845"><ele>223.5</ele><time>2026-04-19T16:28:25.999Z</time></trkpt><trkpt lat="37.0201498988411" lon="15.124421180087232"><ele>223.0</ele><time>2026-04-19T16:28:26.999Z</time></trkpt><trkpt lat="37.02004749147685" lon="15.124533236112395"><ele>222.5</ele><time>2026-04-19T16:28:27.999Z</time></trkpt><trkpt lat="37.01994282107308" lon="15.124647812705044"><ele>222.0</ele><time>2026-04-19T16:28:28.999Z</time></trkpt><trkpt lat="37.0198375437945" lon="15.124763159731012"><ele>221.5</ele><time>2026-04-19T16:28:29.999Z</time></trkpt><trkpt lat="37.0197302620003" lon="15.12488070301616"><ele>221.0</ele><time>2026-04-19T16:28:30.999Z</time></trkpt><trkpt lat="37.01962143616403" lon="15.1249999380278"><ele>221.0</ele><time>2026-04-19T16:28:31.999Z</time></trkpt><trkpt lat="37.019513739996064" lon="15.125117935306339"><ele>221.0</ele><time>2026-04-19T16:28:32.999Z</time></trkpt><trkpt lat="37.01940805401487" lon="15.125233730126958"><ele>221.0</ele><time>2026-04-19T16:28:33.999Z</time></trkpt><trkpt lat="37.01930430775936" lon="15.125347399691934"><ele>221.0</ele><time>2026-04-19T16:28:34.999Z</time></trkpt><trkpt lat="37.01920149978387" lon="15.125459873794345"><ele>220.5</ele><time>2026-04-19T16:28:35.999Z</time></trkpt><trkpt lat="37.019110342375086" lon="15.125586254619456"><ele>220.0</ele><time>2026-04-19T16:28:36.999Z</time></trkpt><trkpt lat="37.01899627280477" lon="15.125684213962387"><ele>219.5</ele><time>2026-04-19T16:28:37.999Z</time></trkpt><trkpt lat="37.018892610715874" lon="15.125797530306523"><ele>219.0</ele><time>2026-04-19T16:28:38.999Z</time></trkpt><trkpt lat="37.018785719625555" lon="15.125914376377319"><ele>218.5</ele><time>2026-04-19T16:28:39.999Z</time></trkpt><trkpt lat="37.0186790581397" lon="15.126030971448452"><ele>218.0</ele><time>2026-04-19T16:28:40.999Z</time></trkpt><trkpt lat="37.01857067898381" lon="15.126149444173082"><ele>217.5</ele><time>2026-04-19T16:28:41.999Z</time></trkpt><trkpt lat="37.01846265341117" lon="15.126267530375005"><ele>217.0</ele><time>2026-04-19T16:28:42.999Z</time></trkpt><trkpt lat="37.01835488559078" lon="15.126386237581182"><ele>217.0</ele><time>2026-04-19T16:28:43.999Z</time></trkpt><trkpt lat="37.018247298760606" lon="15.126505076822308"><ele>217.0</ele><time>2026-04-19T16:28:44.999Z</time></trkpt><trkpt lat="37.018139851024195" lon="15.126623762422126"><ele>217.0</ele><time>2026-04-19T16:28:45.999Z</time></trkpt><trkpt lat="37.0180323306949" lon="15.126742528206995"><ele>217.0</ele><time>2026-04-19T16:28:46.999Z</time></trkpt><trkpt lat="37.01792461156259" lon="15.126861513586721"><ele>217.0</ele><time>2026-04-19T16:28:47.999Z</time></trkpt><trkpt lat="37.017818416761855" lon="15.126977561427026"><ele>217.0</ele><time>2026-04-19T16:28:48.999Z</time></trkpt><trkpt lat="37.01771751222694" lon="15.127086636839584"><ele>217.0</ele><time>2026-04-19T16:28:49.999Z</time></trkpt><trkpt lat="37.0176216530865" lon="15.127190258295265"><ele>217.0</ele><time>2026-04-19T16:28:50.999Z</time></trkpt><trkpt lat="37.01753194116436" lon="15.127288453509617"><ele>216.5</ele><time>2026-04-19T16:28:51.999Z</time></trkpt><trkpt lat="37.01744585692647" lon="15.127382795605975"><ele>216.0</ele><time>2026-04-19T16:28:52.999Z</time></trkpt><trkpt lat="37.01735682176766" lon="15.127480371898669"><ele>215.5</ele><time>2026-04-19T16:28:53.999Z</time></trkpt><trkpt lat="37.01725729631003" lon="15.127589212579688"><ele>215.0</ele><time>2026-04-19T16:28:54.999Z</time></trkpt><trkpt lat="37.01714705054029" lon="15.127704848002722"><ele>214.75</ele><time>2026-04-19T16:28:55.999Z</time></trkpt><trkpt lat="37.01703266517235" lon="15.127824825319856"><ele>214.5</ele><time>2026-04-19T16:28:56.999Z</time></trkpt><trkpt lat="37.016923135592" lon="15.127941900552166"><ele>214.25</ele><time>2026-04-19T16:28:57.999Z</time></trkpt><trkpt lat="37.01682545544955" lon="15.128049393674964"><ele>214.0</ele><time>2026-04-19T16:28:58.999Z</time></trkpt><trkpt lat="37.016735931742204" lon="15.128147910978054"><ele>214.5</ele><time>2026-04-19T16:28:59.999Z</time></trkpt><trkpt lat="37.01664584852137" lon="15.128247135072687"><ele>215.0</ele><time>2026-04-19T16:29:00.999Z</time></trkpt><trkpt lat="37.01654268586168" lon="15.128360777958285"><ele>215.5</ele><time>2026-04-19T16:29:01.999Z</time></trkpt><trkpt lat="37.01643257452283" lon="15.128482075376438"><ele>216.0</ele><time>2026-04-19T16:29:02.999Z</time></trkpt><trkpt lat="37.016332125589614" lon="15.128592728812034"><ele>216.0</ele><time>2026-04-19T16:29:03.999Z</time></trkpt><trkpt lat="37.01623629494686" lon="15.128698294793152"><ele>216.0</ele><time>2026-04-19T16:29:04.999Z</time></trkpt><trkpt lat="37.01614304297381" lon="15.128800269984628"><ele>216.0</ele><time>2026-04-19T16:29:05.999Z</time></trkpt><trkpt lat="37.01605852240454" lon="15.128890680311663"><ele>216.0</ele><time>2026-04-19T16:29:06.999Z</time></trkpt><trkpt lat="37.015980464421645" lon="15.128974178294815"><ele>216.0</ele><time>2026-04-19T16:29:07.999Z</time></trkpt><trkpt lat="37.015906433923014" lon="15.129055763097025"><ele>216.00000000000003</ele><time>2026-04-19T16:29:08.999Z</time></trkpt><trkpt lat="37.015824973767565" lon="15.129144513445295"><ele>216.00000000000003</ele><time>2026-04-19T16:29:09.999Z</time></trkpt><trkpt lat="37.01574242791777" lon="15.129237459937118"><ele>216.0</ele><time>2026-04-19T16:29:10.999Z</time></trkpt><trkpt lat="37.01566889851937" lon="15.129323125956503"><ele>216.0</ele><time>2026-04-19T16:29:11.999Z</time></trkpt><trkpt lat="37.015600703034515" lon="15.129418363106403"><ele>216.0</ele><time>2026-04-19T16:29:12.999Z</time></trkpt><trkpt lat="37.015558546661204" lon="15.129558911287477"><ele>216.0</ele><time>2026-04-19T16:29:13.999Z</time></trkpt><trkpt lat="37.01552224072307" lon="15.12972523053336"><ele>216.0</ele><time>2026-04-19T16:29:14.999Z</time></trkpt><trkpt lat="37.01547807053482" lon="15.129936156294473"><ele>216.0</ele><time>2026-04-19T16:29:15.999Z</time></trkpt><trkpt lat="37.015431695637254" lon="15.130157610671628"><ele>216.0</ele><time>2026-04-19T16:29:16.999Z</time></trkpt><trkpt lat="37.015388566466314" lon="15.130363565142032"><ele>216.0</ele><time>2026-04-19T16:29:17.999Z</time></trkpt><trkpt lat="37.01533917550974" lon="15.130599421631489"><ele>216.0</ele><time>2026-04-19T16:29:18.999Z</time></trkpt><trkpt lat="37.015291365593576" lon="15.130827728131687"><ele>216.0</ele><time>2026-04-19T16:29:19.999Z</time></trkpt><trkpt lat="37.01524654757926" lon="15.131040109532735"><ele>216.0</ele><time>2026-04-19T16:29:20.999Z</time></trkpt><trkpt lat="37.015203722253766" lon="15.131242120273514"><ele>216.0</ele><time>2026-04-19T16:29:21.999Z</time></trkpt><trkpt lat="37.01516262698312" lon="15.13143596955445"><ele>215.75</ele><time>2026-04-19T16:29:22.999Z</time></trkpt><trkpt lat="37.01512452719291" lon="15.131616882761422"><ele>215.5</ele><time>2026-04-19T16:29:23.999Z</time></trkpt><trkpt lat="37.015088714445056" lon="15.131789391925716"><ele>215.25</ele><time>2026-04-19T16:29:24.999Z</time></trkpt><trkpt lat="37.01505241078" lon="15.131964265808612"><ele>215.0</ele><time>2026-04-19T16:29:25.999Z</time></trkpt><trkpt lat="37.01501417811224" lon="15.132148431569666"><ele>214.66666666666669</ele><time>2026-04-19T16:29:26.999Z</time></trkpt><trkpt lat="37.01497432036125" lon="15.13234042555326"><ele>214.33333333333331</ele><time>2026-04-19T16:29:27.999Z</time></trkpt><trkpt lat="37.01493188590386" lon="15.13254347541495"><ele>214.0</ele><time>2026-04-19T16:29:28.999Z</time></trkpt><trkpt lat="37.014887499784535" lon="15.132753539825805"><ele>213.33333333333331</ele><time>2026-04-19T16:29:29.999Z</time></trkpt><trkpt lat="37.014841914036666" lon="15.132969282084934"><ele>212.66666666666669</ele><time>2026-04-19T16:29:30.999Z</time></trkpt><trkpt lat="37.01479551231752" lon="15.133188886547808"><ele>212.0</ele><time>2026-04-19T16:29:31.999Z</time></trkpt><trkpt lat="37.0147507657863" lon="15.133400656892452"><ele>211.66666666666669</ele><time>2026-04-19T16:29:32.999Z</time></trkpt><trkpt lat="37.014704489088864" lon="15.133619882460634"><ele>211.33333333333331</ele><time>2026-04-19T16:29:33.999Z</time></trkpt><trkpt lat="37.01465875510047" lon="15.13384010235543"><ele>211.0</ele><time>2026-04-19T16:29:34.999Z</time></trkpt><trkpt lat="37.0146162246977" lon="15.134044895930957"><ele>211.0</ele><time>2026-04-19T16:29:35.999Z</time></trkpt><trkpt lat="37.014574827183964" lon="15.134245175904804"><ele>211.0</ele><time>2026-04-19T16:29:37Z</time></trkpt><trkpt lat="37.014532538862895" lon="15.134450265214252"><ele>211.0</ele><time>2026-04-19T16:29:38Z</time></trkpt><trkpt lat="37.014490955359136" lon="15.134647454406068"><ele>211.0</ele><time>2026-04-19T16:29:39Z</time></trkpt><trkpt lat="37.01445078749697" lon="15.134832218239655"><ele>211.0</ele><time>2026-04-19T16:29:40Z</time></trkpt><trkpt lat="37.014412767170036" lon="15.135007954384147"><ele>211.0</ele><time>2026-04-19T16:29:41Z</time></trkpt><trkpt lat="37.01437934165064" lon="15.135176714858485"><ele>211.0</ele><time>2026-04-19T16:29:42Z</time></trkpt><trkpt lat="37.01434729462869" lon="15.135338515532116"><ele>211.0</ele><time>2026-04-19T16:29:43Z</time></trkpt><trkpt lat="37.01431453937988" lon="15.135485666146863"><ele>211.0</ele><time>2026-04-19T16:29:44Z</time></trkpt><trkpt lat="37.014278023917164" lon="15.135623187720128"><ele>211.0</ele><time>2026-04-19T16:29:45Z</time></trkpt><trkpt lat="37.014200075449125" lon="15.135726887783157"><ele>211.0</ele><time>2026-04-19T16:29:46Z</time></trkpt><trkpt lat="37.014097521325986" lon="15.135852872974363"><ele>210.66666666666666</ele><time>2026-04-19T16:29:47Z</time></trkpt><trkpt lat="37.01396968043932" lon="15.136011621454855"><ele>210.33333333333331</ele><time>2026-04-19T16:29:48Z</time></trkpt><trkpt lat="37.01383288100831" lon="15.136184219243427"><ele>210.0</ele><time>2026-04-19T16:29:49Z</time></trkpt><trkpt lat="37.013699411061886" lon="15.136352455920807"><ele>210.0</ele><time>2026-04-19T16:29:50Z</time></trkpt><trkpt lat="37.013570992743325" lon="15.136516885142594"><ele>210.0</ele><time>2026-04-19T16:29:51Z</time></trkpt><trkpt lat="37.01342264281174" lon="15.136707970549011"><ele>210.0</ele><time>2026-04-19T16:29:52Z</time></trkpt><trkpt lat="37.01326319010234" lon="15.136907943525072"><ele>210.33333333333331</ele><time>2026-04-19T16:29:53Z</time></trkpt><trkpt lat="37.01310292876231" lon="15.137107898428638"><ele>210.66666666666666</ele><time>2026-04-19T16:29:54Z</time></trkpt><trkpt lat="37.01295364645071" lon="15.137294155041813"><ele>211.0</ele><time>2026-04-19T16:29:55Z</time></trkpt><trkpt lat="37.01281013166388" lon="15.137473215548388"><ele>211.0</ele><time>2026-04-19T16:29:56Z</time></trkpt><trkpt lat="37.012669062937924" lon="15.137649224209705"><ele>211.0</ele><time>2026-04-19T16:29:57Z</time></trkpt><trkpt lat="37.012527407023725" lon="15.137825965491082"><ele>211.0</ele><time>2026-04-19T16:29:58Z</time></trkpt><trkpt lat="37.0123824198427" lon="15.138008432917726"><ele>211.0</ele><time>2026-04-19T16:29:59Z</time></trkpt><trkpt lat="37.012244383214004" lon="15.138182184861137"><ele>211.0</ele><time>2026-04-19T16:30:00Z</time></trkpt><trkpt lat="37.01211594841103" lon="15.138343850579446"><ele>211.0</ele><time>2026-04-19T16:30:01Z</time></trkpt><trkpt lat="37.01199420781339" lon="15.138497090090917"><ele>210.33333333333331</ele><time>2026-04-19T16:30:02Z</time></trkpt><trkpt lat="37.01187679626667" lon="15.138644881024648"><ele>209.66666666666669</ele><time>2026-04-19T16:30:03Z</time></trkpt><trkpt lat="37.011765120663725" lon="15.138785858869637"><ele>209.0</ele><time>2026-04-19T16:30:04Z</time></trkpt><trkpt lat="37.011657410415616" lon="15.138921749125844"><ele>209.66666666666669</ele><time>2026-04-19T16:30:05Z</time></trkpt><trkpt lat="37.01154862225356" lon="15.139055888103213"><ele>210.33333333333331</ele><time>2026-04-19T16:30:06Z</time></trkpt><trkpt lat="37.01143968447656" lon="15.139187277189572"><ele>211.0</ele><time>2026-04-19T16:30:07Z</time></trkpt><trkpt lat="37.011333347085554" lon="15.139315830930546"><ele>211.0</ele><time>2026-04-19T16:30:08Z</time></trkpt><trkpt lat="37.01124116433173" lon="15.139451221556557"><ele>211.0</ele><time>2026-04-19T16:30:09Z</time></trkpt><trkpt lat="37.01118937922819" lon="15.139608002080923"><ele>211.0</ele><time>2026-04-19T16:30:10Z</time></trkpt><trkpt lat="37.01118251010313" lon="15.139780622568775"><ele>211.0</ele><time>2026-04-19T16:30:11Z</time></trkpt><trkpt lat="37.01114540848489" lon="15.139955605838338"><ele>211.33333333333331</ele><time>2026-04-19T16:30:12Z</time></trkpt><trkpt lat="37.01111891528917" lon="15.140155509046275"><ele>211.66666666666669</ele><time>2026-04-19T16:30:13Z</time></trkpt><trkpt lat="37.01108664391199" lon="15.140375798010673"><ele>212.0</ele><time>2026-04-19T16:30:14Z</time></trkpt><trkpt lat="37.01104662791946" lon="15.140636714788485"><ele>212.0</ele><time>2026-04-19T16:30:15Z</time></trkpt><trkpt lat="37.01100887797737" lon="15.140882856283135"><ele>212.0</ele><time>2026-04-19T16:30:16Z</time></trkpt><trkpt lat="37.010971819397" lon="15.141124489825502"><ele>212.0</ele><time>2026-04-19T16:30:17Z</time></trkpt><trkpt lat="37.01093505779502" lon="15.141361177220293"><ele>211.66666666666669</ele><time>2026-04-19T16:30:18Z</time></trkpt><trkpt lat="37.01090035124013" lon="15.141584399691874"><ele>211.33333333333331</ele><time>2026-04-19T16:30:18.999Z</time></trkpt><trkpt lat="37.01086695388916" lon="15.141799202104817"><ele>211.0</ele><time>2026-04-19T16:30:19.999Z</time></trkpt><trkpt lat="37.01083469070676" lon="15.142006708219407"><ele>212.33333333333331</ele><time>2026-04-19T16:30:20.999Z</time></trkpt><trkpt lat="37.0108036708956" lon="15.142204931886852"><ele>213.66666666666669</ele><time>2026-04-19T16:30:21.999Z</time></trkpt><trkpt lat="37.010773899901544" lon="15.14239729876257"><ele>215.0</ele><time>2026-04-19T16:30:22.999Z</time></trkpt><trkpt lat="37.01074737993277" lon="15.142583109835737"><ele>215.33333333333334</ele><time>2026-04-19T16:30:23.999Z</time></trkpt><trkpt lat="37.01072618287578" lon="15.142776132342156"><ele>215.66666666666669</ele><time>2026-04-19T16:30:24.999Z</time></trkpt><trkpt lat="37.01071940184534" lon="15.142975466441241"><ele>216.0</ele><time>2026-04-19T16:30:25.999Z</time></trkpt><trkpt lat="37.010718667342296" lon="15.143182826075291"><ele>216.66666666666669</ele><time>2026-04-19T16:30:26.999Z</time></trkpt><trkpt lat="37.0107210764891" lon="15.14339753649706"><ele>217.33333333333334</ele><time>2026-04-19T16:30:27.999Z</time></trkpt><trkpt lat="37.01072462260957" lon="15.143617723927862"><ele>218.0</ele><time>2026-04-19T16:30:28.999Z</time></trkpt><trkpt lat="37.01072752025571" lon="15.143845873721133"><ele>217.33333333333334</ele><time>2026-04-19T16:30:29.999Z</time></trkpt><trkpt lat="37.01072910576201" lon="15.144075167004218"><ele>216.66666666666669</ele><time>2026-04-19T16:30:30.999Z</time></trkpt><trkpt lat="37.01072973569536" lon="15.14430137019796"><ele>216.0</ele><time>2026-04-19T16:30:31.999Z</time></trkpt><trkpt lat="37.01073032769245" lon="15.144513950907479"><ele>216.0</ele><time>2026-04-19T16:30:32.999Z</time></trkpt><trkpt lat="37.01073089010038" lon="15.144715906366518"><ele>216.0</ele><time>2026-04-19T16:30:33.999Z</time></trkpt><trkpt lat="37.01073245273472" lon="15.14491521283773"><ele>216.0</ele><time>2026-04-19T16:30:34.999Z</time></trkpt><trkpt lat="37.01073397588745" lon="15.145100037933467"><ele>216.0</ele><time>2026-04-19T16:30:35.999Z</time></trkpt><trkpt lat="37.010735542615784" lon="15.145290150825252"><ele>216.0</ele><time>2026-04-19T16:30:36.999Z</time></trkpt><trkpt lat="37.01073704885268" lon="15.145472923390788"><ele>216.0</ele><time>2026-04-19T16:30:37.999Z</time></trkpt><trkpt lat="37.010738719082674" lon="15.145653785481423"><ele>216.0</ele><time>2026-04-19T16:30:38.999Z</time></trkpt><trkpt lat="37.01074042368899" lon="15.145833834552638"><ele>216.33333333333331</ele><time>2026-04-19T16:30:39.999Z</time></trkpt><trkpt lat="37.01074345313148" lon="15.14602389679839"><ele>216.66666666666666</ele><time>2026-04-19T16:30:40.999Z</time></trkpt><trkpt lat="37.01074654869867" lon="15.146213158368337"><ele>217.0</ele><time>2026-04-19T16:30:41.999Z</time></trkpt><trkpt lat="37.01074927729989" lon="15.146410935702665"><ele>216.0</ele><time>2026-04-19T16:30:42.999Z</time></trkpt><trkpt lat="37.010750014915075" lon="15.14661243893827"><ele>215.0</ele><time>2026-04-19T16:30:43.999Z</time></trkpt><trkpt lat="37.01074669042292" lon="15.146824234927339"><ele>214.0</ele><time>2026-04-19T16:30:44.999Z</time></trkpt><trkpt lat="37.010734792649195" lon="15.147033782417298"><ele>214.0</ele><time>2026-04-19T16:30:45.999Z</time></trkpt><trkpt lat="37.01071441705454" lon="15.147266613836274"><ele>214.0</ele><time>2026-04-19T16:30:46.999Z</time></trkpt><trkpt lat="37.010694733919344" lon="15.147493032119048"><ele>214.0</ele><time>2026-04-19T16:30:47.999Z</time></trkpt><trkpt lat="37.01067655607328" lon="15.147702134920781"><ele>213.33333333333331</ele><time>2026-04-19T16:30:48.999Z</time></trkpt><trkpt lat="37.010659166498606" lon="15.147904591268613"><ele>212.66666666666669</ele><time>2026-04-19T16:30:49.999Z</time></trkpt><trkpt lat="37.010643197657615" lon="15.14810544506093"><ele>212.0</ele><time>2026-04-19T16:30:50.999Z</time></trkpt><trkpt lat="37.01062567558689" lon="15.148295904329833"><ele>211.33333333333334</ele><time>2026-04-19T16:30:51.999Z</time></trkpt><trkpt lat="37.01059886040822" lon="15.148476122298034"><ele>210.66666666666669</ele><time>2026-04-19T16:30:52.999Z</time></trkpt><trkpt lat="37.010556557866" lon="15.148660371917309"><ele>210.0</ele><time>2026-04-19T16:30:53.999Z</time></trkpt><trkpt lat="37.01050064866343" lon="15.148874996091621"><ele>208.0</ele><time>2026-04-19T16:30:54.999Z</time></trkpt><trkpt lat="37.01044548576353" lon="15.149072398623607"><ele>206.0</ele><time>2026-04-19T16:30:55.999Z</time></trkpt><trkpt lat="37.010392673638414" lon="15.149257144149866"><ele>204.0</ele><time>2026-04-19T16:30:56.999Z</time></trkpt><trkpt lat="37.01034131133189" lon="15.149436125135363"><ele>204.0</ele><time>2026-04-19T16:30:57.999Z</time></trkpt><trkpt lat="37.010291344894135" lon="15.149602116516496"><ele>204.0</ele><time>2026-04-19T16:30:58.999Z</time></trkpt><trkpt lat="37.01024175235515" lon="15.149766865609616"><ele>204.0</ele><time>2026-04-19T16:30:59.999Z</time></trkpt><trkpt lat="37.01019627940628" lon="15.149917929140537"><ele>204.0</ele><time>2026-04-19T16:31:00.999Z</time></trkpt><trkpt lat="37.01018991694551" lon="15.15005508495142"><ele>203.2</ele><time>2026-04-19T16:31:01.999Z</time></trkpt><trkpt lat="37.01019211755845" lon="15.15017171625783"><ele>202.39999999999998</ele><time>2026-04-19T16:31:02.999Z</time></trkpt><trkpt lat="37.010234659896675" lon="15.150271556586368"><ele>201.6</ele><time>2026-04-19T16:31:03.999Z</time></trkpt><trkpt lat="37.01031635555856" lon="15.150345574379989"><ele>200.8</ele><time>2026-04-19T16:31:04.999Z</time></trkpt><trkpt lat="37.01041883786988" lon="15.15040129668509"><ele>200.0</ele><time>2026-04-19T16:31:05.999Z</time></trkpt><trkpt lat="37.010529275032894" lon="15.150446344401173"><ele>200.0</ele><time>2026-04-19T16:31:06.999Z</time></trkpt><trkpt lat="37.010610282474524" lon="15.150517624808488"><ele>200.0</ele><time>2026-04-19T16:31:07.999Z</time></trkpt><trkpt lat="37.01067282915491" lon="15.150602520650072"><ele>200.0</ele><time>2026-04-19T16:31:08.999Z</time></trkpt><trkpt lat="37.01072656444697" lon="15.15071579142404"><ele>200.0</ele><time>2026-04-19T16:31:09.999Z</time></trkpt><trkpt lat="37.010780808699664" lon="15.150848424371228"><ele>200.0</ele><time>2026-04-19T16:31:10.999Z</time></trkpt><trkpt lat="37.01084249286098" lon="15.150974576232203"><ele>198.75</ele><time>2026-04-19T16:31:11.999Z</time></trkpt><trkpt lat="37.010906001912424" lon="15.15108669997682"><ele>197.5</ele><time>2026-04-19T16:31:12.999Z</time></trkpt><trkpt lat="37.01100516258062" lon="15.151180681223526"><ele>196.25</ele><time>2026-04-19T16:31:13.999Z</time></trkpt><trkpt lat="37.01109377404363" lon="15.151297474025544"><ele>195.0</ele><time>2026-04-19T16:31:14.999Z</time></trkpt><trkpt lat="37.01115823711762" lon="15.151434641937115"><ele>192.75</ele><time>2026-04-19T16:31:15.999Z</time></trkpt><trkpt lat="37.011214682075625" lon="15.151597615144928"><ele>190.5</ele><time>2026-04-19T16:31:16.999Z</time></trkpt><trkpt lat="37.01127221238835" lon="15.151759059852408"><ele>188.25</ele><time>2026-04-19T16:31:17.999Z</time></trkpt><trkpt lat="37.01133920530134" lon="15.151893431843057"><ele>186.0</ele><time>2026-04-19T16:31:18.999Z</time></trkpt><trkpt lat="37.01140804231962" lon="15.152020665653378"><ele>186.0</ele><time>2026-04-19T16:31:19.999Z</time></trkpt><trkpt lat="37.01149330537978" lon="15.152136436260879"><ele>186.0</ele><time>2026-04-19T16:31:20.999Z</time></trkpt><trkpt lat="37.01156127601188" lon="15.152265158292217"><ele>186.0</ele><time>2026-04-19T16:31:21.999Z</time></trkpt><trkpt lat="37.01163056125945" lon="15.152377263410811"><ele>186.0</ele><time>2026-04-19T16:31:22.999Z</time></trkpt><trkpt lat="37.01168689667493" lon="15.152483525683197"><ele>185.8</ele><time>2026-04-19T16:31:23.999Z</time></trkpt><trkpt lat="37.011729400131706" lon="15.152582620013934"><ele>185.60000000000002</ele><time>2026-04-19T16:31:24.999Z</time></trkpt><trkpt lat="37.01175358352867" lon="15.152690361328885"><ele>185.4</ele><time>2026-04-19T16:31:25.999Z</time></trkpt><trkpt lat="37.01176710208039" lon="15.152816389443931"><ele>185.2</ele><time>2026-04-19T16:31:26.999Z</time></trkpt><trkpt lat="37.01177147914207" lon="15.152954625678435"><ele>185.0</ele><time>2026-04-19T16:31:27.999Z</time></trkpt><trkpt lat="37.01175874909104" lon="15.153095723344936"><ele>184.0</ele><time>2026-04-19T16:31:28.999Z</time></trkpt><trkpt lat="37.01172554311353" lon="15.153220780196783"><ele>183.0</ele><time>2026-04-19T16:31:29.999Z</time></trkpt><trkpt lat="37.01168941991849" lon="15.153340460636263"><ele>182.0</ele><time>2026-04-19T16:31:30.999Z</time></trkpt><trkpt lat="37.01164674309247" lon="15.153445437279672"><ele>181.0</ele><time>2026-04-19T16:31:31.999Z</time></trkpt><trkpt lat="37.01159404952454" lon="15.153541014308452"><ele>180.0</ele><time>2026-04-19T16:31:32.999Z</time></trkpt><trkpt lat="37.01152596048119" lon="15.1536447535225"><ele>179.0</ele><time>2026-04-19T16:31:33.999Z</time></trkpt><trkpt lat="37.01143416209236" lon="15.153754697872056"><ele>178.0</ele><time>2026-04-19T16:31:34.999Z</time></trkpt><trkpt lat="37.01132296468288" lon="15.153873372059747"><ele>177.0</ele><time>2026-04-19T16:31:35.999Z</time></trkpt><trkpt lat="37.011216134384654" lon="15.153989642928932"><ele>176.0</ele><time>2026-04-19T16:31:36.999Z</time></trkpt><trkpt lat="37.01109302809337" lon="15.154123469549877"><ele>176.33333333333331</ele><time>2026-04-19T16:31:37.999Z</time></trkpt><trkpt lat="37.01096230088572" lon="15.154269305581892"><ele>176.66666666666666</ele><time>2026-04-19T16:31:38.999Z</time></trkpt><trkpt lat="37.01083087349931" lon="15.15441592265576"><ele>177.0</ele><time>2026-04-19T16:31:39.999Z</time></trkpt><trkpt lat="37.01070578231376" lon="15.15455547118399"><ele>177.0</ele><time>2026-04-19T16:31:40.999Z</time></trkpt><trkpt lat="37.01058557526103" lon="15.15468957115081"><ele>177.0</ele><time>2026-04-19T16:31:41.999Z</time></trkpt><trkpt lat="37.01046903192828" lon="15.15481958386712"><ele>177.0</ele><time>2026-04-19T16:31:43Z</time></trkpt><trkpt lat="37.010352754185924" lon="15.154949300461404"><ele>175.0</ele><time>2026-04-19T16:31:44Z</time></trkpt><trkpt lat="37.01023996619399" lon="15.155075124010425"><ele>173.0</ele><time>2026-04-19T16:31:45Z</time></trkpt><trkpt lat="37.01012765830922" lon="15.155200411846451"><ele>171.0</ele><time>2026-04-19T16:31:46Z</time></trkpt><trkpt lat="37.01001663833503" lon="15.155324685161524"><ele>170.5</ele><time>2026-04-19T16:31:47Z</time></trkpt><trkpt lat="37.00990604978185" lon="15.155448573691354"><ele>170.0</ele><time>2026-04-19T16:31:48Z</time></trkpt><trkpt lat="37.009800991218086" lon="15.155566267120474"><ele>169.5</ele><time>2026-04-19T16:31:49Z</time></trkpt><trkpt lat="37.00970012540403" lon="15.15567926358856"><ele>169.0</ele><time>2026-04-19T16:31:50Z</time></trkpt><trkpt lat="37.009603768157376" lon="15.155787209252463"><ele>169.0</ele><time>2026-04-19T16:31:51Z</time></trkpt><trkpt lat="37.009508467077445" lon="15.15589397174667"><ele>169.0</ele><time>2026-04-19T16:31:52Z</time></trkpt><trkpt lat="37.0094114901355" lon="15.156002611633069"><ele>169.0</ele><time>2026-04-19T16:31:53Z</time></trkpt><trkpt lat="37.00931469639811" lon="15.156111046283105"><ele>169.0</ele><time>2026-04-19T16:31:54Z</time></trkpt><trkpt lat="37.00921964318816" lon="15.156217531072706"><ele>169.5</ele><time>2026-04-19T16:31:55Z</time></trkpt><trkpt lat="37.0091217239355" lon="15.156327226601215"><ele>170.0</ele><time>2026-04-19T16:31:56Z</time></trkpt><trkpt lat="37.00902451652645" lon="15.156436125084287"><ele>170.5</ele><time>2026-04-19T16:31:57Z</time></trkpt><trkpt lat="37.00892499296615" lon="15.15654782931842"><ele>171.0</ele><time>2026-04-19T16:31:58Z</time></trkpt><trkpt lat="37.00882483428353" lon="15.156660202477164"><ele>169.25</ele><time>2026-04-19T16:31:59Z</time></trkpt><trkpt lat="37.00871873601285" lon="15.156779239545463"><ele>167.5</ele><time>2026-04-19T16:32:00Z</time></trkpt><trkpt lat="37.00860921634651" lon="15.156900738424753"><ele>165.75</ele><time>2026-04-19T16:32:01Z</time></trkpt><trkpt lat="37.008491454475305" lon="15.157030168062189"><ele>164.0</ele><time>2026-04-19T16:32:02Z</time></trkpt><trkpt lat="37.00835768362818" lon="15.157177192772302"><ele>164.0</ele><time>2026-04-19T16:32:03Z</time></trkpt><trkpt lat="37.00821505982167" lon="15.157337074716494"><ele>164.0</ele><time>2026-04-19T16:32:04Z</time></trkpt><trkpt lat="37.00807648883957" lon="15.157492482469028"><ele>164.0</ele><time>2026-04-19T16:32:05Z</time></trkpt><trkpt lat="37.007934004823134" lon="15.157652278691364"><ele>160.5</ele><time>2026-04-19T16:32:06Z</time></trkpt><trkpt lat="37.00777075475598" lon="15.157835364091392"><ele>157.0</ele><time>2026-04-19T16:32:07Z</time></trkpt><trkpt lat="37.00759442588045" lon="15.158030624619345"><ele>155.5</ele><time>2026-04-19T16:32:08Z</time></trkpt><trkpt lat="37.00741032560589" lon="15.158233683477489"><ele>154.0</ele><time>2026-04-19T16:32:09Z</time></trkpt><trkpt lat="37.00722632511384" lon="15.158436632437114"><ele>154.0</ele><time>2026-04-19T16:32:10Z</time></trkpt><trkpt lat="37.0070432831279" lon="15.15863973207912"><ele>154.0</ele><time>2026-04-19T16:32:11Z</time></trkpt><trkpt lat="37.00686216461056" lon="15.158840908739297"><ele>154.0</ele><time>2026-04-19T16:32:12Z</time></trkpt><trkpt lat="37.00669054837022" lon="15.159031530759359"><ele>154.0</ele><time>2026-04-19T16:32:13Z</time></trkpt><trkpt lat="37.00652393748961" lon="15.159216593143125"><ele>153.0</ele><time>2026-04-19T16:32:14Z</time></trkpt><trkpt lat="37.00636161820088" lon="15.159396230859329"><ele>152.0</ele><time>2026-04-19T16:32:15Z</time></trkpt><trkpt lat="37.0062007244049" lon="15.15957395113095"><ele>151.0</ele><time>2026-04-19T16:32:16Z</time></trkpt><trkpt lat="37.006043718926435" lon="15.159747376506639"><ele>149.66666666666669</ele><time>2026-04-19T16:32:17Z</time></trkpt><trkpt lat="37.00589143276675" lon="15.159916127967158"><ele>148.33333333333334</ele><time>2026-04-19T16:32:18Z</time></trkpt><trkpt lat="37.00574848615725" lon="15.16007531840953"><ele>147.0</ele><time>2026-04-19T16:32:19Z</time></trkpt><trkpt lat="37.00560986087034" lon="15.160228849754487"><ele>147.0</ele><time>2026-04-19T16:32:20Z</time></trkpt><trkpt lat="37.00547687212806" lon="15.16037770767062"><ele>147.0</ele><time>2026-04-19T16:32:21Z</time></trkpt><trkpt lat="37.005347075283176" lon="15.160522122558987"><ele>147.0</ele><time>2026-04-19T16:32:21.999Z</time></trkpt><trkpt lat="37.00521925845189" lon="15.160663818046775"><ele>146.66666666666666</ele><time>2026-04-19T16:32:22.999Z</time></trkpt><trkpt lat="37.005088107821614" lon="15.16080920938143"><ele>146.33333333333331</ele><time>2026-04-19T16:32:23.999Z</time></trkpt><trkpt lat="37.00494664159676" lon="15.16096603648493"><ele>146.0</ele><time>2026-04-19T16:32:24.999Z</time></trkpt><trkpt lat="37.004800975114236" lon="15.161127565924698"><ele>146.0</ele><time>2026-04-19T16:32:25.999Z</time></trkpt><trkpt lat="37.004657539165834" lon="15.161287293759097"><ele>146.0</ele><time>2026-04-19T16:32:26.999Z</time></trkpt><trkpt lat="37.00452110147072" lon="15.161439228430659"><ele>146.0</ele><time>2026-04-19T16:32:27.999Z</time></trkpt><trkpt lat="37.00439163829694" lon="15.161583396386167"><ele>146.0</ele><time>2026-04-19T16:32:28.999Z</time></trkpt><trkpt lat="37.00426799782619" lon="15.16172108027055"><ele>146.0</ele><time>2026-04-19T16:32:29.999Z</time></trkpt><trkpt lat="37.004144986074486" lon="15.161858064048968"><ele>146.0</ele><time>2026-04-19T16:32:30.999Z</time></trkpt><trkpt lat="37.00402319000129" lon="15.161993694014553"><ele>146.0</ele><time>2026-04-19T16:32:31.999Z</time></trkpt><trkpt lat="37.00390776072805" lon="15.162122228179772"><ele>146.0</ele><time>2026-04-19T16:32:32.999Z</time></trkpt><trkpt lat="37.0037975017521" lon="15.162244958276695"><ele>146.0</ele><time>2026-04-19T16:32:33.999Z</time></trkpt><trkpt lat="37.003679630874274" lon="15.162376161246245"><ele>146.0</ele><time>2026-04-19T16:32:34.999Z</time></trkpt><trkpt lat="37.00355642523911" lon="15.162513302360873"><ele>146.0</ele><time>2026-04-19T16:32:35.999Z</time></trkpt><trkpt lat="37.003437502681834" lon="15.162644047350144"><ele>146.0</ele><time>2026-04-19T16:32:36.999Z</time></trkpt><trkpt lat="37.003316115544656" lon="15.162776903731372"><ele>146.0</ele><time>2026-04-19T16:32:37.999Z</time></trkpt><trkpt lat="37.00319893319634" lon="15.162905157977677"><ele>146.0</ele><time>2026-04-19T16:32:38.999Z</time></trkpt><trkpt lat="37.00307749447121" lon="15.163038365567008"><ele>146.0</ele><time>2026-04-19T16:32:39.999Z</time></trkpt><trkpt lat="37.0029546465696" lon="15.163180145338545"><ele>145.66666666666666</ele><time>2026-04-19T16:32:40.999Z</time></trkpt><trkpt lat="37.00284087874897" lon="15.1633114463608"><ele>145.33333333333334</ele><time>2026-04-19T16:32:41.999Z</time></trkpt><trkpt lat="37.00272952396173" lon="15.163438995282204"><ele>145.0</ele><time>2026-04-19T16:32:42.999Z</time></trkpt><trkpt lat="37.00261057444369" lon="15.163575494718403"><ele>144.33333333333334</ele><time>2026-04-19T16:32:43.999Z</time></trkpt><trkpt lat="37.002486748583024" lon="15.163711773434416"><ele>143.66666666666666</ele><time>2026-04-19T16:32:44.999Z</time></trkpt><trkpt lat="37.00235804548859" lon="15.163854387732211"><ele>143.0</ele><time>2026-04-19T16:32:45.999Z</time></trkpt><trkpt lat="37.00222624707498" lon="15.164000431931036"><ele>143.0</ele><time>2026-04-19T16:32:46.999Z</time></trkpt><trkpt lat="37.00208961400575" lon="15.164152049939128"><ele>143.0</ele><time>2026-04-19T16:32:47.999Z</time></trkpt><trkpt lat="37.001956009636494" lon="15.164300658231761"><ele>143.0</ele><time>2026-04-19T16:32:48.999Z</time></trkpt><trkpt lat="37.00182709259058" lon="15.1644440527518"><ele>143.0</ele><time>2026-04-19T16:32:49.999Z</time></trkpt><trkpt lat="37.0017067074104" lon="15.164578565928428"><ele>143.0</ele><time>2026-04-19T16:32:50.999Z</time></trkpt><trkpt lat="37.00158991860637" lon="15.164709484521275"><ele>143.0</ele><time>2026-04-19T16:32:51.999Z</time></trkpt><trkpt lat="37.001470295732574" lon="15.164843580200312"><ele>143.0</ele><time>2026-04-19T16:32:52.999Z</time></trkpt><trkpt lat="37.001345587865984" lon="15.164983376066536"><ele>143.0</ele><time>2026-04-19T16:32:53.999Z</time></trkpt><trkpt lat="37.001224167387186" lon="15.165119486737957"><ele>143.0</ele><time>2026-04-19T16:32:54.999Z</time></trkpt><trkpt lat="37.00110997316452" lon="15.165244530277668"><ele>143.0</ele><time>2026-04-19T16:32:55.999Z</time></trkpt><trkpt lat="37.00100264040391" lon="15.165359545968052"><ele>143.0</ele><time>2026-04-19T16:32:56.999Z</time></trkpt><trkpt lat="37.00090138489227" lon="15.165477431806847"><ele>143.0</ele><time>2026-04-19T16:32:57.999Z</time></trkpt><trkpt lat="37.00080829762808" lon="15.165600973860201"><ele>143.0</ele><time>2026-04-19T16:32:58.999Z</time></trkpt><trkpt lat="37.000732262197445" lon="15.165736152118404"><ele>141.75</ele><time>2026-04-19T16:32:59.999Z</time></trkpt><trkpt lat="37.00066878630227" lon="15.165870322919284"><ele>140.5</ele><time>2026-04-19T16:33:00.999Z</time></trkpt><trkpt lat="37.00060241209775" lon="15.165980171732782"><ele>139.25</ele><time>2026-04-19T16:33:01.999Z</time></trkpt><trkpt lat="37.000526008842726" lon="15.166090704510674"><ele>138.0</ele><time>2026-04-19T16:33:02.999Z</time></trkpt><trkpt lat="37.00044947344253" lon="15.166201083237231"><ele>138.0</ele><time>2026-04-19T16:33:03.999Z</time></trkpt><trkpt lat="37.00037134416997" lon="15.166313760886256"><ele>138.0</ele><time>2026-04-19T16:33:04.999Z</time></trkpt><trkpt lat="37.000291572620384" lon="15.166428807342427"><ele>138.0</ele><time>2026-04-19T16:33:05.999Z</time></trkpt><trkpt lat="37.000206617118224" lon="15.166548401826761"><ele>138.0</ele><time>2026-04-19T16:33:06.999Z</time></trkpt><trkpt lat="37.00011417080078" lon="15.166675917611874"><ele>137.75</ele><time>2026-04-19T16:33:07.999Z</time></trkpt><trkpt lat="37.00002342011217" lon="15.166801094683917"><ele>137.5</ele><time>2026-04-19T16:33:08.999Z</time></trkpt><trkpt lat="36.99993223120294" lon="15.166928010335262"><ele>137.25</ele><time>2026-04-19T16:33:09.999Z</time></trkpt><trkpt lat="36.999839862492216" lon="15.167054536523146"><ele>137.0</ele><time>2026-04-19T16:33:10.999Z</time></trkpt><trkpt lat="36.99974460440541" lon="15.167184049196035"><ele>137.0</ele><time>2026-04-19T16:33:11.999Z</time></trkpt><trkpt lat="36.99965128172892" lon="15.167310930617353"><ele>137.0</ele><time>2026-04-19T16:33:12.999Z</time></trkpt><trkpt lat="36.99956194650403" lon="15.167432390689902"><ele>137.0</ele><time>2026-04-19T16:33:13.999Z</time></trkpt><trkpt lat="36.99947667944712" lon="15.16754964078867"><ele>137.0</ele><time>2026-04-19T16:33:14.999Z</time></trkpt><trkpt lat="36.99939494176484" lon="15.167664238130492"><ele>136.6</ele><time>2026-04-19T16:33:15.999Z</time></trkpt><trkpt lat="36.999317283897945" lon="15.167773115515146"><ele>136.2</ele><time>2026-04-19T16:33:16.999Z</time></trkpt><trkpt lat="36.999242724756435" lon="15.167877648500772"><ele>135.8</ele><time>2026-04-19T16:33:17.999Z</time></trkpt><trkpt lat="36.99916952407429" lon="15.167980276918907"><ele>135.4</ele><time>2026-04-19T16:33:18.999Z</time></trkpt><trkpt lat="36.9990969203822" lon="15.168082069766795"><ele>135.0</ele><time>2026-04-19T16:33:19.999Z</time></trkpt><trkpt lat="36.999025448883245" lon="15.168181667362022"><ele>134.4</ele><time>2026-04-19T16:33:20.999Z</time></trkpt><trkpt lat="36.998953894894235" lon="15.168281611447904"><ele>133.8</ele><time>2026-04-19T16:33:21.999Z</time></trkpt><trkpt lat="36.99888028578219" lon="15.168384690097595"><ele>133.2</ele><time>2026-04-19T16:33:22.999Z</time></trkpt><trkpt lat="36.99880654035318" lon="15.168487902916569"><ele>132.6</ele><time>2026-04-19T16:33:23.999Z</time></trkpt><trkpt lat="36.99873199094433" lon="15.16859112137881"><ele>132.0</ele><time>2026-04-19T16:33:24.999Z</time></trkpt><trkpt lat="36.99865974962941" lon="15.168690630866578"><ele>132.0</ele><time>2026-04-19T16:33:25.999Z</time></trkpt><trkpt lat="36.99858851545717" lon="15.168788752988128"><ele>132.0</ele><time>2026-04-19T16:33:26.999Z</time></trkpt><trkpt lat="36.998519197564725" lon="15.168884235579984"><ele>132.0</ele><time>2026-04-19T16:33:27.999Z</time></trkpt><trkpt lat="36.998453061157214" lon="15.168975336769527"><ele>132.0</ele><time>2026-04-19T16:33:28.999Z</time></trkpt><trkpt lat="36.998388185764284" lon="15.16906519075624"><ele>132.0</ele><time>2026-04-19T16:33:29.999Z</time></trkpt><trkpt lat="36.99832402649537" lon="15.169153901218731"><ele>131.2</ele><time>2026-04-19T16:33:30.999Z</time></trkpt><trkpt lat="36.998261568443866" lon="15.169240259488438"><ele>130.39999999999998</ele><time>2026-04-19T16:33:31.999Z</time></trkpt><trkpt lat="36.99820021185363" lon="15.169325094758934"><ele>129.60000000000002</ele><time>2026-04-19T16:33:32.999Z</time></trkpt><trkpt lat="36.99813953653828" lon="15.169408988121885"><ele>128.8</ele><time>2026-04-19T16:33:33.999Z</time></trkpt><trkpt lat="36.99807865433704" lon="15.169493167541976"><ele>128.0</ele><time>2026-04-19T16:33:34.999Z</time></trkpt><trkpt lat="36.998020885018875" lon="15.169575749444197"><ele>127.99999999999999</ele><time>2026-04-19T16:33:35.999Z</time></trkpt><trkpt lat="36.99796643876329" lon="15.169667268044579"><ele>128.0</ele><time>2026-04-19T16:33:36.999Z</time></trkpt><trkpt lat="36.997922694847276" lon="15.1697599005915"><ele>128.0</ele><time>2026-04-19T16:33:37.999Z</time></trkpt><trkpt lat="36.99789084971714" lon="15.169863063401753"><ele>128.0</ele><time>2026-04-19T16:33:38.999Z</time></trkpt><trkpt lat="36.99787003623958" lon="15.169961441123869"><ele>127.99999999999999</ele><time>2026-04-19T16:33:39.999Z</time></trkpt><trkpt lat="36.99785142782678" lon="15.17005253485127"><ele>128.0</ele><time>2026-04-19T16:33:40.999Z</time></trkpt><trkpt lat="36.9978244748095" lon="15.170144385920938"><ele>127.49999999999999</ele><time>2026-04-19T16:33:41.999Z</time></trkpt><trkpt lat="36.99779785264947" lon="15.1702452739101"><ele>127.0</ele><time>2026-04-19T16:33:42.999Z</time></trkpt><trkpt lat="36.99778845976131" lon="15.17035790917034"><ele>126.5</ele><time>2026-04-19T16:33:43.999Z</time></trkpt><trkpt lat="36.997788811507185" lon="15.170457297708637"><ele>126.0</ele><time>2026-04-19T16:33:44.999Z</time></trkpt><trkpt lat="36.99778628011122" lon="15.170547283002339"><ele>125.49999999999999</ele><time>2026-04-19T16:33:45.999Z</time></trkpt><trkpt lat="36.99777207516418" lon="15.170689023279119"><ele>125.0</ele><time>2026-04-19T16:33:47.999Z</time></trkpt><trkpt lat="36.99774587604546" lon="15.170796091026308"><ele>124.33333333333333</ele><time>2026-04-19T16:33:50Z</time></trkpt><trkpt lat="36.99771541363868" lon="15.17088447761558"><ele>123.66666666666666</ele><time>2026-04-19T16:33:52Z</time></trkpt><trkpt lat="36.99768752054527" lon="15.170980933782829"><ele>123.0</ele><time>2026-04-19T16:33:54Z</time></trkpt><trkpt lat="36.997672575171094" lon="15.171071401480829"><ele>122.33333333333334</ele><time>2026-04-19T16:33:56Z</time></trkpt><trkpt lat="36.99765707838658" lon="15.171190160236252"><ele>121.66666666666667</ele><time>2026-04-19T16:33:59Z</time></trkpt><trkpt lat="36.99764613708848" lon="15.171284765023904"><ele>121.0</ele><time>2026-04-19T16:34:01Z</time></trkpt><trkpt lat="36.99763014742622" lon="15.171406681106378"><ele>121.00000000000001</ele><time>2026-04-19T16:34:04Z</time></trkpt><trkpt lat="36.9975932925423" lon="15.171474151329582"><ele>121.0</ele><time>2026-04-19T16:34:06Z</time></trkpt><trkpt lat="36.997528187330005" lon="15.171526213564102"><ele>121.0</ele><time>2026-04-19T16:34:08Z</time></trkpt><trkpt lat="36.99744725088868" lon="15.171554506441671"><ele>121.0</ele><time>2026-04-19T16:34:10Z</time></trkpt><trkpt lat="36.99746935094449" lon="15.171664398477244"><ele>121.00000000000001</ele><time>2026-04-19T16:34:12Z</time></trkpt><trkpt lat="36.99756150082522" lon="15.17169998720756"><ele>121.0</ele><time>2026-04-19T16:34:14Z</time></trkpt><trkpt lat="36.99766112071758" lon="15.171688581649645"><ele>120.19999999999999</ele><time>2026-04-19T16:34:16Z</time></trkpt><trkpt lat="36.997760464739684" lon="15.17169223486297"><ele>119.39999999999999</ele><time>2026-04-19T16:34:18Z</time></trkpt><trkpt lat="36.99783890333405" lon="15.171755580283799"><ele>118.6</ele><time>2026-04-19T16:34:20Z</time></trkpt><trkpt lat="36.99783112307003" lon="15.171882067484969"><ele>117.8</ele><time>2026-04-19T16:34:22Z</time></trkpt><trkpt lat="36.99780643571562" lon="15.171986431900795"><ele>117.0</ele><time>2026-04-19T16:34:24Z</time></trkpt><trkpt lat="36.99773445667456" lon="15.172031346025136"><ele>117.0</ele><time>2026-04-19T16:34:26Z</time></trkpt><trkpt lat="36.997635388169925" lon="15.172006320094114"><ele>117.0</ele><time>2026-04-19T16:34:28Z</time></trkpt><trkpt lat="36.99756024095723" lon="15.171881641012476"><ele>117.0</ele><time>2026-04-19T16:34:29.999Z</time></trkpt><trkpt lat="36.99751577217979" lon="15.171823687140021"><ele>117.0</ele><time>2026-04-19T16:34:30.999Z</time></trkpt><trkpt lat="36.99745735834874" lon="15.17179144304828"><ele>117.0</ele><time>2026-04-19T16:34:31.999Z</time></trkpt><trkpt lat="36.997392181646674" lon="15.171771023469498"><ele>117.0</ele><time>2026-04-19T16:34:32.999Z</time></trkpt><trkpt lat="36.99732474037592" lon="15.171751336971884"><ele>115.33333333333333</ele><time>2026-04-19T16:34:33.999Z</time></trkpt><trkpt lat="36.99725563438636" lon="15.171731149429371"><ele>113.66666666666666</ele><time>2026-04-19T16:34:34.999Z</time></trkpt><trkpt lat="36.99718277655392" lon="15.171713637831944"><ele>112.0</ele><time>2026-04-19T16:34:35.999Z</time></trkpt><trkpt lat="36.99710734268458" lon="15.171706905946893"><ele>110.33333333333333</ele><time>2026-04-19T16:34:36.999Z</time></trkpt><trkpt lat="36.99703161365942" lon="15.171723670709113"><ele>108.66666666666666</ele><time>2026-04-19T16:34:37.999Z</time></trkpt><trkpt lat="36.996955908747594" lon="15.17176026169973"><ele>107.0</ele><time>2026-04-19T16:34:38.999Z</time></trkpt><trkpt lat="36.99688162510729" lon="15.171804662430695"><ele>106.99999999999999</ele><time>2026-04-19T16:34:39.999Z</time></trkpt><trkpt lat="36.99680852182128" lon="15.171851421146505"><ele>107.0</ele><time>2026-04-19T16:34:40.999Z</time></trkpt><trkpt lat="36.996732423949666" lon="15.171873735565098"><ele>107.0</ele><time>2026-04-19T16:34:41.999Z</time></trkpt><trkpt lat="36.9966629204781" lon="15.171916666150794"><ele>107.0</ele><time>2026-04-19T16:34:42.999Z</time></trkpt><trkpt lat="36.99658476747181" lon="15.171966085349414"><ele>106.99999999999999</ele><time>2026-04-19T16:34:43.999Z</time></trkpt><trkpt lat="36.99649272821163" lon="15.17202401118715"><ele>107.0</ele><time>2026-04-19T16:34:44.999Z</time></trkpt><trkpt lat="36.99640134913694" lon="15.172078973056065"><ele>106.6</ele><time>2026-04-19T16:34:45.999Z</time></trkpt><trkpt lat="36.996311843150686" lon="15.172135251237284"><ele>106.19999999999999</ele><time>2026-04-19T16:34:46.999Z</time></trkpt><trkpt lat="36.99622100373706" lon="15.172203055691705"><ele>105.8</ele><time>2026-04-19T16:34:47.999Z</time></trkpt><trkpt lat="36.99614045046536" lon="15.1722822904463"><ele>105.4</ele><time>2026-04-19T16:34:48.999Z</time></trkpt><trkpt lat="36.996087527751826" lon="15.172405191112592"><ele>105.0</ele><time>2026-04-19T16:34:49.999Z</time></trkpt><trkpt lat="36.996006394051385" lon="15.172499956161204"><ele>102.5</ele><time>2026-04-19T16:34:50.999Z</time></trkpt><trkpt lat="36.9959219679933" lon="15.17260588139578"><ele>100.0</ele><time>2026-04-19T16:34:51.999Z</time></trkpt><trkpt lat="36.99582430367928" lon="15.172734742571656"><ele>97.5</ele><time>2026-04-19T16:34:52.999Z</time></trkpt><trkpt lat="36.995702483442294" lon="15.17285784897817"><ele>95.0</ele><time>2026-04-19T16:34:53.999Z</time></trkpt><trkpt lat="36.99561739754803" lon="15.17301299559958"><ele>95.0</ele><time>2026-04-19T16:34:54.999Z</time></trkpt><trkpt lat="36.99554188821716" lon="15.173168686487097"><ele>95.0</ele><time>2026-04-19T16:34:55.999Z</time></trkpt><trkpt lat="36.99547257566552" lon="15.173319859729538"><ele>95.0</ele><time>2026-04-19T16:34:56.999Z</time></trkpt><trkpt lat="36.99540113553336" lon="15.17348426991925"><ele>95.0</ele><time>2026-04-19T16:34:57.999Z</time></trkpt><trkpt lat="36.995329894762804" lon="15.17365733055348"><ele>92.33333333333334</ele><time>2026-04-19T16:34:58.999Z</time></trkpt><trkpt lat="36.995256954523235" lon="15.173834744697237"><ele>89.66666666666667</ele><time>2026-04-19T16:34:59.999Z</time></trkpt><trkpt lat="36.99518232425595" lon="15.174011087946397"><ele>87.0</ele><time>2026-04-19T16:35:00.999Z</time></trkpt><trkpt lat="36.99510529824219" lon="15.174186954287022"><ele>86.25</ele><time>2026-04-19T16:35:01.999Z</time></trkpt><trkpt lat="36.995030857760256" lon="15.17435570186241"><ele>85.5</ele><time>2026-04-19T16:35:02.999Z</time></trkpt><trkpt lat="36.99496300459933" lon="15.174509516457597"><ele>84.75</ele><time>2026-04-19T16:35:03.999Z</time></trkpt><trkpt lat="36.994897664525865" lon="15.174656503155733"><ele>84.0</ele><time>2026-04-19T16:35:04.999Z</time></trkpt><trkpt lat="36.99483534587944" lon="15.174796387692334"><ele>83.0</ele><time>2026-04-19T16:35:05.999Z</time></trkpt><trkpt lat="36.9947736752405" lon="15.174934815298496"><ele>82.0</ele><time>2026-04-19T16:35:06.999Z</time></trkpt><trkpt lat="36.994720325848874" lon="15.175058331718935"><ele>81.0</ele><time>2026-04-19T16:35:07.999Z</time></trkpt><trkpt lat="36.994618627715276" lon="15.175291498971443"><ele>81.0</ele><time>2026-04-19T16:35:08.999Z</time></trkpt><trkpt lat="36.99455975821593" lon="15.175426471308892"><ele>81.0</ele><time>2026-04-19T16:35:09.999Z</time></trkpt><trkpt lat="36.994503652506545" lon="15.17555208449274"><ele>81.0</ele><time>2026-04-19T16:35:10.999Z</time></trkpt><trkpt lat="36.99444755141372" lon="15.175675774645773"><ele>81.0</ele><time>2026-04-19T16:35:11.999Z</time></trkpt><trkpt lat="36.994384323892454" lon="15.175786414470036"><ele>80.6</ele><time>2026-04-19T16:35:12.999Z</time></trkpt><trkpt lat="36.99430570577404" lon="15.17587011141789"><ele>80.19999999999999</ele><time>2026-04-19T16:35:13.999Z</time></trkpt><trkpt lat="36.99422712585202" lon="15.175923968762502"><ele>79.80000000000001</ele><time>2026-04-19T16:35:14.999Z</time></trkpt><trkpt lat="36.994142744174994" lon="15.175966724190307"><ele>79.4</ele><time>2026-04-19T16:35:15.999Z</time></trkpt><trkpt lat="36.99404398698781" lon="15.175997246931175"><ele>79.0</ele><time>2026-04-19T16:35:16.999Z</time></trkpt><trkpt lat="36.99392138446749" lon="15.176026281760338"><ele>78.75</ele><time>2026-04-19T16:35:17.999Z</time></trkpt><trkpt lat="36.993802080925036" lon="15.176047970143406"><ele>78.5</ele><time>2026-04-19T16:35:18.999Z</time></trkpt><trkpt lat="36.993681417154505" lon="15.176070227195503"><ele>78.25</ele><time>2026-04-19T16:35:19.999Z</time></trkpt><trkpt lat="36.99355810264303" lon="15.176092492970684"><ele>78.0</ele><time>2026-04-19T16:35:20.999Z</time></trkpt><trkpt lat="36.993445058229405" lon="15.176113907457534"><ele>78.0</ele><time>2026-04-19T16:35:21.999Z</time></trkpt><trkpt lat="36.993339150831844" lon="15.176135104105231"><ele>78.0</ele><time>2026-04-19T16:35:22.999Z</time></trkpt><trkpt lat="36.99324559604213" lon="15.176139564573946"><ele>78.0</ele><time>2026-04-19T16:35:23.999Z</time></trkpt><trkpt lat="36.99315999807128" lon="15.176111371409815"><ele>78.0</ele><time>2026-04-19T16:35:24.999Z</time></trkpt><trkpt lat="36.99307260461008" lon="15.176074240243237"><ele>78.0</ele><time>2026-04-19T16:35:25.999Z</time></trkpt><trkpt lat="36.99299644053958" lon="15.176047231155268"><ele>77.66666666666667</ele><time>2026-04-19T16:35:26.999Z</time></trkpt><trkpt lat="36.99292314817777" lon="15.176038234277428"><ele>77.33333333333333</ele><time>2026-04-19T16:35:27.999Z</time></trkpt><trkpt lat="36.992859119668594" lon="15.176014855158847"><ele>77.0</ele><time>2026-04-19T16:35:28.999Z</time></trkpt><trkpt lat="36.9927915919073" lon="15.175998957762294"><ele>76.66666666666666</ele><time>2026-04-19T16:35:30.999Z</time></trkpt><trkpt lat="36.99272645738133" lon="15.176037208756147"><ele>76.33333333333333</ele><time>2026-04-19T16:35:44.999Z</time></trkpt><trkpt lat="36.99266952661589" lon="15.17610203841725"><ele>76.0</ele><time>2026-04-19T16:35:47.999Z</time></trkpt><trkpt lat="36.992585969975494" lon="15.176168899033092"><ele>76.33333333333333</ele><time>2026-04-19T16:35:50.999Z</time></trkpt><trkpt lat="36.992501180432875" lon="15.176257834813125"><ele>76.66666666666666</ele><time>2026-04-19T16:35:52.999Z</time></trkpt><trkpt lat="36.992448919600776" lon="15.176302027154414"><ele>77.0</ele><time>2026-04-19T16:35:53.999Z</time></trkpt><trkpt lat="36.99239157649155" lon="15.17634621532668"><ele>77.33333333333333</ele><time>2026-04-19T16:35:55Z</time></trkpt><trkpt lat="36.99233267839679" lon="15.176393232921196"><ele>77.66666666666667</ele><time>2026-04-19T16:35:56Z</time></trkpt><trkpt lat="36.992276173688396" lon="15.176444370075036"><ele>78.0</ele><time>2026-04-19T16:35:57Z</time></trkpt><trkpt lat="36.99222266840796" lon="15.17649893270237"><ele>77.28571428571429</ele><time>2026-04-19T16:35:58Z</time></trkpt><trkpt lat="36.99217015545121" lon="15.176554798782771"><ele>76.57142857142857</ele><time>2026-04-19T16:35:59Z</time></trkpt><trkpt lat="36.99211933662909" lon="15.176611436903949"><ele>75.85714285714286</ele><time>2026-04-19T16:36:00Z</time></trkpt><trkpt lat="36.992069424754" lon="15.176667064166878"><ele>75.14285714285714</ele><time>2026-04-19T16:36:01Z</time></trkpt><trkpt lat="36.992017817369515" lon="15.176726485432017"><ele>74.42857142857143</ele><time>2026-04-19T16:36:02Z</time></trkpt><trkpt lat="36.991968780119734" lon="15.176783632414194"><ele>73.71428571428571</ele><time>2026-04-19T16:36:03Z</time></trkpt><trkpt lat="36.99192156040431" lon="15.176838661306402"><ele>73.0</ele><time>2026-04-19T16:36:04Z</time></trkpt><trkpt lat="36.99183321167997" lon="15.176944041399675"><ele>73.0</ele><time>2026-04-19T16:36:06Z</time></trkpt><trkpt lat="36.99174634904344" lon="15.177048434914077"><ele>73.0</ele><time>2026-04-19T16:36:08Z</time></trkpt><trkpt lat="36.9916599303558" lon="15.177152294887193"><ele>73.0</ele><time>2026-04-19T16:36:10Z</time></trkpt><trkpt lat="36.99157159071455" lon="15.17725884364857"><ele>73.0</ele><time>2026-04-19T16:36:12Z</time></trkpt><trkpt lat="36.991486372331046" lon="15.177364585147242"><ele>72.6</ele><time>2026-04-19T16:36:14Z</time></trkpt><trkpt lat="36.99140593641658" lon="15.177461905844744"><ele>72.19999999999999</ele><time>2026-04-19T16:36:16Z</time></trkpt><trkpt lat="36.99132791844817" lon="15.177540394690336"><ele>71.8</ele><time>2026-04-19T16:36:18Z</time></trkpt><trkpt lat="36.99123963369528" lon="15.177619701952791"><ele>71.39999999999999</ele><time>2026-04-19T16:36:20Z</time></trkpt><trkpt lat="36.99114288039766" lon="15.17770068632285"><ele>71.0</ele><time>2026-04-19T16:36:22Z</time></trkpt><trkpt lat="36.99104518248211" lon="15.177780354891556"><ele>71.0</ele><time>2026-04-19T16:36:24Z</time></trkpt><trkpt lat="36.99094588264159" lon="15.177861129826002"><ele>71.0</ele><time>2026-04-19T16:36:26Z</time></trkpt><trkpt lat="36.990844315036334" lon="15.177942443848355"><ele>71.0</ele><time>2026-04-19T16:36:28Z</time></trkpt><trkpt lat="36.99073865519305" lon="15.178027034137054"><ele>71.0</ele><time>2026-04-19T16:36:30Z</time></trkpt><trkpt lat="36.99063134935686" lon="15.17811294221142"><ele>70.83333333333334</ele><time>2026-04-19T16:36:32Z</time></trkpt><trkpt lat="36.99057851239889" lon="15.178156287005555"><ele>70.66666666666667</ele><time>2026-04-19T16:36:32.999Z</time></trkpt><trkpt lat="36.99052518751878" lon="15.178200295058813"><ele>70.5</ele><time>2026-04-19T16:36:33.999Z</time></trkpt><trkpt lat="36.9904664204473" lon="15.178248777495092"><ele>70.33333333333333</ele><time>2026-04-19T16:36:34.999Z</time></trkpt><trkpt lat="36.99039571944488" lon="15.178306752822659"><ele>70.16666666666666</ele><time>2026-04-19T16:36:35.999Z</time></trkpt><trkpt lat="36.99030840600187" lon="15.17837835051073"><ele>70.0</ele><time>2026-04-19T16:36:36.999Z</time></trkpt><trkpt lat="36.99021351558165" lon="15.178456161581797"><ele>69.75</ele><time>2026-04-19T16:36:37.999Z</time></trkpt><trkpt lat="36.990120955381656" lon="15.178532061338737"><ele>69.5</ele><time>2026-04-19T16:36:38.999Z</time></trkpt><trkpt lat="36.99002037696944" lon="15.178614536352363"><ele>69.25</ele><time>2026-04-19T16:36:39.999Z</time></trkpt><trkpt lat="36.989915450734735" lon="15.178700576586715"><ele>69.0</ele><time>2026-04-19T16:36:40.999Z</time></trkpt><trkpt lat="36.98980914720593" lon="15.178785314606888"><ele>69.0</ele><time>2026-04-19T16:36:41.999Z</time></trkpt><trkpt lat="36.98969851657345" lon="15.178873536593661"><ele>69.0</ele><time>2026-04-19T16:36:42.999Z</time></trkpt><trkpt lat="36.989582292855076" lon="15.178966380585807"><ele>69.0</ele><time>2026-04-19T16:36:43.999Z</time></trkpt><trkpt lat="36.98946235070216" lon="15.179062208423003"><ele>69.0</ele><time>2026-04-19T16:36:44.999Z</time></trkpt><trkpt lat="36.98933346653099" lon="15.17916518048667"><ele>69.0</ele><time>2026-04-19T16:36:45.999Z</time></trkpt><trkpt lat="36.989200684441634" lon="15.179272074323466"><ele>69.0</ele><time>2026-04-19T16:36:46.999Z</time></trkpt><trkpt lat="36.98906289451162" lon="15.179384345229245"><ele>69.0</ele><time>2026-04-19T16:36:47.999Z</time></trkpt><trkpt lat="36.98892208274035" lon="15.179499078358452"><ele>68.66666666666667</ele><time>2026-04-19T16:36:48.999Z</time></trkpt><trkpt lat="36.988782715299386" lon="15.179612634588093"><ele>68.33333333333334</ele><time>2026-04-19T16:36:49.999Z</time></trkpt><trkpt lat="36.98864411053392" lon="15.179725569430044"><ele>68.0</ele><time>2026-04-19T16:36:50.999Z</time></trkpt><trkpt lat="36.988507482614565" lon="15.179836893529082"><ele>67.66666666666667</ele><time>2026-04-19T16:36:51.999Z</time></trkpt><trkpt lat="36.98837042390153" lon="15.179948568660908"><ele>67.33333333333333</ele><time>2026-04-19T16:36:52.999Z</time></trkpt><trkpt lat="36.98823836524377" lon="15.18005616972192"><ele>67.0</ele><time>2026-04-19T16:36:53.999Z</time></trkpt><trkpt lat="36.988099294005934" lon="15.180169050431331"><ele>67.0</ele><time>2026-04-19T16:36:54.999Z</time></trkpt><trkpt lat="36.98796428958554" lon="15.180278242194149"><ele>67.0</ele><time>2026-04-19T16:36:55.999Z</time></trkpt><trkpt lat="36.98783347670955" lon="15.180383587601856"><ele>67.0</ele><time>2026-04-19T16:36:56.999Z</time></trkpt><trkpt lat="36.987698074082616" lon="15.180492274186864"><ele>67.0</ele><time>2026-04-19T16:36:57.999Z</time></trkpt><trkpt lat="36.98756533223683" lon="15.180598824978992"><ele>67.0</ele><time>2026-04-19T16:36:58.999Z</time></trkpt><trkpt lat="36.98743163050788" lon="15.18070723915288"><ele>67.0</ele><time>2026-04-19T16:36:59.999Z</time></trkpt><trkpt lat="36.9872977722528" lon="15.180815835131494"><ele>66.33333333333333</ele><time>2026-04-19T16:37:00.999Z</time></trkpt><trkpt lat="36.987165626755804" lon="15.18092304160275"><ele>65.66666666666667</ele><time>2026-04-19T16:37:01.999Z</time></trkpt><trkpt lat="36.987031963056296" lon="15.18103147978453"><ele>65.0</ele><time>2026-04-19T16:37:02.999Z</time></trkpt><trkpt lat="36.98689981069399" lon="15.181138692466252"><ele>65.0</ele><time>2026-04-19T16:37:03.999Z</time></trkpt><trkpt lat="36.98676344983159" lon="15.181247827004139"><ele>65.0</ele><time>2026-04-19T16:37:04.999Z</time></trkpt><trkpt lat="36.98662678610632" lon="15.181357443371205"><ele>65.0</ele><time>2026-04-19T16:37:05.999Z</time></trkpt><trkpt lat="36.98648271557092" lon="15.181473000686017"><ele>65.0</ele><time>2026-04-19T16:37:06.999Z</time></trkpt><trkpt lat="36.98633789338922" lon="15.181589160835111"><ele>65.0</ele><time>2026-04-19T16:37:07.999Z</time></trkpt><trkpt lat="36.98618829458734" lon="15.181710176369169"><ele>65.0</ele><time>2026-04-19T16:37:08.999Z</time></trkpt><trkpt lat="36.9860389347192" lon="15.181831426526932"><ele>65.0</ele><time>2026-04-19T16:37:09.999Z</time></trkpt><trkpt lat="36.98589016244486" lon="15.181952199673624"><ele>65.0</ele><time>2026-04-19T16:37:10.999Z</time></trkpt><trkpt lat="36.9857380405685" lon="15.182075691976342"><ele>65.0</ele><time>2026-04-19T16:37:11.999Z</time></trkpt><trkpt lat="36.98559063454633" lon="15.182195214994207"><ele>65.33333333333334</ele><time>2026-04-19T16:37:12.999Z</time></trkpt><trkpt lat="36.98544180363817" lon="15.182316343011161"><ele>65.66666666666667</ele><time>2026-04-19T16:37:13.999Z</time></trkpt><trkpt lat="36.985294262226894" lon="15.182436549149465"><ele>66.0</ele><time>2026-04-19T16:37:14.999Z</time></trkpt><trkpt lat="36.98514914072718" lon="15.182554783646017"><ele>65.33333333333333</ele><time>2026-04-19T16:37:15.999Z</time></trkpt><trkpt lat="36.98501422428301" lon="15.182665138382296"><ele>64.66666666666666</ele><time>2026-04-19T16:37:16.999Z</time></trkpt><trkpt lat="36.98487968114614" lon="15.182773822729"><ele>64.0</ele><time>2026-04-19T16:37:17.999Z</time></trkpt><trkpt lat="36.98474384408629" lon="15.182883298076794"><ele>64.0</ele><time>2026-04-19T16:37:18.999Z</time></trkpt><trkpt lat="36.98460708073943" lon="15.182993520031365"><ele>64.0</ele><time>2026-04-19T16:37:19.999Z</time></trkpt><trkpt lat="36.984470814858255" lon="15.183102995956796"><ele>64.0</ele><time>2026-04-19T16:37:20.999Z</time></trkpt><trkpt lat="36.98433255293521" lon="15.1832138931199"><ele>64.0</ele><time>2026-04-19T16:37:21.999Z</time></trkpt><trkpt lat="36.984189662810095" lon="15.183328502451644"><ele>64.0</ele><time>2026-04-19T16:37:22.999Z</time></trkpt><trkpt lat="36.98404475649472" lon="15.183445290538032"><ele>64.0</ele><time>2026-04-19T16:37:23.999Z</time></trkpt><trkpt lat="36.98390314053372" lon="15.18355968455338"><ele>64.0</ele><time>2026-04-19T16:37:24.999Z</time></trkpt><trkpt lat="36.98376353802189" lon="15.183672452154406"><ele>64.0</ele><time>2026-04-19T16:37:25.999Z</time></trkpt><trkpt lat="36.98362653209613" lon="15.183783122219195"><ele>64.0</ele><time>2026-04-19T16:37:26.999Z</time></trkpt><trkpt lat="36.98348980720213" lon="15.183893565325409"><ele>64.0</ele><time>2026-04-19T16:37:27.999Z</time></trkpt><trkpt lat="36.98334947772052" lon="15.184006920153895"><ele>64.0</ele><time>2026-04-19T16:37:28.999Z</time></trkpt><trkpt lat="36.983204950256486" lon="15.184123666470647"><ele>64.0</ele><time>2026-04-19T16:37:29.999Z</time></trkpt><trkpt lat="36.98305852427385" lon="15.18424271280446"><ele>64.0</ele><time>2026-04-19T16:37:30.999Z</time></trkpt><trkpt lat="36.98291048122979" lon="15.184362980359372"><ele>64.0</ele><time>2026-04-19T16:37:31.999Z</time></trkpt><trkpt lat="36.98276173653608" lon="15.184483817938254"><ele>64.0</ele><time>2026-04-19T16:37:32.999Z</time></trkpt><trkpt lat="36.982611461603646" lon="15.184605898665133"><ele>63.666666666666664</ele><time>2026-04-19T16:37:33.999Z</time></trkpt><trkpt lat="36.98245852157719" lon="15.184729727459194"><ele>63.33333333333333</ele><time>2026-04-19T16:37:34.999Z</time></trkpt><trkpt lat="36.98230341121644" lon="15.184852803315014"><ele>63.0</ele><time>2026-04-19T16:37:35.999Z</time></trkpt><trkpt lat="36.98214862064187" lon="15.18497562539764"><ele>62.33333333333333</ele><time>2026-04-19T16:37:36.999Z</time></trkpt><trkpt lat="36.98199497139941" lon="15.185099436199607"><ele>61.666666666666664</ele><time>2026-04-19T16:37:37.999Z</time></trkpt><trkpt lat="36.98184018706106" lon="15.185225392767533"><ele>61.0</ele><time>2026-04-19T16:37:38.999Z</time></trkpt><trkpt lat="36.98168412741563" lon="15.185352387147878"><ele>61.0</ele><time>2026-04-19T16:37:39.999Z</time></trkpt><trkpt lat="36.981526445957485" lon="15.185479156266345"><ele>61.0</ele><time>2026-04-19T16:37:40.999Z</time></trkpt><trkpt lat="36.981365281802915" lon="15.185606694793035"><ele>61.0</ele><time>2026-04-19T16:37:41.999Z</time></trkpt><trkpt lat="36.98120930822655" lon="15.185730125789732"><ele>61.0</ele><time>2026-04-19T16:37:42.999Z</time></trkpt><trkpt lat="36.98105989932195" lon="15.18585236152681"><ele>61.0</ele><time>2026-04-19T16:37:43.999Z</time></trkpt><trkpt lat="36.98091125362238" lon="15.185974547993682"><ele>61.0</ele><time>2026-04-19T16:37:44.999Z</time></trkpt><trkpt lat="36.980760125498236" lon="15.186098774971382"><ele>61.666666666666664</ele><time>2026-04-19T16:37:45.999Z</time></trkpt><trkpt lat="36.98060815605198" lon="15.18622369276489"><ele>62.33333333333333</ele><time>2026-04-19T16:37:46.999Z</time></trkpt><trkpt lat="36.9804570178042" lon="15.18634857288259"><ele>63.0</ele><time>2026-04-19T16:37:47.999Z</time></trkpt><trkpt lat="36.980305862011626" lon="15.186473399684344"><ele>63.0</ele><time>2026-04-19T16:37:48.999Z</time></trkpt><trkpt lat="36.980155464417365" lon="15.186595636128482"><ele>63.0</ele><time>2026-04-19T16:37:49.999Z</time></trkpt><trkpt lat="36.9800015885894" lon="15.186720143300244"><ele>63.0</ele><time>2026-04-19T16:37:50.999Z</time></trkpt><trkpt lat="36.97984664829524" lon="15.186845511722561"><ele>63.0</ele><time>2026-04-19T16:37:51.999Z</time></trkpt><trkpt lat="36.97969130832829" lon="15.18697120357728"><ele>63.0</ele><time>2026-04-19T16:37:52.999Z</time></trkpt><trkpt lat="36.97953686310173" lon="15.18709617146644"><ele>63.0</ele><time>2026-04-19T16:37:53.999Z</time></trkpt><trkpt lat="36.9793827506644" lon="15.18722086969044"><ele>62.66666666666667</ele><time>2026-04-19T16:37:54.999Z</time></trkpt><trkpt lat="36.97922878372448" lon="15.187344098906872"><ele>62.333333333333336</ele><time>2026-04-19T16:37:55.999Z</time></trkpt><trkpt lat="36.979075618477154" lon="15.187466758889903"><ele>62.0</ele><time>2026-04-19T16:37:56.999Z</time></trkpt><trkpt lat="36.97892220278512" lon="15.187589789481928"><ele>62.66666666666667</ele><time>2026-04-19T16:37:57.999Z</time></trkpt><trkpt lat="36.97877144811524" lon="15.187711043846983"><ele>63.33333333333333</ele><time>2026-04-19T16:37:58.999Z</time></trkpt><trkpt lat="36.97862604611027" lon="15.18783133477903"><ele>64.0</ele><time>2026-04-19T16:37:59.999Z</time></trkpt><trkpt lat="36.978487473631944" lon="15.187945975751505"><ele>64.0</ele><time>2026-04-19T16:38:01Z</time></trkpt><trkpt lat="36.97835372903256" lon="15.188056624812345"><ele>64.0</ele><time>2026-04-19T16:38:02Z</time></trkpt><trkpt lat="36.97822568028064" lon="15.188160472153386"><ele>64.0</ele><time>2026-04-19T16:38:03Z</time></trkpt><trkpt lat="36.978105154277536" lon="15.18825858304133"><ele>64.5</ele><time>2026-04-19T16:38:04Z</time></trkpt><trkpt lat="36.97798685478284" lon="15.18835495573025"><ele>65.0</ele><time>2026-04-19T16:38:05Z</time></trkpt><trkpt lat="36.977870861639175" lon="15.188449449512406"><ele>65.5</ele><time>2026-04-19T16:38:06Z</time></trkpt><trkpt lat="36.97775119632193" lon="15.188546934941003"><ele>66.0</ele><time>2026-04-19T16:38:07Z</time></trkpt><trkpt lat="36.97763268713106" lon="15.188643480068981"><ele>65.5</ele><time>2026-04-19T16:38:08Z</time></trkpt><trkpt lat="36.977512596024006" lon="15.188739876473155"><ele>65.0</ele><time>2026-04-19T16:38:09Z</time></trkpt><trkpt lat="36.97738826878364" lon="15.188840096493063"><ele>64.5</ele><time>2026-04-19T16:38:10Z</time></trkpt><trkpt lat="36.977264751832166" lon="15.188939663358244"><ele>64.0</ele><time>2026-04-19T16:38:11Z</time></trkpt><trkpt lat="36.977141080802966" lon="15.18903935441875"><ele>63.5</ele><time>2026-04-19T16:38:12Z</time></trkpt><trkpt lat="36.97702333247419" lon="15.189134271211223"><ele>63.0</ele><time>2026-04-19T16:38:13Z</time></trkpt><trkpt lat="36.976910382992145" lon="15.18922531962272"><ele>62.5</ele><time>2026-04-19T16:38:14Z</time></trkpt><trkpt lat="36.97679982743893" lon="15.189314438294286"><ele>62.0</ele><time>2026-04-19T16:38:15Z</time></trkpt><trkpt lat="36.97669336281075" lon="15.189400260417909"><ele>61.75</ele><time>2026-04-19T16:38:16Z</time></trkpt><trkpt lat="36.97659147752445" lon="15.189482390024255"><ele>61.5</ele><time>2026-04-19T16:38:17Z</time></trkpt><trkpt lat="36.97649179317566" lon="15.189562745430912"><ele>61.25</ele><time>2026-04-19T16:38:18Z</time></trkpt><trkpt lat="36.976393429985784" lon="15.18964203586844"><ele>61.0</ele><time>2026-04-19T16:38:19Z</time></trkpt><trkpt lat="36.9762968793657" lon="15.189719865202767"><ele>61.0</ele><time>2026-04-19T16:38:20Z</time></trkpt><trkpt lat="36.97620201904193" lon="15.189796676282937"><ele>60.99999999999999</ele><time>2026-04-19T16:38:21Z</time></trkpt><trkpt lat="36.976108263227076" lon="15.189869495070694"><ele>60.99999999999999</ele><time>2026-04-19T16:38:22Z</time></trkpt><trkpt lat="36.97601446813143" lon="15.18994278001904"><ele>61.0</ele><time>2026-04-19T16:38:23Z</time></trkpt><trkpt lat="36.97592566371257" lon="15.190016348591394"><ele>61.0</ele><time>2026-04-19T16:38:24Z</time></trkpt><trkpt lat="36.97584495729946" lon="15.190082918190146"><ele>60.83333333333333</ele><time>2026-04-19T16:38:25Z</time></trkpt><trkpt lat="36.97577274144064" lon="15.190142575428593"><ele>60.666666666666664</ele><time>2026-04-19T16:38:26Z</time></trkpt><trkpt lat="36.97571108522837" lon="15.190193509321258"><ele>60.5</ele><time>2026-04-19T16:38:27Z</time></trkpt><trkpt lat="36.97565686458798" lon="15.190238300829767"><ele>60.33333333333333</ele><time>2026-04-19T16:38:28Z</time></trkpt><trkpt lat="36.975573398800734" lon="15.190307251596543"><ele>60.166666666666664</ele><time>2026-04-19T16:38:30Z</time></trkpt><trkpt lat="36.97549561681127" lon="15.190338927753873"><ele>60.0</ele><time>2026-04-19T16:38:32Z</time></trkpt><trkpt lat="36.975388353532885" lon="15.190256488131435"><ele>60.0</ele><time>2026-04-19T16:38:33.999Z</time></trkpt><trkpt lat="36.97532169051038" lon="15.190182407201261"><ele>60.0</ele><time>2026-04-19T16:38:34.999Z</time></trkpt><trkpt lat="36.97525266921771" lon="15.190105453115788"><ele>60.0</ele><time>2026-04-19T16:38:35.999Z</time></trkpt><trkpt lat="36.975184660410946" lon="15.190033785848463"><ele>60.0</ele><time>2026-04-19T16:38:36.999Z</time></trkpt><trkpt lat="36.97511591277433" lon="15.189965372046613"><ele>60.0</ele><time>2026-04-19T16:38:37.999Z</time></trkpt><trkpt lat="36.975045407529926" lon="15.189893609979533"><ele>60.0</ele><time>2026-04-19T16:38:38.999Z</time></trkpt><trkpt lat="36.97496668293328" lon="15.189822509307774"><ele>59.2</ele><time>2026-04-19T16:38:39.999Z</time></trkpt><trkpt lat="36.97488449619509" lon="15.189754666861067"><ele>58.4</ele><time>2026-04-19T16:38:40.999Z</time></trkpt><trkpt lat="36.974795467635204" lon="15.189694683776846"><ele>57.599999999999994</ele><time>2026-04-19T16:38:41.999Z</time></trkpt><trkpt lat="36.974700700703266" lon="15.189638775014041"><ele>56.8</ele><time>2026-04-19T16:38:42.999Z</time></trkpt><trkpt lat="36.9746037336941" lon="15.189586025014611"><ele>56.0</ele><time>2026-04-19T16:38:43.999Z</time></trkpt><trkpt lat="36.974506013924206" lon="15.189537976770184"><ele>56.0</ele><time>2026-04-19T16:38:44.999Z</time></trkpt><trkpt lat="36.97440693570259" lon="15.189495436797642"><ele>55.99999999999999</ele><time>2026-04-19T16:38:45.999Z</time></trkpt><trkpt lat="36.97430668738418" lon="15.189452494077681"><ele>55.99999999999999</ele><time>2026-04-19T16:38:46.999Z</time></trkpt><trkpt lat="36.97420424499384" lon="15.189418956291755"><ele>56.0</ele><time>2026-04-19T16:38:47.999Z</time></trkpt><trkpt lat="36.97409972013841" lon="15.189396634546743"><ele>56.0</ele><time>2026-04-19T16:38:48.999Z</time></trkpt><trkpt lat="36.97399082073149" lon="15.189379318525436"><ele>56.0</ele><time>2026-04-19T16:38:49.999Z</time></trkpt><trkpt lat="36.97387934607967" lon="15.18936211345285"><ele>55.99999999999999</ele><time>2026-04-19T16:38:50.999Z</time></trkpt><trkpt lat="36.97376832892789" lon="15.189348786571104"><ele>55.99999999999999</ele><time>2026-04-19T16:38:51.999Z</time></trkpt><trkpt lat="36.973657598474844" lon="15.189337625639462"><ele>56.0</ele><time>2026-04-19T16:38:52.999Z</time></trkpt><trkpt lat="36.97354482802411" lon="15.189340051397956"><ele>56.0</ele><time>2026-04-19T16:38:53.999Z</time></trkpt><trkpt lat="36.97343551385846" lon="15.189363761621934"><ele>55.8</ele><time>2026-04-19T16:38:54.999Z</time></trkpt><trkpt lat="36.973324127289736" lon="15.189395897285987"><ele>55.599999999999994</ele><time>2026-04-19T16:38:55.999Z</time></trkpt><trkpt lat="36.973248074995574" lon="15.189462466572083"><ele>55.4</ele><time>2026-04-19T16:38:56.999Z</time></trkpt><trkpt lat="36.973160609856286" lon="15.189554782665008"><ele>55.2</ele><time>2026-04-19T16:38:57.999Z</time></trkpt><trkpt lat="36.97308236460727" lon="15.189662401295571"><ele>55.0</ele><time>2026-04-19T16:38:58.999Z</time></trkpt><trkpt lat="36.97301486975322" lon="15.189760133406228"><ele>55.0</ele><time>2026-04-19T16:38:59.999Z</time></trkpt><trkpt lat="36.972929477491505" lon="15.189860768115558"><ele>55.0</ele><time>2026-04-19T16:39:00.999Z</time></trkpt><trkpt lat="36.972856606117475" lon="15.189966703675143"><ele>55.0</ele><time>2026-04-19T16:39:01.999Z</time></trkpt><trkpt lat="36.97276785535536" lon="15.190061251476006"><ele>55.0</ele><time>2026-04-19T16:39:02.999Z</time></trkpt><trkpt lat="36.972691900061605" lon="15.190152586846514"><ele>55.0</ele><time>2026-04-19T16:39:03.999Z</time></trkpt><trkpt lat="36.97262027698429" lon="15.19024617941962"><ele>55.0</ele><time>2026-04-19T16:39:04.999Z</time></trkpt><trkpt lat="36.97255137090181" lon="15.190342917759937"><ele>55.0</ele><time>2026-04-19T16:39:05.999Z</time></trkpt><trkpt lat="36.97248480599067" lon="15.190436333900355"><ele>55.0</ele><time>2026-04-19T16:39:06.999Z</time></trkpt><trkpt lat="36.97241938382106" lon="15.190530888315127"><ele>55.0</ele><time>2026-04-19T16:39:07.999Z</time></trkpt><trkpt lat="36.972351787389194" lon="15.19062456751507"><ele>54.6</ele><time>2026-04-19T16:39:08.999Z</time></trkpt><trkpt lat="36.97228497107865" lon="15.190719336491505"><ele>54.2</ele><time>2026-04-19T16:39:09.999Z</time></trkpt><trkpt lat="36.97221561639732" lon="15.190810776681266"><ele>53.8</ele><time>2026-04-19T16:39:10.999Z</time></trkpt><trkpt lat="36.9721333260125" lon="15.190891171761901"><ele>53.4</ele><time>2026-04-19T16:39:11.999Z</time></trkpt><trkpt lat="36.97206716924055" lon="15.19097633120721"><ele>53.0</ele><time>2026-04-19T16:39:12.999Z</time></trkpt><trkpt lat="36.97200121818808" lon="15.191065305815084"><ele>53.0</ele><time>2026-04-19T16:39:13.999Z</time></trkpt><trkpt lat="36.971942177483584" lon="15.191169775409742"><ele>53.0</ele><time>2026-04-19T16:39:14.999Z</time></trkpt><trkpt lat="36.971869052127595" lon="15.191254044440068"><ele>53.0</ele><time>2026-04-19T16:39:15.999Z</time></trkpt><trkpt lat="36.97178439071071" lon="15.191313482697053"><ele>53.0</ele><time>2026-04-19T16:39:16.999Z</time></trkpt><trkpt lat="36.97169356262754" lon="15.191356933147091"><ele>53.0</ele><time>2026-04-19T16:39:17.999Z</time></trkpt><trkpt lat="36.9715886830631" lon="15.191345373172817"><ele>52.5</ele><time>2026-04-19T16:39:18.999Z</time></trkpt><trkpt lat="36.97148223729731" lon="15.191307500525642"><ele>52.0</ele><time>2026-04-19T16:39:19.999Z</time></trkpt><trkpt lat="36.971391441173964" lon="15.191262589584204"><ele>51.5</ele><time>2026-04-19T16:39:20.999Z</time></trkpt><trkpt lat="36.97129016871541" lon="15.191176181229256"><ele>51.0</ele><time>2026-04-19T16:39:21.999Z</time></trkpt><trkpt lat="36.97117222828941" lon="15.191067278843517"><ele>51.0</ele><time>2026-04-19T16:39:22.999Z</time></trkpt><trkpt lat="36.97105631717914" lon="15.190987783727229"><ele>51.0</ele><time>2026-04-19T16:39:23.999Z</time></trkpt><trkpt lat="36.970996985765005" lon="15.190949503603079"><ele>51.0</ele><time>2026-04-19T16:39:24.999Z</time></trkpt><trkpt lat="36.97094499657618" lon="15.19085669850986"><ele>51.0</ele><time>2026-04-19T16:39:25.999Z</time></trkpt><trkpt lat="36.970857955557676" lon="15.190760542277225"><ele>51.0</ele><time>2026-04-19T16:39:26.999Z</time></trkpt><trkpt lat="36.970729060137096" lon="15.190618268725816"><ele>50.25</ele><time>2026-04-19T16:39:27.999Z</time></trkpt><trkpt lat="36.970629645801516" lon="15.190508604250342"><ele>49.5</ele><time>2026-04-19T16:39:28.999Z</time></trkpt><trkpt lat="36.97053006464117" lon="15.190389833059202"><ele>48.75</ele><time>2026-04-19T16:39:29.999Z</time></trkpt><trkpt lat="36.97043688207398" lon="15.190278263075712"><ele>48.0</ele><time>2026-04-19T16:39:30.999Z</time></trkpt><trkpt lat="36.97033921519173" lon="15.190162505120528"><ele>48.0</ele><time>2026-04-19T16:39:31.999Z</time></trkpt><trkpt lat="36.9702269290135" lon="15.190042721244383"><ele>48.0</ele><time>2026-04-19T16:39:32.999Z</time></trkpt><trkpt lat="36.9701217311839" lon="15.189919760489657"><ele>48.0</ele><time>2026-04-19T16:39:33.999Z</time></trkpt><trkpt lat="36.970020062007414" lon="15.189800230335498"><ele>48.0</ele><time>2026-04-19T16:39:34.999Z</time></trkpt><trkpt lat="36.969912809152156" lon="15.189694047878389"><ele>49.25</ele><time>2026-04-19T16:39:35.999Z</time></trkpt><trkpt lat="36.969792720219004" lon="15.189610151545212"><ele>50.5</ele><time>2026-04-19T16:39:36.999Z</time></trkpt><trkpt lat="36.969657594433144" lon="15.189557092739635"><ele>51.75</ele><time>2026-04-19T16:39:37.999Z</time></trkpt><trkpt lat="36.96950134813353" lon="15.189540782844968"><ele>53.0</ele><time>2026-04-19T16:39:38.999Z</time></trkpt><trkpt lat="36.96933214755696" lon="15.189554448223232"><ele>51.66666666666667</ele><time>2026-04-19T16:39:39.999Z</time></trkpt><trkpt lat="36.969165145476346" lon="15.189572660551072"><ele>50.33333333333333</ele><time>2026-04-19T16:39:40.999Z</time></trkpt><trkpt lat="36.96900529047886" lon="15.18958106787414"><ele>49.0</ele><time>2026-04-19T16:39:41.999Z</time></trkpt><trkpt lat="36.96884404164191" lon="15.18958716093953"><ele>49.0</ele><time>2026-04-19T16:39:42.999Z</time></trkpt><trkpt lat="36.968681359047466" lon="15.189595060748697"><ele>49.0</ele><time>2026-04-19T16:39:43.999Z</time></trkpt><trkpt lat="36.968521968538816" lon="15.189598933035525"><ele>49.0</ele><time>2026-04-19T16:39:44.999Z</time></trkpt><trkpt lat="36.96835851081105" lon="15.18960645393886"><ele>49.33333333333333</ele><time>2026-04-19T16:39:45.999Z</time></trkpt><trkpt lat="36.968189626575445" lon="15.18961447063348"><ele>49.66666666666667</ele><time>2026-04-19T16:39:46.999Z</time></trkpt><trkpt lat="36.96801219461522" lon="15.189624487369532"><ele>50.0</ele><time>2026-04-19T16:39:47.999Z</time></trkpt><trkpt lat="36.9678309194832" lon="15.189632112827354"><ele>50.0</ele><time>2026-04-19T16:39:48.999Z</time></trkpt><trkpt lat="36.967654372702285" lon="15.189644944656026"><ele>50.0</ele><time>2026-04-19T16:39:49.999Z</time></trkpt><trkpt lat="36.96747808689659" lon="15.189637913729133"><ele>50.0</ele><time>2026-04-19T16:39:50.999Z</time></trkpt><trkpt lat="36.96729655727214" lon="15.18964680279828"><ele>49.0</ele><time>2026-04-19T16:39:51.999Z</time></trkpt><trkpt lat="36.96711016983809" lon="15.189655812591713"><ele>48.0</ele><time>2026-04-19T16:39:52.999Z</time></trkpt><trkpt lat="36.96692212792849" lon="15.189664902362649"><ele>47.0</ele><time>2026-04-19T16:39:53.999Z</time></trkpt><trkpt lat="36.96673506011803" lon="15.189693414376876"><ele>45.666666666666664</ele><time>2026-04-19T16:39:54.999Z</time></trkpt><trkpt lat="36.96655414105285" lon="15.189698945616893"><ele>44.333333333333336</ele><time>2026-04-19T16:39:55.999Z</time></trkpt><trkpt lat="36.96637551607861" lon="15.189705513269473"><ele>43.0</ele><time>2026-04-19T16:39:56.999Z</time></trkpt><trkpt lat="36.96620106907934" lon="15.189717722456212"><ele>43.0</ele><time>2026-04-19T16:39:57.999Z</time></trkpt><trkpt lat="36.96602490772062" lon="15.189708466794148"><ele>43.0</ele><time>2026-04-19T16:39:58.999Z</time></trkpt><trkpt lat="36.965849332768144" lon="15.189717184364483"><ele>43.0</ele><time>2026-04-19T16:39:59.999Z</time></trkpt><trkpt lat="36.965671433827524" lon="15.189726017322693"><ele>42.66666666666667</ele><time>2026-04-19T16:40:00.999Z</time></trkpt><trkpt lat="36.96548448450665" lon="15.189754328476432"><ele>42.333333333333336</ele><time>2026-04-19T16:40:01.998Z</time></trkpt><trkpt lat="36.96529303094466" lon="15.189764902717645"><ele>42.0</ele><time>2026-04-19T16:40:02.998Z</time></trkpt><trkpt lat="36.96510249202174" lon="15.189753958901063"><ele>41.0</ele><time>2026-04-19T16:40:03.998Z</time></trkpt><trkpt lat="36.964915047046176" lon="15.189762885810108"><ele>40.0</ele><time>2026-04-19T16:40:04.998Z</time></trkpt><trkpt lat="36.96472644479498" lon="15.189771867834157"><ele>39.0</ele><time>2026-04-19T16:40:05.998Z</time></trkpt><trkpt lat="36.96453864819442" lon="15.189797384815975"><ele>39.0</ele><time>2026-04-19T16:40:07Z</time></trkpt><trkpt lat="36.964350713436595" lon="15.18980534324629"><ele>39.0</ele><time>2026-04-19T16:40:08Z</time></trkpt><trkpt lat="36.964161480106206" lon="15.189812178196595"><ele>39.0</ele><time>2026-04-19T16:40:09Z</time></trkpt><trkpt lat="36.963971202640316" lon="15.189823460782423"><ele>38.333333333333336</ele><time>2026-04-19T16:40:10Z</time></trkpt><trkpt lat="36.96378236133289" lon="15.189833970378853"><ele>37.66666666666667</ele><time>2026-04-19T16:40:11Z</time></trkpt><trkpt lat="36.96359107355302" lon="15.189843505946099"><ele>37.0</ele><time>2026-04-19T16:40:12Z</time></trkpt><trkpt lat="36.963400463029735" lon="15.18985054923577"><ele>36.0</ele><time>2026-04-19T16:40:13Z</time></trkpt><trkpt lat="36.963209099277954" lon="15.189858166561665"><ele>35.0</ele><time>2026-04-19T16:40:14Z</time></trkpt><trkpt lat="36.9630185433473" lon="15.189866628208776"><ele>34.0</ele><time>2026-04-19T16:40:15Z</time></trkpt><trkpt lat="36.962820281699045" lon="15.1898783145714"><ele>34.0</ele><time>2026-04-19T16:40:16Z</time></trkpt><trkpt lat="36.96261560778007" lon="15.189871079397841"><ele>34.0</ele><time>2026-04-19T16:40:17Z</time></trkpt><trkpt lat="36.962420881041126" lon="15.18987973296493"><ele>34.0</ele><time>2026-04-19T16:40:18Z</time></trkpt><trkpt lat="36.962229312762794" lon="15.189888246167907"><ele>33.333333333333336</ele><time>2026-04-19T16:40:19Z</time></trkpt><trkpt lat="36.962033515753554" lon="15.189896947291869"><ele>32.666666666666664</ele><time>2026-04-19T16:40:20Z</time></trkpt><trkpt lat="36.96183806201542" lon="15.189905633163646"><ele>32.0</ele><time>2026-04-19T16:40:21Z</time></trkpt><trkpt lat="36.96164872718917" lon="15.189914436905442"><ele>31.333333333333332</ele><time>2026-04-19T16:40:22Z</time></trkpt><trkpt lat="36.961463705941455" lon="15.189940500608538"><ele>30.666666666666664</ele><time>2026-04-19T16:40:23Z</time></trkpt><trkpt lat="36.961288643641794" lon="15.189947668940317"><ele>30.0</ele><time>2026-04-19T16:40:24Z</time></trkpt><trkpt lat="36.96111925933223" lon="15.18995588422182"><ele>30.0</ele><time>2026-04-19T16:40:25Z</time></trkpt><trkpt lat="36.96095522653913" lon="15.189960386656885"><ele>30.0</ele><time>2026-04-19T16:40:26Z</time></trkpt><trkpt lat="36.960787931855194" lon="15.18996648768742"><ele>30.0</ele><time>2026-04-19T16:40:27Z</time></trkpt><trkpt lat="36.960629975895706" lon="15.18997388180724"><ele>30.0</ele><time>2026-04-19T16:40:28Z</time></trkpt><trkpt lat="36.960456233804535" lon="15.189987434078404"><ele>30.0</ele><time>2026-04-19T16:40:29Z</time></trkpt><trkpt lat="36.96027252498346" lon="15.189982294430871"><ele>30.0</ele><time>2026-04-19T16:40:30Z</time></trkpt><trkpt lat="36.960074629393965" lon="15.189991208300082"><ele>30.0</ele><time>2026-04-19T16:40:31Z</time></trkpt><trkpt lat="36.95987566477794" lon="15.190000279119133"><ele>30.0</ele><time>2026-04-19T16:40:32Z</time></trkpt><trkpt lat="36.959672523788555" lon="15.190009797485232"><ele>30.0</ele><time>2026-04-19T16:40:33Z</time></trkpt><trkpt lat="36.95946365564488" lon="15.19002019978124"><ele>30.0</ele><time>2026-04-19T16:40:34Z</time></trkpt><trkpt lat="36.95924400691207" lon="15.190032185748931"><ele>30.0</ele><time>2026-04-19T16:40:35Z</time></trkpt><trkpt lat="36.959019316092544" lon="15.190043948436058"><ele>30.0</ele><time>2026-04-19T16:40:36Z</time></trkpt><trkpt lat="36.958792287763174" lon="15.190053966080953"><ele>29.333333333333336</ele><time>2026-04-19T16:40:37Z</time></trkpt><trkpt lat="36.95856480860745" lon="15.190064336122086"><ele>28.666666666666668</ele><time>2026-04-19T16:40:37.999Z</time></trkpt><trkpt lat="36.958344775814886" lon="15.190075532315975"><ele>28.0</ele><time>2026-04-19T16:40:38.999Z</time></trkpt><trkpt lat="36.95811259915043" lon="15.190087346455778"><ele>26.5</ele><time>2026-04-19T16:40:39.999Z</time></trkpt><trkpt lat="36.957871942512924" lon="15.19009959207714"><ele>25.0</ele><time>2026-04-19T16:40:40.999Z</time></trkpt><trkpt lat="36.957630821849804" lon="15.190111781005925"><ele>24.5</ele><time>2026-04-19T16:40:41.999Z</time></trkpt><trkpt lat="36.95739254307956" lon="15.190123729410603"><ele>24.0</ele><time>2026-04-19T16:40:42.999Z</time></trkpt><trkpt lat="36.957154928741346" lon="15.190135644496467"><ele>24.0</ele><time>2026-04-19T16:40:43.999Z</time></trkpt><trkpt lat="36.95691690792528" lon="15.190167896491726"><ele>24.0</ele><time>2026-04-19T16:40:44.999Z</time></trkpt><trkpt lat="36.95668538543709" lon="15.190178449462191"><ele>24.0</ele><time>2026-04-19T16:40:45.999Z</time></trkpt><trkpt lat="36.956464993188476" lon="15.190168199474538"><ele>24.0</ele><time>2026-04-19T16:40:46.999Z</time></trkpt><trkpt lat="36.95625510857138" lon="15.190177809134168"><ele>24.0</ele><time>2026-04-19T16:40:47.999Z</time></trkpt><trkpt lat="36.956051227563016" lon="15.19018765896791"><ele>23.666666666666668</ele><time>2026-04-19T16:40:48.999Z</time></trkpt><trkpt lat="36.955852111445836" lon="15.190197164442012"><ele>23.333333333333336</ele><time>2026-04-19T16:40:49.999Z</time></trkpt><trkpt lat="36.955660106058936" lon="15.190206330464191"><ele>23.0</ele><time>2026-04-19T16:40:50.999Z</time></trkpt><trkpt lat="36.95547266199718" lon="15.190215278736817"><ele>23.0</ele><time>2026-04-19T16:40:51.999Z</time></trkpt><trkpt lat="36.955296137439646" lon="15.190223705730201"><ele>23.0</ele><time>2026-04-19T16:40:52.999Z</time></trkpt><trkpt lat="36.955128610155576" lon="15.19024911504443"><ele>23.0</ele><time>2026-04-19T16:40:53.999Z</time></trkpt><trkpt lat="36.954966583672565" lon="15.190252673079401"><ele>23.333333333333336</ele><time>2026-04-19T16:40:54.999Z</time></trkpt><trkpt lat="36.95480614214389" lon="15.190259534430183"><ele>23.666666666666668</ele><time>2026-04-19T16:40:55.999Z</time></trkpt><trkpt lat="36.95464921964221" lon="15.190271374777973"><ele>24.0</ele><time>2026-04-19T16:40:56.999Z</time></trkpt><trkpt lat="36.954491875191536" lon="15.190261850370222"><ele>24.0</ele><time>2026-04-19T16:40:57.999Z</time></trkpt><trkpt lat="36.9543369345275" lon="15.190269055872308"><ele>24.0</ele><time>2026-04-19T16:40:58.999Z</time></trkpt><trkpt lat="36.95418471812288" lon="15.190276134677333"><ele>24.0</ele><time>2026-04-19T16:40:59.999Z</time></trkpt><trkpt lat="36.95403344384265" lon="15.190283169680123"><ele>23.5</ele><time>2026-04-19T16:41:00.999Z</time></trkpt><trkpt lat="36.95389402204862" lon="15.190290313410332"><ele>23.0</ele><time>2026-04-19T16:41:01.999Z</time></trkpt><trkpt lat="36.953758895417515" lon="15.19031793840037"><ele>22.5</ele><time>2026-04-19T16:41:02.999Z</time></trkpt><trkpt lat="36.95362872131338" lon="15.190323493486517"><ele>22.0</ele><time>2026-04-19T16:41:03.999Z</time></trkpt><trkpt lat="36.95349893584311" lon="15.190326268892907"><ele>22.0</ele><time>2026-04-19T16:41:04.999Z</time></trkpt><trkpt lat="36.95337229572553" lon="15.190330806795235"><ele>22.0</ele><time>2026-04-19T16:41:05.999Z</time></trkpt><trkpt lat="36.95325117884271" lon="15.190334029654583"><ele>22.0</ele><time>2026-04-19T16:41:06.999Z</time></trkpt><trkpt lat="36.953138460043384" lon="15.190338301603727"><ele>22.0</ele><time>2026-04-19T16:41:07.999Z</time></trkpt><trkpt lat="36.9530345936384" lon="15.190344423284726"><ele>21.666666666666664</ele><time>2026-04-19T16:41:08.999Z</time></trkpt><trkpt lat="36.95293631436382" lon="15.190352243742977"><ele>21.333333333333332</ele><time>2026-04-19T16:41:09.999Z</time></trkpt><trkpt lat="36.952841064781985" lon="15.190359894222064"><ele>21.0</ele><time>2026-04-19T16:41:10.999Z</time></trkpt><trkpt lat="36.95274841617569" lon="15.190363560382986"><ele>20.666666666666668</ele><time>2026-04-19T16:41:11.999Z</time></trkpt><trkpt lat="36.952665354572254" lon="15.190367861318114"><ele>20.333333333333336</ele><time>2026-04-19T16:41:12.999Z</time></trkpt><trkpt lat="36.95258930752985" lon="15.190366193128751"><ele>20.0</ele><time>2026-04-19T16:41:13.999Z</time></trkpt><trkpt lat="36.952515122174894" lon="15.190361441049905"><ele>20.0</ele><time>2026-04-19T16:41:14.999Z</time></trkpt><trkpt lat="36.95244416614128" lon="15.190346344581263"><ele>20.0</ele><time>2026-04-19T16:41:15.999Z</time></trkpt><trkpt lat="36.95237238876389" lon="15.190308886460546"><ele>20.0</ele><time>2026-04-19T16:41:16.999Z</time></trkpt><trkpt lat="36.95230293430429" lon="15.190270157511266"><ele>20.0</ele><time>2026-04-19T16:41:17.999Z</time></trkpt><trkpt lat="36.95223132455848" lon="15.190256658354183"><ele>20.0</ele><time>2026-04-19T16:41:18.999Z</time></trkpt><trkpt lat="36.9521651657821" lon="15.190267135364177"><ele>20.0</ele><time>2026-04-19T16:41:19.999Z</time></trkpt><trkpt lat="36.952114575159136" lon="15.19032797857991"><ele>20.0</ele><time>2026-04-19T16:41:20.999Z</time></trkpt><trkpt lat="36.952096633936776" lon="15.190412897921883"><ele>20.0</ele><time>2026-04-19T16:41:21.999Z</time></trkpt><trkpt lat="36.95211296842497" lon="15.190508277118337"><ele>20.0</ele><time>2026-04-19T16:41:22.999Z</time></trkpt><trkpt lat="36.952158640357325" lon="15.190591789544598"><ele>20.0</ele><time>2026-04-19T16:41:23.999Z</time></trkpt><trkpt lat="36.952226065485824" lon="15.190655781806791"><ele>20.0</ele><time>2026-04-19T16:41:24.999Z</time></trkpt><trkpt lat="36.952308008339635" lon="15.190692471191236"><ele>20.0</ele><time>2026-04-19T16:41:25.999Z</time></trkpt><trkpt lat="36.9523356404232" lon="15.190832842392266"><ele>20.0</ele><time>2026-04-19T16:41:26.999Z</time></trkpt><trkpt lat="36.952382886054295" lon="15.190978274370794"><ele>19.75</ele><time>2026-04-19T16:41:27.999Z</time></trkpt><trkpt lat="36.95243853420595" lon="15.1911351336354"><ele>19.5</ele><time>2026-04-19T16:41:28.999Z</time></trkpt><trkpt lat="36.95248999446905" lon="15.191274236307429"><ele>19.25</ele><time>2026-04-19T16:41:29.999Z</time></trkpt><trkpt lat="36.952547087823966" lon="15.191423676840106"><ele>19.0</ele><time>2026-04-19T16:41:30.999Z</time></trkpt><trkpt lat="36.95260578907483" lon="15.19157536423671"><ele>18.75</ele><time>2026-04-19T16:41:31.999Z</time></trkpt><trkpt lat="36.95266737565724" lon="15.191734507483643"><ele>18.5</ele><time>2026-04-19T16:41:32.999Z</time></trkpt><trkpt lat="36.95273065064781" lon="15.191898013717665"><ele>18.25</ele><time>2026-04-19T16:41:33.999Z</time></trkpt><trkpt lat="36.95279650498182" lon="15.192066831797286"><ele>18.0</ele><time>2026-04-19T16:41:34.999Z</time></trkpt><trkpt lat="36.952866328808895" lon="15.192243582622323"><ele>17.666666666666668</ele><time>2026-04-19T16:41:35.999Z</time></trkpt><trkpt lat="36.952938436666756" lon="15.192426115201043"><ele>17.333333333333336</ele><time>2026-04-19T16:41:36.999Z</time></trkpt><trkpt lat="36.953012564780764" lon="15.192613836786398"><ele>17.0</ele><time>2026-04-19T16:41:37.999Z</time></trkpt><trkpt lat="36.953086373199056" lon="15.192801607876715"><ele>17.0</ele><time>2026-04-19T16:41:38.999Z</time></trkpt><trkpt lat="36.95315704063" lon="15.19298138820132"><ele>17.0</ele><time>2026-04-19T16:41:39.999Z</time></trkpt><trkpt lat="36.9532296314406" lon="15.19317848051005"><ele>17.0</ele><time>2026-04-19T16:41:40.999Z</time></trkpt><trkpt lat="36.953300387572824" lon="15.193409180937145"><ele>17.0</ele><time>2026-04-19T16:41:41.999Z</time></trkpt><trkpt lat="36.953376229141995" lon="15.193668952270931"><ele>17.0</ele><time>2026-04-19T16:41:42.999Z</time></trkpt><trkpt lat="36.953452350513004" lon="15.19392860957552"><ele>17.0</ele><time>2026-04-19T16:41:43.999Z</time></trkpt><trkpt lat="36.9535181276751" lon="15.194168240990122"><ele>17.666666666666668</ele><time>2026-04-19T16:41:44.999Z</time></trkpt><trkpt lat="36.953574979687495" lon="15.1944009835962"><ele>18.333333333333332</ele><time>2026-04-19T16:41:45.999Z</time></trkpt><trkpt lat="36.953640608070614" lon="15.194635362740897"><ele>19.0</ele><time>2026-04-19T16:41:46.999Z</time></trkpt><trkpt lat="36.95371855468129" lon="15.19486250905297"><ele>19.333333333333332</ele><time>2026-04-19T16:41:47.999Z</time></trkpt><trkpt lat="36.95379839142671" lon="15.195068630067837"><ele>19.666666666666668</ele><time>2026-04-19T16:41:48.999Z</time></trkpt><trkpt lat="36.95389354582368" lon="15.195245149963695"><ele>20.0</ele><time>2026-04-19T16:41:49.999Z</time></trkpt><trkpt lat="36.953976287450274" lon="15.19542199504221"><ele>20.0</ele><time>2026-04-19T16:41:50.999Z</time></trkpt><trkpt lat="36.95407571995252" lon="15.195605392455725"><ele>20.0</ele><time>2026-04-19T16:41:51.999Z</time></trkpt><trkpt lat="36.95417317269025" lon="15.195775940232764"><ele>20.0</ele><time>2026-04-19T16:41:52.999Z</time></trkpt><trkpt lat="36.95425906464573" lon="15.195928406737686"><ele>19.5</ele><time>2026-04-19T16:41:53.999Z</time></trkpt><trkpt lat="36.95433913417283" lon="15.196073289063325"><ele>19.0</ele><time>2026-04-19T16:41:54.999Z</time></trkpt><trkpt lat="36.9544104073391" lon="15.196202002009503"><ele>18.5</ele><time>2026-04-19T16:41:55.999Z</time></trkpt><trkpt lat="36.9544759191521" lon="15.19632419294928"><ele>18.0</ele><time>2026-04-19T16:41:56.999Z</time></trkpt><trkpt lat="36.954524110119664" lon="15.196450775990428"><ele>17.75</ele><time>2026-04-19T16:41:57.999Z</time></trkpt><trkpt lat="36.95459122782767" lon="15.196582520255497"><ele>17.5</ele><time>2026-04-19T16:41:58.999Z</time></trkpt><trkpt lat="36.954671295498464" lon="15.196722963278226"><ele>17.25</ele><time>2026-04-19T16:41:59.999Z</time></trkpt><trkpt lat="36.95476228698928" lon="15.196867118050037"><ele>17.0</ele><time>2026-04-19T16:42:00.999Z</time></trkpt><trkpt lat="36.95485828803201" lon="15.197015534086713"><ele>17.0</ele><time>2026-04-19T16:42:01.999Z</time></trkpt><trkpt lat="36.95495994575352" lon="15.197164091165765"><ele>17.0</ele><time>2026-04-19T16:42:02.999Z</time></trkpt><trkpt lat="36.95506449701824" lon="15.197310532674457"><ele>17.0</ele><time>2026-04-19T16:42:03.999Z</time></trkpt><trkpt lat="36.95517870339663" lon="15.197451505552207"><ele>16.666666666666668</ele><time>2026-04-19T16:42:04.998Z</time></trkpt><trkpt lat="36.95530619199679" lon="15.197576937477205"><ele>16.333333333333332</ele><time>2026-04-19T16:42:05.998Z</time></trkpt><trkpt lat="36.9554242947496" lon="15.197720484626595"><ele>16.0</ele><time>2026-04-19T16:42:06.998Z</time></trkpt><trkpt lat="36.95555386187389" lon="15.19787546442274"><ele>16.0</ele><time>2026-04-19T16:42:07.998Z</time></trkpt><trkpt lat="36.95569376423735" lon="15.198044629930099"><ele>16.0</ele><time>2026-04-19T16:42:08.998Z</time></trkpt><trkpt lat="36.95583144214048" lon="15.198217040383195"><ele>16.0</ele><time>2026-04-19T16:42:09.998Z</time></trkpt><trkpt lat="36.955963178626135" lon="15.198383160072638"><ele>16.0</ele><time>2026-04-19T16:42:10.998Z</time></trkpt><trkpt lat="36.956104499977705" lon="15.198556876339728"><ele>16.0</ele><time>2026-04-19T16:42:11.998Z</time></trkpt><trkpt lat="36.95616622137156" lon="15.198640097878952"><ele>16.0</ele><time>2026-04-19T16:42:13Z</time></trkpt><trkpt lat="36.956297997363" lon="15.198789028657375"><ele>16.0</ele><time>2026-04-19T16:42:14Z</time></trkpt><trkpt lat="36.956432378719065" lon="15.198928908351014"><ele>16.0</ele><time>2026-04-19T16:42:15Z</time></trkpt><trkpt lat="36.95656030492672" lon="15.199066825327568"><ele>16.0</ele><time>2026-04-19T16:42:16Z</time></trkpt><trkpt lat="36.956677324309716" lon="15.199182902167227"><ele>15.333333333333332</ele><time>2026-04-19T16:42:17Z</time></trkpt><trkpt lat="36.95679473937015" lon="15.199284495603559"><ele>14.666666666666668</ele><time>2026-04-19T16:42:18Z</time></trkpt><trkpt lat="36.9569220610791" lon="15.199367781498244"><ele>14.0</ele><time>2026-04-19T16:42:19Z</time></trkpt><trkpt lat="36.95708853459487" lon="15.199444880245055"><ele>14.0</ele><time>2026-04-19T16:42:20Z</time></trkpt><trkpt lat="36.95727844439852" lon="15.199523444578356"><ele>14.0</ele><time>2026-04-19T16:42:21Z</time></trkpt><trkpt lat="36.95746297969166" lon="15.1996098857475"><ele>14.0</ele><time>2026-04-19T16:42:22Z</time></trkpt><trkpt lat="36.95763469093254" lon="15.199713593010781"><ele>12.333333333333334</ele><time>2026-04-19T16:42:23Z</time></trkpt><trkpt lat="36.957797746364456" lon="15.19982911226725"><ele>10.666666666666668</ele><time>2026-04-19T16:42:24Z</time></trkpt><trkpt lat="36.957945219477814" lon="15.199980319979685"><ele>9.0</ele><time>2026-04-19T16:42:25Z</time></trkpt><trkpt lat="36.95811102140265" lon="15.200113006954949"><ele>8.666666666666666</ele><time>2026-04-19T16:42:26Z</time></trkpt><trkpt lat="36.958260749671744" lon="15.200264115461094"><ele>8.333333333333332</ele><time>2026-04-19T16:42:27Z</time></trkpt><trkpt lat="36.95840635027105" lon="15.200415498244237"><ele>8.0</ele><time>2026-04-19T16:42:28Z</time></trkpt><trkpt lat="36.95855153856479" lon="15.20056211026677"><ele>7.666666666666666</ele><time>2026-04-19T16:42:29Z</time></trkpt><trkpt lat="36.95869756794906" lon="15.200702200497833"><ele>7.333333333333334</ele><time>2026-04-19T16:42:30Z</time></trkpt><trkpt lat="36.95883798878696" lon="15.200845954342945"><ele>7.0</ele><time>2026-04-19T16:42:31Z</time></trkpt><trkpt lat="36.958982500111794" lon="15.200991611621495"><ele>7.0</ele><time>2026-04-19T16:42:32Z</time></trkpt><trkpt lat="36.95913715284275" lon="15.201148665396754"><ele>7.0</ele><time>2026-04-19T16:42:33Z</time></trkpt><trkpt lat="36.95928631069708" lon="15.201295132538624"><ele>7.0</ele><time>2026-04-19T16:42:34Z</time></trkpt><trkpt lat="36.95943374627788" lon="15.20144111795491"><ele>7.333333333333334</ele><time>2026-04-19T16:42:35Z</time></trkpt><trkpt lat="36.959587830103764" lon="15.201587570080012"><ele>7.666666666666666</ele><time>2026-04-19T16:42:35.999Z</time></trkpt><trkpt lat="36.959733844937276" lon="15.201764337057682"><ele>8.0</ele><time>2026-04-19T16:42:36.999Z</time></trkpt><trkpt lat="36.95988174575627" lon="15.201922603222373"><ele>8.0</ele><time>2026-04-19T16:42:37.999Z</time></trkpt><trkpt lat="36.960016116301695" lon="15.202070573314465"><ele>8.0</ele><time>2026-04-19T16:42:38.999Z</time></trkpt><trkpt lat="36.960141537023176" lon="15.202212991781016"><ele>8.0</ele><time>2026-04-19T16:42:39.999Z</time></trkpt><trkpt lat="36.96025955301042" lon="15.202349768301309"><ele>8.0</ele><time>2026-04-19T16:42:40.999Z</time></trkpt><trkpt lat="36.96037547290121" lon="15.202485842324121"><ele>8.0</ele><time>2026-04-19T16:42:41.999Z</time></trkpt><trkpt lat="36.960487763189306" lon="15.202620057126275"><ele>8.0</ele><time>2026-04-19T16:42:42.999Z</time></trkpt><trkpt lat="36.960588086430384" lon="15.202727599960472"><ele>8.0</ele><time>2026-04-19T16:42:43.999Z</time></trkpt><trkpt lat="36.960671748330455" lon="15.202855206568012"><ele>8.0</ele><time>2026-04-19T16:42:44.999Z</time></trkpt><trkpt lat="36.96073308085504" lon="15.202992013836994"><ele>8.0</ele><time>2026-04-19T16:42:45.999Z</time></trkpt><trkpt lat="36.96078399387713" lon="15.203130228805385"><ele>8.0</ele><time>2026-04-19T16:42:46.999Z</time></trkpt><trkpt lat="36.96086590835051" lon="15.20345058943131"><ele>9.5</ele><time>2026-04-19T16:42:48.999Z</time></trkpt><trkpt lat="36.96091334406291" lon="15.203622691294717"><ele>11.0</ele><time>2026-04-19T16:42:49.999Z</time></trkpt><trkpt lat="36.9609740822491" lon="15.203781777606446"><ele>12.5</ele><time>2026-04-19T16:42:50.999Z</time></trkpt><trkpt lat="36.96101657934483" lon="15.203947313120533"><ele>14.0</ele><time>2026-04-19T16:42:51.999Z</time></trkpt><trkpt lat="36.961076006119576" lon="15.204120063076413"><ele>14.0</ele><time>2026-04-19T16:42:52.999Z</time></trkpt><trkpt lat="36.96115234913969" lon="15.20427288747235"><ele>14.0</ele><time>2026-04-19T16:42:53.999Z</time></trkpt><trkpt lat="36.96122829718605" lon="15.20440263455772"><ele>14.0</ele><time>2026-04-19T16:42:54.999Z</time></trkpt><trkpt lat="36.96131497482997" lon="15.204519594909197"><ele>14.0</ele><time>2026-04-19T16:42:55.999Z</time></trkpt><trkpt lat="36.96142775724934" lon="15.204628981749206"><ele>14.0</ele><time>2026-04-19T16:42:56.999Z</time></trkpt><trkpt lat="36.96156229137451" lon="15.204738717475475"><ele>14.0</ele><time>2026-04-19T16:42:57.999Z</time></trkpt><trkpt lat="36.96170276842221" lon="15.204838489976629"><ele>14.0</ele><time>2026-04-19T16:42:58.999Z</time></trkpt><trkpt lat="36.96184540268214" lon="15.20492485308777"><ele>13.666666666666668</ele><time>2026-04-19T16:42:59.999Z</time></trkpt><trkpt lat="36.961987045950934" lon="15.205012926057526"><ele>13.333333333333332</ele><time>2026-04-19T16:43:00.999Z</time></trkpt><trkpt lat="36.96212396197341" lon="15.205107514111184"><ele>13.0</ele><time>2026-04-19T16:43:01.999Z</time></trkpt><trkpt lat="36.96225076877019" lon="15.205210816008826"><ele>13.0</ele><time>2026-04-19T16:43:02.999Z</time></trkpt><trkpt lat="36.96237510368557" lon="15.205311877540218"><ele>13.0</ele><time>2026-04-19T16:43:03.999Z</time></trkpt><trkpt lat="36.96249859211306" lon="15.205411548572265"><ele>13.0</ele><time>2026-04-19T16:43:04.999Z</time></trkpt><trkpt lat="36.96262563802789" lon="15.205509190607593"><ele>13.0</ele><time>2026-04-19T16:43:05.999Z</time></trkpt><trkpt lat="36.96274974355201" lon="15.205606191466513"><ele>13.0</ele><time>2026-04-19T16:43:06.999Z</time></trkpt><trkpt lat="36.96286398878816" lon="15.20570077835625"><ele>13.0</ele><time>2026-04-19T16:43:07.999Z</time></trkpt><trkpt lat="36.96296660478086" lon="15.205787721139599"><ele>13.0</ele><time>2026-04-19T16:43:08.999Z</time></trkpt><trkpt lat="36.96305666538004" lon="15.205877245241997"><ele>13.0</ele><time>2026-04-19T16:43:09.999Z</time></trkpt><trkpt lat="36.96314892654167" lon="15.205980203801868"><ele>13.0</ele><time>2026-04-19T16:43:10.999Z</time></trkpt><trkpt lat="36.96326466758188" lon="15.206109475429741"><ele>13.0</ele><time>2026-04-19T16:43:11.999Z</time></trkpt><trkpt lat="36.96339158654003" lon="15.20624375955973"><ele>13.0</ele><time>2026-04-19T16:43:12.999Z</time></trkpt><trkpt lat="36.9635155784048" lon="15.206393409213915"><ele>13.666666666666666</ele><time>2026-04-19T16:43:13.999Z</time></trkpt><trkpt lat="36.96366114495829" lon="15.206551715198525"><ele>14.333333333333332</ele><time>2026-04-19T16:43:14.999Z</time></trkpt><trkpt lat="36.963818214653784" lon="15.206697779226372"><ele>15.0</ele><time>2026-04-19T16:43:15.999Z</time></trkpt><trkpt lat="36.963952956754405" lon="15.206843695171091"><ele>15.0</ele><time>2026-04-19T16:43:16.999Z</time></trkpt><trkpt lat="36.96408107716347" lon="15.206999516174678"><ele>15.0</ele><time>2026-04-19T16:43:17.999Z</time></trkpt><trkpt lat="36.964213382543484" lon="15.207135068708892"><ele>15.0</ele><time>2026-04-19T16:43:18.999Z</time></trkpt><trkpt lat="36.96435224211787" lon="15.20727662455419"><ele>14.0</ele><time>2026-04-19T16:43:19.999Z</time></trkpt><trkpt lat="36.964497438905305" lon="15.207424640722063"><ele>13.0</ele><time>2026-04-19T16:43:20.999Z</time></trkpt><trkpt lat="36.96466269765669" lon="15.207575894371622"><ele>12.0</ele><time>2026-04-19T16:43:21.999Z</time></trkpt><trkpt lat="36.9648233240026" lon="15.207748548906912"><ele>12.0</ele><time>2026-04-19T16:43:22.999Z</time></trkpt><trkpt lat="36.9649697007976" lon="15.207897649854369"><ele>12.0</ele><time>2026-04-19T16:43:23.999Z</time></trkpt><trkpt lat="36.96510839393278" lon="15.208039384972931"><ele>12.0</ele><time>2026-04-19T16:43:24.999Z</time></trkpt><trkpt lat="36.96523714502877" lon="15.208173764737374"><ele>13.25</ele><time>2026-04-19T16:43:25.999Z</time></trkpt><trkpt lat="36.96535572250988" lon="15.208300000729697"><ele>14.5</ele><time>2026-04-19T16:43:26.999Z</time></trkpt><trkpt lat="36.96546897815998" lon="15.208417939351383"><ele>15.75</ele><time>2026-04-19T16:43:27.999Z</time></trkpt><trkpt lat="36.96557603909177" lon="15.208527595539213"><ele>17.0</ele><time>2026-04-19T16:43:28.999Z</time></trkpt><trkpt lat="36.965680688706" lon="15.20863655632863"><ele>17.0</ele><time>2026-04-19T16:43:29.999Z</time></trkpt><trkpt lat="36.9657815234006" lon="15.208741371043212"><ele>17.0</ele><time>2026-04-19T16:43:30.999Z</time></trkpt><trkpt lat="36.96588269611646" lon="15.208836941736172"><ele>17.0</ele><time>2026-04-19T16:43:31.999Z</time></trkpt><trkpt lat="36.96597434539018" lon="15.208919262889577"><ele>17.0</ele><time>2026-04-19T16:43:32.999Z</time></trkpt><trkpt lat="36.96605161559468" lon="15.208999202160394"><ele>17.333333333333336</ele><time>2026-04-19T16:43:33.999Z</time></trkpt><trkpt lat="36.96610245336773" lon="15.209101195637217"><ele>17.666666666666668</ele><time>2026-04-19T16:43:34.999Z</time></trkpt><trkpt lat="36.96613817985767" lon="15.209197436086054"><ele>18.0</ele><time>2026-04-19T16:43:35.999Z</time></trkpt><trkpt lat="36.966180015603975" lon="15.209282614714043"><ele>18.333333333333332</ele><time>2026-04-19T16:43:36.999Z</time></trkpt><trkpt lat="36.96615503349089" lon="15.20939354748752"><ele>18.666666666666664</ele><time>2026-04-19T16:43:37.999Z</time></trkpt><trkpt lat="36.966159730248066" lon="15.209498004225358"><ele>19.0</ele><time>2026-04-19T16:43:38.999Z</time></trkpt><trkpt lat="36.966161405839145" lon="15.209612066773861"><ele>19.0</ele><time>2026-04-19T16:43:39.999Z</time></trkpt><trkpt lat="36.96615987273229" lon="15.209721781722237"><ele>19.0</ele><time>2026-04-19T16:43:40.999Z</time></trkpt><trkpt lat="36.96615633787984" lon="15.20982287667669"><ele>19.0</ele><time>2026-04-19T16:43:41.999Z</time></trkpt><trkpt lat="36.966146965059224" lon="15.209920284638264"><ele>19.0</ele><time>2026-04-19T16:43:42.999Z</time></trkpt><trkpt lat="36.966132953277835" lon="15.210023818610647"><ele>19.0</ele><time>2026-04-19T16:43:43.999Z</time></trkpt><trkpt lat="36.96612078965949" lon="15.210134943898023"><ele>19.0</ele><time>2026-04-19T16:43:44.999Z</time></trkpt><trkpt lat="36.96606534080495" lon="15.210229175211586"><ele>18.833333333333332</ele><time>2026-04-19T16:43:45.999Z</time></trkpt><trkpt lat="36.966019899599445" lon="15.210308967931892"><ele>18.666666666666664</ele><time>2026-04-19T16:43:46.999Z</time></trkpt><trkpt lat="36.965973928176105" lon="15.21038932727862"><ele>18.5</ele><time>2026-04-19T16:43:47.999Z</time></trkpt><trkpt lat="36.96592108170779" lon="15.210482167483498"><ele>18.333333333333332</ele><time>2026-04-19T16:43:48.999Z</time></trkpt><trkpt lat="36.965875360914985" lon="15.210592636164318"><ele>18.166666666666668</ele><time>2026-04-19T16:43:49.999Z</time></trkpt><trkpt lat="36.965815592910126" lon="15.210689573676989"><ele>18.0</ele><time>2026-04-19T16:43:50.999Z</time></trkpt><trkpt lat="36.96574585887868" lon="15.210773697459743"><ele>18.0</ele><time>2026-04-19T16:43:51.999Z</time></trkpt><trkpt lat="36.96569245278625" lon="15.210856630921393"><ele>18.0</ele><time>2026-04-19T16:43:52.999Z</time></trkpt><trkpt lat="36.96564533024518" lon="15.210930233554587"><ele>18.0</ele><time>2026-04-19T16:43:53.999Z</time></trkpt><trkpt lat="36.965598233614884" lon="15.211003795143455"><ele>18.0</ele><time>2026-04-19T16:43:54.999Z</time></trkpt><trkpt lat="36.96555074206472" lon="15.211075784796387"><ele>18.0</ele><time>2026-04-19T16:43:55.999Z</time></trkpt><trkpt lat="36.96550375698523" lon="15.211148243161102"><ele>18.0</ele><time>2026-04-19T16:43:56.999Z</time></trkpt><trkpt lat="36.96545117455436" lon="15.211229886022647"><ele>18.0</ele><time>2026-04-19T16:43:57.999Z</time></trkpt><trkpt lat="36.96539924298299" lon="15.211312800115808"><ele>18.0</ele><time>2026-04-19T16:43:58.999Z</time></trkpt><trkpt lat="36.96534571559669" lon="15.21139758750034"><ele>18.0</ele><time>2026-04-19T16:43:59.999Z</time></trkpt><trkpt lat="36.96529009608147" lon="15.211485688795557"><ele>18.0</ele><time>2026-04-19T16:44:00.999Z</time></trkpt><trkpt lat="36.965233128524424" lon="15.211575925335517"><ele>18.0</ele><time>2026-04-19T16:44:01.999Z</time></trkpt><trkpt lat="36.965177738939175" lon="15.211665090679402"><ele>18.0</ele><time>2026-04-19T16:44:02.999Z</time></trkpt><trkpt lat="36.965123595847054" lon="15.21175487054705"><ele>18.0</ele><time>2026-04-19T16:44:03.999Z</time></trkpt><trkpt lat="36.965086294085566" lon="15.211859757388364"><ele>18.0</ele><time>2026-04-19T16:44:04.999Z</time></trkpt><trkpt lat="36.965036662848334" lon="15.21194350400524"><ele>18.0</ele><time>2026-04-19T16:44:05.999Z</time></trkpt><trkpt lat="36.96501935088137" lon="15.212053490622917"><ele>18.0</ele><time>2026-04-19T16:44:06.999Z</time></trkpt><trkpt lat="36.96502165895021" lon="15.212156236059679"><ele>18.0</ele><time>2026-04-19T16:44:07.998Z</time></trkpt><trkpt lat="36.965033493164405" lon="15.212249784623474"><ele>18.0</ele><time>2026-04-19T16:44:08.998Z</time></trkpt><trkpt lat="36.96504765830003" lon="15.212327736125522"><ele>18.0</ele><time>2026-04-19T16:44:09.998Z</time></trkpt><trkpt lat="36.96508029126545" lon="15.212477316986831"><ele>18.0</ele><time>2026-04-19T16:44:11.998Z</time></trkpt><trkpt lat="36.965099882780805" lon="15.21255474914922"><ele>18.0</ele><time>2026-04-19T16:44:12.998Z</time></trkpt><trkpt lat="36.965123660459945" lon="15.212645486945101"><ele>18.0</ele><time>2026-04-19T16:44:13.998Z</time></trkpt><trkpt lat="36.96514997621046" lon="15.212745910347655"><ele>18.0</ele><time>2026-04-19T16:44:14.998Z</time></trkpt><trkpt lat="36.96517890552411" lon="15.212854622672562"><ele>18.0</ele><time>2026-04-19T16:44:15.998Z</time></trkpt><trkpt lat="36.96520811367189" lon="15.212958793109578"><ele>18.0</ele><time>2026-04-19T16:44:16.998Z</time></trkpt><trkpt lat="36.96523621157208" lon="15.213057860629137"><ele>18.0</ele><time>2026-04-19T16:44:17.998Z</time></trkpt><trkpt lat="36.965263978483996" lon="15.2131557612118"><ele>18.0</ele><time>2026-04-19T16:44:19Z</time></trkpt><trkpt lat="36.96528733158226" lon="15.21325525127874"><ele>18.0</ele><time>2026-04-19T16:44:20Z</time></trkpt><trkpt lat="36.96531981486686" lon="15.213370798148363"><ele>18.0</ele><time>2026-04-19T16:44:21Z</time></trkpt><trkpt lat="36.965281278785554" lon="15.213497626121413"><ele>17.75</ele><time>2026-04-19T16:44:22Z</time></trkpt><trkpt lat="36.96525481963033" lon="15.213638530894757"><ele>17.5</ele><time>2026-04-19T16:44:23Z</time></trkpt><trkpt lat="36.96522649574893" lon="15.213789785648824"><ele>17.25</ele><time>2026-04-19T16:44:24Z</time></trkpt><trkpt lat="36.9651988858814" lon="15.213936211684581"><ele>17.0</ele><time>2026-04-19T16:44:25Z</time></trkpt><trkpt lat="36.96517156243857" lon="15.21407821050386"><ele>17.0</ele><time>2026-04-19T16:44:26Z</time></trkpt><trkpt lat="36.965139404946996" lon="15.214217410849406"><ele>17.0</ele><time>2026-04-19T16:44:27Z</time></trkpt><trkpt lat="36.96510259090283" lon="15.214357777595854"><ele>17.0</ele><time>2026-04-19T16:44:28Z</time></trkpt><trkpt lat="36.96506332082783" lon="15.21449663909486"><ele>17.0</ele><time>2026-04-19T16:44:29Z</time></trkpt><trkpt lat="36.96502350865184" lon="15.214631228951262"><ele>17.0</ele><time>2026-04-19T16:44:30Z</time></trkpt><trkpt lat="36.96498291338717" lon="15.214760781381564"><ele>17.0</ele><time>2026-04-19T16:44:31Z</time></trkpt><trkpt lat="36.96495965510734" lon="15.214892664064507"><ele>17.0</ele><time>2026-04-19T16:44:32Z</time></trkpt><trkpt lat="36.96492819889553" lon="15.215008882167302"><ele>17.0</ele><time>2026-04-19T16:44:33Z</time></trkpt><trkpt lat="36.964899407584696" lon="15.215122245411944"><ele>17.0</ele><time>2026-04-19T16:44:34Z</time></trkpt><trkpt lat="36.96493736004058" lon="15.215258474241937"><ele>17.0</ele><time>2026-04-19T16:44:35Z</time></trkpt><trkpt lat="36.96498061619571" lon="15.215406075461406"><ele>17.0</ele><time>2026-04-19T16:44:36Z</time></trkpt><trkpt lat="36.96503054254885" lon="15.215575631930115"><ele>17.0</ele><time>2026-04-19T16:44:37Z</time></trkpt><trkpt lat="36.96507641540591" lon="15.215749059495824"><ele>17.0</ele><time>2026-04-19T16:44:38Z</time></trkpt><trkpt lat="36.96512526351206" lon="15.215922589707612"><ele>19.75</ele><time>2026-04-19T16:44:39Z</time></trkpt><trkpt lat="36.9651788831041" lon="15.216092966773248"><ele>22.5</ele><time>2026-04-19T16:44:40Z</time></trkpt><trkpt lat="36.96523164653804" lon="15.216254910109468"><ele>25.25</ele><time>2026-04-19T16:44:41Z</time></trkpt><trkpt lat="36.9652774946386" lon="15.21640734039436"><ele>28.0</ele><time>2026-04-19T16:44:42Z</time></trkpt><trkpt lat="36.96532820645468" lon="15.216556196342525"><ele>28.5</ele><time>2026-04-19T16:44:42.999Z</time></trkpt><trkpt lat="36.965385083700674" lon="15.216707003100995"><ele>29.0</ele><time>2026-04-19T16:44:43.999Z</time></trkpt><trkpt lat="36.96545189326069" lon="15.216858585105568"><ele>29.5</ele><time>2026-04-19T16:44:44.999Z</time></trkpt><trkpt lat="36.965514917916884" lon="15.216998726464864"><ele>30.0</ele><time>2026-04-19T16:44:45.999Z</time></trkpt><trkpt lat="36.96557684864951" lon="15.217127665893923"><ele>30.0</ele><time>2026-04-19T16:44:46.999Z</time></trkpt><trkpt lat="36.96564091766237" lon="15.217251715927725"><ele>30.0</ele><time>2026-04-19T16:44:47.999Z</time></trkpt><trkpt lat="36.96569912194159" lon="15.217378773946418"><ele>30.0</ele><time>2026-04-19T16:44:48.999Z</time></trkpt><trkpt lat="36.96576180160878" lon="15.21751193566202"><ele>30.0</ele><time>2026-04-19T16:44:49.999Z</time></trkpt><trkpt lat="36.96583328502982" lon="15.217635534448887"><ele>30.5</ele><time>2026-04-19T16:44:50.999Z</time></trkpt><trkpt lat="36.96588624619776" lon="15.217774142453937"><ele>31.0</ele><time>2026-04-19T16:44:51.999Z</time></trkpt><trkpt lat="36.96596212975232" lon="15.217927714068963"><ele>31.5</ele><time>2026-04-19T16:44:52.999Z</time></trkpt><trkpt lat="36.966029998865004" lon="15.218075275773922"><ele>32.0</ele><time>2026-04-19T16:44:53.999Z</time></trkpt><trkpt lat="36.96608954829602" lon="15.218235206130856"><ele>32.0</ele><time>2026-04-19T16:44:54.999Z</time></trkpt><trkpt lat="36.96616281594625" lon="15.218410301492877"><ele>32.0</ele><time>2026-04-19T16:44:55.999Z</time></trkpt><trkpt lat="36.96625069696168" lon="15.218608850753037"><ele>32.0</ele><time>2026-04-19T16:44:56.999Z</time></trkpt><trkpt lat="36.96633717612167" lon="15.218826353002372"><ele>31.0</ele><time>2026-04-19T16:44:57.999Z</time></trkpt><trkpt lat="36.966415270714414" lon="15.219053444988289"><ele>30.0</ele><time>2026-04-19T16:44:58.999Z</time></trkpt><trkpt lat="36.9664791119705" lon="15.219260541739402"><ele>29.0</ele><time>2026-04-19T16:44:59.999Z</time></trkpt><trkpt lat="36.96650640358764" lon="15.219468708335993"><ele>29.0</ele><time>2026-04-19T16:45:00.999Z</time></trkpt><trkpt lat="36.966565485546624" lon="15.219648317548453"><ele>29.0</ele><time>2026-04-19T16:45:01.999Z</time></trkpt><trkpt lat="36.96662179867452" lon="15.219815624163397"><ele>29.0</ele><time>2026-04-19T16:45:02.999Z</time></trkpt><trkpt lat="36.9666769523457" lon="15.219977416856175"><ele>29.0</ele><time>2026-04-19T16:45:03.999Z</time></trkpt><trkpt lat="36.96674714339341" lon="15.220138144117486"><ele>30.0</ele><time>2026-04-19T16:45:04.999Z</time></trkpt><trkpt lat="36.966846804684685" lon="15.220289374470825"><ele>31.0</ele><time>2026-04-19T16:45:05.999Z</time></trkpt><trkpt lat="36.96694710605539" lon="15.220441373249814"><ele>32.0</ele><time>2026-04-19T16:45:06.999Z</time></trkpt><trkpt lat="36.967060646390046" lon="15.220587244438674"><ele>30.333333333333332</ele><time>2026-04-19T16:45:07.999Z</time></trkpt><trkpt lat="36.96717454887197" lon="15.220739970134634"><ele>28.666666666666664</ele><time>2026-04-19T16:45:08.999Z</time></trkpt><trkpt lat="36.967287514844536" lon="15.220897439785881"><ele>27.0</ele><time>2026-04-19T16:45:09.999Z</time></trkpt><trkpt lat="36.96740351467726" lon="15.22105619396587"><ele>27.0</ele><time>2026-04-19T16:45:10.999Z</time></trkpt><trkpt lat="36.96752193229757" lon="15.221207485303282"><ele>27.0</ele><time>2026-04-19T16:45:11.999Z</time></trkpt><trkpt lat="36.967641234975275" lon="15.221354352971444"><ele>27.0</ele><time>2026-04-19T16:45:12.999Z</time></trkpt><trkpt lat="36.96776485794874" lon="15.221512484177385"><ele>27.666666666666664</ele><time>2026-04-19T16:45:13.999Z</time></trkpt><trkpt lat="36.96788870096564" lon="15.221677422843976"><ele>28.333333333333332</ele><time>2026-04-19T16:45:14.999Z</time></trkpt><trkpt lat="36.96800922581699" lon="15.22183242809848"><ele>29.0</ele><time>2026-04-19T16:45:15.999Z</time></trkpt><trkpt lat="36.96812240675739" lon="15.22197339480795"><ele>29.0</ele><time>2026-04-19T16:45:16.999Z</time></trkpt><trkpt lat="36.96822669808029" lon="15.222105444506811"><ele>29.0</ele><time>2026-04-19T16:45:17.999Z</time></trkpt><trkpt lat="36.968323249723255" lon="15.2222322016385"><ele>29.0</ele><time>2026-04-19T16:45:18.999Z</time></trkpt><trkpt lat="36.968414728199946" lon="15.222353189825183"><ele>29.0</ele><time>2026-04-19T16:45:19.999Z</time></trkpt><trkpt lat="36.96849824410762" lon="15.222463549633567"><ele>29.25</ele><time>2026-04-19T16:45:20.999Z</time></trkpt><trkpt lat="36.968564513914956" lon="15.222554931881678"><ele>29.5</ele><time>2026-04-19T16:45:21.999Z</time></trkpt><trkpt lat="36.968619855912806" lon="15.222614003668014"><ele>29.75</ele><time>2026-04-19T16:45:22.999Z</time></trkpt><trkpt lat="36.96879737477996" lon="15.222462537300123"><ele>30.0</ele><time>2026-04-19T16:45:26.999Z</time></trkpt><trkpt lat="36.96883534580823" lon="15.222377705823146"><ele>30.142857142857146</ele><time>2026-04-19T16:45:27.999Z</time></trkpt><trkpt lat="36.96887442009043" lon="15.222301100204405"><ele>30.285714285714285</ele><time>2026-04-19T16:45:28.999Z</time></trkpt><trkpt lat="36.968921314724895" lon="15.222233515512459"><ele>30.42857142857143</ele><time>2026-04-19T16:45:29.999Z</time></trkpt><trkpt lat="36.968968461151015" lon="15.2221703145267"><ele>30.571428571428573</ele><time>2026-04-19T16:45:30.999Z</time></trkpt><trkpt lat="36.96901319150312" lon="15.222105545822838"><ele>30.714285714285715</ele><time>2026-04-19T16:45:31.999Z</time></trkpt><trkpt lat="36.96905275774241" lon="15.222035693050477"><ele>30.857142857142858</ele><time>2026-04-19T16:45:32.999Z</time></trkpt><trkpt lat="36.96908642489198" lon="15.221964892893391"><ele>31.0</ele><time>2026-04-19T16:45:33.999Z</time></trkpt><trkpt lat="36.969121992383336" lon="15.22189503362556"><ele>31.000000000000004</ele><time>2026-04-19T16:45:34.999Z</time></trkpt><trkpt lat="36.96916163350172" lon="15.221827847578256"><ele>31.0</ele><time>2026-04-19T16:45:35.999Z</time></trkpt><trkpt lat="36.96920416512055" lon="15.221763093970278"><ele>31.0</ele><time>2026-04-19T16:45:36.999Z</time></trkpt><trkpt lat="36.96925564030083" lon="15.221711381130678"><ele>31.0</ele><time>2026-04-19T16:45:37.999Z</time></trkpt><trkpt lat="36.96931541438201" lon="15.221671662683034"><ele>31.000000000000004</ele><time>2026-04-19T16:45:38.999Z</time></trkpt><trkpt lat="36.96944154253239" lon="15.221635888654443"><ele>31.0</ele><time>2026-04-19T16:45:40.999Z</time></trkpt><trkpt lat="36.96950768923004" lon="15.221623916278139"><ele>31.0</ele><time>2026-04-19T16:45:41.999Z</time></trkpt><trkpt lat="36.96957258205824" lon="15.221629567435203"><ele>31.000000000000004</ele><time>2026-04-19T16:45:42.999Z</time></trkpt><trkpt lat="36.969641834586014" lon="15.22163300797536"><ele>31.0</ele><time>2026-04-19T16:45:43.999Z</time></trkpt><trkpt lat="36.96971075632909" lon="15.221632269646998"><ele>31.0</ele><time>2026-04-19T16:45:44.999Z</time></trkpt><trkpt lat="36.96977904606326" lon="15.22162130150045"><ele>31.000000000000004</ele><time>2026-04-19T16:45:45.999Z</time></trkpt><trkpt lat="36.96984602403004" lon="15.221641767772097"><ele>31.0</ele><time>2026-04-19T16:45:46.999Z</time></trkpt><trkpt lat="36.96990950168685" lon="15.22164014084595"><ele>31.0</ele><time>2026-04-19T16:45:47.999Z</time></trkpt><trkpt lat="36.969971753831935" lon="15.221626035276547"><ele>30.833333333333336</ele><time>2026-04-19T16:45:48.999Z</time></trkpt><trkpt lat="36.970037892412556" lon="15.221645764993628"><ele>30.666666666666668</ele><time>2026-04-19T16:45:49.999Z</time></trkpt><trkpt lat="36.97010258387676" lon="15.221649162134737"><ele>30.5</ele><time>2026-04-19T16:45:50.999Z</time></trkpt><trkpt lat="36.970226060595266" lon="15.221638813523073"><ele>30.333333333333336</ele><time>2026-04-19T16:45:52.999Z</time></trkpt><trkpt lat="36.97029450316566" lon="15.221641142370464"><ele>30.166666666666668</ele><time>2026-04-19T16:45:53.999Z</time></trkpt><trkpt lat="36.97036592779858" lon="15.221661846345311"><ele>30.0</ele><time>2026-04-19T16:45:54.999Z</time></trkpt><trkpt lat="36.9704362727354" lon="15.221644346581838"><ele>30.0</ele><time>2026-04-19T16:45:55.999Z</time></trkpt><trkpt lat="36.97050339555631" lon="15.221656086656164"><ele>30.0</ele><time>2026-04-19T16:45:56.999Z</time></trkpt><trkpt lat="36.970566909743575" lon="15.221656021288547"><ele>30.0</ele><time>2026-04-19T16:45:57.999Z</time></trkpt><trkpt lat="36.970632585553645" lon="15.221660040750121"><ele>30.0</ele><time>2026-04-19T16:45:58.999Z</time></trkpt><trkpt lat="36.97075667660687" lon="15.221660691306969"><ele>30.0</ele><time>2026-04-19T16:46:00.999Z</time></trkpt><trkpt lat="36.97082142612984" lon="15.221658218650532"><ele>30.0</ele><time>2026-04-19T16:46:01.999Z</time></trkpt><trkpt lat="36.970886335726966" lon="15.221661828513236"><ele>30.0</ele><time>2026-04-19T16:46:02.999Z</time></trkpt><trkpt lat="36.97095376345842" lon="15.221677527323143"><ele>30.0</ele><time>2026-04-19T16:46:03.999Z</time></trkpt><trkpt lat="36.97101996952629" lon="15.22165702045506"><ele>30.0</ele><time>2026-04-19T16:46:04.999Z</time></trkpt><trkpt lat="36.97108694471518" lon="15.221664507473893"><ele>30.0</ele><time>2026-04-19T16:46:05.999Z</time></trkpt><trkpt lat="36.97115792124557" lon="15.221681860319864"><ele>30.0</ele><time>2026-04-19T16:46:06.999Z</time></trkpt><trkpt lat="36.971228253051436" lon="15.221659867669118"><ele>30.0</ele><time>2026-04-19T16:46:07.999Z</time></trkpt><trkpt lat="36.971298064176366" lon="15.221659803829194"><ele>30.0</ele><time>2026-04-19T16:46:08.999Z</time></trkpt><trkpt lat="36.97136646795536" lon="15.221681097242387"><ele>30.0</ele><time>2026-04-19T16:46:09.999Z</time></trkpt><trkpt lat="36.97148506348686" lon="15.221678203757024"><ele>30.0</ele><time>2026-04-19T16:46:11.999Z</time></trkpt><trkpt lat="36.97159147054439" lon="15.221688210528505"><ele>30.0</ele><time>2026-04-19T16:46:13.998Z</time></trkpt><trkpt lat="36.97169602051242" lon="15.22167341591649"><ele>30.0</ele><time>2026-04-19T16:46:15.998Z</time></trkpt><trkpt lat="36.97179803492492" lon="15.221697262584065"><ele>30.0</ele><time>2026-04-19T16:46:17.998Z</time></trkpt><trkpt lat="36.97191144747067" lon="15.22168823510844"><ele>30.0</ele><time>2026-04-19T16:46:19.998Z</time></trkpt><trkpt lat="36.972027371895344" lon="15.221699037788525"><ele>30.0</ele><time>2026-04-19T16:46:21.998Z</time></trkpt><trkpt lat="36.97214402344256" lon="15.221705601220599"><ele>30.0</ele><time>2026-04-19T16:46:23.998Z</time></trkpt><trkpt lat="36.97227194008703" lon="15.221688994686556"><ele>30.0</ele><time>2026-04-19T16:46:26Z</time></trkpt><trkpt lat="36.97233876054177" lon="15.221695056434053"><ele>30.0</ele><time>2026-04-19T16:46:27Z</time></trkpt><trkpt lat="36.972407048124786" lon="15.2217055490734"><ele>30.0</ele><time>2026-04-19T16:46:28Z</time></trkpt><trkpt lat="36.97247610078302" lon="15.221710433240792"><ele>30.0</ele><time>2026-04-19T16:46:29Z</time></trkpt><trkpt lat="36.97254479216812" lon="15.221710871214936"><ele>30.0</ele><time>2026-04-19T16:46:30Z</time></trkpt><trkpt lat="36.972614893102566" lon="15.22171597526368"><ele>30.0</ele><time>2026-04-19T16:46:31Z</time></trkpt><trkpt lat="36.97268353924422" lon="15.221716180307872"><ele>30.0</ele><time>2026-04-19T16:46:32Z</time></trkpt><trkpt lat="36.97275359940565" lon="15.22171613348617"><ele>30.0</ele><time>2026-04-19T16:46:33Z</time></trkpt><trkpt lat="36.97282619261615" lon="15.221720639284397"><ele>30.0</ele><time>2026-04-19T16:46:34Z</time></trkpt><trkpt lat="36.97290308518431" lon="15.221716345726696"><ele>29.666666666666668</ele><time>2026-04-19T16:46:35Z</time></trkpt><trkpt lat="36.97298375967292" lon="15.22171339965055"><ele>29.333333333333336</ele><time>2026-04-19T16:46:36Z</time></trkpt><trkpt lat="36.97306302183791" lon="15.221721687859327"><ele>29.0</ele><time>2026-04-19T16:46:37Z</time></trkpt><trkpt lat="36.97313933798751" lon="15.221731383679794"><ele>28.666666666666668</ele><time>2026-04-19T16:46:38Z</time></trkpt><trkpt lat="36.97321375929357" lon="15.221737391523352"><ele>28.333333333333336</ele><time>2026-04-19T16:46:39Z</time></trkpt><trkpt lat="36.97328858385801" lon="15.221742643162171"><ele>28.0</ele><time>2026-04-19T16:46:40Z</time></trkpt><trkpt lat="36.97336064377634" lon="15.221744440187633"><ele>27.857142857142858</ele><time>2026-04-19T16:46:41Z</time></trkpt><trkpt lat="36.97343420350313" lon="15.221742487054861"><ele>27.714285714285715</ele><time>2026-04-19T16:46:42Z</time></trkpt><trkpt lat="36.97350990311141" lon="15.221742555808591"><ele>27.57142857142857</ele><time>2026-04-19T16:46:43Z</time></trkpt><trkpt lat="36.973581681303735" lon="15.22174186910028"><ele>27.42857142857143</ele><time>2026-04-19T16:46:44Z</time></trkpt><trkpt lat="36.97365055073165" lon="15.221735270941391"><ele>27.285714285714285</ele><time>2026-04-19T16:46:45Z</time></trkpt><trkpt lat="36.97371936330107" lon="15.221751795052159"><ele>27.142857142857142</ele><time>2026-04-19T16:46:46Z</time></trkpt><trkpt lat="36.973799149435436" lon="15.221754789785534"><ele>27.0</ele><time>2026-04-19T16:46:47Z</time></trkpt><trkpt lat="36.97388338231605" lon="15.22175840922736"><ele>27.0</ele><time>2026-04-19T16:46:48Z</time></trkpt><trkpt lat="36.97396158574947" lon="15.221761644117203"><ele>27.0</ele><time>2026-04-19T16:46:49Z</time></trkpt><trkpt lat="36.97403448409469" lon="15.221744874847774"><ele>27.0</ele><time>2026-04-19T16:46:50Z</time></trkpt><trkpt lat="36.974125656281736" lon="15.221768430902324"><ele>27.0</ele><time>2026-04-19T16:46:51.999Z</time></trkpt><trkpt lat="36.974193041764046" lon="15.22177029765777"><ele>27.0</ele><time>2026-04-19T16:46:53.999Z</time></trkpt><trkpt lat="36.974277650251814" lon="15.221771953799031"><ele>27.0</ele><time>2026-04-19T16:46:56.999Z</time></trkpt><trkpt lat="36.974353476060045" lon="15.221756722030586"><ele>27.0</ele><time>2026-04-19T16:47:00.999Z</time></trkpt><trkpt lat="36.97442380952597" lon="15.221795593387483"><ele>27.0</ele><time>2026-04-19T16:48:52Z</time></trkpt><trkpt lat="36.97448878263362" lon="15.22179686518388"><ele>27.0</ele><time>2026-04-19T16:48:55Z</time></trkpt><trkpt lat="36.9744942528738" lon="15.221996607344886"><ele>27.0</ele><time>2026-04-19T16:50:13.999Z</time></trkpt><trkpt lat="36.97443197785171" lon="15.221940865849191"><ele>27.0</ele><time>2026-04-19T16:52:46Z</time></trkpt></trkseg></trk></gpx>